<?xml version="1.0" encoding="UTF-8" standalone="no" ?>
<gpx xmlns="http://www.topografix.com/GPX/1/1" xmlns:xsi="http://www.w3.org/2001/XMLSchema-instance" xsi:schemaLocation="http://www.topografix.com/GPX/1/1 http://www.topografix.com/GPX/1/1/gpx.xsd" version="1.1" creator="VisuGPX - https://www.visugpx.com">
  <metadata>
    <name>Gravel dans l'après-midi</name>
  </metadata>
  <trk>
    <name><![CDATA[Gravel dans l'après-midi_1]]></name>
    <trkseg>
      <trkpt lat="49.02021" lon="7.84577">
        <ele>348.6</ele>
        <time>2024-08-25T12:51:58Z</time>
      </trkpt>
      <trkpt lat="49.02019" lon="7.84578">
        <ele>348.6</ele>
        <time>2024-08-25T12:51:59Z</time>
      </trkpt>
      <trkpt lat="49.02017" lon="7.84579">
        <ele>348.4</ele>
        <time>2024-08-25T12:52:00Z</time>
      </trkpt>
      <trkpt lat="49.02014" lon="7.84581">
        <ele>348.4</ele>
        <time>2024-08-25T12:52:01Z</time>
      </trkpt>
      <trkpt lat="49.02012" lon="7.84582">
        <ele>348.2</ele>
        <time>2024-08-25T12:52:02Z</time>
      </trkpt>
      <trkpt lat="49.02009" lon="7.84583">
        <ele>348</ele>
        <time>2024-08-25T12:52:03Z</time>
      </trkpt>
      <trkpt lat="49.01999" lon="7.84581">
        <ele>347.8</ele>
        <time>2024-08-25T12:52:05Z</time>
      </trkpt>
      <trkpt lat="49.01997" lon="7.8458">
        <ele>347.8</ele>
        <time>2024-08-25T12:52:06Z</time>
      </trkpt>
      <trkpt lat="49.01993" lon="7.84577">
        <ele>347.6</ele>
        <time>2024-08-25T12:52:07Z</time>
      </trkpt>
      <trkpt lat="49.01989" lon="7.84575">
        <ele>347.6</ele>
        <time>2024-08-25T12:52:08Z</time>
      </trkpt>
      <trkpt lat="49.01985" lon="7.84574">
        <ele>347.2</ele>
        <time>2024-08-25T12:52:09Z</time>
      </trkpt>
      <trkpt lat="49.01981" lon="7.84572">
        <ele>347.2</ele>
        <time>2024-08-25T12:52:10Z</time>
      </trkpt>
      <trkpt lat="49.01976" lon="7.84571">
        <ele>346.8</ele>
        <time>2024-08-25T12:52:11Z</time>
      </trkpt>
      <trkpt lat="49.01971" lon="7.84568">
        <ele>346.8</ele>
        <time>2024-08-25T12:52:12Z</time>
      </trkpt>
      <trkpt lat="49.01967" lon="7.84565">
        <ele>346.4</ele>
        <time>2024-08-25T12:52:13Z</time>
      </trkpt>
      <trkpt lat="49.01962" lon="7.84563">
        <ele>346</ele>
        <time>2024-08-25T12:52:14Z</time>
      </trkpt>
      <trkpt lat="49.01957" lon="7.84562">
        <ele>345.8</ele>
        <time>2024-08-25T12:52:15Z</time>
      </trkpt>
      <trkpt lat="49.01952" lon="7.84563">
        <ele>345.8</ele>
        <time>2024-08-25T12:52:16Z</time>
      </trkpt>
      <trkpt lat="49.01947" lon="7.84565">
        <ele>345.6</ele>
        <time>2024-08-25T12:52:17Z</time>
      </trkpt>
      <trkpt lat="49.01942" lon="7.84567">
        <ele>345.4</ele>
        <time>2024-08-25T12:52:18Z</time>
      </trkpt>
      <trkpt lat="49.01937" lon="7.8457">
        <ele>345.2</ele>
        <time>2024-08-25T12:52:19Z</time>
      </trkpt>
      <trkpt lat="49.01932" lon="7.84574">
        <ele>345.2</ele>
        <time>2024-08-25T12:52:20Z</time>
      </trkpt>
      <trkpt lat="49.01927" lon="7.84578">
        <ele>345</ele>
        <time>2024-08-25T12:52:21Z</time>
      </trkpt>
      <trkpt lat="49.01922" lon="7.84582">
        <ele>344.8</ele>
        <time>2024-08-25T12:52:22Z</time>
      </trkpt>
      <trkpt lat="49.01918" lon="7.84585">
        <ele>344.8</ele>
        <time>2024-08-25T12:52:23Z</time>
      </trkpt>
      <trkpt lat="49.01913" lon="7.8459">
        <ele>344.8</ele>
        <time>2024-08-25T12:52:24Z</time>
      </trkpt>
      <trkpt lat="49.0191" lon="7.84594">
        <ele>344.8</ele>
        <time>2024-08-25T12:52:25Z</time>
      </trkpt>
      <trkpt lat="49.01907" lon="7.846">
        <ele>344.8</ele>
        <time>2024-08-25T12:52:26Z</time>
      </trkpt>
      <trkpt lat="49.01905" lon="7.84606">
        <ele>345.2</ele>
        <time>2024-08-25T12:52:27Z</time>
      </trkpt>
      <trkpt lat="49.01903" lon="7.84612">
        <ele>345.6</ele>
        <time>2024-08-25T12:52:28Z</time>
      </trkpt>
      <trkpt lat="49.01901" lon="7.84618">
        <ele>345.8</ele>
        <time>2024-08-25T12:52:29Z</time>
      </trkpt>
      <trkpt lat="49.01898" lon="7.84623">
        <ele>346</ele>
        <time>2024-08-25T12:52:30Z</time>
      </trkpt>
      <trkpt lat="49.01896" lon="7.84628">
        <ele>346.4</ele>
        <time>2024-08-25T12:52:31Z</time>
      </trkpt>
      <trkpt lat="49.01894" lon="7.84633">
        <ele>346.6</ele>
        <time>2024-08-25T12:52:32Z</time>
      </trkpt>
      <trkpt lat="49.01892" lon="7.84638">
        <ele>346.8</ele>
        <time>2024-08-25T12:52:33Z</time>
      </trkpt>
      <trkpt lat="49.0189" lon="7.84643">
        <ele>347.4</ele>
        <time>2024-08-25T12:52:34Z</time>
      </trkpt>
      <trkpt lat="49.01888" lon="7.84647">
        <ele>347.6</ele>
        <time>2024-08-25T12:52:35Z</time>
      </trkpt>
      <trkpt lat="49.01886" lon="7.84653">
        <ele>348</ele>
        <time>2024-08-25T12:52:36Z</time>
      </trkpt>
      <trkpt lat="49.01884" lon="7.84657">
        <ele>348.2</ele>
        <time>2024-08-25T12:52:37Z</time>
      </trkpt>
      <trkpt lat="49.01882" lon="7.84662">
        <ele>348.6</ele>
        <time>2024-08-25T12:52:38Z</time>
      </trkpt>
      <trkpt lat="49.0188" lon="7.84666">
        <ele>349.2</ele>
        <time>2024-08-25T12:52:39Z</time>
      </trkpt>
      <trkpt lat="49.01879" lon="7.8467">
        <ele>349.6</ele>
        <time>2024-08-25T12:52:40Z</time>
      </trkpt>
      <trkpt lat="49.01877" lon="7.84675">
        <ele>349.8</ele>
        <time>2024-08-25T12:52:41Z</time>
      </trkpt>
      <trkpt lat="49.01875" lon="7.84679">
        <ele>350</ele>
        <time>2024-08-25T12:52:42Z</time>
      </trkpt>
      <trkpt lat="49.01874" lon="7.84683">
        <ele>350.2</ele>
        <time>2024-08-25T12:52:43Z</time>
      </trkpt>
      <trkpt lat="49.01872" lon="7.84687">
        <ele>350.6</ele>
        <time>2024-08-25T12:52:44Z</time>
      </trkpt>
      <trkpt lat="49.0187" lon="7.84692">
        <ele>351</ele>
        <time>2024-08-25T12:52:45Z</time>
      </trkpt>
      <trkpt lat="49.01869" lon="7.84696">
        <ele>351.2</ele>
        <time>2024-08-25T12:52:46Z</time>
      </trkpt>
      <trkpt lat="49.01867" lon="7.84701">
        <ele>351.4</ele>
        <time>2024-08-25T12:52:47Z</time>
      </trkpt>
      <trkpt lat="49.01865" lon="7.84705">
        <ele>351.4</ele>
        <time>2024-08-25T12:52:48Z</time>
      </trkpt>
      <trkpt lat="49.01863" lon="7.84709">
        <ele>351.8</ele>
        <time>2024-08-25T12:52:49Z</time>
      </trkpt>
      <trkpt lat="49.01861" lon="7.84714">
        <ele>352</ele>
        <time>2024-08-25T12:52:50Z</time>
      </trkpt>
      <trkpt lat="49.0186" lon="7.84719">
        <ele>352.2</ele>
        <time>2024-08-25T12:52:51Z</time>
      </trkpt>
      <trkpt lat="49.01858" lon="7.84725">
        <ele>352.2</ele>
        <time>2024-08-25T12:52:52Z</time>
      </trkpt>
      <trkpt lat="49.01857" lon="7.8473">
        <ele>352.4</ele>
        <time>2024-08-25T12:52:53Z</time>
      </trkpt>
      <trkpt lat="49.01854" lon="7.84735">
        <ele>352.4</ele>
        <time>2024-08-25T12:52:54Z</time>
      </trkpt>
      <trkpt lat="49.01852" lon="7.84739">
        <ele>352.4</ele>
        <time>2024-08-25T12:52:55Z</time>
      </trkpt>
      <trkpt lat="49.0185" lon="7.84744">
        <ele>352.6</ele>
        <time>2024-08-25T12:52:56Z</time>
      </trkpt>
      <trkpt lat="49.01848" lon="7.84749">
        <ele>352.6</ele>
        <time>2024-08-25T12:52:57Z</time>
      </trkpt>
      <trkpt lat="49.01845" lon="7.84755">
        <ele>352.6</ele>
        <time>2024-08-25T12:52:58Z</time>
      </trkpt>
      <trkpt lat="49.01843" lon="7.8476">
        <ele>352.6</ele>
        <time>2024-08-25T12:52:59Z</time>
      </trkpt>
      <trkpt lat="49.01842" lon="7.84765">
        <ele>352.6</ele>
        <time>2024-08-25T12:53:00Z</time>
      </trkpt>
      <trkpt lat="49.0184" lon="7.84771">
        <ele>352.6</ele>
        <time>2024-08-25T12:53:01Z</time>
      </trkpt>
      <trkpt lat="49.01838" lon="7.84776">
        <ele>352.6</ele>
        <time>2024-08-25T12:53:02Z</time>
      </trkpt>
      <trkpt lat="49.01835" lon="7.84781">
        <ele>352.6</ele>
        <time>2024-08-25T12:53:03Z</time>
      </trkpt>
      <trkpt lat="49.01833" lon="7.84786">
        <ele>352.6</ele>
        <time>2024-08-25T12:53:04Z</time>
      </trkpt>
      <trkpt lat="49.01831" lon="7.84792">
        <ele>352.6</ele>
        <time>2024-08-25T12:53:05Z</time>
      </trkpt>
      <trkpt lat="49.01829" lon="7.84798">
        <ele>352.6</ele>
        <time>2024-08-25T12:53:06Z</time>
      </trkpt>
      <trkpt lat="49.01827" lon="7.84804">
        <ele>352.6</ele>
        <time>2024-08-25T12:53:07Z</time>
      </trkpt>
      <trkpt lat="49.01825" lon="7.84811">
        <ele>352.8</ele>
        <time>2024-08-25T12:53:08Z</time>
      </trkpt>
      <trkpt lat="49.01823" lon="7.84816">
        <ele>352.8</ele>
        <time>2024-08-25T12:53:09Z</time>
      </trkpt>
      <trkpt lat="49.01821" lon="7.84822">
        <ele>352.8</ele>
        <time>2024-08-25T12:53:10Z</time>
      </trkpt>
      <trkpt lat="49.01819" lon="7.84828">
        <ele>352.8</ele>
        <time>2024-08-25T12:53:11Z</time>
      </trkpt>
      <trkpt lat="49.01817" lon="7.84834">
        <ele>352.8</ele>
        <time>2024-08-25T12:53:12Z</time>
      </trkpt>
      <trkpt lat="49.01815" lon="7.8484">
        <ele>352.8</ele>
        <time>2024-08-25T12:53:13Z</time>
      </trkpt>
      <trkpt lat="49.01813" lon="7.84846">
        <ele>352.8</ele>
        <time>2024-08-25T12:53:14Z</time>
      </trkpt>
      <trkpt lat="49.01811" lon="7.84853">
        <ele>352.8</ele>
        <time>2024-08-25T12:53:15Z</time>
      </trkpt>
      <trkpt lat="49.01809" lon="7.84858">
        <ele>352.8</ele>
        <time>2024-08-25T12:53:16Z</time>
      </trkpt>
      <trkpt lat="49.01807" lon="7.84864">
        <ele>352.8</ele>
        <time>2024-08-25T12:53:17Z</time>
      </trkpt>
      <trkpt lat="49.01805" lon="7.84869">
        <ele>352.8</ele>
        <time>2024-08-25T12:53:18Z</time>
      </trkpt>
      <trkpt lat="49.01803" lon="7.84875">
        <ele>352.8</ele>
        <time>2024-08-25T12:53:19Z</time>
      </trkpt>
      <trkpt lat="49.01801" lon="7.84881">
        <ele>353</ele>
        <time>2024-08-25T12:53:20Z</time>
      </trkpt>
      <trkpt lat="49.01799" lon="7.84887">
        <ele>353.2</ele>
        <time>2024-08-25T12:53:21Z</time>
      </trkpt>
      <trkpt lat="49.01797" lon="7.84893">
        <ele>353.2</ele>
        <time>2024-08-25T12:53:22Z</time>
      </trkpt>
      <trkpt lat="49.01795" lon="7.849">
        <ele>353.2</ele>
        <time>2024-08-25T12:53:23Z</time>
      </trkpt>
      <trkpt lat="49.01794" lon="7.84906">
        <ele>353.2</ele>
        <time>2024-08-25T12:53:24Z</time>
      </trkpt>
      <trkpt lat="49.01792" lon="7.84913">
        <ele>353</ele>
        <time>2024-08-25T12:53:25Z</time>
      </trkpt>
      <trkpt lat="49.0179" lon="7.8492">
        <ele>353</ele>
        <time>2024-08-25T12:53:26Z</time>
      </trkpt>
      <trkpt lat="49.01787" lon="7.84926">
        <ele>352.8</ele>
        <time>2024-08-25T12:53:27Z</time>
      </trkpt>
      <trkpt lat="49.01786" lon="7.84931">
        <ele>352.8</ele>
        <time>2024-08-25T12:53:28Z</time>
      </trkpt>
      <trkpt lat="49.01783" lon="7.84937">
        <ele>352.4</ele>
        <time>2024-08-25T12:53:29Z</time>
      </trkpt>
      <trkpt lat="49.01781" lon="7.84943">
        <ele>352.4</ele>
        <time>2024-08-25T12:53:30Z</time>
      </trkpt>
      <trkpt lat="49.01779" lon="7.84949">
        <ele>352.4</ele>
        <time>2024-08-25T12:53:31Z</time>
      </trkpt>
      <trkpt lat="49.01778" lon="7.84956">
        <ele>352.4</ele>
        <time>2024-08-25T12:53:32Z</time>
      </trkpt>
      <trkpt lat="49.01776" lon="7.8496">
        <ele>352.4</ele>
        <time>2024-08-25T12:53:33Z</time>
      </trkpt>
      <trkpt lat="49.01773" lon="7.84963">
        <ele>352.2</ele>
        <time>2024-08-25T12:53:34Z</time>
      </trkpt>
      <trkpt lat="49.01771" lon="7.84963">
        <ele>352</ele>
        <time>2024-08-25T12:53:35Z</time>
      </trkpt>
      <trkpt lat="49.01769" lon="7.84962">
        <ele>351.6</ele>
        <time>2024-08-25T12:53:36Z</time>
      </trkpt>
      <trkpt lat="49.01767" lon="7.8496">
        <ele>351.4</ele>
        <time>2024-08-25T12:53:37Z</time>
      </trkpt>
      <trkpt lat="49.01764" lon="7.84958">
        <ele>351.2</ele>
        <time>2024-08-25T12:53:38Z</time>
      </trkpt>
      <trkpt lat="49.01762" lon="7.84957">
        <ele>351</ele>
        <time>2024-08-25T12:53:39Z</time>
      </trkpt>
      <trkpt lat="49.01759" lon="7.84957">
        <ele>350.6</ele>
        <time>2024-08-25T12:53:40Z</time>
      </trkpt>
      <trkpt lat="49.01757" lon="7.84958">
        <ele>350.4</ele>
        <time>2024-08-25T12:53:41Z</time>
      </trkpt>
      <trkpt lat="49.01755" lon="7.84961">
        <ele>350.2</ele>
        <time>2024-08-25T12:53:42Z</time>
      </trkpt>
      <trkpt lat="49.01752" lon="7.84965">
        <ele>349.8</ele>
        <time>2024-08-25T12:53:43Z</time>
      </trkpt>
      <trkpt lat="49.01749" lon="7.8497">
        <ele>349.6</ele>
        <time>2024-08-25T12:53:44Z</time>
      </trkpt>
      <trkpt lat="49.01746" lon="7.84976">
        <ele>349.2</ele>
        <time>2024-08-25T12:53:45Z</time>
      </trkpt>
      <trkpt lat="49.01741" lon="7.84982">
        <ele>348.8</ele>
        <time>2024-08-25T12:53:46Z</time>
      </trkpt>
      <trkpt lat="49.01737" lon="7.84987">
        <ele>348.4</ele>
        <time>2024-08-25T12:53:47Z</time>
      </trkpt>
      <trkpt lat="49.01732" lon="7.84991">
        <ele>347.8</ele>
        <time>2024-08-25T12:53:48Z</time>
      </trkpt>
      <trkpt lat="49.01727" lon="7.84994">
        <ele>347.2</ele>
        <time>2024-08-25T12:53:49Z</time>
      </trkpt>
      <trkpt lat="49.01722" lon="7.84998">
        <ele>347</ele>
        <time>2024-08-25T12:53:50Z</time>
      </trkpt>
      <trkpt lat="49.01718" lon="7.85002">
        <ele>346.8</ele>
        <time>2024-08-25T12:53:51Z</time>
      </trkpt>
      <trkpt lat="49.01713" lon="7.85006">
        <ele>346.6</ele>
        <time>2024-08-25T12:53:52Z</time>
      </trkpt>
      <trkpt lat="49.01709" lon="7.8501">
        <ele>346.6</ele>
        <time>2024-08-25T12:53:53Z</time>
      </trkpt>
      <trkpt lat="49.01705" lon="7.85014">
        <ele>346.6</ele>
        <time>2024-08-25T12:53:54Z</time>
      </trkpt>
      <trkpt lat="49.017" lon="7.85017">
        <ele>346.6</ele>
        <time>2024-08-25T12:53:55Z</time>
      </trkpt>
      <trkpt lat="49.01695" lon="7.8502">
        <ele>346.6</ele>
        <time>2024-08-25T12:53:56Z</time>
      </trkpt>
      <trkpt lat="49.01691" lon="7.85023">
        <ele>346.8</ele>
        <time>2024-08-25T12:53:57Z</time>
      </trkpt>
      <trkpt lat="49.01687" lon="7.85027">
        <ele>347</ele>
        <time>2024-08-25T12:53:58Z</time>
      </trkpt>
      <trkpt lat="49.01682" lon="7.85031">
        <ele>347</ele>
        <time>2024-08-25T12:53:59Z</time>
      </trkpt>
      <trkpt lat="49.01678" lon="7.85034">
        <ele>347</ele>
        <time>2024-08-25T12:54:00Z</time>
      </trkpt>
      <trkpt lat="49.01674" lon="7.85038">
        <ele>347.2</ele>
        <time>2024-08-25T12:54:01Z</time>
      </trkpt>
      <trkpt lat="49.0167" lon="7.8504">
        <ele>347.4</ele>
        <time>2024-08-25T12:54:02Z</time>
      </trkpt>
      <trkpt lat="49.01666" lon="7.85043">
        <ele>347.6</ele>
        <time>2024-08-25T12:54:03Z</time>
      </trkpt>
      <trkpt lat="49.01663" lon="7.85047">
        <ele>347.8</ele>
        <time>2024-08-25T12:54:04Z</time>
      </trkpt>
      <trkpt lat="49.01659" lon="7.8505">
        <ele>348</ele>
        <time>2024-08-25T12:54:05Z</time>
      </trkpt>
      <trkpt lat="49.01655" lon="7.85054">
        <ele>348.2</ele>
        <time>2024-08-25T12:54:06Z</time>
      </trkpt>
      <trkpt lat="49.01652" lon="7.85056">
        <ele>348.8</ele>
        <time>2024-08-25T12:54:07Z</time>
      </trkpt>
      <trkpt lat="49.01649" lon="7.85059">
        <ele>349</ele>
        <time>2024-08-25T12:54:08Z</time>
      </trkpt>
      <trkpt lat="49.01645" lon="7.85062">
        <ele>349.2</ele>
        <time>2024-08-25T12:54:09Z</time>
      </trkpt>
      <trkpt lat="49.01642" lon="7.85065">
        <ele>349.8</ele>
        <time>2024-08-25T12:54:10Z</time>
      </trkpt>
      <trkpt lat="49.01638" lon="7.85068">
        <ele>350.2</ele>
        <time>2024-08-25T12:54:11Z</time>
      </trkpt>
      <trkpt lat="49.01635" lon="7.85071">
        <ele>350.6</ele>
        <time>2024-08-25T12:54:12Z</time>
      </trkpt>
      <trkpt lat="49.01631" lon="7.85074">
        <ele>351</ele>
        <time>2024-08-25T12:54:13Z</time>
      </trkpt>
      <trkpt lat="49.01628" lon="7.85078">
        <ele>351.6</ele>
        <time>2024-08-25T12:54:14Z</time>
      </trkpt>
      <trkpt lat="49.01624" lon="7.85081">
        <ele>352.2</ele>
        <time>2024-08-25T12:54:15Z</time>
      </trkpt>
      <trkpt lat="49.01621" lon="7.85084">
        <ele>352.6</ele>
        <time>2024-08-25T12:54:16Z</time>
      </trkpt>
      <trkpt lat="49.01618" lon="7.85086">
        <ele>353</ele>
        <time>2024-08-25T12:54:17Z</time>
      </trkpt>
      <trkpt lat="49.01615" lon="7.85089">
        <ele>353.2</ele>
        <time>2024-08-25T12:54:18Z</time>
      </trkpt>
      <trkpt lat="49.01612" lon="7.85092">
        <ele>353.6</ele>
        <time>2024-08-25T12:54:19Z</time>
      </trkpt>
      <trkpt lat="49.01609" lon="7.85094">
        <ele>354</ele>
        <time>2024-08-25T12:54:20Z</time>
      </trkpt>
      <trkpt lat="49.01606" lon="7.85096">
        <ele>354.2</ele>
        <time>2024-08-25T12:54:21Z</time>
      </trkpt>
      <trkpt lat="49.01603" lon="7.85098">
        <ele>354.6</ele>
        <time>2024-08-25T12:54:22Z</time>
      </trkpt>
      <trkpt lat="49.01601" lon="7.85101">
        <ele>354.8</ele>
        <time>2024-08-25T12:54:23Z</time>
      </trkpt>
      <trkpt lat="49.01597" lon="7.85105">
        <ele>354.8</ele>
        <time>2024-08-25T12:54:24Z</time>
      </trkpt>
      <trkpt lat="49.01593" lon="7.85107">
        <ele>355</ele>
        <time>2024-08-25T12:54:25Z</time>
      </trkpt>
      <trkpt lat="49.0159" lon="7.8511">
        <ele>355.4</ele>
        <time>2024-08-25T12:54:26Z</time>
      </trkpt>
      <trkpt lat="49.01586" lon="7.85112">
        <ele>355.4</ele>
        <time>2024-08-25T12:54:27Z</time>
      </trkpt>
      <trkpt lat="49.01582" lon="7.85115">
        <ele>355.6</ele>
        <time>2024-08-25T12:54:28Z</time>
      </trkpt>
      <trkpt lat="49.01579" lon="7.85119">
        <ele>355.6</ele>
        <time>2024-08-25T12:54:29Z</time>
      </trkpt>
      <trkpt lat="49.01576" lon="7.85123">
        <ele>355.8</ele>
        <time>2024-08-25T12:54:30Z</time>
      </trkpt>
      <trkpt lat="49.01573" lon="7.85127">
        <ele>355.8</ele>
        <time>2024-08-25T12:54:31Z</time>
      </trkpt>
      <trkpt lat="49.01571" lon="7.8513">
        <ele>355.8</ele>
        <time>2024-08-25T12:54:32Z</time>
      </trkpt>
      <trkpt lat="49.0157" lon="7.85132">
        <ele>355.8</ele>
        <time>2024-08-25T12:54:33Z</time>
      </trkpt>
      <trkpt lat="49.01569" lon="7.85133">
        <ele>355.6</ele>
        <time>2024-08-25T12:54:34Z</time>
      </trkpt>
      <trkpt lat="49.01568" lon="7.85135">
        <ele>355.6</ele>
        <time>2024-08-25T12:54:35Z</time>
      </trkpt>
      <trkpt lat="49.01567" lon="7.85136">
        <ele>355.6</ele>
        <time>2024-08-25T12:54:36Z</time>
      </trkpt>
      <trkpt lat="49.01564" lon="7.85138">
        <ele>355.6</ele>
        <time>2024-08-25T12:54:37Z</time>
      </trkpt>
      <trkpt lat="49.01562" lon="7.85138">
        <ele>355.6</ele>
        <time>2024-08-25T12:54:38Z</time>
      </trkpt>
      <trkpt lat="49.01559" lon="7.8514">
        <ele>355.6</ele>
        <time>2024-08-25T12:54:39Z</time>
      </trkpt>
      <trkpt lat="49.01555" lon="7.85141">
        <ele>355.4</ele>
        <time>2024-08-25T12:54:40Z</time>
      </trkpt>
      <trkpt lat="49.01552" lon="7.85143">
        <ele>355.2</ele>
        <time>2024-08-25T12:54:41Z</time>
      </trkpt>
      <trkpt lat="49.01549" lon="7.85146">
        <ele>355</ele>
        <time>2024-08-25T12:54:42Z</time>
      </trkpt>
      <trkpt lat="49.01545" lon="7.85149">
        <ele>355</ele>
        <time>2024-08-25T12:54:43Z</time>
      </trkpt>
      <trkpt lat="49.01541" lon="7.85152">
        <ele>354.8</ele>
        <time>2024-08-25T12:54:44Z</time>
      </trkpt>
      <trkpt lat="49.01536" lon="7.85155">
        <ele>354.6</ele>
        <time>2024-08-25T12:54:45Z</time>
      </trkpt>
      <trkpt lat="49.01531" lon="7.85157">
        <ele>354.2</ele>
        <time>2024-08-25T12:54:46Z</time>
      </trkpt>
      <trkpt lat="49.01525" lon="7.85158">
        <ele>354</ele>
        <time>2024-08-25T12:54:47Z</time>
      </trkpt>
      <trkpt lat="49.01519" lon="7.85158">
        <ele>353.6</ele>
        <time>2024-08-25T12:54:48Z</time>
      </trkpt>
      <trkpt lat="49.01513" lon="7.85158">
        <ele>353.4</ele>
        <time>2024-08-25T12:54:49Z</time>
      </trkpt>
      <trkpt lat="49.01506" lon="7.85156">
        <ele>353</ele>
        <time>2024-08-25T12:54:50Z</time>
      </trkpt>
      <trkpt lat="49.015" lon="7.85154">
        <ele>352.8</ele>
        <time>2024-08-25T12:54:51Z</time>
      </trkpt>
      <trkpt lat="49.01495" lon="7.85151">
        <ele>352.4</ele>
        <time>2024-08-25T12:54:52Z</time>
      </trkpt>
      <trkpt lat="49.01489" lon="7.85148">
        <ele>352</ele>
        <time>2024-08-25T12:54:53Z</time>
      </trkpt>
      <trkpt lat="49.01484" lon="7.85144">
        <ele>352</ele>
        <time>2024-08-25T12:54:54Z</time>
      </trkpt>
      <trkpt lat="49.01479" lon="7.85139">
        <ele>352</ele>
        <time>2024-08-25T12:54:55Z</time>
      </trkpt>
      <trkpt lat="49.01474" lon="7.85133">
        <ele>352</ele>
        <time>2024-08-25T12:54:56Z</time>
      </trkpt>
      <trkpt lat="49.0147" lon="7.85128">
        <ele>352</ele>
        <time>2024-08-25T12:54:57Z</time>
      </trkpt>
      <trkpt lat="49.01467" lon="7.85122">
        <ele>352</ele>
        <time>2024-08-25T12:54:58Z</time>
      </trkpt>
      <trkpt lat="49.01463" lon="7.85117">
        <ele>352.2</ele>
        <time>2024-08-25T12:54:59Z</time>
      </trkpt>
      <trkpt lat="49.01459" lon="7.85112">
        <ele>352.4</ele>
        <time>2024-08-25T12:55:00Z</time>
      </trkpt>
      <trkpt lat="49.01455" lon="7.85107">
        <ele>352.8</ele>
        <time>2024-08-25T12:55:01Z</time>
      </trkpt>
      <trkpt lat="49.01452" lon="7.85102">
        <ele>352.8</ele>
        <time>2024-08-25T12:55:02Z</time>
      </trkpt>
      <trkpt lat="49.01447" lon="7.85098">
        <ele>353</ele>
        <time>2024-08-25T12:55:03Z</time>
      </trkpt>
      <trkpt lat="49.01443" lon="7.85096">
        <ele>353.2</ele>
        <time>2024-08-25T12:55:04Z</time>
      </trkpt>
      <trkpt lat="49.01438" lon="7.85095">
        <ele>353.2</ele>
        <time>2024-08-25T12:55:05Z</time>
      </trkpt>
      <trkpt lat="49.01434" lon="7.85093">
        <ele>353.6</ele>
        <time>2024-08-25T12:55:06Z</time>
      </trkpt>
      <trkpt lat="49.01429" lon="7.85091">
        <ele>353.8</ele>
        <time>2024-08-25T12:55:07Z</time>
      </trkpt>
      <trkpt lat="49.01425" lon="7.85092">
        <ele>353.8</ele>
        <time>2024-08-25T12:55:08Z</time>
      </trkpt>
      <trkpt lat="49.0142" lon="7.85093">
        <ele>354</ele>
        <time>2024-08-25T12:55:09Z</time>
      </trkpt>
      <trkpt lat="49.01416" lon="7.85094">
        <ele>354.2</ele>
        <time>2024-08-25T12:55:10Z</time>
      </trkpt>
      <trkpt lat="49.01411" lon="7.85096">
        <ele>354.4</ele>
        <time>2024-08-25T12:55:11Z</time>
      </trkpt>
      <trkpt lat="49.01408" lon="7.85099">
        <ele>354.6</ele>
        <time>2024-08-25T12:55:12Z</time>
      </trkpt>
      <trkpt lat="49.01404" lon="7.85102">
        <ele>354.6</ele>
        <time>2024-08-25T12:55:13Z</time>
      </trkpt>
      <trkpt lat="49.014" lon="7.85106">
        <ele>354.8</ele>
        <time>2024-08-25T12:55:14Z</time>
      </trkpt>
      <trkpt lat="49.01396" lon="7.85109">
        <ele>355</ele>
        <time>2024-08-25T12:55:15Z</time>
      </trkpt>
      <trkpt lat="49.01393" lon="7.85113">
        <ele>355</ele>
        <time>2024-08-25T12:55:16Z</time>
      </trkpt>
      <trkpt lat="49.01389" lon="7.85116">
        <ele>355.2</ele>
        <time>2024-08-25T12:55:17Z</time>
      </trkpt>
      <trkpt lat="49.01386" lon="7.85121">
        <ele>355.4</ele>
        <time>2024-08-25T12:55:18Z</time>
      </trkpt>
      <trkpt lat="49.01383" lon="7.85125">
        <ele>355.4</ele>
        <time>2024-08-25T12:55:19Z</time>
      </trkpt>
      <trkpt lat="49.01379" lon="7.85129">
        <ele>355.6</ele>
        <time>2024-08-25T12:55:20Z</time>
      </trkpt>
      <trkpt lat="49.01376" lon="7.85134">
        <ele>355.6</ele>
        <time>2024-08-25T12:55:21Z</time>
      </trkpt>
      <trkpt lat="49.01373" lon="7.85138">
        <ele>355.8</ele>
        <time>2024-08-25T12:55:22Z</time>
      </trkpt>
      <trkpt lat="49.0137" lon="7.85142">
        <ele>356</ele>
        <time>2024-08-25T12:55:23Z</time>
      </trkpt>
      <trkpt lat="49.01367" lon="7.85146">
        <ele>356.2</ele>
        <time>2024-08-25T12:55:24Z</time>
      </trkpt>
      <trkpt lat="49.01365" lon="7.85151">
        <ele>356.4</ele>
        <time>2024-08-25T12:55:25Z</time>
      </trkpt>
      <trkpt lat="49.01362" lon="7.85155">
        <ele>356.4</ele>
        <time>2024-08-25T12:55:26Z</time>
      </trkpt>
      <trkpt lat="49.0136" lon="7.8516">
        <ele>356.6</ele>
        <time>2024-08-25T12:55:27Z</time>
      </trkpt>
      <trkpt lat="49.01358" lon="7.85163">
        <ele>356.8</ele>
        <time>2024-08-25T12:55:28Z</time>
      </trkpt>
      <trkpt lat="49.01355" lon="7.85167">
        <ele>357</ele>
        <time>2024-08-25T12:55:29Z</time>
      </trkpt>
      <trkpt lat="49.01353" lon="7.8517">
        <ele>357.2</ele>
        <time>2024-08-25T12:55:30Z</time>
      </trkpt>
      <trkpt lat="49.01351" lon="7.85174">
        <ele>357.4</ele>
        <time>2024-08-25T12:55:31Z</time>
      </trkpt>
      <trkpt lat="49.01349" lon="7.85177">
        <ele>357.8</ele>
        <time>2024-08-25T12:55:32Z</time>
      </trkpt>
      <trkpt lat="49.01347" lon="7.8518">
        <ele>358</ele>
        <time>2024-08-25T12:55:33Z</time>
      </trkpt>
      <trkpt lat="49.01345" lon="7.85183">
        <ele>358.2</ele>
        <time>2024-08-25T12:55:34Z</time>
      </trkpt>
      <trkpt lat="49.01343" lon="7.85185">
        <ele>358.6</ele>
        <time>2024-08-25T12:55:35Z</time>
      </trkpt>
      <trkpt lat="49.01341" lon="7.85188">
        <ele>358.8</ele>
        <time>2024-08-25T12:55:36Z</time>
      </trkpt>
      <trkpt lat="49.01339" lon="7.85191">
        <ele>359.2</ele>
        <time>2024-08-25T12:55:37Z</time>
      </trkpt>
      <trkpt lat="49.01337" lon="7.85194">
        <ele>359.4</ele>
        <time>2024-08-25T12:55:38Z</time>
      </trkpt>
      <trkpt lat="49.01335" lon="7.85197">
        <ele>359.8</ele>
        <time>2024-08-25T12:55:39Z</time>
      </trkpt>
      <trkpt lat="49.01333" lon="7.85199">
        <ele>360</ele>
        <time>2024-08-25T12:55:40Z</time>
      </trkpt>
      <trkpt lat="49.01331" lon="7.85202">
        <ele>360.2</ele>
        <time>2024-08-25T12:55:41Z</time>
      </trkpt>
      <trkpt lat="49.01329" lon="7.85204">
        <ele>360.6</ele>
        <time>2024-08-25T12:55:42Z</time>
      </trkpt>
      <trkpt lat="49.01327" lon="7.85206">
        <ele>360.8</ele>
        <time>2024-08-25T12:55:43Z</time>
      </trkpt>
      <trkpt lat="49.01325" lon="7.85209">
        <ele>361</ele>
        <time>2024-08-25T12:55:44Z</time>
      </trkpt>
      <trkpt lat="49.01323" lon="7.85211">
        <ele>361.4</ele>
        <time>2024-08-25T12:55:45Z</time>
      </trkpt>
      <trkpt lat="49.01321" lon="7.85212">
        <ele>361.6</ele>
        <time>2024-08-25T12:55:46Z</time>
      </trkpt>
      <trkpt lat="49.01319" lon="7.85214">
        <ele>361.8</ele>
        <time>2024-08-25T12:55:47Z</time>
      </trkpt>
      <trkpt lat="49.01317" lon="7.85216">
        <ele>362</ele>
        <time>2024-08-25T12:55:48Z</time>
      </trkpt>
      <trkpt lat="49.01315" lon="7.85218">
        <ele>362.4</ele>
        <time>2024-08-25T12:55:49Z</time>
      </trkpt>
      <trkpt lat="49.01313" lon="7.85219">
        <ele>362.6</ele>
        <time>2024-08-25T12:55:50Z</time>
      </trkpt>
      <trkpt lat="49.01312" lon="7.85222">
        <ele>363</ele>
        <time>2024-08-25T12:55:51Z</time>
      </trkpt>
      <trkpt lat="49.0131" lon="7.85224">
        <ele>363.2</ele>
        <time>2024-08-25T12:55:52Z</time>
      </trkpt>
      <trkpt lat="49.01307" lon="7.85226">
        <ele>363.4</ele>
        <time>2024-08-25T12:55:53Z</time>
      </trkpt>
      <trkpt lat="49.01306" lon="7.85227">
        <ele>363.8</ele>
        <time>2024-08-25T12:55:54Z</time>
      </trkpt>
      <trkpt lat="49.01304" lon="7.85229">
        <ele>364</ele>
        <time>2024-08-25T12:55:55Z</time>
      </trkpt>
      <trkpt lat="49.01302" lon="7.8523">
        <ele>364.4</ele>
        <time>2024-08-25T12:55:56Z</time>
      </trkpt>
      <trkpt lat="49.01299" lon="7.85233">
        <ele>364.8</ele>
        <time>2024-08-25T12:55:57Z</time>
      </trkpt>
      <trkpt lat="49.01297" lon="7.85235">
        <ele>365</ele>
        <time>2024-08-25T12:55:58Z</time>
      </trkpt>
      <trkpt lat="49.01295" lon="7.85237">
        <ele>365.2</ele>
        <time>2024-08-25T12:55:59Z</time>
      </trkpt>
      <trkpt lat="49.01293" lon="7.85238">
        <ele>365.6</ele>
        <time>2024-08-25T12:56:00Z</time>
      </trkpt>
      <trkpt lat="49.0129" lon="7.85239">
        <ele>365.8</ele>
        <time>2024-08-25T12:56:01Z</time>
      </trkpt>
      <trkpt lat="49.01288" lon="7.85241">
        <ele>366.2</ele>
        <time>2024-08-25T12:56:02Z</time>
      </trkpt>
      <trkpt lat="49.01286" lon="7.85243">
        <ele>366.6</ele>
        <time>2024-08-25T12:56:03Z</time>
      </trkpt>
      <trkpt lat="49.01284" lon="7.85244">
        <ele>366.8</ele>
        <time>2024-08-25T12:56:04Z</time>
      </trkpt>
      <trkpt lat="49.01281" lon="7.85246">
        <ele>367.2</ele>
        <time>2024-08-25T12:56:05Z</time>
      </trkpt>
      <trkpt lat="49.01279" lon="7.85247">
        <ele>367.6</ele>
        <time>2024-08-25T12:56:06Z</time>
      </trkpt>
      <trkpt lat="49.01277" lon="7.85248">
        <ele>368</ele>
        <time>2024-08-25T12:56:07Z</time>
      </trkpt>
      <trkpt lat="49.01275" lon="7.8525">
        <ele>368.2</ele>
        <time>2024-08-25T12:56:08Z</time>
      </trkpt>
      <trkpt lat="49.01272" lon="7.85253">
        <ele>368.4</ele>
        <time>2024-08-25T12:56:09Z</time>
      </trkpt>
      <trkpt lat="49.0127" lon="7.85254">
        <ele>368.8</ele>
        <time>2024-08-25T12:56:10Z</time>
      </trkpt>
      <trkpt lat="49.01268" lon="7.85256">
        <ele>369.2</ele>
        <time>2024-08-25T12:56:11Z</time>
      </trkpt>
      <trkpt lat="49.01265" lon="7.85258">
        <ele>369.6</ele>
        <time>2024-08-25T12:56:12Z</time>
      </trkpt>
      <trkpt lat="49.01263" lon="7.8526">
        <ele>370</ele>
        <time>2024-08-25T12:56:13Z</time>
      </trkpt>
      <trkpt lat="49.01261" lon="7.85262">
        <ele>370.2</ele>
        <time>2024-08-25T12:56:14Z</time>
      </trkpt>
      <trkpt lat="49.01258" lon="7.85263">
        <ele>370.6</ele>
        <time>2024-08-25T12:56:15Z</time>
      </trkpt>
      <trkpt lat="49.01256" lon="7.85265">
        <ele>371</ele>
        <time>2024-08-25T12:56:16Z</time>
      </trkpt>
      <trkpt lat="49.01253" lon="7.85266">
        <ele>371.2</ele>
        <time>2024-08-25T12:56:17Z</time>
      </trkpt>
      <trkpt lat="49.01251" lon="7.85268">
        <ele>371.6</ele>
        <time>2024-08-25T12:56:18Z</time>
      </trkpt>
      <trkpt lat="49.01249" lon="7.8527">
        <ele>371.8</ele>
        <time>2024-08-25T12:56:19Z</time>
      </trkpt>
      <trkpt lat="49.01246" lon="7.85271">
        <ele>372.2</ele>
        <time>2024-08-25T12:56:20Z</time>
      </trkpt>
      <trkpt lat="49.01244" lon="7.85272">
        <ele>372.4</ele>
        <time>2024-08-25T12:56:21Z</time>
      </trkpt>
      <trkpt lat="49.01242" lon="7.85274">
        <ele>372.8</ele>
        <time>2024-08-25T12:56:22Z</time>
      </trkpt>
      <trkpt lat="49.01239" lon="7.85275">
        <ele>373.2</ele>
        <time>2024-08-25T12:56:23Z</time>
      </trkpt>
      <trkpt lat="49.01237" lon="7.85277">
        <ele>373.4</ele>
        <time>2024-08-25T12:56:24Z</time>
      </trkpt>
      <trkpt lat="49.01235" lon="7.85278">
        <ele>373.6</ele>
        <time>2024-08-25T12:56:25Z</time>
      </trkpt>
      <trkpt lat="49.01233" lon="7.85279">
        <ele>374</ele>
        <time>2024-08-25T12:56:26Z</time>
      </trkpt>
      <trkpt lat="49.01231" lon="7.8528">
        <ele>374.2</ele>
        <time>2024-08-25T12:56:27Z</time>
      </trkpt>
      <trkpt lat="49.01228" lon="7.85282">
        <ele>374.2</ele>
        <time>2024-08-25T12:56:28Z</time>
      </trkpt>
      <trkpt lat="49.01226" lon="7.85283">
        <ele>374.4</ele>
        <time>2024-08-25T12:56:29Z</time>
      </trkpt>
      <trkpt lat="49.01223" lon="7.85283">
        <ele>374.4</ele>
        <time>2024-08-25T12:56:30Z</time>
      </trkpt>
      <trkpt lat="49.01221" lon="7.85284">
        <ele>374.6</ele>
        <time>2024-08-25T12:56:31Z</time>
      </trkpt>
      <trkpt lat="49.01218" lon="7.85285">
        <ele>374.6</ele>
        <time>2024-08-25T12:56:32Z</time>
      </trkpt>
      <trkpt lat="49.01215" lon="7.85285">
        <ele>374.8</ele>
        <time>2024-08-25T12:56:33Z</time>
      </trkpt>
      <trkpt lat="49.01213" lon="7.85286">
        <ele>375</ele>
        <time>2024-08-25T12:56:34Z</time>
      </trkpt>
      <trkpt lat="49.0121" lon="7.85287">
        <ele>375</ele>
        <time>2024-08-25T12:56:35Z</time>
      </trkpt>
      <trkpt lat="49.01207" lon="7.85287">
        <ele>375.2</ele>
        <time>2024-08-25T12:56:36Z</time>
      </trkpt>
      <trkpt lat="49.01204" lon="7.85288">
        <ele>375.2</ele>
        <time>2024-08-25T12:56:37Z</time>
      </trkpt>
      <trkpt lat="49.01201" lon="7.85288">
        <ele>375.4</ele>
        <time>2024-08-25T12:56:38Z</time>
      </trkpt>
      <trkpt lat="49.01198" lon="7.85289">
        <ele>375.4</ele>
        <time>2024-08-25T12:56:39Z</time>
      </trkpt>
      <trkpt lat="49.01195" lon="7.85289">
        <ele>375.6</ele>
        <time>2024-08-25T12:56:40Z</time>
      </trkpt>
      <trkpt lat="49.01192" lon="7.85289">
        <ele>375.8</ele>
        <time>2024-08-25T12:56:41Z</time>
      </trkpt>
      <trkpt lat="49.01189" lon="7.8529">
        <ele>375.8</ele>
        <time>2024-08-25T12:56:42Z</time>
      </trkpt>
      <trkpt lat="49.01186" lon="7.85291">
        <ele>376</ele>
        <time>2024-08-25T12:56:43Z</time>
      </trkpt>
      <trkpt lat="49.01183" lon="7.85291">
        <ele>376</ele>
        <time>2024-08-25T12:56:44Z</time>
      </trkpt>
      <trkpt lat="49.0118" lon="7.85292">
        <ele>376.2</ele>
        <time>2024-08-25T12:56:45Z</time>
      </trkpt>
      <trkpt lat="49.01176" lon="7.85293">
        <ele>376.2</ele>
        <time>2024-08-25T12:56:46Z</time>
      </trkpt>
      <trkpt lat="49.01173" lon="7.85293">
        <ele>376.4</ele>
        <time>2024-08-25T12:56:47Z</time>
      </trkpt>
      <trkpt lat="49.0117" lon="7.85294">
        <ele>376.4</ele>
        <time>2024-08-25T12:56:48Z</time>
      </trkpt>
      <trkpt lat="49.01167" lon="7.85295">
        <ele>376.6</ele>
        <time>2024-08-25T12:56:49Z</time>
      </trkpt>
      <trkpt lat="49.01164" lon="7.85296">
        <ele>376.8</ele>
        <time>2024-08-25T12:56:50Z</time>
      </trkpt>
      <trkpt lat="49.0116" lon="7.85297">
        <ele>376.8</ele>
        <time>2024-08-25T12:56:51Z</time>
      </trkpt>
      <trkpt lat="49.01157" lon="7.85297">
        <ele>376.8</ele>
        <time>2024-08-25T12:56:52Z</time>
      </trkpt>
      <trkpt lat="49.01154" lon="7.85298">
        <ele>376.8</ele>
        <time>2024-08-25T12:56:53Z</time>
      </trkpt>
      <trkpt lat="49.01151" lon="7.85299">
        <ele>376.8</ele>
        <time>2024-08-25T12:56:54Z</time>
      </trkpt>
      <trkpt lat="49.01148" lon="7.853">
        <ele>377</ele>
        <time>2024-08-25T12:56:55Z</time>
      </trkpt>
      <trkpt lat="49.01144" lon="7.853">
        <ele>377</ele>
        <time>2024-08-25T12:56:56Z</time>
      </trkpt>
      <trkpt lat="49.01141" lon="7.85302">
        <ele>377</ele>
        <time>2024-08-25T12:56:57Z</time>
      </trkpt>
      <trkpt lat="49.01138" lon="7.85303">
        <ele>377</ele>
        <time>2024-08-25T12:56:58Z</time>
      </trkpt>
      <trkpt lat="49.01134" lon="7.85303">
        <ele>377</ele>
        <time>2024-08-25T12:56:59Z</time>
      </trkpt>
      <trkpt lat="49.01131" lon="7.85304">
        <ele>377</ele>
        <time>2024-08-25T12:57:00Z</time>
      </trkpt>
      <trkpt lat="49.01128" lon="7.85305">
        <ele>377.2</ele>
        <time>2024-08-25T12:57:01Z</time>
      </trkpt>
      <trkpt lat="49.01124" lon="7.85306">
        <ele>377.2</ele>
        <time>2024-08-25T12:57:02Z</time>
      </trkpt>
      <trkpt lat="49.01121" lon="7.85307">
        <ele>377.4</ele>
        <time>2024-08-25T12:57:03Z</time>
      </trkpt>
      <trkpt lat="49.01117" lon="7.85308">
        <ele>377.4</ele>
        <time>2024-08-25T12:57:04Z</time>
      </trkpt>
      <trkpt lat="49.01114" lon="7.85309">
        <ele>377.6</ele>
        <time>2024-08-25T12:57:05Z</time>
      </trkpt>
      <trkpt lat="49.01111" lon="7.8531">
        <ele>377.6</ele>
        <time>2024-08-25T12:57:06Z</time>
      </trkpt>
      <trkpt lat="49.01108" lon="7.85311">
        <ele>377.6</ele>
        <time>2024-08-25T12:57:07Z</time>
      </trkpt>
      <trkpt lat="49.01105" lon="7.85312">
        <ele>377.8</ele>
        <time>2024-08-25T12:57:08Z</time>
      </trkpt>
      <trkpt lat="49.01102" lon="7.85313">
        <ele>378</ele>
        <time>2024-08-25T12:57:09Z</time>
      </trkpt>
      <trkpt lat="49.01099" lon="7.85313">
        <ele>378.2</ele>
        <time>2024-08-25T12:57:10Z</time>
      </trkpt>
      <trkpt lat="49.01096" lon="7.85314">
        <ele>378.2</ele>
        <time>2024-08-25T12:57:11Z</time>
      </trkpt>
      <trkpt lat="49.01093" lon="7.85315">
        <ele>378.6</ele>
        <time>2024-08-25T12:57:12Z</time>
      </trkpt>
      <trkpt lat="49.01091" lon="7.85315">
        <ele>378.8</ele>
        <time>2024-08-25T12:57:13Z</time>
      </trkpt>
      <trkpt lat="49.01088" lon="7.85315">
        <ele>379</ele>
        <time>2024-08-25T12:57:14Z</time>
      </trkpt>
      <trkpt lat="49.01085" lon="7.85316">
        <ele>379.2</ele>
        <time>2024-08-25T12:57:15Z</time>
      </trkpt>
      <trkpt lat="49.01082" lon="7.85316">
        <ele>379.4</ele>
        <time>2024-08-25T12:57:16Z</time>
      </trkpt>
      <trkpt lat="49.0108" lon="7.85317">
        <ele>379.8</ele>
        <time>2024-08-25T12:57:17Z</time>
      </trkpt>
      <trkpt lat="49.01077" lon="7.85317">
        <ele>380</ele>
        <time>2024-08-25T12:57:18Z</time>
      </trkpt>
      <trkpt lat="49.01073" lon="7.85317">
        <ele>380.2</ele>
        <time>2024-08-25T12:57:19Z</time>
      </trkpt>
      <trkpt lat="49.0107" lon="7.85317">
        <ele>380.6</ele>
        <time>2024-08-25T12:57:20Z</time>
      </trkpt>
      <trkpt lat="49.01067" lon="7.85316">
        <ele>380.8</ele>
        <time>2024-08-25T12:57:21Z</time>
      </trkpt>
      <trkpt lat="49.01064" lon="7.85317">
        <ele>381</ele>
        <time>2024-08-25T12:57:22Z</time>
      </trkpt>
      <trkpt lat="49.01061" lon="7.85316">
        <ele>381.2</ele>
        <time>2024-08-25T12:57:23Z</time>
      </trkpt>
      <trkpt lat="49.01058" lon="7.85316">
        <ele>381.4</ele>
        <time>2024-08-25T12:57:24Z</time>
      </trkpt>
      <trkpt lat="49.01055" lon="7.85315">
        <ele>381.4</ele>
        <time>2024-08-25T12:57:25Z</time>
      </trkpt>
      <trkpt lat="49.01052" lon="7.85315">
        <ele>381.6</ele>
        <time>2024-08-25T12:57:26Z</time>
      </trkpt>
      <trkpt lat="49.01049" lon="7.85314">
        <ele>381.6</ele>
        <time>2024-08-25T12:57:27Z</time>
      </trkpt>
      <trkpt lat="49.01045" lon="7.85314">
        <ele>381.8</ele>
        <time>2024-08-25T12:57:28Z</time>
      </trkpt>
      <trkpt lat="49.01042" lon="7.85313">
        <ele>381.8</ele>
        <time>2024-08-25T12:57:29Z</time>
      </trkpt>
      <trkpt lat="49.01038" lon="7.85313">
        <ele>382</ele>
        <time>2024-08-25T12:57:30Z</time>
      </trkpt>
      <trkpt lat="49.01035" lon="7.85312">
        <ele>382</ele>
        <time>2024-08-25T12:57:31Z</time>
      </trkpt>
      <trkpt lat="49.01031" lon="7.85312">
        <ele>382</ele>
        <time>2024-08-25T12:57:32Z</time>
      </trkpt>
      <trkpt lat="49.01028" lon="7.85311">
        <ele>382</ele>
        <time>2024-08-25T12:57:33Z</time>
      </trkpt>
      <trkpt lat="49.01024" lon="7.85311">
        <ele>382</ele>
        <time>2024-08-25T12:57:34Z</time>
      </trkpt>
      <trkpt lat="49.0102" lon="7.85312">
        <ele>382</ele>
        <time>2024-08-25T12:57:35Z</time>
      </trkpt>
      <trkpt lat="49.01015" lon="7.85313">
        <ele>382</ele>
        <time>2024-08-25T12:57:36Z</time>
      </trkpt>
      <trkpt lat="49.01011" lon="7.85314">
        <ele>382</ele>
        <time>2024-08-25T12:57:37Z</time>
      </trkpt>
      <trkpt lat="49.01007" lon="7.85316">
        <ele>381.6</ele>
        <time>2024-08-25T12:57:38Z</time>
      </trkpt>
      <trkpt lat="49.01002" lon="7.85317">
        <ele>381.2</ele>
        <time>2024-08-25T12:57:39Z</time>
      </trkpt>
      <trkpt lat="49.00997" lon="7.85319">
        <ele>380.6</ele>
        <time>2024-08-25T12:57:40Z</time>
      </trkpt>
      <trkpt lat="49.00992" lon="7.85321">
        <ele>380.4</ele>
        <time>2024-08-25T12:57:41Z</time>
      </trkpt>
      <trkpt lat="49.00988" lon="7.85323">
        <ele>380</ele>
        <time>2024-08-25T12:57:42Z</time>
      </trkpt>
      <trkpt lat="49.00983" lon="7.85325">
        <ele>379.8</ele>
        <time>2024-08-25T12:57:43Z</time>
      </trkpt>
      <trkpt lat="49.00978" lon="7.85328">
        <ele>379.6</ele>
        <time>2024-08-25T12:57:44Z</time>
      </trkpt>
      <trkpt lat="49.00973" lon="7.8533">
        <ele>379.4</ele>
        <time>2024-08-25T12:57:45Z</time>
      </trkpt>
      <trkpt lat="49.00968" lon="7.85333">
        <ele>379</ele>
        <time>2024-08-25T12:57:46Z</time>
      </trkpt>
      <trkpt lat="49.00963" lon="7.85336">
        <ele>378.8</ele>
        <time>2024-08-25T12:57:47Z</time>
      </trkpt>
      <trkpt lat="49.00958" lon="7.85338">
        <ele>378.2</ele>
        <time>2024-08-25T12:57:48Z</time>
      </trkpt>
      <trkpt lat="49.00952" lon="7.85341">
        <ele>378</ele>
        <time>2024-08-25T12:57:49Z</time>
      </trkpt>
      <trkpt lat="49.00947" lon="7.85344">
        <ele>377.6</ele>
        <time>2024-08-25T12:57:50Z</time>
      </trkpt>
      <trkpt lat="49.00942" lon="7.85347">
        <ele>377.2</ele>
        <time>2024-08-25T12:57:51Z</time>
      </trkpt>
      <trkpt lat="49.00937" lon="7.8535">
        <ele>376.8</ele>
        <time>2024-08-25T12:57:52Z</time>
      </trkpt>
      <trkpt lat="49.00931" lon="7.85353">
        <ele>376.6</ele>
        <time>2024-08-25T12:57:53Z</time>
      </trkpt>
      <trkpt lat="49.00925" lon="7.85356">
        <ele>376.2</ele>
        <time>2024-08-25T12:57:54Z</time>
      </trkpt>
      <trkpt lat="49.00919" lon="7.85359">
        <ele>376</ele>
        <time>2024-08-25T12:57:55Z</time>
      </trkpt>
      <trkpt lat="49.00913" lon="7.85362">
        <ele>375.6</ele>
        <time>2024-08-25T12:57:56Z</time>
      </trkpt>
      <trkpt lat="49.00907" lon="7.85365">
        <ele>375.2</ele>
        <time>2024-08-25T12:57:57Z</time>
      </trkpt>
      <trkpt lat="49.009" lon="7.85368">
        <ele>374.8</ele>
        <time>2024-08-25T12:57:58Z</time>
      </trkpt>
      <trkpt lat="49.00893" lon="7.85371">
        <ele>374.4</ele>
        <time>2024-08-25T12:57:59Z</time>
      </trkpt>
      <trkpt lat="49.00886" lon="7.85374">
        <ele>374</ele>
        <time>2024-08-25T12:58:00Z</time>
      </trkpt>
      <trkpt lat="49.0088" lon="7.85378">
        <ele>373.6</ele>
        <time>2024-08-25T12:58:01Z</time>
      </trkpt>
      <trkpt lat="49.00873" lon="7.8538">
        <ele>373.2</ele>
        <time>2024-08-25T12:58:02Z</time>
      </trkpt>
      <trkpt lat="49.00866" lon="7.85383">
        <ele>373.2</ele>
        <time>2024-08-25T12:58:03Z</time>
      </trkpt>
      <trkpt lat="49.00859" lon="7.85387">
        <ele>372.8</ele>
        <time>2024-08-25T12:58:04Z</time>
      </trkpt>
      <trkpt lat="49.00853" lon="7.8539">
        <ele>372.6</ele>
        <time>2024-08-25T12:58:05Z</time>
      </trkpt>
      <trkpt lat="49.00848" lon="7.85393">
        <ele>372.4</ele>
        <time>2024-08-25T12:58:06Z</time>
      </trkpt>
      <trkpt lat="49.00842" lon="7.85396">
        <ele>372.4</ele>
        <time>2024-08-25T12:58:07Z</time>
      </trkpt>
      <trkpt lat="49.00836" lon="7.854">
        <ele>372.2</ele>
        <time>2024-08-25T12:58:08Z</time>
      </trkpt>
      <trkpt lat="49.0083" lon="7.85403">
        <ele>372</ele>
        <time>2024-08-25T12:58:09Z</time>
      </trkpt>
      <trkpt lat="49.00824" lon="7.85406">
        <ele>372</ele>
        <time>2024-08-25T12:58:10Z</time>
      </trkpt>
      <trkpt lat="49.00818" lon="7.85409">
        <ele>371.6</ele>
        <time>2024-08-25T12:58:11Z</time>
      </trkpt>
      <trkpt lat="49.00812" lon="7.85411">
        <ele>371.6</ele>
        <time>2024-08-25T12:58:12Z</time>
      </trkpt>
      <trkpt lat="49.00806" lon="7.85414">
        <ele>371.6</ele>
        <time>2024-08-25T12:58:13Z</time>
      </trkpt>
      <trkpt lat="49.008" lon="7.85416">
        <ele>371.6</ele>
        <time>2024-08-25T12:58:14Z</time>
      </trkpt>
      <trkpt lat="49.00794" lon="7.85419">
        <ele>371.6</ele>
        <time>2024-08-25T12:58:15Z</time>
      </trkpt>
      <trkpt lat="49.00788" lon="7.8542">
        <ele>371.4</ele>
        <time>2024-08-25T12:58:16Z</time>
      </trkpt>
      <trkpt lat="49.00783" lon="7.85422">
        <ele>371.6</ele>
        <time>2024-08-25T12:58:17Z</time>
      </trkpt>
      <trkpt lat="49.00776" lon="7.85423">
        <ele>371.6</ele>
        <time>2024-08-25T12:58:18Z</time>
      </trkpt>
      <trkpt lat="49.0077" lon="7.85425">
        <ele>371.4</ele>
        <time>2024-08-25T12:58:19Z</time>
      </trkpt>
      <trkpt lat="49.00764" lon="7.85427">
        <ele>371.4</ele>
        <time>2024-08-25T12:58:20Z</time>
      </trkpt>
      <trkpt lat="49.00758" lon="7.85429">
        <ele>371.4</ele>
        <time>2024-08-25T12:58:21Z</time>
      </trkpt>
      <trkpt lat="49.00752" lon="7.8543">
        <ele>371.4</ele>
        <time>2024-08-25T12:58:22Z</time>
      </trkpt>
      <trkpt lat="49.00746" lon="7.85431">
        <ele>371.2</ele>
        <time>2024-08-25T12:58:23Z</time>
      </trkpt>
      <trkpt lat="49.0074" lon="7.85432">
        <ele>371.2</ele>
        <time>2024-08-25T12:58:24Z</time>
      </trkpt>
      <trkpt lat="49.00733" lon="7.85434">
        <ele>371.2</ele>
        <time>2024-08-25T12:58:25Z</time>
      </trkpt>
      <trkpt lat="49.00727" lon="7.85435">
        <ele>371.2</ele>
        <time>2024-08-25T12:58:26Z</time>
      </trkpt>
      <trkpt lat="49.00721" lon="7.85436">
        <ele>370.8</ele>
        <time>2024-08-25T12:58:27Z</time>
      </trkpt>
      <trkpt lat="49.00714" lon="7.85437">
        <ele>370.4</ele>
        <time>2024-08-25T12:58:28Z</time>
      </trkpt>
      <trkpt lat="49.00706" lon="7.85438">
        <ele>370</ele>
        <time>2024-08-25T12:58:29Z</time>
      </trkpt>
      <trkpt lat="49.00699" lon="7.85438">
        <ele>369.6</ele>
        <time>2024-08-25T12:58:30Z</time>
      </trkpt>
      <trkpt lat="49.00691" lon="7.85438">
        <ele>369.2</ele>
        <time>2024-08-25T12:58:31Z</time>
      </trkpt>
      <trkpt lat="49.00683" lon="7.85438">
        <ele>369</ele>
        <time>2024-08-25T12:58:32Z</time>
      </trkpt>
      <trkpt lat="49.00674" lon="7.85438">
        <ele>368.2</ele>
        <time>2024-08-25T12:58:33Z</time>
      </trkpt>
      <trkpt lat="49.00665" lon="7.85438">
        <ele>367.8</ele>
        <time>2024-08-25T12:58:34Z</time>
      </trkpt>
      <trkpt lat="49.00656" lon="7.85438">
        <ele>367.2</ele>
        <time>2024-08-25T12:58:35Z</time>
      </trkpt>
      <trkpt lat="49.00648" lon="7.85437">
        <ele>366.2</ele>
        <time>2024-08-25T12:58:36Z</time>
      </trkpt>
      <trkpt lat="49.00639" lon="7.85436">
        <ele>365.2</ele>
        <time>2024-08-25T12:58:37Z</time>
      </trkpt>
      <trkpt lat="49.00631" lon="7.85435">
        <ele>364.8</ele>
        <time>2024-08-25T12:58:38Z</time>
      </trkpt>
      <trkpt lat="49.00622" lon="7.85435">
        <ele>364</ele>
        <time>2024-08-25T12:58:39Z</time>
      </trkpt>
      <trkpt lat="49.00613" lon="7.85434">
        <ele>364</ele>
        <time>2024-08-25T12:58:40Z</time>
      </trkpt>
      <trkpt lat="49.00605" lon="7.85432">
        <ele>364</ele>
        <time>2024-08-25T12:58:41Z</time>
      </trkpt>
      <trkpt lat="49.00597" lon="7.8543">
        <ele>364</ele>
        <time>2024-08-25T12:58:42Z</time>
      </trkpt>
      <trkpt lat="49.0059" lon="7.85427">
        <ele>363.8</ele>
        <time>2024-08-25T12:58:43Z</time>
      </trkpt>
      <trkpt lat="49.00583" lon="7.85423">
        <ele>364</ele>
        <time>2024-08-25T12:58:44Z</time>
      </trkpt>
      <trkpt lat="49.00577" lon="7.85418">
        <ele>364</ele>
        <time>2024-08-25T12:58:45Z</time>
      </trkpt>
      <trkpt lat="49.00571" lon="7.85412">
        <ele>364</ele>
        <time>2024-08-25T12:58:46Z</time>
      </trkpt>
      <trkpt lat="49.00565" lon="7.85406">
        <ele>364</ele>
        <time>2024-08-25T12:58:47Z</time>
      </trkpt>
      <trkpt lat="49.00559" lon="7.854">
        <ele>364</ele>
        <time>2024-08-25T12:58:48Z</time>
      </trkpt>
      <trkpt lat="49.00554" lon="7.85394">
        <ele>363.8</ele>
        <time>2024-08-25T12:58:49Z</time>
      </trkpt>
      <trkpt lat="49.0055" lon="7.85387">
        <ele>363.4</ele>
        <time>2024-08-25T12:58:50Z</time>
      </trkpt>
      <trkpt lat="49.00545" lon="7.85381">
        <ele>363.4</ele>
        <time>2024-08-25T12:58:51Z</time>
      </trkpt>
      <trkpt lat="49.00541" lon="7.85374">
        <ele>363.4</ele>
        <time>2024-08-25T12:58:52Z</time>
      </trkpt>
      <trkpt lat="49.00537" lon="7.85368">
        <ele>363.4</ele>
        <time>2024-08-25T12:58:53Z</time>
      </trkpt>
      <trkpt lat="49.00532" lon="7.85361">
        <ele>363.4</ele>
        <time>2024-08-25T12:58:54Z</time>
      </trkpt>
      <trkpt lat="49.00528" lon="7.85355">
        <ele>363.6</ele>
        <time>2024-08-25T12:58:55Z</time>
      </trkpt>
      <trkpt lat="49.00524" lon="7.85349">
        <ele>363.6</ele>
        <time>2024-08-25T12:58:56Z</time>
      </trkpt>
      <trkpt lat="49.0052" lon="7.85343">
        <ele>363.8</ele>
        <time>2024-08-25T12:58:57Z</time>
      </trkpt>
      <trkpt lat="49.00516" lon="7.85337">
        <ele>364</ele>
        <time>2024-08-25T12:58:58Z</time>
      </trkpt>
      <trkpt lat="49.00512" lon="7.85331">
        <ele>364.2</ele>
        <time>2024-08-25T12:58:59Z</time>
      </trkpt>
      <trkpt lat="49.00508" lon="7.85325">
        <ele>364.2</ele>
        <time>2024-08-25T12:59:00Z</time>
      </trkpt>
      <trkpt lat="49.00503" lon="7.85319">
        <ele>364.8</ele>
        <time>2024-08-25T12:59:01Z</time>
      </trkpt>
      <trkpt lat="49.00499" lon="7.85313">
        <ele>365.4</ele>
        <time>2024-08-25T12:59:02Z</time>
      </trkpt>
      <trkpt lat="49.00495" lon="7.85308">
        <ele>365.6</ele>
        <time>2024-08-25T12:59:03Z</time>
      </trkpt>
      <trkpt lat="49.00491" lon="7.85302">
        <ele>365.8</ele>
        <time>2024-08-25T12:59:04Z</time>
      </trkpt>
      <trkpt lat="49.00487" lon="7.85296">
        <ele>365.8</ele>
        <time>2024-08-25T12:59:05Z</time>
      </trkpt>
      <trkpt lat="49.00483" lon="7.85291">
        <ele>365.8</ele>
        <time>2024-08-25T12:59:06Z</time>
      </trkpt>
      <trkpt lat="49.00479" lon="7.85286">
        <ele>365.8</ele>
        <time>2024-08-25T12:59:07Z</time>
      </trkpt>
      <trkpt lat="49.00475" lon="7.85282">
        <ele>365.6</ele>
        <time>2024-08-25T12:59:08Z</time>
      </trkpt>
      <trkpt lat="49.0047" lon="7.85277">
        <ele>365.6</ele>
        <time>2024-08-25T12:59:09Z</time>
      </trkpt>
      <trkpt lat="49.00466" lon="7.85273">
        <ele>365.6</ele>
        <time>2024-08-25T12:59:10Z</time>
      </trkpt>
      <trkpt lat="49.00461" lon="7.85269">
        <ele>365.6</ele>
        <time>2024-08-25T12:59:11Z</time>
      </trkpt>
      <trkpt lat="49.00457" lon="7.85266">
        <ele>365.6</ele>
        <time>2024-08-25T12:59:12Z</time>
      </trkpt>
      <trkpt lat="49.00453" lon="7.85263">
        <ele>365.6</ele>
        <time>2024-08-25T12:59:13Z</time>
      </trkpt>
      <trkpt lat="49.00449" lon="7.85259">
        <ele>365.8</ele>
        <time>2024-08-25T12:59:14Z</time>
      </trkpt>
      <trkpt lat="49.00445" lon="7.85256">
        <ele>366.2</ele>
        <time>2024-08-25T12:59:15Z</time>
      </trkpt>
      <trkpt lat="49.0044" lon="7.85252">
        <ele>366.6</ele>
        <time>2024-08-25T12:59:16Z</time>
      </trkpt>
      <trkpt lat="49.00437" lon="7.85249">
        <ele>366.8</ele>
        <time>2024-08-25T12:59:17Z</time>
      </trkpt>
      <trkpt lat="49.00433" lon="7.85246">
        <ele>367</ele>
        <time>2024-08-25T12:59:18Z</time>
      </trkpt>
      <trkpt lat="49.00429" lon="7.85242">
        <ele>367.4</ele>
        <time>2024-08-25T12:59:19Z</time>
      </trkpt>
      <trkpt lat="49.00425" lon="7.85239">
        <ele>367.6</ele>
        <time>2024-08-25T12:59:20Z</time>
      </trkpt>
      <trkpt lat="49.00421" lon="7.85236">
        <ele>368</ele>
        <time>2024-08-25T12:59:21Z</time>
      </trkpt>
      <trkpt lat="49.00417" lon="7.85233">
        <ele>368.4</ele>
        <time>2024-08-25T12:59:22Z</time>
      </trkpt>
      <trkpt lat="49.00413" lon="7.85229">
        <ele>368.6</ele>
        <time>2024-08-25T12:59:23Z</time>
      </trkpt>
      <trkpt lat="49.00409" lon="7.85225">
        <ele>368.6</ele>
        <time>2024-08-25T12:59:24Z</time>
      </trkpt>
      <trkpt lat="49.00405" lon="7.85222">
        <ele>368.8</ele>
        <time>2024-08-25T12:59:25Z</time>
      </trkpt>
      <trkpt lat="49.00401" lon="7.85219">
        <ele>369</ele>
        <time>2024-08-25T12:59:26Z</time>
      </trkpt>
      <trkpt lat="49.00397" lon="7.85216">
        <ele>369</ele>
        <time>2024-08-25T12:59:27Z</time>
      </trkpt>
      <trkpt lat="49.00393" lon="7.85214">
        <ele>369.2</ele>
        <time>2024-08-25T12:59:28Z</time>
      </trkpt>
      <trkpt lat="49.00388" lon="7.85211">
        <ele>369.2</ele>
        <time>2024-08-25T12:59:29Z</time>
      </trkpt>
      <trkpt lat="49.00383" lon="7.85208">
        <ele>369.4</ele>
        <time>2024-08-25T12:59:30Z</time>
      </trkpt>
      <trkpt lat="49.00378" lon="7.85205">
        <ele>369.4</ele>
        <time>2024-08-25T12:59:31Z</time>
      </trkpt>
      <trkpt lat="49.00373" lon="7.85203">
        <ele>369.4</ele>
        <time>2024-08-25T12:59:32Z</time>
      </trkpt>
      <trkpt lat="49.00368" lon="7.852">
        <ele>369.4</ele>
        <time>2024-08-25T12:59:33Z</time>
      </trkpt>
      <trkpt lat="49.00363" lon="7.85197">
        <ele>369.4</ele>
        <time>2024-08-25T12:59:34Z</time>
      </trkpt>
      <trkpt lat="49.00358" lon="7.85195">
        <ele>369.4</ele>
        <time>2024-08-25T12:59:35Z</time>
      </trkpt>
      <trkpt lat="49.00353" lon="7.85193">
        <ele>369</ele>
        <time>2024-08-25T12:59:36Z</time>
      </trkpt>
      <trkpt lat="49.00348" lon="7.85191">
        <ele>369</ele>
        <time>2024-08-25T12:59:37Z</time>
      </trkpt>
      <trkpt lat="49.00343" lon="7.85189">
        <ele>369</ele>
        <time>2024-08-25T12:59:38Z</time>
      </trkpt>
      <trkpt lat="49.00338" lon="7.85187">
        <ele>369</ele>
        <time>2024-08-25T12:59:39Z</time>
      </trkpt>
      <trkpt lat="49.00332" lon="7.85185">
        <ele>368.8</ele>
        <time>2024-08-25T12:59:40Z</time>
      </trkpt>
      <trkpt lat="49.00327" lon="7.85184">
        <ele>368.6</ele>
        <time>2024-08-25T12:59:41Z</time>
      </trkpt>
      <trkpt lat="49.00321" lon="7.85182">
        <ele>368.4</ele>
        <time>2024-08-25T12:59:42Z</time>
      </trkpt>
      <trkpt lat="49.00315" lon="7.8518">
        <ele>368.4</ele>
        <time>2024-08-25T12:59:43Z</time>
      </trkpt>
      <trkpt lat="49.00309" lon="7.85178">
        <ele>368.4</ele>
        <time>2024-08-25T12:59:44Z</time>
      </trkpt>
      <trkpt lat="49.00303" lon="7.85176">
        <ele>368</ele>
        <time>2024-08-25T12:59:45Z</time>
      </trkpt>
      <trkpt lat="49.00296" lon="7.85174">
        <ele>367.8</ele>
        <time>2024-08-25T12:59:46Z</time>
      </trkpt>
      <trkpt lat="49.0029" lon="7.85173">
        <ele>367.8</ele>
        <time>2024-08-25T12:59:47Z</time>
      </trkpt>
      <trkpt lat="49.00283" lon="7.85171">
        <ele>367.6</ele>
        <time>2024-08-25T12:59:48Z</time>
      </trkpt>
      <trkpt lat="49.00276" lon="7.8517">
        <ele>367.4</ele>
        <time>2024-08-25T12:59:49Z</time>
      </trkpt>
      <trkpt lat="49.00269" lon="7.85169">
        <ele>367.2</ele>
        <time>2024-08-25T12:59:50Z</time>
      </trkpt>
      <trkpt lat="49.00262" lon="7.85168">
        <ele>367</ele>
        <time>2024-08-25T12:59:51Z</time>
      </trkpt>
      <trkpt lat="49.00254" lon="7.85167">
        <ele>366.4</ele>
        <time>2024-08-25T12:59:52Z</time>
      </trkpt>
      <trkpt lat="49.00247" lon="7.85167">
        <ele>366</ele>
        <time>2024-08-25T12:59:53Z</time>
      </trkpt>
      <trkpt lat="49.00239" lon="7.85166">
        <ele>365.8</ele>
        <time>2024-08-25T12:59:54Z</time>
      </trkpt>
      <trkpt lat="49.00231" lon="7.85166">
        <ele>365.2</ele>
        <time>2024-08-25T12:59:55Z</time>
      </trkpt>
      <trkpt lat="49.00223" lon="7.85165">
        <ele>364.8</ele>
        <time>2024-08-25T12:59:56Z</time>
      </trkpt>
      <trkpt lat="49.00214" lon="7.85164">
        <ele>364</ele>
        <time>2024-08-25T12:59:57Z</time>
      </trkpt>
      <trkpt lat="49.00206" lon="7.85163">
        <ele>363.4</ele>
        <time>2024-08-25T12:59:58Z</time>
      </trkpt>
      <trkpt lat="49.00197" lon="7.85163">
        <ele>363</ele>
        <time>2024-08-25T12:59:59Z</time>
      </trkpt>
      <trkpt lat="49.00189" lon="7.85163">
        <ele>362.6</ele>
        <time>2024-08-25T13:00:00Z</time>
      </trkpt>
      <trkpt lat="49.00181" lon="7.85165">
        <ele>362.4</ele>
        <time>2024-08-25T13:00:01Z</time>
      </trkpt>
      <trkpt lat="49.00173" lon="7.85167">
        <ele>362.2</ele>
        <time>2024-08-25T13:00:02Z</time>
      </trkpt>
      <trkpt lat="49.00166" lon="7.85169">
        <ele>362.2</ele>
        <time>2024-08-25T13:00:03Z</time>
      </trkpt>
      <trkpt lat="49.00158" lon="7.85171">
        <ele>362</ele>
        <time>2024-08-25T13:00:04Z</time>
      </trkpt>
      <trkpt lat="49.00151" lon="7.85171">
        <ele>361.8</ele>
        <time>2024-08-25T13:00:05Z</time>
      </trkpt>
      <trkpt lat="49.00144" lon="7.85171">
        <ele>362</ele>
        <time>2024-08-25T13:00:06Z</time>
      </trkpt>
      <trkpt lat="49.00137" lon="7.8517">
        <ele>362</ele>
        <time>2024-08-25T13:00:07Z</time>
      </trkpt>
      <trkpt lat="49.0013" lon="7.85168">
        <ele>362</ele>
        <time>2024-08-25T13:00:08Z</time>
      </trkpt>
      <trkpt lat="49.00124" lon="7.85166">
        <ele>362</ele>
        <time>2024-08-25T13:00:09Z</time>
      </trkpt>
      <trkpt lat="49.00118" lon="7.85163">
        <ele>362.2</ele>
        <time>2024-08-25T13:00:10Z</time>
      </trkpt>
      <trkpt lat="49.00112" lon="7.85161">
        <ele>362.6</ele>
        <time>2024-08-25T13:00:11Z</time>
      </trkpt>
      <trkpt lat="49.00107" lon="7.85157">
        <ele>362.8</ele>
        <time>2024-08-25T13:00:12Z</time>
      </trkpt>
      <trkpt lat="49.00101" lon="7.85153">
        <ele>363</ele>
        <time>2024-08-25T13:00:13Z</time>
      </trkpt>
      <trkpt lat="49.00096" lon="7.85148">
        <ele>363</ele>
        <time>2024-08-25T13:00:14Z</time>
      </trkpt>
      <trkpt lat="49.00091" lon="7.85144">
        <ele>363.2</ele>
        <time>2024-08-25T13:00:15Z</time>
      </trkpt>
      <trkpt lat="49.00086" lon="7.8514">
        <ele>363.4</ele>
        <time>2024-08-25T13:00:16Z</time>
      </trkpt>
      <trkpt lat="49.00082" lon="7.85135">
        <ele>363.4</ele>
        <time>2024-08-25T13:00:17Z</time>
      </trkpt>
      <trkpt lat="49.00077" lon="7.8513">
        <ele>363.8</ele>
        <time>2024-08-25T13:00:18Z</time>
      </trkpt>
      <trkpt lat="49.00072" lon="7.85126">
        <ele>363.8</ele>
        <time>2024-08-25T13:00:19Z</time>
      </trkpt>
      <trkpt lat="49.00068" lon="7.8512">
        <ele>364</ele>
        <time>2024-08-25T13:00:20Z</time>
      </trkpt>
      <trkpt lat="49.00063" lon="7.85115">
        <ele>364.2</ele>
        <time>2024-08-25T13:00:21Z</time>
      </trkpt>
      <trkpt lat="49.00058" lon="7.8511">
        <ele>364.4</ele>
        <time>2024-08-25T13:00:22Z</time>
      </trkpt>
      <trkpt lat="49.00054" lon="7.85106">
        <ele>364.6</ele>
        <time>2024-08-25T13:00:23Z</time>
      </trkpt>
      <trkpt lat="49.0005" lon="7.85101">
        <ele>364.8</ele>
        <time>2024-08-25T13:00:24Z</time>
      </trkpt>
      <trkpt lat="49.00046" lon="7.85096">
        <ele>365</ele>
        <time>2024-08-25T13:00:25Z</time>
      </trkpt>
      <trkpt lat="49.00042" lon="7.85091">
        <ele>365.2</ele>
        <time>2024-08-25T13:00:26Z</time>
      </trkpt>
      <trkpt lat="49.00038" lon="7.85087">
        <ele>365.4</ele>
        <time>2024-08-25T13:00:27Z</time>
      </trkpt>
      <trkpt lat="49.00033" lon="7.85082">
        <ele>365.4</ele>
        <time>2024-08-25T13:00:28Z</time>
      </trkpt>
      <trkpt lat="49.00028" lon="7.85078">
        <ele>365.6</ele>
        <time>2024-08-25T13:00:29Z</time>
      </trkpt>
      <trkpt lat="49.00023" lon="7.85073">
        <ele>365.6</ele>
        <time>2024-08-25T13:00:30Z</time>
      </trkpt>
      <trkpt lat="49.00018" lon="7.85068">
        <ele>365.6</ele>
        <time>2024-08-25T13:00:31Z</time>
      </trkpt>
      <trkpt lat="49.00012" lon="7.85063">
        <ele>365.6</ele>
        <time>2024-08-25T13:00:32Z</time>
      </trkpt>
      <trkpt lat="49.00007" lon="7.85058">
        <ele>365.6</ele>
        <time>2024-08-25T13:00:33Z</time>
      </trkpt>
      <trkpt lat="49.00002" lon="7.85053">
        <ele>365.4</ele>
        <time>2024-08-25T13:00:34Z</time>
      </trkpt>
      <trkpt lat="48.99996" lon="7.85047">
        <ele>365.2</ele>
        <time>2024-08-25T13:00:35Z</time>
      </trkpt>
      <trkpt lat="48.9999" lon="7.8504">
        <ele>364.8</ele>
        <time>2024-08-25T13:00:36Z</time>
      </trkpt>
      <trkpt lat="48.99983" lon="7.85033">
        <ele>364.6</ele>
        <time>2024-08-25T13:00:37Z</time>
      </trkpt>
      <trkpt lat="48.99977" lon="7.85025">
        <ele>364</ele>
        <time>2024-08-25T13:00:38Z</time>
      </trkpt>
      <trkpt lat="48.9997" lon="7.85018">
        <ele>363.6</ele>
        <time>2024-08-25T13:00:39Z</time>
      </trkpt>
      <trkpt lat="48.99964" lon="7.85009">
        <ele>363.2</ele>
        <time>2024-08-25T13:00:40Z</time>
      </trkpt>
      <trkpt lat="48.99958" lon="7.85">
        <ele>362.4</ele>
        <time>2024-08-25T13:00:41Z</time>
      </trkpt>
      <trkpt lat="48.99951" lon="7.84991">
        <ele>362</ele>
        <time>2024-08-25T13:00:42Z</time>
      </trkpt>
      <trkpt lat="48.99945" lon="7.84982">
        <ele>361</ele>
        <time>2024-08-25T13:00:43Z</time>
      </trkpt>
      <trkpt lat="48.99938" lon="7.84973">
        <ele>360.6</ele>
        <time>2024-08-25T13:00:44Z</time>
      </trkpt>
      <trkpt lat="48.99931" lon="7.84963">
        <ele>359.8</ele>
        <time>2024-08-25T13:00:45Z</time>
      </trkpt>
      <trkpt lat="48.99924" lon="7.84955">
        <ele>359.2</ele>
        <time>2024-08-25T13:00:46Z</time>
      </trkpt>
      <trkpt lat="48.99917" lon="7.84946">
        <ele>358.2</ele>
        <time>2024-08-25T13:00:47Z</time>
      </trkpt>
      <trkpt lat="48.9991" lon="7.84939">
        <ele>357.8</ele>
        <time>2024-08-25T13:00:48Z</time>
      </trkpt>
      <trkpt lat="48.99903" lon="7.84931">
        <ele>357.2</ele>
        <time>2024-08-25T13:00:49Z</time>
      </trkpt>
      <trkpt lat="48.99896" lon="7.84924">
        <ele>356.8</ele>
        <time>2024-08-25T13:00:50Z</time>
      </trkpt>
      <trkpt lat="48.99888" lon="7.84916">
        <ele>356.4</ele>
        <time>2024-08-25T13:00:51Z</time>
      </trkpt>
      <trkpt lat="48.99882" lon="7.84908">
        <ele>356.4</ele>
        <time>2024-08-25T13:00:52Z</time>
      </trkpt>
      <trkpt lat="48.99876" lon="7.84899">
        <ele>356</ele>
        <time>2024-08-25T13:00:53Z</time>
      </trkpt>
      <trkpt lat="48.9987" lon="7.8489">
        <ele>355.8</ele>
        <time>2024-08-25T13:00:54Z</time>
      </trkpt>
      <trkpt lat="48.99865" lon="7.84882">
        <ele>355.8</ele>
        <time>2024-08-25T13:00:55Z</time>
      </trkpt>
      <trkpt lat="48.99859" lon="7.84873">
        <ele>355.8</ele>
        <time>2024-08-25T13:00:56Z</time>
      </trkpt>
      <trkpt lat="48.99854" lon="7.84864">
        <ele>355.8</ele>
        <time>2024-08-25T13:00:57Z</time>
      </trkpt>
      <trkpt lat="48.99849" lon="7.84856">
        <ele>355.8</ele>
        <time>2024-08-25T13:00:58Z</time>
      </trkpt>
      <trkpt lat="48.99844" lon="7.84847">
        <ele>356</ele>
        <time>2024-08-25T13:00:59Z</time>
      </trkpt>
      <trkpt lat="48.99839" lon="7.8484">
        <ele>356</ele>
        <time>2024-08-25T13:01:00Z</time>
      </trkpt>
      <trkpt lat="48.99835" lon="7.84832">
        <ele>356</ele>
        <time>2024-08-25T13:01:01Z</time>
      </trkpt>
      <trkpt lat="48.9983" lon="7.84824">
        <ele>356</ele>
        <time>2024-08-25T13:01:02Z</time>
      </trkpt>
      <trkpt lat="48.99826" lon="7.84816">
        <ele>356.2</ele>
        <time>2024-08-25T13:01:03Z</time>
      </trkpt>
      <trkpt lat="48.99821" lon="7.84809">
        <ele>356.2</ele>
        <time>2024-08-25T13:01:04Z</time>
      </trkpt>
      <trkpt lat="48.99817" lon="7.84801">
        <ele>356.4</ele>
        <time>2024-08-25T13:01:05Z</time>
      </trkpt>
      <trkpt lat="48.99813" lon="7.84793">
        <ele>356.4</ele>
        <time>2024-08-25T13:01:06Z</time>
      </trkpt>
      <trkpt lat="48.99809" lon="7.84785">
        <ele>356.4</ele>
        <time>2024-08-25T13:01:07Z</time>
      </trkpt>
      <trkpt lat="48.99805" lon="7.84778">
        <ele>356.4</ele>
        <time>2024-08-25T13:01:08Z</time>
      </trkpt>
      <trkpt lat="48.998" lon="7.8477">
        <ele>356.6</ele>
        <time>2024-08-25T13:01:09Z</time>
      </trkpt>
      <trkpt lat="48.99795" lon="7.84762">
        <ele>356.6</ele>
        <time>2024-08-25T13:01:10Z</time>
      </trkpt>
      <trkpt lat="48.9979" lon="7.84754">
        <ele>356.4</ele>
        <time>2024-08-25T13:01:11Z</time>
      </trkpt>
      <trkpt lat="48.99786" lon="7.84746">
        <ele>356.2</ele>
        <time>2024-08-25T13:01:12Z</time>
      </trkpt>
      <trkpt lat="48.99781" lon="7.84738">
        <ele>356</ele>
        <time>2024-08-25T13:01:13Z</time>
      </trkpt>
      <trkpt lat="48.99776" lon="7.8473">
        <ele>356</ele>
        <time>2024-08-25T13:01:14Z</time>
      </trkpt>
      <trkpt lat="48.9977" lon="7.84722">
        <ele>355.8</ele>
        <time>2024-08-25T13:01:15Z</time>
      </trkpt>
      <trkpt lat="48.99765" lon="7.84715">
        <ele>355.6</ele>
        <time>2024-08-25T13:01:16Z</time>
      </trkpt>
      <trkpt lat="48.9976" lon="7.84708">
        <ele>355.6</ele>
        <time>2024-08-25T13:01:17Z</time>
      </trkpt>
      <trkpt lat="48.99755" lon="7.84702">
        <ele>355.6</ele>
        <time>2024-08-25T13:01:18Z</time>
      </trkpt>
      <trkpt lat="48.99749" lon="7.84695">
        <ele>355.6</ele>
        <time>2024-08-25T13:01:19Z</time>
      </trkpt>
      <trkpt lat="48.99744" lon="7.84689">
        <ele>355.6</ele>
        <time>2024-08-25T13:01:20Z</time>
      </trkpt>
      <trkpt lat="48.99738" lon="7.84683">
        <ele>355.6</ele>
        <time>2024-08-25T13:01:21Z</time>
      </trkpt>
      <trkpt lat="48.99732" lon="7.84679">
        <ele>355.6</ele>
        <time>2024-08-25T13:01:22Z</time>
      </trkpt>
      <trkpt lat="48.99726" lon="7.84674">
        <ele>356</ele>
        <time>2024-08-25T13:01:23Z</time>
      </trkpt>
      <trkpt lat="48.9972" lon="7.8467">
        <ele>356</ele>
        <time>2024-08-25T13:01:24Z</time>
      </trkpt>
      <trkpt lat="48.99714" lon="7.84666">
        <ele>356.4</ele>
        <time>2024-08-25T13:01:25Z</time>
      </trkpt>
      <trkpt lat="48.99709" lon="7.84662">
        <ele>356.4</ele>
        <time>2024-08-25T13:01:26Z</time>
      </trkpt>
      <trkpt lat="48.99703" lon="7.84658">
        <ele>356.6</ele>
        <time>2024-08-25T13:01:27Z</time>
      </trkpt>
      <trkpt lat="48.99697" lon="7.84654">
        <ele>356.8</ele>
        <time>2024-08-25T13:01:28Z</time>
      </trkpt>
      <trkpt lat="48.99692" lon="7.84652">
        <ele>357.2</ele>
        <time>2024-08-25T13:01:29Z</time>
      </trkpt>
      <trkpt lat="48.99687" lon="7.84648">
        <ele>357.4</ele>
        <time>2024-08-25T13:01:30Z</time>
      </trkpt>
      <trkpt lat="48.99682" lon="7.84646">
        <ele>357.6</ele>
        <time>2024-08-25T13:01:31Z</time>
      </trkpt>
      <trkpt lat="48.99677" lon="7.84644">
        <ele>358</ele>
        <time>2024-08-25T13:01:32Z</time>
      </trkpt>
      <trkpt lat="48.99672" lon="7.84641">
        <ele>358.6</ele>
        <time>2024-08-25T13:01:33Z</time>
      </trkpt>
      <trkpt lat="48.99666" lon="7.84639">
        <ele>358.6</ele>
        <time>2024-08-25T13:01:34Z</time>
      </trkpt>
      <trkpt lat="48.99661" lon="7.84637">
        <ele>359.2</ele>
        <time>2024-08-25T13:01:35Z</time>
      </trkpt>
      <trkpt lat="48.99656" lon="7.84635">
        <ele>359.4</ele>
        <time>2024-08-25T13:01:36Z</time>
      </trkpt>
      <trkpt lat="48.99651" lon="7.84633">
        <ele>359.6</ele>
        <time>2024-08-25T13:01:37Z</time>
      </trkpt>
      <trkpt lat="48.99646" lon="7.84632">
        <ele>359.8</ele>
        <time>2024-08-25T13:01:38Z</time>
      </trkpt>
      <trkpt lat="48.99641" lon="7.84631">
        <ele>360</ele>
        <time>2024-08-25T13:01:39Z</time>
      </trkpt>
      <trkpt lat="48.99636" lon="7.8463">
        <ele>360</ele>
        <time>2024-08-25T13:01:40Z</time>
      </trkpt>
      <trkpt lat="48.99631" lon="7.8463">
        <ele>360.2</ele>
        <time>2024-08-25T13:01:41Z</time>
      </trkpt>
      <trkpt lat="48.99626" lon="7.8463">
        <ele>360.4</ele>
        <time>2024-08-25T13:01:42Z</time>
      </trkpt>
      <trkpt lat="48.99621" lon="7.8463">
        <ele>360.4</ele>
        <time>2024-08-25T13:01:43Z</time>
      </trkpt>
      <trkpt lat="48.99615" lon="7.8463">
        <ele>360.6</ele>
        <time>2024-08-25T13:01:44Z</time>
      </trkpt>
      <trkpt lat="48.9961" lon="7.84631">
        <ele>360.6</ele>
        <time>2024-08-25T13:01:45Z</time>
      </trkpt>
      <trkpt lat="48.99605" lon="7.84631">
        <ele>360.6</ele>
        <time>2024-08-25T13:01:46Z</time>
      </trkpt>
      <trkpt lat="48.996" lon="7.84631">
        <ele>360.6</ele>
        <time>2024-08-25T13:01:47Z</time>
      </trkpt>
      <trkpt lat="48.99594" lon="7.84629">
        <ele>360.8</ele>
        <time>2024-08-25T13:01:48Z</time>
      </trkpt>
      <trkpt lat="48.99588" lon="7.84627">
        <ele>360.8</ele>
        <time>2024-08-25T13:01:49Z</time>
      </trkpt>
      <trkpt lat="48.99583" lon="7.84625">
        <ele>360.8</ele>
        <time>2024-08-25T13:01:50Z</time>
      </trkpt>
      <trkpt lat="48.99577" lon="7.84621">
        <ele>360.8</ele>
        <time>2024-08-25T13:01:51Z</time>
      </trkpt>
      <trkpt lat="48.99573" lon="7.84617">
        <ele>361</ele>
        <time>2024-08-25T13:01:52Z</time>
      </trkpt>
      <trkpt lat="48.99569" lon="7.84612">
        <ele>361</ele>
        <time>2024-08-25T13:01:53Z</time>
      </trkpt>
      <trkpt lat="48.99565" lon="7.84607">
        <ele>361.2</ele>
        <time>2024-08-25T13:01:54Z</time>
      </trkpt>
      <trkpt lat="48.99561" lon="7.84601">
        <ele>361.2</ele>
        <time>2024-08-25T13:01:55Z</time>
      </trkpt>
      <trkpt lat="48.99558" lon="7.84595">
        <ele>361.6</ele>
        <time>2024-08-25T13:01:56Z</time>
      </trkpt>
      <trkpt lat="48.99555" lon="7.84589">
        <ele>361.8</ele>
        <time>2024-08-25T13:01:57Z</time>
      </trkpt>
      <trkpt lat="48.99552" lon="7.84583">
        <ele>362.2</ele>
        <time>2024-08-25T13:01:58Z</time>
      </trkpt>
      <trkpt lat="48.9955" lon="7.84578">
        <ele>362.2</ele>
        <time>2024-08-25T13:01:59Z</time>
      </trkpt>
      <trkpt lat="48.99547" lon="7.84574">
        <ele>362.8</ele>
        <time>2024-08-25T13:02:00Z</time>
      </trkpt>
      <trkpt lat="48.99544" lon="7.84568">
        <ele>363</ele>
        <time>2024-08-25T13:02:01Z</time>
      </trkpt>
      <trkpt lat="48.99541" lon="7.84564">
        <ele>363.4</ele>
        <time>2024-08-25T13:02:02Z</time>
      </trkpt>
      <trkpt lat="48.99538" lon="7.84559">
        <ele>363.6</ele>
        <time>2024-08-25T13:02:03Z</time>
      </trkpt>
      <trkpt lat="48.99535" lon="7.84555">
        <ele>363.8</ele>
        <time>2024-08-25T13:02:04Z</time>
      </trkpt>
      <trkpt lat="48.99532" lon="7.84551">
        <ele>364</ele>
        <time>2024-08-25T13:02:05Z</time>
      </trkpt>
      <trkpt lat="48.99528" lon="7.84548">
        <ele>364.2</ele>
        <time>2024-08-25T13:02:06Z</time>
      </trkpt>
      <trkpt lat="48.99525" lon="7.84544">
        <ele>364.4</ele>
        <time>2024-08-25T13:02:07Z</time>
      </trkpt>
      <trkpt lat="48.99522" lon="7.84541">
        <ele>364.6</ele>
        <time>2024-08-25T13:02:08Z</time>
      </trkpt>
      <trkpt lat="48.99518" lon="7.84538">
        <ele>364.8</ele>
        <time>2024-08-25T13:02:09Z</time>
      </trkpt>
      <trkpt lat="48.99513" lon="7.84534">
        <ele>365.2</ele>
        <time>2024-08-25T13:02:10Z</time>
      </trkpt>
      <trkpt lat="48.9951" lon="7.8453">
        <ele>365.4</ele>
        <time>2024-08-25T13:02:11Z</time>
      </trkpt>
      <trkpt lat="48.99506" lon="7.84526">
        <ele>365.6</ele>
        <time>2024-08-25T13:02:12Z</time>
      </trkpt>
      <trkpt lat="48.99502" lon="7.84523">
        <ele>365.8</ele>
        <time>2024-08-25T13:02:13Z</time>
      </trkpt>
      <trkpt lat="48.99499" lon="7.8452">
        <ele>366.2</ele>
        <time>2024-08-25T13:02:14Z</time>
      </trkpt>
      <trkpt lat="48.99496" lon="7.84518">
        <ele>366.4</ele>
        <time>2024-08-25T13:02:15Z</time>
      </trkpt>
      <trkpt lat="48.99492" lon="7.84516">
        <ele>366.6</ele>
        <time>2024-08-25T13:02:16Z</time>
      </trkpt>
      <trkpt lat="48.99489" lon="7.84515">
        <ele>367</ele>
        <time>2024-08-25T13:02:17Z</time>
      </trkpt>
      <trkpt lat="48.99485" lon="7.84513">
        <ele>367.2</ele>
        <time>2024-08-25T13:02:18Z</time>
      </trkpt>
      <trkpt lat="48.99482" lon="7.84511">
        <ele>367.4</ele>
        <time>2024-08-25T13:02:19Z</time>
      </trkpt>
      <trkpt lat="48.99478" lon="7.84509">
        <ele>367.4</ele>
        <time>2024-08-25T13:02:20Z</time>
      </trkpt>
      <trkpt lat="48.99475" lon="7.84507">
        <ele>368</ele>
        <time>2024-08-25T13:02:21Z</time>
      </trkpt>
      <trkpt lat="48.99471" lon="7.84505">
        <ele>368.2</ele>
        <time>2024-08-25T13:02:22Z</time>
      </trkpt>
      <trkpt lat="48.99467" lon="7.84502">
        <ele>368.4</ele>
        <time>2024-08-25T13:02:23Z</time>
      </trkpt>
      <trkpt lat="48.99463" lon="7.845">
        <ele>368.6</ele>
        <time>2024-08-25T13:02:24Z</time>
      </trkpt>
      <trkpt lat="48.99458" lon="7.84498">
        <ele>368.8</ele>
        <time>2024-08-25T13:02:25Z</time>
      </trkpt>
      <trkpt lat="48.99453" lon="7.84496">
        <ele>369</ele>
        <time>2024-08-25T13:02:26Z</time>
      </trkpt>
      <trkpt lat="48.9945" lon="7.84494">
        <ele>369.2</ele>
        <time>2024-08-25T13:02:27Z</time>
      </trkpt>
      <trkpt lat="48.99445" lon="7.84492">
        <ele>369.4</ele>
        <time>2024-08-25T13:02:28Z</time>
      </trkpt>
      <trkpt lat="48.99441" lon="7.8449">
        <ele>369.4</ele>
        <time>2024-08-25T13:02:29Z</time>
      </trkpt>
      <trkpt lat="48.99436" lon="7.84488">
        <ele>369.6</ele>
        <time>2024-08-25T13:02:30Z</time>
      </trkpt>
      <trkpt lat="48.99432" lon="7.84487">
        <ele>369.6</ele>
        <time>2024-08-25T13:02:31Z</time>
      </trkpt>
      <trkpt lat="48.99427" lon="7.84486">
        <ele>369.6</ele>
        <time>2024-08-25T13:02:32Z</time>
      </trkpt>
      <trkpt lat="48.99422" lon="7.84485">
        <ele>369.8</ele>
        <time>2024-08-25T13:02:33Z</time>
      </trkpt>
      <trkpt lat="48.99417" lon="7.84484">
        <ele>369.8</ele>
        <time>2024-08-25T13:02:34Z</time>
      </trkpt>
      <trkpt lat="48.99412" lon="7.84484">
        <ele>369.8</ele>
        <time>2024-08-25T13:02:35Z</time>
      </trkpt>
      <trkpt lat="48.99408" lon="7.84485">
        <ele>369.8</ele>
        <time>2024-08-25T13:02:36Z</time>
      </trkpt>
      <trkpt lat="48.99403" lon="7.84486">
        <ele>369.8</ele>
        <time>2024-08-25T13:02:37Z</time>
      </trkpt>
      <trkpt lat="48.99398" lon="7.84488">
        <ele>369.8</ele>
        <time>2024-08-25T13:02:38Z</time>
      </trkpt>
      <trkpt lat="48.99394" lon="7.8449">
        <ele>369.8</ele>
        <time>2024-08-25T13:02:39Z</time>
      </trkpt>
      <trkpt lat="48.99389" lon="7.84492">
        <ele>369.8</ele>
        <time>2024-08-25T13:02:40Z</time>
      </trkpt>
      <trkpt lat="48.99385" lon="7.84493">
        <ele>369.8</ele>
        <time>2024-08-25T13:02:41Z</time>
      </trkpt>
      <trkpt lat="48.99381" lon="7.84494">
        <ele>369.8</ele>
        <time>2024-08-25T13:02:42Z</time>
      </trkpt>
      <trkpt lat="48.99376" lon="7.84496">
        <ele>369.8</ele>
        <time>2024-08-25T13:02:43Z</time>
      </trkpt>
      <trkpt lat="48.99372" lon="7.84498">
        <ele>369.8</ele>
        <time>2024-08-25T13:02:44Z</time>
      </trkpt>
      <trkpt lat="48.99367" lon="7.84499">
        <ele>370</ele>
        <time>2024-08-25T13:02:45Z</time>
      </trkpt>
      <trkpt lat="48.99363" lon="7.84501">
        <ele>370</ele>
        <time>2024-08-25T13:02:46Z</time>
      </trkpt>
      <trkpt lat="48.99358" lon="7.84503">
        <ele>370</ele>
        <time>2024-08-25T13:02:47Z</time>
      </trkpt>
      <trkpt lat="48.99353" lon="7.84505">
        <ele>370.2</ele>
        <time>2024-08-25T13:02:48Z</time>
      </trkpt>
      <trkpt lat="48.99349" lon="7.84506">
        <ele>370.2</ele>
        <time>2024-08-25T13:02:49Z</time>
      </trkpt>
      <trkpt lat="48.99344" lon="7.84508">
        <ele>370.6</ele>
        <time>2024-08-25T13:02:50Z</time>
      </trkpt>
      <trkpt lat="48.99339" lon="7.8451">
        <ele>370.8</ele>
        <time>2024-08-25T13:02:51Z</time>
      </trkpt>
      <trkpt lat="48.99335" lon="7.84511">
        <ele>370.8</ele>
        <time>2024-08-25T13:02:52Z</time>
      </trkpt>
      <trkpt lat="48.9933" lon="7.84513">
        <ele>371</ele>
        <time>2024-08-25T13:02:53Z</time>
      </trkpt>
      <trkpt lat="48.99326" lon="7.84514">
        <ele>371.2</ele>
        <time>2024-08-25T13:02:54Z</time>
      </trkpt>
      <trkpt lat="48.99321" lon="7.84516">
        <ele>371.6</ele>
        <time>2024-08-25T13:02:55Z</time>
      </trkpt>
      <trkpt lat="48.99316" lon="7.84518">
        <ele>371.6</ele>
        <time>2024-08-25T13:02:56Z</time>
      </trkpt>
      <trkpt lat="48.99311" lon="7.8452">
        <ele>371.8</ele>
        <time>2024-08-25T13:02:57Z</time>
      </trkpt>
      <trkpt lat="48.99306" lon="7.84523">
        <ele>372</ele>
        <time>2024-08-25T13:02:58Z</time>
      </trkpt>
      <trkpt lat="48.99302" lon="7.84525">
        <ele>372.2</ele>
        <time>2024-08-25T13:02:59Z</time>
      </trkpt>
      <trkpt lat="48.99298" lon="7.84527">
        <ele>372.6</ele>
        <time>2024-08-25T13:03:00Z</time>
      </trkpt>
      <trkpt lat="48.99294" lon="7.84528">
        <ele>372.8</ele>
        <time>2024-08-25T13:03:01Z</time>
      </trkpt>
      <trkpt lat="48.99289" lon="7.8453">
        <ele>372.8</ele>
        <time>2024-08-25T13:03:02Z</time>
      </trkpt>
      <trkpt lat="48.99285" lon="7.84533">
        <ele>373</ele>
        <time>2024-08-25T13:03:03Z</time>
      </trkpt>
      <trkpt lat="48.9928" lon="7.84535">
        <ele>373.2</ele>
        <time>2024-08-25T13:03:04Z</time>
      </trkpt>
      <trkpt lat="48.99275" lon="7.84537">
        <ele>373.2</ele>
        <time>2024-08-25T13:03:05Z</time>
      </trkpt>
      <trkpt lat="48.9927" lon="7.84538">
        <ele>373.4</ele>
        <time>2024-08-25T13:03:06Z</time>
      </trkpt>
      <trkpt lat="48.99265" lon="7.84539">
        <ele>373.4</ele>
        <time>2024-08-25T13:03:07Z</time>
      </trkpt>
      <trkpt lat="48.9926" lon="7.8454">
        <ele>373.4</ele>
        <time>2024-08-25T13:03:08Z</time>
      </trkpt>
      <trkpt lat="48.99254" lon="7.8454">
        <ele>373.6</ele>
        <time>2024-08-25T13:03:09Z</time>
      </trkpt>
      <trkpt lat="48.99249" lon="7.84539">
        <ele>373.8</ele>
        <time>2024-08-25T13:03:10Z</time>
      </trkpt>
      <trkpt lat="48.99244" lon="7.84538">
        <ele>374</ele>
        <time>2024-08-25T13:03:11Z</time>
      </trkpt>
      <trkpt lat="48.9924" lon="7.84536">
        <ele>374.2</ele>
        <time>2024-08-25T13:03:12Z</time>
      </trkpt>
      <trkpt lat="48.99236" lon="7.84534">
        <ele>374.2</ele>
        <time>2024-08-25T13:03:13Z</time>
      </trkpt>
      <trkpt lat="48.99232" lon="7.84532">
        <ele>374.4</ele>
        <time>2024-08-25T13:03:14Z</time>
      </trkpt>
      <trkpt lat="48.99228" lon="7.8453">
        <ele>374.6</ele>
        <time>2024-08-25T13:03:15Z</time>
      </trkpt>
      <trkpt lat="48.99224" lon="7.84527">
        <ele>374.8</ele>
        <time>2024-08-25T13:03:16Z</time>
      </trkpt>
      <trkpt lat="48.9922" lon="7.84525">
        <ele>374.8</ele>
        <time>2024-08-25T13:03:17Z</time>
      </trkpt>
      <trkpt lat="48.99215" lon="7.84522">
        <ele>375</ele>
        <time>2024-08-25T13:03:18Z</time>
      </trkpt>
      <trkpt lat="48.99211" lon="7.84519">
        <ele>375.2</ele>
        <time>2024-08-25T13:03:19Z</time>
      </trkpt>
      <trkpt lat="48.99208" lon="7.84516">
        <ele>375.4</ele>
        <time>2024-08-25T13:03:20Z</time>
      </trkpt>
      <trkpt lat="48.99204" lon="7.84514">
        <ele>375.6</ele>
        <time>2024-08-25T13:03:21Z</time>
      </trkpt>
      <trkpt lat="48.99201" lon="7.84511">
        <ele>375.6</ele>
        <time>2024-08-25T13:03:22Z</time>
      </trkpt>
      <trkpt lat="48.99197" lon="7.84508">
        <ele>375.6</ele>
        <time>2024-08-25T13:03:23Z</time>
      </trkpt>
      <trkpt lat="48.99193" lon="7.84505">
        <ele>375.6</ele>
        <time>2024-08-25T13:03:24Z</time>
      </trkpt>
      <trkpt lat="48.9919" lon="7.84502">
        <ele>375.6</ele>
        <time>2024-08-25T13:03:25Z</time>
      </trkpt>
      <trkpt lat="48.99186" lon="7.84498">
        <ele>375.8</ele>
        <time>2024-08-25T13:03:26Z</time>
      </trkpt>
      <trkpt lat="48.99183" lon="7.84495">
        <ele>375.8</ele>
        <time>2024-08-25T13:03:27Z</time>
      </trkpt>
      <trkpt lat="48.9918" lon="7.84492">
        <ele>376</ele>
        <time>2024-08-25T13:03:28Z</time>
      </trkpt>
      <trkpt lat="48.99177" lon="7.8449">
        <ele>376.2</ele>
        <time>2024-08-25T13:03:29Z</time>
      </trkpt>
      <trkpt lat="48.99173" lon="7.84488">
        <ele>376.4</ele>
        <time>2024-08-25T13:03:30Z</time>
      </trkpt>
      <trkpt lat="48.9917" lon="7.84487">
        <ele>376.6</ele>
        <time>2024-08-25T13:03:31Z</time>
      </trkpt>
      <trkpt lat="48.99166" lon="7.84488">
        <ele>377</ele>
        <time>2024-08-25T13:03:32Z</time>
      </trkpt>
      <trkpt lat="48.99164" lon="7.84491">
        <ele>377.2</ele>
        <time>2024-08-25T13:03:33Z</time>
      </trkpt>
      <trkpt lat="48.99163" lon="7.84495">
        <ele>377.6</ele>
        <time>2024-08-25T13:03:34Z</time>
      </trkpt>
      <trkpt lat="48.99162" lon="7.845">
        <ele>377.6</ele>
        <time>2024-08-25T13:03:35Z</time>
      </trkpt>
      <trkpt lat="48.99162" lon="7.84505">
        <ele>377.8</ele>
        <time>2024-08-25T13:03:36Z</time>
      </trkpt>
      <trkpt lat="48.99161" lon="7.8451">
        <ele>378</ele>
        <time>2024-08-25T13:03:37Z</time>
      </trkpt>
      <trkpt lat="48.99161" lon="7.84515">
        <ele>378</ele>
        <time>2024-08-25T13:03:38Z</time>
      </trkpt>
      <trkpt lat="48.9916" lon="7.84521">
        <ele>378</ele>
        <time>2024-08-25T13:03:39Z</time>
      </trkpt>
      <trkpt lat="48.99159" lon="7.84526">
        <ele>378</ele>
        <time>2024-08-25T13:03:40Z</time>
      </trkpt>
      <trkpt lat="48.99158" lon="7.84532">
        <ele>378</ele>
        <time>2024-08-25T13:03:41Z</time>
      </trkpt>
      <trkpt lat="48.99156" lon="7.84538">
        <ele>378</ele>
        <time>2024-08-25T13:03:42Z</time>
      </trkpt>
      <trkpt lat="48.99155" lon="7.84544">
        <ele>378</ele>
        <time>2024-08-25T13:03:43Z</time>
      </trkpt>
      <trkpt lat="48.99153" lon="7.8455">
        <ele>378.2</ele>
        <time>2024-08-25T13:03:44Z</time>
      </trkpt>
      <trkpt lat="48.99151" lon="7.84555">
        <ele>378.2</ele>
        <time>2024-08-25T13:03:45Z</time>
      </trkpt>
      <trkpt lat="48.99149" lon="7.8456">
        <ele>378.4</ele>
        <time>2024-08-25T13:03:46Z</time>
      </trkpt>
      <trkpt lat="48.99146" lon="7.84565">
        <ele>378.4</ele>
        <time>2024-08-25T13:03:47Z</time>
      </trkpt>
      <trkpt lat="48.99142" lon="7.8457">
        <ele>378.4</ele>
        <time>2024-08-25T13:03:48Z</time>
      </trkpt>
      <trkpt lat="48.99138" lon="7.84574">
        <ele>378.4</ele>
        <time>2024-08-25T13:03:49Z</time>
      </trkpt>
      <trkpt lat="48.99133" lon="7.84577">
        <ele>378.4</ele>
        <time>2024-08-25T13:03:50Z</time>
      </trkpt>
      <trkpt lat="48.99128" lon="7.8458">
        <ele>378.4</ele>
        <time>2024-08-25T13:03:51Z</time>
      </trkpt>
      <trkpt lat="48.99124" lon="7.84584">
        <ele>377.8</ele>
        <time>2024-08-25T13:03:52Z</time>
      </trkpt>
      <trkpt lat="48.99119" lon="7.84589">
        <ele>377.8</ele>
        <time>2024-08-25T13:03:53Z</time>
      </trkpt>
      <trkpt lat="48.99116" lon="7.84595">
        <ele>377.4</ele>
        <time>2024-08-25T13:03:54Z</time>
      </trkpt>
      <trkpt lat="48.99112" lon="7.846">
        <ele>377</ele>
        <time>2024-08-25T13:03:55Z</time>
      </trkpt>
      <trkpt lat="48.99109" lon="7.84608">
        <ele>376.2</ele>
        <time>2024-08-25T13:03:56Z</time>
      </trkpt>
      <trkpt lat="48.99106" lon="7.84616">
        <ele>376</ele>
        <time>2024-08-25T13:03:57Z</time>
      </trkpt>
      <trkpt lat="48.99103" lon="7.84624">
        <ele>375.6</ele>
        <time>2024-08-25T13:03:58Z</time>
      </trkpt>
      <trkpt lat="48.991" lon="7.84632">
        <ele>374.4</ele>
        <time>2024-08-25T13:03:59Z</time>
      </trkpt>
      <trkpt lat="48.99097" lon="7.84642">
        <ele>373.8</ele>
        <time>2024-08-25T13:04:00Z</time>
      </trkpt>
      <trkpt lat="48.99093" lon="7.84653">
        <ele>373.4</ele>
        <time>2024-08-25T13:04:01Z</time>
      </trkpt>
      <trkpt lat="48.99089" lon="7.84663">
        <ele>372.4</ele>
        <time>2024-08-25T13:04:02Z</time>
      </trkpt>
      <trkpt lat="48.99085" lon="7.84673">
        <ele>371.6</ele>
        <time>2024-08-25T13:04:03Z</time>
      </trkpt>
      <trkpt lat="48.99081" lon="7.84684">
        <ele>371</ele>
        <time>2024-08-25T13:04:04Z</time>
      </trkpt>
      <trkpt lat="48.99077" lon="7.84693">
        <ele>370.2</ele>
        <time>2024-08-25T13:04:05Z</time>
      </trkpt>
      <trkpt lat="48.99072" lon="7.84703">
        <ele>369.6</ele>
        <time>2024-08-25T13:04:06Z</time>
      </trkpt>
      <trkpt lat="48.99065" lon="7.84712">
        <ele>368.8</ele>
        <time>2024-08-25T13:04:07Z</time>
      </trkpt>
      <trkpt lat="48.9906" lon="7.84721">
        <ele>368.2</ele>
        <time>2024-08-25T13:04:08Z</time>
      </trkpt>
      <trkpt lat="48.99054" lon="7.84729">
        <ele>367.6</ele>
        <time>2024-08-25T13:04:09Z</time>
      </trkpt>
      <trkpt lat="48.99049" lon="7.84737">
        <ele>367.2</ele>
        <time>2024-08-25T13:04:10Z</time>
      </trkpt>
      <trkpt lat="48.99045" lon="7.84745">
        <ele>366.8</ele>
        <time>2024-08-25T13:04:11Z</time>
      </trkpt>
      <trkpt lat="48.9904" lon="7.84753">
        <ele>366.6</ele>
        <time>2024-08-25T13:04:12Z</time>
      </trkpt>
      <trkpt lat="48.99035" lon="7.84761">
        <ele>366.4</ele>
        <time>2024-08-25T13:04:13Z</time>
      </trkpt>
      <trkpt lat="48.9903" lon="7.84769">
        <ele>366</ele>
        <time>2024-08-25T13:04:14Z</time>
      </trkpt>
      <trkpt lat="48.99025" lon="7.84776">
        <ele>365.6</ele>
        <time>2024-08-25T13:04:15Z</time>
      </trkpt>
      <trkpt lat="48.99019" lon="7.84784">
        <ele>364.8</ele>
        <time>2024-08-25T13:04:16Z</time>
      </trkpt>
      <trkpt lat="48.99014" lon="7.84792">
        <ele>364.2</ele>
        <time>2024-08-25T13:04:17Z</time>
      </trkpt>
      <trkpt lat="48.99009" lon="7.848">
        <ele>363.6</ele>
        <time>2024-08-25T13:04:18Z</time>
      </trkpt>
      <trkpt lat="48.99003" lon="7.84809">
        <ele>362.8</ele>
        <time>2024-08-25T13:04:19Z</time>
      </trkpt>
      <trkpt lat="48.98998" lon="7.84817">
        <ele>362</ele>
        <time>2024-08-25T13:04:20Z</time>
      </trkpt>
      <trkpt lat="48.98991" lon="7.84825">
        <ele>361.2</ele>
        <time>2024-08-25T13:04:21Z</time>
      </trkpt>
      <trkpt lat="48.98985" lon="7.84834">
        <ele>360.2</ele>
        <time>2024-08-25T13:04:22Z</time>
      </trkpt>
      <trkpt lat="48.98978" lon="7.84843">
        <ele>359.4</ele>
        <time>2024-08-25T13:04:23Z</time>
      </trkpt>
      <trkpt lat="48.98972" lon="7.84852">
        <ele>358.4</ele>
        <time>2024-08-25T13:04:24Z</time>
      </trkpt>
      <trkpt lat="48.98965" lon="7.8486">
        <ele>357.4</ele>
        <time>2024-08-25T13:04:25Z</time>
      </trkpt>
      <trkpt lat="48.98958" lon="7.84868">
        <ele>356.4</ele>
        <time>2024-08-25T13:04:26Z</time>
      </trkpt>
      <trkpt lat="48.98952" lon="7.84877">
        <ele>355.4</ele>
        <time>2024-08-25T13:04:27Z</time>
      </trkpt>
      <trkpt lat="48.98945" lon="7.84886">
        <ele>354.4</ele>
        <time>2024-08-25T13:04:28Z</time>
      </trkpt>
      <trkpt lat="48.98938" lon="7.84894">
        <ele>353.4</ele>
        <time>2024-08-25T13:04:29Z</time>
      </trkpt>
      <trkpt lat="48.98931" lon="7.84902">
        <ele>352.4</ele>
        <time>2024-08-25T13:04:30Z</time>
      </trkpt>
      <trkpt lat="48.98925" lon="7.84911">
        <ele>351.6</ele>
        <time>2024-08-25T13:04:31Z</time>
      </trkpt>
      <trkpt lat="48.98918" lon="7.8492">
        <ele>351</ele>
        <time>2024-08-25T13:04:32Z</time>
      </trkpt>
      <trkpt lat="48.98912" lon="7.84929">
        <ele>350.2</ele>
        <time>2024-08-25T13:04:33Z</time>
      </trkpt>
      <trkpt lat="48.98907" lon="7.84939">
        <ele>349.4</ele>
        <time>2024-08-25T13:04:34Z</time>
      </trkpt>
      <trkpt lat="48.98901" lon="7.84949">
        <ele>348</ele>
        <time>2024-08-25T13:04:35Z</time>
      </trkpt>
      <trkpt lat="48.98895" lon="7.84959">
        <ele>347.2</ele>
        <time>2024-08-25T13:04:36Z</time>
      </trkpt>
      <trkpt lat="48.98889" lon="7.84968">
        <ele>346.4</ele>
        <time>2024-08-25T13:04:37Z</time>
      </trkpt>
      <trkpt lat="48.98884" lon="7.84977">
        <ele>345.4</ele>
        <time>2024-08-25T13:04:38Z</time>
      </trkpt>
      <trkpt lat="48.98879" lon="7.84986">
        <ele>344.6</ele>
        <time>2024-08-25T13:04:39Z</time>
      </trkpt>
      <trkpt lat="48.98873" lon="7.84996">
        <ele>344</ele>
        <time>2024-08-25T13:04:40Z</time>
      </trkpt>
      <trkpt lat="48.98867" lon="7.85007">
        <ele>343.2</ele>
        <time>2024-08-25T13:04:41Z</time>
      </trkpt>
      <trkpt lat="48.9886" lon="7.85018">
        <ele>342.4</ele>
        <time>2024-08-25T13:04:42Z</time>
      </trkpt>
      <trkpt lat="48.98853" lon="7.85029">
        <ele>341.6</ele>
        <time>2024-08-25T13:04:43Z</time>
      </trkpt>
      <trkpt lat="48.98848" lon="7.85042">
        <ele>340.8</ele>
        <time>2024-08-25T13:04:44Z</time>
      </trkpt>
      <trkpt lat="48.98844" lon="7.85054">
        <ele>340.6</ele>
        <time>2024-08-25T13:04:45Z</time>
      </trkpt>
      <trkpt lat="48.98839" lon="7.85068">
        <ele>339.4</ele>
        <time>2024-08-25T13:04:46Z</time>
      </trkpt>
      <trkpt lat="48.98836" lon="7.85081">
        <ele>338.8</ele>
        <time>2024-08-25T13:04:47Z</time>
      </trkpt>
      <trkpt lat="48.98832" lon="7.85094">
        <ele>338.2</ele>
        <time>2024-08-25T13:04:48Z</time>
      </trkpt>
      <trkpt lat="48.98828" lon="7.85107">
        <ele>337.8</ele>
        <time>2024-08-25T13:04:49Z</time>
      </trkpt>
      <trkpt lat="48.98825" lon="7.8512">
        <ele>336.4</ele>
        <time>2024-08-25T13:04:50Z</time>
      </trkpt>
      <trkpt lat="48.98825" lon="7.85132">
        <ele>335.6</ele>
        <time>2024-08-25T13:04:51Z</time>
      </trkpt>
      <trkpt lat="48.98825" lon="7.85145">
        <ele>334.6</ele>
        <time>2024-08-25T13:04:52Z</time>
      </trkpt>
      <trkpt lat="48.98828" lon="7.85158">
        <ele>333.8</ele>
        <time>2024-08-25T13:04:53Z</time>
      </trkpt>
      <trkpt lat="48.98831" lon="7.8517">
        <ele>333.4</ele>
        <time>2024-08-25T13:04:54Z</time>
      </trkpt>
      <trkpt lat="48.98835" lon="7.85181">
        <ele>332.4</ele>
        <time>2024-08-25T13:04:55Z</time>
      </trkpt>
      <trkpt lat="48.98839" lon="7.85193">
        <ele>331.6</ele>
        <time>2024-08-25T13:04:56Z</time>
      </trkpt>
      <trkpt lat="48.98843" lon="7.85205">
        <ele>330.8</ele>
        <time>2024-08-25T13:04:57Z</time>
      </trkpt>
      <trkpt lat="48.98846" lon="7.85217">
        <ele>330</ele>
        <time>2024-08-25T13:04:58Z</time>
      </trkpt>
      <trkpt lat="48.98848" lon="7.85229">
        <ele>329.2</ele>
        <time>2024-08-25T13:04:59Z</time>
      </trkpt>
      <trkpt lat="48.98849" lon="7.85242">
        <ele>328.8</ele>
        <time>2024-08-25T13:05:00Z</time>
      </trkpt>
      <trkpt lat="48.98851" lon="7.85255">
        <ele>327.4</ele>
        <time>2024-08-25T13:05:01Z</time>
      </trkpt>
      <trkpt lat="48.98852" lon="7.85268">
        <ele>326.8</ele>
        <time>2024-08-25T13:05:02Z</time>
      </trkpt>
      <trkpt lat="48.98853" lon="7.85282">
        <ele>325.8</ele>
        <time>2024-08-25T13:05:03Z</time>
      </trkpt>
      <trkpt lat="48.98855" lon="7.85298">
        <ele>324.6</ele>
        <time>2024-08-25T13:05:04Z</time>
      </trkpt>
      <trkpt lat="48.98856" lon="7.85312">
        <ele>323.6</ele>
        <time>2024-08-25T13:05:05Z</time>
      </trkpt>
      <trkpt lat="48.98857" lon="7.85327">
        <ele>322.4</ele>
        <time>2024-08-25T13:05:06Z</time>
      </trkpt>
      <trkpt lat="48.98859" lon="7.85343">
        <ele>321.2</ele>
        <time>2024-08-25T13:05:07Z</time>
      </trkpt>
      <trkpt lat="48.98859" lon="7.85361">
        <ele>320</ele>
        <time>2024-08-25T13:05:08Z</time>
      </trkpt>
      <trkpt lat="48.98859" lon="7.85377">
        <ele>319</ele>
        <time>2024-08-25T13:05:09Z</time>
      </trkpt>
      <trkpt lat="48.98857" lon="7.85392">
        <ele>317.8</ele>
        <time>2024-08-25T13:05:10Z</time>
      </trkpt>
      <trkpt lat="48.98855" lon="7.85407">
        <ele>316.6</ele>
        <time>2024-08-25T13:05:11Z</time>
      </trkpt>
      <trkpt lat="48.98852" lon="7.85421">
        <ele>315.2</ele>
        <time>2024-08-25T13:05:12Z</time>
      </trkpt>
      <trkpt lat="48.98848" lon="7.85435">
        <ele>314</ele>
        <time>2024-08-25T13:05:13Z</time>
      </trkpt>
      <trkpt lat="48.98844" lon="7.85447">
        <ele>313</ele>
        <time>2024-08-25T13:05:14Z</time>
      </trkpt>
      <trkpt lat="48.98838" lon="7.85458">
        <ele>312</ele>
        <time>2024-08-25T13:05:15Z</time>
      </trkpt>
      <trkpt lat="48.98832" lon="7.85467">
        <ele>311</ele>
        <time>2024-08-25T13:05:16Z</time>
      </trkpt>
      <trkpt lat="48.98825" lon="7.85476">
        <ele>310</ele>
        <time>2024-08-25T13:05:17Z</time>
      </trkpt>
      <trkpt lat="48.98818" lon="7.85486">
        <ele>309.2</ele>
        <time>2024-08-25T13:05:18Z</time>
      </trkpt>
      <trkpt lat="48.98811" lon="7.85495">
        <ele>308</ele>
        <time>2024-08-25T13:05:19Z</time>
      </trkpt>
      <trkpt lat="48.98805" lon="7.85503">
        <ele>307.6</ele>
        <time>2024-08-25T13:05:20Z</time>
      </trkpt>
      <trkpt lat="48.98798" lon="7.85512">
        <ele>306.4</ele>
        <time>2024-08-25T13:05:21Z</time>
      </trkpt>
      <trkpt lat="48.98791" lon="7.8552">
        <ele>305.2</ele>
        <time>2024-08-25T13:05:22Z</time>
      </trkpt>
      <trkpt lat="48.98785" lon="7.85527">
        <ele>303.6</ele>
        <time>2024-08-25T13:05:23Z</time>
      </trkpt>
      <trkpt lat="48.98779" lon="7.85536">
        <ele>303</ele>
        <time>2024-08-25T13:05:24Z</time>
      </trkpt>
      <trkpt lat="48.98772" lon="7.85544">
        <ele>301.8</ele>
        <time>2024-08-25T13:05:25Z</time>
      </trkpt>
      <trkpt lat="48.98765" lon="7.85552">
        <ele>300.8</ele>
        <time>2024-08-25T13:05:26Z</time>
      </trkpt>
      <trkpt lat="48.98759" lon="7.85562">
        <ele>299.8</ele>
        <time>2024-08-25T13:05:27Z</time>
      </trkpt>
      <trkpt lat="48.98752" lon="7.85571">
        <ele>298</ele>
        <time>2024-08-25T13:05:28Z</time>
      </trkpt>
      <trkpt lat="48.98746" lon="7.8558">
        <ele>297.4</ele>
        <time>2024-08-25T13:05:29Z</time>
      </trkpt>
      <trkpt lat="48.98739" lon="7.8559">
        <ele>296.4</ele>
        <time>2024-08-25T13:05:30Z</time>
      </trkpt>
      <trkpt lat="48.98733" lon="7.85599">
        <ele>295.2</ele>
        <time>2024-08-25T13:05:31Z</time>
      </trkpt>
      <trkpt lat="48.98726" lon="7.8561">
        <ele>294</ele>
        <time>2024-08-25T13:05:32Z</time>
      </trkpt>
      <trkpt lat="48.9872" lon="7.8562">
        <ele>292.6</ele>
        <time>2024-08-25T13:05:33Z</time>
      </trkpt>
      <trkpt lat="48.98713" lon="7.8563">
        <ele>291.2</ele>
        <time>2024-08-25T13:05:34Z</time>
      </trkpt>
      <trkpt lat="48.98708" lon="7.85639">
        <ele>290</ele>
        <time>2024-08-25T13:05:35Z</time>
      </trkpt>
      <trkpt lat="48.98703" lon="7.85646">
        <ele>288.8</ele>
        <time>2024-08-25T13:05:36Z</time>
      </trkpt>
      <trkpt lat="48.98699" lon="7.85653">
        <ele>287.6</ele>
        <time>2024-08-25T13:05:37Z</time>
      </trkpt>
      <trkpt lat="48.98696" lon="7.85657">
        <ele>286.6</ele>
        <time>2024-08-25T13:05:38Z</time>
      </trkpt>
      <trkpt lat="48.98693" lon="7.85663">
        <ele>286</ele>
        <time>2024-08-25T13:05:39Z</time>
      </trkpt>
      <trkpt lat="48.98691" lon="7.85671">
        <ele>285.6</ele>
        <time>2024-08-25T13:05:40Z</time>
      </trkpt>
      <trkpt lat="48.98692" lon="7.85679">
        <ele>285</ele>
        <time>2024-08-25T13:05:41Z</time>
      </trkpt>
      <trkpt lat="48.98695" lon="7.85685">
        <ele>284.8</ele>
        <time>2024-08-25T13:05:42Z</time>
      </trkpt>
      <trkpt lat="48.98697" lon="7.85692">
        <ele>284.4</ele>
        <time>2024-08-25T13:05:43Z</time>
      </trkpt>
      <trkpt lat="48.987" lon="7.85697">
        <ele>284</ele>
        <time>2024-08-25T13:05:44Z</time>
      </trkpt>
      <trkpt lat="48.98702" lon="7.85703">
        <ele>283.4</ele>
        <time>2024-08-25T13:05:45Z</time>
      </trkpt>
      <trkpt lat="48.98705" lon="7.85709">
        <ele>283.2</ele>
        <time>2024-08-25T13:05:46Z</time>
      </trkpt>
      <trkpt lat="48.98707" lon="7.85715">
        <ele>283</ele>
        <time>2024-08-25T13:05:47Z</time>
      </trkpt>
      <trkpt lat="48.98709" lon="7.85722">
        <ele>283</ele>
        <time>2024-08-25T13:05:48Z</time>
      </trkpt>
      <trkpt lat="48.98711" lon="7.85728">
        <ele>283</ele>
        <time>2024-08-25T13:05:49Z</time>
      </trkpt>
      <trkpt lat="48.98714" lon="7.85735">
        <ele>282.8</ele>
        <time>2024-08-25T13:05:50Z</time>
      </trkpt>
      <trkpt lat="48.98717" lon="7.85742">
        <ele>282.8</ele>
        <time>2024-08-25T13:05:51Z</time>
      </trkpt>
      <trkpt lat="48.98719" lon="7.85748">
        <ele>282.8</ele>
        <time>2024-08-25T13:05:52Z</time>
      </trkpt>
      <trkpt lat="48.98722" lon="7.85755">
        <ele>282.8</ele>
        <time>2024-08-25T13:05:53Z</time>
      </trkpt>
      <trkpt lat="48.98725" lon="7.85763">
        <ele>282.6</ele>
        <time>2024-08-25T13:05:54Z</time>
      </trkpt>
      <trkpt lat="48.98727" lon="7.8577">
        <ele>282.4</ele>
        <time>2024-08-25T13:05:55Z</time>
      </trkpt>
      <trkpt lat="48.9873" lon="7.85778">
        <ele>282.2</ele>
        <time>2024-08-25T13:05:56Z</time>
      </trkpt>
      <trkpt lat="48.98733" lon="7.85786">
        <ele>281.8</ele>
        <time>2024-08-25T13:05:57Z</time>
      </trkpt>
      <trkpt lat="48.98736" lon="7.85795">
        <ele>281.6</ele>
        <time>2024-08-25T13:05:58Z</time>
      </trkpt>
      <trkpt lat="48.98739" lon="7.85803">
        <ele>281.4</ele>
        <time>2024-08-25T13:05:59Z</time>
      </trkpt>
      <trkpt lat="48.98742" lon="7.85813">
        <ele>281.2</ele>
        <time>2024-08-25T13:06:00Z</time>
      </trkpt>
      <trkpt lat="48.98746" lon="7.85822">
        <ele>280.8</ele>
        <time>2024-08-25T13:06:01Z</time>
      </trkpt>
      <trkpt lat="48.98749" lon="7.85832">
        <ele>280.4</ele>
        <time>2024-08-25T13:06:02Z</time>
      </trkpt>
      <trkpt lat="48.98753" lon="7.85842">
        <ele>280</ele>
        <time>2024-08-25T13:06:03Z</time>
      </trkpt>
      <trkpt lat="48.98756" lon="7.85852">
        <ele>279.6</ele>
        <time>2024-08-25T13:06:04Z</time>
      </trkpt>
      <trkpt lat="48.9876" lon="7.85863">
        <ele>279</ele>
        <time>2024-08-25T13:06:05Z</time>
      </trkpt>
      <trkpt lat="48.98763" lon="7.85873">
        <ele>278.6</ele>
        <time>2024-08-25T13:06:06Z</time>
      </trkpt>
      <trkpt lat="48.98766" lon="7.85881">
        <ele>278</ele>
        <time>2024-08-25T13:06:07Z</time>
      </trkpt>
      <trkpt lat="48.98769" lon="7.85887">
        <ele>277.6</ele>
        <time>2024-08-25T13:06:08Z</time>
      </trkpt>
      <trkpt lat="48.98771" lon="7.85893">
        <ele>277.2</ele>
        <time>2024-08-25T13:06:09Z</time>
      </trkpt>
      <trkpt lat="48.98769" lon="7.85898">
        <ele>277</ele>
        <time>2024-08-25T13:06:10Z</time>
      </trkpt>
      <trkpt lat="48.98766" lon="7.85901">
        <ele>276.8</ele>
        <time>2024-08-25T13:06:11Z</time>
      </trkpt>
      <trkpt lat="48.98763" lon="7.85904">
        <ele>276.8</ele>
        <time>2024-08-25T13:06:12Z</time>
      </trkpt>
      <trkpt lat="48.98759" lon="7.85906">
        <ele>276.8</ele>
        <time>2024-08-25T13:06:13Z</time>
      </trkpt>
      <trkpt lat="48.98754" lon="7.8591">
        <ele>276.6</ele>
        <time>2024-08-25T13:06:14Z</time>
      </trkpt>
      <trkpt lat="48.9875" lon="7.85914">
        <ele>276.4</ele>
        <time>2024-08-25T13:06:15Z</time>
      </trkpt>
      <trkpt lat="48.98746" lon="7.85918">
        <ele>276</ele>
        <time>2024-08-25T13:06:16Z</time>
      </trkpt>
      <trkpt lat="48.98741" lon="7.85922">
        <ele>275.4</ele>
        <time>2024-08-25T13:06:17Z</time>
      </trkpt>
      <trkpt lat="48.98736" lon="7.85927">
        <ele>274.8</ele>
        <time>2024-08-25T13:06:18Z</time>
      </trkpt>
      <trkpt lat="48.98731" lon="7.85931">
        <ele>274.4</ele>
        <time>2024-08-25T13:06:19Z</time>
      </trkpt>
      <trkpt lat="48.98726" lon="7.85935">
        <ele>274</ele>
        <time>2024-08-25T13:06:20Z</time>
      </trkpt>
      <trkpt lat="48.9872" lon="7.8594">
        <ele>273.4</ele>
        <time>2024-08-25T13:06:21Z</time>
      </trkpt>
      <trkpt lat="48.98714" lon="7.85946">
        <ele>273.2</ele>
        <time>2024-08-25T13:06:22Z</time>
      </trkpt>
      <trkpt lat="48.98708" lon="7.85951">
        <ele>272.6</ele>
        <time>2024-08-25T13:06:23Z</time>
      </trkpt>
      <trkpt lat="48.98702" lon="7.85957">
        <ele>272.2</ele>
        <time>2024-08-25T13:06:24Z</time>
      </trkpt>
      <trkpt lat="48.98696" lon="7.85962">
        <ele>271.8</ele>
        <time>2024-08-25T13:06:25Z</time>
      </trkpt>
      <trkpt lat="48.98691" lon="7.85967">
        <ele>271.2</ele>
        <time>2024-08-25T13:06:26Z</time>
      </trkpt>
      <trkpt lat="48.98685" lon="7.85973">
        <ele>270.8</ele>
        <time>2024-08-25T13:06:27Z</time>
      </trkpt>
      <trkpt lat="48.98679" lon="7.85978">
        <ele>270.6</ele>
        <time>2024-08-25T13:06:28Z</time>
      </trkpt>
      <trkpt lat="48.98674" lon="7.85983">
        <ele>270.4</ele>
        <time>2024-08-25T13:06:29Z</time>
      </trkpt>
      <trkpt lat="48.98669" lon="7.85987">
        <ele>270.2</ele>
        <time>2024-08-25T13:06:30Z</time>
      </trkpt>
      <trkpt lat="48.98664" lon="7.85992">
        <ele>270</ele>
        <time>2024-08-25T13:06:31Z</time>
      </trkpt>
      <trkpt lat="48.98658" lon="7.85997">
        <ele>269.8</ele>
        <time>2024-08-25T13:06:32Z</time>
      </trkpt>
      <trkpt lat="48.98652" lon="7.86001">
        <ele>269.8</ele>
        <time>2024-08-25T13:06:33Z</time>
      </trkpt>
      <trkpt lat="48.98647" lon="7.86006">
        <ele>269.6</ele>
        <time>2024-08-25T13:06:34Z</time>
      </trkpt>
      <trkpt lat="48.98641" lon="7.8601">
        <ele>269.2</ele>
        <time>2024-08-25T13:06:35Z</time>
      </trkpt>
      <trkpt lat="48.98636" lon="7.86015">
        <ele>269</ele>
        <time>2024-08-25T13:06:36Z</time>
      </trkpt>
      <trkpt lat="48.9863" lon="7.86019">
        <ele>268.6</ele>
        <time>2024-08-25T13:06:37Z</time>
      </trkpt>
      <trkpt lat="48.98624" lon="7.86023">
        <ele>268.6</ele>
        <time>2024-08-25T13:06:38Z</time>
      </trkpt>
      <trkpt lat="48.98619" lon="7.86027">
        <ele>268.6</ele>
        <time>2024-08-25T13:06:39Z</time>
      </trkpt>
      <trkpt lat="48.98613" lon="7.86032">
        <ele>268.6</ele>
        <time>2024-08-25T13:06:40Z</time>
      </trkpt>
      <trkpt lat="48.98608" lon="7.86036">
        <ele>268.4</ele>
        <time>2024-08-25T13:06:41Z</time>
      </trkpt>
      <trkpt lat="48.98602" lon="7.86041">
        <ele>268.4</ele>
        <time>2024-08-25T13:06:42Z</time>
      </trkpt>
      <trkpt lat="48.98597" lon="7.86045">
        <ele>268.4</ele>
        <time>2024-08-25T13:06:43Z</time>
      </trkpt>
      <trkpt lat="48.98591" lon="7.86049">
        <ele>268.4</ele>
        <time>2024-08-25T13:06:44Z</time>
      </trkpt>
      <trkpt lat="48.98586" lon="7.86054">
        <ele>268.4</ele>
        <time>2024-08-25T13:06:45Z</time>
      </trkpt>
      <trkpt lat="48.98582" lon="7.86061">
        <ele>268.4</ele>
        <time>2024-08-25T13:06:46Z</time>
      </trkpt>
      <trkpt lat="48.98581" lon="7.86069">
        <ele>268.4</ele>
        <time>2024-08-25T13:06:47Z</time>
      </trkpt>
      <trkpt lat="48.98582" lon="7.86077">
        <ele>268.4</ele>
        <time>2024-08-25T13:06:48Z</time>
      </trkpt>
      <trkpt lat="48.98583" lon="7.86085">
        <ele>268.2</ele>
        <time>2024-08-25T13:06:49Z</time>
      </trkpt>
      <trkpt lat="48.98584" lon="7.86094">
        <ele>268.2</ele>
        <time>2024-08-25T13:06:50Z</time>
      </trkpt>
      <trkpt lat="48.98585" lon="7.86102">
        <ele>268.2</ele>
        <time>2024-08-25T13:06:51Z</time>
      </trkpt>
      <trkpt lat="48.98585" lon="7.86111">
        <ele>268.2</ele>
        <time>2024-08-25T13:06:52Z</time>
      </trkpt>
      <trkpt lat="48.98586" lon="7.86121">
        <ele>268</ele>
        <time>2024-08-25T13:06:53Z</time>
      </trkpt>
      <trkpt lat="48.98588" lon="7.8613">
        <ele>268</ele>
        <time>2024-08-25T13:06:54Z</time>
      </trkpt>
      <trkpt lat="48.98589" lon="7.8614">
        <ele>267.8</ele>
        <time>2024-08-25T13:06:55Z</time>
      </trkpt>
      <trkpt lat="48.9859" lon="7.86149">
        <ele>267.6</ele>
        <time>2024-08-25T13:06:56Z</time>
      </trkpt>
      <trkpt lat="48.98592" lon="7.86159">
        <ele>267.4</ele>
        <time>2024-08-25T13:06:57Z</time>
      </trkpt>
      <trkpt lat="48.98593" lon="7.86169">
        <ele>267.2</ele>
        <time>2024-08-25T13:06:58Z</time>
      </trkpt>
      <trkpt lat="48.98595" lon="7.86179">
        <ele>266.8</ele>
        <time>2024-08-25T13:06:59Z</time>
      </trkpt>
      <trkpt lat="48.98596" lon="7.86188">
        <ele>266.6</ele>
        <time>2024-08-25T13:07:00Z</time>
      </trkpt>
      <trkpt lat="48.98598" lon="7.86198">
        <ele>266.2</ele>
        <time>2024-08-25T13:07:01Z</time>
      </trkpt>
      <trkpt lat="48.986" lon="7.86208">
        <ele>266</ele>
        <time>2024-08-25T13:07:02Z</time>
      </trkpt>
      <trkpt lat="48.98602" lon="7.86218">
        <ele>265.8</ele>
        <time>2024-08-25T13:07:03Z</time>
      </trkpt>
      <trkpt lat="48.98603" lon="7.86228">
        <ele>265.6</ele>
        <time>2024-08-25T13:07:04Z</time>
      </trkpt>
      <trkpt lat="48.98605" lon="7.86238">
        <ele>265.4</ele>
        <time>2024-08-25T13:07:05Z</time>
      </trkpt>
      <trkpt lat="48.98607" lon="7.86248">
        <ele>265.2</ele>
        <time>2024-08-25T13:07:06Z</time>
      </trkpt>
      <trkpt lat="48.98609" lon="7.86258">
        <ele>264.8</ele>
        <time>2024-08-25T13:07:07Z</time>
      </trkpt>
      <trkpt lat="48.98611" lon="7.86268">
        <ele>264.6</ele>
        <time>2024-08-25T13:07:08Z</time>
      </trkpt>
      <trkpt lat="48.98613" lon="7.86278">
        <ele>264.4</ele>
        <time>2024-08-25T13:07:09Z</time>
      </trkpt>
      <trkpt lat="48.98615" lon="7.86287">
        <ele>264.2</ele>
        <time>2024-08-25T13:07:10Z</time>
      </trkpt>
      <trkpt lat="48.98617" lon="7.86296">
        <ele>264.2</ele>
        <time>2024-08-25T13:07:11Z</time>
      </trkpt>
      <trkpt lat="48.98617" lon="7.86304">
        <ele>263.8</ele>
        <time>2024-08-25T13:07:12Z</time>
      </trkpt>
      <trkpt lat="48.98615" lon="7.8631">
        <ele>263.8</ele>
        <time>2024-08-25T13:07:13Z</time>
      </trkpt>
      <trkpt lat="48.98611" lon="7.86313">
        <ele>263.8</ele>
        <time>2024-08-25T13:07:14Z</time>
      </trkpt>
      <trkpt lat="48.98608" lon="7.86313">
        <ele>263.8</ele>
        <time>2024-08-25T13:07:15Z</time>
      </trkpt>
      <trkpt lat="48.98604" lon="7.86312">
        <ele>263.8</ele>
        <time>2024-08-25T13:07:16Z</time>
      </trkpt>
      <trkpt lat="48.986" lon="7.8631">
        <ele>263.8</ele>
        <time>2024-08-25T13:07:17Z</time>
      </trkpt>
      <trkpt lat="48.98597" lon="7.86309">
        <ele>264</ele>
        <time>2024-08-25T13:07:18Z</time>
      </trkpt>
      <trkpt lat="48.98592" lon="7.86308">
        <ele>264.2</ele>
        <time>2024-08-25T13:07:19Z</time>
      </trkpt>
      <trkpt lat="48.98588" lon="7.86308">
        <ele>264.4</ele>
        <time>2024-08-25T13:07:20Z</time>
      </trkpt>
      <trkpt lat="48.98584" lon="7.86308">
        <ele>265</ele>
        <time>2024-08-25T13:07:21Z</time>
      </trkpt>
      <trkpt lat="48.9858" lon="7.86308">
        <ele>265</ele>
        <time>2024-08-25T13:07:22Z</time>
      </trkpt>
      <trkpt lat="48.98576" lon="7.86309">
        <ele>265.6</ele>
        <time>2024-08-25T13:07:23Z</time>
      </trkpt>
      <trkpt lat="48.98572" lon="7.86312">
        <ele>265.8</ele>
        <time>2024-08-25T13:07:24Z</time>
      </trkpt>
      <trkpt lat="48.98568" lon="7.86315">
        <ele>266</ele>
        <time>2024-08-25T13:07:25Z</time>
      </trkpt>
      <trkpt lat="48.98564" lon="7.86317">
        <ele>266.2</ele>
        <time>2024-08-25T13:07:26Z</time>
      </trkpt>
      <trkpt lat="48.98561" lon="7.86321">
        <ele>266.4</ele>
        <time>2024-08-25T13:07:27Z</time>
      </trkpt>
      <trkpt lat="48.98558" lon="7.86325">
        <ele>266.6</ele>
        <time>2024-08-25T13:07:28Z</time>
      </trkpt>
      <trkpt lat="48.98555" lon="7.8633">
        <ele>266.8</ele>
        <time>2024-08-25T13:07:29Z</time>
      </trkpt>
      <trkpt lat="48.98553" lon="7.86335">
        <ele>267</ele>
        <time>2024-08-25T13:07:30Z</time>
      </trkpt>
      <trkpt lat="48.9855" lon="7.86341">
        <ele>267</ele>
        <time>2024-08-25T13:07:31Z</time>
      </trkpt>
      <trkpt lat="48.98548" lon="7.86347">
        <ele>267.4</ele>
        <time>2024-08-25T13:07:32Z</time>
      </trkpt>
      <trkpt lat="48.98545" lon="7.86353">
        <ele>267.6</ele>
        <time>2024-08-25T13:07:33Z</time>
      </trkpt>
      <trkpt lat="48.98543" lon="7.86359">
        <ele>267.6</ele>
        <time>2024-08-25T13:07:34Z</time>
      </trkpt>
      <trkpt lat="48.9854" lon="7.86366">
        <ele>267.6</ele>
        <time>2024-08-25T13:07:35Z</time>
      </trkpt>
      <trkpt lat="48.98537" lon="7.86372">
        <ele>267.6</ele>
        <time>2024-08-25T13:07:36Z</time>
      </trkpt>
      <trkpt lat="48.98535" lon="7.86378">
        <ele>267.6</ele>
        <time>2024-08-25T13:07:37Z</time>
      </trkpt>
      <trkpt lat="48.98532" lon="7.86385">
        <ele>267.6</ele>
        <time>2024-08-25T13:07:38Z</time>
      </trkpt>
      <trkpt lat="48.9853" lon="7.86391">
        <ele>267.6</ele>
        <time>2024-08-25T13:07:39Z</time>
      </trkpt>
      <trkpt lat="48.98527" lon="7.86398">
        <ele>267.6</ele>
        <time>2024-08-25T13:07:40Z</time>
      </trkpt>
      <trkpt lat="48.98524" lon="7.86405">
        <ele>267.6</ele>
        <time>2024-08-25T13:07:41Z</time>
      </trkpt>
      <trkpt lat="48.98522" lon="7.86412">
        <ele>267.6</ele>
        <time>2024-08-25T13:07:42Z</time>
      </trkpt>
      <trkpt lat="48.98519" lon="7.86418">
        <ele>267.6</ele>
        <time>2024-08-25T13:07:43Z</time>
      </trkpt>
      <trkpt lat="48.98514" lon="7.86423">
        <ele>267.6</ele>
        <time>2024-08-25T13:07:44Z</time>
      </trkpt>
      <trkpt lat="48.9851" lon="7.86427">
        <ele>267.6</ele>
        <time>2024-08-25T13:07:45Z</time>
      </trkpt>
      <trkpt lat="48.98506" lon="7.8643">
        <ele>267.6</ele>
        <time>2024-08-25T13:07:46Z</time>
      </trkpt>
      <trkpt lat="48.98501" lon="7.86433">
        <ele>267.6</ele>
        <time>2024-08-25T13:07:47Z</time>
      </trkpt>
      <trkpt lat="48.98496" lon="7.86434">
        <ele>267.6</ele>
        <time>2024-08-25T13:07:48Z</time>
      </trkpt>
      <trkpt lat="48.98491" lon="7.86434">
        <ele>267.6</ele>
        <time>2024-08-25T13:07:49Z</time>
      </trkpt>
      <trkpt lat="48.98486" lon="7.86432">
        <ele>267.6</ele>
        <time>2024-08-25T13:07:50Z</time>
      </trkpt>
      <trkpt lat="48.98482" lon="7.8643">
        <ele>267.8</ele>
        <time>2024-08-25T13:07:51Z</time>
      </trkpt>
      <trkpt lat="48.98477" lon="7.86428">
        <ele>267.8</ele>
        <time>2024-08-25T13:07:52Z</time>
      </trkpt>
      <trkpt lat="48.98473" lon="7.86424">
        <ele>267.8</ele>
        <time>2024-08-25T13:07:53Z</time>
      </trkpt>
      <trkpt lat="48.98469" lon="7.8642">
        <ele>267.8</ele>
        <time>2024-08-25T13:07:54Z</time>
      </trkpt>
      <trkpt lat="48.98466" lon="7.86415">
        <ele>268</ele>
        <time>2024-08-25T13:07:55Z</time>
      </trkpt>
      <trkpt lat="48.98463" lon="7.86411">
        <ele>268</ele>
        <time>2024-08-25T13:07:56Z</time>
      </trkpt>
      <trkpt lat="48.98461" lon="7.86407">
        <ele>268</ele>
        <time>2024-08-25T13:07:57Z</time>
      </trkpt>
      <trkpt lat="48.98459" lon="7.86403">
        <ele>268</ele>
        <time>2024-08-25T13:07:58Z</time>
      </trkpt>
      <trkpt lat="48.98456" lon="7.86399">
        <ele>268</ele>
        <time>2024-08-25T13:07:59Z</time>
      </trkpt>
      <trkpt lat="48.98453" lon="7.86397">
        <ele>268</ele>
        <time>2024-08-25T13:08:00Z</time>
      </trkpt>
      <trkpt lat="48.98452" lon="7.864">
        <ele>268</ele>
        <time>2024-08-25T13:08:01Z</time>
      </trkpt>
      <trkpt lat="48.98453" lon="7.86402">
        <ele>268.2</ele>
        <time>2024-08-25T13:08:02Z</time>
      </trkpt>
      <trkpt lat="48.98455" lon="7.86404">
        <ele>268.2</ele>
        <time>2024-08-25T13:08:03Z</time>
      </trkpt>
      <trkpt lat="48.98457" lon="7.86407">
        <ele>268.2</ele>
        <time>2024-08-25T13:08:04Z</time>
      </trkpt>
      <trkpt lat="48.98459" lon="7.8641">
        <ele>268.4</ele>
        <time>2024-08-25T13:08:05Z</time>
      </trkpt>
      <trkpt lat="48.98461" lon="7.86414">
        <ele>268.4</ele>
        <time>2024-08-25T13:08:06Z</time>
      </trkpt>
      <trkpt lat="48.98465" lon="7.86418">
        <ele>268.6</ele>
        <time>2024-08-25T13:08:07Z</time>
      </trkpt>
      <trkpt lat="48.98468" lon="7.86422">
        <ele>268.6</ele>
        <time>2024-08-25T13:08:08Z</time>
      </trkpt>
      <trkpt lat="48.9847" lon="7.86425">
        <ele>268.6</ele>
        <time>2024-08-25T13:08:09Z</time>
      </trkpt>
      <trkpt lat="48.98474" lon="7.86429">
        <ele>268.6</ele>
        <time>2024-08-25T13:08:10Z</time>
      </trkpt>
      <trkpt lat="48.98477" lon="7.86431">
        <ele>268.6</ele>
        <time>2024-08-25T13:08:11Z</time>
      </trkpt>
      <trkpt lat="48.9848" lon="7.86434">
        <ele>268.6</ele>
        <time>2024-08-25T13:08:12Z</time>
      </trkpt>
      <trkpt lat="48.98484" lon="7.86436">
        <ele>268.6</ele>
        <time>2024-08-25T13:08:13Z</time>
      </trkpt>
      <trkpt lat="48.98489" lon="7.86438">
        <ele>268.6</ele>
        <time>2024-08-25T13:08:14Z</time>
      </trkpt>
      <trkpt lat="48.98493" lon="7.86438">
        <ele>268.4</ele>
        <time>2024-08-25T13:08:15Z</time>
      </trkpt>
      <trkpt lat="48.98497" lon="7.86438">
        <ele>268.4</ele>
        <time>2024-08-25T13:08:16Z</time>
      </trkpt>
      <trkpt lat="48.98502" lon="7.86436">
        <ele>268.4</ele>
        <time>2024-08-25T13:08:17Z</time>
      </trkpt>
      <trkpt lat="48.98506" lon="7.86434">
        <ele>268.4</ele>
        <time>2024-08-25T13:08:18Z</time>
      </trkpt>
      <trkpt lat="48.98509" lon="7.86431">
        <ele>268.2</ele>
        <time>2024-08-25T13:08:19Z</time>
      </trkpt>
      <trkpt lat="48.98513" lon="7.86429">
        <ele>268.2</ele>
        <time>2024-08-25T13:08:20Z</time>
      </trkpt>
      <trkpt lat="48.98515" lon="7.86432">
        <ele>268</ele>
        <time>2024-08-25T13:08:21Z</time>
      </trkpt>
      <trkpt lat="48.98516" lon="7.86436">
        <ele>268</ele>
        <time>2024-08-25T13:08:22Z</time>
      </trkpt>
      <trkpt lat="48.98514" lon="7.86441">
        <ele>268</ele>
        <time>2024-08-25T13:08:23Z</time>
      </trkpt>
      <trkpt lat="48.98512" lon="7.86445">
        <ele>267.8</ele>
        <time>2024-08-25T13:08:24Z</time>
      </trkpt>
      <trkpt lat="48.98509" lon="7.8645">
        <ele>267.8</ele>
        <time>2024-08-25T13:08:25Z</time>
      </trkpt>
      <trkpt lat="48.98507" lon="7.86455">
        <ele>267.8</ele>
        <time>2024-08-25T13:08:26Z</time>
      </trkpt>
      <trkpt lat="48.98505" lon="7.86459">
        <ele>267.8</ele>
        <time>2024-08-25T13:08:27Z</time>
      </trkpt>
      <trkpt lat="48.98503" lon="7.86464">
        <ele>267.6</ele>
        <time>2024-08-25T13:08:28Z</time>
      </trkpt>
      <trkpt lat="48.98501" lon="7.8647">
        <ele>267.6</ele>
        <time>2024-08-25T13:08:29Z</time>
      </trkpt>
      <trkpt lat="48.98498" lon="7.86475">
        <ele>267.6</ele>
        <time>2024-08-25T13:08:30Z</time>
      </trkpt>
      <trkpt lat="48.98495" lon="7.86479">
        <ele>267.6</ele>
        <time>2024-08-25T13:08:31Z</time>
      </trkpt>
      <trkpt lat="48.98493" lon="7.86485">
        <ele>267.6</ele>
        <time>2024-08-25T13:08:32Z</time>
      </trkpt>
      <trkpt lat="48.98491" lon="7.8649">
        <ele>267.6</ele>
        <time>2024-08-25T13:08:33Z</time>
      </trkpt>
      <trkpt lat="48.98488" lon="7.86497">
        <ele>267.6</ele>
        <time>2024-08-25T13:08:34Z</time>
      </trkpt>
      <trkpt lat="48.98486" lon="7.86503">
        <ele>267.6</ele>
        <time>2024-08-25T13:08:35Z</time>
      </trkpt>
      <trkpt lat="48.98483" lon="7.86509">
        <ele>267.6</ele>
        <time>2024-08-25T13:08:36Z</time>
      </trkpt>
      <trkpt lat="48.98482" lon="7.86515">
        <ele>267.8</ele>
        <time>2024-08-25T13:08:37Z</time>
      </trkpt>
      <trkpt lat="48.9848" lon="7.86522">
        <ele>267.8</ele>
        <time>2024-08-25T13:08:38Z</time>
      </trkpt>
      <trkpt lat="48.98479" lon="7.86528">
        <ele>267.8</ele>
        <time>2024-08-25T13:08:39Z</time>
      </trkpt>
      <trkpt lat="48.98478" lon="7.86535">
        <ele>267.8</ele>
        <time>2024-08-25T13:08:40Z</time>
      </trkpt>
      <trkpt lat="48.98477" lon="7.86541">
        <ele>267.8</ele>
        <time>2024-08-25T13:08:41Z</time>
      </trkpt>
      <trkpt lat="48.98477" lon="7.86547">
        <ele>267.8</ele>
        <time>2024-08-25T13:08:42Z</time>
      </trkpt>
      <trkpt lat="48.98477" lon="7.86554">
        <ele>267.8</ele>
        <time>2024-08-25T13:08:43Z</time>
      </trkpt>
      <trkpt lat="48.98477" lon="7.86562">
        <ele>267.8</ele>
        <time>2024-08-25T13:08:44Z</time>
      </trkpt>
      <trkpt lat="48.98476" lon="7.86569">
        <ele>267.8</ele>
        <time>2024-08-25T13:08:45Z</time>
      </trkpt>
      <trkpt lat="48.98476" lon="7.86577">
        <ele>267.8</ele>
        <time>2024-08-25T13:08:46Z</time>
      </trkpt>
      <trkpt lat="48.98475" lon="7.86585">
        <ele>267.6</ele>
        <time>2024-08-25T13:08:47Z</time>
      </trkpt>
      <trkpt lat="48.98475" lon="7.86594">
        <ele>267.6</ele>
        <time>2024-08-25T13:08:48Z</time>
      </trkpt>
      <trkpt lat="48.98474" lon="7.86602">
        <ele>267.4</ele>
        <time>2024-08-25T13:08:49Z</time>
      </trkpt>
      <trkpt lat="48.98472" lon="7.8661">
        <ele>267.2</ele>
        <time>2024-08-25T13:08:50Z</time>
      </trkpt>
      <trkpt lat="48.98469" lon="7.86618">
        <ele>267.2</ele>
        <time>2024-08-25T13:08:51Z</time>
      </trkpt>
      <trkpt lat="48.98467" lon="7.86626">
        <ele>267</ele>
        <time>2024-08-25T13:08:52Z</time>
      </trkpt>
      <trkpt lat="48.98464" lon="7.86634">
        <ele>267</ele>
        <time>2024-08-25T13:08:53Z</time>
      </trkpt>
      <trkpt lat="48.98462" lon="7.86643">
        <ele>266.8</ele>
        <time>2024-08-25T13:08:54Z</time>
      </trkpt>
      <trkpt lat="48.9846" lon="7.86651">
        <ele>266.8</ele>
        <time>2024-08-25T13:08:55Z</time>
      </trkpt>
      <trkpt lat="48.98458" lon="7.86659">
        <ele>266.4</ele>
        <time>2024-08-25T13:08:56Z</time>
      </trkpt>
      <trkpt lat="48.98455" lon="7.86668">
        <ele>266.4</ele>
        <time>2024-08-25T13:08:57Z</time>
      </trkpt>
      <trkpt lat="48.98452" lon="7.86676">
        <ele>266.2</ele>
        <time>2024-08-25T13:08:58Z</time>
      </trkpt>
      <trkpt lat="48.98449" lon="7.86684">
        <ele>266</ele>
        <time>2024-08-25T13:08:59Z</time>
      </trkpt>
      <trkpt lat="48.98447" lon="7.86692">
        <ele>265.8</ele>
        <time>2024-08-25T13:09:00Z</time>
      </trkpt>
      <trkpt lat="48.98444" lon="7.86701">
        <ele>265.8</ele>
        <time>2024-08-25T13:09:01Z</time>
      </trkpt>
      <trkpt lat="48.9844" lon="7.86709">
        <ele>265.8</ele>
        <time>2024-08-25T13:09:02Z</time>
      </trkpt>
      <trkpt lat="48.98437" lon="7.86717">
        <ele>265.6</ele>
        <time>2024-08-25T13:09:03Z</time>
      </trkpt>
      <trkpt lat="48.98432" lon="7.86724">
        <ele>265.4</ele>
        <time>2024-08-25T13:09:04Z</time>
      </trkpt>
      <trkpt lat="48.98428" lon="7.8673">
        <ele>265.2</ele>
        <time>2024-08-25T13:09:05Z</time>
      </trkpt>
      <trkpt lat="48.98423" lon="7.86736">
        <ele>265</ele>
        <time>2024-08-25T13:09:06Z</time>
      </trkpt>
      <trkpt lat="48.98417" lon="7.86742">
        <ele>264.8</ele>
        <time>2024-08-25T13:09:07Z</time>
      </trkpt>
      <trkpt lat="48.98412" lon="7.86748">
        <ele>264.6</ele>
        <time>2024-08-25T13:09:08Z</time>
      </trkpt>
      <trkpt lat="48.98407" lon="7.86754">
        <ele>264.4</ele>
        <time>2024-08-25T13:09:09Z</time>
      </trkpt>
      <trkpt lat="48.98403" lon="7.8676">
        <ele>263.8</ele>
        <time>2024-08-25T13:09:10Z</time>
      </trkpt>
      <trkpt lat="48.98398" lon="7.86766">
        <ele>263.8</ele>
        <time>2024-08-25T13:09:11Z</time>
      </trkpt>
      <trkpt lat="48.98393" lon="7.86772">
        <ele>263.4</ele>
        <time>2024-08-25T13:09:12Z</time>
      </trkpt>
      <trkpt lat="48.98388" lon="7.86778">
        <ele>263</ele>
        <time>2024-08-25T13:09:13Z</time>
      </trkpt>
      <trkpt lat="48.98382" lon="7.86785">
        <ele>263</ele>
        <time>2024-08-25T13:09:14Z</time>
      </trkpt>
      <trkpt lat="48.98377" lon="7.86791">
        <ele>262.6</ele>
        <time>2024-08-25T13:09:15Z</time>
      </trkpt>
      <trkpt lat="48.98372" lon="7.86798">
        <ele>262.2</ele>
        <time>2024-08-25T13:09:16Z</time>
      </trkpt>
      <trkpt lat="48.98367" lon="7.86804">
        <ele>261.8</ele>
        <time>2024-08-25T13:09:17Z</time>
      </trkpt>
      <trkpt lat="48.98362" lon="7.86811">
        <ele>261</ele>
        <time>2024-08-25T13:09:18Z</time>
      </trkpt>
      <trkpt lat="48.98356" lon="7.86817">
        <ele>260.8</ele>
        <time>2024-08-25T13:09:19Z</time>
      </trkpt>
      <trkpt lat="48.98351" lon="7.86823">
        <ele>260.4</ele>
        <time>2024-08-25T13:09:20Z</time>
      </trkpt>
      <trkpt lat="48.98347" lon="7.8683">
        <ele>259.6</ele>
        <time>2024-08-25T13:09:21Z</time>
      </trkpt>
      <trkpt lat="48.98342" lon="7.86836">
        <ele>259.2</ele>
        <time>2024-08-25T13:09:22Z</time>
      </trkpt>
      <trkpt lat="48.98337" lon="7.86843">
        <ele>259</ele>
        <time>2024-08-25T13:09:23Z</time>
      </trkpt>
      <trkpt lat="48.98331" lon="7.86849">
        <ele>258.4</ele>
        <time>2024-08-25T13:09:24Z</time>
      </trkpt>
      <trkpt lat="48.98326" lon="7.86855">
        <ele>258.2</ele>
        <time>2024-08-25T13:09:25Z</time>
      </trkpt>
      <trkpt lat="48.98321" lon="7.86862">
        <ele>257.2</ele>
        <time>2024-08-25T13:09:26Z</time>
      </trkpt>
      <trkpt lat="48.98315" lon="7.86869">
        <ele>257</ele>
        <time>2024-08-25T13:09:27Z</time>
      </trkpt>
      <trkpt lat="48.9831" lon="7.86875">
        <ele>256.2</ele>
        <time>2024-08-25T13:09:28Z</time>
      </trkpt>
      <trkpt lat="48.98304" lon="7.86882">
        <ele>255.8</ele>
        <time>2024-08-25T13:09:29Z</time>
      </trkpt>
      <trkpt lat="48.98299" lon="7.86889">
        <ele>254.8</ele>
        <time>2024-08-25T13:09:30Z</time>
      </trkpt>
      <trkpt lat="48.98293" lon="7.86896">
        <ele>254.4</ele>
        <time>2024-08-25T13:09:31Z</time>
      </trkpt>
      <trkpt lat="48.98287" lon="7.86903">
        <ele>253.8</ele>
        <time>2024-08-25T13:09:32Z</time>
      </trkpt>
      <trkpt lat="48.98281" lon="7.86911">
        <ele>252.8</ele>
        <time>2024-08-25T13:09:33Z</time>
      </trkpt>
      <trkpt lat="48.98276" lon="7.86918">
        <ele>252.4</ele>
        <time>2024-08-25T13:09:34Z</time>
      </trkpt>
      <trkpt lat="48.9827" lon="7.86925">
        <ele>251.6</ele>
        <time>2024-08-25T13:09:35Z</time>
      </trkpt>
      <trkpt lat="48.98264" lon="7.86933">
        <ele>250.4</ele>
        <time>2024-08-25T13:09:36Z</time>
      </trkpt>
      <trkpt lat="48.98258" lon="7.86941">
        <ele>250.2</ele>
        <time>2024-08-25T13:09:37Z</time>
      </trkpt>
      <trkpt lat="48.98253" lon="7.86948">
        <ele>249.4</ele>
        <time>2024-08-25T13:09:38Z</time>
      </trkpt>
      <trkpt lat="48.98249" lon="7.86955">
        <ele>248.8</ele>
        <time>2024-08-25T13:09:39Z</time>
      </trkpt>
      <trkpt lat="48.98247" lon="7.86962">
        <ele>248.6</ele>
        <time>2024-08-25T13:09:40Z</time>
      </trkpt>
      <trkpt lat="48.98245" lon="7.86967">
        <ele>248</ele>
        <time>2024-08-25T13:09:41Z</time>
      </trkpt>
      <trkpt lat="48.98241" lon="7.8697">
        <ele>247.6</ele>
        <time>2024-08-25T13:09:42Z</time>
      </trkpt>
      <trkpt lat="48.98237" lon="7.86972">
        <ele>247.2</ele>
        <time>2024-08-25T13:09:43Z</time>
      </trkpt>
      <trkpt lat="48.98233" lon="7.86973">
        <ele>247</ele>
        <time>2024-08-25T13:09:44Z</time>
      </trkpt>
      <trkpt lat="48.98229" lon="7.86974">
        <ele>247</ele>
        <time>2024-08-25T13:09:45Z</time>
      </trkpt>
      <trkpt lat="48.98225" lon="7.86975">
        <ele>247</ele>
        <time>2024-08-25T13:09:46Z</time>
      </trkpt>
      <trkpt lat="48.98221" lon="7.86975">
        <ele>247</ele>
        <time>2024-08-25T13:09:47Z</time>
      </trkpt>
      <trkpt lat="48.98217" lon="7.86976">
        <ele>246.8</ele>
        <time>2024-08-25T13:09:48Z</time>
      </trkpt>
      <trkpt lat="48.98213" lon="7.86977">
        <ele>247</ele>
        <time>2024-08-25T13:09:49Z</time>
      </trkpt>
      <trkpt lat="48.98209" lon="7.86977">
        <ele>247.2</ele>
        <time>2024-08-25T13:09:50Z</time>
      </trkpt>
      <trkpt lat="48.98204" lon="7.86977">
        <ele>247.4</ele>
        <time>2024-08-25T13:09:51Z</time>
      </trkpt>
      <trkpt lat="48.98199" lon="7.86976">
        <ele>247.6</ele>
        <time>2024-08-25T13:09:52Z</time>
      </trkpt>
      <trkpt lat="48.98195" lon="7.86975">
        <ele>247.8</ele>
        <time>2024-08-25T13:09:53Z</time>
      </trkpt>
      <trkpt lat="48.9819" lon="7.86974">
        <ele>247.8</ele>
        <time>2024-08-25T13:09:54Z</time>
      </trkpt>
      <trkpt lat="48.98185" lon="7.86972">
        <ele>247.8</ele>
        <time>2024-08-25T13:09:55Z</time>
      </trkpt>
      <trkpt lat="48.98181" lon="7.8697">
        <ele>247.8</ele>
        <time>2024-08-25T13:09:56Z</time>
      </trkpt>
      <trkpt lat="48.98176" lon="7.86969">
        <ele>247.8</ele>
        <time>2024-08-25T13:09:57Z</time>
      </trkpt>
      <trkpt lat="48.98171" lon="7.86967">
        <ele>247.8</ele>
        <time>2024-08-25T13:09:58Z</time>
      </trkpt>
      <trkpt lat="48.98166" lon="7.86965">
        <ele>247.8</ele>
        <time>2024-08-25T13:09:59Z</time>
      </trkpt>
      <trkpt lat="48.98161" lon="7.86964">
        <ele>247.8</ele>
        <time>2024-08-25T13:10:00Z</time>
      </trkpt>
      <trkpt lat="48.98156" lon="7.86962">
        <ele>247.8</ele>
        <time>2024-08-25T13:10:01Z</time>
      </trkpt>
      <trkpt lat="48.98152" lon="7.86961">
        <ele>247.8</ele>
        <time>2024-08-25T13:10:02Z</time>
      </trkpt>
      <trkpt lat="48.98147" lon="7.86959">
        <ele>247.8</ele>
        <time>2024-08-25T13:10:03Z</time>
      </trkpt>
      <trkpt lat="48.98141" lon="7.86957">
        <ele>247.8</ele>
        <time>2024-08-25T13:10:04Z</time>
      </trkpt>
      <trkpt lat="48.98136" lon="7.86955">
        <ele>247.8</ele>
        <time>2024-08-25T13:10:05Z</time>
      </trkpt>
      <trkpt lat="48.98131" lon="7.86952">
        <ele>247.8</ele>
        <time>2024-08-25T13:10:06Z</time>
      </trkpt>
      <trkpt lat="48.98126" lon="7.86951">
        <ele>248</ele>
        <time>2024-08-25T13:10:07Z</time>
      </trkpt>
      <trkpt lat="48.98121" lon="7.86949">
        <ele>248</ele>
        <time>2024-08-25T13:10:08Z</time>
      </trkpt>
      <trkpt lat="48.98116" lon="7.86947">
        <ele>248.2</ele>
        <time>2024-08-25T13:10:09Z</time>
      </trkpt>
      <trkpt lat="48.98111" lon="7.86945">
        <ele>248.2</ele>
        <time>2024-08-25T13:10:10Z</time>
      </trkpt>
      <trkpt lat="48.98107" lon="7.86943">
        <ele>248.2</ele>
        <time>2024-08-25T13:10:11Z</time>
      </trkpt>
      <trkpt lat="48.98102" lon="7.8694">
        <ele>248.6</ele>
        <time>2024-08-25T13:10:12Z</time>
      </trkpt>
      <trkpt lat="48.98098" lon="7.86937">
        <ele>248.8</ele>
        <time>2024-08-25T13:10:13Z</time>
      </trkpt>
      <trkpt lat="48.98093" lon="7.86934">
        <ele>248.8</ele>
        <time>2024-08-25T13:10:14Z</time>
      </trkpt>
      <trkpt lat="48.98089" lon="7.86931">
        <ele>249.2</ele>
        <time>2024-08-25T13:10:15Z</time>
      </trkpt>
      <trkpt lat="48.98084" lon="7.86927">
        <ele>249.2</ele>
        <time>2024-08-25T13:10:16Z</time>
      </trkpt>
      <trkpt lat="48.9808" lon="7.86924">
        <ele>249.2</ele>
        <time>2024-08-25T13:10:17Z</time>
      </trkpt>
      <trkpt lat="48.98075" lon="7.86922">
        <ele>249.4</ele>
        <time>2024-08-25T13:10:18Z</time>
      </trkpt>
      <trkpt lat="48.9807" lon="7.86921">
        <ele>249.4</ele>
        <time>2024-08-25T13:10:19Z</time>
      </trkpt>
      <trkpt lat="48.98065" lon="7.86923">
        <ele>249.4</ele>
        <time>2024-08-25T13:10:20Z</time>
      </trkpt>
      <trkpt lat="48.9806" lon="7.86925">
        <ele>249.6</ele>
        <time>2024-08-25T13:10:21Z</time>
      </trkpt>
      <trkpt lat="48.98056" lon="7.86927">
        <ele>249.6</ele>
        <time>2024-08-25T13:10:22Z</time>
      </trkpt>
      <trkpt lat="48.98051" lon="7.86929">
        <ele>249.6</ele>
        <time>2024-08-25T13:10:23Z</time>
      </trkpt>
      <trkpt lat="48.98046" lon="7.86932">
        <ele>249.6</ele>
        <time>2024-08-25T13:10:24Z</time>
      </trkpt>
      <trkpt lat="48.9804" lon="7.86934">
        <ele>249.6</ele>
        <time>2024-08-25T13:10:25Z</time>
      </trkpt>
      <trkpt lat="48.98035" lon="7.86936">
        <ele>249.4</ele>
        <time>2024-08-25T13:10:26Z</time>
      </trkpt>
      <trkpt lat="48.98029" lon="7.86938">
        <ele>249.2</ele>
        <time>2024-08-25T13:10:27Z</time>
      </trkpt>
      <trkpt lat="48.98024" lon="7.8694">
        <ele>249.2</ele>
        <time>2024-08-25T13:10:28Z</time>
      </trkpt>
      <trkpt lat="48.98019" lon="7.86943">
        <ele>249.2</ele>
        <time>2024-08-25T13:10:29Z</time>
      </trkpt>
      <trkpt lat="48.98013" lon="7.86945">
        <ele>249</ele>
        <time>2024-08-25T13:10:30Z</time>
      </trkpt>
      <trkpt lat="48.98007" lon="7.86947">
        <ele>248.6</ele>
        <time>2024-08-25T13:10:31Z</time>
      </trkpt>
      <trkpt lat="48.98002" lon="7.8695">
        <ele>248.6</ele>
        <time>2024-08-25T13:10:32Z</time>
      </trkpt>
      <trkpt lat="48.97996" lon="7.86953">
        <ele>248.4</ele>
        <time>2024-08-25T13:10:33Z</time>
      </trkpt>
      <trkpt lat="48.9799" lon="7.86955">
        <ele>248.2</ele>
        <time>2024-08-25T13:10:34Z</time>
      </trkpt>
      <trkpt lat="48.97984" lon="7.86958">
        <ele>248.2</ele>
        <time>2024-08-25T13:10:35Z</time>
      </trkpt>
      <trkpt lat="48.97979" lon="7.8696">
        <ele>248</ele>
        <time>2024-08-25T13:10:36Z</time>
      </trkpt>
      <trkpt lat="48.97973" lon="7.86963">
        <ele>247.8</ele>
        <time>2024-08-25T13:10:37Z</time>
      </trkpt>
      <trkpt lat="48.97967" lon="7.86965">
        <ele>247.4</ele>
        <time>2024-08-25T13:10:38Z</time>
      </trkpt>
      <trkpt lat="48.97961" lon="7.86968">
        <ele>247.2</ele>
        <time>2024-08-25T13:10:39Z</time>
      </trkpt>
      <trkpt lat="48.97955" lon="7.86971">
        <ele>247</ele>
        <time>2024-08-25T13:10:40Z</time>
      </trkpt>
      <trkpt lat="48.97949" lon="7.86972">
        <ele>246.8</ele>
        <time>2024-08-25T13:10:41Z</time>
      </trkpt>
      <trkpt lat="48.97944" lon="7.86972">
        <ele>246.4</ele>
        <time>2024-08-25T13:10:42Z</time>
      </trkpt>
      <trkpt lat="48.97939" lon="7.86971">
        <ele>246</ele>
        <time>2024-08-25T13:10:43Z</time>
      </trkpt>
      <trkpt lat="48.97934" lon="7.86973">
        <ele>246</ele>
        <time>2024-08-25T13:10:44Z</time>
      </trkpt>
      <trkpt lat="48.97931" lon="7.86977">
        <ele>246</ele>
        <time>2024-08-25T13:10:45Z</time>
      </trkpt>
      <trkpt lat="48.97929" lon="7.86981">
        <ele>246</ele>
        <time>2024-08-25T13:10:46Z</time>
      </trkpt>
      <trkpt lat="48.97926" lon="7.86986">
        <ele>246</ele>
        <time>2024-08-25T13:10:47Z</time>
      </trkpt>
      <trkpt lat="48.97923" lon="7.86992">
        <ele>246</ele>
        <time>2024-08-25T13:10:48Z</time>
      </trkpt>
      <trkpt lat="48.97921" lon="7.86997">
        <ele>246</ele>
        <time>2024-08-25T13:10:49Z</time>
      </trkpt>
      <trkpt lat="48.97918" lon="7.87002">
        <ele>246</ele>
        <time>2024-08-25T13:10:50Z</time>
      </trkpt>
      <trkpt lat="48.97915" lon="7.87008">
        <ele>246</ele>
        <time>2024-08-25T13:10:51Z</time>
      </trkpt>
      <trkpt lat="48.97912" lon="7.87014">
        <ele>246</ele>
        <time>2024-08-25T13:10:52Z</time>
      </trkpt>
      <trkpt lat="48.97909" lon="7.87021">
        <ele>246</ele>
        <time>2024-08-25T13:10:53Z</time>
      </trkpt>
      <trkpt lat="48.97906" lon="7.87027">
        <ele>246</ele>
        <time>2024-08-25T13:10:54Z</time>
      </trkpt>
      <trkpt lat="48.97903" lon="7.87034">
        <ele>245.8</ele>
        <time>2024-08-25T13:10:55Z</time>
      </trkpt>
      <trkpt lat="48.97899" lon="7.87042">
        <ele>245.4</ele>
        <time>2024-08-25T13:10:56Z</time>
      </trkpt>
      <trkpt lat="48.97896" lon="7.87049">
        <ele>245.2</ele>
        <time>2024-08-25T13:10:57Z</time>
      </trkpt>
      <trkpt lat="48.97892" lon="7.87057">
        <ele>245</ele>
        <time>2024-08-25T13:10:58Z</time>
      </trkpt>
      <trkpt lat="48.97889" lon="7.87066">
        <ele>244.8</ele>
        <time>2024-08-25T13:10:59Z</time>
      </trkpt>
      <trkpt lat="48.97886" lon="7.87073">
        <ele>244.8</ele>
        <time>2024-08-25T13:11:00Z</time>
      </trkpt>
      <trkpt lat="48.97882" lon="7.87081">
        <ele>244.6</ele>
        <time>2024-08-25T13:11:01Z</time>
      </trkpt>
      <trkpt lat="48.97879" lon="7.87089">
        <ele>244.2</ele>
        <time>2024-08-25T13:11:02Z</time>
      </trkpt>
      <trkpt lat="48.97875" lon="7.87097">
        <ele>244</ele>
        <time>2024-08-25T13:11:03Z</time>
      </trkpt>
      <trkpt lat="48.97872" lon="7.87104">
        <ele>243.8</ele>
        <time>2024-08-25T13:11:04Z</time>
      </trkpt>
      <trkpt lat="48.97868" lon="7.87111">
        <ele>243.8</ele>
        <time>2024-08-25T13:11:05Z</time>
      </trkpt>
      <trkpt lat="48.97864" lon="7.87118">
        <ele>243.6</ele>
        <time>2024-08-25T13:11:06Z</time>
      </trkpt>
      <trkpt lat="48.97859" lon="7.87124">
        <ele>243.2</ele>
        <time>2024-08-25T13:11:07Z</time>
      </trkpt>
      <trkpt lat="48.97853" lon="7.8713">
        <ele>243</ele>
        <time>2024-08-25T13:11:08Z</time>
      </trkpt>
      <trkpt lat="48.97849" lon="7.87137">
        <ele>242.6</ele>
        <time>2024-08-25T13:11:09Z</time>
      </trkpt>
      <trkpt lat="48.97844" lon="7.87143">
        <ele>242.2</ele>
        <time>2024-08-25T13:11:10Z</time>
      </trkpt>
      <trkpt lat="48.97839" lon="7.87148">
        <ele>241.8</ele>
        <time>2024-08-25T13:11:11Z</time>
      </trkpt>
      <trkpt lat="48.97833" lon="7.87155">
        <ele>241.4</ele>
        <time>2024-08-25T13:11:12Z</time>
      </trkpt>
      <trkpt lat="48.97828" lon="7.87161">
        <ele>241</ele>
        <time>2024-08-25T13:11:13Z</time>
      </trkpt>
      <trkpt lat="48.97823" lon="7.87167">
        <ele>240.8</ele>
        <time>2024-08-25T13:11:14Z</time>
      </trkpt>
      <trkpt lat="48.97818" lon="7.87173">
        <ele>240.6</ele>
        <time>2024-08-25T13:11:15Z</time>
      </trkpt>
      <trkpt lat="48.97814" lon="7.87179">
        <ele>240</ele>
        <time>2024-08-25T13:11:16Z</time>
      </trkpt>
      <trkpt lat="48.97809" lon="7.87186">
        <ele>239.8</ele>
        <time>2024-08-25T13:11:17Z</time>
      </trkpt>
      <trkpt lat="48.97804" lon="7.87192">
        <ele>239.6</ele>
        <time>2024-08-25T13:11:18Z</time>
      </trkpt>
      <trkpt lat="48.97799" lon="7.872">
        <ele>239.6</ele>
        <time>2024-08-25T13:11:19Z</time>
      </trkpt>
      <trkpt lat="48.97794" lon="7.87208">
        <ele>239.6</ele>
        <time>2024-08-25T13:11:20Z</time>
      </trkpt>
      <trkpt lat="48.9779" lon="7.87216">
        <ele>239.2</ele>
        <time>2024-08-25T13:11:21Z</time>
      </trkpt>
      <trkpt lat="48.97786" lon="7.87225">
        <ele>239</ele>
        <time>2024-08-25T13:11:22Z</time>
      </trkpt>
      <trkpt lat="48.97781" lon="7.87233">
        <ele>238.8</ele>
        <time>2024-08-25T13:11:23Z</time>
      </trkpt>
      <trkpt lat="48.97777" lon="7.87241">
        <ele>238.6</ele>
        <time>2024-08-25T13:11:24Z</time>
      </trkpt>
      <trkpt lat="48.97773" lon="7.8725">
        <ele>238</ele>
        <time>2024-08-25T13:11:25Z</time>
      </trkpt>
      <trkpt lat="48.97769" lon="7.87259">
        <ele>237.6</ele>
        <time>2024-08-25T13:11:26Z</time>
      </trkpt>
      <trkpt lat="48.97765" lon="7.87267">
        <ele>237.2</ele>
        <time>2024-08-25T13:11:27Z</time>
      </trkpt>
      <trkpt lat="48.97762" lon="7.87276">
        <ele>236.8</ele>
        <time>2024-08-25T13:11:28Z</time>
      </trkpt>
      <trkpt lat="48.97758" lon="7.87284">
        <ele>236.6</ele>
        <time>2024-08-25T13:11:29Z</time>
      </trkpt>
      <trkpt lat="48.97754" lon="7.87293">
        <ele>236</ele>
        <time>2024-08-25T13:11:30Z</time>
      </trkpt>
      <trkpt lat="48.9775" lon="7.87302">
        <ele>235.6</ele>
        <time>2024-08-25T13:11:31Z</time>
      </trkpt>
      <trkpt lat="48.97747" lon="7.87312">
        <ele>235.2</ele>
        <time>2024-08-25T13:11:32Z</time>
      </trkpt>
      <trkpt lat="48.97743" lon="7.87321">
        <ele>234.6</ele>
        <time>2024-08-25T13:11:33Z</time>
      </trkpt>
      <trkpt lat="48.97739" lon="7.8733">
        <ele>234</ele>
        <time>2024-08-25T13:11:34Z</time>
      </trkpt>
      <trkpt lat="48.97735" lon="7.8734">
        <ele>233.4</ele>
        <time>2024-08-25T13:11:35Z</time>
      </trkpt>
      <trkpt lat="48.97731" lon="7.8735">
        <ele>232.8</ele>
        <time>2024-08-25T13:11:36Z</time>
      </trkpt>
      <trkpt lat="48.97726" lon="7.8736">
        <ele>231.8</ele>
        <time>2024-08-25T13:11:37Z</time>
      </trkpt>
      <trkpt lat="48.97721" lon="7.87369">
        <ele>231.2</ele>
        <time>2024-08-25T13:11:38Z</time>
      </trkpt>
      <trkpt lat="48.97716" lon="7.87379">
        <ele>230.2</ele>
        <time>2024-08-25T13:11:39Z</time>
      </trkpt>
      <trkpt lat="48.97711" lon="7.87388">
        <ele>229.4</ele>
        <time>2024-08-25T13:11:40Z</time>
      </trkpt>
      <trkpt lat="48.97705" lon="7.87398">
        <ele>228.6</ele>
        <time>2024-08-25T13:11:41Z</time>
      </trkpt>
      <trkpt lat="48.977" lon="7.87407">
        <ele>227.4</ele>
        <time>2024-08-25T13:11:42Z</time>
      </trkpt>
      <trkpt lat="48.97695" lon="7.87415">
        <ele>226.6</ele>
        <time>2024-08-25T13:11:43Z</time>
      </trkpt>
      <trkpt lat="48.97689" lon="7.87424">
        <ele>225.8</ele>
        <time>2024-08-25T13:11:44Z</time>
      </trkpt>
      <trkpt lat="48.97684" lon="7.87433">
        <ele>225</ele>
        <time>2024-08-25T13:11:45Z</time>
      </trkpt>
      <trkpt lat="48.97678" lon="7.87442">
        <ele>224.2</ele>
        <time>2024-08-25T13:11:46Z</time>
      </trkpt>
      <trkpt lat="48.97672" lon="7.8745">
        <ele>223</ele>
        <time>2024-08-25T13:11:47Z</time>
      </trkpt>
      <trkpt lat="48.97668" lon="7.87458">
        <ele>222.8</ele>
        <time>2024-08-25T13:11:48Z</time>
      </trkpt>
      <trkpt lat="48.97663" lon="7.87468">
        <ele>221.8</ele>
        <time>2024-08-25T13:11:49Z</time>
      </trkpt>
      <trkpt lat="48.9766" lon="7.87479">
        <ele>220.8</ele>
        <time>2024-08-25T13:11:50Z</time>
      </trkpt>
      <trkpt lat="48.97656" lon="7.8749">
        <ele>220.2</ele>
        <time>2024-08-25T13:11:51Z</time>
      </trkpt>
      <trkpt lat="48.97654" lon="7.87501">
        <ele>219</ele>
        <time>2024-08-25T13:11:52Z</time>
      </trkpt>
      <trkpt lat="48.97651" lon="7.87512">
        <ele>218.2</ele>
        <time>2024-08-25T13:11:53Z</time>
      </trkpt>
      <trkpt lat="48.97648" lon="7.87523">
        <ele>217.4</ele>
        <time>2024-08-25T13:11:54Z</time>
      </trkpt>
      <trkpt lat="48.97645" lon="7.87533">
        <ele>216.8</ele>
        <time>2024-08-25T13:11:55Z</time>
      </trkpt>
      <trkpt lat="48.97642" lon="7.87543">
        <ele>216</ele>
        <time>2024-08-25T13:11:56Z</time>
      </trkpt>
      <trkpt lat="48.9764" lon="7.87555">
        <ele>215.2</ele>
        <time>2024-08-25T13:11:57Z</time>
      </trkpt>
      <trkpt lat="48.97637" lon="7.87567">
        <ele>214.8</ele>
        <time>2024-08-25T13:11:58Z</time>
      </trkpt>
      <trkpt lat="48.97635" lon="7.87578">
        <ele>214.4</ele>
        <time>2024-08-25T13:11:59Z</time>
      </trkpt>
      <trkpt lat="48.97634" lon="7.8759">
        <ele>213.2</ele>
        <time>2024-08-25T13:12:00Z</time>
      </trkpt>
      <trkpt lat="48.97634" lon="7.87603">
        <ele>212.8</ele>
        <time>2024-08-25T13:12:01Z</time>
      </trkpt>
      <trkpt lat="48.97633" lon="7.87616">
        <ele>211.8</ele>
        <time>2024-08-25T13:12:02Z</time>
      </trkpt>
      <trkpt lat="48.97633" lon="7.87629">
        <ele>210.6</ele>
        <time>2024-08-25T13:12:03Z</time>
      </trkpt>
      <trkpt lat="48.97635" lon="7.87642">
        <ele>209.6</ele>
        <time>2024-08-25T13:12:04Z</time>
      </trkpt>
      <trkpt lat="48.97636" lon="7.87654">
        <ele>208.8</ele>
        <time>2024-08-25T13:12:05Z</time>
      </trkpt>
      <trkpt lat="48.97637" lon="7.87665">
        <ele>208</ele>
        <time>2024-08-25T13:12:06Z</time>
      </trkpt>
      <trkpt lat="48.97638" lon="7.87676">
        <ele>207.2</ele>
        <time>2024-08-25T13:12:07Z</time>
      </trkpt>
      <trkpt lat="48.97638" lon="7.87686">
        <ele>206.4</ele>
        <time>2024-08-25T13:12:08Z</time>
      </trkpt>
      <trkpt lat="48.97637" lon="7.87697">
        <ele>205.8</ele>
        <time>2024-08-25T13:12:09Z</time>
      </trkpt>
      <trkpt lat="48.97635" lon="7.87707">
        <ele>205.6</ele>
        <time>2024-08-25T13:12:10Z</time>
      </trkpt>
      <trkpt lat="48.97631" lon="7.87718">
        <ele>204.8</ele>
        <time>2024-08-25T13:12:11Z</time>
      </trkpt>
      <trkpt lat="48.97628" lon="7.87729">
        <ele>204</ele>
        <time>2024-08-25T13:12:12Z</time>
      </trkpt>
      <trkpt lat="48.97624" lon="7.87741">
        <ele>203.6</ele>
        <time>2024-08-25T13:12:13Z</time>
      </trkpt>
      <trkpt lat="48.9762" lon="7.87751">
        <ele>202.8</ele>
        <time>2024-08-25T13:12:14Z</time>
      </trkpt>
      <trkpt lat="48.97615" lon="7.87761">
        <ele>202</ele>
        <time>2024-08-25T13:12:15Z</time>
      </trkpt>
      <trkpt lat="48.97611" lon="7.87771">
        <ele>200.6</ele>
        <time>2024-08-25T13:12:16Z</time>
      </trkpt>
      <trkpt lat="48.97608" lon="7.87781">
        <ele>200</ele>
        <time>2024-08-25T13:12:17Z</time>
      </trkpt>
      <trkpt lat="48.97605" lon="7.87792">
        <ele>199.4</ele>
        <time>2024-08-25T13:12:18Z</time>
      </trkpt>
      <trkpt lat="48.97602" lon="7.87802">
        <ele>199.2</ele>
        <time>2024-08-25T13:12:19Z</time>
      </trkpt>
      <trkpt lat="48.976" lon="7.87812">
        <ele>198.2</ele>
        <time>2024-08-25T13:12:20Z</time>
      </trkpt>
      <trkpt lat="48.97599" lon="7.87823">
        <ele>197.4</ele>
        <time>2024-08-25T13:12:21Z</time>
      </trkpt>
      <trkpt lat="48.97598" lon="7.87834">
        <ele>196.8</ele>
        <time>2024-08-25T13:12:22Z</time>
      </trkpt>
      <trkpt lat="48.97597" lon="7.87845">
        <ele>196.6</ele>
        <time>2024-08-25T13:12:23Z</time>
      </trkpt>
      <trkpt lat="48.97597" lon="7.87856">
        <ele>196</ele>
        <time>2024-08-25T13:12:24Z</time>
      </trkpt>
      <trkpt lat="48.97598" lon="7.87866">
        <ele>195.4</ele>
        <time>2024-08-25T13:12:25Z</time>
      </trkpt>
      <trkpt lat="48.97599" lon="7.87876">
        <ele>194.8</ele>
        <time>2024-08-25T13:12:26Z</time>
      </trkpt>
      <trkpt lat="48.976" lon="7.87885">
        <ele>194.2</ele>
        <time>2024-08-25T13:12:27Z</time>
      </trkpt>
      <trkpt lat="48.97601" lon="7.87893">
        <ele>193.6</ele>
        <time>2024-08-25T13:12:28Z</time>
      </trkpt>
      <trkpt lat="48.97603" lon="7.87899">
        <ele>192.8</ele>
        <time>2024-08-25T13:12:29Z</time>
      </trkpt>
      <trkpt lat="48.97605" lon="7.87904">
        <ele>192.4</ele>
        <time>2024-08-25T13:12:30Z</time>
      </trkpt>
      <trkpt lat="48.97607" lon="7.87908">
        <ele>192</ele>
        <time>2024-08-25T13:12:31Z</time>
      </trkpt>
      <trkpt lat="48.97611" lon="7.87911">
        <ele>191.6</ele>
        <time>2024-08-25T13:12:32Z</time>
      </trkpt>
      <trkpt lat="48.97614" lon="7.87914">
        <ele>191.4</ele>
        <time>2024-08-25T13:12:33Z</time>
      </trkpt>
      <trkpt lat="48.97618" lon="7.87918">
        <ele>191.2</ele>
        <time>2024-08-25T13:12:34Z</time>
      </trkpt>
      <trkpt lat="48.97623" lon="7.87922">
        <ele>191</ele>
        <time>2024-08-25T13:12:35Z</time>
      </trkpt>
      <trkpt lat="48.97628" lon="7.87927">
        <ele>190.8</ele>
        <time>2024-08-25T13:12:36Z</time>
      </trkpt>
      <trkpt lat="48.97634" lon="7.87932">
        <ele>190.2</ele>
        <time>2024-08-25T13:12:37Z</time>
      </trkpt>
      <trkpt lat="48.97641" lon="7.87936">
        <ele>189.8</ele>
        <time>2024-08-25T13:12:38Z</time>
      </trkpt>
      <trkpt lat="48.97647" lon="7.87939">
        <ele>189.2</ele>
        <time>2024-08-25T13:12:39Z</time>
      </trkpt>
      <trkpt lat="48.97653" lon="7.87943">
        <ele>188.6</ele>
        <time>2024-08-25T13:12:40Z</time>
      </trkpt>
      <trkpt lat="48.97659" lon="7.87946">
        <ele>188.2</ele>
        <time>2024-08-25T13:12:41Z</time>
      </trkpt>
      <trkpt lat="48.97665" lon="7.87948">
        <ele>187.6</ele>
        <time>2024-08-25T13:12:42Z</time>
      </trkpt>
      <trkpt lat="48.9767" lon="7.87951">
        <ele>187.2</ele>
        <time>2024-08-25T13:12:43Z</time>
      </trkpt>
      <trkpt lat="48.97676" lon="7.87954">
        <ele>186.8</ele>
        <time>2024-08-25T13:12:44Z</time>
      </trkpt>
      <trkpt lat="48.97681" lon="7.87958">
        <ele>186.2</ele>
        <time>2024-08-25T13:12:45Z</time>
      </trkpt>
      <trkpt lat="48.97687" lon="7.8796">
        <ele>186</ele>
        <time>2024-08-25T13:12:46Z</time>
      </trkpt>
      <trkpt lat="48.97691" lon="7.87964">
        <ele>185.6</ele>
        <time>2024-08-25T13:12:47Z</time>
      </trkpt>
      <trkpt lat="48.97694" lon="7.87966">
        <ele>185.4</ele>
        <time>2024-08-25T13:12:48Z</time>
      </trkpt>
      <trkpt lat="48.97696" lon="7.87969">
        <ele>185</ele>
        <time>2024-08-25T13:12:49Z</time>
      </trkpt>
      <trkpt lat="48.97696" lon="7.87974">
        <ele>184.4</ele>
        <time>2024-08-25T13:12:50Z</time>
      </trkpt>
      <trkpt lat="48.97695" lon="7.87979">
        <ele>184.4</ele>
        <time>2024-08-25T13:12:51Z</time>
      </trkpt>
      <trkpt lat="48.97693" lon="7.87985">
        <ele>184.2</ele>
        <time>2024-08-25T13:12:52Z</time>
      </trkpt>
      <trkpt lat="48.97693" lon="7.87991">
        <ele>184</ele>
        <time>2024-08-25T13:12:53Z</time>
      </trkpt>
      <trkpt lat="48.97692" lon="7.87998">
        <ele>183.8</ele>
        <time>2024-08-25T13:12:54Z</time>
      </trkpt>
      <trkpt lat="48.97689" lon="7.88005">
        <ele>183.4</ele>
        <time>2024-08-25T13:12:55Z</time>
      </trkpt>
      <trkpt lat="48.97687" lon="7.88012">
        <ele>183.2</ele>
        <time>2024-08-25T13:12:56Z</time>
      </trkpt>
      <trkpt lat="48.97685" lon="7.8802">
        <ele>182.8</ele>
        <time>2024-08-25T13:12:57Z</time>
      </trkpt>
      <trkpt lat="48.97683" lon="7.88028">
        <ele>182.2</ele>
        <time>2024-08-25T13:12:58Z</time>
      </trkpt>
      <trkpt lat="48.97681" lon="7.88036">
        <ele>182</ele>
        <time>2024-08-25T13:12:59Z</time>
      </trkpt>
      <trkpt lat="48.97679" lon="7.88045">
        <ele>181.6</ele>
        <time>2024-08-25T13:13:00Z</time>
      </trkpt>
      <trkpt lat="48.97678" lon="7.88053">
        <ele>181.4</ele>
        <time>2024-08-25T13:13:01Z</time>
      </trkpt>
      <trkpt lat="48.97676" lon="7.88062">
        <ele>181.2</ele>
        <time>2024-08-25T13:13:02Z</time>
      </trkpt>
      <trkpt lat="48.97674" lon="7.88071">
        <ele>180.8</ele>
        <time>2024-08-25T13:13:03Z</time>
      </trkpt>
      <trkpt lat="48.97672" lon="7.88081">
        <ele>180</ele>
        <time>2024-08-25T13:13:04Z</time>
      </trkpt>
      <trkpt lat="48.9767" lon="7.88091">
        <ele>180</ele>
        <time>2024-08-25T13:13:05Z</time>
      </trkpt>
      <trkpt lat="48.97669" lon="7.881">
        <ele>179.8</ele>
        <time>2024-08-25T13:13:06Z</time>
      </trkpt>
      <trkpt lat="48.97667" lon="7.88109">
        <ele>179.8</ele>
        <time>2024-08-25T13:13:07Z</time>
      </trkpt>
      <trkpt lat="48.97665" lon="7.88119">
        <ele>179.4</ele>
        <time>2024-08-25T13:13:08Z</time>
      </trkpt>
      <trkpt lat="48.97663" lon="7.88129">
        <ele>179</ele>
        <time>2024-08-25T13:13:09Z</time>
      </trkpt>
      <trkpt lat="48.97661" lon="7.88138">
        <ele>178.4</ele>
        <time>2024-08-25T13:13:10Z</time>
      </trkpt>
      <trkpt lat="48.9766" lon="7.88148">
        <ele>178</ele>
        <time>2024-08-25T13:13:11Z</time>
      </trkpt>
      <trkpt lat="48.97659" lon="7.88158">
        <ele>177.8</ele>
        <time>2024-08-25T13:13:12Z</time>
      </trkpt>
      <trkpt lat="48.97657" lon="7.88169">
        <ele>177.4</ele>
        <time>2024-08-25T13:13:13Z</time>
      </trkpt>
      <trkpt lat="48.97655" lon="7.88179">
        <ele>177.2</ele>
        <time>2024-08-25T13:13:14Z</time>
      </trkpt>
      <trkpt lat="48.97654" lon="7.88188">
        <ele>176.8</ele>
        <time>2024-08-25T13:13:15Z</time>
      </trkpt>
      <trkpt lat="48.97652" lon="7.88198">
        <ele>176.6</ele>
        <time>2024-08-25T13:13:16Z</time>
      </trkpt>
      <trkpt lat="48.97651" lon="7.88208">
        <ele>176.4</ele>
        <time>2024-08-25T13:13:17Z</time>
      </trkpt>
      <trkpt lat="48.97649" lon="7.88217">
        <ele>176.4</ele>
        <time>2024-08-25T13:13:18Z</time>
      </trkpt>
      <trkpt lat="48.97647" lon="7.88226">
        <ele>176.4</ele>
        <time>2024-08-25T13:13:19Z</time>
      </trkpt>
      <trkpt lat="48.97645" lon="7.88236">
        <ele>176.4</ele>
        <time>2024-08-25T13:13:20Z</time>
      </trkpt>
      <trkpt lat="48.97644" lon="7.88245">
        <ele>176.4</ele>
        <time>2024-08-25T13:13:21Z</time>
      </trkpt>
      <trkpt lat="48.97641" lon="7.88253">
        <ele>176.2</ele>
        <time>2024-08-25T13:13:22Z</time>
      </trkpt>
      <trkpt lat="48.97639" lon="7.88262">
        <ele>176.2</ele>
        <time>2024-08-25T13:13:23Z</time>
      </trkpt>
      <trkpt lat="48.97636" lon="7.88271">
        <ele>176.2</ele>
        <time>2024-08-25T13:13:24Z</time>
      </trkpt>
      <trkpt lat="48.97634" lon="7.8828">
        <ele>176.2</ele>
        <time>2024-08-25T13:13:25Z</time>
      </trkpt>
      <trkpt lat="48.9763" lon="7.88288">
        <ele>176.2</ele>
        <time>2024-08-25T13:13:26Z</time>
      </trkpt>
      <trkpt lat="48.97628" lon="7.88297">
        <ele>176</ele>
        <time>2024-08-25T13:13:27Z</time>
      </trkpt>
      <trkpt lat="48.97625" lon="7.88305">
        <ele>176</ele>
        <time>2024-08-25T13:13:28Z</time>
      </trkpt>
      <trkpt lat="48.97622" lon="7.88313">
        <ele>176</ele>
        <time>2024-08-25T13:13:29Z</time>
      </trkpt>
      <trkpt lat="48.9762" lon="7.88321">
        <ele>175.8</ele>
        <time>2024-08-25T13:13:30Z</time>
      </trkpt>
      <trkpt lat="48.97619" lon="7.88328">
        <ele>175.6</ele>
        <time>2024-08-25T13:13:31Z</time>
      </trkpt>
      <trkpt lat="48.97617" lon="7.88334">
        <ele>175.6</ele>
        <time>2024-08-25T13:13:32Z</time>
      </trkpt>
      <trkpt lat="48.97618" lon="7.88339">
        <ele>175.6</ele>
        <time>2024-08-25T13:13:33Z</time>
      </trkpt>
      <trkpt lat="48.9762" lon="7.88344">
        <ele>175.4</ele>
        <time>2024-08-25T13:13:34Z</time>
      </trkpt>
      <trkpt lat="48.97623" lon="7.88348">
        <ele>175.4</ele>
        <time>2024-08-25T13:13:35Z</time>
      </trkpt>
      <trkpt lat="48.97625" lon="7.88353">
        <ele>175.4</ele>
        <time>2024-08-25T13:13:36Z</time>
      </trkpt>
      <trkpt lat="48.97627" lon="7.88359">
        <ele>175.4</ele>
        <time>2024-08-25T13:13:37Z</time>
      </trkpt>
      <trkpt lat="48.97628" lon="7.88367">
        <ele>175.4</ele>
        <time>2024-08-25T13:13:38Z</time>
      </trkpt>
      <trkpt lat="48.97629" lon="7.88374">
        <ele>175.2</ele>
        <time>2024-08-25T13:13:39Z</time>
      </trkpt>
      <trkpt lat="48.9763" lon="7.88382">
        <ele>175</ele>
        <time>2024-08-25T13:13:40Z</time>
      </trkpt>
      <trkpt lat="48.9763" lon="7.8839">
        <ele>174.8</ele>
        <time>2024-08-25T13:13:41Z</time>
      </trkpt>
      <trkpt lat="48.9763" lon="7.88399">
        <ele>174.6</ele>
        <time>2024-08-25T13:13:42Z</time>
      </trkpt>
      <trkpt lat="48.97629" lon="7.88407">
        <ele>174.4</ele>
        <time>2024-08-25T13:13:43Z</time>
      </trkpt>
      <trkpt lat="48.97629" lon="7.88416">
        <ele>174</ele>
        <time>2024-08-25T13:13:44Z</time>
      </trkpt>
      <trkpt lat="48.97628" lon="7.88424">
        <ele>173.8</ele>
        <time>2024-08-25T13:13:45Z</time>
      </trkpt>
      <trkpt lat="48.97627" lon="7.88433">
        <ele>173.6</ele>
        <time>2024-08-25T13:13:46Z</time>
      </trkpt>
      <trkpt lat="48.97626" lon="7.88442">
        <ele>173.2</ele>
        <time>2024-08-25T13:13:47Z</time>
      </trkpt>
      <trkpt lat="48.97624" lon="7.88451">
        <ele>173.2</ele>
        <time>2024-08-25T13:13:48Z</time>
      </trkpt>
      <trkpt lat="48.97623" lon="7.8846">
        <ele>173.2</ele>
        <time>2024-08-25T13:13:49Z</time>
      </trkpt>
      <trkpt lat="48.97621" lon="7.88469">
        <ele>173</ele>
        <time>2024-08-25T13:13:50Z</time>
      </trkpt>
      <trkpt lat="48.9762" lon="7.88478">
        <ele>173</ele>
        <time>2024-08-25T13:13:51Z</time>
      </trkpt>
      <trkpt lat="48.97619" lon="7.88486">
        <ele>172.8</ele>
        <time>2024-08-25T13:13:52Z</time>
      </trkpt>
      <trkpt lat="48.97618" lon="7.88495">
        <ele>172.6</ele>
        <time>2024-08-25T13:13:53Z</time>
      </trkpt>
      <trkpt lat="48.97618" lon="7.88503">
        <ele>172.4</ele>
        <time>2024-08-25T13:13:54Z</time>
      </trkpt>
      <trkpt lat="48.97617" lon="7.88511">
        <ele>172.4</ele>
        <time>2024-08-25T13:13:55Z</time>
      </trkpt>
      <trkpt lat="48.97618" lon="7.88519">
        <ele>172.4</ele>
        <time>2024-08-25T13:13:56Z</time>
      </trkpt>
      <trkpt lat="48.97618" lon="7.88528">
        <ele>172.2</ele>
        <time>2024-08-25T13:13:57Z</time>
      </trkpt>
      <trkpt lat="48.97618" lon="7.88536">
        <ele>172.2</ele>
        <time>2024-08-25T13:13:58Z</time>
      </trkpt>
      <trkpt lat="48.97618" lon="7.88544">
        <ele>172.2</ele>
        <time>2024-08-25T13:13:59Z</time>
      </trkpt>
      <trkpt lat="48.97618" lon="7.88553">
        <ele>172.4</ele>
        <time>2024-08-25T13:14:00Z</time>
      </trkpt>
      <trkpt lat="48.97618" lon="7.88562">
        <ele>172.2</ele>
        <time>2024-08-25T13:14:01Z</time>
      </trkpt>
      <trkpt lat="48.97619" lon="7.88571">
        <ele>172.2</ele>
        <time>2024-08-25T13:14:02Z</time>
      </trkpt>
      <trkpt lat="48.97619" lon="7.88579">
        <ele>172.2</ele>
        <time>2024-08-25T13:14:03Z</time>
      </trkpt>
      <trkpt lat="48.97619" lon="7.88588">
        <ele>172</ele>
        <time>2024-08-25T13:14:04Z</time>
      </trkpt>
      <trkpt lat="48.97619" lon="7.88596">
        <ele>172</ele>
        <time>2024-08-25T13:14:05Z</time>
      </trkpt>
      <trkpt lat="48.97619" lon="7.88605">
        <ele>172</ele>
        <time>2024-08-25T13:14:06Z</time>
      </trkpt>
      <trkpt lat="48.97619" lon="7.88614">
        <ele>171.8</ele>
        <time>2024-08-25T13:14:07Z</time>
      </trkpt>
      <trkpt lat="48.97619" lon="7.88623">
        <ele>171.8</ele>
        <time>2024-08-25T13:14:08Z</time>
      </trkpt>
      <trkpt lat="48.9762" lon="7.88632">
        <ele>171.6</ele>
        <time>2024-08-25T13:14:09Z</time>
      </trkpt>
      <trkpt lat="48.9762" lon="7.8864">
        <ele>171.6</ele>
        <time>2024-08-25T13:14:10Z</time>
      </trkpt>
      <trkpt lat="48.9762" lon="7.88649">
        <ele>171.6</ele>
        <time>2024-08-25T13:14:11Z</time>
      </trkpt>
      <trkpt lat="48.9762" lon="7.88658">
        <ele>171.6</ele>
        <time>2024-08-25T13:14:12Z</time>
      </trkpt>
      <trkpt lat="48.9762" lon="7.88667">
        <ele>171.6</ele>
        <time>2024-08-25T13:14:13Z</time>
      </trkpt>
      <trkpt lat="48.9762" lon="7.88675">
        <ele>171.8</ele>
        <time>2024-08-25T13:14:14Z</time>
      </trkpt>
      <trkpt lat="48.97619" lon="7.88684">
        <ele>171.8</ele>
        <time>2024-08-25T13:14:15Z</time>
      </trkpt>
      <trkpt lat="48.97618" lon="7.88693">
        <ele>171.8</ele>
        <time>2024-08-25T13:14:16Z</time>
      </trkpt>
      <trkpt lat="48.97617" lon="7.88702">
        <ele>171.8</ele>
        <time>2024-08-25T13:14:17Z</time>
      </trkpt>
      <trkpt lat="48.97615" lon="7.88711">
        <ele>171.8</ele>
        <time>2024-08-25T13:14:18Z</time>
      </trkpt>
      <trkpt lat="48.97614" lon="7.88719">
        <ele>171.6</ele>
        <time>2024-08-25T13:14:19Z</time>
      </trkpt>
      <trkpt lat="48.97612" lon="7.88727">
        <ele>171.6</ele>
        <time>2024-08-25T13:14:20Z</time>
      </trkpt>
      <trkpt lat="48.9761" lon="7.88736">
        <ele>171.4</ele>
        <time>2024-08-25T13:14:21Z</time>
      </trkpt>
      <trkpt lat="48.97609" lon="7.88744">
        <ele>171.2</ele>
        <time>2024-08-25T13:14:22Z</time>
      </trkpt>
      <trkpt lat="48.97607" lon="7.88752">
        <ele>171.2</ele>
        <time>2024-08-25T13:14:23Z</time>
      </trkpt>
      <trkpt lat="48.97605" lon="7.88761">
        <ele>171</ele>
        <time>2024-08-25T13:14:24Z</time>
      </trkpt>
      <trkpt lat="48.97604" lon="7.8877">
        <ele>171</ele>
        <time>2024-08-25T13:14:25Z</time>
      </trkpt>
      <trkpt lat="48.97602" lon="7.88778">
        <ele>171</ele>
        <time>2024-08-25T13:14:26Z</time>
      </trkpt>
      <trkpt lat="48.976" lon="7.88786">
        <ele>171</ele>
        <time>2024-08-25T13:14:27Z</time>
      </trkpt>
      <trkpt lat="48.97599" lon="7.88795">
        <ele>170.8</ele>
        <time>2024-08-25T13:14:28Z</time>
      </trkpt>
      <trkpt lat="48.97597" lon="7.88803">
        <ele>170.8</ele>
        <time>2024-08-25T13:14:29Z</time>
      </trkpt>
      <trkpt lat="48.97596" lon="7.88811">
        <ele>170.8</ele>
        <time>2024-08-25T13:14:30Z</time>
      </trkpt>
      <trkpt lat="48.97595" lon="7.88819">
        <ele>170.8</ele>
        <time>2024-08-25T13:14:31Z</time>
      </trkpt>
      <trkpt lat="48.97594" lon="7.88828">
        <ele>170.8</ele>
        <time>2024-08-25T13:14:32Z</time>
      </trkpt>
      <trkpt lat="48.97592" lon="7.88836">
        <ele>170.6</ele>
        <time>2024-08-25T13:14:33Z</time>
      </trkpt>
      <trkpt lat="48.97591" lon="7.88845">
        <ele>170.6</ele>
        <time>2024-08-25T13:14:34Z</time>
      </trkpt>
      <trkpt lat="48.9759" lon="7.88854">
        <ele>170.6</ele>
        <time>2024-08-25T13:14:35Z</time>
      </trkpt>
      <trkpt lat="48.97589" lon="7.88864">
        <ele>170.6</ele>
        <time>2024-08-25T13:14:36Z</time>
      </trkpt>
      <trkpt lat="48.97588" lon="7.88872">
        <ele>170.6</ele>
        <time>2024-08-25T13:14:37Z</time>
      </trkpt>
      <trkpt lat="48.97586" lon="7.88881">
        <ele>170.6</ele>
        <time>2024-08-25T13:14:38Z</time>
      </trkpt>
      <trkpt lat="48.97584" lon="7.8889">
        <ele>170.6</ele>
        <time>2024-08-25T13:14:39Z</time>
      </trkpt>
      <trkpt lat="48.97582" lon="7.88899">
        <ele>170.4</ele>
        <time>2024-08-25T13:14:40Z</time>
      </trkpt>
      <trkpt lat="48.9758" lon="7.88907">
        <ele>170.4</ele>
        <time>2024-08-25T13:14:41Z</time>
      </trkpt>
      <trkpt lat="48.97578" lon="7.88916">
        <ele>170.2</ele>
        <time>2024-08-25T13:14:42Z</time>
      </trkpt>
      <trkpt lat="48.97576" lon="7.88924">
        <ele>170.2</ele>
        <time>2024-08-25T13:14:43Z</time>
      </trkpt>
      <trkpt lat="48.97574" lon="7.88933">
        <ele>170.2</ele>
        <time>2024-08-25T13:14:44Z</time>
      </trkpt>
      <trkpt lat="48.97572" lon="7.88941">
        <ele>170.2</ele>
        <time>2024-08-25T13:14:45Z</time>
      </trkpt>
      <trkpt lat="48.97569" lon="7.8895">
        <ele>170.2</ele>
        <time>2024-08-25T13:14:46Z</time>
      </trkpt>
      <trkpt lat="48.97566" lon="7.88958">
        <ele>170</ele>
        <time>2024-08-25T13:14:47Z</time>
      </trkpt>
      <trkpt lat="48.97564" lon="7.88967">
        <ele>170</ele>
        <time>2024-08-25T13:14:48Z</time>
      </trkpt>
      <trkpt lat="48.97561" lon="7.88975">
        <ele>170</ele>
        <time>2024-08-25T13:14:49Z</time>
      </trkpt>
      <trkpt lat="48.97558" lon="7.88983">
        <ele>170</ele>
        <time>2024-08-25T13:14:50Z</time>
      </trkpt>
      <trkpt lat="48.97554" lon="7.88991">
        <ele>170</ele>
        <time>2024-08-25T13:14:51Z</time>
      </trkpt>
      <trkpt lat="48.97551" lon="7.88999">
        <ele>170</ele>
        <time>2024-08-25T13:14:52Z</time>
      </trkpt>
      <trkpt lat="48.97547" lon="7.89006">
        <ele>170</ele>
        <time>2024-08-25T13:14:53Z</time>
      </trkpt>
      <trkpt lat="48.97543" lon="7.89014">
        <ele>170</ele>
        <time>2024-08-25T13:14:54Z</time>
      </trkpt>
      <trkpt lat="48.9754" lon="7.89022">
        <ele>170</ele>
        <time>2024-08-25T13:14:55Z</time>
      </trkpt>
      <trkpt lat="48.97536" lon="7.89029">
        <ele>170</ele>
        <time>2024-08-25T13:14:56Z</time>
      </trkpt>
      <trkpt lat="48.97532" lon="7.89036">
        <ele>170</ele>
        <time>2024-08-25T13:14:57Z</time>
      </trkpt>
      <trkpt lat="48.97527" lon="7.89043">
        <ele>169.8</ele>
        <time>2024-08-25T13:14:58Z</time>
      </trkpt>
      <trkpt lat="48.97524" lon="7.89049">
        <ele>169.8</ele>
        <time>2024-08-25T13:14:59Z</time>
      </trkpt>
      <trkpt lat="48.9752" lon="7.89056">
        <ele>169.8</ele>
        <time>2024-08-25T13:15:00Z</time>
      </trkpt>
      <trkpt lat="48.97515" lon="7.89063">
        <ele>169.6</ele>
        <time>2024-08-25T13:15:01Z</time>
      </trkpt>
      <trkpt lat="48.97511" lon="7.8907">
        <ele>169.6</ele>
        <time>2024-08-25T13:15:02Z</time>
      </trkpt>
      <trkpt lat="48.97506" lon="7.89077">
        <ele>169.6</ele>
        <time>2024-08-25T13:15:03Z</time>
      </trkpt>
      <trkpt lat="48.97502" lon="7.89084">
        <ele>169.4</ele>
        <time>2024-08-25T13:15:04Z</time>
      </trkpt>
      <trkpt lat="48.97498" lon="7.8909">
        <ele>169.4</ele>
        <time>2024-08-25T13:15:05Z</time>
      </trkpt>
      <trkpt lat="48.97494" lon="7.89097">
        <ele>169.4</ele>
        <time>2024-08-25T13:15:06Z</time>
      </trkpt>
      <trkpt lat="48.9749" lon="7.89103">
        <ele>169.4</ele>
        <time>2024-08-25T13:15:07Z</time>
      </trkpt>
      <trkpt lat="48.97485" lon="7.8911">
        <ele>169.2</ele>
        <time>2024-08-25T13:15:08Z</time>
      </trkpt>
      <trkpt lat="48.97481" lon="7.89116">
        <ele>169.2</ele>
        <time>2024-08-25T13:15:09Z</time>
      </trkpt>
      <trkpt lat="48.97477" lon="7.89123">
        <ele>169</ele>
        <time>2024-08-25T13:15:10Z</time>
      </trkpt>
      <trkpt lat="48.97473" lon="7.89129">
        <ele>169</ele>
        <time>2024-08-25T13:15:11Z</time>
      </trkpt>
      <trkpt lat="48.97468" lon="7.89136">
        <ele>169</ele>
        <time>2024-08-25T13:15:12Z</time>
      </trkpt>
      <trkpt lat="48.97464" lon="7.89142">
        <ele>168.8</ele>
        <time>2024-08-25T13:15:13Z</time>
      </trkpt>
      <trkpt lat="48.9746" lon="7.89148">
        <ele>168.8</ele>
        <time>2024-08-25T13:15:14Z</time>
      </trkpt>
      <trkpt lat="48.97456" lon="7.89154">
        <ele>168.8</ele>
        <time>2024-08-25T13:15:15Z</time>
      </trkpt>
      <trkpt lat="48.97452" lon="7.89161">
        <ele>168.6</ele>
        <time>2024-08-25T13:15:16Z</time>
      </trkpt>
      <trkpt lat="48.97448" lon="7.89167">
        <ele>168.6</ele>
        <time>2024-08-25T13:15:17Z</time>
      </trkpt>
      <trkpt lat="48.97444" lon="7.89173">
        <ele>168.6</ele>
        <time>2024-08-25T13:15:18Z</time>
      </trkpt>
      <trkpt lat="48.9744" lon="7.89179">
        <ele>168.6</ele>
        <time>2024-08-25T13:15:19Z</time>
      </trkpt>
      <trkpt lat="48.97436" lon="7.89185">
        <ele>168.6</ele>
        <time>2024-08-25T13:15:20Z</time>
      </trkpt>
      <trkpt lat="48.97432" lon="7.89191">
        <ele>168.4</ele>
        <time>2024-08-25T13:15:21Z</time>
      </trkpt>
      <trkpt lat="48.97429" lon="7.89198">
        <ele>168.4</ele>
        <time>2024-08-25T13:15:22Z</time>
      </trkpt>
      <trkpt lat="48.97428" lon="7.89206">
        <ele>168.4</ele>
        <time>2024-08-25T13:15:23Z</time>
      </trkpt>
      <trkpt lat="48.97427" lon="7.89214">
        <ele>168.4</ele>
        <time>2024-08-25T13:15:24Z</time>
      </trkpt>
      <trkpt lat="48.97428" lon="7.89222">
        <ele>168.6</ele>
        <time>2024-08-25T13:15:25Z</time>
      </trkpt>
      <trkpt lat="48.97428" lon="7.8923">
        <ele>168.6</ele>
        <time>2024-08-25T13:15:26Z</time>
      </trkpt>
      <trkpt lat="48.97428" lon="7.89239">
        <ele>168.6</ele>
        <time>2024-08-25T13:15:27Z</time>
      </trkpt>
      <trkpt lat="48.97428" lon="7.89247">
        <ele>168.8</ele>
        <time>2024-08-25T13:15:28Z</time>
      </trkpt>
      <trkpt lat="48.97428" lon="7.89256">
        <ele>168.8</ele>
        <time>2024-08-25T13:15:29Z</time>
      </trkpt>
      <trkpt lat="48.97428" lon="7.89264">
        <ele>169</ele>
        <time>2024-08-25T13:15:30Z</time>
      </trkpt>
      <trkpt lat="48.97428" lon="7.89273">
        <ele>169</ele>
        <time>2024-08-25T13:15:31Z</time>
      </trkpt>
      <trkpt lat="48.97428" lon="7.89282">
        <ele>169</ele>
        <time>2024-08-25T13:15:32Z</time>
      </trkpt>
      <trkpt lat="48.97428" lon="7.8929">
        <ele>169.2</ele>
        <time>2024-08-25T13:15:33Z</time>
      </trkpt>
      <trkpt lat="48.97428" lon="7.89298">
        <ele>169.2</ele>
        <time>2024-08-25T13:15:34Z</time>
      </trkpt>
      <trkpt lat="48.97428" lon="7.89307">
        <ele>169.2</ele>
        <time>2024-08-25T13:15:35Z</time>
      </trkpt>
      <trkpt lat="48.97428" lon="7.89315">
        <ele>169.4</ele>
        <time>2024-08-25T13:15:36Z</time>
      </trkpt>
      <trkpt lat="48.97428" lon="7.89323">
        <ele>169.4</ele>
        <time>2024-08-25T13:15:37Z</time>
      </trkpt>
      <trkpt lat="48.97428" lon="7.89331">
        <ele>169.4</ele>
        <time>2024-08-25T13:15:38Z</time>
      </trkpt>
      <trkpt lat="48.97428" lon="7.8934">
        <ele>169.6</ele>
        <time>2024-08-25T13:15:39Z</time>
      </trkpt>
      <trkpt lat="48.97429" lon="7.89348">
        <ele>169.6</ele>
        <time>2024-08-25T13:15:40Z</time>
      </trkpt>
      <trkpt lat="48.97429" lon="7.89356">
        <ele>169.6</ele>
        <time>2024-08-25T13:15:41Z</time>
      </trkpt>
      <trkpt lat="48.97429" lon="7.89364">
        <ele>169.8</ele>
        <time>2024-08-25T13:15:42Z</time>
      </trkpt>
      <trkpt lat="48.97429" lon="7.89373">
        <ele>169.8</ele>
        <time>2024-08-25T13:15:43Z</time>
      </trkpt>
      <trkpt lat="48.97429" lon="7.89381">
        <ele>170</ele>
        <time>2024-08-25T13:15:44Z</time>
      </trkpt>
      <trkpt lat="48.9743" lon="7.89389">
        <ele>170.2</ele>
        <time>2024-08-25T13:15:45Z</time>
      </trkpt>
      <trkpt lat="48.9743" lon="7.89397">
        <ele>170.4</ele>
        <time>2024-08-25T13:15:46Z</time>
      </trkpt>
      <trkpt lat="48.9743" lon="7.89405">
        <ele>170.6</ele>
        <time>2024-08-25T13:15:47Z</time>
      </trkpt>
      <trkpt lat="48.9743" lon="7.89413">
        <ele>170.6</ele>
        <time>2024-08-25T13:15:48Z</time>
      </trkpt>
      <trkpt lat="48.9743" lon="7.89421">
        <ele>170.6</ele>
        <time>2024-08-25T13:15:49Z</time>
      </trkpt>
      <trkpt lat="48.9743" lon="7.89429">
        <ele>170.8</ele>
        <time>2024-08-25T13:15:50Z</time>
      </trkpt>
      <trkpt lat="48.9743" lon="7.89437">
        <ele>171</ele>
        <time>2024-08-25T13:15:51Z</time>
      </trkpt>
      <trkpt lat="48.9743" lon="7.89445">
        <ele>171</ele>
        <time>2024-08-25T13:15:52Z</time>
      </trkpt>
      <trkpt lat="48.97431" lon="7.89453">
        <ele>171.2</ele>
        <time>2024-08-25T13:15:53Z</time>
      </trkpt>
      <trkpt lat="48.97431" lon="7.8946">
        <ele>171.4</ele>
        <time>2024-08-25T13:15:54Z</time>
      </trkpt>
      <trkpt lat="48.97431" lon="7.89468">
        <ele>171.6</ele>
        <time>2024-08-25T13:15:55Z</time>
      </trkpt>
      <trkpt lat="48.97431" lon="7.89475">
        <ele>171.8</ele>
        <time>2024-08-25T13:15:56Z</time>
      </trkpt>
      <trkpt lat="48.97432" lon="7.89481">
        <ele>171.8</ele>
        <time>2024-08-25T13:15:57Z</time>
      </trkpt>
      <trkpt lat="48.97432" lon="7.89488">
        <ele>172</ele>
        <time>2024-08-25T13:15:58Z</time>
      </trkpt>
      <trkpt lat="48.97433" lon="7.89494">
        <ele>172.2</ele>
        <time>2024-08-25T13:15:59Z</time>
      </trkpt>
      <trkpt lat="48.97433" lon="7.89501">
        <ele>172.6</ele>
        <time>2024-08-25T13:16:00Z</time>
      </trkpt>
      <trkpt lat="48.97433" lon="7.89508">
        <ele>173</ele>
        <time>2024-08-25T13:16:01Z</time>
      </trkpt>
      <trkpt lat="48.97433" lon="7.89514">
        <ele>173.2</ele>
        <time>2024-08-25T13:16:02Z</time>
      </trkpt>
      <trkpt lat="48.97433" lon="7.8952">
        <ele>173.6</ele>
        <time>2024-08-25T13:16:03Z</time>
      </trkpt>
      <trkpt lat="48.97433" lon="7.89527">
        <ele>173.8</ele>
        <time>2024-08-25T13:16:04Z</time>
      </trkpt>
      <trkpt lat="48.97433" lon="7.89533">
        <ele>174</ele>
        <time>2024-08-25T13:16:05Z</time>
      </trkpt>
      <trkpt lat="48.97432" lon="7.89539">
        <ele>174.4</ele>
        <time>2024-08-25T13:16:06Z</time>
      </trkpt>
      <trkpt lat="48.97432" lon="7.89545">
        <ele>174.8</ele>
        <time>2024-08-25T13:16:07Z</time>
      </trkpt>
      <trkpt lat="48.97431" lon="7.89551">
        <ele>175</ele>
        <time>2024-08-25T13:16:08Z</time>
      </trkpt>
      <trkpt lat="48.9743" lon="7.89557">
        <ele>175.4</ele>
        <time>2024-08-25T13:16:09Z</time>
      </trkpt>
      <trkpt lat="48.9743" lon="7.89563">
        <ele>175.8</ele>
        <time>2024-08-25T13:16:10Z</time>
      </trkpt>
      <trkpt lat="48.97429" lon="7.89569">
        <ele>176.2</ele>
        <time>2024-08-25T13:16:11Z</time>
      </trkpt>
      <trkpt lat="48.97427" lon="7.89575">
        <ele>176.4</ele>
        <time>2024-08-25T13:16:12Z</time>
      </trkpt>
      <trkpt lat="48.97426" lon="7.8958">
        <ele>176.8</ele>
        <time>2024-08-25T13:16:13Z</time>
      </trkpt>
      <trkpt lat="48.97424" lon="7.89586">
        <ele>177.2</ele>
        <time>2024-08-25T13:16:14Z</time>
      </trkpt>
      <trkpt lat="48.97423" lon="7.89591">
        <ele>177.6</ele>
        <time>2024-08-25T13:16:15Z</time>
      </trkpt>
      <trkpt lat="48.97421" lon="7.89596">
        <ele>177.8</ele>
        <time>2024-08-25T13:16:16Z</time>
      </trkpt>
      <trkpt lat="48.97419" lon="7.89601">
        <ele>178.4</ele>
        <time>2024-08-25T13:16:17Z</time>
      </trkpt>
      <trkpt lat="48.97417" lon="7.89605">
        <ele>178.8</ele>
        <time>2024-08-25T13:16:18Z</time>
      </trkpt>
      <trkpt lat="48.97415" lon="7.8961">
        <ele>179.2</ele>
        <time>2024-08-25T13:16:19Z</time>
      </trkpt>
      <trkpt lat="48.97413" lon="7.89614">
        <ele>179.4</ele>
        <time>2024-08-25T13:16:20Z</time>
      </trkpt>
      <trkpt lat="48.97411" lon="7.89617">
        <ele>180</ele>
        <time>2024-08-25T13:16:21Z</time>
      </trkpt>
      <trkpt lat="48.97409" lon="7.89621">
        <ele>180.4</ele>
        <time>2024-08-25T13:16:22Z</time>
      </trkpt>
      <trkpt lat="48.97406" lon="7.89624">
        <ele>180.6</ele>
        <time>2024-08-25T13:16:23Z</time>
      </trkpt>
      <trkpt lat="48.97404" lon="7.89626">
        <ele>180.8</ele>
        <time>2024-08-25T13:16:24Z</time>
      </trkpt>
      <trkpt lat="48.97401" lon="7.89629">
        <ele>181.4</ele>
        <time>2024-08-25T13:16:25Z</time>
      </trkpt>
      <trkpt lat="48.97399" lon="7.89632">
        <ele>181.6</ele>
        <time>2024-08-25T13:16:26Z</time>
      </trkpt>
      <trkpt lat="48.97396" lon="7.89635">
        <ele>181.8</ele>
        <time>2024-08-25T13:16:27Z</time>
      </trkpt>
      <trkpt lat="48.97393" lon="7.89639">
        <ele>182</ele>
        <time>2024-08-25T13:16:28Z</time>
      </trkpt>
      <trkpt lat="48.97391" lon="7.89643">
        <ele>182</ele>
        <time>2024-08-25T13:16:29Z</time>
      </trkpt>
      <trkpt lat="48.9739" lon="7.89648">
        <ele>182.2</ele>
        <time>2024-08-25T13:16:30Z</time>
      </trkpt>
      <trkpt lat="48.97388" lon="7.89653">
        <ele>182.4</ele>
        <time>2024-08-25T13:16:31Z</time>
      </trkpt>
      <trkpt lat="48.97387" lon="7.89658">
        <ele>182.6</ele>
        <time>2024-08-25T13:16:32Z</time>
      </trkpt>
      <trkpt lat="48.97385" lon="7.89663">
        <ele>182.6</ele>
        <time>2024-08-25T13:16:33Z</time>
      </trkpt>
      <trkpt lat="48.97384" lon="7.89668">
        <ele>182.6</ele>
        <time>2024-08-25T13:16:34Z</time>
      </trkpt>
      <trkpt lat="48.97382" lon="7.89673">
        <ele>182.8</ele>
        <time>2024-08-25T13:16:35Z</time>
      </trkpt>
      <trkpt lat="48.97381" lon="7.89678">
        <ele>183</ele>
        <time>2024-08-25T13:16:36Z</time>
      </trkpt>
      <trkpt lat="48.9738" lon="7.89682">
        <ele>183.2</ele>
        <time>2024-08-25T13:16:37Z</time>
      </trkpt>
      <trkpt lat="48.97379" lon="7.89687">
        <ele>183.4</ele>
        <time>2024-08-25T13:16:38Z</time>
      </trkpt>
      <trkpt lat="48.97377" lon="7.89691">
        <ele>183.4</ele>
        <time>2024-08-25T13:16:39Z</time>
      </trkpt>
      <trkpt lat="48.97376" lon="7.89696">
        <ele>183.6</ele>
        <time>2024-08-25T13:16:40Z</time>
      </trkpt>
      <trkpt lat="48.97375" lon="7.89701">
        <ele>184</ele>
        <time>2024-08-25T13:16:41Z</time>
      </trkpt>
      <trkpt lat="48.97374" lon="7.89704">
        <ele>184</ele>
        <time>2024-08-25T13:16:42Z</time>
      </trkpt>
      <trkpt lat="48.97373" lon="7.89708">
        <ele>184.4</ele>
        <time>2024-08-25T13:16:43Z</time>
      </trkpt>
      <trkpt lat="48.97372" lon="7.89713">
        <ele>184.6</ele>
        <time>2024-08-25T13:16:44Z</time>
      </trkpt>
      <trkpt lat="48.97371" lon="7.89717">
        <ele>184.6</ele>
        <time>2024-08-25T13:16:45Z</time>
      </trkpt>
      <trkpt lat="48.9737" lon="7.89721">
        <ele>184.6</ele>
        <time>2024-08-25T13:16:46Z</time>
      </trkpt>
      <trkpt lat="48.97368" lon="7.89725">
        <ele>184.8</ele>
        <time>2024-08-25T13:16:47Z</time>
      </trkpt>
      <trkpt lat="48.97367" lon="7.8973">
        <ele>185</ele>
        <time>2024-08-25T13:16:48Z</time>
      </trkpt>
      <trkpt lat="48.97365" lon="7.89734">
        <ele>185.2</ele>
        <time>2024-08-25T13:16:49Z</time>
      </trkpt>
      <trkpt lat="48.97364" lon="7.89738">
        <ele>185.2</ele>
        <time>2024-08-25T13:16:50Z</time>
      </trkpt>
      <trkpt lat="48.97363" lon="7.89743">
        <ele>185.4</ele>
        <time>2024-08-25T13:16:51Z</time>
      </trkpt>
      <trkpt lat="48.97361" lon="7.89747">
        <ele>185.4</ele>
        <time>2024-08-25T13:16:52Z</time>
      </trkpt>
      <trkpt lat="48.9736" lon="7.89752">
        <ele>185.6</ele>
        <time>2024-08-25T13:16:53Z</time>
      </trkpt>
      <trkpt lat="48.97358" lon="7.89756">
        <ele>185.6</ele>
        <time>2024-08-25T13:16:54Z</time>
      </trkpt>
      <trkpt lat="48.97357" lon="7.8976">
        <ele>185.6</ele>
        <time>2024-08-25T13:16:55Z</time>
      </trkpt>
      <trkpt lat="48.97356" lon="7.89765">
        <ele>185.6</ele>
        <time>2024-08-25T13:16:56Z</time>
      </trkpt>
      <trkpt lat="48.97354" lon="7.89769">
        <ele>185.8</ele>
        <time>2024-08-25T13:16:57Z</time>
      </trkpt>
      <trkpt lat="48.97353" lon="7.89774">
        <ele>185.8</ele>
        <time>2024-08-25T13:16:58Z</time>
      </trkpt>
      <trkpt lat="48.97351" lon="7.89779">
        <ele>186</ele>
        <time>2024-08-25T13:16:59Z</time>
      </trkpt>
      <trkpt lat="48.97349" lon="7.89783">
        <ele>186</ele>
        <time>2024-08-25T13:17:00Z</time>
      </trkpt>
      <trkpt lat="48.97347" lon="7.89789">
        <ele>186</ele>
        <time>2024-08-25T13:17:01Z</time>
      </trkpt>
      <trkpt lat="48.97345" lon="7.89794">
        <ele>186</ele>
        <time>2024-08-25T13:17:02Z</time>
      </trkpt>
      <trkpt lat="48.97343" lon="7.898">
        <ele>186</ele>
        <time>2024-08-25T13:17:03Z</time>
      </trkpt>
      <trkpt lat="48.9734" lon="7.89805">
        <ele>186</ele>
        <time>2024-08-25T13:17:04Z</time>
      </trkpt>
      <trkpt lat="48.97338" lon="7.89811">
        <ele>185.8</ele>
        <time>2024-08-25T13:17:05Z</time>
      </trkpt>
      <trkpt lat="48.97336" lon="7.89816">
        <ele>185.6</ele>
        <time>2024-08-25T13:17:06Z</time>
      </trkpt>
      <trkpt lat="48.97334" lon="7.89821">
        <ele>185.4</ele>
        <time>2024-08-25T13:17:07Z</time>
      </trkpt>
      <trkpt lat="48.97332" lon="7.89826">
        <ele>185.2</ele>
        <time>2024-08-25T13:17:08Z</time>
      </trkpt>
      <trkpt lat="48.97331" lon="7.89831">
        <ele>185.2</ele>
        <time>2024-08-25T13:17:09Z</time>
      </trkpt>
      <trkpt lat="48.97329" lon="7.89835">
        <ele>185</ele>
        <time>2024-08-25T13:17:10Z</time>
      </trkpt>
      <trkpt lat="48.97328" lon="7.8984">
        <ele>185</ele>
        <time>2024-08-25T13:17:11Z</time>
      </trkpt>
      <trkpt lat="48.97326" lon="7.89844">
        <ele>184.8</ele>
        <time>2024-08-25T13:17:12Z</time>
      </trkpt>
      <trkpt lat="48.97325" lon="7.89849">
        <ele>184.6</ele>
        <time>2024-08-25T13:17:13Z</time>
      </trkpt>
      <trkpt lat="48.97323" lon="7.89854">
        <ele>184.2</ele>
        <time>2024-08-25T13:17:14Z</time>
      </trkpt>
      <trkpt lat="48.97321" lon="7.89859">
        <ele>184.2</ele>
        <time>2024-08-25T13:17:15Z</time>
      </trkpt>
      <trkpt lat="48.97319" lon="7.89863">
        <ele>184</ele>
        <time>2024-08-25T13:17:16Z</time>
      </trkpt>
      <trkpt lat="48.97318" lon="7.89868">
        <ele>183.6</ele>
        <time>2024-08-25T13:17:17Z</time>
      </trkpt>
      <trkpt lat="48.97316" lon="7.89871">
        <ele>183</ele>
        <time>2024-08-25T13:17:18Z</time>
      </trkpt>
      <trkpt lat="48.97315" lon="7.89873">
        <ele>182.8</ele>
        <time>2024-08-25T13:17:19Z</time>
      </trkpt>
      <trkpt lat="48.97314" lon="7.89874">
        <ele>182.4</ele>
        <time>2024-08-25T13:17:20Z</time>
      </trkpt>
      <trkpt lat="48.97313" lon="7.89875">
        <ele>182.2</ele>
        <time>2024-08-25T13:17:21Z</time>
      </trkpt>
      <trkpt lat="48.97313" lon="7.89876">
        <ele>182</ele>
        <time>2024-08-25T13:17:22Z</time>
      </trkpt>
      <trkpt lat="48.97314" lon="7.89876">
        <ele>182</ele>
        <time>2024-08-25T13:17:23Z</time>
      </trkpt>
      <trkpt lat="48.97314" lon="7.89876">
        <ele>182</ele>
        <time>2024-08-25T13:17:24Z</time>
      </trkpt>
      <trkpt lat="48.97313" lon="7.8988">
        <ele>181.2</ele>
        <time>2024-08-25T13:18:08Z</time>
      </trkpt>
      <trkpt lat="48.97311" lon="7.89883">
        <ele>181.2</ele>
        <time>2024-08-25T13:18:09Z</time>
      </trkpt>
      <trkpt lat="48.9731" lon="7.89887">
        <ele>181.2</ele>
        <time>2024-08-25T13:18:10Z</time>
      </trkpt>
      <trkpt lat="48.97308" lon="7.89891">
        <ele>181.2</ele>
        <time>2024-08-25T13:18:11Z</time>
      </trkpt>
      <trkpt lat="48.97305" lon="7.89896">
        <ele>181.2</ele>
        <time>2024-08-25T13:18:12Z</time>
      </trkpt>
      <trkpt lat="48.97303" lon="7.89902">
        <ele>180.8</ele>
        <time>2024-08-25T13:18:13Z</time>
      </trkpt>
      <trkpt lat="48.973" lon="7.89908">
        <ele>180.4</ele>
        <time>2024-08-25T13:18:14Z</time>
      </trkpt>
      <trkpt lat="48.97296" lon="7.89915">
        <ele>180</ele>
        <time>2024-08-25T13:18:15Z</time>
      </trkpt>
      <trkpt lat="48.97292" lon="7.89922">
        <ele>179.4</ele>
        <time>2024-08-25T13:18:16Z</time>
      </trkpt>
      <trkpt lat="48.97289" lon="7.8993">
        <ele>178.8</ele>
        <time>2024-08-25T13:18:17Z</time>
      </trkpt>
      <trkpt lat="48.97285" lon="7.89937">
        <ele>178.2</ele>
        <time>2024-08-25T13:18:18Z</time>
      </trkpt>
      <trkpt lat="48.97281" lon="7.89944">
        <ele>177.8</ele>
        <time>2024-08-25T13:18:19Z</time>
      </trkpt>
      <trkpt lat="48.97277" lon="7.8995">
        <ele>177.2</ele>
        <time>2024-08-25T13:18:20Z</time>
      </trkpt>
      <trkpt lat="48.97273" lon="7.89957">
        <ele>176.4</ele>
        <time>2024-08-25T13:18:21Z</time>
      </trkpt>
      <trkpt lat="48.97268" lon="7.89965">
        <ele>175.6</ele>
        <time>2024-08-25T13:18:22Z</time>
      </trkpt>
      <trkpt lat="48.97264" lon="7.89974">
        <ele>174.8</ele>
        <time>2024-08-25T13:18:23Z</time>
      </trkpt>
      <trkpt lat="48.9726" lon="7.89982">
        <ele>174.2</ele>
        <time>2024-08-25T13:18:24Z</time>
      </trkpt>
      <trkpt lat="48.97256" lon="7.89989">
        <ele>174</ele>
        <time>2024-08-25T13:18:25Z</time>
      </trkpt>
      <trkpt lat="48.97252" lon="7.89995">
        <ele>173.2</ele>
        <time>2024-08-25T13:18:26Z</time>
      </trkpt>
      <trkpt lat="48.97247" lon="7.90002">
        <ele>173</ele>
        <time>2024-08-25T13:18:27Z</time>
      </trkpt>
      <trkpt lat="48.97244" lon="7.90009">
        <ele>172.4</ele>
        <time>2024-08-25T13:18:28Z</time>
      </trkpt>
      <trkpt lat="48.9724" lon="7.90015">
        <ele>172.4</ele>
        <time>2024-08-25T13:18:29Z</time>
      </trkpt>
      <trkpt lat="48.97237" lon="7.90021">
        <ele>172.2</ele>
        <time>2024-08-25T13:18:30Z</time>
      </trkpt>
      <trkpt lat="48.97233" lon="7.90028">
        <ele>171.4</ele>
        <time>2024-08-25T13:18:31Z</time>
      </trkpt>
      <trkpt lat="48.9723" lon="7.90034">
        <ele>171.4</ele>
        <time>2024-08-25T13:18:32Z</time>
      </trkpt>
      <trkpt lat="48.97227" lon="7.90042">
        <ele>171</ele>
        <time>2024-08-25T13:18:33Z</time>
      </trkpt>
      <trkpt lat="48.97224" lon="7.90049">
        <ele>171</ele>
        <time>2024-08-25T13:18:34Z</time>
      </trkpt>
      <trkpt lat="48.97221" lon="7.90058">
        <ele>170.6</ele>
        <time>2024-08-25T13:18:35Z</time>
      </trkpt>
      <trkpt lat="48.97219" lon="7.90068">
        <ele>170.2</ele>
        <time>2024-08-25T13:18:36Z</time>
      </trkpt>
      <trkpt lat="48.97217" lon="7.90078">
        <ele>169.8</ele>
        <time>2024-08-25T13:18:37Z</time>
      </trkpt>
      <trkpt lat="48.97215" lon="7.90088">
        <ele>169.2</ele>
        <time>2024-08-25T13:18:38Z</time>
      </trkpt>
      <trkpt lat="48.97213" lon="7.90099">
        <ele>168.6</ele>
        <time>2024-08-25T13:18:39Z</time>
      </trkpt>
      <trkpt lat="48.97211" lon="7.9011">
        <ele>168.4</ele>
        <time>2024-08-25T13:18:40Z</time>
      </trkpt>
      <trkpt lat="48.97208" lon="7.9012">
        <ele>167.8</ele>
        <time>2024-08-25T13:18:41Z</time>
      </trkpt>
      <trkpt lat="48.97204" lon="7.9013">
        <ele>167.2</ele>
        <time>2024-08-25T13:18:42Z</time>
      </trkpt>
      <trkpt lat="48.97201" lon="7.90139">
        <ele>166.8</ele>
        <time>2024-08-25T13:18:43Z</time>
      </trkpt>
      <trkpt lat="48.97197" lon="7.90149">
        <ele>166.4</ele>
        <time>2024-08-25T13:18:44Z</time>
      </trkpt>
      <trkpt lat="48.97194" lon="7.90159">
        <ele>166.2</ele>
        <time>2024-08-25T13:18:45Z</time>
      </trkpt>
      <trkpt lat="48.9719" lon="7.90168">
        <ele>166</ele>
        <time>2024-08-25T13:18:46Z</time>
      </trkpt>
      <trkpt lat="48.97186" lon="7.90176">
        <ele>165.6</ele>
        <time>2024-08-25T13:18:47Z</time>
      </trkpt>
      <trkpt lat="48.97182" lon="7.90184">
        <ele>165.4</ele>
        <time>2024-08-25T13:18:48Z</time>
      </trkpt>
      <trkpt lat="48.97178" lon="7.90192">
        <ele>165.2</ele>
        <time>2024-08-25T13:18:49Z</time>
      </trkpt>
      <trkpt lat="48.97174" lon="7.902">
        <ele>165.2</ele>
        <time>2024-08-25T13:18:50Z</time>
      </trkpt>
      <trkpt lat="48.9717" lon="7.90209">
        <ele>165</ele>
        <time>2024-08-25T13:18:51Z</time>
      </trkpt>
      <trkpt lat="48.97166" lon="7.90217">
        <ele>164.8</ele>
        <time>2024-08-25T13:18:52Z</time>
      </trkpt>
      <trkpt lat="48.97163" lon="7.90225">
        <ele>164.6</ele>
        <time>2024-08-25T13:18:53Z</time>
      </trkpt>
      <trkpt lat="48.97159" lon="7.90233">
        <ele>164.4</ele>
        <time>2024-08-25T13:18:54Z</time>
      </trkpt>
      <trkpt lat="48.97156" lon="7.9024">
        <ele>164.4</ele>
        <time>2024-08-25T13:18:55Z</time>
      </trkpt>
      <trkpt lat="48.97152" lon="7.90248">
        <ele>164.4</ele>
        <time>2024-08-25T13:18:56Z</time>
      </trkpt>
      <trkpt lat="48.97148" lon="7.90255">
        <ele>164.2</ele>
        <time>2024-08-25T13:18:57Z</time>
      </trkpt>
      <trkpt lat="48.97144" lon="7.90261">
        <ele>164</ele>
        <time>2024-08-25T13:18:58Z</time>
      </trkpt>
      <trkpt lat="48.97141" lon="7.90268">
        <ele>164</ele>
        <time>2024-08-25T13:18:59Z</time>
      </trkpt>
      <trkpt lat="48.97137" lon="7.90275">
        <ele>164</ele>
        <time>2024-08-25T13:19:00Z</time>
      </trkpt>
      <trkpt lat="48.97132" lon="7.90282">
        <ele>164</ele>
        <time>2024-08-25T13:19:01Z</time>
      </trkpt>
      <trkpt lat="48.97128" lon="7.90289">
        <ele>164</ele>
        <time>2024-08-25T13:19:02Z</time>
      </trkpt>
      <trkpt lat="48.97125" lon="7.90297">
        <ele>163.8</ele>
        <time>2024-08-25T13:19:03Z</time>
      </trkpt>
      <trkpt lat="48.97122" lon="7.90305">
        <ele>163.8</ele>
        <time>2024-08-25T13:19:04Z</time>
      </trkpt>
      <trkpt lat="48.9712" lon="7.90313">
        <ele>163.8</ele>
        <time>2024-08-25T13:19:05Z</time>
      </trkpt>
      <trkpt lat="48.97117" lon="7.90321">
        <ele>163.6</ele>
        <time>2024-08-25T13:19:06Z</time>
      </trkpt>
      <trkpt lat="48.97116" lon="7.90329">
        <ele>163.6</ele>
        <time>2024-08-25T13:19:07Z</time>
      </trkpt>
      <trkpt lat="48.97114" lon="7.90338">
        <ele>163.6</ele>
        <time>2024-08-25T13:19:08Z</time>
      </trkpt>
      <trkpt lat="48.97114" lon="7.90346">
        <ele>163.8</ele>
        <time>2024-08-25T13:19:09Z</time>
      </trkpt>
      <trkpt lat="48.97112" lon="7.90354">
        <ele>163.8</ele>
        <time>2024-08-25T13:19:10Z</time>
      </trkpt>
      <trkpt lat="48.97111" lon="7.90363">
        <ele>163.8</ele>
        <time>2024-08-25T13:19:11Z</time>
      </trkpt>
      <trkpt lat="48.9711" lon="7.90371">
        <ele>163.8</ele>
        <time>2024-08-25T13:19:12Z</time>
      </trkpt>
      <trkpt lat="48.97109" lon="7.90379">
        <ele>164</ele>
        <time>2024-08-25T13:19:13Z</time>
      </trkpt>
      <trkpt lat="48.97108" lon="7.90386">
        <ele>164</ele>
        <time>2024-08-25T13:19:14Z</time>
      </trkpt>
      <trkpt lat="48.97106" lon="7.90394">
        <ele>164</ele>
        <time>2024-08-25T13:19:15Z</time>
      </trkpt>
      <trkpt lat="48.97105" lon="7.90402">
        <ele>164.2</ele>
        <time>2024-08-25T13:19:16Z</time>
      </trkpt>
      <trkpt lat="48.97104" lon="7.9041">
        <ele>164.2</ele>
        <time>2024-08-25T13:19:17Z</time>
      </trkpt>
      <trkpt lat="48.97103" lon="7.90418">
        <ele>164.4</ele>
        <time>2024-08-25T13:19:18Z</time>
      </trkpt>
      <trkpt lat="48.97102" lon="7.90425">
        <ele>164.8</ele>
        <time>2024-08-25T13:19:19Z</time>
      </trkpt>
      <trkpt lat="48.97101" lon="7.90433">
        <ele>165</ele>
        <time>2024-08-25T13:19:20Z</time>
      </trkpt>
      <trkpt lat="48.97099" lon="7.9044">
        <ele>165.2</ele>
        <time>2024-08-25T13:19:21Z</time>
      </trkpt>
      <trkpt lat="48.97098" lon="7.90447">
        <ele>165.4</ele>
        <time>2024-08-25T13:19:22Z</time>
      </trkpt>
      <trkpt lat="48.97098" lon="7.90454">
        <ele>166</ele>
        <time>2024-08-25T13:19:23Z</time>
      </trkpt>
      <trkpt lat="48.97096" lon="7.90461">
        <ele>166.2</ele>
        <time>2024-08-25T13:19:24Z</time>
      </trkpt>
      <trkpt lat="48.97095" lon="7.90467">
        <ele>166.8</ele>
        <time>2024-08-25T13:19:25Z</time>
      </trkpt>
      <trkpt lat="48.97094" lon="7.90474">
        <ele>167</ele>
        <time>2024-08-25T13:19:26Z</time>
      </trkpt>
      <trkpt lat="48.97093" lon="7.90481">
        <ele>167.4</ele>
        <time>2024-08-25T13:19:27Z</time>
      </trkpt>
      <trkpt lat="48.97092" lon="7.90487">
        <ele>167.8</ele>
        <time>2024-08-25T13:19:28Z</time>
      </trkpt>
      <trkpt lat="48.97091" lon="7.90494">
        <ele>168</ele>
        <time>2024-08-25T13:19:29Z</time>
      </trkpt>
      <trkpt lat="48.97091" lon="7.905">
        <ele>168.4</ele>
        <time>2024-08-25T13:19:30Z</time>
      </trkpt>
      <trkpt lat="48.9709" lon="7.90505">
        <ele>168.8</ele>
        <time>2024-08-25T13:19:31Z</time>
      </trkpt>
      <trkpt lat="48.97089" lon="7.9051">
        <ele>169</ele>
        <time>2024-08-25T13:19:32Z</time>
      </trkpt>
      <trkpt lat="48.97089" lon="7.90516">
        <ele>169.4</ele>
        <time>2024-08-25T13:19:33Z</time>
      </trkpt>
      <trkpt lat="48.97088" lon="7.90521">
        <ele>169.6</ele>
        <time>2024-08-25T13:19:34Z</time>
      </trkpt>
      <trkpt lat="48.97087" lon="7.90525">
        <ele>170</ele>
        <time>2024-08-25T13:19:35Z</time>
      </trkpt>
      <trkpt lat="48.97087" lon="7.9053">
        <ele>170.4</ele>
        <time>2024-08-25T13:19:36Z</time>
      </trkpt>
      <trkpt lat="48.97086" lon="7.90535">
        <ele>170.4</ele>
        <time>2024-08-25T13:19:37Z</time>
      </trkpt>
      <trkpt lat="48.97084" lon="7.9054">
        <ele>171</ele>
        <time>2024-08-25T13:19:38Z</time>
      </trkpt>
      <trkpt lat="48.97082" lon="7.90543">
        <ele>171.2</ele>
        <time>2024-08-25T13:19:39Z</time>
      </trkpt>
      <trkpt lat="48.9708" lon="7.90547">
        <ele>171.2</ele>
        <time>2024-08-25T13:19:40Z</time>
      </trkpt>
      <trkpt lat="48.97078" lon="7.90549">
        <ele>171.6</ele>
        <time>2024-08-25T13:19:41Z</time>
      </trkpt>
      <trkpt lat="48.97075" lon="7.90552">
        <ele>172</ele>
        <time>2024-08-25T13:19:42Z</time>
      </trkpt>
      <trkpt lat="48.97072" lon="7.90554">
        <ele>172</ele>
        <time>2024-08-25T13:19:43Z</time>
      </trkpt>
      <trkpt lat="48.9707" lon="7.90556">
        <ele>172.2</ele>
        <time>2024-08-25T13:19:44Z</time>
      </trkpt>
      <trkpt lat="48.97067" lon="7.90558">
        <ele>172.6</ele>
        <time>2024-08-25T13:19:45Z</time>
      </trkpt>
      <trkpt lat="48.97065" lon="7.90559">
        <ele>172.8</ele>
        <time>2024-08-25T13:19:46Z</time>
      </trkpt>
      <trkpt lat="48.97063" lon="7.90561">
        <ele>172.8</ele>
        <time>2024-08-25T13:19:47Z</time>
      </trkpt>
      <trkpt lat="48.9706" lon="7.90562">
        <ele>173</ele>
        <time>2024-08-25T13:19:48Z</time>
      </trkpt>
      <trkpt lat="48.97058" lon="7.90563">
        <ele>173.4</ele>
        <time>2024-08-25T13:19:49Z</time>
      </trkpt>
      <trkpt lat="48.97055" lon="7.90564">
        <ele>173.6</ele>
        <time>2024-08-25T13:19:50Z</time>
      </trkpt>
      <trkpt lat="48.97053" lon="7.90565">
        <ele>173.8</ele>
        <time>2024-08-25T13:19:51Z</time>
      </trkpt>
      <trkpt lat="48.97051" lon="7.90566">
        <ele>174</ele>
        <time>2024-08-25T13:19:52Z</time>
      </trkpt>
      <trkpt lat="48.97048" lon="7.90567">
        <ele>174</ele>
        <time>2024-08-25T13:19:53Z</time>
      </trkpt>
      <trkpt lat="48.97046" lon="7.90568">
        <ele>174.2</ele>
        <time>2024-08-25T13:19:54Z</time>
      </trkpt>
      <trkpt lat="48.97043" lon="7.90569">
        <ele>174.4</ele>
        <time>2024-08-25T13:19:55Z</time>
      </trkpt>
      <trkpt lat="48.9704" lon="7.9057">
        <ele>174.6</ele>
        <time>2024-08-25T13:19:56Z</time>
      </trkpt>
      <trkpt lat="48.97038" lon="7.90571">
        <ele>175</ele>
        <time>2024-08-25T13:19:57Z</time>
      </trkpt>
      <trkpt lat="48.97035" lon="7.90573">
        <ele>175.2</ele>
        <time>2024-08-25T13:19:58Z</time>
      </trkpt>
      <trkpt lat="48.97032" lon="7.90573">
        <ele>175.6</ele>
        <time>2024-08-25T13:19:59Z</time>
      </trkpt>
      <trkpt lat="48.9703" lon="7.90575">
        <ele>175.6</ele>
        <time>2024-08-25T13:20:00Z</time>
      </trkpt>
      <trkpt lat="48.97027" lon="7.90576">
        <ele>175.8</ele>
        <time>2024-08-25T13:20:01Z</time>
      </trkpt>
      <trkpt lat="48.97025" lon="7.90578">
        <ele>175.8</ele>
        <time>2024-08-25T13:20:02Z</time>
      </trkpt>
      <trkpt lat="48.97022" lon="7.9058">
        <ele>176</ele>
        <time>2024-08-25T13:20:03Z</time>
      </trkpt>
      <trkpt lat="48.97019" lon="7.90582">
        <ele>176.2</ele>
        <time>2024-08-25T13:20:04Z</time>
      </trkpt>
      <trkpt lat="48.97016" lon="7.90584">
        <ele>176.2</ele>
        <time>2024-08-25T13:20:05Z</time>
      </trkpt>
      <trkpt lat="48.97014" lon="7.90586">
        <ele>176.6</ele>
        <time>2024-08-25T13:20:06Z</time>
      </trkpt>
      <trkpt lat="48.97012" lon="7.90589">
        <ele>176.8</ele>
        <time>2024-08-25T13:20:07Z</time>
      </trkpt>
      <trkpt lat="48.9701" lon="7.90591">
        <ele>176.8</ele>
        <time>2024-08-25T13:20:08Z</time>
      </trkpt>
      <trkpt lat="48.97008" lon="7.90594">
        <ele>177</ele>
        <time>2024-08-25T13:20:09Z</time>
      </trkpt>
      <trkpt lat="48.97006" lon="7.90597">
        <ele>177</ele>
        <time>2024-08-25T13:20:10Z</time>
      </trkpt>
      <trkpt lat="48.97005" lon="7.906">
        <ele>177.2</ele>
        <time>2024-08-25T13:20:11Z</time>
      </trkpt>
      <trkpt lat="48.97004" lon="7.90604">
        <ele>177.4</ele>
        <time>2024-08-25T13:20:12Z</time>
      </trkpt>
      <trkpt lat="48.97002" lon="7.90607">
        <ele>177.6</ele>
        <time>2024-08-25T13:20:13Z</time>
      </trkpt>
      <trkpt lat="48.97001" lon="7.90611">
        <ele>177.8</ele>
        <time>2024-08-25T13:20:14Z</time>
      </trkpt>
      <trkpt lat="48.97" lon="7.90615">
        <ele>178</ele>
        <time>2024-08-25T13:20:15Z</time>
      </trkpt>
      <trkpt lat="48.96999" lon="7.90619">
        <ele>178</ele>
        <time>2024-08-25T13:20:16Z</time>
      </trkpt>
      <trkpt lat="48.96998" lon="7.90623">
        <ele>178</ele>
        <time>2024-08-25T13:20:17Z</time>
      </trkpt>
      <trkpt lat="48.96996" lon="7.90627">
        <ele>178.2</ele>
        <time>2024-08-25T13:20:18Z</time>
      </trkpt>
      <trkpt lat="48.96995" lon="7.90631">
        <ele>178.2</ele>
        <time>2024-08-25T13:20:19Z</time>
      </trkpt>
      <trkpt lat="48.96993" lon="7.90636">
        <ele>178.4</ele>
        <time>2024-08-25T13:20:20Z</time>
      </trkpt>
      <trkpt lat="48.96992" lon="7.9064">
        <ele>178.4</ele>
        <time>2024-08-25T13:20:21Z</time>
      </trkpt>
      <trkpt lat="48.9699" lon="7.90644">
        <ele>178.4</ele>
        <time>2024-08-25T13:20:22Z</time>
      </trkpt>
      <trkpt lat="48.96988" lon="7.90647">
        <ele>178.4</ele>
        <time>2024-08-25T13:20:23Z</time>
      </trkpt>
      <trkpt lat="48.96986" lon="7.90652">
        <ele>178.4</ele>
        <time>2024-08-25T13:20:24Z</time>
      </trkpt>
      <trkpt lat="48.96984" lon="7.90656">
        <ele>178.6</ele>
        <time>2024-08-25T13:20:25Z</time>
      </trkpt>
      <trkpt lat="48.96983" lon="7.9066">
        <ele>178.8</ele>
        <time>2024-08-25T13:20:26Z</time>
      </trkpt>
      <trkpt lat="48.96981" lon="7.90663">
        <ele>179</ele>
        <time>2024-08-25T13:20:27Z</time>
      </trkpt>
      <trkpt lat="48.9698" lon="7.90667">
        <ele>179</ele>
        <time>2024-08-25T13:20:28Z</time>
      </trkpt>
      <trkpt lat="48.96978" lon="7.90671">
        <ele>179</ele>
        <time>2024-08-25T13:20:29Z</time>
      </trkpt>
      <trkpt lat="48.96976" lon="7.90674">
        <ele>179</ele>
        <time>2024-08-25T13:20:30Z</time>
      </trkpt>
      <trkpt lat="48.96975" lon="7.90678">
        <ele>179.4</ele>
        <time>2024-08-25T13:20:31Z</time>
      </trkpt>
      <trkpt lat="48.96973" lon="7.90681">
        <ele>179.4</ele>
        <time>2024-08-25T13:20:32Z</time>
      </trkpt>
      <trkpt lat="48.96971" lon="7.90685">
        <ele>179.6</ele>
        <time>2024-08-25T13:20:33Z</time>
      </trkpt>
      <trkpt lat="48.96969" lon="7.90689">
        <ele>179.8</ele>
        <time>2024-08-25T13:20:34Z</time>
      </trkpt>
      <trkpt lat="48.96968" lon="7.90694">
        <ele>180</ele>
        <time>2024-08-25T13:20:35Z</time>
      </trkpt>
      <trkpt lat="48.96966" lon="7.90698">
        <ele>180.2</ele>
        <time>2024-08-25T13:20:36Z</time>
      </trkpt>
      <trkpt lat="48.96964" lon="7.90701">
        <ele>180.2</ele>
        <time>2024-08-25T13:20:37Z</time>
      </trkpt>
      <trkpt lat="48.96963" lon="7.90705">
        <ele>180.2</ele>
        <time>2024-08-25T13:20:38Z</time>
      </trkpt>
      <trkpt lat="48.96961" lon="7.90708">
        <ele>180.4</ele>
        <time>2024-08-25T13:20:39Z</time>
      </trkpt>
      <trkpt lat="48.9696" lon="7.90712">
        <ele>180.6</ele>
        <time>2024-08-25T13:20:40Z</time>
      </trkpt>
      <trkpt lat="48.96959" lon="7.90715">
        <ele>181</ele>
        <time>2024-08-25T13:20:41Z</time>
      </trkpt>
      <trkpt lat="48.96957" lon="7.90718">
        <ele>181</ele>
        <time>2024-08-25T13:20:42Z</time>
      </trkpt>
      <trkpt lat="48.96956" lon="7.90721">
        <ele>181.2</ele>
        <time>2024-08-25T13:20:43Z</time>
      </trkpt>
      <trkpt lat="48.96955" lon="7.90725">
        <ele>181.6</ele>
        <time>2024-08-25T13:20:44Z</time>
      </trkpt>
      <trkpt lat="48.96953" lon="7.90729">
        <ele>181.8</ele>
        <time>2024-08-25T13:20:45Z</time>
      </trkpt>
      <trkpt lat="48.96952" lon="7.90732">
        <ele>182</ele>
        <time>2024-08-25T13:20:46Z</time>
      </trkpt>
      <trkpt lat="48.9695" lon="7.90735">
        <ele>182</ele>
        <time>2024-08-25T13:20:47Z</time>
      </trkpt>
      <trkpt lat="48.96949" lon="7.90738">
        <ele>182.4</ele>
        <time>2024-08-25T13:20:48Z</time>
      </trkpt>
      <trkpt lat="48.96948" lon="7.90742">
        <ele>182.8</ele>
        <time>2024-08-25T13:20:49Z</time>
      </trkpt>
      <trkpt lat="48.96946" lon="7.90746">
        <ele>183</ele>
        <time>2024-08-25T13:20:50Z</time>
      </trkpt>
      <trkpt lat="48.96945" lon="7.90749">
        <ele>183</ele>
        <time>2024-08-25T13:20:51Z</time>
      </trkpt>
      <trkpt lat="48.96943" lon="7.90753">
        <ele>183.2</ele>
        <time>2024-08-25T13:20:52Z</time>
      </trkpt>
      <trkpt lat="48.96942" lon="7.90756">
        <ele>183.2</ele>
        <time>2024-08-25T13:20:53Z</time>
      </trkpt>
      <trkpt lat="48.9694" lon="7.9076">
        <ele>183.2</ele>
        <time>2024-08-25T13:20:54Z</time>
      </trkpt>
      <trkpt lat="48.96939" lon="7.90763">
        <ele>183.4</ele>
        <time>2024-08-25T13:20:55Z</time>
      </trkpt>
      <trkpt lat="48.96937" lon="7.90767">
        <ele>183.4</ele>
        <time>2024-08-25T13:20:56Z</time>
      </trkpt>
      <trkpt lat="48.96935" lon="7.9077">
        <ele>183.6</ele>
        <time>2024-08-25T13:20:57Z</time>
      </trkpt>
      <trkpt lat="48.96934" lon="7.90773">
        <ele>183.8</ele>
        <time>2024-08-25T13:20:58Z</time>
      </trkpt>
      <trkpt lat="48.96932" lon="7.90777">
        <ele>184</ele>
        <time>2024-08-25T13:20:59Z</time>
      </trkpt>
      <trkpt lat="48.96931" lon="7.90781">
        <ele>184.2</ele>
        <time>2024-08-25T13:21:00Z</time>
      </trkpt>
      <trkpt lat="48.96929" lon="7.90784">
        <ele>184.4</ele>
        <time>2024-08-25T13:21:01Z</time>
      </trkpt>
      <trkpt lat="48.96927" lon="7.90788">
        <ele>184.4</ele>
        <time>2024-08-25T13:21:02Z</time>
      </trkpt>
      <trkpt lat="48.96925" lon="7.90792">
        <ele>184.6</ele>
        <time>2024-08-25T13:21:03Z</time>
      </trkpt>
      <trkpt lat="48.96924" lon="7.90797">
        <ele>184.6</ele>
        <time>2024-08-25T13:21:04Z</time>
      </trkpt>
      <trkpt lat="48.96922" lon="7.90801">
        <ele>184.6</ele>
        <time>2024-08-25T13:21:05Z</time>
      </trkpt>
      <trkpt lat="48.9692" lon="7.90805">
        <ele>184.8</ele>
        <time>2024-08-25T13:21:06Z</time>
      </trkpt>
      <trkpt lat="48.96919" lon="7.9081">
        <ele>185</ele>
        <time>2024-08-25T13:21:07Z</time>
      </trkpt>
      <trkpt lat="48.96917" lon="7.90814">
        <ele>185</ele>
        <time>2024-08-25T13:21:08Z</time>
      </trkpt>
      <trkpt lat="48.96915" lon="7.90818">
        <ele>185</ele>
        <time>2024-08-25T13:21:09Z</time>
      </trkpt>
      <trkpt lat="48.96914" lon="7.90823">
        <ele>185.2</ele>
        <time>2024-08-25T13:21:10Z</time>
      </trkpt>
      <trkpt lat="48.96913" lon="7.90827">
        <ele>185.2</ele>
        <time>2024-08-25T13:21:11Z</time>
      </trkpt>
      <trkpt lat="48.96911" lon="7.9083">
        <ele>185.2</ele>
        <time>2024-08-25T13:21:12Z</time>
      </trkpt>
      <trkpt lat="48.9691" lon="7.90834">
        <ele>185.4</ele>
        <time>2024-08-25T13:21:13Z</time>
      </trkpt>
      <trkpt lat="48.96908" lon="7.90837">
        <ele>185.6</ele>
        <time>2024-08-25T13:21:14Z</time>
      </trkpt>
      <trkpt lat="48.96907" lon="7.90841">
        <ele>186</ele>
        <time>2024-08-25T13:21:15Z</time>
      </trkpt>
      <trkpt lat="48.96906" lon="7.90845">
        <ele>186</ele>
        <time>2024-08-25T13:21:16Z</time>
      </trkpt>
      <trkpt lat="48.96904" lon="7.90849">
        <ele>186.2</ele>
        <time>2024-08-25T13:21:17Z</time>
      </trkpt>
      <trkpt lat="48.96903" lon="7.90852">
        <ele>186.4</ele>
        <time>2024-08-25T13:21:18Z</time>
      </trkpt>
      <trkpt lat="48.96901" lon="7.90855">
        <ele>186.8</ele>
        <time>2024-08-25T13:21:19Z</time>
      </trkpt>
      <trkpt lat="48.969" lon="7.90859">
        <ele>187</ele>
        <time>2024-08-25T13:21:20Z</time>
      </trkpt>
      <trkpt lat="48.96898" lon="7.90863">
        <ele>187.2</ele>
        <time>2024-08-25T13:21:21Z</time>
      </trkpt>
      <trkpt lat="48.96897" lon="7.90866">
        <ele>187.4</ele>
        <time>2024-08-25T13:21:22Z</time>
      </trkpt>
      <trkpt lat="48.96896" lon="7.9087">
        <ele>187.8</ele>
        <time>2024-08-25T13:21:23Z</time>
      </trkpt>
      <trkpt lat="48.96894" lon="7.90873">
        <ele>187.8</ele>
        <time>2024-08-25T13:21:24Z</time>
      </trkpt>
      <trkpt lat="48.96893" lon="7.90876">
        <ele>188.2</ele>
        <time>2024-08-25T13:21:25Z</time>
      </trkpt>
      <trkpt lat="48.96892" lon="7.90879">
        <ele>188.4</ele>
        <time>2024-08-25T13:21:26Z</time>
      </trkpt>
      <trkpt lat="48.9689" lon="7.90882">
        <ele>188.6</ele>
        <time>2024-08-25T13:21:27Z</time>
      </trkpt>
      <trkpt lat="48.96889" lon="7.90885">
        <ele>188.8</ele>
        <time>2024-08-25T13:21:28Z</time>
      </trkpt>
      <trkpt lat="48.96888" lon="7.90888">
        <ele>189.2</ele>
        <time>2024-08-25T13:21:29Z</time>
      </trkpt>
      <trkpt lat="48.96887" lon="7.90891">
        <ele>189.4</ele>
        <time>2024-08-25T13:21:30Z</time>
      </trkpt>
      <trkpt lat="48.96885" lon="7.90894">
        <ele>189.6</ele>
        <time>2024-08-25T13:21:31Z</time>
      </trkpt>
      <trkpt lat="48.96884" lon="7.90897">
        <ele>189.8</ele>
        <time>2024-08-25T13:21:32Z</time>
      </trkpt>
      <trkpt lat="48.96883" lon="7.909">
        <ele>190.2</ele>
        <time>2024-08-25T13:21:33Z</time>
      </trkpt>
      <trkpt lat="48.96882" lon="7.90902">
        <ele>190.6</ele>
        <time>2024-08-25T13:21:34Z</time>
      </trkpt>
      <trkpt lat="48.96881" lon="7.90904">
        <ele>190.8</ele>
        <time>2024-08-25T13:21:35Z</time>
      </trkpt>
      <trkpt lat="48.9688" lon="7.90907">
        <ele>191</ele>
        <time>2024-08-25T13:21:36Z</time>
      </trkpt>
      <trkpt lat="48.96879" lon="7.9091">
        <ele>191.2</ele>
        <time>2024-08-25T13:21:37Z</time>
      </trkpt>
      <trkpt lat="48.96878" lon="7.90913">
        <ele>191.4</ele>
        <time>2024-08-25T13:21:38Z</time>
      </trkpt>
      <trkpt lat="48.96877" lon="7.90916">
        <ele>191.8</ele>
        <time>2024-08-25T13:21:39Z</time>
      </trkpt>
      <trkpt lat="48.96876" lon="7.90919">
        <ele>192</ele>
        <time>2024-08-25T13:21:40Z</time>
      </trkpt>
      <trkpt lat="48.96875" lon="7.90922">
        <ele>192.2</ele>
        <time>2024-08-25T13:21:41Z</time>
      </trkpt>
      <trkpt lat="48.96874" lon="7.90925">
        <ele>192.6</ele>
        <time>2024-08-25T13:21:42Z</time>
      </trkpt>
      <trkpt lat="48.96873" lon="7.90928">
        <ele>192.8</ele>
        <time>2024-08-25T13:21:43Z</time>
      </trkpt>
      <trkpt lat="48.96872" lon="7.90932">
        <ele>193</ele>
        <time>2024-08-25T13:21:44Z</time>
      </trkpt>
      <trkpt lat="48.96871" lon="7.90935">
        <ele>193.2</ele>
        <time>2024-08-25T13:21:45Z</time>
      </trkpt>
      <trkpt lat="48.96869" lon="7.90938">
        <ele>193.4</ele>
        <time>2024-08-25T13:21:46Z</time>
      </trkpt>
      <trkpt lat="48.96867" lon="7.9094">
        <ele>193.6</ele>
        <time>2024-08-25T13:21:47Z</time>
      </trkpt>
      <trkpt lat="48.96866" lon="7.90943">
        <ele>194</ele>
        <time>2024-08-25T13:21:48Z</time>
      </trkpt>
      <trkpt lat="48.96865" lon="7.90946">
        <ele>194.2</ele>
        <time>2024-08-25T13:21:49Z</time>
      </trkpt>
      <trkpt lat="48.96864" lon="7.90948">
        <ele>194.6</ele>
        <time>2024-08-25T13:21:50Z</time>
      </trkpt>
      <trkpt lat="48.96863" lon="7.90952">
        <ele>194.8</ele>
        <time>2024-08-25T13:21:51Z</time>
      </trkpt>
      <trkpt lat="48.96861" lon="7.90956">
        <ele>195</ele>
        <time>2024-08-25T13:21:52Z</time>
      </trkpt>
      <trkpt lat="48.96859" lon="7.90959">
        <ele>195.2</ele>
        <time>2024-08-25T13:21:53Z</time>
      </trkpt>
      <trkpt lat="48.96857" lon="7.90962">
        <ele>195.6</ele>
        <time>2024-08-25T13:21:54Z</time>
      </trkpt>
      <trkpt lat="48.96856" lon="7.90965">
        <ele>195.8</ele>
        <time>2024-08-25T13:21:55Z</time>
      </trkpt>
      <trkpt lat="48.96854" lon="7.90968">
        <ele>196</ele>
        <time>2024-08-25T13:21:56Z</time>
      </trkpt>
      <trkpt lat="48.96853" lon="7.90971">
        <ele>196.2</ele>
        <time>2024-08-25T13:21:57Z</time>
      </trkpt>
      <trkpt lat="48.96852" lon="7.90974">
        <ele>196.4</ele>
        <time>2024-08-25T13:21:58Z</time>
      </trkpt>
      <trkpt lat="48.9685" lon="7.90977">
        <ele>196.6</ele>
        <time>2024-08-25T13:21:59Z</time>
      </trkpt>
      <trkpt lat="48.96849" lon="7.9098">
        <ele>197</ele>
        <time>2024-08-25T13:22:00Z</time>
      </trkpt>
      <trkpt lat="48.96848" lon="7.90983">
        <ele>197.2</ele>
        <time>2024-08-25T13:22:01Z</time>
      </trkpt>
      <trkpt lat="48.96847" lon="7.90986">
        <ele>197.4</ele>
        <time>2024-08-25T13:22:02Z</time>
      </trkpt>
      <trkpt lat="48.96845" lon="7.90989">
        <ele>197.6</ele>
        <time>2024-08-25T13:22:03Z</time>
      </trkpt>
      <trkpt lat="48.96844" lon="7.90993">
        <ele>197.8</ele>
        <time>2024-08-25T13:22:04Z</time>
      </trkpt>
      <trkpt lat="48.96842" lon="7.90997">
        <ele>198</ele>
        <time>2024-08-25T13:22:05Z</time>
      </trkpt>
      <trkpt lat="48.96841" lon="7.91">
        <ele>198.2</ele>
        <time>2024-08-25T13:22:06Z</time>
      </trkpt>
      <trkpt lat="48.9684" lon="7.91004">
        <ele>198.4</ele>
        <time>2024-08-25T13:22:07Z</time>
      </trkpt>
      <trkpt lat="48.96838" lon="7.91006">
        <ele>198.6</ele>
        <time>2024-08-25T13:22:08Z</time>
      </trkpt>
      <trkpt lat="48.96836" lon="7.91009">
        <ele>198.8</ele>
        <time>2024-08-25T13:22:09Z</time>
      </trkpt>
      <trkpt lat="48.96835" lon="7.91012">
        <ele>199</ele>
        <time>2024-08-25T13:22:10Z</time>
      </trkpt>
      <trkpt lat="48.96834" lon="7.91014">
        <ele>199.2</ele>
        <time>2024-08-25T13:22:11Z</time>
      </trkpt>
      <trkpt lat="48.96833" lon="7.91017">
        <ele>199.4</ele>
        <time>2024-08-25T13:22:12Z</time>
      </trkpt>
      <trkpt lat="48.96831" lon="7.9102">
        <ele>199.6</ele>
        <time>2024-08-25T13:22:13Z</time>
      </trkpt>
      <trkpt lat="48.9683" lon="7.91024">
        <ele>199.6</ele>
        <time>2024-08-25T13:22:14Z</time>
      </trkpt>
      <trkpt lat="48.96829" lon="7.91028">
        <ele>199.8</ele>
        <time>2024-08-25T13:22:15Z</time>
      </trkpt>
      <trkpt lat="48.96827" lon="7.91032">
        <ele>200</ele>
        <time>2024-08-25T13:22:16Z</time>
      </trkpt>
      <trkpt lat="48.96826" lon="7.91035">
        <ele>200.4</ele>
        <time>2024-08-25T13:22:17Z</time>
      </trkpt>
      <trkpt lat="48.96825" lon="7.91038">
        <ele>200.4</ele>
        <time>2024-08-25T13:22:18Z</time>
      </trkpt>
      <trkpt lat="48.96824" lon="7.91041">
        <ele>200.6</ele>
        <time>2024-08-25T13:22:19Z</time>
      </trkpt>
      <trkpt lat="48.96823" lon="7.91044">
        <ele>200.6</ele>
        <time>2024-08-25T13:22:20Z</time>
      </trkpt>
      <trkpt lat="48.96821" lon="7.91048">
        <ele>200.8</ele>
        <time>2024-08-25T13:22:21Z</time>
      </trkpt>
      <trkpt lat="48.96819" lon="7.91052">
        <ele>201.2</ele>
        <time>2024-08-25T13:22:22Z</time>
      </trkpt>
      <trkpt lat="48.96819" lon="7.91056">
        <ele>201.2</ele>
        <time>2024-08-25T13:22:23Z</time>
      </trkpt>
      <trkpt lat="48.96817" lon="7.91059">
        <ele>201.4</ele>
        <time>2024-08-25T13:22:24Z</time>
      </trkpt>
      <trkpt lat="48.96815" lon="7.91063">
        <ele>201.8</ele>
        <time>2024-08-25T13:22:25Z</time>
      </trkpt>
      <trkpt lat="48.96814" lon="7.91067">
        <ele>201.8</ele>
        <time>2024-08-25T13:22:26Z</time>
      </trkpt>
      <trkpt lat="48.96812" lon="7.9107">
        <ele>201.8</ele>
        <time>2024-08-25T13:22:27Z</time>
      </trkpt>
      <trkpt lat="48.96811" lon="7.91073">
        <ele>202</ele>
        <time>2024-08-25T13:22:28Z</time>
      </trkpt>
      <trkpt lat="48.96809" lon="7.91077">
        <ele>202.2</ele>
        <time>2024-08-25T13:22:29Z</time>
      </trkpt>
      <trkpt lat="48.96808" lon="7.91081">
        <ele>202.2</ele>
        <time>2024-08-25T13:22:30Z</time>
      </trkpt>
      <trkpt lat="48.96807" lon="7.91085">
        <ele>202.4</ele>
        <time>2024-08-25T13:22:31Z</time>
      </trkpt>
      <trkpt lat="48.96806" lon="7.91088">
        <ele>202.6</ele>
        <time>2024-08-25T13:22:32Z</time>
      </trkpt>
      <trkpt lat="48.96804" lon="7.91092">
        <ele>202.6</ele>
        <time>2024-08-25T13:22:33Z</time>
      </trkpt>
      <trkpt lat="48.96803" lon="7.91095">
        <ele>202.8</ele>
        <time>2024-08-25T13:22:34Z</time>
      </trkpt>
      <trkpt lat="48.96801" lon="7.91098">
        <ele>203</ele>
        <time>2024-08-25T13:22:35Z</time>
      </trkpt>
      <trkpt lat="48.968" lon="7.91102">
        <ele>203.2</ele>
        <time>2024-08-25T13:22:36Z</time>
      </trkpt>
      <trkpt lat="48.96799" lon="7.91105">
        <ele>203.2</ele>
        <time>2024-08-25T13:22:37Z</time>
      </trkpt>
      <trkpt lat="48.96797" lon="7.91109">
        <ele>203.4</ele>
        <time>2024-08-25T13:22:38Z</time>
      </trkpt>
      <trkpt lat="48.96795" lon="7.91112">
        <ele>203.4</ele>
        <time>2024-08-25T13:22:39Z</time>
      </trkpt>
      <trkpt lat="48.96793" lon="7.91115">
        <ele>203.8</ele>
        <time>2024-08-25T13:22:40Z</time>
      </trkpt>
      <trkpt lat="48.96791" lon="7.91119">
        <ele>203.8</ele>
        <time>2024-08-25T13:22:41Z</time>
      </trkpt>
      <trkpt lat="48.96789" lon="7.91122">
        <ele>204</ele>
        <time>2024-08-25T13:22:42Z</time>
      </trkpt>
      <trkpt lat="48.96787" lon="7.91125">
        <ele>204.2</ele>
        <time>2024-08-25T13:22:43Z</time>
      </trkpt>
      <trkpt lat="48.96784" lon="7.91127">
        <ele>204.4</ele>
        <time>2024-08-25T13:22:44Z</time>
      </trkpt>
      <trkpt lat="48.96782" lon="7.9113">
        <ele>204.6</ele>
        <time>2024-08-25T13:22:45Z</time>
      </trkpt>
      <trkpt lat="48.96779" lon="7.91132">
        <ele>204.6</ele>
        <time>2024-08-25T13:22:46Z</time>
      </trkpt>
      <trkpt lat="48.96776" lon="7.91135">
        <ele>204.8</ele>
        <time>2024-08-25T13:22:47Z</time>
      </trkpt>
      <trkpt lat="48.96772" lon="7.91138">
        <ele>204.8</ele>
        <time>2024-08-25T13:22:48Z</time>
      </trkpt>
      <trkpt lat="48.96769" lon="7.9114">
        <ele>205</ele>
        <time>2024-08-25T13:22:49Z</time>
      </trkpt>
      <trkpt lat="48.96766" lon="7.91142">
        <ele>205.2</ele>
        <time>2024-08-25T13:22:50Z</time>
      </trkpt>
      <trkpt lat="48.96762" lon="7.91143">
        <ele>205.4</ele>
        <time>2024-08-25T13:22:51Z</time>
      </trkpt>
      <trkpt lat="48.9676" lon="7.91144">
        <ele>205.4</ele>
        <time>2024-08-25T13:22:52Z</time>
      </trkpt>
      <trkpt lat="48.96757" lon="7.91146">
        <ele>205.6</ele>
        <time>2024-08-25T13:22:53Z</time>
      </trkpt>
      <trkpt lat="48.96754" lon="7.91146">
        <ele>205.8</ele>
        <time>2024-08-25T13:22:54Z</time>
      </trkpt>
      <trkpt lat="48.96751" lon="7.91147">
        <ele>206</ele>
        <time>2024-08-25T13:22:55Z</time>
      </trkpt>
      <trkpt lat="48.96748" lon="7.91148">
        <ele>206.2</ele>
        <time>2024-08-25T13:22:56Z</time>
      </trkpt>
      <trkpt lat="48.96745" lon="7.91148">
        <ele>206.2</ele>
        <time>2024-08-25T13:22:57Z</time>
      </trkpt>
      <trkpt lat="48.96742" lon="7.91148">
        <ele>206.6</ele>
        <time>2024-08-25T13:22:58Z</time>
      </trkpt>
      <trkpt lat="48.96739" lon="7.91148">
        <ele>206.8</ele>
        <time>2024-08-25T13:22:59Z</time>
      </trkpt>
      <trkpt lat="48.96737" lon="7.91148">
        <ele>207</ele>
        <time>2024-08-25T13:23:00Z</time>
      </trkpt>
      <trkpt lat="48.96734" lon="7.91148">
        <ele>207.2</ele>
        <time>2024-08-25T13:23:01Z</time>
      </trkpt>
      <trkpt lat="48.96731" lon="7.91146">
        <ele>207.4</ele>
        <time>2024-08-25T13:23:02Z</time>
      </trkpt>
      <trkpt lat="48.96728" lon="7.91145">
        <ele>207.6</ele>
        <time>2024-08-25T13:23:03Z</time>
      </trkpt>
      <trkpt lat="48.96725" lon="7.91144">
        <ele>207.8</ele>
        <time>2024-08-25T13:23:04Z</time>
      </trkpt>
      <trkpt lat="48.96722" lon="7.91142">
        <ele>208</ele>
        <time>2024-08-25T13:23:05Z</time>
      </trkpt>
      <trkpt lat="48.96719" lon="7.9114">
        <ele>208.2</ele>
        <time>2024-08-25T13:23:06Z</time>
      </trkpt>
      <trkpt lat="48.96716" lon="7.91138">
        <ele>208.4</ele>
        <time>2024-08-25T13:23:07Z</time>
      </trkpt>
      <trkpt lat="48.96714" lon="7.91136">
        <ele>208.6</ele>
        <time>2024-08-25T13:23:08Z</time>
      </trkpt>
      <trkpt lat="48.96711" lon="7.91133">
        <ele>208.8</ele>
        <time>2024-08-25T13:23:09Z</time>
      </trkpt>
      <trkpt lat="48.96709" lon="7.91131">
        <ele>209</ele>
        <time>2024-08-25T13:23:10Z</time>
      </trkpt>
      <trkpt lat="48.96707" lon="7.91128">
        <ele>209.2</ele>
        <time>2024-08-25T13:23:11Z</time>
      </trkpt>
      <trkpt lat="48.96705" lon="7.91124">
        <ele>209.4</ele>
        <time>2024-08-25T13:23:12Z</time>
      </trkpt>
      <trkpt lat="48.96703" lon="7.91122">
        <ele>209.6</ele>
        <time>2024-08-25T13:23:13Z</time>
      </trkpt>
      <trkpt lat="48.967" lon="7.91118">
        <ele>209.6</ele>
        <time>2024-08-25T13:23:14Z</time>
      </trkpt>
      <trkpt lat="48.96698" lon="7.91115">
        <ele>209.6</ele>
        <time>2024-08-25T13:23:15Z</time>
      </trkpt>
      <trkpt lat="48.96695" lon="7.91111">
        <ele>209.6</ele>
        <time>2024-08-25T13:23:16Z</time>
      </trkpt>
      <trkpt lat="48.96692" lon="7.91108">
        <ele>209.6</ele>
        <time>2024-08-25T13:23:17Z</time>
      </trkpt>
      <trkpt lat="48.96689" lon="7.91106">
        <ele>209.6</ele>
        <time>2024-08-25T13:23:18Z</time>
      </trkpt>
      <trkpt lat="48.96686" lon="7.91103">
        <ele>209.6</ele>
        <time>2024-08-25T13:23:19Z</time>
      </trkpt>
      <trkpt lat="48.96683" lon="7.91101">
        <ele>209.6</ele>
        <time>2024-08-25T13:23:20Z</time>
      </trkpt>
      <trkpt lat="48.9668" lon="7.911">
        <ele>209.6</ele>
        <time>2024-08-25T13:23:21Z</time>
      </trkpt>
      <trkpt lat="48.96676" lon="7.91099">
        <ele>209.8</ele>
        <time>2024-08-25T13:23:22Z</time>
      </trkpt>
      <trkpt lat="48.96673" lon="7.91097">
        <ele>209.8</ele>
        <time>2024-08-25T13:23:23Z</time>
      </trkpt>
      <trkpt lat="48.9667" lon="7.91097">
        <ele>209.8</ele>
        <time>2024-08-25T13:23:24Z</time>
      </trkpt>
      <trkpt lat="48.96666" lon="7.91097">
        <ele>209.8</ele>
        <time>2024-08-25T13:23:25Z</time>
      </trkpt>
      <trkpt lat="48.96662" lon="7.91097">
        <ele>209.8</ele>
        <time>2024-08-25T13:23:26Z</time>
      </trkpt>
      <trkpt lat="48.96659" lon="7.91095">
        <ele>209.8</ele>
        <time>2024-08-25T13:23:27Z</time>
      </trkpt>
      <trkpt lat="48.96656" lon="7.91092">
        <ele>209.8</ele>
        <time>2024-08-25T13:23:28Z</time>
      </trkpt>
      <trkpt lat="48.96654" lon="7.91088">
        <ele>209.8</ele>
        <time>2024-08-25T13:23:29Z</time>
      </trkpt>
      <trkpt lat="48.96654" lon="7.91084">
        <ele>209.8</ele>
        <time>2024-08-25T13:23:30Z</time>
      </trkpt>
      <trkpt lat="48.96654" lon="7.9108">
        <ele>209.8</ele>
        <time>2024-08-25T13:23:31Z</time>
      </trkpt>
      <trkpt lat="48.96655" lon="7.91075">
        <ele>209.8</ele>
        <time>2024-08-25T13:23:32Z</time>
      </trkpt>
      <trkpt lat="48.96655" lon="7.9107">
        <ele>209.8</ele>
        <time>2024-08-25T13:23:33Z</time>
      </trkpt>
      <trkpt lat="48.96654" lon="7.91066">
        <ele>209.8</ele>
        <time>2024-08-25T13:23:34Z</time>
      </trkpt>
      <trkpt lat="48.96654" lon="7.91061">
        <ele>210</ele>
        <time>2024-08-25T13:23:35Z</time>
      </trkpt>
      <trkpt lat="48.96652" lon="7.91056">
        <ele>210</ele>
        <time>2024-08-25T13:23:36Z</time>
      </trkpt>
      <trkpt lat="48.96651" lon="7.91051">
        <ele>210</ele>
        <time>2024-08-25T13:23:37Z</time>
      </trkpt>
      <trkpt lat="48.9665" lon="7.91046">
        <ele>210.2</ele>
        <time>2024-08-25T13:23:38Z</time>
      </trkpt>
      <trkpt lat="48.96648" lon="7.9104">
        <ele>210.2</ele>
        <time>2024-08-25T13:23:39Z</time>
      </trkpt>
      <trkpt lat="48.96646" lon="7.91034">
        <ele>210.2</ele>
        <time>2024-08-25T13:23:40Z</time>
      </trkpt>
      <trkpt lat="48.96643" lon="7.91028">
        <ele>210.2</ele>
        <time>2024-08-25T13:23:41Z</time>
      </trkpt>
      <trkpt lat="48.9664" lon="7.91022">
        <ele>210</ele>
        <time>2024-08-25T13:23:42Z</time>
      </trkpt>
      <trkpt lat="48.96637" lon="7.91017">
        <ele>210</ele>
        <time>2024-08-25T13:23:43Z</time>
      </trkpt>
      <trkpt lat="48.96634" lon="7.91011">
        <ele>210</ele>
        <time>2024-08-25T13:23:44Z</time>
      </trkpt>
      <trkpt lat="48.9663" lon="7.91005">
        <ele>210</ele>
        <time>2024-08-25T13:23:45Z</time>
      </trkpt>
      <trkpt lat="48.96626" lon="7.90998">
        <ele>209.8</ele>
        <time>2024-08-25T13:23:46Z</time>
      </trkpt>
      <trkpt lat="48.96622" lon="7.90991">
        <ele>209.8</ele>
        <time>2024-08-25T13:23:47Z</time>
      </trkpt>
      <trkpt lat="48.96617" lon="7.90984">
        <ele>209.6</ele>
        <time>2024-08-25T13:23:48Z</time>
      </trkpt>
      <trkpt lat="48.96613" lon="7.90977">
        <ele>209.4</ele>
        <time>2024-08-25T13:23:49Z</time>
      </trkpt>
      <trkpt lat="48.96609" lon="7.90969">
        <ele>209.2</ele>
        <time>2024-08-25T13:23:50Z</time>
      </trkpt>
      <trkpt lat="48.96605" lon="7.90963">
        <ele>209.2</ele>
        <time>2024-08-25T13:23:51Z</time>
      </trkpt>
      <trkpt lat="48.96601" lon="7.90956">
        <ele>209</ele>
        <time>2024-08-25T13:23:52Z</time>
      </trkpt>
      <trkpt lat="48.96597" lon="7.90948">
        <ele>208.8</ele>
        <time>2024-08-25T13:23:53Z</time>
      </trkpt>
      <trkpt lat="48.96593" lon="7.90941">
        <ele>208.4</ele>
        <time>2024-08-25T13:23:54Z</time>
      </trkpt>
      <trkpt lat="48.96589" lon="7.90934">
        <ele>208.4</ele>
        <time>2024-08-25T13:23:55Z</time>
      </trkpt>
      <trkpt lat="48.96586" lon="7.90928">
        <ele>208.4</ele>
        <time>2024-08-25T13:23:56Z</time>
      </trkpt>
      <trkpt lat="48.96582" lon="7.90922">
        <ele>208.4</ele>
        <time>2024-08-25T13:23:57Z</time>
      </trkpt>
      <trkpt lat="48.96579" lon="7.90916">
        <ele>208.4</ele>
        <time>2024-08-25T13:23:58Z</time>
      </trkpt>
      <trkpt lat="48.96575" lon="7.90911">
        <ele>208.4</ele>
        <time>2024-08-25T13:23:59Z</time>
      </trkpt>
      <trkpt lat="48.96571" lon="7.90905">
        <ele>208.4</ele>
        <time>2024-08-25T13:24:00Z</time>
      </trkpt>
      <trkpt lat="48.96567" lon="7.90899">
        <ele>208.4</ele>
        <time>2024-08-25T13:24:01Z</time>
      </trkpt>
      <trkpt lat="48.96564" lon="7.90893">
        <ele>208.4</ele>
        <time>2024-08-25T13:24:02Z</time>
      </trkpt>
      <trkpt lat="48.9656" lon="7.90886">
        <ele>208.4</ele>
        <time>2024-08-25T13:24:03Z</time>
      </trkpt>
      <trkpt lat="48.96557" lon="7.90879">
        <ele>208.4</ele>
        <time>2024-08-25T13:24:04Z</time>
      </trkpt>
      <trkpt lat="48.96553" lon="7.90873">
        <ele>208.4</ele>
        <time>2024-08-25T13:24:05Z</time>
      </trkpt>
      <trkpt lat="48.96549" lon="7.90866">
        <ele>208.4</ele>
        <time>2024-08-25T13:24:06Z</time>
      </trkpt>
      <trkpt lat="48.96546" lon="7.9086">
        <ele>208.4</ele>
        <time>2024-08-25T13:24:07Z</time>
      </trkpt>
      <trkpt lat="48.96543" lon="7.90853">
        <ele>208.6</ele>
        <time>2024-08-25T13:24:08Z</time>
      </trkpt>
      <trkpt lat="48.96539" lon="7.90847">
        <ele>208.6</ele>
        <time>2024-08-25T13:24:09Z</time>
      </trkpt>
      <trkpt lat="48.96536" lon="7.9084">
        <ele>208.6</ele>
        <time>2024-08-25T13:24:10Z</time>
      </trkpt>
      <trkpt lat="48.96532" lon="7.90834">
        <ele>208.6</ele>
        <time>2024-08-25T13:24:11Z</time>
      </trkpt>
      <trkpt lat="48.96528" lon="7.90828">
        <ele>208.6</ele>
        <time>2024-08-25T13:24:12Z</time>
      </trkpt>
      <trkpt lat="48.96525" lon="7.90822">
        <ele>208.6</ele>
        <time>2024-08-25T13:24:13Z</time>
      </trkpt>
      <trkpt lat="48.96521" lon="7.90815">
        <ele>208.6</ele>
        <time>2024-08-25T13:24:14Z</time>
      </trkpt>
      <trkpt lat="48.96518" lon="7.90809">
        <ele>208.6</ele>
        <time>2024-08-25T13:24:15Z</time>
      </trkpt>
      <trkpt lat="48.96515" lon="7.90803">
        <ele>208.6</ele>
        <time>2024-08-25T13:24:16Z</time>
      </trkpt>
      <trkpt lat="48.96511" lon="7.90797">
        <ele>208.4</ele>
        <time>2024-08-25T13:24:17Z</time>
      </trkpt>
      <trkpt lat="48.96508" lon="7.90791">
        <ele>208.4</ele>
        <time>2024-08-25T13:24:18Z</time>
      </trkpt>
      <trkpt lat="48.96504" lon="7.90785">
        <ele>208.4</ele>
        <time>2024-08-25T13:24:19Z</time>
      </trkpt>
      <trkpt lat="48.96501" lon="7.90779">
        <ele>208.4</ele>
        <time>2024-08-25T13:24:20Z</time>
      </trkpt>
      <trkpt lat="48.96497" lon="7.90773">
        <ele>208.4</ele>
        <time>2024-08-25T13:24:21Z</time>
      </trkpt>
      <trkpt lat="48.96494" lon="7.90767">
        <ele>208.4</ele>
        <time>2024-08-25T13:24:22Z</time>
      </trkpt>
      <trkpt lat="48.9649" lon="7.9076">
        <ele>208.6</ele>
        <time>2024-08-25T13:24:23Z</time>
      </trkpt>
      <trkpt lat="48.96487" lon="7.90754">
        <ele>208.6</ele>
        <time>2024-08-25T13:24:24Z</time>
      </trkpt>
      <trkpt lat="48.96483" lon="7.90748">
        <ele>208.6</ele>
        <time>2024-08-25T13:24:25Z</time>
      </trkpt>
      <trkpt lat="48.96479" lon="7.90742">
        <ele>208.6</ele>
        <time>2024-08-25T13:24:26Z</time>
      </trkpt>
      <trkpt lat="48.96475" lon="7.90735">
        <ele>208.6</ele>
        <time>2024-08-25T13:24:27Z</time>
      </trkpt>
      <trkpt lat="48.96472" lon="7.90728">
        <ele>208.6</ele>
        <time>2024-08-25T13:24:28Z</time>
      </trkpt>
      <trkpt lat="48.96467" lon="7.90721">
        <ele>208.4</ele>
        <time>2024-08-25T13:24:29Z</time>
      </trkpt>
      <trkpt lat="48.96463" lon="7.90715">
        <ele>208.4</ele>
        <time>2024-08-25T13:24:30Z</time>
      </trkpt>
      <trkpt lat="48.96459" lon="7.90708">
        <ele>208.2</ele>
        <time>2024-08-25T13:24:31Z</time>
      </trkpt>
      <trkpt lat="48.96455" lon="7.90702">
        <ele>208</ele>
        <time>2024-08-25T13:24:32Z</time>
      </trkpt>
      <trkpt lat="48.96452" lon="7.90695">
        <ele>208</ele>
        <time>2024-08-25T13:24:33Z</time>
      </trkpt>
      <trkpt lat="48.96447" lon="7.90688">
        <ele>207.8</ele>
        <time>2024-08-25T13:24:34Z</time>
      </trkpt>
      <trkpt lat="48.96443" lon="7.90682">
        <ele>207.6</ele>
        <time>2024-08-25T13:24:35Z</time>
      </trkpt>
      <trkpt lat="48.96438" lon="7.90675">
        <ele>207.4</ele>
        <time>2024-08-25T13:24:36Z</time>
      </trkpt>
      <trkpt lat="48.96434" lon="7.90668">
        <ele>207.2</ele>
        <time>2024-08-25T13:24:37Z</time>
      </trkpt>
      <trkpt lat="48.96429" lon="7.90661">
        <ele>207.2</ele>
        <time>2024-08-25T13:24:38Z</time>
      </trkpt>
      <trkpt lat="48.96425" lon="7.90654">
        <ele>207</ele>
        <time>2024-08-25T13:24:39Z</time>
      </trkpt>
      <trkpt lat="48.96421" lon="7.90648">
        <ele>206.8</ele>
        <time>2024-08-25T13:24:40Z</time>
      </trkpt>
      <trkpt lat="48.96418" lon="7.90643">
        <ele>206.6</ele>
        <time>2024-08-25T13:24:41Z</time>
      </trkpt>
      <trkpt lat="48.96414" lon="7.90638">
        <ele>206.4</ele>
        <time>2024-08-25T13:24:42Z</time>
      </trkpt>
      <trkpt lat="48.96412" lon="7.90633">
        <ele>206.2</ele>
        <time>2024-08-25T13:24:43Z</time>
      </trkpt>
      <trkpt lat="48.96409" lon="7.90629">
        <ele>206</ele>
        <time>2024-08-25T13:24:44Z</time>
      </trkpt>
      <trkpt lat="48.96407" lon="7.90626">
        <ele>206</ele>
        <time>2024-08-25T13:24:45Z</time>
      </trkpt>
      <trkpt lat="48.96404" lon="7.90622">
        <ele>205.8</ele>
        <time>2024-08-25T13:24:46Z</time>
      </trkpt>
      <trkpt lat="48.96402" lon="7.90618">
        <ele>205.8</ele>
        <time>2024-08-25T13:24:47Z</time>
      </trkpt>
      <trkpt lat="48.96399" lon="7.90614">
        <ele>205.8</ele>
        <time>2024-08-25T13:24:48Z</time>
      </trkpt>
      <trkpt lat="48.96397" lon="7.9061">
        <ele>205.8</ele>
        <time>2024-08-25T13:24:49Z</time>
      </trkpt>
      <trkpt lat="48.96395" lon="7.90606">
        <ele>205.8</ele>
        <time>2024-08-25T13:24:50Z</time>
      </trkpt>
      <trkpt lat="48.96394" lon="7.90603">
        <ele>205.6</ele>
        <time>2024-08-25T13:24:51Z</time>
      </trkpt>
      <trkpt lat="48.96392" lon="7.90601">
        <ele>205.4</ele>
        <time>2024-08-25T13:24:52Z</time>
      </trkpt>
      <trkpt lat="48.96389" lon="7.90599">
        <ele>205.4</ele>
        <time>2024-08-25T13:24:53Z</time>
      </trkpt>
      <trkpt lat="48.96387" lon="7.90595">
        <ele>205.2</ele>
        <time>2024-08-25T13:24:54Z</time>
      </trkpt>
      <trkpt lat="48.96386" lon="7.90591">
        <ele>205.2</ele>
        <time>2024-08-25T13:24:55Z</time>
      </trkpt>
      <trkpt lat="48.96384" lon="7.90588">
        <ele>205.2</ele>
        <time>2024-08-25T13:24:56Z</time>
      </trkpt>
      <trkpt lat="48.96382" lon="7.90586">
        <ele>205</ele>
        <time>2024-08-25T13:24:57Z</time>
      </trkpt>
      <trkpt lat="48.96381" lon="7.90583">
        <ele>204.8</ele>
        <time>2024-08-25T13:24:58Z</time>
      </trkpt>
      <trkpt lat="48.9638" lon="7.90581">
        <ele>204.6</ele>
        <time>2024-08-25T13:24:59Z</time>
      </trkpt>
      <trkpt lat="48.96379" lon="7.90578">
        <ele>204.4</ele>
        <time>2024-08-25T13:25:00Z</time>
      </trkpt>
      <trkpt lat="48.96379" lon="7.90576">
        <ele>204.4</ele>
        <time>2024-08-25T13:25:01Z</time>
      </trkpt>
      <trkpt lat="48.96377" lon="7.90574">
        <ele>204.2</ele>
        <time>2024-08-25T13:25:02Z</time>
      </trkpt>
      <trkpt lat="48.96375" lon="7.90575">
        <ele>204.2</ele>
        <time>2024-08-25T13:25:03Z</time>
      </trkpt>
      <trkpt lat="48.96375" lon="7.90578">
        <ele>204.2</ele>
        <time>2024-08-25T13:25:04Z</time>
      </trkpt>
      <trkpt lat="48.96376" lon="7.90581">
        <ele>204</ele>
        <time>2024-08-25T13:25:05Z</time>
      </trkpt>
      <trkpt lat="48.96378" lon="7.90584">
        <ele>204</ele>
        <time>2024-08-25T13:25:06Z</time>
      </trkpt>
      <trkpt lat="48.96381" lon="7.90586">
        <ele>204</ele>
        <time>2024-08-25T13:25:07Z</time>
      </trkpt>
      <trkpt lat="48.96383" lon="7.90588">
        <ele>204</ele>
        <time>2024-08-25T13:25:08Z</time>
      </trkpt>
      <trkpt lat="48.96386" lon="7.9059">
        <ele>204</ele>
        <time>2024-08-25T13:25:09Z</time>
      </trkpt>
      <trkpt lat="48.96388" lon="7.90593">
        <ele>204</ele>
        <time>2024-08-25T13:25:10Z</time>
      </trkpt>
      <trkpt lat="48.9639" lon="7.90595">
        <ele>204</ele>
        <time>2024-08-25T13:25:11Z</time>
      </trkpt>
      <trkpt lat="48.96392" lon="7.90598">
        <ele>204</ele>
        <time>2024-08-25T13:25:12Z</time>
      </trkpt>
      <trkpt lat="48.96393" lon="7.90601">
        <ele>204.2</ele>
        <time>2024-08-25T13:25:13Z</time>
      </trkpt>
      <trkpt lat="48.96395" lon="7.90604">
        <ele>204.4</ele>
        <time>2024-08-25T13:25:14Z</time>
      </trkpt>
      <trkpt lat="48.96397" lon="7.90607">
        <ele>204.4</ele>
        <time>2024-08-25T13:25:15Z</time>
      </trkpt>
      <trkpt lat="48.96399" lon="7.9061">
        <ele>204.6</ele>
        <time>2024-08-25T13:25:16Z</time>
      </trkpt>
      <trkpt lat="48.96402" lon="7.90614">
        <ele>204.8</ele>
        <time>2024-08-25T13:25:17Z</time>
      </trkpt>
      <trkpt lat="48.96404" lon="7.90617">
        <ele>204.8</ele>
        <time>2024-08-25T13:25:18Z</time>
      </trkpt>
      <trkpt lat="48.96407" lon="7.9062">
        <ele>205</ele>
        <time>2024-08-25T13:25:19Z</time>
      </trkpt>
      <trkpt lat="48.96409" lon="7.90624">
        <ele>205</ele>
        <time>2024-08-25T13:25:20Z</time>
      </trkpt>
      <trkpt lat="48.96412" lon="7.90628">
        <ele>205.2</ele>
        <time>2024-08-25T13:25:21Z</time>
      </trkpt>
      <trkpt lat="48.96415" lon="7.90632">
        <ele>205.2</ele>
        <time>2024-08-25T13:25:22Z</time>
      </trkpt>
      <trkpt lat="48.96418" lon="7.90636">
        <ele>205.4</ele>
        <time>2024-08-25T13:25:23Z</time>
      </trkpt>
      <trkpt lat="48.96421" lon="7.90641">
        <ele>205.4</ele>
        <time>2024-08-25T13:25:24Z</time>
      </trkpt>
      <trkpt lat="48.96424" lon="7.90646">
        <ele>205.6</ele>
        <time>2024-08-25T13:25:25Z</time>
      </trkpt>
      <trkpt lat="48.96426" lon="7.90651">
        <ele>205.6</ele>
        <time>2024-08-25T13:25:26Z</time>
      </trkpt>
      <trkpt lat="48.96429" lon="7.90655">
        <ele>205.8</ele>
        <time>2024-08-25T13:25:27Z</time>
      </trkpt>
      <trkpt lat="48.96432" lon="7.9066">
        <ele>205.8</ele>
        <time>2024-08-25T13:25:28Z</time>
      </trkpt>
      <trkpt lat="48.96435" lon="7.90665">
        <ele>206</ele>
        <time>2024-08-25T13:25:29Z</time>
      </trkpt>
      <trkpt lat="48.96438" lon="7.9067">
        <ele>206</ele>
        <time>2024-08-25T13:25:30Z</time>
      </trkpt>
      <trkpt lat="48.9644" lon="7.90675">
        <ele>206.2</ele>
        <time>2024-08-25T13:25:31Z</time>
      </trkpt>
      <trkpt lat="48.96443" lon="7.9068">
        <ele>206.4</ele>
        <time>2024-08-25T13:25:32Z</time>
      </trkpt>
      <trkpt lat="48.96446" lon="7.90685">
        <ele>206.6</ele>
        <time>2024-08-25T13:25:33Z</time>
      </trkpt>
      <trkpt lat="48.96449" lon="7.9069">
        <ele>206.8</ele>
        <time>2024-08-25T13:25:34Z</time>
      </trkpt>
      <trkpt lat="48.96452" lon="7.90695">
        <ele>207</ele>
        <time>2024-08-25T13:25:35Z</time>
      </trkpt>
      <trkpt lat="48.96455" lon="7.907">
        <ele>207</ele>
        <time>2024-08-25T13:25:36Z</time>
      </trkpt>
      <trkpt lat="48.96457" lon="7.90705">
        <ele>207.2</ele>
        <time>2024-08-25T13:25:37Z</time>
      </trkpt>
      <trkpt lat="48.9646" lon="7.90711">
        <ele>207.2</ele>
        <time>2024-08-25T13:25:38Z</time>
      </trkpt>
      <trkpt lat="48.96464" lon="7.90716">
        <ele>207.4</ele>
        <time>2024-08-25T13:25:39Z</time>
      </trkpt>
      <trkpt lat="48.96466" lon="7.90721">
        <ele>207.6</ele>
        <time>2024-08-25T13:25:40Z</time>
      </trkpt>
      <trkpt lat="48.96469" lon="7.90726">
        <ele>207.6</ele>
        <time>2024-08-25T13:25:41Z</time>
      </trkpt>
      <trkpt lat="48.96472" lon="7.90731">
        <ele>207.8</ele>
        <time>2024-08-25T13:25:42Z</time>
      </trkpt>
      <trkpt lat="48.96476" lon="7.90736">
        <ele>208</ele>
        <time>2024-08-25T13:25:43Z</time>
      </trkpt>
      <trkpt lat="48.96479" lon="7.9074">
        <ele>208.2</ele>
        <time>2024-08-25T13:25:44Z</time>
      </trkpt>
      <trkpt lat="48.96481" lon="7.90745">
        <ele>208.2</ele>
        <time>2024-08-25T13:25:45Z</time>
      </trkpt>
      <trkpt lat="48.96484" lon="7.90749">
        <ele>208.4</ele>
        <time>2024-08-25T13:25:46Z</time>
      </trkpt>
      <trkpt lat="48.96487" lon="7.90754">
        <ele>208.6</ele>
        <time>2024-08-25T13:25:47Z</time>
      </trkpt>
      <trkpt lat="48.9649" lon="7.9076">
        <ele>208.8</ele>
        <time>2024-08-25T13:25:48Z</time>
      </trkpt>
      <trkpt lat="48.96493" lon="7.90765">
        <ele>208.8</ele>
        <time>2024-08-25T13:25:49Z</time>
      </trkpt>
      <trkpt lat="48.96496" lon="7.9077">
        <ele>209</ele>
        <time>2024-08-25T13:25:50Z</time>
      </trkpt>
      <trkpt lat="48.96499" lon="7.90775">
        <ele>209.2</ele>
        <time>2024-08-25T13:25:51Z</time>
      </trkpt>
      <trkpt lat="48.96502" lon="7.9078">
        <ele>209.2</ele>
        <time>2024-08-25T13:25:52Z</time>
      </trkpt>
      <trkpt lat="48.96505" lon="7.90786">
        <ele>209.2</ele>
        <time>2024-08-25T13:25:53Z</time>
      </trkpt>
      <trkpt lat="48.96509" lon="7.9079">
        <ele>209.2</ele>
        <time>2024-08-25T13:25:54Z</time>
      </trkpt>
      <trkpt lat="48.96511" lon="7.90795">
        <ele>209.2</ele>
        <time>2024-08-25T13:25:55Z</time>
      </trkpt>
      <trkpt lat="48.96514" lon="7.90799">
        <ele>209</ele>
        <time>2024-08-25T13:25:56Z</time>
      </trkpt>
      <trkpt lat="48.96517" lon="7.90805">
        <ele>208.8</ele>
        <time>2024-08-25T13:25:57Z</time>
      </trkpt>
      <trkpt lat="48.9652" lon="7.9081">
        <ele>208.8</ele>
        <time>2024-08-25T13:25:58Z</time>
      </trkpt>
      <trkpt lat="48.96523" lon="7.90816">
        <ele>208.8</ele>
        <time>2024-08-25T13:25:59Z</time>
      </trkpt>
      <trkpt lat="48.96526" lon="7.90822">
        <ele>208.8</ele>
        <time>2024-08-25T13:26:00Z</time>
      </trkpt>
      <trkpt lat="48.96529" lon="7.90828">
        <ele>208.6</ele>
        <time>2024-08-25T13:26:01Z</time>
      </trkpt>
      <trkpt lat="48.96533" lon="7.90834">
        <ele>208.6</ele>
        <time>2024-08-25T13:26:02Z</time>
      </trkpt>
      <trkpt lat="48.96537" lon="7.9084">
        <ele>208.6</ele>
        <time>2024-08-25T13:26:03Z</time>
      </trkpt>
      <trkpt lat="48.96541" lon="7.90846">
        <ele>208.6</ele>
        <time>2024-08-25T13:26:04Z</time>
      </trkpt>
      <trkpt lat="48.96545" lon="7.90851">
        <ele>208.6</ele>
        <time>2024-08-25T13:26:05Z</time>
      </trkpt>
      <trkpt lat="48.96549" lon="7.90857">
        <ele>208.6</ele>
        <time>2024-08-25T13:26:06Z</time>
      </trkpt>
      <trkpt lat="48.96552" lon="7.90862">
        <ele>208.6</ele>
        <time>2024-08-25T13:26:07Z</time>
      </trkpt>
      <trkpt lat="48.96556" lon="7.90868">
        <ele>208.6</ele>
        <time>2024-08-25T13:26:08Z</time>
      </trkpt>
      <trkpt lat="48.96559" lon="7.90874">
        <ele>208.6</ele>
        <time>2024-08-25T13:26:09Z</time>
      </trkpt>
      <trkpt lat="48.96563" lon="7.9088">
        <ele>208.8</ele>
        <time>2024-08-25T13:26:10Z</time>
      </trkpt>
      <trkpt lat="48.96566" lon="7.90886">
        <ele>208.8</ele>
        <time>2024-08-25T13:26:11Z</time>
      </trkpt>
      <trkpt lat="48.9657" lon="7.90893">
        <ele>208.8</ele>
        <time>2024-08-25T13:26:12Z</time>
      </trkpt>
      <trkpt lat="48.96574" lon="7.90899">
        <ele>208.8</ele>
        <time>2024-08-25T13:26:13Z</time>
      </trkpt>
      <trkpt lat="48.96578" lon="7.90905">
        <ele>209</ele>
        <time>2024-08-25T13:26:14Z</time>
      </trkpt>
      <trkpt lat="48.96581" lon="7.90912">
        <ele>209</ele>
        <time>2024-08-25T13:26:15Z</time>
      </trkpt>
      <trkpt lat="48.96585" lon="7.90918">
        <ele>209</ele>
        <time>2024-08-25T13:26:16Z</time>
      </trkpt>
      <trkpt lat="48.96588" lon="7.90925">
        <ele>209</ele>
        <time>2024-08-25T13:26:17Z</time>
      </trkpt>
      <trkpt lat="48.96592" lon="7.90931">
        <ele>208.8</ele>
        <time>2024-08-25T13:26:18Z</time>
      </trkpt>
      <trkpt lat="48.96596" lon="7.90937">
        <ele>208.8</ele>
        <time>2024-08-25T13:26:19Z</time>
      </trkpt>
      <trkpt lat="48.96599" lon="7.90943">
        <ele>208.8</ele>
        <time>2024-08-25T13:26:20Z</time>
      </trkpt>
      <trkpt lat="48.96603" lon="7.90949">
        <ele>209</ele>
        <time>2024-08-25T13:26:21Z</time>
      </trkpt>
      <trkpt lat="48.96606" lon="7.90955">
        <ele>209</ele>
        <time>2024-08-25T13:26:22Z</time>
      </trkpt>
      <trkpt lat="48.9661" lon="7.9096">
        <ele>209</ele>
        <time>2024-08-25T13:26:23Z</time>
      </trkpt>
      <trkpt lat="48.96613" lon="7.90966">
        <ele>209</ele>
        <time>2024-08-25T13:26:24Z</time>
      </trkpt>
      <trkpt lat="48.96617" lon="7.90971">
        <ele>209</ele>
        <time>2024-08-25T13:26:25Z</time>
      </trkpt>
      <trkpt lat="48.9662" lon="7.90978">
        <ele>209</ele>
        <time>2024-08-25T13:26:26Z</time>
      </trkpt>
      <trkpt lat="48.96624" lon="7.90984">
        <ele>209.2</ele>
        <time>2024-08-25T13:26:27Z</time>
      </trkpt>
      <trkpt lat="48.96627" lon="7.90989">
        <ele>209.2</ele>
        <time>2024-08-25T13:26:28Z</time>
      </trkpt>
      <trkpt lat="48.9663" lon="7.90995">
        <ele>209.2</ele>
        <time>2024-08-25T13:26:29Z</time>
      </trkpt>
      <trkpt lat="48.96633" lon="7.91">
        <ele>209.4</ele>
        <time>2024-08-25T13:26:30Z</time>
      </trkpt>
      <trkpt lat="48.96636" lon="7.91006">
        <ele>209.4</ele>
        <time>2024-08-25T13:26:31Z</time>
      </trkpt>
      <trkpt lat="48.96639" lon="7.91012">
        <ele>209.6</ele>
        <time>2024-08-25T13:26:32Z</time>
      </trkpt>
      <trkpt lat="48.96642" lon="7.91018">
        <ele>209.8</ele>
        <time>2024-08-25T13:26:33Z</time>
      </trkpt>
      <trkpt lat="48.96644" lon="7.91025">
        <ele>210</ele>
        <time>2024-08-25T13:26:34Z</time>
      </trkpt>
      <trkpt lat="48.96647" lon="7.91031">
        <ele>210</ele>
        <time>2024-08-25T13:26:35Z</time>
      </trkpt>
      <trkpt lat="48.9665" lon="7.91037">
        <ele>210.2</ele>
        <time>2024-08-25T13:26:36Z</time>
      </trkpt>
      <trkpt lat="48.96652" lon="7.91044">
        <ele>210.2</ele>
        <time>2024-08-25T13:26:37Z</time>
      </trkpt>
      <trkpt lat="48.96654" lon="7.9105">
        <ele>210.4</ele>
        <time>2024-08-25T13:26:38Z</time>
      </trkpt>
      <trkpt lat="48.96655" lon="7.91058">
        <ele>210.4</ele>
        <time>2024-08-25T13:26:39Z</time>
      </trkpt>
      <trkpt lat="48.96656" lon="7.91064">
        <ele>210.4</ele>
        <time>2024-08-25T13:26:40Z</time>
      </trkpt>
      <trkpt lat="48.96656" lon="7.91071">
        <ele>210.4</ele>
        <time>2024-08-25T13:26:41Z</time>
      </trkpt>
      <trkpt lat="48.96655" lon="7.91078">
        <ele>210.6</ele>
        <time>2024-08-25T13:26:42Z</time>
      </trkpt>
      <trkpt lat="48.96656" lon="7.91084">
        <ele>210.6</ele>
        <time>2024-08-25T13:26:43Z</time>
      </trkpt>
      <trkpt lat="48.96657" lon="7.91089">
        <ele>210.6</ele>
        <time>2024-08-25T13:26:44Z</time>
      </trkpt>
      <trkpt lat="48.96659" lon="7.91092">
        <ele>210.6</ele>
        <time>2024-08-25T13:26:45Z</time>
      </trkpt>
      <trkpt lat="48.96662" lon="7.91093">
        <ele>210.6</ele>
        <time>2024-08-25T13:26:46Z</time>
      </trkpt>
      <trkpt lat="48.96665" lon="7.91093">
        <ele>210.6</ele>
        <time>2024-08-25T13:26:47Z</time>
      </trkpt>
      <trkpt lat="48.96668" lon="7.91092">
        <ele>210.6</ele>
        <time>2024-08-25T13:26:48Z</time>
      </trkpt>
      <trkpt lat="48.96671" lon="7.91092">
        <ele>210.6</ele>
        <time>2024-08-25T13:26:49Z</time>
      </trkpt>
      <trkpt lat="48.96674" lon="7.91091">
        <ele>210.6</ele>
        <time>2024-08-25T13:26:50Z</time>
      </trkpt>
      <trkpt lat="48.96677" lon="7.91092">
        <ele>210.6</ele>
        <time>2024-08-25T13:26:51Z</time>
      </trkpt>
      <trkpt lat="48.96681" lon="7.91092">
        <ele>210.6</ele>
        <time>2024-08-25T13:26:52Z</time>
      </trkpt>
      <trkpt lat="48.96684" lon="7.91094">
        <ele>210.6</ele>
        <time>2024-08-25T13:26:53Z</time>
      </trkpt>
      <trkpt lat="48.96687" lon="7.91098">
        <ele>210.6</ele>
        <time>2024-08-25T13:26:54Z</time>
      </trkpt>
      <trkpt lat="48.9669" lon="7.91101">
        <ele>210.6</ele>
        <time>2024-08-25T13:26:55Z</time>
      </trkpt>
      <trkpt lat="48.96693" lon="7.91105">
        <ele>210.6</ele>
        <time>2024-08-25T13:26:56Z</time>
      </trkpt>
      <trkpt lat="48.96696" lon="7.91109">
        <ele>210.6</ele>
        <time>2024-08-25T13:26:57Z</time>
      </trkpt>
      <trkpt lat="48.96699" lon="7.91112">
        <ele>210.6</ele>
        <time>2024-08-25T13:26:58Z</time>
      </trkpt>
      <trkpt lat="48.96702" lon="7.91116">
        <ele>210.6</ele>
        <time>2024-08-25T13:26:59Z</time>
      </trkpt>
      <trkpt lat="48.96704" lon="7.9112">
        <ele>210.6</ele>
        <time>2024-08-25T13:27:00Z</time>
      </trkpt>
      <trkpt lat="48.96707" lon="7.91124">
        <ele>210.6</ele>
        <time>2024-08-25T13:27:01Z</time>
      </trkpt>
      <trkpt lat="48.9671" lon="7.91128">
        <ele>210.6</ele>
        <time>2024-08-25T13:27:02Z</time>
      </trkpt>
      <trkpt lat="48.96713" lon="7.91132">
        <ele>210.6</ele>
        <time>2024-08-25T13:27:03Z</time>
      </trkpt>
      <trkpt lat="48.96715" lon="7.91135">
        <ele>210.6</ele>
        <time>2024-08-25T13:27:04Z</time>
      </trkpt>
      <trkpt lat="48.96718" lon="7.91137">
        <ele>210.6</ele>
        <time>2024-08-25T13:27:05Z</time>
      </trkpt>
      <trkpt lat="48.96721" lon="7.9114">
        <ele>210.6</ele>
        <time>2024-08-25T13:27:06Z</time>
      </trkpt>
      <trkpt lat="48.96725" lon="7.91142">
        <ele>210.6</ele>
        <time>2024-08-25T13:27:07Z</time>
      </trkpt>
      <trkpt lat="48.96728" lon="7.91143">
        <ele>210.2</ele>
        <time>2024-08-25T13:27:08Z</time>
      </trkpt>
      <trkpt lat="48.96732" lon="7.91144">
        <ele>210</ele>
        <time>2024-08-25T13:27:09Z</time>
      </trkpt>
      <trkpt lat="48.96736" lon="7.91144">
        <ele>210</ele>
        <time>2024-08-25T13:27:10Z</time>
      </trkpt>
      <trkpt lat="48.96741" lon="7.91144">
        <ele>209.6</ele>
        <time>2024-08-25T13:27:11Z</time>
      </trkpt>
      <trkpt lat="48.96746" lon="7.91144">
        <ele>209.4</ele>
        <time>2024-08-25T13:27:12Z</time>
      </trkpt>
      <trkpt lat="48.96752" lon="7.91143">
        <ele>209</ele>
        <time>2024-08-25T13:27:13Z</time>
      </trkpt>
      <trkpt lat="48.96757" lon="7.91141">
        <ele>209</ele>
        <time>2024-08-25T13:27:14Z</time>
      </trkpt>
      <trkpt lat="48.96763" lon="7.91139">
        <ele>208.4</ele>
        <time>2024-08-25T13:27:15Z</time>
      </trkpt>
      <trkpt lat="48.96769" lon="7.91135">
        <ele>208.2</ele>
        <time>2024-08-25T13:27:16Z</time>
      </trkpt>
      <trkpt lat="48.96775" lon="7.91132">
        <ele>207.6</ele>
        <time>2024-08-25T13:27:17Z</time>
      </trkpt>
      <trkpt lat="48.9678" lon="7.91127">
        <ele>207.4</ele>
        <time>2024-08-25T13:27:18Z</time>
      </trkpt>
      <trkpt lat="48.96784" lon="7.91122">
        <ele>207</ele>
        <time>2024-08-25T13:27:19Z</time>
      </trkpt>
      <trkpt lat="48.96788" lon="7.91115">
        <ele>206.4</ele>
        <time>2024-08-25T13:27:20Z</time>
      </trkpt>
      <trkpt lat="48.96792" lon="7.91108">
        <ele>206.4</ele>
        <time>2024-08-25T13:27:21Z</time>
      </trkpt>
      <trkpt lat="48.96796" lon="7.911">
        <ele>206</ele>
        <time>2024-08-25T13:27:22Z</time>
      </trkpt>
      <trkpt lat="48.968" lon="7.91092">
        <ele>206</ele>
        <time>2024-08-25T13:27:23Z</time>
      </trkpt>
      <trkpt lat="48.96804" lon="7.91083">
        <ele>205.8</ele>
        <time>2024-08-25T13:27:24Z</time>
      </trkpt>
      <trkpt lat="48.96808" lon="7.91074">
        <ele>205.4</ele>
        <time>2024-08-25T13:27:25Z</time>
      </trkpt>
      <trkpt lat="48.96812" lon="7.91065">
        <ele>204.6</ele>
        <time>2024-08-25T13:27:26Z</time>
      </trkpt>
      <trkpt lat="48.96815" lon="7.91057">
        <ele>204.4</ele>
        <time>2024-08-25T13:27:27Z</time>
      </trkpt>
      <trkpt lat="48.96818" lon="7.9105">
        <ele>204.2</ele>
        <time>2024-08-25T13:27:28Z</time>
      </trkpt>
      <trkpt lat="48.96822" lon="7.91042">
        <ele>204.2</ele>
        <time>2024-08-25T13:27:29Z</time>
      </trkpt>
      <trkpt lat="48.96826" lon="7.91033">
        <ele>204</ele>
        <time>2024-08-25T13:27:30Z</time>
      </trkpt>
      <trkpt lat="48.96829" lon="7.91025">
        <ele>203.8</ele>
        <time>2024-08-25T13:27:31Z</time>
      </trkpt>
      <trkpt lat="48.96834" lon="7.91016">
        <ele>203.6</ele>
        <time>2024-08-25T13:27:32Z</time>
      </trkpt>
      <trkpt lat="48.96838" lon="7.91006">
        <ele>203.2</ele>
        <time>2024-08-25T13:27:33Z</time>
      </trkpt>
      <trkpt lat="48.96843" lon="7.90997">
        <ele>203</ele>
        <time>2024-08-25T13:27:34Z</time>
      </trkpt>
      <trkpt lat="48.96847" lon="7.90989">
        <ele>202.6</ele>
        <time>2024-08-25T13:27:35Z</time>
      </trkpt>
      <trkpt lat="48.96851" lon="7.90979">
        <ele>201.8</ele>
        <time>2024-08-25T13:27:36Z</time>
      </trkpt>
      <trkpt lat="48.96855" lon="7.9097">
        <ele>201.4</ele>
        <time>2024-08-25T13:27:37Z</time>
      </trkpt>
      <trkpt lat="48.96859" lon="7.90961">
        <ele>201</ele>
        <time>2024-08-25T13:27:38Z</time>
      </trkpt>
      <trkpt lat="48.96863" lon="7.90952">
        <ele>200.4</ele>
        <time>2024-08-25T13:27:39Z</time>
      </trkpt>
      <trkpt lat="48.96866" lon="7.90944">
        <ele>199.8</ele>
        <time>2024-08-25T13:27:40Z</time>
      </trkpt>
      <trkpt lat="48.9687" lon="7.90936">
        <ele>199.2</ele>
        <time>2024-08-25T13:27:41Z</time>
      </trkpt>
      <trkpt lat="48.96872" lon="7.90928">
        <ele>198.6</ele>
        <time>2024-08-25T13:27:42Z</time>
      </trkpt>
      <trkpt lat="48.96875" lon="7.9092">
        <ele>198.2</ele>
        <time>2024-08-25T13:27:43Z</time>
      </trkpt>
      <trkpt lat="48.96878" lon="7.90913">
        <ele>197.4</ele>
        <time>2024-08-25T13:27:44Z</time>
      </trkpt>
      <trkpt lat="48.96882" lon="7.90903">
        <ele>197.4</ele>
        <time>2024-08-25T13:27:45Z</time>
      </trkpt>
      <trkpt lat="48.96886" lon="7.90894">
        <ele>196.8</ele>
        <time>2024-08-25T13:27:46Z</time>
      </trkpt>
      <trkpt lat="48.9689" lon="7.90885">
        <ele>195.6</ele>
        <time>2024-08-25T13:27:47Z</time>
      </trkpt>
      <trkpt lat="48.96893" lon="7.90875">
        <ele>195.2</ele>
        <time>2024-08-25T13:27:48Z</time>
      </trkpt>
      <trkpt lat="48.96897" lon="7.90866">
        <ele>194.4</ele>
        <time>2024-08-25T13:27:49Z</time>
      </trkpt>
      <trkpt lat="48.96902" lon="7.90856">
        <ele>194</ele>
        <time>2024-08-25T13:27:50Z</time>
      </trkpt>
      <trkpt lat="48.96906" lon="7.90846">
        <ele>193.2</ele>
        <time>2024-08-25T13:27:51Z</time>
      </trkpt>
      <trkpt lat="48.9691" lon="7.90836">
        <ele>193</ele>
        <time>2024-08-25T13:27:52Z</time>
      </trkpt>
      <trkpt lat="48.96914" lon="7.90824">
        <ele>192.2</ele>
        <time>2024-08-25T13:27:53Z</time>
      </trkpt>
      <trkpt lat="48.96918" lon="7.90814">
        <ele>191.6</ele>
        <time>2024-08-25T13:27:54Z</time>
      </trkpt>
      <trkpt lat="48.96922" lon="7.90803">
        <ele>190.8</ele>
        <time>2024-08-25T13:27:55Z</time>
      </trkpt>
      <trkpt lat="48.96926" lon="7.90793">
        <ele>189.8</ele>
        <time>2024-08-25T13:27:56Z</time>
      </trkpt>
      <trkpt lat="48.9693" lon="7.90783">
        <ele>189.4</ele>
        <time>2024-08-25T13:27:57Z</time>
      </trkpt>
      <trkpt lat="48.96934" lon="7.90775">
        <ele>189</ele>
        <time>2024-08-25T13:27:58Z</time>
      </trkpt>
      <trkpt lat="48.96938" lon="7.90767">
        <ele>188.6</ele>
        <time>2024-08-25T13:27:59Z</time>
      </trkpt>
      <trkpt lat="48.96941" lon="7.90759">
        <ele>188.2</ele>
        <time>2024-08-25T13:28:00Z</time>
      </trkpt>
      <trkpt lat="48.96945" lon="7.90751">
        <ele>187.8</ele>
        <time>2024-08-25T13:28:01Z</time>
      </trkpt>
      <trkpt lat="48.96948" lon="7.90743">
        <ele>187.6</ele>
        <time>2024-08-25T13:28:02Z</time>
      </trkpt>
      <trkpt lat="48.96951" lon="7.90734">
        <ele>187</ele>
        <time>2024-08-25T13:28:03Z</time>
      </trkpt>
      <trkpt lat="48.96955" lon="7.90725">
        <ele>186.8</ele>
        <time>2024-08-25T13:28:04Z</time>
      </trkpt>
      <trkpt lat="48.96958" lon="7.90717">
        <ele>186.6</ele>
        <time>2024-08-25T13:28:05Z</time>
      </trkpt>
      <trkpt lat="48.96962" lon="7.90707">
        <ele>186.2</ele>
        <time>2024-08-25T13:28:06Z</time>
      </trkpt>
      <trkpt lat="48.96967" lon="7.90698">
        <ele>185.8</ele>
        <time>2024-08-25T13:28:07Z</time>
      </trkpt>
      <trkpt lat="48.96971" lon="7.90689">
        <ele>185.6</ele>
        <time>2024-08-25T13:28:08Z</time>
      </trkpt>
      <trkpt lat="48.96975" lon="7.90679">
        <ele>185.4</ele>
        <time>2024-08-25T13:28:09Z</time>
      </trkpt>
      <trkpt lat="48.96979" lon="7.90669">
        <ele>184.6</ele>
        <time>2024-08-25T13:28:10Z</time>
      </trkpt>
      <trkpt lat="48.96983" lon="7.90659">
        <ele>184.2</ele>
        <time>2024-08-25T13:28:11Z</time>
      </trkpt>
      <trkpt lat="48.96988" lon="7.9065">
        <ele>184</ele>
        <time>2024-08-25T13:28:12Z</time>
      </trkpt>
      <trkpt lat="48.96992" lon="7.90641">
        <ele>183</ele>
        <time>2024-08-25T13:28:13Z</time>
      </trkpt>
      <trkpt lat="48.96994" lon="7.90632">
        <ele>182.8</ele>
        <time>2024-08-25T13:28:14Z</time>
      </trkpt>
      <trkpt lat="48.96997" lon="7.90624">
        <ele>182.4</ele>
        <time>2024-08-25T13:28:15Z</time>
      </trkpt>
      <trkpt lat="48.97" lon="7.90616">
        <ele>182</ele>
        <time>2024-08-25T13:28:16Z</time>
      </trkpt>
      <trkpt lat="48.97003" lon="7.90608">
        <ele>181.4</ele>
        <time>2024-08-25T13:28:17Z</time>
      </trkpt>
      <trkpt lat="48.97006" lon="7.906">
        <ele>181.2</ele>
        <time>2024-08-25T13:28:18Z</time>
      </trkpt>
      <trkpt lat="48.9701" lon="7.90592">
        <ele>181.2</ele>
        <time>2024-08-25T13:28:19Z</time>
      </trkpt>
      <trkpt lat="48.97015" lon="7.90586">
        <ele>181</ele>
        <time>2024-08-25T13:28:20Z</time>
      </trkpt>
      <trkpt lat="48.97021" lon="7.90581">
        <ele>181</ele>
        <time>2024-08-25T13:28:21Z</time>
      </trkpt>
      <trkpt lat="48.97026" lon="7.90577">
        <ele>180.8</ele>
        <time>2024-08-25T13:28:22Z</time>
      </trkpt>
      <trkpt lat="48.97032" lon="7.90572">
        <ele>180.8</ele>
        <time>2024-08-25T13:28:23Z</time>
      </trkpt>
      <trkpt lat="48.97038" lon="7.90569">
        <ele>180.8</ele>
        <time>2024-08-25T13:28:24Z</time>
      </trkpt>
      <trkpt lat="48.97044" lon="7.90567">
        <ele>180.4</ele>
        <time>2024-08-25T13:28:25Z</time>
      </trkpt>
      <trkpt lat="48.97051" lon="7.90564">
        <ele>180</ele>
        <time>2024-08-25T13:28:26Z</time>
      </trkpt>
      <trkpt lat="48.97058" lon="7.90561">
        <ele>179.4</ele>
        <time>2024-08-25T13:28:27Z</time>
      </trkpt>
      <trkpt lat="48.97064" lon="7.90558">
        <ele>179</ele>
        <time>2024-08-25T13:28:28Z</time>
      </trkpt>
      <trkpt lat="48.9707" lon="7.90556">
        <ele>178.6</ele>
        <time>2024-08-25T13:28:29Z</time>
      </trkpt>
      <trkpt lat="48.97076" lon="7.90554">
        <ele>178</ele>
        <time>2024-08-25T13:28:30Z</time>
      </trkpt>
      <trkpt lat="48.9708" lon="7.9055">
        <ele>177.2</ele>
        <time>2024-08-25T13:28:31Z</time>
      </trkpt>
      <trkpt lat="48.97084" lon="7.90544">
        <ele>177</ele>
        <time>2024-08-25T13:28:32Z</time>
      </trkpt>
      <trkpt lat="48.97087" lon="7.90538">
        <ele>176.4</ele>
        <time>2024-08-25T13:28:33Z</time>
      </trkpt>
      <trkpt lat="48.97089" lon="7.90531">
        <ele>176</ele>
        <time>2024-08-25T13:28:34Z</time>
      </trkpt>
      <trkpt lat="48.9709" lon="7.90523">
        <ele>175.6</ele>
        <time>2024-08-25T13:28:35Z</time>
      </trkpt>
      <trkpt lat="48.9709" lon="7.90515">
        <ele>175</ele>
        <time>2024-08-25T13:28:36Z</time>
      </trkpt>
      <trkpt lat="48.97091" lon="7.90507">
        <ele>175</ele>
        <time>2024-08-25T13:28:37Z</time>
      </trkpt>
      <trkpt lat="48.97092" lon="7.90499">
        <ele>174.8</ele>
        <time>2024-08-25T13:28:38Z</time>
      </trkpt>
      <trkpt lat="48.97093" lon="7.9049">
        <ele>174.2</ele>
        <time>2024-08-25T13:28:39Z</time>
      </trkpt>
      <trkpt lat="48.97095" lon="7.90481">
        <ele>174</ele>
        <time>2024-08-25T13:28:40Z</time>
      </trkpt>
      <trkpt lat="48.97096" lon="7.90471">
        <ele>173.2</ele>
        <time>2024-08-25T13:28:41Z</time>
      </trkpt>
      <trkpt lat="48.97097" lon="7.90462">
        <ele>172.8</ele>
        <time>2024-08-25T13:28:42Z</time>
      </trkpt>
      <trkpt lat="48.97099" lon="7.90453">
        <ele>172.2</ele>
        <time>2024-08-25T13:28:43Z</time>
      </trkpt>
      <trkpt lat="48.971" lon="7.90444">
        <ele>172</ele>
        <time>2024-08-25T13:28:44Z</time>
      </trkpt>
      <trkpt lat="48.97101" lon="7.90434">
        <ele>171.2</ele>
        <time>2024-08-25T13:28:45Z</time>
      </trkpt>
      <trkpt lat="48.97102" lon="7.90423">
        <ele>170.2</ele>
        <time>2024-08-25T13:28:46Z</time>
      </trkpt>
      <trkpt lat="48.97103" lon="7.90413">
        <ele>169.8</ele>
        <time>2024-08-25T13:28:47Z</time>
      </trkpt>
      <trkpt lat="48.97105" lon="7.90402">
        <ele>169.6</ele>
        <time>2024-08-25T13:28:48Z</time>
      </trkpt>
      <trkpt lat="48.97107" lon="7.9039">
        <ele>168.6</ele>
        <time>2024-08-25T13:28:49Z</time>
      </trkpt>
      <trkpt lat="48.97109" lon="7.90378">
        <ele>168.4</ele>
        <time>2024-08-25T13:28:50Z</time>
      </trkpt>
      <trkpt lat="48.9711" lon="7.90367">
        <ele>168.2</ele>
        <time>2024-08-25T13:28:51Z</time>
      </trkpt>
      <trkpt lat="48.97112" lon="7.90356">
        <ele>167.6</ele>
        <time>2024-08-25T13:28:52Z</time>
      </trkpt>
      <trkpt lat="48.97114" lon="7.90345">
        <ele>167</ele>
        <time>2024-08-25T13:28:53Z</time>
      </trkpt>
      <trkpt lat="48.97115" lon="7.90335">
        <ele>166.6</ele>
        <time>2024-08-25T13:28:54Z</time>
      </trkpt>
      <trkpt lat="48.97117" lon="7.90326">
        <ele>166.4</ele>
        <time>2024-08-25T13:28:55Z</time>
      </trkpt>
      <trkpt lat="48.97119" lon="7.90318">
        <ele>166</ele>
        <time>2024-08-25T13:28:56Z</time>
      </trkpt>
      <trkpt lat="48.97121" lon="7.9031">
        <ele>165.8</ele>
        <time>2024-08-25T13:28:57Z</time>
      </trkpt>
      <trkpt lat="48.97124" lon="7.90304">
        <ele>165.8</ele>
        <time>2024-08-25T13:28:58Z</time>
      </trkpt>
      <trkpt lat="48.97127" lon="7.90297">
        <ele>165.8</ele>
        <time>2024-08-25T13:28:59Z</time>
      </trkpt>
      <trkpt lat="48.9713" lon="7.90292">
        <ele>165.6</ele>
        <time>2024-08-25T13:29:00Z</time>
      </trkpt>
      <trkpt lat="48.97134" lon="7.90285">
        <ele>165.6</ele>
        <time>2024-08-25T13:29:01Z</time>
      </trkpt>
      <trkpt lat="48.97137" lon="7.90279">
        <ele>165.6</ele>
        <time>2024-08-25T13:29:02Z</time>
      </trkpt>
      <trkpt lat="48.9714" lon="7.90274">
        <ele>165.6</ele>
        <time>2024-08-25T13:29:03Z</time>
      </trkpt>
      <trkpt lat="48.97143" lon="7.90268">
        <ele>165.6</ele>
        <time>2024-08-25T13:29:04Z</time>
      </trkpt>
      <trkpt lat="48.97146" lon="7.90262">
        <ele>165.4</ele>
        <time>2024-08-25T13:29:05Z</time>
      </trkpt>
      <trkpt lat="48.97149" lon="7.90256">
        <ele>165.4</ele>
        <time>2024-08-25T13:29:06Z</time>
      </trkpt>
      <trkpt lat="48.97152" lon="7.9025">
        <ele>165.4</ele>
        <time>2024-08-25T13:29:07Z</time>
      </trkpt>
      <trkpt lat="48.97155" lon="7.90244">
        <ele>165.4</ele>
        <time>2024-08-25T13:29:08Z</time>
      </trkpt>
      <trkpt lat="48.97158" lon="7.90239">
        <ele>165.4</ele>
        <time>2024-08-25T13:29:09Z</time>
      </trkpt>
      <trkpt lat="48.97161" lon="7.90233">
        <ele>165.4</ele>
        <time>2024-08-25T13:29:10Z</time>
      </trkpt>
      <trkpt lat="48.97163" lon="7.90227">
        <ele>165.4</ele>
        <time>2024-08-25T13:29:11Z</time>
      </trkpt>
      <trkpt lat="48.97166" lon="7.90222">
        <ele>165.4</ele>
        <time>2024-08-25T13:29:12Z</time>
      </trkpt>
      <trkpt lat="48.97168" lon="7.90216">
        <ele>165.4</ele>
        <time>2024-08-25T13:29:13Z</time>
      </trkpt>
      <trkpt lat="48.97171" lon="7.90211">
        <ele>165.4</ele>
        <time>2024-08-25T13:29:14Z</time>
      </trkpt>
      <trkpt lat="48.97174" lon="7.90205">
        <ele>165.4</ele>
        <time>2024-08-25T13:29:15Z</time>
      </trkpt>
      <trkpt lat="48.97176" lon="7.902">
        <ele>165.4</ele>
        <time>2024-08-25T13:29:16Z</time>
      </trkpt>
      <trkpt lat="48.97179" lon="7.90194">
        <ele>165.4</ele>
        <time>2024-08-25T13:29:17Z</time>
      </trkpt>
      <trkpt lat="48.97182" lon="7.90189">
        <ele>165.4</ele>
        <time>2024-08-25T13:29:18Z</time>
      </trkpt>
      <trkpt lat="48.97184" lon="7.90184">
        <ele>165.4</ele>
        <time>2024-08-25T13:29:19Z</time>
      </trkpt>
      <trkpt lat="48.97187" lon="7.90178">
        <ele>165.4</ele>
        <time>2024-08-25T13:29:20Z</time>
      </trkpt>
      <trkpt lat="48.97189" lon="7.90173">
        <ele>165.6</ele>
        <time>2024-08-25T13:29:21Z</time>
      </trkpt>
      <trkpt lat="48.97192" lon="7.90168">
        <ele>165.8</ele>
        <time>2024-08-25T13:29:22Z</time>
      </trkpt>
      <trkpt lat="48.97194" lon="7.90162">
        <ele>166</ele>
        <time>2024-08-25T13:29:23Z</time>
      </trkpt>
      <trkpt lat="48.97196" lon="7.90157">
        <ele>166.2</ele>
        <time>2024-08-25T13:29:24Z</time>
      </trkpt>
      <trkpt lat="48.97199" lon="7.90151">
        <ele>166.4</ele>
        <time>2024-08-25T13:29:25Z</time>
      </trkpt>
      <trkpt lat="48.97201" lon="7.90145">
        <ele>166.6</ele>
        <time>2024-08-25T13:29:26Z</time>
      </trkpt>
      <trkpt lat="48.97203" lon="7.90139">
        <ele>166.8</ele>
        <time>2024-08-25T13:29:27Z</time>
      </trkpt>
      <trkpt lat="48.97205" lon="7.90134">
        <ele>166.8</ele>
        <time>2024-08-25T13:29:28Z</time>
      </trkpt>
      <trkpt lat="48.97207" lon="7.90128">
        <ele>167</ele>
        <time>2024-08-25T13:29:29Z</time>
      </trkpt>
      <trkpt lat="48.97208" lon="7.90122">
        <ele>167</ele>
        <time>2024-08-25T13:29:30Z</time>
      </trkpt>
      <trkpt lat="48.9721" lon="7.90117">
        <ele>167</ele>
        <time>2024-08-25T13:29:31Z</time>
      </trkpt>
      <trkpt lat="48.97212" lon="7.90111">
        <ele>167.2</ele>
        <time>2024-08-25T13:29:32Z</time>
      </trkpt>
      <trkpt lat="48.97214" lon="7.90105">
        <ele>167.2</ele>
        <time>2024-08-25T13:29:33Z</time>
      </trkpt>
      <trkpt lat="48.97215" lon="7.90099">
        <ele>167.4</ele>
        <time>2024-08-25T13:29:34Z</time>
      </trkpt>
      <trkpt lat="48.97216" lon="7.90094">
        <ele>167.6</ele>
        <time>2024-08-25T13:29:35Z</time>
      </trkpt>
      <trkpt lat="48.97217" lon="7.90088">
        <ele>167.6</ele>
        <time>2024-08-25T13:29:36Z</time>
      </trkpt>
      <trkpt lat="48.97219" lon="7.90083">
        <ele>167.8</ele>
        <time>2024-08-25T13:29:37Z</time>
      </trkpt>
      <trkpt lat="48.9722" lon="7.90078">
        <ele>168</ele>
        <time>2024-08-25T13:29:38Z</time>
      </trkpt>
      <trkpt lat="48.9722" lon="7.90072">
        <ele>168</ele>
        <time>2024-08-25T13:29:39Z</time>
      </trkpt>
      <trkpt lat="48.97221" lon="7.90067">
        <ele>168.2</ele>
        <time>2024-08-25T13:29:40Z</time>
      </trkpt>
      <trkpt lat="48.97222" lon="7.90062">
        <ele>168.4</ele>
        <time>2024-08-25T13:29:41Z</time>
      </trkpt>
      <trkpt lat="48.97223" lon="7.90057">
        <ele>168.6</ele>
        <time>2024-08-25T13:29:42Z</time>
      </trkpt>
      <trkpt lat="48.97224" lon="7.90052">
        <ele>168.8</ele>
        <time>2024-08-25T13:29:43Z</time>
      </trkpt>
      <trkpt lat="48.97226" lon="7.90048">
        <ele>169.4</ele>
        <time>2024-08-25T13:29:44Z</time>
      </trkpt>
      <trkpt lat="48.97227" lon="7.90045">
        <ele>169.6</ele>
        <time>2024-08-25T13:29:45Z</time>
      </trkpt>
      <trkpt lat="48.97229" lon="7.90041">
        <ele>170</ele>
        <time>2024-08-25T13:29:46Z</time>
      </trkpt>
      <trkpt lat="48.9723" lon="7.90037">
        <ele>170.2</ele>
        <time>2024-08-25T13:29:47Z</time>
      </trkpt>
      <trkpt lat="48.97232" lon="7.90033">
        <ele>170.4</ele>
        <time>2024-08-25T13:29:48Z</time>
      </trkpt>
      <trkpt lat="48.97234" lon="7.9003">
        <ele>170.6</ele>
        <time>2024-08-25T13:29:49Z</time>
      </trkpt>
      <trkpt lat="48.97236" lon="7.90027">
        <ele>170.8</ele>
        <time>2024-08-25T13:29:50Z</time>
      </trkpt>
      <trkpt lat="48.97238" lon="7.90023">
        <ele>170.8</ele>
        <time>2024-08-25T13:29:51Z</time>
      </trkpt>
      <trkpt lat="48.97239" lon="7.9002">
        <ele>171.2</ele>
        <time>2024-08-25T13:29:52Z</time>
      </trkpt>
      <trkpt lat="48.97241" lon="7.90018">
        <ele>171.4</ele>
        <time>2024-08-25T13:29:53Z</time>
      </trkpt>
      <trkpt lat="48.97243" lon="7.90014">
        <ele>171.4</ele>
        <time>2024-08-25T13:29:54Z</time>
      </trkpt>
      <trkpt lat="48.97244" lon="7.90011">
        <ele>171.8</ele>
        <time>2024-08-25T13:29:55Z</time>
      </trkpt>
      <trkpt lat="48.97246" lon="7.90008">
        <ele>171.8</ele>
        <time>2024-08-25T13:29:56Z</time>
      </trkpt>
      <trkpt lat="48.97248" lon="7.90005">
        <ele>172.2</ele>
        <time>2024-08-25T13:29:57Z</time>
      </trkpt>
      <trkpt lat="48.97249" lon="7.90002">
        <ele>172.4</ele>
        <time>2024-08-25T13:29:58Z</time>
      </trkpt>
      <trkpt lat="48.9725" lon="7.89999">
        <ele>172.6</ele>
        <time>2024-08-25T13:29:59Z</time>
      </trkpt>
      <trkpt lat="48.97251" lon="7.89996">
        <ele>172.6</ele>
        <time>2024-08-25T13:30:00Z</time>
      </trkpt>
      <trkpt lat="48.97253" lon="7.89994">
        <ele>172.8</ele>
        <time>2024-08-25T13:30:01Z</time>
      </trkpt>
      <trkpt lat="48.97255" lon="7.89991">
        <ele>173</ele>
        <time>2024-08-25T13:30:02Z</time>
      </trkpt>
      <trkpt lat="48.97256" lon="7.89987">
        <ele>173</ele>
        <time>2024-08-25T13:30:03Z</time>
      </trkpt>
      <trkpt lat="48.97258" lon="7.89985">
        <ele>173.2</ele>
        <time>2024-08-25T13:30:04Z</time>
      </trkpt>
      <trkpt lat="48.9726" lon="7.89982">
        <ele>173.4</ele>
        <time>2024-08-25T13:30:05Z</time>
      </trkpt>
      <trkpt lat="48.97261" lon="7.89979">
        <ele>173.6</ele>
        <time>2024-08-25T13:30:06Z</time>
      </trkpt>
      <trkpt lat="48.97263" lon="7.89977">
        <ele>173.8</ele>
        <time>2024-08-25T13:30:07Z</time>
      </trkpt>
      <trkpt lat="48.97264" lon="7.89974">
        <ele>174</ele>
        <time>2024-08-25T13:30:08Z</time>
      </trkpt>
      <trkpt lat="48.97266" lon="7.89971">
        <ele>174.2</ele>
        <time>2024-08-25T13:30:09Z</time>
      </trkpt>
      <trkpt lat="48.97267" lon="7.89969">
        <ele>174.4</ele>
        <time>2024-08-25T13:30:10Z</time>
      </trkpt>
      <trkpt lat="48.97268" lon="7.89967">
        <ele>174.6</ele>
        <time>2024-08-25T13:30:11Z</time>
      </trkpt>
      <trkpt lat="48.9727" lon="7.89964">
        <ele>174.8</ele>
        <time>2024-08-25T13:30:12Z</time>
      </trkpt>
      <trkpt lat="48.97271" lon="7.89961">
        <ele>175</ele>
        <time>2024-08-25T13:30:13Z</time>
      </trkpt>
      <trkpt lat="48.97273" lon="7.89959">
        <ele>175</ele>
        <time>2024-08-25T13:30:14Z</time>
      </trkpt>
      <trkpt lat="48.97274" lon="7.89956">
        <ele>175.4</ele>
        <time>2024-08-25T13:30:15Z</time>
      </trkpt>
      <trkpt lat="48.97276" lon="7.89953">
        <ele>175.4</ele>
        <time>2024-08-25T13:30:16Z</time>
      </trkpt>
      <trkpt lat="48.97277" lon="7.89951">
        <ele>175.8</ele>
        <time>2024-08-25T13:30:17Z</time>
      </trkpt>
      <trkpt lat="48.97278" lon="7.89949">
        <ele>175.8</ele>
        <time>2024-08-25T13:30:18Z</time>
      </trkpt>
      <trkpt lat="48.97279" lon="7.89946">
        <ele>176</ele>
        <time>2024-08-25T13:30:19Z</time>
      </trkpt>
      <trkpt lat="48.97281" lon="7.89944">
        <ele>176.4</ele>
        <time>2024-08-25T13:30:20Z</time>
      </trkpt>
      <trkpt lat="48.97282" lon="7.89942">
        <ele>176.4</ele>
        <time>2024-08-25T13:30:21Z</time>
      </trkpt>
      <trkpt lat="48.97284" lon="7.89939">
        <ele>176.6</ele>
        <time>2024-08-25T13:30:22Z</time>
      </trkpt>
      <trkpt lat="48.97285" lon="7.89936">
        <ele>176.8</ele>
        <time>2024-08-25T13:30:23Z</time>
      </trkpt>
      <trkpt lat="48.97287" lon="7.89934">
        <ele>177.2</ele>
        <time>2024-08-25T13:30:24Z</time>
      </trkpt>
      <trkpt lat="48.97288" lon="7.89931">
        <ele>177.4</ele>
        <time>2024-08-25T13:30:25Z</time>
      </trkpt>
      <trkpt lat="48.9729" lon="7.89928">
        <ele>177.6</ele>
        <time>2024-08-25T13:30:26Z</time>
      </trkpt>
      <trkpt lat="48.97291" lon="7.89925">
        <ele>177.8</ele>
        <time>2024-08-25T13:30:27Z</time>
      </trkpt>
      <trkpt lat="48.97292" lon="7.89923">
        <ele>178</ele>
        <time>2024-08-25T13:30:28Z</time>
      </trkpt>
      <trkpt lat="48.97293" lon="7.8992">
        <ele>178.4</ele>
        <time>2024-08-25T13:30:29Z</time>
      </trkpt>
      <trkpt lat="48.97295" lon="7.89917">
        <ele>178.6</ele>
        <time>2024-08-25T13:30:30Z</time>
      </trkpt>
      <trkpt lat="48.97296" lon="7.89915">
        <ele>178.8</ele>
        <time>2024-08-25T13:30:31Z</time>
      </trkpt>
      <trkpt lat="48.97298" lon="7.89912">
        <ele>179</ele>
        <time>2024-08-25T13:30:32Z</time>
      </trkpt>
      <trkpt lat="48.97299" lon="7.89909">
        <ele>179.2</ele>
        <time>2024-08-25T13:30:33Z</time>
      </trkpt>
      <trkpt lat="48.97301" lon="7.89906">
        <ele>179.4</ele>
        <time>2024-08-25T13:30:34Z</time>
      </trkpt>
      <trkpt lat="48.97302" lon="7.89904">
        <ele>179.6</ele>
        <time>2024-08-25T13:30:35Z</time>
      </trkpt>
      <trkpt lat="48.97303" lon="7.89901">
        <ele>179.8</ele>
        <time>2024-08-25T13:30:36Z</time>
      </trkpt>
      <trkpt lat="48.97305" lon="7.89898">
        <ele>180</ele>
        <time>2024-08-25T13:30:37Z</time>
      </trkpt>
      <trkpt lat="48.97307" lon="7.89896">
        <ele>180.2</ele>
        <time>2024-08-25T13:30:38Z</time>
      </trkpt>
      <trkpt lat="48.97308" lon="7.89894">
        <ele>180.2</ele>
        <time>2024-08-25T13:30:39Z</time>
      </trkpt>
      <trkpt lat="48.97309" lon="7.89891">
        <ele>180.4</ele>
        <time>2024-08-25T13:30:40Z</time>
      </trkpt>
      <trkpt lat="48.97311" lon="7.89888">
        <ele>180.8</ele>
        <time>2024-08-25T13:30:41Z</time>
      </trkpt>
      <trkpt lat="48.97312" lon="7.89885">
        <ele>181</ele>
        <time>2024-08-25T13:30:42Z</time>
      </trkpt>
      <trkpt lat="48.97313" lon="7.89882">
        <ele>181</ele>
        <time>2024-08-25T13:30:43Z</time>
      </trkpt>
      <trkpt lat="48.97314" lon="7.89879">
        <ele>181.4</ele>
        <time>2024-08-25T13:30:44Z</time>
      </trkpt>
      <trkpt lat="48.97316" lon="7.89876">
        <ele>181.4</ele>
        <time>2024-08-25T13:30:45Z</time>
      </trkpt>
      <trkpt lat="48.97317" lon="7.89873">
        <ele>181.6</ele>
        <time>2024-08-25T13:30:46Z</time>
      </trkpt>
      <trkpt lat="48.97318" lon="7.8987">
        <ele>182</ele>
        <time>2024-08-25T13:30:47Z</time>
      </trkpt>
      <trkpt lat="48.9732" lon="7.89867">
        <ele>182.2</ele>
        <time>2024-08-25T13:30:48Z</time>
      </trkpt>
      <trkpt lat="48.97321" lon="7.89864">
        <ele>182.2</ele>
        <time>2024-08-25T13:30:49Z</time>
      </trkpt>
      <trkpt lat="48.97322" lon="7.89861">
        <ele>182.4</ele>
        <time>2024-08-25T13:30:50Z</time>
      </trkpt>
      <trkpt lat="48.97323" lon="7.89858">
        <ele>182.8</ele>
        <time>2024-08-25T13:30:51Z</time>
      </trkpt>
      <trkpt lat="48.97324" lon="7.89855">
        <ele>183</ele>
        <time>2024-08-25T13:30:52Z</time>
      </trkpt>
      <trkpt lat="48.97326" lon="7.89853">
        <ele>183.4</ele>
        <time>2024-08-25T13:30:53Z</time>
      </trkpt>
      <trkpt lat="48.97327" lon="7.89849">
        <ele>183.4</ele>
        <time>2024-08-25T13:30:54Z</time>
      </trkpt>
      <trkpt lat="48.97328" lon="7.89846">
        <ele>183.6</ele>
        <time>2024-08-25T13:30:55Z</time>
      </trkpt>
      <trkpt lat="48.97329" lon="7.89843">
        <ele>183.8</ele>
        <time>2024-08-25T13:30:56Z</time>
      </trkpt>
      <trkpt lat="48.97331" lon="7.8984">
        <ele>184</ele>
        <time>2024-08-25T13:30:57Z</time>
      </trkpt>
      <trkpt lat="48.97332" lon="7.89836">
        <ele>184.2</ele>
        <time>2024-08-25T13:30:58Z</time>
      </trkpt>
      <trkpt lat="48.97333" lon="7.89833">
        <ele>184.4</ele>
        <time>2024-08-25T13:30:59Z</time>
      </trkpt>
      <trkpt lat="48.97334" lon="7.8983">
        <ele>184.8</ele>
        <time>2024-08-25T13:31:00Z</time>
      </trkpt>
      <trkpt lat="48.97335" lon="7.89827">
        <ele>184.8</ele>
        <time>2024-08-25T13:31:01Z</time>
      </trkpt>
      <trkpt lat="48.97336" lon="7.89824">
        <ele>185</ele>
        <time>2024-08-25T13:31:02Z</time>
      </trkpt>
      <trkpt lat="48.97337" lon="7.89821">
        <ele>185.2</ele>
        <time>2024-08-25T13:31:03Z</time>
      </trkpt>
      <trkpt lat="48.97338" lon="7.89818">
        <ele>185.4</ele>
        <time>2024-08-25T13:31:04Z</time>
      </trkpt>
      <trkpt lat="48.97339" lon="7.89814">
        <ele>185.4</ele>
        <time>2024-08-25T13:31:05Z</time>
      </trkpt>
      <trkpt lat="48.97341" lon="7.8981">
        <ele>185.6</ele>
        <time>2024-08-25T13:31:06Z</time>
      </trkpt>
      <trkpt lat="48.97342" lon="7.89806">
        <ele>185.8</ele>
        <time>2024-08-25T13:31:07Z</time>
      </trkpt>
      <trkpt lat="48.97344" lon="7.89802">
        <ele>186</ele>
        <time>2024-08-25T13:31:08Z</time>
      </trkpt>
      <trkpt lat="48.97345" lon="7.89798">
        <ele>186.2</ele>
        <time>2024-08-25T13:31:09Z</time>
      </trkpt>
      <trkpt lat="48.97347" lon="7.89794">
        <ele>186.4</ele>
        <time>2024-08-25T13:31:10Z</time>
      </trkpt>
      <trkpt lat="48.97348" lon="7.8979">
        <ele>186.4</ele>
        <time>2024-08-25T13:31:11Z</time>
      </trkpt>
      <trkpt lat="48.9735" lon="7.89786">
        <ele>186.4</ele>
        <time>2024-08-25T13:31:12Z</time>
      </trkpt>
      <trkpt lat="48.97351" lon="7.89782">
        <ele>186.6</ele>
        <time>2024-08-25T13:31:13Z</time>
      </trkpt>
      <trkpt lat="48.97352" lon="7.89778">
        <ele>186.6</ele>
        <time>2024-08-25T13:31:14Z</time>
      </trkpt>
      <trkpt lat="48.97354" lon="7.89774">
        <ele>186.6</ele>
        <time>2024-08-25T13:31:15Z</time>
      </trkpt>
      <trkpt lat="48.97356" lon="7.8977">
        <ele>186.6</ele>
        <time>2024-08-25T13:31:16Z</time>
      </trkpt>
      <trkpt lat="48.97357" lon="7.89766">
        <ele>186.6</ele>
        <time>2024-08-25T13:31:17Z</time>
      </trkpt>
      <trkpt lat="48.97358" lon="7.89761">
        <ele>186.6</ele>
        <time>2024-08-25T13:31:18Z</time>
      </trkpt>
      <trkpt lat="48.9736" lon="7.89756">
        <ele>186.6</ele>
        <time>2024-08-25T13:31:19Z</time>
      </trkpt>
      <trkpt lat="48.97362" lon="7.89752">
        <ele>186.6</ele>
        <time>2024-08-25T13:31:20Z</time>
      </trkpt>
      <trkpt lat="48.97364" lon="7.89746">
        <ele>186.6</ele>
        <time>2024-08-25T13:31:21Z</time>
      </trkpt>
      <trkpt lat="48.97366" lon="7.8974">
        <ele>186.6</ele>
        <time>2024-08-25T13:31:22Z</time>
      </trkpt>
      <trkpt lat="48.97368" lon="7.89734">
        <ele>186.6</ele>
        <time>2024-08-25T13:31:23Z</time>
      </trkpt>
      <trkpt lat="48.9737" lon="7.89728">
        <ele>186.6</ele>
        <time>2024-08-25T13:31:24Z</time>
      </trkpt>
      <trkpt lat="48.97372" lon="7.89722">
        <ele>186.4</ele>
        <time>2024-08-25T13:31:25Z</time>
      </trkpt>
      <trkpt lat="48.97373" lon="7.89715">
        <ele>186</ele>
        <time>2024-08-25T13:31:26Z</time>
      </trkpt>
      <trkpt lat="48.97375" lon="7.89709">
        <ele>186</ele>
        <time>2024-08-25T13:31:27Z</time>
      </trkpt>
      <trkpt lat="48.97377" lon="7.89702">
        <ele>185.6</ele>
        <time>2024-08-25T13:31:28Z</time>
      </trkpt>
      <trkpt lat="48.97379" lon="7.89695">
        <ele>185.6</ele>
        <time>2024-08-25T13:31:29Z</time>
      </trkpt>
      <trkpt lat="48.97381" lon="7.89687">
        <ele>185.4</ele>
        <time>2024-08-25T13:31:30Z</time>
      </trkpt>
      <trkpt lat="48.97383" lon="7.8968">
        <ele>185.4</ele>
        <time>2024-08-25T13:31:31Z</time>
      </trkpt>
      <trkpt lat="48.97385" lon="7.89672">
        <ele>185</ele>
        <time>2024-08-25T13:31:32Z</time>
      </trkpt>
      <trkpt lat="48.97387" lon="7.89664">
        <ele>184.6</ele>
        <time>2024-08-25T13:31:33Z</time>
      </trkpt>
      <trkpt lat="48.97389" lon="7.89657">
        <ele>184.4</ele>
        <time>2024-08-25T13:31:34Z</time>
      </trkpt>
      <trkpt lat="48.97391" lon="7.8965">
        <ele>183.8</ele>
        <time>2024-08-25T13:31:35Z</time>
      </trkpt>
      <trkpt lat="48.97393" lon="7.89644">
        <ele>183.6</ele>
        <time>2024-08-25T13:31:36Z</time>
      </trkpt>
      <trkpt lat="48.97395" lon="7.89639">
        <ele>183.4</ele>
        <time>2024-08-25T13:31:37Z</time>
      </trkpt>
      <trkpt lat="48.97397" lon="7.89635">
        <ele>183.2</ele>
        <time>2024-08-25T13:31:38Z</time>
      </trkpt>
      <trkpt lat="48.974" lon="7.89632">
        <ele>183.2</ele>
        <time>2024-08-25T13:31:39Z</time>
      </trkpt>
      <trkpt lat="48.97404" lon="7.8963">
        <ele>183.2</ele>
        <time>2024-08-25T13:31:40Z</time>
      </trkpt>
      <trkpt lat="48.97408" lon="7.89629">
        <ele>183</ele>
        <time>2024-08-25T13:31:41Z</time>
      </trkpt>
      <trkpt lat="48.97412" lon="7.8963">
        <ele>183</ele>
        <time>2024-08-25T13:31:42Z</time>
      </trkpt>
      <trkpt lat="48.97417" lon="7.89632">
        <ele>183</ele>
        <time>2024-08-25T13:31:43Z</time>
      </trkpt>
      <trkpt lat="48.97421" lon="7.89635">
        <ele>183</ele>
        <time>2024-08-25T13:31:44Z</time>
      </trkpt>
      <trkpt lat="48.97425" lon="7.89637">
        <ele>183</ele>
        <time>2024-08-25T13:31:45Z</time>
      </trkpt>
      <trkpt lat="48.97429" lon="7.89639">
        <ele>183</ele>
        <time>2024-08-25T13:31:46Z</time>
      </trkpt>
      <trkpt lat="48.97433" lon="7.89642">
        <ele>183</ele>
        <time>2024-08-25T13:31:47Z</time>
      </trkpt>
      <trkpt lat="48.97437" lon="7.89644">
        <ele>183</ele>
        <time>2024-08-25T13:31:48Z</time>
      </trkpt>
      <trkpt lat="48.97441" lon="7.89646">
        <ele>183</ele>
        <time>2024-08-25T13:31:49Z</time>
      </trkpt>
      <trkpt lat="48.97446" lon="7.89647">
        <ele>183.2</ele>
        <time>2024-08-25T13:31:50Z</time>
      </trkpt>
      <trkpt lat="48.9745" lon="7.89648">
        <ele>183.2</ele>
        <time>2024-08-25T13:31:51Z</time>
      </trkpt>
      <trkpt lat="48.97455" lon="7.8965">
        <ele>183.6</ele>
        <time>2024-08-25T13:31:52Z</time>
      </trkpt>
      <trkpt lat="48.97459" lon="7.89652">
        <ele>183.6</ele>
        <time>2024-08-25T13:31:53Z</time>
      </trkpt>
      <trkpt lat="48.97464" lon="7.89653">
        <ele>183.6</ele>
        <time>2024-08-25T13:31:54Z</time>
      </trkpt>
      <trkpt lat="48.97468" lon="7.89655">
        <ele>183.8</ele>
        <time>2024-08-25T13:31:55Z</time>
      </trkpt>
      <trkpt lat="48.97472" lon="7.89657">
        <ele>183.8</ele>
        <time>2024-08-25T13:31:56Z</time>
      </trkpt>
      <trkpt lat="48.97477" lon="7.89659">
        <ele>183.8</ele>
        <time>2024-08-25T13:31:57Z</time>
      </trkpt>
      <trkpt lat="48.97481" lon="7.89661">
        <ele>183.8</ele>
        <time>2024-08-25T13:31:58Z</time>
      </trkpt>
      <trkpt lat="48.97486" lon="7.89663">
        <ele>183.8</ele>
        <time>2024-08-25T13:31:59Z</time>
      </trkpt>
      <trkpt lat="48.97491" lon="7.89665">
        <ele>183.8</ele>
        <time>2024-08-25T13:32:00Z</time>
      </trkpt>
      <trkpt lat="48.97495" lon="7.89666">
        <ele>183.8</ele>
        <time>2024-08-25T13:32:01Z</time>
      </trkpt>
      <trkpt lat="48.975" lon="7.89668">
        <ele>183.8</ele>
        <time>2024-08-25T13:32:02Z</time>
      </trkpt>
      <trkpt lat="48.97505" lon="7.8967">
        <ele>183.8</ele>
        <time>2024-08-25T13:32:03Z</time>
      </trkpt>
      <trkpt lat="48.9751" lon="7.89672">
        <ele>183.8</ele>
        <time>2024-08-25T13:32:04Z</time>
      </trkpt>
      <trkpt lat="48.97514" lon="7.89674">
        <ele>183.8</ele>
        <time>2024-08-25T13:32:05Z</time>
      </trkpt>
      <trkpt lat="48.97519" lon="7.89676">
        <ele>184</ele>
        <time>2024-08-25T13:32:06Z</time>
      </trkpt>
      <trkpt lat="48.97524" lon="7.89678">
        <ele>184</ele>
        <time>2024-08-25T13:32:07Z</time>
      </trkpt>
      <trkpt lat="48.97529" lon="7.89679">
        <ele>184</ele>
        <time>2024-08-25T13:32:08Z</time>
      </trkpt>
      <trkpt lat="48.97535" lon="7.89681">
        <ele>184</ele>
        <time>2024-08-25T13:32:09Z</time>
      </trkpt>
      <trkpt lat="48.9754" lon="7.89683">
        <ele>184.2</ele>
        <time>2024-08-25T13:32:10Z</time>
      </trkpt>
      <trkpt lat="48.97545" lon="7.89684">
        <ele>184.2</ele>
        <time>2024-08-25T13:32:11Z</time>
      </trkpt>
      <trkpt lat="48.9755" lon="7.89686">
        <ele>184.2</ele>
        <time>2024-08-25T13:32:12Z</time>
      </trkpt>
      <trkpt lat="48.97555" lon="7.89687">
        <ele>184.2</ele>
        <time>2024-08-25T13:32:13Z</time>
      </trkpt>
      <trkpt lat="48.9756" lon="7.89688">
        <ele>184.2</ele>
        <time>2024-08-25T13:32:14Z</time>
      </trkpt>
      <trkpt lat="48.97565" lon="7.89689">
        <ele>184.2</ele>
        <time>2024-08-25T13:32:15Z</time>
      </trkpt>
      <trkpt lat="48.9757" lon="7.8969">
        <ele>184.2</ele>
        <time>2024-08-25T13:32:16Z</time>
      </trkpt>
      <trkpt lat="48.97575" lon="7.8969">
        <ele>184.4</ele>
        <time>2024-08-25T13:32:17Z</time>
      </trkpt>
      <trkpt lat="48.9758" lon="7.89691">
        <ele>184.4</ele>
        <time>2024-08-25T13:32:18Z</time>
      </trkpt>
      <trkpt lat="48.97585" lon="7.89692">
        <ele>184.6</ele>
        <time>2024-08-25T13:32:19Z</time>
      </trkpt>
      <trkpt lat="48.9759" lon="7.89693">
        <ele>184.6</ele>
        <time>2024-08-25T13:32:20Z</time>
      </trkpt>
      <trkpt lat="48.97595" lon="7.89693">
        <ele>184.6</ele>
        <time>2024-08-25T13:32:21Z</time>
      </trkpt>
      <trkpt lat="48.976" lon="7.89694">
        <ele>184.8</ele>
        <time>2024-08-25T13:32:22Z</time>
      </trkpt>
      <trkpt lat="48.97605" lon="7.89695">
        <ele>184.8</ele>
        <time>2024-08-25T13:32:23Z</time>
      </trkpt>
      <trkpt lat="48.9761" lon="7.89695">
        <ele>185</ele>
        <time>2024-08-25T13:32:24Z</time>
      </trkpt>
      <trkpt lat="48.97615" lon="7.89696">
        <ele>185</ele>
        <time>2024-08-25T13:32:25Z</time>
      </trkpt>
      <trkpt lat="48.97621" lon="7.89696">
        <ele>185</ele>
        <time>2024-08-25T13:32:26Z</time>
      </trkpt>
      <trkpt lat="48.97626" lon="7.89697">
        <ele>185</ele>
        <time>2024-08-25T13:32:27Z</time>
      </trkpt>
      <trkpt lat="48.97631" lon="7.89697">
        <ele>185.2</ele>
        <time>2024-08-25T13:32:28Z</time>
      </trkpt>
      <trkpt lat="48.97635" lon="7.89698">
        <ele>185.2</ele>
        <time>2024-08-25T13:32:29Z</time>
      </trkpt>
      <trkpt lat="48.97638" lon="7.89698">
        <ele>185.2</ele>
        <time>2024-08-25T13:32:30Z</time>
      </trkpt>
      <trkpt lat="48.97642" lon="7.89698">
        <ele>185.2</ele>
        <time>2024-08-25T13:32:31Z</time>
      </trkpt>
      <trkpt lat="48.97644" lon="7.89699">
        <ele>185.4</ele>
        <time>2024-08-25T13:32:32Z</time>
      </trkpt>
      <trkpt lat="48.97645" lon="7.89698">
        <ele>185.4</ele>
        <time>2024-08-25T13:32:33Z</time>
      </trkpt>
      <trkpt lat="48.97645" lon="7.89698">
        <ele>185.8</ele>
        <time>2024-08-25T13:32:34Z</time>
      </trkpt>
      <trkpt lat="48.97645" lon="7.89698">
        <ele>186</ele>
        <time>2024-08-25T13:32:35Z</time>
      </trkpt>
      <trkpt lat="48.9765" lon="7.897">
        <ele>186</ele>
        <time>2024-08-25T13:32:50Z</time>
      </trkpt>
      <trkpt lat="48.97652" lon="7.89699">
        <ele>186</ele>
        <time>2024-08-25T13:32:51Z</time>
      </trkpt>
      <trkpt lat="48.97654" lon="7.897">
        <ele>186</ele>
        <time>2024-08-25T13:32:52Z</time>
      </trkpt>
      <trkpt lat="48.97657" lon="7.897">
        <ele>186</ele>
        <time>2024-08-25T13:32:53Z</time>
      </trkpt>
      <trkpt lat="48.9766" lon="7.89701">
        <ele>186</ele>
        <time>2024-08-25T13:32:54Z</time>
      </trkpt>
      <trkpt lat="48.97663" lon="7.89702">
        <ele>186</ele>
        <time>2024-08-25T13:32:55Z</time>
      </trkpt>
      <trkpt lat="48.97667" lon="7.89703">
        <ele>186</ele>
        <time>2024-08-25T13:32:56Z</time>
      </trkpt>
      <trkpt lat="48.9767" lon="7.89703">
        <ele>186</ele>
        <time>2024-08-25T13:32:57Z</time>
      </trkpt>
      <trkpt lat="48.97674" lon="7.89703">
        <ele>186</ele>
        <time>2024-08-25T13:32:58Z</time>
      </trkpt>
      <trkpt lat="48.97678" lon="7.89703">
        <ele>186</ele>
        <time>2024-08-25T13:32:59Z</time>
      </trkpt>
      <trkpt lat="48.97682" lon="7.89704">
        <ele>186</ele>
        <time>2024-08-25T13:33:00Z</time>
      </trkpt>
      <trkpt lat="48.97686" lon="7.89705">
        <ele>186</ele>
        <time>2024-08-25T13:33:01Z</time>
      </trkpt>
      <trkpt lat="48.9769" lon="7.89705">
        <ele>186</ele>
        <time>2024-08-25T13:33:02Z</time>
      </trkpt>
      <trkpt lat="48.97694" lon="7.89706">
        <ele>186.2</ele>
        <time>2024-08-25T13:33:03Z</time>
      </trkpt>
      <trkpt lat="48.97698" lon="7.89706">
        <ele>186.2</ele>
        <time>2024-08-25T13:33:04Z</time>
      </trkpt>
      <trkpt lat="48.97703" lon="7.89707">
        <ele>186.2</ele>
        <time>2024-08-25T13:33:05Z</time>
      </trkpt>
      <trkpt lat="48.97707" lon="7.89707">
        <ele>186.2</ele>
        <time>2024-08-25T13:33:06Z</time>
      </trkpt>
      <trkpt lat="48.97711" lon="7.89708">
        <ele>186.2</ele>
        <time>2024-08-25T13:33:07Z</time>
      </trkpt>
      <trkpt lat="48.97716" lon="7.89708">
        <ele>186.2</ele>
        <time>2024-08-25T13:33:08Z</time>
      </trkpt>
      <trkpt lat="48.9772" lon="7.89709">
        <ele>186.2</ele>
        <time>2024-08-25T13:33:09Z</time>
      </trkpt>
      <trkpt lat="48.97724" lon="7.89709">
        <ele>186.6</ele>
        <time>2024-08-25T13:33:10Z</time>
      </trkpt>
      <trkpt lat="48.97729" lon="7.8971">
        <ele>186.6</ele>
        <time>2024-08-25T13:33:11Z</time>
      </trkpt>
      <trkpt lat="48.97733" lon="7.8971">
        <ele>187</ele>
        <time>2024-08-25T13:33:12Z</time>
      </trkpt>
      <trkpt lat="48.97738" lon="7.89711">
        <ele>187</ele>
        <time>2024-08-25T13:33:13Z</time>
      </trkpt>
      <trkpt lat="48.97742" lon="7.89711">
        <ele>187.2</ele>
        <time>2024-08-25T13:33:14Z</time>
      </trkpt>
      <trkpt lat="48.97746" lon="7.89711">
        <ele>187.4</ele>
        <time>2024-08-25T13:33:15Z</time>
      </trkpt>
      <trkpt lat="48.97751" lon="7.89711">
        <ele>187.6</ele>
        <time>2024-08-25T13:33:16Z</time>
      </trkpt>
      <trkpt lat="48.97755" lon="7.8971">
        <ele>187.6</ele>
        <time>2024-08-25T13:33:17Z</time>
      </trkpt>
      <trkpt lat="48.9776" lon="7.8971">
        <ele>187.6</ele>
        <time>2024-08-25T13:33:18Z</time>
      </trkpt>
      <trkpt lat="48.97764" lon="7.8971">
        <ele>187.6</ele>
        <time>2024-08-25T13:33:19Z</time>
      </trkpt>
      <trkpt lat="48.97768" lon="7.8971">
        <ele>187.8</ele>
        <time>2024-08-25T13:33:20Z</time>
      </trkpt>
      <trkpt lat="48.97773" lon="7.8971">
        <ele>187.8</ele>
        <time>2024-08-25T13:33:21Z</time>
      </trkpt>
      <trkpt lat="48.97777" lon="7.8971">
        <ele>187.8</ele>
        <time>2024-08-25T13:33:22Z</time>
      </trkpt>
      <trkpt lat="48.97781" lon="7.8971">
        <ele>187.8</ele>
        <time>2024-08-25T13:33:23Z</time>
      </trkpt>
      <trkpt lat="48.97785" lon="7.89709">
        <ele>188</ele>
        <time>2024-08-25T13:33:24Z</time>
      </trkpt>
      <trkpt lat="48.97789" lon="7.89708">
        <ele>188</ele>
        <time>2024-08-25T13:33:25Z</time>
      </trkpt>
      <trkpt lat="48.97793" lon="7.89706">
        <ele>188.4</ele>
        <time>2024-08-25T13:33:26Z</time>
      </trkpt>
      <trkpt lat="48.97797" lon="7.89705">
        <ele>188.6</ele>
        <time>2024-08-25T13:33:27Z</time>
      </trkpt>
      <trkpt lat="48.97801" lon="7.89703">
        <ele>188.8</ele>
        <time>2024-08-25T13:33:28Z</time>
      </trkpt>
      <trkpt lat="48.97805" lon="7.897">
        <ele>189</ele>
        <time>2024-08-25T13:33:29Z</time>
      </trkpt>
      <trkpt lat="48.97809" lon="7.89699">
        <ele>189.2</ele>
        <time>2024-08-25T13:33:30Z</time>
      </trkpt>
      <trkpt lat="48.97813" lon="7.89697">
        <ele>189.2</ele>
        <time>2024-08-25T13:33:31Z</time>
      </trkpt>
      <trkpt lat="48.97817" lon="7.89695">
        <ele>189.2</ele>
        <time>2024-08-25T13:33:32Z</time>
      </trkpt>
      <trkpt lat="48.97821" lon="7.89693">
        <ele>189.4</ele>
        <time>2024-08-25T13:33:33Z</time>
      </trkpt>
      <trkpt lat="48.97825" lon="7.89691">
        <ele>189.4</ele>
        <time>2024-08-25T13:33:34Z</time>
      </trkpt>
      <trkpt lat="48.97829" lon="7.89688">
        <ele>189.4</ele>
        <time>2024-08-25T13:33:35Z</time>
      </trkpt>
      <trkpt lat="48.97833" lon="7.89686">
        <ele>189.4</ele>
        <time>2024-08-25T13:33:36Z</time>
      </trkpt>
      <trkpt lat="48.97837" lon="7.89683">
        <ele>189.6</ele>
        <time>2024-08-25T13:33:37Z</time>
      </trkpt>
      <trkpt lat="48.97841" lon="7.8968">
        <ele>189.6</ele>
        <time>2024-08-25T13:33:38Z</time>
      </trkpt>
      <trkpt lat="48.97844" lon="7.89678">
        <ele>189.6</ele>
        <time>2024-08-25T13:33:39Z</time>
      </trkpt>
      <trkpt lat="48.97848" lon="7.89675">
        <ele>189.8</ele>
        <time>2024-08-25T13:33:40Z</time>
      </trkpt>
      <trkpt lat="48.97851" lon="7.89672">
        <ele>190</ele>
        <time>2024-08-25T13:33:41Z</time>
      </trkpt>
      <trkpt lat="48.97855" lon="7.89668">
        <ele>190</ele>
        <time>2024-08-25T13:33:42Z</time>
      </trkpt>
      <trkpt lat="48.97858" lon="7.89664">
        <ele>190.2</ele>
        <time>2024-08-25T13:33:43Z</time>
      </trkpt>
      <trkpt lat="48.97862" lon="7.8966">
        <ele>190.4</ele>
        <time>2024-08-25T13:33:44Z</time>
      </trkpt>
      <trkpt lat="48.97865" lon="7.89656">
        <ele>190.6</ele>
        <time>2024-08-25T13:33:45Z</time>
      </trkpt>
      <trkpt lat="48.97869" lon="7.89651">
        <ele>190.6</ele>
        <time>2024-08-25T13:33:46Z</time>
      </trkpt>
      <trkpt lat="48.97872" lon="7.89647">
        <ele>190.6</ele>
        <time>2024-08-25T13:33:47Z</time>
      </trkpt>
      <trkpt lat="48.97876" lon="7.89642">
        <ele>190.6</ele>
        <time>2024-08-25T13:33:48Z</time>
      </trkpt>
      <trkpt lat="48.97879" lon="7.89637">
        <ele>190.6</ele>
        <time>2024-08-25T13:33:49Z</time>
      </trkpt>
      <trkpt lat="48.97882" lon="7.89632">
        <ele>190.8</ele>
        <time>2024-08-25T13:33:50Z</time>
      </trkpt>
      <trkpt lat="48.97886" lon="7.89628">
        <ele>191</ele>
        <time>2024-08-25T13:33:51Z</time>
      </trkpt>
      <trkpt lat="48.97889" lon="7.89623">
        <ele>191</ele>
        <time>2024-08-25T13:33:52Z</time>
      </trkpt>
      <trkpt lat="48.97893" lon="7.89619">
        <ele>191</ele>
        <time>2024-08-25T13:33:53Z</time>
      </trkpt>
      <trkpt lat="48.97897" lon="7.89614">
        <ele>191</ele>
        <time>2024-08-25T13:33:54Z</time>
      </trkpt>
      <trkpt lat="48.979" lon="7.89609">
        <ele>191</ele>
        <time>2024-08-25T13:33:55Z</time>
      </trkpt>
      <trkpt lat="48.97904" lon="7.89604">
        <ele>191</ele>
        <time>2024-08-25T13:33:56Z</time>
      </trkpt>
      <trkpt lat="48.97908" lon="7.89599">
        <ele>191</ele>
        <time>2024-08-25T13:33:57Z</time>
      </trkpt>
      <trkpt lat="48.9791" lon="7.89596">
        <ele>191</ele>
        <time>2024-08-25T13:33:58Z</time>
      </trkpt>
      <trkpt lat="48.97912" lon="7.89595">
        <ele>191</ele>
        <time>2024-08-25T13:33:59Z</time>
      </trkpt>
      <trkpt lat="48.97912" lon="7.89595">
        <ele>191</ele>
        <time>2024-08-25T13:34:00Z</time>
      </trkpt>
      <trkpt lat="48.97912" lon="7.89595">
        <ele>191.2</ele>
        <time>2024-08-25T13:34:01Z</time>
      </trkpt>
      <trkpt lat="48.97915" lon="7.89591">
        <ele>191</ele>
        <time>2024-08-25T13:34:15Z</time>
      </trkpt>
      <trkpt lat="48.97917" lon="7.89589">
        <ele>191</ele>
        <time>2024-08-25T13:34:16Z</time>
      </trkpt>
      <trkpt lat="48.97919" lon="7.89587">
        <ele>191</ele>
        <time>2024-08-25T13:34:17Z</time>
      </trkpt>
      <trkpt lat="48.97922" lon="7.89585">
        <ele>191</ele>
        <time>2024-08-25T13:34:18Z</time>
      </trkpt>
      <trkpt lat="48.97925" lon="7.89583">
        <ele>190.8</ele>
        <time>2024-08-25T13:34:19Z</time>
      </trkpt>
      <trkpt lat="48.97929" lon="7.89581">
        <ele>190.8</ele>
        <time>2024-08-25T13:34:20Z</time>
      </trkpt>
      <trkpt lat="48.97933" lon="7.8958">
        <ele>190.8</ele>
        <time>2024-08-25T13:34:21Z</time>
      </trkpt>
      <trkpt lat="48.97936" lon="7.89579">
        <ele>190.8</ele>
        <time>2024-08-25T13:34:22Z</time>
      </trkpt>
      <trkpt lat="48.9794" lon="7.89578">
        <ele>190.8</ele>
        <time>2024-08-25T13:34:23Z</time>
      </trkpt>
      <trkpt lat="48.97945" lon="7.89578">
        <ele>190.8</ele>
        <time>2024-08-25T13:34:24Z</time>
      </trkpt>
      <trkpt lat="48.97949" lon="7.89577">
        <ele>190.8</ele>
        <time>2024-08-25T13:34:25Z</time>
      </trkpt>
      <trkpt lat="48.97953" lon="7.89577">
        <ele>191</ele>
        <time>2024-08-25T13:34:26Z</time>
      </trkpt>
      <trkpt lat="48.97957" lon="7.89577">
        <ele>191</ele>
        <time>2024-08-25T13:34:27Z</time>
      </trkpt>
      <trkpt lat="48.97962" lon="7.89577">
        <ele>191</ele>
        <time>2024-08-25T13:34:28Z</time>
      </trkpt>
      <trkpt lat="48.97966" lon="7.89577">
        <ele>191.2</ele>
        <time>2024-08-25T13:34:29Z</time>
      </trkpt>
      <trkpt lat="48.9797" lon="7.89577">
        <ele>191.4</ele>
        <time>2024-08-25T13:34:30Z</time>
      </trkpt>
      <trkpt lat="48.97974" lon="7.89577">
        <ele>191.4</ele>
        <time>2024-08-25T13:34:31Z</time>
      </trkpt>
      <trkpt lat="48.97978" lon="7.89578">
        <ele>191.4</ele>
        <time>2024-08-25T13:34:32Z</time>
      </trkpt>
      <trkpt lat="48.97983" lon="7.89578">
        <ele>191.4</ele>
        <time>2024-08-25T13:34:33Z</time>
      </trkpt>
      <trkpt lat="48.97987" lon="7.89578">
        <ele>191.6</ele>
        <time>2024-08-25T13:34:34Z</time>
      </trkpt>
      <trkpt lat="48.97991" lon="7.89578">
        <ele>191.6</ele>
        <time>2024-08-25T13:34:35Z</time>
      </trkpt>
      <trkpt lat="48.97996" lon="7.89578">
        <ele>191.8</ele>
        <time>2024-08-25T13:34:36Z</time>
      </trkpt>
      <trkpt lat="48.98001" lon="7.89578">
        <ele>191.8</ele>
        <time>2024-08-25T13:34:37Z</time>
      </trkpt>
      <trkpt lat="48.98005" lon="7.89578">
        <ele>192</ele>
        <time>2024-08-25T13:34:38Z</time>
      </trkpt>
      <trkpt lat="48.9801" lon="7.89579">
        <ele>192.2</ele>
        <time>2024-08-25T13:34:39Z</time>
      </trkpt>
      <trkpt lat="48.98014" lon="7.89579">
        <ele>192.2</ele>
        <time>2024-08-25T13:34:40Z</time>
      </trkpt>
      <trkpt lat="48.98019" lon="7.8958">
        <ele>192.2</ele>
        <time>2024-08-25T13:34:41Z</time>
      </trkpt>
      <trkpt lat="48.98023" lon="7.8958">
        <ele>192.2</ele>
        <time>2024-08-25T13:34:42Z</time>
      </trkpt>
      <trkpt lat="48.98028" lon="7.89581">
        <ele>192.2</ele>
        <time>2024-08-25T13:34:43Z</time>
      </trkpt>
      <trkpt lat="48.98033" lon="7.89581">
        <ele>192.2</ele>
        <time>2024-08-25T13:34:44Z</time>
      </trkpt>
      <trkpt lat="48.98038" lon="7.89582">
        <ele>192</ele>
        <time>2024-08-25T13:34:45Z</time>
      </trkpt>
      <trkpt lat="48.98043" lon="7.89583">
        <ele>192.2</ele>
        <time>2024-08-25T13:34:46Z</time>
      </trkpt>
      <trkpt lat="48.98048" lon="7.89584">
        <ele>192.2</ele>
        <time>2024-08-25T13:34:47Z</time>
      </trkpt>
      <trkpt lat="48.98052" lon="7.89585">
        <ele>192.2</ele>
        <time>2024-08-25T13:34:48Z</time>
      </trkpt>
      <trkpt lat="48.98057" lon="7.89585">
        <ele>192.2</ele>
        <time>2024-08-25T13:34:49Z</time>
      </trkpt>
      <trkpt lat="48.98062" lon="7.89586">
        <ele>192.2</ele>
        <time>2024-08-25T13:34:50Z</time>
      </trkpt>
      <trkpt lat="48.98067" lon="7.89586">
        <ele>192.4</ele>
        <time>2024-08-25T13:34:51Z</time>
      </trkpt>
      <trkpt lat="48.98071" lon="7.89587">
        <ele>192.4</ele>
        <time>2024-08-25T13:34:52Z</time>
      </trkpt>
      <trkpt lat="48.98076" lon="7.89588">
        <ele>192.4</ele>
        <time>2024-08-25T13:34:53Z</time>
      </trkpt>
      <trkpt lat="48.98081" lon="7.89589">
        <ele>192.6</ele>
        <time>2024-08-25T13:34:54Z</time>
      </trkpt>
      <trkpt lat="48.98085" lon="7.8959">
        <ele>192.6</ele>
        <time>2024-08-25T13:34:55Z</time>
      </trkpt>
      <trkpt lat="48.9809" lon="7.89591">
        <ele>192.6</ele>
        <time>2024-08-25T13:34:56Z</time>
      </trkpt>
      <trkpt lat="48.98094" lon="7.89592">
        <ele>192.8</ele>
        <time>2024-08-25T13:34:57Z</time>
      </trkpt>
      <trkpt lat="48.98099" lon="7.89593">
        <ele>192.8</ele>
        <time>2024-08-25T13:34:58Z</time>
      </trkpt>
      <trkpt lat="48.98103" lon="7.89594">
        <ele>192.8</ele>
        <time>2024-08-25T13:34:59Z</time>
      </trkpt>
      <trkpt lat="48.98107" lon="7.89595">
        <ele>192.8</ele>
        <time>2024-08-25T13:35:00Z</time>
      </trkpt>
      <trkpt lat="48.98111" lon="7.89595">
        <ele>192.8</ele>
        <time>2024-08-25T13:35:01Z</time>
      </trkpt>
      <trkpt lat="48.98115" lon="7.89596">
        <ele>193</ele>
        <time>2024-08-25T13:35:02Z</time>
      </trkpt>
      <trkpt lat="48.98119" lon="7.89598">
        <ele>193</ele>
        <time>2024-08-25T13:35:03Z</time>
      </trkpt>
      <trkpt lat="48.98123" lon="7.89598">
        <ele>193.2</ele>
        <time>2024-08-25T13:35:04Z</time>
      </trkpt>
      <trkpt lat="48.98127" lon="7.89599">
        <ele>193.4</ele>
        <time>2024-08-25T13:35:05Z</time>
      </trkpt>
      <trkpt lat="48.98131" lon="7.89599">
        <ele>193.6</ele>
        <time>2024-08-25T13:35:06Z</time>
      </trkpt>
      <trkpt lat="48.98135" lon="7.896">
        <ele>193.8</ele>
        <time>2024-08-25T13:35:07Z</time>
      </trkpt>
      <trkpt lat="48.98139" lon="7.896">
        <ele>194</ele>
        <time>2024-08-25T13:35:08Z</time>
      </trkpt>
      <trkpt lat="48.98142" lon="7.89601">
        <ele>194.2</ele>
        <time>2024-08-25T13:35:09Z</time>
      </trkpt>
      <trkpt lat="48.98146" lon="7.89602">
        <ele>194.4</ele>
        <time>2024-08-25T13:35:10Z</time>
      </trkpt>
      <trkpt lat="48.98149" lon="7.89602">
        <ele>194.6</ele>
        <time>2024-08-25T13:35:11Z</time>
      </trkpt>
      <trkpt lat="48.98153" lon="7.89603">
        <ele>194.8</ele>
        <time>2024-08-25T13:35:12Z</time>
      </trkpt>
      <trkpt lat="48.98156" lon="7.89604">
        <ele>195</ele>
        <time>2024-08-25T13:35:13Z</time>
      </trkpt>
      <trkpt lat="48.9816" lon="7.89605">
        <ele>195.2</ele>
        <time>2024-08-25T13:35:14Z</time>
      </trkpt>
      <trkpt lat="48.98163" lon="7.89606">
        <ele>195.6</ele>
        <time>2024-08-25T13:35:15Z</time>
      </trkpt>
      <trkpt lat="48.98166" lon="7.89607">
        <ele>195.8</ele>
        <time>2024-08-25T13:35:16Z</time>
      </trkpt>
      <trkpt lat="48.9817" lon="7.89608">
        <ele>196</ele>
        <time>2024-08-25T13:35:17Z</time>
      </trkpt>
      <trkpt lat="48.98173" lon="7.89609">
        <ele>196.4</ele>
        <time>2024-08-25T13:35:18Z</time>
      </trkpt>
      <trkpt lat="48.98177" lon="7.8961">
        <ele>196.6</ele>
        <time>2024-08-25T13:35:19Z</time>
      </trkpt>
      <trkpt lat="48.9818" lon="7.8961">
        <ele>197</ele>
        <time>2024-08-25T13:35:20Z</time>
      </trkpt>
      <trkpt lat="48.98184" lon="7.89611">
        <ele>197.2</ele>
        <time>2024-08-25T13:35:21Z</time>
      </trkpt>
      <trkpt lat="48.98187" lon="7.89612">
        <ele>197.6</ele>
        <time>2024-08-25T13:35:22Z</time>
      </trkpt>
      <trkpt lat="48.9819" lon="7.89614">
        <ele>198</ele>
        <time>2024-08-25T13:35:23Z</time>
      </trkpt>
      <trkpt lat="48.98194" lon="7.89615">
        <ele>198.2</ele>
        <time>2024-08-25T13:35:24Z</time>
      </trkpt>
      <trkpt lat="48.98197" lon="7.89616">
        <ele>198.6</ele>
        <time>2024-08-25T13:35:25Z</time>
      </trkpt>
      <trkpt lat="48.98201" lon="7.89617">
        <ele>199</ele>
        <time>2024-08-25T13:35:26Z</time>
      </trkpt>
      <trkpt lat="48.98205" lon="7.89618">
        <ele>199.2</ele>
        <time>2024-08-25T13:35:27Z</time>
      </trkpt>
      <trkpt lat="48.98208" lon="7.89619">
        <ele>199.6</ele>
        <time>2024-08-25T13:35:28Z</time>
      </trkpt>
      <trkpt lat="48.98212" lon="7.89621">
        <ele>199.8</ele>
        <time>2024-08-25T13:35:29Z</time>
      </trkpt>
      <trkpt lat="48.98215" lon="7.89622">
        <ele>200.2</ele>
        <time>2024-08-25T13:35:30Z</time>
      </trkpt>
      <trkpt lat="48.98219" lon="7.89623">
        <ele>200.4</ele>
        <time>2024-08-25T13:35:31Z</time>
      </trkpt>
      <trkpt lat="48.98222" lon="7.89625">
        <ele>200.8</ele>
        <time>2024-08-25T13:35:32Z</time>
      </trkpt>
      <trkpt lat="48.98225" lon="7.89626">
        <ele>201</ele>
        <time>2024-08-25T13:35:33Z</time>
      </trkpt>
      <trkpt lat="48.98229" lon="7.89627">
        <ele>201.4</ele>
        <time>2024-08-25T13:35:34Z</time>
      </trkpt>
      <trkpt lat="48.98232" lon="7.89628">
        <ele>201.6</ele>
        <time>2024-08-25T13:35:35Z</time>
      </trkpt>
      <trkpt lat="48.98236" lon="7.89629">
        <ele>202</ele>
        <time>2024-08-25T13:35:36Z</time>
      </trkpt>
      <trkpt lat="48.98239" lon="7.89631">
        <ele>202.2</ele>
        <time>2024-08-25T13:35:37Z</time>
      </trkpt>
      <trkpt lat="48.98243" lon="7.89632">
        <ele>202.6</ele>
        <time>2024-08-25T13:35:38Z</time>
      </trkpt>
      <trkpt lat="48.98246" lon="7.89633">
        <ele>202.8</ele>
        <time>2024-08-25T13:35:39Z</time>
      </trkpt>
      <trkpt lat="48.9825" lon="7.89634">
        <ele>203</ele>
        <time>2024-08-25T13:35:40Z</time>
      </trkpt>
      <trkpt lat="48.98253" lon="7.89636">
        <ele>203.4</ele>
        <time>2024-08-25T13:35:41Z</time>
      </trkpt>
      <trkpt lat="48.98256" lon="7.89638">
        <ele>203.6</ele>
        <time>2024-08-25T13:35:42Z</time>
      </trkpt>
      <trkpt lat="48.98259" lon="7.89639">
        <ele>203.8</ele>
        <time>2024-08-25T13:35:43Z</time>
      </trkpt>
      <trkpt lat="48.98263" lon="7.8964">
        <ele>204</ele>
        <time>2024-08-25T13:35:44Z</time>
      </trkpt>
      <trkpt lat="48.98267" lon="7.89641">
        <ele>204.2</ele>
        <time>2024-08-25T13:35:45Z</time>
      </trkpt>
      <trkpt lat="48.9827" lon="7.89642">
        <ele>204.6</ele>
        <time>2024-08-25T13:35:46Z</time>
      </trkpt>
      <trkpt lat="48.98274" lon="7.89644">
        <ele>204.8</ele>
        <time>2024-08-25T13:35:47Z</time>
      </trkpt>
      <trkpt lat="48.98278" lon="7.89646">
        <ele>205.2</ele>
        <time>2024-08-25T13:35:48Z</time>
      </trkpt>
      <trkpt lat="48.98281" lon="7.89647">
        <ele>205.4</ele>
        <time>2024-08-25T13:35:49Z</time>
      </trkpt>
      <trkpt lat="48.98285" lon="7.89648">
        <ele>205.6</ele>
        <time>2024-08-25T13:35:50Z</time>
      </trkpt>
      <trkpt lat="48.98288" lon="7.8965">
        <ele>205.8</ele>
        <time>2024-08-25T13:35:51Z</time>
      </trkpt>
      <trkpt lat="48.98292" lon="7.89651">
        <ele>206</ele>
        <time>2024-08-25T13:35:52Z</time>
      </trkpt>
      <trkpt lat="48.98296" lon="7.89652">
        <ele>206</ele>
        <time>2024-08-25T13:35:53Z</time>
      </trkpt>
      <trkpt lat="48.983" lon="7.89653">
        <ele>206.2</ele>
        <time>2024-08-25T13:35:54Z</time>
      </trkpt>
      <trkpt lat="48.98304" lon="7.89655">
        <ele>206.2</ele>
        <time>2024-08-25T13:35:55Z</time>
      </trkpt>
      <trkpt lat="48.98308" lon="7.89656">
        <ele>206.4</ele>
        <time>2024-08-25T13:35:56Z</time>
      </trkpt>
      <trkpt lat="48.98312" lon="7.89659">
        <ele>206.4</ele>
        <time>2024-08-25T13:35:57Z</time>
      </trkpt>
      <trkpt lat="48.98316" lon="7.8966">
        <ele>206.4</ele>
        <time>2024-08-25T13:35:58Z</time>
      </trkpt>
      <trkpt lat="48.98319" lon="7.89661">
        <ele>206.6</ele>
        <time>2024-08-25T13:35:59Z</time>
      </trkpt>
      <trkpt lat="48.98323" lon="7.89663">
        <ele>206.6</ele>
        <time>2024-08-25T13:36:00Z</time>
      </trkpt>
      <trkpt lat="48.98327" lon="7.89665">
        <ele>206.4</ele>
        <time>2024-08-25T13:36:01Z</time>
      </trkpt>
      <trkpt lat="48.98332" lon="7.89667">
        <ele>206.6</ele>
        <time>2024-08-25T13:36:02Z</time>
      </trkpt>
      <trkpt lat="48.98336" lon="7.89669">
        <ele>206.4</ele>
        <time>2024-08-25T13:36:03Z</time>
      </trkpt>
      <trkpt lat="48.98341" lon="7.8967">
        <ele>206.4</ele>
        <time>2024-08-25T13:36:04Z</time>
      </trkpt>
      <trkpt lat="48.98345" lon="7.89671">
        <ele>206.2</ele>
        <time>2024-08-25T13:36:05Z</time>
      </trkpt>
      <trkpt lat="48.9835" lon="7.89673">
        <ele>206</ele>
        <time>2024-08-25T13:36:06Z</time>
      </trkpt>
      <trkpt lat="48.98354" lon="7.89675">
        <ele>205.8</ele>
        <time>2024-08-25T13:36:07Z</time>
      </trkpt>
      <trkpt lat="48.98358" lon="7.89677">
        <ele>205.8</ele>
        <time>2024-08-25T13:36:08Z</time>
      </trkpt>
      <trkpt lat="48.98362" lon="7.89681">
        <ele>205.6</ele>
        <time>2024-08-25T13:36:09Z</time>
      </trkpt>
      <trkpt lat="48.98367" lon="7.89684">
        <ele>205.4</ele>
        <time>2024-08-25T13:36:10Z</time>
      </trkpt>
      <trkpt lat="48.98372" lon="7.89687">
        <ele>205.2</ele>
        <time>2024-08-25T13:36:11Z</time>
      </trkpt>
      <trkpt lat="48.98378" lon="7.8969">
        <ele>204.8</ele>
        <time>2024-08-25T13:36:12Z</time>
      </trkpt>
      <trkpt lat="48.98383" lon="7.89691">
        <ele>204.8</ele>
        <time>2024-08-25T13:36:13Z</time>
      </trkpt>
      <trkpt lat="48.98389" lon="7.89693">
        <ele>204.6</ele>
        <time>2024-08-25T13:36:14Z</time>
      </trkpt>
      <trkpt lat="48.98395" lon="7.89695">
        <ele>204.2</ele>
        <time>2024-08-25T13:36:15Z</time>
      </trkpt>
      <trkpt lat="48.98402" lon="7.89697">
        <ele>204</ele>
        <time>2024-08-25T13:36:16Z</time>
      </trkpt>
      <trkpt lat="48.98408" lon="7.89699">
        <ele>203.4</ele>
        <time>2024-08-25T13:36:17Z</time>
      </trkpt>
      <trkpt lat="48.98415" lon="7.897">
        <ele>202.8</ele>
        <time>2024-08-25T13:36:18Z</time>
      </trkpt>
      <trkpt lat="48.98421" lon="7.89701">
        <ele>202.4</ele>
        <time>2024-08-25T13:36:19Z</time>
      </trkpt>
      <trkpt lat="48.98428" lon="7.89702">
        <ele>201.8</ele>
        <time>2024-08-25T13:36:20Z</time>
      </trkpt>
      <trkpt lat="48.98435" lon="7.89702">
        <ele>201.2</ele>
        <time>2024-08-25T13:36:21Z</time>
      </trkpt>
      <trkpt lat="48.98441" lon="7.89703">
        <ele>200.6</ele>
        <time>2024-08-25T13:36:22Z</time>
      </trkpt>
      <trkpt lat="48.98448" lon="7.89704">
        <ele>200.2</ele>
        <time>2024-08-25T13:36:23Z</time>
      </trkpt>
      <trkpt lat="48.98455" lon="7.89705">
        <ele>199.8</ele>
        <time>2024-08-25T13:36:24Z</time>
      </trkpt>
      <trkpt lat="48.98462" lon="7.89705">
        <ele>199.2</ele>
        <time>2024-08-25T13:36:25Z</time>
      </trkpt>
      <trkpt lat="48.98469" lon="7.89706">
        <ele>198.8</ele>
        <time>2024-08-25T13:36:26Z</time>
      </trkpt>
      <trkpt lat="48.98476" lon="7.89706">
        <ele>198.2</ele>
        <time>2024-08-25T13:36:27Z</time>
      </trkpt>
      <trkpt lat="48.98483" lon="7.89707">
        <ele>197.6</ele>
        <time>2024-08-25T13:36:28Z</time>
      </trkpt>
      <trkpt lat="48.9849" lon="7.89708">
        <ele>197.2</ele>
        <time>2024-08-25T13:36:29Z</time>
      </trkpt>
      <trkpt lat="48.98497" lon="7.89709">
        <ele>196.8</ele>
        <time>2024-08-25T13:36:30Z</time>
      </trkpt>
      <trkpt lat="48.98504" lon="7.89709">
        <ele>196.4</ele>
        <time>2024-08-25T13:36:31Z</time>
      </trkpt>
      <trkpt lat="48.98512" lon="7.8971">
        <ele>195.8</ele>
        <time>2024-08-25T13:36:32Z</time>
      </trkpt>
      <trkpt lat="48.98518" lon="7.89709">
        <ele>195.4</ele>
        <time>2024-08-25T13:36:33Z</time>
      </trkpt>
      <trkpt lat="48.98525" lon="7.89708">
        <ele>194.8</ele>
        <time>2024-08-25T13:36:34Z</time>
      </trkpt>
      <trkpt lat="48.98532" lon="7.89706">
        <ele>194.2</ele>
        <time>2024-08-25T13:36:35Z</time>
      </trkpt>
      <trkpt lat="48.98539" lon="7.89703">
        <ele>193.8</ele>
        <time>2024-08-25T13:36:36Z</time>
      </trkpt>
      <trkpt lat="48.98546" lon="7.897">
        <ele>193.2</ele>
        <time>2024-08-25T13:36:37Z</time>
      </trkpt>
      <trkpt lat="48.98553" lon="7.89696">
        <ele>192.6</ele>
        <time>2024-08-25T13:36:38Z</time>
      </trkpt>
      <trkpt lat="48.9856" lon="7.89692">
        <ele>191.8</ele>
        <time>2024-08-25T13:36:39Z</time>
      </trkpt>
      <trkpt lat="48.98567" lon="7.89688">
        <ele>191.4</ele>
        <time>2024-08-25T13:36:40Z</time>
      </trkpt>
      <trkpt lat="48.98575" lon="7.89684">
        <ele>191</ele>
        <time>2024-08-25T13:36:41Z</time>
      </trkpt>
      <trkpt lat="48.98582" lon="7.8968">
        <ele>190.4</ele>
        <time>2024-08-25T13:36:42Z</time>
      </trkpt>
      <trkpt lat="48.98589" lon="7.89677">
        <ele>190</ele>
        <time>2024-08-25T13:36:43Z</time>
      </trkpt>
      <trkpt lat="48.98596" lon="7.89674">
        <ele>189.4</ele>
        <time>2024-08-25T13:36:44Z</time>
      </trkpt>
      <trkpt lat="48.98603" lon="7.89672">
        <ele>189.2</ele>
        <time>2024-08-25T13:36:45Z</time>
      </trkpt>
      <trkpt lat="48.98609" lon="7.89669">
        <ele>188.8</ele>
        <time>2024-08-25T13:36:46Z</time>
      </trkpt>
      <trkpt lat="48.98616" lon="7.89666">
        <ele>188.6</ele>
        <time>2024-08-25T13:36:47Z</time>
      </trkpt>
      <trkpt lat="48.98622" lon="7.89664">
        <ele>187.2</ele>
        <time>2024-08-25T13:36:48Z</time>
      </trkpt>
      <trkpt lat="48.98629" lon="7.89661">
        <ele>187</ele>
        <time>2024-08-25T13:36:49Z</time>
      </trkpt>
      <trkpt lat="48.98636" lon="7.89658">
        <ele>186.4</ele>
        <time>2024-08-25T13:36:50Z</time>
      </trkpt>
      <trkpt lat="48.98644" lon="7.89655">
        <ele>185.8</ele>
        <time>2024-08-25T13:36:51Z</time>
      </trkpt>
      <trkpt lat="48.98651" lon="7.89652">
        <ele>185.2</ele>
        <time>2024-08-25T13:36:52Z</time>
      </trkpt>
      <trkpt lat="48.98659" lon="7.89649">
        <ele>184.8</ele>
        <time>2024-08-25T13:36:53Z</time>
      </trkpt>
      <trkpt lat="48.98667" lon="7.89645">
        <ele>184.2</ele>
        <time>2024-08-25T13:36:54Z</time>
      </trkpt>
      <trkpt lat="48.98675" lon="7.89644">
        <ele>183.8</ele>
        <time>2024-08-25T13:36:55Z</time>
      </trkpt>
      <trkpt lat="48.98683" lon="7.89644">
        <ele>183.4</ele>
        <time>2024-08-25T13:36:56Z</time>
      </trkpt>
      <trkpt lat="48.98691" lon="7.89645">
        <ele>182.6</ele>
        <time>2024-08-25T13:36:57Z</time>
      </trkpt>
      <trkpt lat="48.98699" lon="7.89648">
        <ele>182.2</ele>
        <time>2024-08-25T13:36:58Z</time>
      </trkpt>
      <trkpt lat="48.98707" lon="7.89652">
        <ele>182</ele>
        <time>2024-08-25T13:36:59Z</time>
      </trkpt>
      <trkpt lat="48.98715" lon="7.89656">
        <ele>181</ele>
        <time>2024-08-25T13:37:00Z</time>
      </trkpt>
      <trkpt lat="48.98722" lon="7.8966">
        <ele>180.6</ele>
        <time>2024-08-25T13:37:01Z</time>
      </trkpt>
      <trkpt lat="48.98729" lon="7.89664">
        <ele>180</ele>
        <time>2024-08-25T13:37:02Z</time>
      </trkpt>
      <trkpt lat="48.98735" lon="7.89668">
        <ele>179</ele>
        <time>2024-08-25T13:37:03Z</time>
      </trkpt>
      <trkpt lat="48.9874" lon="7.8967">
        <ele>178.6</ele>
        <time>2024-08-25T13:37:04Z</time>
      </trkpt>
      <trkpt lat="48.98744" lon="7.8967">
        <ele>178.2</ele>
        <time>2024-08-25T13:37:05Z</time>
      </trkpt>
      <trkpt lat="48.98748" lon="7.89666">
        <ele>178.2</ele>
        <time>2024-08-25T13:37:06Z</time>
      </trkpt>
      <trkpt lat="48.9875" lon="7.8966">
        <ele>178.2</ele>
        <time>2024-08-25T13:37:07Z</time>
      </trkpt>
      <trkpt lat="48.98752" lon="7.89654">
        <ele>178</ele>
        <time>2024-08-25T13:37:08Z</time>
      </trkpt>
      <trkpt lat="48.98754" lon="7.89649">
        <ele>177.8</ele>
        <time>2024-08-25T13:37:09Z</time>
      </trkpt>
      <trkpt lat="48.98757" lon="7.89644">
        <ele>177.6</ele>
        <time>2024-08-25T13:37:10Z</time>
      </trkpt>
      <trkpt lat="48.9876" lon="7.8964">
        <ele>177.6</ele>
        <time>2024-08-25T13:37:11Z</time>
      </trkpt>
      <trkpt lat="48.98764" lon="7.89638">
        <ele>177.6</ele>
        <time>2024-08-25T13:37:12Z</time>
      </trkpt>
      <trkpt lat="48.98767" lon="7.89636">
        <ele>177.6</ele>
        <time>2024-08-25T13:37:13Z</time>
      </trkpt>
      <trkpt lat="48.98768" lon="7.89633">
        <ele>177.8</ele>
        <time>2024-08-25T13:37:14Z</time>
      </trkpt>
      <trkpt lat="48.98768" lon="7.89631">
        <ele>177.8</ele>
        <time>2024-08-25T13:37:15Z</time>
      </trkpt>
      <trkpt lat="48.98766" lon="7.8963">
        <ele>177.8</ele>
        <time>2024-08-25T13:37:16Z</time>
      </trkpt>
      <trkpt lat="48.98764" lon="7.8963">
        <ele>177.8</ele>
        <time>2024-08-25T13:37:17Z</time>
      </trkpt>
      <trkpt lat="48.98764" lon="7.89632">
        <ele>177.8</ele>
        <time>2024-08-25T13:37:18Z</time>
      </trkpt>
      <trkpt lat="48.98764" lon="7.89635">
        <ele>177.8</ele>
        <time>2024-08-25T13:37:19Z</time>
      </trkpt>
      <trkpt lat="48.98764" lon="7.89636">
        <ele>177.8</ele>
        <time>2024-08-25T13:37:20Z</time>
      </trkpt>
      <trkpt lat="48.98763" lon="7.89638">
        <ele>177.8</ele>
        <time>2024-08-25T13:37:21Z</time>
      </trkpt>
      <trkpt lat="48.98762" lon="7.89638">
        <ele>177.8</ele>
        <time>2024-08-25T13:37:22Z</time>
      </trkpt>
      <trkpt lat="48.9876" lon="7.8964">
        <ele>177.8</ele>
        <time>2024-08-25T13:37:23Z</time>
      </trkpt>
      <trkpt lat="48.98759" lon="7.89642">
        <ele>177.8</ele>
        <time>2024-08-25T13:37:24Z</time>
      </trkpt>
      <trkpt lat="48.98757" lon="7.89645">
        <ele>177.8</ele>
        <time>2024-08-25T13:37:25Z</time>
      </trkpt>
      <trkpt lat="48.98755" lon="7.89647">
        <ele>177.8</ele>
        <time>2024-08-25T13:37:26Z</time>
      </trkpt>
      <trkpt lat="48.98753" lon="7.8965">
        <ele>177.8</ele>
        <time>2024-08-25T13:37:27Z</time>
      </trkpt>
      <trkpt lat="48.98752" lon="7.89653">
        <ele>177.8</ele>
        <time>2024-08-25T13:37:28Z</time>
      </trkpt>
      <trkpt lat="48.9875" lon="7.89658">
        <ele>177.8</ele>
        <time>2024-08-25T13:37:29Z</time>
      </trkpt>
      <trkpt lat="48.98749" lon="7.89662">
        <ele>177.8</ele>
        <time>2024-08-25T13:37:30Z</time>
      </trkpt>
      <trkpt lat="48.9875" lon="7.89666">
        <ele>178</ele>
        <time>2024-08-25T13:37:31Z</time>
      </trkpt>
      <trkpt lat="48.98752" lon="7.89671">
        <ele>178</ele>
        <time>2024-08-25T13:37:32Z</time>
      </trkpt>
      <trkpt lat="48.98755" lon="7.89674">
        <ele>178</ele>
        <time>2024-08-25T13:37:33Z</time>
      </trkpt>
      <trkpt lat="48.98758" lon="7.89676">
        <ele>178</ele>
        <time>2024-08-25T13:37:34Z</time>
      </trkpt>
      <trkpt lat="48.98762" lon="7.89676">
        <ele>178</ele>
        <time>2024-08-25T13:37:35Z</time>
      </trkpt>
      <trkpt lat="48.98766" lon="7.89677">
        <ele>178</ele>
        <time>2024-08-25T13:37:36Z</time>
      </trkpt>
      <trkpt lat="48.98771" lon="7.89676">
        <ele>178</ele>
        <time>2024-08-25T13:37:37Z</time>
      </trkpt>
      <trkpt lat="48.98775" lon="7.89676">
        <ele>177.8</ele>
        <time>2024-08-25T13:37:38Z</time>
      </trkpt>
      <trkpt lat="48.9878" lon="7.89676">
        <ele>177.8</ele>
        <time>2024-08-25T13:37:39Z</time>
      </trkpt>
      <trkpt lat="48.98785" lon="7.89676">
        <ele>177.6</ele>
        <time>2024-08-25T13:37:40Z</time>
      </trkpt>
      <trkpt lat="48.98789" lon="7.89676">
        <ele>177.4</ele>
        <time>2024-08-25T13:37:41Z</time>
      </trkpt>
      <trkpt lat="48.98793" lon="7.89674">
        <ele>177.4</ele>
        <time>2024-08-25T13:37:42Z</time>
      </trkpt>
      <trkpt lat="48.98797" lon="7.89672">
        <ele>177.2</ele>
        <time>2024-08-25T13:37:43Z</time>
      </trkpt>
      <trkpt lat="48.98799" lon="7.89668">
        <ele>177.2</ele>
        <time>2024-08-25T13:37:44Z</time>
      </trkpt>
      <trkpt lat="48.98801" lon="7.89666">
        <ele>177.2</ele>
        <time>2024-08-25T13:37:45Z</time>
      </trkpt>
      <trkpt lat="48.98803" lon="7.89665">
        <ele>177.2</ele>
        <time>2024-08-25T13:37:46Z</time>
      </trkpt>
      <trkpt lat="48.98806" lon="7.89666">
        <ele>177.2</ele>
        <time>2024-08-25T13:37:47Z</time>
      </trkpt>
      <trkpt lat="48.98809" lon="7.89669">
        <ele>177.2</ele>
        <time>2024-08-25T13:37:48Z</time>
      </trkpt>
      <trkpt lat="48.98811" lon="7.89671">
        <ele>177.2</ele>
        <time>2024-08-25T13:37:49Z</time>
      </trkpt>
      <trkpt lat="48.98814" lon="7.89673">
        <ele>177.4</ele>
        <time>2024-08-25T13:37:50Z</time>
      </trkpt>
      <trkpt lat="48.98817" lon="7.89675">
        <ele>177.4</ele>
        <time>2024-08-25T13:37:51Z</time>
      </trkpt>
      <trkpt lat="48.9882" lon="7.89676">
        <ele>177.4</ele>
        <time>2024-08-25T13:37:52Z</time>
      </trkpt>
      <trkpt lat="48.98823" lon="7.89678">
        <ele>177.6</ele>
        <time>2024-08-25T13:37:53Z</time>
      </trkpt>
      <trkpt lat="48.98826" lon="7.8968">
        <ele>177.6</ele>
        <time>2024-08-25T13:37:54Z</time>
      </trkpt>
      <trkpt lat="48.98829" lon="7.89682">
        <ele>177.8</ele>
        <time>2024-08-25T13:37:55Z</time>
      </trkpt>
      <trkpt lat="48.98832" lon="7.89684">
        <ele>178</ele>
        <time>2024-08-25T13:37:56Z</time>
      </trkpt>
      <trkpt lat="48.98835" lon="7.89685">
        <ele>178.2</ele>
        <time>2024-08-25T13:37:57Z</time>
      </trkpt>
      <trkpt lat="48.98838" lon="7.89686">
        <ele>178.2</ele>
        <time>2024-08-25T13:37:58Z</time>
      </trkpt>
      <trkpt lat="48.98841" lon="7.89688">
        <ele>178.6</ele>
        <time>2024-08-25T13:37:59Z</time>
      </trkpt>
      <trkpt lat="48.98844" lon="7.8969">
        <ele>178.8</ele>
        <time>2024-08-25T13:38:00Z</time>
      </trkpt>
      <trkpt lat="48.98848" lon="7.89691">
        <ele>179.2</ele>
        <time>2024-08-25T13:38:01Z</time>
      </trkpt>
      <trkpt lat="48.98851" lon="7.89693">
        <ele>179.4</ele>
        <time>2024-08-25T13:38:02Z</time>
      </trkpt>
      <trkpt lat="48.98854" lon="7.89695">
        <ele>179.8</ele>
        <time>2024-08-25T13:38:03Z</time>
      </trkpt>
      <trkpt lat="48.98857" lon="7.89697">
        <ele>180</ele>
        <time>2024-08-25T13:38:04Z</time>
      </trkpt>
      <trkpt lat="48.9886" lon="7.89699">
        <ele>180.4</ele>
        <time>2024-08-25T13:38:05Z</time>
      </trkpt>
      <trkpt lat="48.98863" lon="7.89701">
        <ele>180.6</ele>
        <time>2024-08-25T13:38:06Z</time>
      </trkpt>
      <trkpt lat="48.98866" lon="7.89703">
        <ele>181</ele>
        <time>2024-08-25T13:38:07Z</time>
      </trkpt>
      <trkpt lat="48.98869" lon="7.89705">
        <ele>181.2</ele>
        <time>2024-08-25T13:38:08Z</time>
      </trkpt>
      <trkpt lat="48.98871" lon="7.89707">
        <ele>181.6</ele>
        <time>2024-08-25T13:38:09Z</time>
      </trkpt>
      <trkpt lat="48.98874" lon="7.89708">
        <ele>181.8</ele>
        <time>2024-08-25T13:38:10Z</time>
      </trkpt>
      <trkpt lat="48.98877" lon="7.8971">
        <ele>182.2</ele>
        <time>2024-08-25T13:38:11Z</time>
      </trkpt>
      <trkpt lat="48.9888" lon="7.89711">
        <ele>182.4</ele>
        <time>2024-08-25T13:38:12Z</time>
      </trkpt>
      <trkpt lat="48.98882" lon="7.89713">
        <ele>182.8</ele>
        <time>2024-08-25T13:38:13Z</time>
      </trkpt>
      <trkpt lat="48.98885" lon="7.89714">
        <ele>183.2</ele>
        <time>2024-08-25T13:38:14Z</time>
      </trkpt>
      <trkpt lat="48.98887" lon="7.89715">
        <ele>183.6</ele>
        <time>2024-08-25T13:38:15Z</time>
      </trkpt>
      <trkpt lat="48.98889" lon="7.89717">
        <ele>183.8</ele>
        <time>2024-08-25T13:38:16Z</time>
      </trkpt>
      <trkpt lat="48.98891" lon="7.89718">
        <ele>184.2</ele>
        <time>2024-08-25T13:38:17Z</time>
      </trkpt>
      <trkpt lat="48.98893" lon="7.89719">
        <ele>184.4</ele>
        <time>2024-08-25T13:38:18Z</time>
      </trkpt>
      <trkpt lat="48.98896" lon="7.89719">
        <ele>184.6</ele>
        <time>2024-08-25T13:38:19Z</time>
      </trkpt>
      <trkpt lat="48.98898" lon="7.89718">
        <ele>184.8</ele>
        <time>2024-08-25T13:38:20Z</time>
      </trkpt>
      <trkpt lat="48.989" lon="7.89715">
        <ele>185</ele>
        <time>2024-08-25T13:38:21Z</time>
      </trkpt>
      <trkpt lat="48.989" lon="7.89712">
        <ele>185</ele>
        <time>2024-08-25T13:38:22Z</time>
      </trkpt>
      <trkpt lat="48.98901" lon="7.89709">
        <ele>185.2</ele>
        <time>2024-08-25T13:38:23Z</time>
      </trkpt>
      <trkpt lat="48.98901" lon="7.89706">
        <ele>185.4</ele>
        <time>2024-08-25T13:38:24Z</time>
      </trkpt>
      <trkpt lat="48.98901" lon="7.89703">
        <ele>185.4</ele>
        <time>2024-08-25T13:38:25Z</time>
      </trkpt>
      <trkpt lat="48.98901" lon="7.89699">
        <ele>185.6</ele>
        <time>2024-08-25T13:38:26Z</time>
      </trkpt>
      <trkpt lat="48.98902" lon="7.89696">
        <ele>185.8</ele>
        <time>2024-08-25T13:38:27Z</time>
      </trkpt>
      <trkpt lat="48.98903" lon="7.89692">
        <ele>186</ele>
        <time>2024-08-25T13:38:28Z</time>
      </trkpt>
      <trkpt lat="48.98904" lon="7.89688">
        <ele>186.2</ele>
        <time>2024-08-25T13:38:29Z</time>
      </trkpt>
      <trkpt lat="48.98905" lon="7.89683">
        <ele>186.4</ele>
        <time>2024-08-25T13:38:30Z</time>
      </trkpt>
      <trkpt lat="48.98906" lon="7.89679">
        <ele>186.6</ele>
        <time>2024-08-25T13:38:31Z</time>
      </trkpt>
      <trkpt lat="48.98906" lon="7.89674">
        <ele>186.6</ele>
        <time>2024-08-25T13:38:32Z</time>
      </trkpt>
      <trkpt lat="48.98907" lon="7.8967">
        <ele>186.8</ele>
        <time>2024-08-25T13:38:33Z</time>
      </trkpt>
      <trkpt lat="48.98908" lon="7.89665">
        <ele>187</ele>
        <time>2024-08-25T13:38:34Z</time>
      </trkpt>
      <trkpt lat="48.98909" lon="7.8966">
        <ele>187.2</ele>
        <time>2024-08-25T13:38:35Z</time>
      </trkpt>
      <trkpt lat="48.98909" lon="7.89656">
        <ele>187.2</ele>
        <time>2024-08-25T13:38:36Z</time>
      </trkpt>
      <trkpt lat="48.9891" lon="7.89651">
        <ele>187.2</ele>
        <time>2024-08-25T13:38:37Z</time>
      </trkpt>
      <trkpt lat="48.98911" lon="7.89646">
        <ele>187.2</ele>
        <time>2024-08-25T13:38:38Z</time>
      </trkpt>
      <trkpt lat="48.98912" lon="7.8964">
        <ele>187.4</ele>
        <time>2024-08-25T13:38:39Z</time>
      </trkpt>
      <trkpt lat="48.98913" lon="7.89635">
        <ele>187.4</ele>
        <time>2024-08-25T13:38:40Z</time>
      </trkpt>
      <trkpt lat="48.98914" lon="7.89629">
        <ele>187.4</ele>
        <time>2024-08-25T13:38:41Z</time>
      </trkpt>
      <trkpt lat="48.98914" lon="7.89624">
        <ele>187.4</ele>
        <time>2024-08-25T13:38:42Z</time>
      </trkpt>
      <trkpt lat="48.98915" lon="7.89618">
        <ele>187.4</ele>
        <time>2024-08-25T13:38:43Z</time>
      </trkpt>
      <trkpt lat="48.98916" lon="7.89612">
        <ele>187.4</ele>
        <time>2024-08-25T13:38:44Z</time>
      </trkpt>
      <trkpt lat="48.98917" lon="7.89605">
        <ele>187.4</ele>
        <time>2024-08-25T13:38:45Z</time>
      </trkpt>
      <trkpt lat="48.98918" lon="7.89599">
        <ele>187.4</ele>
        <time>2024-08-25T13:38:46Z</time>
      </trkpt>
      <trkpt lat="48.98919" lon="7.89593">
        <ele>187.4</ele>
        <time>2024-08-25T13:38:47Z</time>
      </trkpt>
      <trkpt lat="48.9892" lon="7.89586">
        <ele>187.4</ele>
        <time>2024-08-25T13:38:48Z</time>
      </trkpt>
      <trkpt lat="48.98921" lon="7.8958">
        <ele>187.4</ele>
        <time>2024-08-25T13:38:49Z</time>
      </trkpt>
      <trkpt lat="48.98922" lon="7.89574">
        <ele>187.4</ele>
        <time>2024-08-25T13:38:50Z</time>
      </trkpt>
      <trkpt lat="48.98923" lon="7.89567">
        <ele>187.4</ele>
        <time>2024-08-25T13:38:51Z</time>
      </trkpt>
      <trkpt lat="48.98924" lon="7.89561">
        <ele>187.4</ele>
        <time>2024-08-25T13:38:52Z</time>
      </trkpt>
      <trkpt lat="48.98925" lon="7.89555">
        <ele>187.4</ele>
        <time>2024-08-25T13:38:53Z</time>
      </trkpt>
      <trkpt lat="48.98927" lon="7.89548">
        <ele>187.4</ele>
        <time>2024-08-25T13:38:54Z</time>
      </trkpt>
      <trkpt lat="48.98929" lon="7.89542">
        <ele>187.4</ele>
        <time>2024-08-25T13:38:55Z</time>
      </trkpt>
      <trkpt lat="48.9893" lon="7.89536">
        <ele>187.4</ele>
        <time>2024-08-25T13:38:56Z</time>
      </trkpt>
      <trkpt lat="48.98932" lon="7.8953">
        <ele>187.4</ele>
        <time>2024-08-25T13:38:57Z</time>
      </trkpt>
      <trkpt lat="48.98934" lon="7.89524">
        <ele>187.6</ele>
        <time>2024-08-25T13:38:58Z</time>
      </trkpt>
      <trkpt lat="48.98936" lon="7.89519">
        <ele>187.6</ele>
        <time>2024-08-25T13:38:59Z</time>
      </trkpt>
      <trkpt lat="48.98938" lon="7.89513">
        <ele>187.8</ele>
        <time>2024-08-25T13:39:00Z</time>
      </trkpt>
      <trkpt lat="48.98939" lon="7.89508">
        <ele>187.8</ele>
        <time>2024-08-25T13:39:01Z</time>
      </trkpt>
      <trkpt lat="48.98941" lon="7.89502">
        <ele>188</ele>
        <time>2024-08-25T13:39:02Z</time>
      </trkpt>
      <trkpt lat="48.98942" lon="7.89497">
        <ele>188.2</ele>
        <time>2024-08-25T13:39:03Z</time>
      </trkpt>
      <trkpt lat="48.98944" lon="7.89491">
        <ele>188.2</ele>
        <time>2024-08-25T13:39:04Z</time>
      </trkpt>
      <trkpt lat="48.98946" lon="7.89486">
        <ele>188.4</ele>
        <time>2024-08-25T13:39:05Z</time>
      </trkpt>
      <trkpt lat="48.98948" lon="7.89481">
        <ele>188.8</ele>
        <time>2024-08-25T13:39:06Z</time>
      </trkpt>
      <trkpt lat="48.98949" lon="7.89475">
        <ele>188.8</ele>
        <time>2024-08-25T13:39:07Z</time>
      </trkpt>
      <trkpt lat="48.98951" lon="7.89469">
        <ele>189</ele>
        <time>2024-08-25T13:39:08Z</time>
      </trkpt>
      <trkpt lat="48.98952" lon="7.89464">
        <ele>189</ele>
        <time>2024-08-25T13:39:09Z</time>
      </trkpt>
      <trkpt lat="48.98954" lon="7.89459">
        <ele>189.2</ele>
        <time>2024-08-25T13:39:10Z</time>
      </trkpt>
      <trkpt lat="48.98956" lon="7.89453">
        <ele>189.2</ele>
        <time>2024-08-25T13:39:11Z</time>
      </trkpt>
      <trkpt lat="48.98957" lon="7.89448">
        <ele>189.2</ele>
        <time>2024-08-25T13:39:12Z</time>
      </trkpt>
      <trkpt lat="48.98959" lon="7.89442">
        <ele>189.6</ele>
        <time>2024-08-25T13:39:13Z</time>
      </trkpt>
      <trkpt lat="48.9896" lon="7.89437">
        <ele>189.6</ele>
        <time>2024-08-25T13:39:14Z</time>
      </trkpt>
      <trkpt lat="48.98962" lon="7.89431">
        <ele>189.6</ele>
        <time>2024-08-25T13:39:15Z</time>
      </trkpt>
      <trkpt lat="48.98964" lon="7.89426">
        <ele>189.8</ele>
        <time>2024-08-25T13:39:16Z</time>
      </trkpt>
      <trkpt lat="48.98965" lon="7.89421">
        <ele>189.8</ele>
        <time>2024-08-25T13:39:17Z</time>
      </trkpt>
      <trkpt lat="48.98966" lon="7.89415">
        <ele>190</ele>
        <time>2024-08-25T13:39:18Z</time>
      </trkpt>
      <trkpt lat="48.98968" lon="7.8941">
        <ele>190.2</ele>
        <time>2024-08-25T13:39:19Z</time>
      </trkpt>
      <trkpt lat="48.98969" lon="7.89405">
        <ele>190.2</ele>
        <time>2024-08-25T13:39:20Z</time>
      </trkpt>
      <trkpt lat="48.98971" lon="7.894">
        <ele>190.4</ele>
        <time>2024-08-25T13:39:21Z</time>
      </trkpt>
      <trkpt lat="48.98972" lon="7.89395">
        <ele>190.6</ele>
        <time>2024-08-25T13:39:22Z</time>
      </trkpt>
      <trkpt lat="48.98974" lon="7.8939">
        <ele>190.8</ele>
        <time>2024-08-25T13:39:23Z</time>
      </trkpt>
      <trkpt lat="48.98975" lon="7.89385">
        <ele>191</ele>
        <time>2024-08-25T13:39:24Z</time>
      </trkpt>
      <trkpt lat="48.98977" lon="7.8938">
        <ele>191.2</ele>
        <time>2024-08-25T13:39:25Z</time>
      </trkpt>
      <trkpt lat="48.98979" lon="7.89374">
        <ele>191.2</ele>
        <time>2024-08-25T13:39:26Z</time>
      </trkpt>
      <trkpt lat="48.98981" lon="7.89369">
        <ele>191.4</ele>
        <time>2024-08-25T13:39:27Z</time>
      </trkpt>
      <trkpt lat="48.98982" lon="7.89364">
        <ele>191.4</ele>
        <time>2024-08-25T13:39:28Z</time>
      </trkpt>
      <trkpt lat="48.98984" lon="7.89358">
        <ele>191.6</ele>
        <time>2024-08-25T13:39:29Z</time>
      </trkpt>
      <trkpt lat="48.98986" lon="7.89352">
        <ele>191.8</ele>
        <time>2024-08-25T13:39:30Z</time>
      </trkpt>
      <trkpt lat="48.98988" lon="7.89347">
        <ele>191.8</ele>
        <time>2024-08-25T13:39:31Z</time>
      </trkpt>
      <trkpt lat="48.98989" lon="7.89342">
        <ele>191.8</ele>
        <time>2024-08-25T13:39:32Z</time>
      </trkpt>
      <trkpt lat="48.98991" lon="7.89336">
        <ele>192</ele>
        <time>2024-08-25T13:39:33Z</time>
      </trkpt>
      <trkpt lat="48.98992" lon="7.89331">
        <ele>192</ele>
        <time>2024-08-25T13:39:34Z</time>
      </trkpt>
      <trkpt lat="48.98994" lon="7.89325">
        <ele>192</ele>
        <time>2024-08-25T13:39:35Z</time>
      </trkpt>
      <trkpt lat="48.98996" lon="7.8932">
        <ele>192.2</ele>
        <time>2024-08-25T13:39:36Z</time>
      </trkpt>
      <trkpt lat="48.98997" lon="7.89315">
        <ele>192.4</ele>
        <time>2024-08-25T13:39:37Z</time>
      </trkpt>
      <trkpt lat="48.98999" lon="7.89309">
        <ele>192.4</ele>
        <time>2024-08-25T13:39:38Z</time>
      </trkpt>
      <trkpt lat="48.99001" lon="7.89304">
        <ele>192.4</ele>
        <time>2024-08-25T13:39:39Z</time>
      </trkpt>
      <trkpt lat="48.99002" lon="7.89299">
        <ele>192.6</ele>
        <time>2024-08-25T13:39:40Z</time>
      </trkpt>
      <trkpt lat="48.99004" lon="7.89294">
        <ele>192.8</ele>
        <time>2024-08-25T13:39:41Z</time>
      </trkpt>
      <trkpt lat="48.99006" lon="7.89289">
        <ele>192.8</ele>
        <time>2024-08-25T13:39:42Z</time>
      </trkpt>
      <trkpt lat="48.99008" lon="7.89284">
        <ele>192.8</ele>
        <time>2024-08-25T13:39:43Z</time>
      </trkpt>
      <trkpt lat="48.9901" lon="7.89279">
        <ele>192.8</ele>
        <time>2024-08-25T13:39:44Z</time>
      </trkpt>
      <trkpt lat="48.99011" lon="7.89274">
        <ele>192.8</ele>
        <time>2024-08-25T13:39:45Z</time>
      </trkpt>
      <trkpt lat="48.99013" lon="7.89268">
        <ele>193</ele>
        <time>2024-08-25T13:39:46Z</time>
      </trkpt>
      <trkpt lat="48.99015" lon="7.89263">
        <ele>193</ele>
        <time>2024-08-25T13:39:47Z</time>
      </trkpt>
      <trkpt lat="48.99017" lon="7.89258">
        <ele>193</ele>
        <time>2024-08-25T13:39:48Z</time>
      </trkpt>
      <trkpt lat="48.99019" lon="7.89253">
        <ele>193</ele>
        <time>2024-08-25T13:39:49Z</time>
      </trkpt>
      <trkpt lat="48.99022" lon="7.89248">
        <ele>193</ele>
        <time>2024-08-25T13:39:50Z</time>
      </trkpt>
      <trkpt lat="48.99024" lon="7.89242">
        <ele>193</ele>
        <time>2024-08-25T13:39:51Z</time>
      </trkpt>
      <trkpt lat="48.99027" lon="7.89236">
        <ele>193</ele>
        <time>2024-08-25T13:39:52Z</time>
      </trkpt>
      <trkpt lat="48.99029" lon="7.8923">
        <ele>193</ele>
        <time>2024-08-25T13:39:53Z</time>
      </trkpt>
      <trkpt lat="48.99032" lon="7.89224">
        <ele>192.8</ele>
        <time>2024-08-25T13:39:54Z</time>
      </trkpt>
      <trkpt lat="48.99035" lon="7.89218">
        <ele>192.8</ele>
        <time>2024-08-25T13:39:55Z</time>
      </trkpt>
      <trkpt lat="48.99037" lon="7.89211">
        <ele>192.6</ele>
        <time>2024-08-25T13:39:56Z</time>
      </trkpt>
      <trkpt lat="48.9904" lon="7.89205">
        <ele>192.6</ele>
        <time>2024-08-25T13:39:57Z</time>
      </trkpt>
      <trkpt lat="48.99043" lon="7.89199">
        <ele>192.4</ele>
        <time>2024-08-25T13:39:58Z</time>
      </trkpt>
      <trkpt lat="48.99045" lon="7.89193">
        <ele>192.4</ele>
        <time>2024-08-25T13:39:59Z</time>
      </trkpt>
      <trkpt lat="48.99048" lon="7.89186">
        <ele>192.4</ele>
        <time>2024-08-25T13:40:00Z</time>
      </trkpt>
      <trkpt lat="48.9905" lon="7.89181">
        <ele>192.4</ele>
        <time>2024-08-25T13:40:01Z</time>
      </trkpt>
      <trkpt lat="48.99052" lon="7.89175">
        <ele>192.4</ele>
        <time>2024-08-25T13:40:02Z</time>
      </trkpt>
      <trkpt lat="48.99054" lon="7.89169">
        <ele>192.4</ele>
        <time>2024-08-25T13:40:03Z</time>
      </trkpt>
      <trkpt lat="48.99056" lon="7.89163">
        <ele>192.6</ele>
        <time>2024-08-25T13:40:04Z</time>
      </trkpt>
      <trkpt lat="48.99058" lon="7.89157">
        <ele>192.6</ele>
        <time>2024-08-25T13:40:05Z</time>
      </trkpt>
      <trkpt lat="48.9906" lon="7.89151">
        <ele>192.6</ele>
        <time>2024-08-25T13:40:06Z</time>
      </trkpt>
      <trkpt lat="48.99061" lon="7.89145">
        <ele>192.6</ele>
        <time>2024-08-25T13:40:07Z</time>
      </trkpt>
      <trkpt lat="48.99063" lon="7.89138">
        <ele>192.6</ele>
        <time>2024-08-25T13:40:08Z</time>
      </trkpt>
      <trkpt lat="48.99064" lon="7.89132">
        <ele>192.8</ele>
        <time>2024-08-25T13:40:09Z</time>
      </trkpt>
      <trkpt lat="48.99065" lon="7.89125">
        <ele>192.8</ele>
        <time>2024-08-25T13:40:10Z</time>
      </trkpt>
      <trkpt lat="48.99067" lon="7.89119">
        <ele>193</ele>
        <time>2024-08-25T13:40:11Z</time>
      </trkpt>
      <trkpt lat="48.99068" lon="7.89112">
        <ele>193.2</ele>
        <time>2024-08-25T13:40:12Z</time>
      </trkpt>
      <trkpt lat="48.9907" lon="7.89106">
        <ele>193.2</ele>
        <time>2024-08-25T13:40:13Z</time>
      </trkpt>
      <trkpt lat="48.99071" lon="7.89099">
        <ele>193.4</ele>
        <time>2024-08-25T13:40:14Z</time>
      </trkpt>
      <trkpt lat="48.99073" lon="7.89093">
        <ele>193.4</ele>
        <time>2024-08-25T13:40:15Z</time>
      </trkpt>
      <trkpt lat="48.99074" lon="7.89087">
        <ele>193.4</ele>
        <time>2024-08-25T13:40:16Z</time>
      </trkpt>
      <trkpt lat="48.99076" lon="7.8908">
        <ele>193.4</ele>
        <time>2024-08-25T13:40:17Z</time>
      </trkpt>
      <trkpt lat="48.99077" lon="7.89074">
        <ele>193.6</ele>
        <time>2024-08-25T13:40:18Z</time>
      </trkpt>
      <trkpt lat="48.99079" lon="7.89068">
        <ele>193.6</ele>
        <time>2024-08-25T13:40:19Z</time>
      </trkpt>
      <trkpt lat="48.9908" lon="7.89062">
        <ele>193.8</ele>
        <time>2024-08-25T13:40:20Z</time>
      </trkpt>
      <trkpt lat="48.99082" lon="7.89056">
        <ele>193.8</ele>
        <time>2024-08-25T13:40:21Z</time>
      </trkpt>
      <trkpt lat="48.99084" lon="7.8905">
        <ele>193.8</ele>
        <time>2024-08-25T13:40:22Z</time>
      </trkpt>
      <trkpt lat="48.99086" lon="7.89044">
        <ele>194</ele>
        <time>2024-08-25T13:40:23Z</time>
      </trkpt>
      <trkpt lat="48.99088" lon="7.89038">
        <ele>194</ele>
        <time>2024-08-25T13:40:24Z</time>
      </trkpt>
      <trkpt lat="48.9909" lon="7.89032">
        <ele>194.2</ele>
        <time>2024-08-25T13:40:25Z</time>
      </trkpt>
      <trkpt lat="48.99092" lon="7.89026">
        <ele>194.4</ele>
        <time>2024-08-25T13:40:26Z</time>
      </trkpt>
      <trkpt lat="48.99094" lon="7.89021">
        <ele>194.4</ele>
        <time>2024-08-25T13:40:27Z</time>
      </trkpt>
      <trkpt lat="48.99097" lon="7.89015">
        <ele>194.4</ele>
        <time>2024-08-25T13:40:28Z</time>
      </trkpt>
      <trkpt lat="48.991" lon="7.89009">
        <ele>194.4</ele>
        <time>2024-08-25T13:40:29Z</time>
      </trkpt>
      <trkpt lat="48.99103" lon="7.89004">
        <ele>194.4</ele>
        <time>2024-08-25T13:40:30Z</time>
      </trkpt>
      <trkpt lat="48.99106" lon="7.88999">
        <ele>194.4</ele>
        <time>2024-08-25T13:40:31Z</time>
      </trkpt>
      <trkpt lat="48.9911" lon="7.88995">
        <ele>194.4</ele>
        <time>2024-08-25T13:40:32Z</time>
      </trkpt>
      <trkpt lat="48.99114" lon="7.88992">
        <ele>194.4</ele>
        <time>2024-08-25T13:40:33Z</time>
      </trkpt>
      <trkpt lat="48.99118" lon="7.8899">
        <ele>194.4</ele>
        <time>2024-08-25T13:40:34Z</time>
      </trkpt>
      <trkpt lat="48.99123" lon="7.88988">
        <ele>194.4</ele>
        <time>2024-08-25T13:40:35Z</time>
      </trkpt>
      <trkpt lat="48.99128" lon="7.88987">
        <ele>194.4</ele>
        <time>2024-08-25T13:40:36Z</time>
      </trkpt>
      <trkpt lat="48.99132" lon="7.88985">
        <ele>194.2</ele>
        <time>2024-08-25T13:40:37Z</time>
      </trkpt>
      <trkpt lat="48.99137" lon="7.88983">
        <ele>194.2</ele>
        <time>2024-08-25T13:40:38Z</time>
      </trkpt>
      <trkpt lat="48.99142" lon="7.88981">
        <ele>194</ele>
        <time>2024-08-25T13:40:39Z</time>
      </trkpt>
      <trkpt lat="48.99146" lon="7.8898">
        <ele>194</ele>
        <time>2024-08-25T13:40:40Z</time>
      </trkpt>
      <trkpt lat="48.99151" lon="7.88979">
        <ele>194</ele>
        <time>2024-08-25T13:40:41Z</time>
      </trkpt>
      <trkpt lat="48.99156" lon="7.88979">
        <ele>194</ele>
        <time>2024-08-25T13:40:42Z</time>
      </trkpt>
      <trkpt lat="48.99161" lon="7.88979">
        <ele>194</ele>
        <time>2024-08-25T13:40:43Z</time>
      </trkpt>
      <trkpt lat="48.99166" lon="7.88979">
        <ele>194</ele>
        <time>2024-08-25T13:40:44Z</time>
      </trkpt>
      <trkpt lat="48.99171" lon="7.8898">
        <ele>194</ele>
        <time>2024-08-25T13:40:45Z</time>
      </trkpt>
      <trkpt lat="48.99175" lon="7.8898">
        <ele>194.2</ele>
        <time>2024-08-25T13:40:46Z</time>
      </trkpt>
      <trkpt lat="48.9918" lon="7.88981">
        <ele>194.4</ele>
        <time>2024-08-25T13:40:47Z</time>
      </trkpt>
      <trkpt lat="48.99184" lon="7.88982">
        <ele>194.6</ele>
        <time>2024-08-25T13:40:48Z</time>
      </trkpt>
      <trkpt lat="48.99188" lon="7.88983">
        <ele>194.8</ele>
        <time>2024-08-25T13:40:49Z</time>
      </trkpt>
      <trkpt lat="48.99193" lon="7.88983">
        <ele>195</ele>
        <time>2024-08-25T13:40:50Z</time>
      </trkpt>
      <trkpt lat="48.99197" lon="7.88984">
        <ele>195.2</ele>
        <time>2024-08-25T13:40:51Z</time>
      </trkpt>
      <trkpt lat="48.99202" lon="7.88985">
        <ele>195.4</ele>
        <time>2024-08-25T13:40:52Z</time>
      </trkpt>
      <trkpt lat="48.99206" lon="7.88986">
        <ele>195.4</ele>
        <time>2024-08-25T13:40:53Z</time>
      </trkpt>
      <trkpt lat="48.9921" lon="7.88986">
        <ele>195.6</ele>
        <time>2024-08-25T13:40:54Z</time>
      </trkpt>
      <trkpt lat="48.99215" lon="7.88987">
        <ele>195.6</ele>
        <time>2024-08-25T13:40:55Z</time>
      </trkpt>
      <trkpt lat="48.99219" lon="7.88987">
        <ele>195.8</ele>
        <time>2024-08-25T13:40:56Z</time>
      </trkpt>
      <trkpt lat="48.99223" lon="7.88988">
        <ele>196</ele>
        <time>2024-08-25T13:40:57Z</time>
      </trkpt>
      <trkpt lat="48.99227" lon="7.88988">
        <ele>196.2</ele>
        <time>2024-08-25T13:40:58Z</time>
      </trkpt>
      <trkpt lat="48.99231" lon="7.88989">
        <ele>196.4</ele>
        <time>2024-08-25T13:40:59Z</time>
      </trkpt>
      <trkpt lat="48.99235" lon="7.88989">
        <ele>196.4</ele>
        <time>2024-08-25T13:41:00Z</time>
      </trkpt>
      <trkpt lat="48.99239" lon="7.8899">
        <ele>196.6</ele>
        <time>2024-08-25T13:41:01Z</time>
      </trkpt>
      <trkpt lat="48.99243" lon="7.8899">
        <ele>196.8</ele>
        <time>2024-08-25T13:41:02Z</time>
      </trkpt>
      <trkpt lat="48.99247" lon="7.8899">
        <ele>197.2</ele>
        <time>2024-08-25T13:41:03Z</time>
      </trkpt>
      <trkpt lat="48.99251" lon="7.88991">
        <ele>197.2</ele>
        <time>2024-08-25T13:41:04Z</time>
      </trkpt>
      <trkpt lat="48.99255" lon="7.88991">
        <ele>197.4</ele>
        <time>2024-08-25T13:41:05Z</time>
      </trkpt>
      <trkpt lat="48.99258" lon="7.88991">
        <ele>197.4</ele>
        <time>2024-08-25T13:41:06Z</time>
      </trkpt>
      <trkpt lat="48.99262" lon="7.88992">
        <ele>197.6</ele>
        <time>2024-08-25T13:41:07Z</time>
      </trkpt>
      <trkpt lat="48.99266" lon="7.88992">
        <ele>197.6</ele>
        <time>2024-08-25T13:41:08Z</time>
      </trkpt>
      <trkpt lat="48.9927" lon="7.88993">
        <ele>197.8</ele>
        <time>2024-08-25T13:41:09Z</time>
      </trkpt>
      <trkpt lat="48.99274" lon="7.88994">
        <ele>198</ele>
        <time>2024-08-25T13:41:10Z</time>
      </trkpt>
      <trkpt lat="48.99278" lon="7.88994">
        <ele>198</ele>
        <time>2024-08-25T13:41:11Z</time>
      </trkpt>
      <trkpt lat="48.99282" lon="7.88993">
        <ele>198.2</ele>
        <time>2024-08-25T13:41:12Z</time>
      </trkpt>
      <trkpt lat="48.99287" lon="7.88994">
        <ele>198.2</ele>
        <time>2024-08-25T13:41:13Z</time>
      </trkpt>
      <trkpt lat="48.99291" lon="7.88996">
        <ele>198.2</ele>
        <time>2024-08-25T13:41:14Z</time>
      </trkpt>
      <trkpt lat="48.99294" lon="7.89">
        <ele>198.2</ele>
        <time>2024-08-25T13:41:15Z</time>
      </trkpt>
      <trkpt lat="48.99297" lon="7.89003">
        <ele>198.2</ele>
        <time>2024-08-25T13:41:16Z</time>
      </trkpt>
      <trkpt lat="48.99299" lon="7.89007">
        <ele>198.2</ele>
        <time>2024-08-25T13:41:17Z</time>
      </trkpt>
      <trkpt lat="48.99301" lon="7.89009">
        <ele>198.2</ele>
        <time>2024-08-25T13:41:18Z</time>
      </trkpt>
      <trkpt lat="48.99303" lon="7.89012">
        <ele>198.2</ele>
        <time>2024-08-25T13:41:19Z</time>
      </trkpt>
      <trkpt lat="48.99306" lon="7.89016">
        <ele>198.6</ele>
        <time>2024-08-25T13:41:20Z</time>
      </trkpt>
      <trkpt lat="48.99308" lon="7.89019">
        <ele>198.8</ele>
        <time>2024-08-25T13:41:21Z</time>
      </trkpt>
      <trkpt lat="48.9931" lon="7.89022">
        <ele>199.2</ele>
        <time>2024-08-25T13:41:22Z</time>
      </trkpt>
      <trkpt lat="48.99312" lon="7.89025">
        <ele>199.4</ele>
        <time>2024-08-25T13:41:23Z</time>
      </trkpt>
      <trkpt lat="48.99314" lon="7.89028">
        <ele>199.6</ele>
        <time>2024-08-25T13:41:24Z</time>
      </trkpt>
      <trkpt lat="48.99315" lon="7.89031">
        <ele>199.8</ele>
        <time>2024-08-25T13:41:25Z</time>
      </trkpt>
      <trkpt lat="48.99317" lon="7.89033">
        <ele>200.2</ele>
        <time>2024-08-25T13:41:26Z</time>
      </trkpt>
      <trkpt lat="48.99319" lon="7.89035">
        <ele>200.4</ele>
        <time>2024-08-25T13:41:27Z</time>
      </trkpt>
      <trkpt lat="48.99322" lon="7.89038">
        <ele>200.6</ele>
        <time>2024-08-25T13:41:28Z</time>
      </trkpt>
      <trkpt lat="48.99324" lon="7.89041">
        <ele>200.8</ele>
        <time>2024-08-25T13:41:29Z</time>
      </trkpt>
      <trkpt lat="48.99325" lon="7.89043">
        <ele>201.2</ele>
        <time>2024-08-25T13:41:30Z</time>
      </trkpt>
      <trkpt lat="48.99327" lon="7.89046">
        <ele>201.4</ele>
        <time>2024-08-25T13:41:31Z</time>
      </trkpt>
      <trkpt lat="48.99329" lon="7.89048">
        <ele>201.8</ele>
        <time>2024-08-25T13:41:32Z</time>
      </trkpt>
      <trkpt lat="48.9933" lon="7.8905">
        <ele>202</ele>
        <time>2024-08-25T13:41:33Z</time>
      </trkpt>
      <trkpt lat="48.99332" lon="7.89053">
        <ele>202.2</ele>
        <time>2024-08-25T13:41:34Z</time>
      </trkpt>
      <trkpt lat="48.99334" lon="7.89055">
        <ele>202.6</ele>
        <time>2024-08-25T13:41:35Z</time>
      </trkpt>
      <trkpt lat="48.99335" lon="7.89057">
        <ele>203</ele>
        <time>2024-08-25T13:41:36Z</time>
      </trkpt>
      <trkpt lat="48.99336" lon="7.8906">
        <ele>203.2</ele>
        <time>2024-08-25T13:41:37Z</time>
      </trkpt>
      <trkpt lat="48.99337" lon="7.89062">
        <ele>203.6</ele>
        <time>2024-08-25T13:41:38Z</time>
      </trkpt>
      <trkpt lat="48.99338" lon="7.89064">
        <ele>204</ele>
        <time>2024-08-25T13:41:39Z</time>
      </trkpt>
      <trkpt lat="48.99339" lon="7.89066">
        <ele>204.6</ele>
        <time>2024-08-25T13:41:40Z</time>
      </trkpt>
      <trkpt lat="48.99341" lon="7.89068">
        <ele>204.8</ele>
        <time>2024-08-25T13:41:41Z</time>
      </trkpt>
      <trkpt lat="48.99342" lon="7.8907">
        <ele>205.2</ele>
        <time>2024-08-25T13:41:42Z</time>
      </trkpt>
      <trkpt lat="48.99343" lon="7.89072">
        <ele>205.6</ele>
        <time>2024-08-25T13:41:43Z</time>
      </trkpt>
      <trkpt lat="48.99344" lon="7.89074">
        <ele>205.8</ele>
        <time>2024-08-25T13:41:44Z</time>
      </trkpt>
      <trkpt lat="48.99346" lon="7.89076">
        <ele>206.2</ele>
        <time>2024-08-25T13:41:45Z</time>
      </trkpt>
      <trkpt lat="48.99347" lon="7.89079">
        <ele>206.6</ele>
        <time>2024-08-25T13:41:46Z</time>
      </trkpt>
      <trkpt lat="48.99348" lon="7.89081">
        <ele>206.8</ele>
        <time>2024-08-25T13:41:47Z</time>
      </trkpt>
      <trkpt lat="48.99349" lon="7.89083">
        <ele>207.2</ele>
        <time>2024-08-25T13:41:48Z</time>
      </trkpt>
      <trkpt lat="48.9935" lon="7.89086">
        <ele>207.6</ele>
        <time>2024-08-25T13:41:49Z</time>
      </trkpt>
      <trkpt lat="48.99351" lon="7.89089">
        <ele>208</ele>
        <time>2024-08-25T13:41:50Z</time>
      </trkpt>
      <trkpt lat="48.99352" lon="7.89091">
        <ele>208.4</ele>
        <time>2024-08-25T13:41:51Z</time>
      </trkpt>
      <trkpt lat="48.99354" lon="7.89093">
        <ele>208.6</ele>
        <time>2024-08-25T13:41:52Z</time>
      </trkpt>
      <trkpt lat="48.99355" lon="7.89095">
        <ele>209</ele>
        <time>2024-08-25T13:41:53Z</time>
      </trkpt>
      <trkpt lat="48.99356" lon="7.89097">
        <ele>209.4</ele>
        <time>2024-08-25T13:41:54Z</time>
      </trkpt>
      <trkpt lat="48.99358" lon="7.89099">
        <ele>209.8</ele>
        <time>2024-08-25T13:41:55Z</time>
      </trkpt>
      <trkpt lat="48.99359" lon="7.89101">
        <ele>210</ele>
        <time>2024-08-25T13:41:56Z</time>
      </trkpt>
      <trkpt lat="48.99361" lon="7.89102">
        <ele>210.4</ele>
        <time>2024-08-25T13:41:57Z</time>
      </trkpt>
      <trkpt lat="48.99362" lon="7.89104">
        <ele>210.6</ele>
        <time>2024-08-25T13:41:58Z</time>
      </trkpt>
      <trkpt lat="48.99364" lon="7.89105">
        <ele>211</ele>
        <time>2024-08-25T13:41:59Z</time>
      </trkpt>
      <trkpt lat="48.99366" lon="7.89106">
        <ele>211.2</ele>
        <time>2024-08-25T13:42:00Z</time>
      </trkpt>
      <trkpt lat="48.99367" lon="7.89108">
        <ele>211.6</ele>
        <time>2024-08-25T13:42:01Z</time>
      </trkpt>
      <trkpt lat="48.99369" lon="7.8911">
        <ele>211.8</ele>
        <time>2024-08-25T13:42:02Z</time>
      </trkpt>
      <trkpt lat="48.99371" lon="7.89111">
        <ele>212.2</ele>
        <time>2024-08-25T13:42:03Z</time>
      </trkpt>
      <trkpt lat="48.99372" lon="7.89112">
        <ele>212.4</ele>
        <time>2024-08-25T13:42:04Z</time>
      </trkpt>
      <trkpt lat="48.99374" lon="7.89114">
        <ele>212.6</ele>
        <time>2024-08-25T13:42:05Z</time>
      </trkpt>
      <trkpt lat="48.99375" lon="7.89115">
        <ele>213</ele>
        <time>2024-08-25T13:42:06Z</time>
      </trkpt>
      <trkpt lat="48.99377" lon="7.89116">
        <ele>213.2</ele>
        <time>2024-08-25T13:42:07Z</time>
      </trkpt>
      <trkpt lat="48.99379" lon="7.89118">
        <ele>213.4</ele>
        <time>2024-08-25T13:42:08Z</time>
      </trkpt>
      <trkpt lat="48.99381" lon="7.89119">
        <ele>213.8</ele>
        <time>2024-08-25T13:42:09Z</time>
      </trkpt>
      <trkpt lat="48.99382" lon="7.89121">
        <ele>214</ele>
        <time>2024-08-25T13:42:10Z</time>
      </trkpt>
      <trkpt lat="48.99384" lon="7.89122">
        <ele>214.2</ele>
        <time>2024-08-25T13:42:11Z</time>
      </trkpt>
      <trkpt lat="48.99385" lon="7.89123">
        <ele>214.6</ele>
        <time>2024-08-25T13:42:12Z</time>
      </trkpt>
      <trkpt lat="48.99387" lon="7.89124">
        <ele>214.8</ele>
        <time>2024-08-25T13:42:13Z</time>
      </trkpt>
      <trkpt lat="48.99389" lon="7.89126">
        <ele>215.2</ele>
        <time>2024-08-25T13:42:14Z</time>
      </trkpt>
      <trkpt lat="48.99391" lon="7.89127">
        <ele>215.4</ele>
        <time>2024-08-25T13:42:15Z</time>
      </trkpt>
      <trkpt lat="48.99392" lon="7.89129">
        <ele>215.6</ele>
        <time>2024-08-25T13:42:16Z</time>
      </trkpt>
      <trkpt lat="48.99394" lon="7.8913">
        <ele>215.8</ele>
        <time>2024-08-25T13:42:17Z</time>
      </trkpt>
      <trkpt lat="48.99395" lon="7.89132">
        <ele>216</ele>
        <time>2024-08-25T13:42:18Z</time>
      </trkpt>
      <trkpt lat="48.99396" lon="7.89134">
        <ele>216.4</ele>
        <time>2024-08-25T13:42:19Z</time>
      </trkpt>
      <trkpt lat="48.99397" lon="7.89135">
        <ele>216.6</ele>
        <time>2024-08-25T13:42:20Z</time>
      </trkpt>
      <trkpt lat="48.99399" lon="7.89136">
        <ele>216.8</ele>
        <time>2024-08-25T13:42:21Z</time>
      </trkpt>
      <trkpt lat="48.994" lon="7.89138">
        <ele>217</ele>
        <time>2024-08-25T13:42:22Z</time>
      </trkpt>
      <trkpt lat="48.99402" lon="7.89139">
        <ele>217.2</ele>
        <time>2024-08-25T13:42:23Z</time>
      </trkpt>
      <trkpt lat="48.99403" lon="7.89141">
        <ele>217.4</ele>
        <time>2024-08-25T13:42:24Z</time>
      </trkpt>
      <trkpt lat="48.99404" lon="7.89142">
        <ele>217.6</ele>
        <time>2024-08-25T13:42:25Z</time>
      </trkpt>
      <trkpt lat="48.99405" lon="7.89143">
        <ele>217.8</ele>
        <time>2024-08-25T13:42:26Z</time>
      </trkpt>
      <trkpt lat="48.99407" lon="7.89143">
        <ele>217.8</ele>
        <time>2024-08-25T13:42:27Z</time>
      </trkpt>
      <trkpt lat="48.99408" lon="7.89146">
        <ele>217.8</ele>
        <time>2024-08-25T13:42:28Z</time>
      </trkpt>
      <trkpt lat="48.9941" lon="7.89148">
        <ele>218</ele>
        <time>2024-08-25T13:42:29Z</time>
      </trkpt>
      <trkpt lat="48.99412" lon="7.89149">
        <ele>218</ele>
        <time>2024-08-25T13:42:30Z</time>
      </trkpt>
      <trkpt lat="48.99414" lon="7.8915">
        <ele>218.2</ele>
        <time>2024-08-25T13:42:31Z</time>
      </trkpt>
      <trkpt lat="48.99416" lon="7.89152">
        <ele>218.2</ele>
        <time>2024-08-25T13:42:32Z</time>
      </trkpt>
      <trkpt lat="48.99417" lon="7.89153">
        <ele>218.4</ele>
        <time>2024-08-25T13:42:33Z</time>
      </trkpt>
      <trkpt lat="48.99419" lon="7.89153">
        <ele>218.4</ele>
        <time>2024-08-25T13:42:34Z</time>
      </trkpt>
      <trkpt lat="48.99421" lon="7.89155">
        <ele>218.4</ele>
        <time>2024-08-25T13:42:35Z</time>
      </trkpt>
      <trkpt lat="48.99423" lon="7.89157">
        <ele>218.6</ele>
        <time>2024-08-25T13:42:36Z</time>
      </trkpt>
      <trkpt lat="48.99425" lon="7.89159">
        <ele>218.6</ele>
        <time>2024-08-25T13:42:37Z</time>
      </trkpt>
      <trkpt lat="48.99427" lon="7.89161">
        <ele>218.8</ele>
        <time>2024-08-25T13:42:38Z</time>
      </trkpt>
      <trkpt lat="48.99429" lon="7.89162">
        <ele>218.8</ele>
        <time>2024-08-25T13:42:39Z</time>
      </trkpt>
      <trkpt lat="48.99431" lon="7.89163">
        <ele>219</ele>
        <time>2024-08-25T13:42:40Z</time>
      </trkpt>
      <trkpt lat="48.99433" lon="7.89165">
        <ele>219</ele>
        <time>2024-08-25T13:42:41Z</time>
      </trkpt>
      <trkpt lat="48.99434" lon="7.89167">
        <ele>219.2</ele>
        <time>2024-08-25T13:42:42Z</time>
      </trkpt>
      <trkpt lat="48.99436" lon="7.89169">
        <ele>219.4</ele>
        <time>2024-08-25T13:42:43Z</time>
      </trkpt>
      <trkpt lat="48.99438" lon="7.8917">
        <ele>219.4</ele>
        <time>2024-08-25T13:42:44Z</time>
      </trkpt>
      <trkpt lat="48.99441" lon="7.89171">
        <ele>219.6</ele>
        <time>2024-08-25T13:42:45Z</time>
      </trkpt>
      <trkpt lat="48.99443" lon="7.89173">
        <ele>219.6</ele>
        <time>2024-08-25T13:42:46Z</time>
      </trkpt>
      <trkpt lat="48.99445" lon="7.89175">
        <ele>219.6</ele>
        <time>2024-08-25T13:42:47Z</time>
      </trkpt>
      <trkpt lat="48.99447" lon="7.89176">
        <ele>219.8</ele>
        <time>2024-08-25T13:42:48Z</time>
      </trkpt>
      <trkpt lat="48.99449" lon="7.89178">
        <ele>219.8</ele>
        <time>2024-08-25T13:42:49Z</time>
      </trkpt>
      <trkpt lat="48.99451" lon="7.89179">
        <ele>220</ele>
        <time>2024-08-25T13:42:50Z</time>
      </trkpt>
      <trkpt lat="48.99453" lon="7.89181">
        <ele>220</ele>
        <time>2024-08-25T13:42:51Z</time>
      </trkpt>
      <trkpt lat="48.99456" lon="7.89183">
        <ele>220.2</ele>
        <time>2024-08-25T13:42:52Z</time>
      </trkpt>
      <trkpt lat="48.99458" lon="7.89184">
        <ele>220.2</ele>
        <time>2024-08-25T13:42:53Z</time>
      </trkpt>
      <trkpt lat="48.99461" lon="7.89186">
        <ele>220.4</ele>
        <time>2024-08-25T13:42:54Z</time>
      </trkpt>
      <trkpt lat="48.99463" lon="7.89189">
        <ele>220.4</ele>
        <time>2024-08-25T13:42:55Z</time>
      </trkpt>
      <trkpt lat="48.99466" lon="7.89191">
        <ele>220.4</ele>
        <time>2024-08-25T13:42:56Z</time>
      </trkpt>
      <trkpt lat="48.99469" lon="7.89194">
        <ele>220.4</ele>
        <time>2024-08-25T13:42:57Z</time>
      </trkpt>
      <trkpt lat="48.99472" lon="7.89196">
        <ele>220.4</ele>
        <time>2024-08-25T13:42:58Z</time>
      </trkpt>
      <trkpt lat="48.99475" lon="7.89199">
        <ele>220.4</ele>
        <time>2024-08-25T13:42:59Z</time>
      </trkpt>
      <trkpt lat="48.99479" lon="7.89202">
        <ele>220.2</ele>
        <time>2024-08-25T13:43:00Z</time>
      </trkpt>
      <trkpt lat="48.99483" lon="7.89206">
        <ele>220.2</ele>
        <time>2024-08-25T13:43:01Z</time>
      </trkpt>
      <trkpt lat="48.99488" lon="7.8921">
        <ele>220</ele>
        <time>2024-08-25T13:43:02Z</time>
      </trkpt>
      <trkpt lat="48.99493" lon="7.89214">
        <ele>219.6</ele>
        <time>2024-08-25T13:43:03Z</time>
      </trkpt>
      <trkpt lat="48.99498" lon="7.89218">
        <ele>219.4</ele>
        <time>2024-08-25T13:43:04Z</time>
      </trkpt>
      <trkpt lat="48.99502" lon="7.89223">
        <ele>219.2</ele>
        <time>2024-08-25T13:43:05Z</time>
      </trkpt>
      <trkpt lat="48.99507" lon="7.89227">
        <ele>218.8</ele>
        <time>2024-08-25T13:43:06Z</time>
      </trkpt>
      <trkpt lat="48.99513" lon="7.89232">
        <ele>218.4</ele>
        <time>2024-08-25T13:43:07Z</time>
      </trkpt>
      <trkpt lat="48.99518" lon="7.89236">
        <ele>217.8</ele>
        <time>2024-08-25T13:43:08Z</time>
      </trkpt>
      <trkpt lat="48.99522" lon="7.8924">
        <ele>217.6</ele>
        <time>2024-08-25T13:43:09Z</time>
      </trkpt>
      <trkpt lat="48.99527" lon="7.89244">
        <ele>217</ele>
        <time>2024-08-25T13:43:10Z</time>
      </trkpt>
      <trkpt lat="48.99532" lon="7.89248">
        <ele>216.8</ele>
        <time>2024-08-25T13:43:11Z</time>
      </trkpt>
      <trkpt lat="48.99536" lon="7.8925">
        <ele>216.4</ele>
        <time>2024-08-25T13:43:12Z</time>
      </trkpt>
      <trkpt lat="48.99539" lon="7.89253">
        <ele>216.2</ele>
        <time>2024-08-25T13:43:13Z</time>
      </trkpt>
      <trkpt lat="48.99541" lon="7.89255">
        <ele>215.8</ele>
        <time>2024-08-25T13:43:14Z</time>
      </trkpt>
      <trkpt lat="48.99543" lon="7.89256">
        <ele>215.6</ele>
        <time>2024-08-25T13:43:15Z</time>
      </trkpt>
      <trkpt lat="48.99545" lon="7.89259">
        <ele>215.4</ele>
        <time>2024-08-25T13:43:16Z</time>
      </trkpt>
      <trkpt lat="48.99545" lon="7.89263">
        <ele>215</ele>
        <time>2024-08-25T13:43:17Z</time>
      </trkpt>
      <trkpt lat="48.99544" lon="7.89268">
        <ele>214.6</ele>
        <time>2024-08-25T13:43:18Z</time>
      </trkpt>
      <trkpt lat="48.99545" lon="7.89272">
        <ele>214.4</ele>
        <time>2024-08-25T13:43:19Z</time>
      </trkpt>
      <trkpt lat="48.99548" lon="7.89276">
        <ele>214</ele>
        <time>2024-08-25T13:43:20Z</time>
      </trkpt>
      <trkpt lat="48.9955" lon="7.89279">
        <ele>213.8</ele>
        <time>2024-08-25T13:43:21Z</time>
      </trkpt>
      <trkpt lat="48.99552" lon="7.89281">
        <ele>213.8</ele>
        <time>2024-08-25T13:43:22Z</time>
      </trkpt>
      <trkpt lat="48.99554" lon="7.89284">
        <ele>213.8</ele>
        <time>2024-08-25T13:43:23Z</time>
      </trkpt>
      <trkpt lat="48.99556" lon="7.89287">
        <ele>213.8</ele>
        <time>2024-08-25T13:43:24Z</time>
      </trkpt>
      <trkpt lat="48.99558" lon="7.89289">
        <ele>214</ele>
        <time>2024-08-25T13:43:25Z</time>
      </trkpt>
      <trkpt lat="48.9956" lon="7.89292">
        <ele>214</ele>
        <time>2024-08-25T13:43:26Z</time>
      </trkpt>
      <trkpt lat="48.99562" lon="7.89294">
        <ele>214.2</ele>
        <time>2024-08-25T13:43:27Z</time>
      </trkpt>
      <trkpt lat="48.99564" lon="7.89297">
        <ele>214.6</ele>
        <time>2024-08-25T13:43:28Z</time>
      </trkpt>
      <trkpt lat="48.99566" lon="7.893">
        <ele>214.6</ele>
        <time>2024-08-25T13:43:29Z</time>
      </trkpt>
      <trkpt lat="48.99568" lon="7.89302">
        <ele>215</ele>
        <time>2024-08-25T13:43:30Z</time>
      </trkpt>
      <trkpt lat="48.99571" lon="7.89304">
        <ele>215</ele>
        <time>2024-08-25T13:43:31Z</time>
      </trkpt>
      <trkpt lat="48.99574" lon="7.89307">
        <ele>215</ele>
        <time>2024-08-25T13:43:32Z</time>
      </trkpt>
      <trkpt lat="48.99576" lon="7.8931">
        <ele>215.4</ele>
        <time>2024-08-25T13:43:33Z</time>
      </trkpt>
      <trkpt lat="48.99579" lon="7.89313">
        <ele>215.6</ele>
        <time>2024-08-25T13:43:34Z</time>
      </trkpt>
      <trkpt lat="48.99581" lon="7.89316">
        <ele>215.4</ele>
        <time>2024-08-25T13:43:35Z</time>
      </trkpt>
      <trkpt lat="48.99584" lon="7.89319">
        <ele>215.6</ele>
        <time>2024-08-25T13:43:36Z</time>
      </trkpt>
      <trkpt lat="48.99587" lon="7.89323">
        <ele>215.6</ele>
        <time>2024-08-25T13:43:37Z</time>
      </trkpt>
      <trkpt lat="48.9959" lon="7.89326">
        <ele>215.6</ele>
        <time>2024-08-25T13:43:38Z</time>
      </trkpt>
      <trkpt lat="48.99593" lon="7.89329">
        <ele>215.8</ele>
        <time>2024-08-25T13:43:39Z</time>
      </trkpt>
      <trkpt lat="48.99596" lon="7.89333">
        <ele>215.8</ele>
        <time>2024-08-25T13:43:40Z</time>
      </trkpt>
      <trkpt lat="48.99599" lon="7.89336">
        <ele>215.8</ele>
        <time>2024-08-25T13:43:41Z</time>
      </trkpt>
      <trkpt lat="48.99603" lon="7.8934">
        <ele>215.8</ele>
        <time>2024-08-25T13:43:42Z</time>
      </trkpt>
      <trkpt lat="48.99606" lon="7.89344">
        <ele>215.6</ele>
        <time>2024-08-25T13:43:43Z</time>
      </trkpt>
      <trkpt lat="48.99609" lon="7.89348">
        <ele>215.6</ele>
        <time>2024-08-25T13:43:44Z</time>
      </trkpt>
      <trkpt lat="48.99613" lon="7.89352">
        <ele>215.6</ele>
        <time>2024-08-25T13:43:45Z</time>
      </trkpt>
      <trkpt lat="48.99616" lon="7.89356">
        <ele>215.6</ele>
        <time>2024-08-25T13:43:46Z</time>
      </trkpt>
      <trkpt lat="48.9962" lon="7.8936">
        <ele>215.6</ele>
        <time>2024-08-25T13:43:47Z</time>
      </trkpt>
      <trkpt lat="48.99624" lon="7.89364">
        <ele>215.6</ele>
        <time>2024-08-25T13:43:48Z</time>
      </trkpt>
      <trkpt lat="48.99628" lon="7.89368">
        <ele>215.4</ele>
        <time>2024-08-25T13:43:49Z</time>
      </trkpt>
      <trkpt lat="48.99632" lon="7.89373">
        <ele>215.2</ele>
        <time>2024-08-25T13:43:50Z</time>
      </trkpt>
      <trkpt lat="48.99636" lon="7.89378">
        <ele>215.2</ele>
        <time>2024-08-25T13:43:51Z</time>
      </trkpt>
      <trkpt lat="48.9964" lon="7.89382">
        <ele>215</ele>
        <time>2024-08-25T13:43:52Z</time>
      </trkpt>
      <trkpt lat="48.99644" lon="7.89386">
        <ele>214.8</ele>
        <time>2024-08-25T13:43:53Z</time>
      </trkpt>
      <trkpt lat="48.99648" lon="7.89391">
        <ele>214.8</ele>
        <time>2024-08-25T13:43:54Z</time>
      </trkpt>
      <trkpt lat="48.99652" lon="7.89395">
        <ele>214.6</ele>
        <time>2024-08-25T13:43:55Z</time>
      </trkpt>
      <trkpt lat="48.99656" lon="7.894">
        <ele>214.4</ele>
        <time>2024-08-25T13:43:56Z</time>
      </trkpt>
      <trkpt lat="48.9966" lon="7.89404">
        <ele>213.8</ele>
        <time>2024-08-25T13:43:57Z</time>
      </trkpt>
      <trkpt lat="48.99664" lon="7.89409">
        <ele>213.2</ele>
        <time>2024-08-25T13:43:58Z</time>
      </trkpt>
      <trkpt lat="48.99668" lon="7.89413">
        <ele>213.2</ele>
        <time>2024-08-25T13:43:59Z</time>
      </trkpt>
      <trkpt lat="48.99672" lon="7.89418">
        <ele>213</ele>
        <time>2024-08-25T13:44:00Z</time>
      </trkpt>
      <trkpt lat="48.99677" lon="7.89423">
        <ele>212.8</ele>
        <time>2024-08-25T13:44:01Z</time>
      </trkpt>
      <trkpt lat="48.99682" lon="7.89429">
        <ele>212</ele>
        <time>2024-08-25T13:44:02Z</time>
      </trkpt>
      <trkpt lat="48.99687" lon="7.89434">
        <ele>212</ele>
        <time>2024-08-25T13:44:03Z</time>
      </trkpt>
      <trkpt lat="48.99693" lon="7.8944">
        <ele>211.6</ele>
        <time>2024-08-25T13:44:04Z</time>
      </trkpt>
      <trkpt lat="48.997" lon="7.89447">
        <ele>211</ele>
        <time>2024-08-25T13:44:05Z</time>
      </trkpt>
      <trkpt lat="48.99706" lon="7.89454">
        <ele>210.4</ele>
        <time>2024-08-25T13:44:06Z</time>
      </trkpt>
      <trkpt lat="48.99714" lon="7.89462">
        <ele>209.6</ele>
        <time>2024-08-25T13:44:07Z</time>
      </trkpt>
      <trkpt lat="48.99721" lon="7.89471">
        <ele>208.8</ele>
        <time>2024-08-25T13:44:08Z</time>
      </trkpt>
      <trkpt lat="48.99728" lon="7.89479">
        <ele>207.8</ele>
        <time>2024-08-25T13:44:09Z</time>
      </trkpt>
      <trkpt lat="48.99735" lon="7.89487">
        <ele>206.8</ele>
        <time>2024-08-25T13:44:10Z</time>
      </trkpt>
      <trkpt lat="48.9974" lon="7.89495">
        <ele>206</ele>
        <time>2024-08-25T13:44:11Z</time>
      </trkpt>
      <trkpt lat="48.99746" lon="7.89504">
        <ele>205</ele>
        <time>2024-08-25T13:44:12Z</time>
      </trkpt>
      <trkpt lat="48.99752" lon="7.89513">
        <ele>203.6</ele>
        <time>2024-08-25T13:44:13Z</time>
      </trkpt>
      <trkpt lat="48.99758" lon="7.89523">
        <ele>203</ele>
        <time>2024-08-25T13:44:14Z</time>
      </trkpt>
      <trkpt lat="48.99763" lon="7.89533">
        <ele>202.4</ele>
        <time>2024-08-25T13:44:15Z</time>
      </trkpt>
      <trkpt lat="48.99768" lon="7.89542">
        <ele>201.4</ele>
        <time>2024-08-25T13:44:16Z</time>
      </trkpt>
      <trkpt lat="48.99773" lon="7.89549">
        <ele>200.6</ele>
        <time>2024-08-25T13:44:17Z</time>
      </trkpt>
      <trkpt lat="48.99777" lon="7.89556">
        <ele>200</ele>
        <time>2024-08-25T13:44:18Z</time>
      </trkpt>
      <trkpt lat="48.9978" lon="7.89562">
        <ele>199.8</ele>
        <time>2024-08-25T13:44:19Z</time>
      </trkpt>
      <trkpt lat="48.99782" lon="7.89566">
        <ele>199.4</ele>
        <time>2024-08-25T13:44:20Z</time>
      </trkpt>
      <trkpt lat="48.99785" lon="7.89569">
        <ele>199.2</ele>
        <time>2024-08-25T13:44:21Z</time>
      </trkpt>
      <trkpt lat="48.99788" lon="7.89571">
        <ele>199</ele>
        <time>2024-08-25T13:44:22Z</time>
      </trkpt>
      <trkpt lat="48.99791" lon="7.89569">
        <ele>198.8</ele>
        <time>2024-08-25T13:44:23Z</time>
      </trkpt>
      <trkpt lat="48.99794" lon="7.89566">
        <ele>198.4</ele>
        <time>2024-08-25T13:44:24Z</time>
      </trkpt>
      <trkpt lat="48.99797" lon="7.89563">
        <ele>198.4</ele>
        <time>2024-08-25T13:44:25Z</time>
      </trkpt>
      <trkpt lat="48.998" lon="7.8956">
        <ele>198.4</ele>
        <time>2024-08-25T13:44:26Z</time>
      </trkpt>
      <trkpt lat="48.99803" lon="7.89558">
        <ele>198.4</ele>
        <time>2024-08-25T13:44:27Z</time>
      </trkpt>
      <trkpt lat="48.99806" lon="7.89557">
        <ele>198.4</ele>
        <time>2024-08-25T13:44:28Z</time>
      </trkpt>
      <trkpt lat="48.9981" lon="7.89556">
        <ele>198.4</ele>
        <time>2024-08-25T13:44:29Z</time>
      </trkpt>
      <trkpt lat="48.99813" lon="7.89557">
        <ele>198.4</ele>
        <time>2024-08-25T13:44:30Z</time>
      </trkpt>
      <trkpt lat="48.99817" lon="7.89558">
        <ele>198.2</ele>
        <time>2024-08-25T13:44:31Z</time>
      </trkpt>
      <trkpt lat="48.99821" lon="7.89557">
        <ele>198.2</ele>
        <time>2024-08-25T13:44:32Z</time>
      </trkpt>
      <trkpt lat="48.99825" lon="7.89557">
        <ele>198.2</ele>
        <time>2024-08-25T13:44:33Z</time>
      </trkpt>
      <trkpt lat="48.99829" lon="7.89559">
        <ele>197.8</ele>
        <time>2024-08-25T13:44:34Z</time>
      </trkpt>
      <trkpt lat="48.99833" lon="7.89563">
        <ele>197.8</ele>
        <time>2024-08-25T13:44:35Z</time>
      </trkpt>
      <trkpt lat="48.99836" lon="7.89567">
        <ele>197.6</ele>
        <time>2024-08-25T13:44:36Z</time>
      </trkpt>
      <trkpt lat="48.9984" lon="7.89573">
        <ele>197.2</ele>
        <time>2024-08-25T13:44:37Z</time>
      </trkpt>
      <trkpt lat="48.99845" lon="7.89578">
        <ele>197.2</ele>
        <time>2024-08-25T13:44:38Z</time>
      </trkpt>
      <trkpt lat="48.99849" lon="7.89584">
        <ele>196.6</ele>
        <time>2024-08-25T13:44:39Z</time>
      </trkpt>
      <trkpt lat="48.99853" lon="7.89589">
        <ele>196</ele>
        <time>2024-08-25T13:44:40Z</time>
      </trkpt>
      <trkpt lat="48.99857" lon="7.89595">
        <ele>195.8</ele>
        <time>2024-08-25T13:44:41Z</time>
      </trkpt>
      <trkpt lat="48.99861" lon="7.89601">
        <ele>195.6</ele>
        <time>2024-08-25T13:44:42Z</time>
      </trkpt>
      <trkpt lat="48.99865" lon="7.89607">
        <ele>195.2</ele>
        <time>2024-08-25T13:44:43Z</time>
      </trkpt>
      <trkpt lat="48.99869" lon="7.89613">
        <ele>194.6</ele>
        <time>2024-08-25T13:44:44Z</time>
      </trkpt>
      <trkpt lat="48.99873" lon="7.89619">
        <ele>194.2</ele>
        <time>2024-08-25T13:44:45Z</time>
      </trkpt>
      <trkpt lat="48.99876" lon="7.89624">
        <ele>194</ele>
        <time>2024-08-25T13:44:46Z</time>
      </trkpt>
      <trkpt lat="48.99878" lon="7.89628">
        <ele>193.8</ele>
        <time>2024-08-25T13:44:47Z</time>
      </trkpt>
      <trkpt lat="48.99881" lon="7.8963">
        <ele>193.8</ele>
        <time>2024-08-25T13:44:48Z</time>
      </trkpt>
      <trkpt lat="48.99884" lon="7.89632">
        <ele>193.6</ele>
        <time>2024-08-25T13:44:49Z</time>
      </trkpt>
      <trkpt lat="48.99887" lon="7.89635">
        <ele>193.6</ele>
        <time>2024-08-25T13:44:50Z</time>
      </trkpt>
      <trkpt lat="48.99889" lon="7.89637">
        <ele>193.6</ele>
        <time>2024-08-25T13:44:51Z</time>
      </trkpt>
      <trkpt lat="48.99889" lon="7.89639">
        <ele>193.6</ele>
        <time>2024-08-25T13:44:52Z</time>
      </trkpt>
      <trkpt lat="48.99889" lon="7.89641">
        <ele>193.6</ele>
        <time>2024-08-25T13:44:53Z</time>
      </trkpt>
      <trkpt lat="48.9989" lon="7.89642">
        <ele>193.6</ele>
        <time>2024-08-25T13:44:54Z</time>
      </trkpt>
      <trkpt lat="48.99892" lon="7.89639">
        <ele>193.6</ele>
        <time>2024-08-25T13:44:55Z</time>
      </trkpt>
      <trkpt lat="48.99893" lon="7.89636">
        <ele>193.6</ele>
        <time>2024-08-25T13:44:56Z</time>
      </trkpt>
      <trkpt lat="48.99895" lon="7.89633">
        <ele>193.6</ele>
        <time>2024-08-25T13:44:57Z</time>
      </trkpt>
      <trkpt lat="48.99897" lon="7.8963">
        <ele>193.6</ele>
        <time>2024-08-25T13:44:58Z</time>
      </trkpt>
      <trkpt lat="48.999" lon="7.89626">
        <ele>193.6</ele>
        <time>2024-08-25T13:44:59Z</time>
      </trkpt>
      <trkpt lat="48.99903" lon="7.89622">
        <ele>193.6</ele>
        <time>2024-08-25T13:45:00Z</time>
      </trkpt>
      <trkpt lat="48.99906" lon="7.89618">
        <ele>193.6</ele>
        <time>2024-08-25T13:45:01Z</time>
      </trkpt>
      <trkpt lat="48.9991" lon="7.89614">
        <ele>193.6</ele>
        <time>2024-08-25T13:45:02Z</time>
      </trkpt>
      <trkpt lat="48.99913" lon="7.8961">
        <ele>193.6</ele>
        <time>2024-08-25T13:45:03Z</time>
      </trkpt>
      <trkpt lat="48.99917" lon="7.89606">
        <ele>193.4</ele>
        <time>2024-08-25T13:45:04Z</time>
      </trkpt>
      <trkpt lat="48.9992" lon="7.89602">
        <ele>193.4</ele>
        <time>2024-08-25T13:45:05Z</time>
      </trkpt>
      <trkpt lat="48.99924" lon="7.89598">
        <ele>193.4</ele>
        <time>2024-08-25T13:45:06Z</time>
      </trkpt>
      <trkpt lat="48.99928" lon="7.89595">
        <ele>193.4</ele>
        <time>2024-08-25T13:45:07Z</time>
      </trkpt>
      <trkpt lat="48.99931" lon="7.89591">
        <ele>193.2</ele>
        <time>2024-08-25T13:45:08Z</time>
      </trkpt>
      <trkpt lat="48.99935" lon="7.89587">
        <ele>193.2</ele>
        <time>2024-08-25T13:45:09Z</time>
      </trkpt>
      <trkpt lat="48.99939" lon="7.89584">
        <ele>193.2</ele>
        <time>2024-08-25T13:45:10Z</time>
      </trkpt>
      <trkpt lat="48.99943" lon="7.8958">
        <ele>193.2</ele>
        <time>2024-08-25T13:45:11Z</time>
      </trkpt>
      <trkpt lat="48.99947" lon="7.89577">
        <ele>193.2</ele>
        <time>2024-08-25T13:45:12Z</time>
      </trkpt>
      <trkpt lat="48.9995" lon="7.89573">
        <ele>193.2</ele>
        <time>2024-08-25T13:45:13Z</time>
      </trkpt>
      <trkpt lat="48.99954" lon="7.8957">
        <ele>193.4</ele>
        <time>2024-08-25T13:45:14Z</time>
      </trkpt>
      <trkpt lat="48.99958" lon="7.89566">
        <ele>193.6</ele>
        <time>2024-08-25T13:45:15Z</time>
      </trkpt>
      <trkpt lat="48.99963" lon="7.89562">
        <ele>193.6</ele>
        <time>2024-08-25T13:45:16Z</time>
      </trkpt>
      <trkpt lat="48.99967" lon="7.89559">
        <ele>193.6</ele>
        <time>2024-08-25T13:45:17Z</time>
      </trkpt>
      <trkpt lat="48.99971" lon="7.89555">
        <ele>193.8</ele>
        <time>2024-08-25T13:45:18Z</time>
      </trkpt>
      <trkpt lat="48.99975" lon="7.89552">
        <ele>193.8</ele>
        <time>2024-08-25T13:45:19Z</time>
      </trkpt>
      <trkpt lat="48.99978" lon="7.89548">
        <ele>193.8</ele>
        <time>2024-08-25T13:45:20Z</time>
      </trkpt>
      <trkpt lat="48.99982" lon="7.89543">
        <ele>194</ele>
        <time>2024-08-25T13:45:21Z</time>
      </trkpt>
      <trkpt lat="48.99986" lon="7.89539">
        <ele>194</ele>
        <time>2024-08-25T13:45:22Z</time>
      </trkpt>
      <trkpt lat="48.99989" lon="7.89534">
        <ele>194</ele>
        <time>2024-08-25T13:45:23Z</time>
      </trkpt>
      <trkpt lat="48.99993" lon="7.8953">
        <ele>194</ele>
        <time>2024-08-25T13:45:24Z</time>
      </trkpt>
      <trkpt lat="48.99996" lon="7.89525">
        <ele>194</ele>
        <time>2024-08-25T13:45:25Z</time>
      </trkpt>
      <trkpt lat="48.99999" lon="7.8952">
        <ele>194</ele>
        <time>2024-08-25T13:45:26Z</time>
      </trkpt>
      <trkpt lat="49.00002" lon="7.89516">
        <ele>194</ele>
        <time>2024-08-25T13:45:27Z</time>
      </trkpt>
      <trkpt lat="49.00006" lon="7.89511">
        <ele>194</ele>
        <time>2024-08-25T13:45:28Z</time>
      </trkpt>
      <trkpt lat="49.00009" lon="7.89507">
        <ele>194</ele>
        <time>2024-08-25T13:45:29Z</time>
      </trkpt>
      <trkpt lat="49.00013" lon="7.89503">
        <ele>194.2</ele>
        <time>2024-08-25T13:45:30Z</time>
      </trkpt>
      <trkpt lat="49.00017" lon="7.89499">
        <ele>194.2</ele>
        <time>2024-08-25T13:45:31Z</time>
      </trkpt>
      <trkpt lat="49.0002" lon="7.89495">
        <ele>194.2</ele>
        <time>2024-08-25T13:45:32Z</time>
      </trkpt>
      <trkpt lat="49.00024" lon="7.89491">
        <ele>194.2</ele>
        <time>2024-08-25T13:45:33Z</time>
      </trkpt>
      <trkpt lat="49.00027" lon="7.89488">
        <ele>194.4</ele>
        <time>2024-08-25T13:45:34Z</time>
      </trkpt>
      <trkpt lat="49.00031" lon="7.89485">
        <ele>194.4</ele>
        <time>2024-08-25T13:45:35Z</time>
      </trkpt>
      <trkpt lat="49.00034" lon="7.89481">
        <ele>194.4</ele>
        <time>2024-08-25T13:45:36Z</time>
      </trkpt>
      <trkpt lat="49.00038" lon="7.89477">
        <ele>194.6</ele>
        <time>2024-08-25T13:45:37Z</time>
      </trkpt>
      <trkpt lat="49.00042" lon="7.89473">
        <ele>194.6</ele>
        <time>2024-08-25T13:45:38Z</time>
      </trkpt>
      <trkpt lat="49.00045" lon="7.89469">
        <ele>194.6</ele>
        <time>2024-08-25T13:45:39Z</time>
      </trkpt>
      <trkpt lat="49.00049" lon="7.89465">
        <ele>194.6</ele>
        <time>2024-08-25T13:45:40Z</time>
      </trkpt>
      <trkpt lat="49.00053" lon="7.89461">
        <ele>194.6</ele>
        <time>2024-08-25T13:45:41Z</time>
      </trkpt>
      <trkpt lat="49.00056" lon="7.89457">
        <ele>194.6</ele>
        <time>2024-08-25T13:45:42Z</time>
      </trkpt>
      <trkpt lat="49.0006" lon="7.89453">
        <ele>194.6</ele>
        <time>2024-08-25T13:45:43Z</time>
      </trkpt>
      <trkpt lat="49.00063" lon="7.89449">
        <ele>194.6</ele>
        <time>2024-08-25T13:45:44Z</time>
      </trkpt>
      <trkpt lat="49.00067" lon="7.89444">
        <ele>194.6</ele>
        <time>2024-08-25T13:45:45Z</time>
      </trkpt>
      <trkpt lat="49.0007" lon="7.89439">
        <ele>194.6</ele>
        <time>2024-08-25T13:45:46Z</time>
      </trkpt>
      <trkpt lat="49.00073" lon="7.89435">
        <ele>194.8</ele>
        <time>2024-08-25T13:45:47Z</time>
      </trkpt>
      <trkpt lat="49.00077" lon="7.89431">
        <ele>194.8</ele>
        <time>2024-08-25T13:45:48Z</time>
      </trkpt>
      <trkpt lat="49.0008" lon="7.89426">
        <ele>194.8</ele>
        <time>2024-08-25T13:45:49Z</time>
      </trkpt>
      <trkpt lat="49.00083" lon="7.89422">
        <ele>195</ele>
        <time>2024-08-25T13:45:50Z</time>
      </trkpt>
      <trkpt lat="49.00085" lon="7.89418">
        <ele>195</ele>
        <time>2024-08-25T13:45:51Z</time>
      </trkpt>
      <trkpt lat="49.00087" lon="7.89414">
        <ele>195.2</ele>
        <time>2024-08-25T13:45:52Z</time>
      </trkpt>
      <trkpt lat="49.0009" lon="7.8941">
        <ele>195.2</ele>
        <time>2024-08-25T13:45:53Z</time>
      </trkpt>
      <trkpt lat="49.00092" lon="7.89408">
        <ele>195.2</ele>
        <time>2024-08-25T13:45:54Z</time>
      </trkpt>
      <trkpt lat="49.00095" lon="7.89409">
        <ele>195.4</ele>
        <time>2024-08-25T13:45:55Z</time>
      </trkpt>
      <trkpt lat="49.00097" lon="7.89413">
        <ele>195.8</ele>
        <time>2024-08-25T13:45:56Z</time>
      </trkpt>
      <trkpt lat="49.00099" lon="7.89417">
        <ele>196.2</ele>
        <time>2024-08-25T13:45:57Z</time>
      </trkpt>
      <trkpt lat="49.00101" lon="7.89421">
        <ele>196.4</ele>
        <time>2024-08-25T13:45:58Z</time>
      </trkpt>
      <trkpt lat="49.00104" lon="7.89426">
        <ele>196.6</ele>
        <time>2024-08-25T13:45:59Z</time>
      </trkpt>
      <trkpt lat="49.00106" lon="7.89431">
        <ele>196.8</ele>
        <time>2024-08-25T13:46:00Z</time>
      </trkpt>
      <trkpt lat="49.00109" lon="7.89436">
        <ele>196.8</ele>
        <time>2024-08-25T13:46:01Z</time>
      </trkpt>
      <trkpt lat="49.00111" lon="7.8944">
        <ele>196.8</ele>
        <time>2024-08-25T13:46:02Z</time>
      </trkpt>
      <trkpt lat="49.00113" lon="7.89445">
        <ele>196.8</ele>
        <time>2024-08-25T13:46:03Z</time>
      </trkpt>
      <trkpt lat="49.00116" lon="7.89449">
        <ele>196.8</ele>
        <time>2024-08-25T13:46:04Z</time>
      </trkpt>
      <trkpt lat="49.00118" lon="7.89453">
        <ele>196.8</ele>
        <time>2024-08-25T13:46:05Z</time>
      </trkpt>
      <trkpt lat="49.00121" lon="7.89456">
        <ele>197</ele>
        <time>2024-08-25T13:46:06Z</time>
      </trkpt>
      <trkpt lat="49.00123" lon="7.8946">
        <ele>197.2</ele>
        <time>2024-08-25T13:46:07Z</time>
      </trkpt>
      <trkpt lat="49.00125" lon="7.89464">
        <ele>197.2</ele>
        <time>2024-08-25T13:46:08Z</time>
      </trkpt>
      <trkpt lat="49.00127" lon="7.89467">
        <ele>197.6</ele>
        <time>2024-08-25T13:46:09Z</time>
      </trkpt>
      <trkpt lat="49.00129" lon="7.8947">
        <ele>197.6</ele>
        <time>2024-08-25T13:46:10Z</time>
      </trkpt>
      <trkpt lat="49.00131" lon="7.89474">
        <ele>197.8</ele>
        <time>2024-08-25T13:46:11Z</time>
      </trkpt>
      <trkpt lat="49.00132" lon="7.89477">
        <ele>198</ele>
        <time>2024-08-25T13:46:12Z</time>
      </trkpt>
      <trkpt lat="49.00134" lon="7.89481">
        <ele>198.4</ele>
        <time>2024-08-25T13:46:13Z</time>
      </trkpt>
      <trkpt lat="49.00136" lon="7.89484">
        <ele>198.6</ele>
        <time>2024-08-25T13:46:14Z</time>
      </trkpt>
      <trkpt lat="49.00138" lon="7.89487">
        <ele>198.8</ele>
        <time>2024-08-25T13:46:15Z</time>
      </trkpt>
      <trkpt lat="49.00139" lon="7.8949">
        <ele>199.2</ele>
        <time>2024-08-25T13:46:16Z</time>
      </trkpt>
      <trkpt lat="49.00141" lon="7.89493">
        <ele>199.6</ele>
        <time>2024-08-25T13:46:17Z</time>
      </trkpt>
      <trkpt lat="49.00142" lon="7.89497">
        <ele>200</ele>
        <time>2024-08-25T13:46:18Z</time>
      </trkpt>
      <trkpt lat="49.00144" lon="7.895">
        <ele>200.4</ele>
        <time>2024-08-25T13:46:19Z</time>
      </trkpt>
      <trkpt lat="49.00146" lon="7.89503">
        <ele>200.8</ele>
        <time>2024-08-25T13:46:20Z</time>
      </trkpt>
      <trkpt lat="49.00147" lon="7.89506">
        <ele>201</ele>
        <time>2024-08-25T13:46:21Z</time>
      </trkpt>
      <trkpt lat="49.00149" lon="7.89509">
        <ele>201.4</ele>
        <time>2024-08-25T13:46:22Z</time>
      </trkpt>
      <trkpt lat="49.0015" lon="7.89512">
        <ele>201.6</ele>
        <time>2024-08-25T13:46:23Z</time>
      </trkpt>
      <trkpt lat="49.00152" lon="7.89514">
        <ele>202</ele>
        <time>2024-08-25T13:46:24Z</time>
      </trkpt>
      <trkpt lat="49.00155" lon="7.89513">
        <ele>202.4</ele>
        <time>2024-08-25T13:46:25Z</time>
      </trkpt>
      <trkpt lat="49.00157" lon="7.89511">
        <ele>202.8</ele>
        <time>2024-08-25T13:46:26Z</time>
      </trkpt>
      <trkpt lat="49.0016" lon="7.89509">
        <ele>203</ele>
        <time>2024-08-25T13:46:27Z</time>
      </trkpt>
      <trkpt lat="49.00162" lon="7.89505">
        <ele>203.2</ele>
        <time>2024-08-25T13:46:28Z</time>
      </trkpt>
      <trkpt lat="49.00164" lon="7.89503">
        <ele>203.4</ele>
        <time>2024-08-25T13:46:29Z</time>
      </trkpt>
      <trkpt lat="49.00167" lon="7.895">
        <ele>203.6</ele>
        <time>2024-08-25T13:46:30Z</time>
      </trkpt>
      <trkpt lat="49.00169" lon="7.89498">
        <ele>203.6</ele>
        <time>2024-08-25T13:46:31Z</time>
      </trkpt>
      <trkpt lat="49.00171" lon="7.89496">
        <ele>203.8</ele>
        <time>2024-08-25T13:46:32Z</time>
      </trkpt>
      <trkpt lat="49.00174" lon="7.89494">
        <ele>204</ele>
        <time>2024-08-25T13:46:33Z</time>
      </trkpt>
      <trkpt lat="49.00177" lon="7.89492">
        <ele>204.2</ele>
        <time>2024-08-25T13:46:34Z</time>
      </trkpt>
      <trkpt lat="49.00179" lon="7.89491">
        <ele>204.4</ele>
        <time>2024-08-25T13:46:35Z</time>
      </trkpt>
      <trkpt lat="49.00182" lon="7.89489">
        <ele>204.6</ele>
        <time>2024-08-25T13:46:36Z</time>
      </trkpt>
      <trkpt lat="49.00186" lon="7.89488">
        <ele>204.8</ele>
        <time>2024-08-25T13:46:37Z</time>
      </trkpt>
      <trkpt lat="49.00189" lon="7.89487">
        <ele>204.8</ele>
        <time>2024-08-25T13:46:38Z</time>
      </trkpt>
      <trkpt lat="49.00192" lon="7.89487">
        <ele>204.8</ele>
        <time>2024-08-25T13:46:39Z</time>
      </trkpt>
      <trkpt lat="49.00196" lon="7.89486">
        <ele>204.8</ele>
        <time>2024-08-25T13:46:40Z</time>
      </trkpt>
      <trkpt lat="49.00199" lon="7.89485">
        <ele>204.8</ele>
        <time>2024-08-25T13:46:41Z</time>
      </trkpt>
      <trkpt lat="49.00202" lon="7.89485">
        <ele>205</ele>
        <time>2024-08-25T13:46:42Z</time>
      </trkpt>
      <trkpt lat="49.00206" lon="7.89484">
        <ele>205</ele>
        <time>2024-08-25T13:46:43Z</time>
      </trkpt>
      <trkpt lat="49.00209" lon="7.89483">
        <ele>205</ele>
        <time>2024-08-25T13:46:44Z</time>
      </trkpt>
      <trkpt lat="49.00213" lon="7.89482">
        <ele>205</ele>
        <time>2024-08-25T13:46:45Z</time>
      </trkpt>
      <trkpt lat="49.00216" lon="7.89482">
        <ele>205</ele>
        <time>2024-08-25T13:46:46Z</time>
      </trkpt>
      <trkpt lat="49.00219" lon="7.89481">
        <ele>205.2</ele>
        <time>2024-08-25T13:46:47Z</time>
      </trkpt>
      <trkpt lat="49.00223" lon="7.8948">
        <ele>205.2</ele>
        <time>2024-08-25T13:46:48Z</time>
      </trkpt>
      <trkpt lat="49.00226" lon="7.89479">
        <ele>205.2</ele>
        <time>2024-08-25T13:46:49Z</time>
      </trkpt>
      <trkpt lat="49.00229" lon="7.89477">
        <ele>205.2</ele>
        <time>2024-08-25T13:46:50Z</time>
      </trkpt>
      <trkpt lat="49.00232" lon="7.89475">
        <ele>205.2</ele>
        <time>2024-08-25T13:46:51Z</time>
      </trkpt>
      <trkpt lat="49.00236" lon="7.89471">
        <ele>205.2</ele>
        <time>2024-08-25T13:46:52Z</time>
      </trkpt>
      <trkpt lat="49.0024" lon="7.89468">
        <ele>205</ele>
        <time>2024-08-25T13:46:53Z</time>
      </trkpt>
      <trkpt lat="49.00244" lon="7.89464">
        <ele>205</ele>
        <time>2024-08-25T13:46:54Z</time>
      </trkpt>
      <trkpt lat="49.00248" lon="7.89461">
        <ele>204.8</ele>
        <time>2024-08-25T13:46:55Z</time>
      </trkpt>
      <trkpt lat="49.00253" lon="7.89456">
        <ele>204.8</ele>
        <time>2024-08-25T13:46:56Z</time>
      </trkpt>
      <trkpt lat="49.00258" lon="7.89451">
        <ele>204.2</ele>
        <time>2024-08-25T13:46:57Z</time>
      </trkpt>
      <trkpt lat="49.00262" lon="7.89447">
        <ele>203.6</ele>
        <time>2024-08-25T13:46:58Z</time>
      </trkpt>
      <trkpt lat="49.00266" lon="7.89444">
        <ele>203.4</ele>
        <time>2024-08-25T13:46:59Z</time>
      </trkpt>
      <trkpt lat="49.00269" lon="7.89441">
        <ele>203.2</ele>
        <time>2024-08-25T13:47:00Z</time>
      </trkpt>
      <trkpt lat="49.00271" lon="7.89439">
        <ele>203</ele>
        <time>2024-08-25T13:47:01Z</time>
      </trkpt>
      <trkpt lat="49.00274" lon="7.89437">
        <ele>202.8</ele>
        <time>2024-08-25T13:47:02Z</time>
      </trkpt>
      <trkpt lat="49.00276" lon="7.89433">
        <ele>202.8</ele>
        <time>2024-08-25T13:47:03Z</time>
      </trkpt>
      <trkpt lat="49.00276" lon="7.89428">
        <ele>202.8</ele>
        <time>2024-08-25T13:47:04Z</time>
      </trkpt>
      <trkpt lat="49.00276" lon="7.89422">
        <ele>202.8</ele>
        <time>2024-08-25T13:47:05Z</time>
      </trkpt>
      <trkpt lat="49.00275" lon="7.89417">
        <ele>202.8</ele>
        <time>2024-08-25T13:47:06Z</time>
      </trkpt>
      <trkpt lat="49.00274" lon="7.89411">
        <ele>202.8</ele>
        <time>2024-08-25T13:47:07Z</time>
      </trkpt>
      <trkpt lat="49.00273" lon="7.89405">
        <ele>202.6</ele>
        <time>2024-08-25T13:47:08Z</time>
      </trkpt>
      <trkpt lat="49.00271" lon="7.894">
        <ele>202.6</ele>
        <time>2024-08-25T13:47:09Z</time>
      </trkpt>
      <trkpt lat="49.00271" lon="7.89394">
        <ele>202.6</ele>
        <time>2024-08-25T13:47:10Z</time>
      </trkpt>
      <trkpt lat="49.0027" lon="7.89388">
        <ele>202.4</ele>
        <time>2024-08-25T13:47:11Z</time>
      </trkpt>
      <trkpt lat="49.00272" lon="7.89383">
        <ele>202.4</ele>
        <time>2024-08-25T13:47:12Z</time>
      </trkpt>
      <trkpt lat="49.00274" lon="7.89381">
        <ele>202.4</ele>
        <time>2024-08-25T13:47:13Z</time>
      </trkpt>
      <trkpt lat="49.00277" lon="7.89379">
        <ele>202.4</ele>
        <time>2024-08-25T13:47:14Z</time>
      </trkpt>
      <trkpt lat="49.00279" lon="7.8938">
        <ele>202.4</ele>
        <time>2024-08-25T13:47:15Z</time>
      </trkpt>
      <trkpt lat="49.00281" lon="7.89383">
        <ele>202.4</ele>
        <time>2024-08-25T13:47:16Z</time>
      </trkpt>
      <trkpt lat="49.00283" lon="7.89386">
        <ele>202.4</ele>
        <time>2024-08-25T13:47:17Z</time>
      </trkpt>
      <trkpt lat="49.00285" lon="7.8939">
        <ele>202.6</ele>
        <time>2024-08-25T13:47:18Z</time>
      </trkpt>
      <trkpt lat="49.00286" lon="7.89394">
        <ele>202.8</ele>
        <time>2024-08-25T13:47:19Z</time>
      </trkpt>
      <trkpt lat="49.00288" lon="7.89397">
        <ele>203</ele>
        <time>2024-08-25T13:47:20Z</time>
      </trkpt>
      <trkpt lat="49.0029" lon="7.89401">
        <ele>203</ele>
        <time>2024-08-25T13:47:21Z</time>
      </trkpt>
      <trkpt lat="49.00292" lon="7.89404">
        <ele>203</ele>
        <time>2024-08-25T13:47:22Z</time>
      </trkpt>
      <trkpt lat="49.00294" lon="7.89408">
        <ele>203.2</ele>
        <time>2024-08-25T13:47:23Z</time>
      </trkpt>
      <trkpt lat="49.00296" lon="7.89411">
        <ele>203.4</ele>
        <time>2024-08-25T13:47:24Z</time>
      </trkpt>
      <trkpt lat="49.00298" lon="7.89414">
        <ele>203.6</ele>
        <time>2024-08-25T13:47:25Z</time>
      </trkpt>
      <trkpt lat="49.003" lon="7.89418">
        <ele>203.8</ele>
        <time>2024-08-25T13:47:26Z</time>
      </trkpt>
      <trkpt lat="49.00302" lon="7.89422">
        <ele>203.8</ele>
        <time>2024-08-25T13:47:27Z</time>
      </trkpt>
      <trkpt lat="49.00304" lon="7.89425">
        <ele>204</ele>
        <time>2024-08-25T13:47:28Z</time>
      </trkpt>
      <trkpt lat="49.00306" lon="7.89429">
        <ele>204</ele>
        <time>2024-08-25T13:47:29Z</time>
      </trkpt>
      <trkpt lat="49.00308" lon="7.89433">
        <ele>204.2</ele>
        <time>2024-08-25T13:47:30Z</time>
      </trkpt>
      <trkpt lat="49.0031" lon="7.89436">
        <ele>204.2</ele>
        <time>2024-08-25T13:47:31Z</time>
      </trkpt>
      <trkpt lat="49.00312" lon="7.89439">
        <ele>204.4</ele>
        <time>2024-08-25T13:47:32Z</time>
      </trkpt>
      <trkpt lat="49.00314" lon="7.89443">
        <ele>204.6</ele>
        <time>2024-08-25T13:47:33Z</time>
      </trkpt>
      <trkpt lat="49.00315" lon="7.89447">
        <ele>204.8</ele>
        <time>2024-08-25T13:47:34Z</time>
      </trkpt>
      <trkpt lat="49.00317" lon="7.89451">
        <ele>205</ele>
        <time>2024-08-25T13:47:35Z</time>
      </trkpt>
      <trkpt lat="49.00319" lon="7.89455">
        <ele>205.2</ele>
        <time>2024-08-25T13:47:36Z</time>
      </trkpt>
      <trkpt lat="49.00322" lon="7.89458">
        <ele>205.4</ele>
        <time>2024-08-25T13:47:37Z</time>
      </trkpt>
      <trkpt lat="49.00324" lon="7.89461">
        <ele>205.6</ele>
        <time>2024-08-25T13:47:38Z</time>
      </trkpt>
      <trkpt lat="49.00326" lon="7.89465">
        <ele>205.6</ele>
        <time>2024-08-25T13:47:39Z</time>
      </trkpt>
      <trkpt lat="49.00328" lon="7.89467">
        <ele>205.8</ele>
        <time>2024-08-25T13:47:40Z</time>
      </trkpt>
      <trkpt lat="49.00331" lon="7.8947">
        <ele>206</ele>
        <time>2024-08-25T13:47:41Z</time>
      </trkpt>
      <trkpt lat="49.00333" lon="7.89473">
        <ele>206.2</ele>
        <time>2024-08-25T13:47:42Z</time>
      </trkpt>
      <trkpt lat="49.00336" lon="7.89477">
        <ele>206.2</ele>
        <time>2024-08-25T13:47:43Z</time>
      </trkpt>
      <trkpt lat="49.00338" lon="7.89479">
        <ele>206.4</ele>
        <time>2024-08-25T13:47:44Z</time>
      </trkpt>
      <trkpt lat="49.00341" lon="7.89482">
        <ele>206.8</ele>
        <time>2024-08-25T13:47:45Z</time>
      </trkpt>
      <trkpt lat="49.00343" lon="7.89485">
        <ele>207</ele>
        <time>2024-08-25T13:47:46Z</time>
      </trkpt>
      <trkpt lat="49.00346" lon="7.89488">
        <ele>207.4</ele>
        <time>2024-08-25T13:47:47Z</time>
      </trkpt>
      <trkpt lat="49.00348" lon="7.89491">
        <ele>207.4</ele>
        <time>2024-08-25T13:47:48Z</time>
      </trkpt>
      <trkpt lat="49.0035" lon="7.89493">
        <ele>208</ele>
        <time>2024-08-25T13:47:49Z</time>
      </trkpt>
      <trkpt lat="49.00353" lon="7.89496">
        <ele>208</ele>
        <time>2024-08-25T13:47:50Z</time>
      </trkpt>
      <trkpt lat="49.00355" lon="7.89499">
        <ele>208</ele>
        <time>2024-08-25T13:47:51Z</time>
      </trkpt>
      <trkpt lat="49.00358" lon="7.89502">
        <ele>208</ele>
        <time>2024-08-25T13:47:52Z</time>
      </trkpt>
      <trkpt lat="49.0036" lon="7.89505">
        <ele>208.2</ele>
        <time>2024-08-25T13:47:53Z</time>
      </trkpt>
      <trkpt lat="49.00362" lon="7.89508">
        <ele>208.4</ele>
        <time>2024-08-25T13:47:54Z</time>
      </trkpt>
      <trkpt lat="49.00364" lon="7.89512">
        <ele>208.6</ele>
        <time>2024-08-25T13:47:55Z</time>
      </trkpt>
      <trkpt lat="49.00366" lon="7.89515">
        <ele>208.8</ele>
        <time>2024-08-25T13:47:56Z</time>
      </trkpt>
      <trkpt lat="49.00368" lon="7.89519">
        <ele>208.8</ele>
        <time>2024-08-25T13:47:57Z</time>
      </trkpt>
      <trkpt lat="49.0037" lon="7.89523">
        <ele>209.2</ele>
        <time>2024-08-25T13:47:58Z</time>
      </trkpt>
      <trkpt lat="49.00372" lon="7.89526">
        <ele>209.4</ele>
        <time>2024-08-25T13:47:59Z</time>
      </trkpt>
      <trkpt lat="49.00374" lon="7.89529">
        <ele>209.6</ele>
        <time>2024-08-25T13:48:00Z</time>
      </trkpt>
      <trkpt lat="49.00376" lon="7.89533">
        <ele>209.8</ele>
        <time>2024-08-25T13:48:01Z</time>
      </trkpt>
      <trkpt lat="49.00378" lon="7.89536">
        <ele>210</ele>
        <time>2024-08-25T13:48:02Z</time>
      </trkpt>
      <trkpt lat="49.0038" lon="7.8954">
        <ele>210.4</ele>
        <time>2024-08-25T13:48:03Z</time>
      </trkpt>
      <trkpt lat="49.00382" lon="7.89543">
        <ele>210.6</ele>
        <time>2024-08-25T13:48:04Z</time>
      </trkpt>
      <trkpt lat="49.00384" lon="7.89547">
        <ele>211</ele>
        <time>2024-08-25T13:48:05Z</time>
      </trkpt>
      <trkpt lat="49.00385" lon="7.8955">
        <ele>211.4</ele>
        <time>2024-08-25T13:48:06Z</time>
      </trkpt>
      <trkpt lat="49.00387" lon="7.89554">
        <ele>211.8</ele>
        <time>2024-08-25T13:48:07Z</time>
      </trkpt>
      <trkpt lat="49.00389" lon="7.89558">
        <ele>212</ele>
        <time>2024-08-25T13:48:08Z</time>
      </trkpt>
      <trkpt lat="49.00391" lon="7.89562">
        <ele>212.4</ele>
        <time>2024-08-25T13:48:09Z</time>
      </trkpt>
      <trkpt lat="49.00392" lon="7.89566">
        <ele>212.6</ele>
        <time>2024-08-25T13:48:10Z</time>
      </trkpt>
      <trkpt lat="49.00394" lon="7.89569">
        <ele>213</ele>
        <time>2024-08-25T13:48:11Z</time>
      </trkpt>
      <trkpt lat="49.00396" lon="7.89573">
        <ele>213.2</ele>
        <time>2024-08-25T13:48:12Z</time>
      </trkpt>
      <trkpt lat="49.00398" lon="7.89577">
        <ele>213.6</ele>
        <time>2024-08-25T13:48:13Z</time>
      </trkpt>
      <trkpt lat="49.00399" lon="7.89581">
        <ele>213.8</ele>
        <time>2024-08-25T13:48:14Z</time>
      </trkpt>
      <trkpt lat="49.00401" lon="7.89585">
        <ele>214.2</ele>
        <time>2024-08-25T13:48:15Z</time>
      </trkpt>
      <trkpt lat="49.00404" lon="7.89588">
        <ele>214.4</ele>
        <time>2024-08-25T13:48:16Z</time>
      </trkpt>
      <trkpt lat="49.00406" lon="7.89591">
        <ele>214.8</ele>
        <time>2024-08-25T13:48:17Z</time>
      </trkpt>
      <trkpt lat="49.00408" lon="7.89594">
        <ele>215</ele>
        <time>2024-08-25T13:48:18Z</time>
      </trkpt>
      <trkpt lat="49.0041" lon="7.89597">
        <ele>215.4</ele>
        <time>2024-08-25T13:48:19Z</time>
      </trkpt>
      <trkpt lat="49.00411" lon="7.89601">
        <ele>215.6</ele>
        <time>2024-08-25T13:48:20Z</time>
      </trkpt>
      <trkpt lat="49.00413" lon="7.89605">
        <ele>216</ele>
        <time>2024-08-25T13:48:21Z</time>
      </trkpt>
      <trkpt lat="49.00414" lon="7.89608">
        <ele>216.2</ele>
        <time>2024-08-25T13:48:22Z</time>
      </trkpt>
      <trkpt lat="49.00416" lon="7.89611">
        <ele>216.4</ele>
        <time>2024-08-25T13:48:23Z</time>
      </trkpt>
      <trkpt lat="49.00418" lon="7.89615">
        <ele>216.8</ele>
        <time>2024-08-25T13:48:24Z</time>
      </trkpt>
      <trkpt lat="49.0042" lon="7.89618">
        <ele>217</ele>
        <time>2024-08-25T13:48:25Z</time>
      </trkpt>
      <trkpt lat="49.00421" lon="7.89621">
        <ele>217.4</ele>
        <time>2024-08-25T13:48:26Z</time>
      </trkpt>
      <trkpt lat="49.00423" lon="7.89624">
        <ele>217.6</ele>
        <time>2024-08-25T13:48:27Z</time>
      </trkpt>
      <trkpt lat="49.00425" lon="7.89627">
        <ele>217.8</ele>
        <time>2024-08-25T13:48:28Z</time>
      </trkpt>
      <trkpt lat="49.00427" lon="7.8963">
        <ele>218.2</ele>
        <time>2024-08-25T13:48:29Z</time>
      </trkpt>
      <trkpt lat="49.00429" lon="7.89632">
        <ele>218.4</ele>
        <time>2024-08-25T13:48:30Z</time>
      </trkpt>
      <trkpt lat="49.00431" lon="7.89635">
        <ele>218.8</ele>
        <time>2024-08-25T13:48:31Z</time>
      </trkpt>
      <trkpt lat="49.00433" lon="7.89637">
        <ele>219</ele>
        <time>2024-08-25T13:48:32Z</time>
      </trkpt>
      <trkpt lat="49.00435" lon="7.8964">
        <ele>219.4</ele>
        <time>2024-08-25T13:48:33Z</time>
      </trkpt>
      <trkpt lat="49.00438" lon="7.89642">
        <ele>219.8</ele>
        <time>2024-08-25T13:48:34Z</time>
      </trkpt>
      <trkpt lat="49.0044" lon="7.89644">
        <ele>220</ele>
        <time>2024-08-25T13:48:35Z</time>
      </trkpt>
      <trkpt lat="49.00442" lon="7.89647">
        <ele>220.4</ele>
        <time>2024-08-25T13:48:36Z</time>
      </trkpt>
      <trkpt lat="49.00444" lon="7.89649">
        <ele>220.6</ele>
        <time>2024-08-25T13:48:37Z</time>
      </trkpt>
      <trkpt lat="49.00446" lon="7.89651">
        <ele>221</ele>
        <time>2024-08-25T13:48:38Z</time>
      </trkpt>
      <trkpt lat="49.00447" lon="7.89653">
        <ele>221.2</ele>
        <time>2024-08-25T13:48:39Z</time>
      </trkpt>
      <trkpt lat="49.00449" lon="7.89657">
        <ele>221.6</ele>
        <time>2024-08-25T13:48:40Z</time>
      </trkpt>
      <trkpt lat="49.00451" lon="7.89657">
        <ele>222</ele>
        <time>2024-08-25T13:48:41Z</time>
      </trkpt>
      <trkpt lat="49.00451" lon="7.89654">
        <ele>222</ele>
        <time>2024-08-25T13:48:42Z</time>
      </trkpt>
      <trkpt lat="49.0045" lon="7.89651">
        <ele>222.4</ele>
        <time>2024-08-25T13:48:43Z</time>
      </trkpt>
      <trkpt lat="49.00448" lon="7.89649">
        <ele>222.8</ele>
        <time>2024-08-25T13:48:44Z</time>
      </trkpt>
      <trkpt lat="49.00447" lon="7.89647">
        <ele>222.8</ele>
        <time>2024-08-25T13:48:45Z</time>
      </trkpt>
      <trkpt lat="49.00446" lon="7.89646">
        <ele>222.8</ele>
        <time>2024-08-25T13:48:46Z</time>
      </trkpt>
      <trkpt lat="49.00444" lon="7.89646">
        <ele>222.8</ele>
        <time>2024-08-25T13:48:47Z</time>
      </trkpt>
      <trkpt lat="49.00443" lon="7.89649">
        <ele>222.4</ele>
        <time>2024-08-25T13:48:48Z</time>
      </trkpt>
      <trkpt lat="49.00444" lon="7.8965">
        <ele>222.2</ele>
        <time>2024-08-25T13:48:49Z</time>
      </trkpt>
      <trkpt lat="49.00444" lon="7.8965">
        <ele>222.2</ele>
        <time>2024-08-25T13:48:50Z</time>
      </trkpt>
      <trkpt lat="49.00445" lon="7.8965">
        <ele>222.2</ele>
        <time>2024-08-25T13:48:51Z</time>
      </trkpt>
      <trkpt lat="49.00449" lon="7.89653">
        <ele>222.2</ele>
        <time>2024-08-25T13:49:13Z</time>
      </trkpt>
      <trkpt lat="49.00451" lon="7.89654">
        <ele>222.4</ele>
        <time>2024-08-25T13:49:14Z</time>
      </trkpt>
      <trkpt lat="49.00452" lon="7.89655">
        <ele>222.6</ele>
        <time>2024-08-25T13:49:15Z</time>
      </trkpt>
      <trkpt lat="49.00454" lon="7.89657">
        <ele>222.6</ele>
        <time>2024-08-25T13:49:16Z</time>
      </trkpt>
      <trkpt lat="49.00456" lon="7.89659">
        <ele>222.6</ele>
        <time>2024-08-25T13:49:17Z</time>
      </trkpt>
      <trkpt lat="49.00457" lon="7.89661">
        <ele>222.6</ele>
        <time>2024-08-25T13:49:18Z</time>
      </trkpt>
      <trkpt lat="49.00459" lon="7.89663">
        <ele>222.8</ele>
        <time>2024-08-25T13:49:19Z</time>
      </trkpt>
      <trkpt lat="49.0046" lon="7.89665">
        <ele>222.8</ele>
        <time>2024-08-25T13:49:20Z</time>
      </trkpt>
      <trkpt lat="49.00462" lon="7.89667">
        <ele>223</ele>
        <time>2024-08-25T13:49:21Z</time>
      </trkpt>
      <trkpt lat="49.00463" lon="7.89669">
        <ele>223.2</ele>
        <time>2024-08-25T13:49:22Z</time>
      </trkpt>
      <trkpt lat="49.00465" lon="7.89672">
        <ele>223.4</ele>
        <time>2024-08-25T13:49:23Z</time>
      </trkpt>
      <trkpt lat="49.00466" lon="7.89674">
        <ele>223.6</ele>
        <time>2024-08-25T13:49:24Z</time>
      </trkpt>
      <trkpt lat="49.00468" lon="7.89676">
        <ele>223.8</ele>
        <time>2024-08-25T13:49:25Z</time>
      </trkpt>
      <trkpt lat="49.0047" lon="7.89678">
        <ele>224</ele>
        <time>2024-08-25T13:49:26Z</time>
      </trkpt>
      <trkpt lat="49.00471" lon="7.89679">
        <ele>224.2</ele>
        <time>2024-08-25T13:49:27Z</time>
      </trkpt>
      <trkpt lat="49.00472" lon="7.89682">
        <ele>224.6</ele>
        <time>2024-08-25T13:49:28Z</time>
      </trkpt>
      <trkpt lat="49.00474" lon="7.89684">
        <ele>224.8</ele>
        <time>2024-08-25T13:49:29Z</time>
      </trkpt>
      <trkpt lat="49.00475" lon="7.89686">
        <ele>225.2</ele>
        <time>2024-08-25T13:49:30Z</time>
      </trkpt>
      <trkpt lat="49.00477" lon="7.89687">
        <ele>225.4</ele>
        <time>2024-08-25T13:49:31Z</time>
      </trkpt>
      <trkpt lat="49.00479" lon="7.89689">
        <ele>225.8</ele>
        <time>2024-08-25T13:49:32Z</time>
      </trkpt>
      <trkpt lat="49.0048" lon="7.89691">
        <ele>226.2</ele>
        <time>2024-08-25T13:49:33Z</time>
      </trkpt>
      <trkpt lat="49.00482" lon="7.89693">
        <ele>226.4</ele>
        <time>2024-08-25T13:49:34Z</time>
      </trkpt>
      <trkpt lat="49.00484" lon="7.89696">
        <ele>226.8</ele>
        <time>2024-08-25T13:49:35Z</time>
      </trkpt>
      <trkpt lat="49.00485" lon="7.89698">
        <ele>227.2</ele>
        <time>2024-08-25T13:49:36Z</time>
      </trkpt>
      <trkpt lat="49.00487" lon="7.89701">
        <ele>227.6</ele>
        <time>2024-08-25T13:49:37Z</time>
      </trkpt>
      <trkpt lat="49.00488" lon="7.89703">
        <ele>228</ele>
        <time>2024-08-25T13:49:38Z</time>
      </trkpt>
      <trkpt lat="49.0049" lon="7.89704">
        <ele>228.2</ele>
        <time>2024-08-25T13:49:39Z</time>
      </trkpt>
      <trkpt lat="49.00492" lon="7.89706">
        <ele>228.4</ele>
        <time>2024-08-25T13:49:40Z</time>
      </trkpt>
      <trkpt lat="49.00494" lon="7.89708">
        <ele>228.8</ele>
        <time>2024-08-25T13:49:41Z</time>
      </trkpt>
      <trkpt lat="49.00495" lon="7.89711">
        <ele>229</ele>
        <time>2024-08-25T13:49:42Z</time>
      </trkpt>
      <trkpt lat="49.00497" lon="7.89714">
        <ele>229.2</ele>
        <time>2024-08-25T13:49:43Z</time>
      </trkpt>
      <trkpt lat="49.00498" lon="7.89716">
        <ele>229.4</ele>
        <time>2024-08-25T13:49:44Z</time>
      </trkpt>
      <trkpt lat="49.005" lon="7.89719">
        <ele>229.8</ele>
        <time>2024-08-25T13:49:45Z</time>
      </trkpt>
      <trkpt lat="49.00502" lon="7.89721">
        <ele>229.8</ele>
        <time>2024-08-25T13:49:46Z</time>
      </trkpt>
      <trkpt lat="49.00503" lon="7.89722">
        <ele>230.2</ele>
        <time>2024-08-25T13:49:47Z</time>
      </trkpt>
      <trkpt lat="49.00505" lon="7.89724">
        <ele>230.4</ele>
        <time>2024-08-25T13:49:48Z</time>
      </trkpt>
      <trkpt lat="49.00506" lon="7.89727">
        <ele>230.6</ele>
        <time>2024-08-25T13:49:49Z</time>
      </trkpt>
      <trkpt lat="49.00508" lon="7.89729">
        <ele>231</ele>
        <time>2024-08-25T13:49:50Z</time>
      </trkpt>
      <trkpt lat="49.00509" lon="7.89732">
        <ele>231.2</ele>
        <time>2024-08-25T13:49:51Z</time>
      </trkpt>
      <trkpt lat="49.00511" lon="7.89734">
        <ele>231.4</ele>
        <time>2024-08-25T13:49:52Z</time>
      </trkpt>
      <trkpt lat="49.00512" lon="7.89735">
        <ele>231.6</ele>
        <time>2024-08-25T13:49:53Z</time>
      </trkpt>
      <trkpt lat="49.00514" lon="7.89737">
        <ele>231.8</ele>
        <time>2024-08-25T13:49:54Z</time>
      </trkpt>
      <trkpt lat="49.00515" lon="7.89739">
        <ele>232</ele>
        <time>2024-08-25T13:49:55Z</time>
      </trkpt>
      <trkpt lat="49.00517" lon="7.89742">
        <ele>232.2</ele>
        <time>2024-08-25T13:49:56Z</time>
      </trkpt>
      <trkpt lat="49.00518" lon="7.89745">
        <ele>232.4</ele>
        <time>2024-08-25T13:49:57Z</time>
      </trkpt>
      <trkpt lat="49.0052" lon="7.89747">
        <ele>232.6</ele>
        <time>2024-08-25T13:49:58Z</time>
      </trkpt>
      <trkpt lat="49.00521" lon="7.89749">
        <ele>232.8</ele>
        <time>2024-08-25T13:49:59Z</time>
      </trkpt>
      <trkpt lat="49.00523" lon="7.89751">
        <ele>233</ele>
        <time>2024-08-25T13:50:00Z</time>
      </trkpt>
      <trkpt lat="49.00525" lon="7.89753">
        <ele>233.2</ele>
        <time>2024-08-25T13:50:01Z</time>
      </trkpt>
      <trkpt lat="49.00527" lon="7.89755">
        <ele>233.6</ele>
        <time>2024-08-25T13:50:02Z</time>
      </trkpt>
      <trkpt lat="49.00528" lon="7.89758">
        <ele>233.8</ele>
        <time>2024-08-25T13:50:03Z</time>
      </trkpt>
      <trkpt lat="49.0053" lon="7.89761">
        <ele>234</ele>
        <time>2024-08-25T13:50:04Z</time>
      </trkpt>
      <trkpt lat="49.00531" lon="7.89763">
        <ele>234.2</ele>
        <time>2024-08-25T13:50:05Z</time>
      </trkpt>
      <trkpt lat="49.00533" lon="7.89766">
        <ele>234.4</ele>
        <time>2024-08-25T13:50:06Z</time>
      </trkpt>
      <trkpt lat="49.00534" lon="7.89769">
        <ele>234.8</ele>
        <time>2024-08-25T13:50:07Z</time>
      </trkpt>
      <trkpt lat="49.00536" lon="7.89772">
        <ele>235</ele>
        <time>2024-08-25T13:50:08Z</time>
      </trkpt>
      <trkpt lat="49.00537" lon="7.89775">
        <ele>235</ele>
        <time>2024-08-25T13:50:09Z</time>
      </trkpt>
      <trkpt lat="49.00538" lon="7.89779">
        <ele>235.2</ele>
        <time>2024-08-25T13:50:10Z</time>
      </trkpt>
      <trkpt lat="49.0054" lon="7.89781">
        <ele>235.4</ele>
        <time>2024-08-25T13:50:11Z</time>
      </trkpt>
      <trkpt lat="49.00542" lon="7.89784">
        <ele>235.6</ele>
        <time>2024-08-25T13:50:12Z</time>
      </trkpt>
      <trkpt lat="49.00544" lon="7.89786">
        <ele>235.8</ele>
        <time>2024-08-25T13:50:13Z</time>
      </trkpt>
      <trkpt lat="49.00545" lon="7.89789">
        <ele>236</ele>
        <time>2024-08-25T13:50:14Z</time>
      </trkpt>
      <trkpt lat="49.00547" lon="7.89792">
        <ele>236.4</ele>
        <time>2024-08-25T13:50:15Z</time>
      </trkpt>
      <trkpt lat="49.00549" lon="7.89795">
        <ele>236.6</ele>
        <time>2024-08-25T13:50:16Z</time>
      </trkpt>
      <trkpt lat="49.0055" lon="7.89799">
        <ele>236.8</ele>
        <time>2024-08-25T13:50:17Z</time>
      </trkpt>
      <trkpt lat="49.00552" lon="7.89802">
        <ele>237</ele>
        <time>2024-08-25T13:50:18Z</time>
      </trkpt>
      <trkpt lat="49.00553" lon="7.89805">
        <ele>237.2</ele>
        <time>2024-08-25T13:50:19Z</time>
      </trkpt>
      <trkpt lat="49.00554" lon="7.89807">
        <ele>237.4</ele>
        <time>2024-08-25T13:50:20Z</time>
      </trkpt>
      <trkpt lat="49.00555" lon="7.8981">
        <ele>237.6</ele>
        <time>2024-08-25T13:50:21Z</time>
      </trkpt>
      <trkpt lat="49.00557" lon="7.89812">
        <ele>237.6</ele>
        <time>2024-08-25T13:50:22Z</time>
      </trkpt>
      <trkpt lat="49.00558" lon="7.89814">
        <ele>237.8</ele>
        <time>2024-08-25T13:50:23Z</time>
      </trkpt>
      <trkpt lat="49.0056" lon="7.89815">
        <ele>238</ele>
        <time>2024-08-25T13:50:24Z</time>
      </trkpt>
      <trkpt lat="49.00562" lon="7.89815">
        <ele>238.2</ele>
        <time>2024-08-25T13:50:25Z</time>
      </trkpt>
      <trkpt lat="49.00563" lon="7.89815">
        <ele>238.4</ele>
        <time>2024-08-25T13:50:26Z</time>
      </trkpt>
      <trkpt lat="49.00563" lon="7.89816">
        <ele>238.6</ele>
        <time>2024-08-25T13:50:27Z</time>
      </trkpt>
      <trkpt lat="49.00563" lon="7.89815">
        <ele>238.6</ele>
        <time>2024-08-25T13:50:28Z</time>
      </trkpt>
      <trkpt lat="49.00568" lon="7.89811">
        <ele>238.2</ele>
        <time>2024-08-25T13:50:41Z</time>
      </trkpt>
      <trkpt lat="49.0057" lon="7.8981">
        <ele>238.2</ele>
        <time>2024-08-25T13:50:42Z</time>
      </trkpt>
      <trkpt lat="49.00572" lon="7.89808">
        <ele>238.2</ele>
        <time>2024-08-25T13:50:43Z</time>
      </trkpt>
      <trkpt lat="49.00575" lon="7.89807">
        <ele>238.2</ele>
        <time>2024-08-25T13:50:44Z</time>
      </trkpt>
      <trkpt lat="49.00577" lon="7.89804">
        <ele>238</ele>
        <time>2024-08-25T13:50:45Z</time>
      </trkpt>
      <trkpt lat="49.0058" lon="7.89802">
        <ele>237.8</ele>
        <time>2024-08-25T13:50:46Z</time>
      </trkpt>
      <trkpt lat="49.00583" lon="7.898">
        <ele>237.8</ele>
        <time>2024-08-25T13:50:47Z</time>
      </trkpt>
      <trkpt lat="49.00587" lon="7.89798">
        <ele>237.6</ele>
        <time>2024-08-25T13:50:48Z</time>
      </trkpt>
      <trkpt lat="49.0059" lon="7.89795">
        <ele>237.6</ele>
        <time>2024-08-25T13:50:49Z</time>
      </trkpt>
      <trkpt lat="49.00594" lon="7.89791">
        <ele>237.4</ele>
        <time>2024-08-25T13:50:50Z</time>
      </trkpt>
      <trkpt lat="49.00598" lon="7.89788">
        <ele>237.2</ele>
        <time>2024-08-25T13:50:51Z</time>
      </trkpt>
      <trkpt lat="49.00602" lon="7.89785">
        <ele>237.2</ele>
        <time>2024-08-25T13:50:52Z</time>
      </trkpt>
      <trkpt lat="49.00605" lon="7.89783">
        <ele>237</ele>
        <time>2024-08-25T13:50:53Z</time>
      </trkpt>
      <trkpt lat="49.00609" lon="7.8978">
        <ele>236.8</ele>
        <time>2024-08-25T13:50:54Z</time>
      </trkpt>
      <trkpt lat="49.00613" lon="7.89777">
        <ele>236.8</ele>
        <time>2024-08-25T13:50:55Z</time>
      </trkpt>
      <trkpt lat="49.00617" lon="7.89774">
        <ele>236.8</ele>
        <time>2024-08-25T13:50:56Z</time>
      </trkpt>
      <trkpt lat="49.0062" lon="7.89771">
        <ele>236.8</ele>
        <time>2024-08-25T13:50:57Z</time>
      </trkpt>
      <trkpt lat="49.00625" lon="7.89768">
        <ele>236.8</ele>
        <time>2024-08-25T13:50:58Z</time>
      </trkpt>
      <trkpt lat="49.00629" lon="7.89764">
        <ele>236.8</ele>
        <time>2024-08-25T13:50:59Z</time>
      </trkpt>
      <trkpt lat="49.00633" lon="7.8976">
        <ele>236.8</ele>
        <time>2024-08-25T13:51:00Z</time>
      </trkpt>
      <trkpt lat="49.00637" lon="7.89755">
        <ele>236.8</ele>
        <time>2024-08-25T13:51:01Z</time>
      </trkpt>
      <trkpt lat="49.00641" lon="7.8975">
        <ele>236.8</ele>
        <time>2024-08-25T13:51:02Z</time>
      </trkpt>
      <trkpt lat="49.00645" lon="7.89746">
        <ele>236.6</ele>
        <time>2024-08-25T13:51:03Z</time>
      </trkpt>
      <trkpt lat="49.00649" lon="7.89741">
        <ele>236.6</ele>
        <time>2024-08-25T13:51:04Z</time>
      </trkpt>
      <trkpt lat="49.00653" lon="7.89736">
        <ele>236.4</ele>
        <time>2024-08-25T13:51:05Z</time>
      </trkpt>
      <trkpt lat="49.00656" lon="7.89729">
        <ele>236.4</ele>
        <time>2024-08-25T13:51:06Z</time>
      </trkpt>
      <trkpt lat="49.00659" lon="7.89724">
        <ele>236.4</ele>
        <time>2024-08-25T13:51:07Z</time>
      </trkpt>
      <trkpt lat="49.00662" lon="7.89718">
        <ele>236.4</ele>
        <time>2024-08-25T13:51:08Z</time>
      </trkpt>
      <trkpt lat="49.00664" lon="7.89711">
        <ele>236.4</ele>
        <time>2024-08-25T13:51:09Z</time>
      </trkpt>
      <trkpt lat="49.00667" lon="7.89705">
        <ele>236.4</ele>
        <time>2024-08-25T13:51:10Z</time>
      </trkpt>
      <trkpt lat="49.0067" lon="7.89699">
        <ele>236.6</ele>
        <time>2024-08-25T13:51:11Z</time>
      </trkpt>
      <trkpt lat="49.00673" lon="7.89693">
        <ele>236.6</ele>
        <time>2024-08-25T13:51:12Z</time>
      </trkpt>
      <trkpt lat="49.00676" lon="7.89687">
        <ele>236.6</ele>
        <time>2024-08-25T13:51:13Z</time>
      </trkpt>
      <trkpt lat="49.00678" lon="7.89681">
        <ele>236.6</ele>
        <time>2024-08-25T13:51:14Z</time>
      </trkpt>
      <trkpt lat="49.00681" lon="7.89676">
        <ele>236.8</ele>
        <time>2024-08-25T13:51:15Z</time>
      </trkpt>
      <trkpt lat="49.00684" lon="7.8967">
        <ele>236.8</ele>
        <time>2024-08-25T13:51:16Z</time>
      </trkpt>
      <trkpt lat="49.00687" lon="7.89665">
        <ele>236.8</ele>
        <time>2024-08-25T13:51:17Z</time>
      </trkpt>
      <trkpt lat="49.00688" lon="7.89661">
        <ele>236.8</ele>
        <time>2024-08-25T13:51:18Z</time>
      </trkpt>
      <trkpt lat="49.00689" lon="7.89659">
        <ele>237</ele>
        <time>2024-08-25T13:51:19Z</time>
      </trkpt>
      <trkpt lat="49.00688" lon="7.8966">
        <ele>237</ele>
        <time>2024-08-25T13:51:20Z</time>
      </trkpt>
      <trkpt lat="49.00688" lon="7.8966">
        <ele>237</ele>
        <time>2024-08-25T13:51:21Z</time>
      </trkpt>
      <trkpt lat="49.00689" lon="7.89656">
        <ele>237.8</ele>
        <time>2024-08-25T13:53:15Z</time>
      </trkpt>
      <trkpt lat="49.0069" lon="7.89654">
        <ele>237.8</ele>
        <time>2024-08-25T13:53:16Z</time>
      </trkpt>
      <trkpt lat="49.00691" lon="7.89651">
        <ele>237.6</ele>
        <time>2024-08-25T13:53:17Z</time>
      </trkpt>
      <trkpt lat="49.00692" lon="7.89647">
        <ele>237.4</ele>
        <time>2024-08-25T13:53:18Z</time>
      </trkpt>
      <trkpt lat="49.00693" lon="7.89643">
        <ele>237.4</ele>
        <time>2024-08-25T13:53:19Z</time>
      </trkpt>
      <trkpt lat="49.00694" lon="7.89639">
        <ele>237</ele>
        <time>2024-08-25T13:53:20Z</time>
      </trkpt>
      <trkpt lat="49.00696" lon="7.89634">
        <ele>237</ele>
        <time>2024-08-25T13:53:21Z</time>
      </trkpt>
      <trkpt lat="49.00698" lon="7.8963">
        <ele>237</ele>
        <time>2024-08-25T13:53:22Z</time>
      </trkpt>
      <trkpt lat="49.00699" lon="7.89625">
        <ele>236.8</ele>
        <time>2024-08-25T13:53:23Z</time>
      </trkpt>
      <trkpt lat="49.00701" lon="7.89621">
        <ele>236.8</ele>
        <time>2024-08-25T13:53:24Z</time>
      </trkpt>
      <trkpt lat="49.00702" lon="7.89616">
        <ele>236.6</ele>
        <time>2024-08-25T13:53:25Z</time>
      </trkpt>
      <trkpt lat="49.00704" lon="7.89611">
        <ele>236.6</ele>
        <time>2024-08-25T13:53:26Z</time>
      </trkpt>
      <trkpt lat="49.00706" lon="7.89606">
        <ele>236.6</ele>
        <time>2024-08-25T13:53:27Z</time>
      </trkpt>
      <trkpt lat="49.00708" lon="7.896">
        <ele>236.4</ele>
        <time>2024-08-25T13:53:28Z</time>
      </trkpt>
      <trkpt lat="49.00709" lon="7.89595">
        <ele>236.4</ele>
        <time>2024-08-25T13:53:29Z</time>
      </trkpt>
      <trkpt lat="49.00711" lon="7.89589">
        <ele>236.4</ele>
        <time>2024-08-25T13:53:30Z</time>
      </trkpt>
      <trkpt lat="49.00713" lon="7.89583">
        <ele>236.4</ele>
        <time>2024-08-25T13:53:31Z</time>
      </trkpt>
      <trkpt lat="49.00715" lon="7.89578">
        <ele>236.4</ele>
        <time>2024-08-25T13:53:32Z</time>
      </trkpt>
      <trkpt lat="49.00717" lon="7.89573">
        <ele>236.6</ele>
        <time>2024-08-25T13:53:33Z</time>
      </trkpt>
      <trkpt lat="49.00719" lon="7.89567">
        <ele>236.6</ele>
        <time>2024-08-25T13:53:34Z</time>
      </trkpt>
      <trkpt lat="49.0072" lon="7.89561">
        <ele>236.6</ele>
        <time>2024-08-25T13:53:35Z</time>
      </trkpt>
      <trkpt lat="49.00722" lon="7.89555">
        <ele>236.8</ele>
        <time>2024-08-25T13:53:36Z</time>
      </trkpt>
      <trkpt lat="49.00724" lon="7.8955">
        <ele>237</ele>
        <time>2024-08-25T13:53:37Z</time>
      </trkpt>
      <trkpt lat="49.00725" lon="7.89545">
        <ele>237.2</ele>
        <time>2024-08-25T13:53:38Z</time>
      </trkpt>
      <trkpt lat="49.00727" lon="7.8954">
        <ele>237.4</ele>
        <time>2024-08-25T13:53:39Z</time>
      </trkpt>
      <trkpt lat="49.00728" lon="7.89535">
        <ele>237.4</ele>
        <time>2024-08-25T13:53:40Z</time>
      </trkpt>
      <trkpt lat="49.0073" lon="7.8953">
        <ele>237.6</ele>
        <time>2024-08-25T13:53:41Z</time>
      </trkpt>
      <trkpt lat="49.00732" lon="7.89526">
        <ele>237.8</ele>
        <time>2024-08-25T13:53:42Z</time>
      </trkpt>
      <trkpt lat="49.00733" lon="7.89521">
        <ele>238</ele>
        <time>2024-08-25T13:53:43Z</time>
      </trkpt>
      <trkpt lat="49.00735" lon="7.89518">
        <ele>238</ele>
        <time>2024-08-25T13:53:44Z</time>
      </trkpt>
      <trkpt lat="49.00736" lon="7.89516">
        <ele>238.2</ele>
        <time>2024-08-25T13:53:45Z</time>
      </trkpt>
      <trkpt lat="49.00737" lon="7.89515">
        <ele>238.2</ele>
        <time>2024-08-25T13:53:46Z</time>
      </trkpt>
      <trkpt lat="49.00737" lon="7.89514">
        <ele>238.2</ele>
        <time>2024-08-25T13:53:47Z</time>
      </trkpt>
      <trkpt lat="49.00737" lon="7.89514">
        <ele>238.2</ele>
        <time>2024-08-25T13:53:48Z</time>
      </trkpt>
      <trkpt lat="49.00735" lon="7.8951">
        <ele>238.6</ele>
        <time>2024-08-25T13:53:52Z</time>
      </trkpt>
      <trkpt lat="49.00732" lon="7.89508">
        <ele>238.6</ele>
        <time>2024-08-25T13:53:53Z</time>
      </trkpt>
      <trkpt lat="49.00729" lon="7.89504">
        <ele>238.6</ele>
        <time>2024-08-25T13:53:54Z</time>
      </trkpt>
      <trkpt lat="49.00725" lon="7.89501">
        <ele>238.4</ele>
        <time>2024-08-25T13:53:55Z</time>
      </trkpt>
      <trkpt lat="49.00721" lon="7.89496">
        <ele>238.2</ele>
        <time>2024-08-25T13:53:56Z</time>
      </trkpt>
      <trkpt lat="49.00716" lon="7.89491">
        <ele>237.6</ele>
        <time>2024-08-25T13:53:57Z</time>
      </trkpt>
      <trkpt lat="49.00711" lon="7.89486">
        <ele>237.2</ele>
        <time>2024-08-25T13:53:58Z</time>
      </trkpt>
      <trkpt lat="49.00706" lon="7.89481">
        <ele>236.6</ele>
        <time>2024-08-25T13:53:59Z</time>
      </trkpt>
      <trkpt lat="49.00702" lon="7.89476">
        <ele>236.2</ele>
        <time>2024-08-25T13:54:00Z</time>
      </trkpt>
      <trkpt lat="49.00697" lon="7.89471">
        <ele>235.8</ele>
        <time>2024-08-25T13:54:01Z</time>
      </trkpt>
      <trkpt lat="49.00694" lon="7.89465">
        <ele>235</ele>
        <time>2024-08-25T13:54:02Z</time>
      </trkpt>
      <trkpt lat="49.00693" lon="7.89459">
        <ele>234.6</ele>
        <time>2024-08-25T13:54:03Z</time>
      </trkpt>
      <trkpt lat="49.00694" lon="7.89453">
        <ele>234</ele>
        <time>2024-08-25T13:54:04Z</time>
      </trkpt>
      <trkpt lat="49.00696" lon="7.89447">
        <ele>233.6</ele>
        <time>2024-08-25T13:54:05Z</time>
      </trkpt>
      <trkpt lat="49.00699" lon="7.89442">
        <ele>233.2</ele>
        <time>2024-08-25T13:54:06Z</time>
      </trkpt>
      <trkpt lat="49.00702" lon="7.89438">
        <ele>233</ele>
        <time>2024-08-25T13:54:07Z</time>
      </trkpt>
      <trkpt lat="49.00705" lon="7.89433">
        <ele>232.8</ele>
        <time>2024-08-25T13:54:08Z</time>
      </trkpt>
      <trkpt lat="49.00708" lon="7.89428">
        <ele>232.8</ele>
        <time>2024-08-25T13:54:09Z</time>
      </trkpt>
      <trkpt lat="49.00711" lon="7.89423">
        <ele>232.8</ele>
        <time>2024-08-25T13:54:10Z</time>
      </trkpt>
      <trkpt lat="49.00713" lon="7.89417">
        <ele>232.8</ele>
        <time>2024-08-25T13:54:11Z</time>
      </trkpt>
      <trkpt lat="49.00716" lon="7.89412">
        <ele>232.8</ele>
        <time>2024-08-25T13:54:12Z</time>
      </trkpt>
      <trkpt lat="49.0072" lon="7.89406">
        <ele>233.2</ele>
        <time>2024-08-25T13:54:13Z</time>
      </trkpt>
      <trkpt lat="49.00722" lon="7.89401">
        <ele>233.4</ele>
        <time>2024-08-25T13:54:14Z</time>
      </trkpt>
      <trkpt lat="49.00726" lon="7.89395">
        <ele>233.4</ele>
        <time>2024-08-25T13:54:15Z</time>
      </trkpt>
      <trkpt lat="49.00728" lon="7.89389">
        <ele>233.6</ele>
        <time>2024-08-25T13:54:16Z</time>
      </trkpt>
      <trkpt lat="49.00731" lon="7.89384">
        <ele>233.8</ele>
        <time>2024-08-25T13:54:17Z</time>
      </trkpt>
      <trkpt lat="49.00734" lon="7.89379">
        <ele>233.8</ele>
        <time>2024-08-25T13:54:18Z</time>
      </trkpt>
      <trkpt lat="49.00736" lon="7.89373">
        <ele>233.8</ele>
        <time>2024-08-25T13:54:19Z</time>
      </trkpt>
      <trkpt lat="49.00738" lon="7.89367">
        <ele>234</ele>
        <time>2024-08-25T13:54:20Z</time>
      </trkpt>
      <trkpt lat="49.00739" lon="7.8936">
        <ele>234</ele>
        <time>2024-08-25T13:54:21Z</time>
      </trkpt>
      <trkpt lat="49.0074" lon="7.89352">
        <ele>234</ele>
        <time>2024-08-25T13:54:22Z</time>
      </trkpt>
      <trkpt lat="49.00742" lon="7.89344">
        <ele>233.8</ele>
        <time>2024-08-25T13:54:23Z</time>
      </trkpt>
      <trkpt lat="49.00744" lon="7.89335">
        <ele>233.8</ele>
        <time>2024-08-25T13:54:24Z</time>
      </trkpt>
      <trkpt lat="49.00747" lon="7.89326">
        <ele>233.6</ele>
        <time>2024-08-25T13:54:25Z</time>
      </trkpt>
      <trkpt lat="49.0075" lon="7.89316">
        <ele>232.8</ele>
        <time>2024-08-25T13:54:26Z</time>
      </trkpt>
      <trkpt lat="49.00755" lon="7.89308">
        <ele>232.2</ele>
        <time>2024-08-25T13:54:27Z</time>
      </trkpt>
      <trkpt lat="49.0076" lon="7.89301">
        <ele>231.4</ele>
        <time>2024-08-25T13:54:28Z</time>
      </trkpt>
      <trkpt lat="49.00765" lon="7.89294">
        <ele>231.2</ele>
        <time>2024-08-25T13:54:29Z</time>
      </trkpt>
      <trkpt lat="49.0077" lon="7.89288">
        <ele>230.2</ele>
        <time>2024-08-25T13:54:30Z</time>
      </trkpt>
      <trkpt lat="49.00776" lon="7.89282">
        <ele>229.8</ele>
        <time>2024-08-25T13:54:31Z</time>
      </trkpt>
      <trkpt lat="49.00781" lon="7.89276">
        <ele>229.4</ele>
        <time>2024-08-25T13:54:32Z</time>
      </trkpt>
      <trkpt lat="49.00786" lon="7.8927">
        <ele>228.8</ele>
        <time>2024-08-25T13:54:33Z</time>
      </trkpt>
      <trkpt lat="49.00791" lon="7.89264">
        <ele>228.6</ele>
        <time>2024-08-25T13:54:34Z</time>
      </trkpt>
      <trkpt lat="49.00795" lon="7.89259">
        <ele>227.8</ele>
        <time>2024-08-25T13:54:35Z</time>
      </trkpt>
      <trkpt lat="49.008" lon="7.89254">
        <ele>227.2</ele>
        <time>2024-08-25T13:54:36Z</time>
      </trkpt>
      <trkpt lat="49.00803" lon="7.89249">
        <ele>226.8</ele>
        <time>2024-08-25T13:54:37Z</time>
      </trkpt>
      <trkpt lat="49.00808" lon="7.89244">
        <ele>226.2</ele>
        <time>2024-08-25T13:54:38Z</time>
      </trkpt>
      <trkpt lat="49.00812" lon="7.89238">
        <ele>225.8</ele>
        <time>2024-08-25T13:54:39Z</time>
      </trkpt>
      <trkpt lat="49.00816" lon="7.89233">
        <ele>225.6</ele>
        <time>2024-08-25T13:54:40Z</time>
      </trkpt>
      <trkpt lat="49.0082" lon="7.89228">
        <ele>225.2</ele>
        <time>2024-08-25T13:54:41Z</time>
      </trkpt>
      <trkpt lat="49.00824" lon="7.89224">
        <ele>225</ele>
        <time>2024-08-25T13:54:42Z</time>
      </trkpt>
      <trkpt lat="49.00827" lon="7.8922">
        <ele>225</ele>
        <time>2024-08-25T13:54:43Z</time>
      </trkpt>
      <trkpt lat="49.0083" lon="7.8922">
        <ele>224.6</ele>
        <time>2024-08-25T13:54:44Z</time>
      </trkpt>
      <trkpt lat="49.00833" lon="7.89221">
        <ele>224.4</ele>
        <time>2024-08-25T13:54:45Z</time>
      </trkpt>
      <trkpt lat="49.00835" lon="7.89223">
        <ele>224.4</ele>
        <time>2024-08-25T13:54:46Z</time>
      </trkpt>
      <trkpt lat="49.00837" lon="7.89225">
        <ele>224.4</ele>
        <time>2024-08-25T13:54:47Z</time>
      </trkpt>
      <trkpt lat="49.00839" lon="7.89226">
        <ele>224.4</ele>
        <time>2024-08-25T13:54:48Z</time>
      </trkpt>
      <trkpt lat="49.00841" lon="7.89229">
        <ele>224.6</ele>
        <time>2024-08-25T13:54:49Z</time>
      </trkpt>
      <trkpt lat="49.00844" lon="7.89231">
        <ele>224.8</ele>
        <time>2024-08-25T13:54:50Z</time>
      </trkpt>
      <trkpt lat="49.00846" lon="7.89234">
        <ele>224.8</ele>
        <time>2024-08-25T13:54:51Z</time>
      </trkpt>
      <trkpt lat="49.00848" lon="7.89237">
        <ele>225</ele>
        <time>2024-08-25T13:54:52Z</time>
      </trkpt>
      <trkpt lat="49.0085" lon="7.89239">
        <ele>225.2</ele>
        <time>2024-08-25T13:54:53Z</time>
      </trkpt>
      <trkpt lat="49.00852" lon="7.89242">
        <ele>225.2</ele>
        <time>2024-08-25T13:54:54Z</time>
      </trkpt>
      <trkpt lat="49.00854" lon="7.89244">
        <ele>225.4</ele>
        <time>2024-08-25T13:54:55Z</time>
      </trkpt>
      <trkpt lat="49.00856" lon="7.89247">
        <ele>225.6</ele>
        <time>2024-08-25T13:54:56Z</time>
      </trkpt>
      <trkpt lat="49.00858" lon="7.8925">
        <ele>225.8</ele>
        <time>2024-08-25T13:54:57Z</time>
      </trkpt>
      <trkpt lat="49.0086" lon="7.89253">
        <ele>226.2</ele>
        <time>2024-08-25T13:54:58Z</time>
      </trkpt>
      <trkpt lat="49.00862" lon="7.89256">
        <ele>226.2</ele>
        <time>2024-08-25T13:54:59Z</time>
      </trkpt>
      <trkpt lat="49.00864" lon="7.8926">
        <ele>226.6</ele>
        <time>2024-08-25T13:55:00Z</time>
      </trkpt>
      <trkpt lat="49.00865" lon="7.89262">
        <ele>226.8</ele>
        <time>2024-08-25T13:55:01Z</time>
      </trkpt>
      <trkpt lat="49.00867" lon="7.89265">
        <ele>226.8</ele>
        <time>2024-08-25T13:55:02Z</time>
      </trkpt>
      <trkpt lat="49.0087" lon="7.89267">
        <ele>227.2</ele>
        <time>2024-08-25T13:55:03Z</time>
      </trkpt>
      <trkpt lat="49.00872" lon="7.8927">
        <ele>227.4</ele>
        <time>2024-08-25T13:55:04Z</time>
      </trkpt>
      <trkpt lat="49.00874" lon="7.89273">
        <ele>227.6</ele>
        <time>2024-08-25T13:55:05Z</time>
      </trkpt>
      <trkpt lat="49.00876" lon="7.89275">
        <ele>227.8</ele>
        <time>2024-08-25T13:55:06Z</time>
      </trkpt>
      <trkpt lat="49.00878" lon="7.89278">
        <ele>228</ele>
        <time>2024-08-25T13:55:07Z</time>
      </trkpt>
      <trkpt lat="49.0088" lon="7.8928">
        <ele>228.2</ele>
        <time>2024-08-25T13:55:08Z</time>
      </trkpt>
      <trkpt lat="49.00881" lon="7.89283">
        <ele>228.4</ele>
        <time>2024-08-25T13:55:09Z</time>
      </trkpt>
      <trkpt lat="49.00883" lon="7.89286">
        <ele>228.8</ele>
        <time>2024-08-25T13:55:10Z</time>
      </trkpt>
      <trkpt lat="49.00885" lon="7.89289">
        <ele>228.8</ele>
        <time>2024-08-25T13:55:11Z</time>
      </trkpt>
      <trkpt lat="49.00887" lon="7.89292">
        <ele>229</ele>
        <time>2024-08-25T13:55:12Z</time>
      </trkpt>
      <trkpt lat="49.00889" lon="7.89294">
        <ele>229.2</ele>
        <time>2024-08-25T13:55:13Z</time>
      </trkpt>
      <trkpt lat="49.00892" lon="7.89296">
        <ele>229.4</ele>
        <time>2024-08-25T13:55:14Z</time>
      </trkpt>
      <trkpt lat="49.00894" lon="7.89296">
        <ele>229.6</ele>
        <time>2024-08-25T13:55:15Z</time>
      </trkpt>
      <trkpt lat="49.00896" lon="7.89294">
        <ele>229.8</ele>
        <time>2024-08-25T13:55:16Z</time>
      </trkpt>
      <trkpt lat="49.00898" lon="7.89291">
        <ele>230.2</ele>
        <time>2024-08-25T13:55:17Z</time>
      </trkpt>
      <trkpt lat="49.00899" lon="7.89288">
        <ele>230.2</ele>
        <time>2024-08-25T13:55:18Z</time>
      </trkpt>
      <trkpt lat="49.00901" lon="7.89284">
        <ele>230.4</ele>
        <time>2024-08-25T13:55:19Z</time>
      </trkpt>
      <trkpt lat="49.00903" lon="7.89281">
        <ele>230.6</ele>
        <time>2024-08-25T13:55:20Z</time>
      </trkpt>
      <trkpt lat="49.00904" lon="7.89277">
        <ele>230.6</ele>
        <time>2024-08-25T13:55:21Z</time>
      </trkpt>
      <trkpt lat="49.00906" lon="7.89274">
        <ele>230.8</ele>
        <time>2024-08-25T13:55:22Z</time>
      </trkpt>
      <trkpt lat="49.00908" lon="7.8927">
        <ele>230.8</ele>
        <time>2024-08-25T13:55:23Z</time>
      </trkpt>
      <trkpt lat="49.00909" lon="7.89267">
        <ele>230.8</ele>
        <time>2024-08-25T13:55:24Z</time>
      </trkpt>
      <trkpt lat="49.00911" lon="7.89263">
        <ele>230.8</ele>
        <time>2024-08-25T13:55:25Z</time>
      </trkpt>
      <trkpt lat="49.00913" lon="7.89259">
        <ele>231</ele>
        <time>2024-08-25T13:55:26Z</time>
      </trkpt>
      <trkpt lat="49.00915" lon="7.89255">
        <ele>231</ele>
        <time>2024-08-25T13:55:27Z</time>
      </trkpt>
      <trkpt lat="49.00917" lon="7.89251">
        <ele>231</ele>
        <time>2024-08-25T13:55:28Z</time>
      </trkpt>
      <trkpt lat="49.00918" lon="7.89247">
        <ele>231</ele>
        <time>2024-08-25T13:55:29Z</time>
      </trkpt>
      <trkpt lat="49.0092" lon="7.89243">
        <ele>231</ele>
        <time>2024-08-25T13:55:30Z</time>
      </trkpt>
      <trkpt lat="49.00922" lon="7.8924">
        <ele>231</ele>
        <time>2024-08-25T13:55:31Z</time>
      </trkpt>
      <trkpt lat="49.00924" lon="7.89236">
        <ele>231</ele>
        <time>2024-08-25T13:55:32Z</time>
      </trkpt>
      <trkpt lat="49.00926" lon="7.89234">
        <ele>231.2</ele>
        <time>2024-08-25T13:55:33Z</time>
      </trkpt>
      <trkpt lat="49.0093" lon="7.89233">
        <ele>231.2</ele>
        <time>2024-08-25T13:55:34Z</time>
      </trkpt>
      <trkpt lat="49.00933" lon="7.89233">
        <ele>231.2</ele>
        <time>2024-08-25T13:55:35Z</time>
      </trkpt>
      <trkpt lat="49.00936" lon="7.89233">
        <ele>231.2</ele>
        <time>2024-08-25T13:55:36Z</time>
      </trkpt>
      <trkpt lat="49.00939" lon="7.89233">
        <ele>231.4</ele>
        <time>2024-08-25T13:55:37Z</time>
      </trkpt>
      <trkpt lat="49.00941" lon="7.89232">
        <ele>231.4</ele>
        <time>2024-08-25T13:55:38Z</time>
      </trkpt>
      <trkpt lat="49.00944" lon="7.89232">
        <ele>231.4</ele>
        <time>2024-08-25T13:55:39Z</time>
      </trkpt>
      <trkpt lat="49.00947" lon="7.89233">
        <ele>231.4</ele>
        <time>2024-08-25T13:55:40Z</time>
      </trkpt>
      <trkpt lat="49.00949" lon="7.89233">
        <ele>231.6</ele>
        <time>2024-08-25T13:55:41Z</time>
      </trkpt>
      <trkpt lat="49.00952" lon="7.89233">
        <ele>231.6</ele>
        <time>2024-08-25T13:55:42Z</time>
      </trkpt>
      <trkpt lat="49.00955" lon="7.89233">
        <ele>232</ele>
        <time>2024-08-25T13:55:43Z</time>
      </trkpt>
      <trkpt lat="49.00957" lon="7.89233">
        <ele>232.4</ele>
        <time>2024-08-25T13:55:44Z</time>
      </trkpt>
      <trkpt lat="49.0096" lon="7.89232">
        <ele>232.8</ele>
        <time>2024-08-25T13:55:45Z</time>
      </trkpt>
      <trkpt lat="49.00963" lon="7.89231">
        <ele>233</ele>
        <time>2024-08-25T13:55:46Z</time>
      </trkpt>
      <trkpt lat="49.00965" lon="7.89228">
        <ele>233.6</ele>
        <time>2024-08-25T13:55:47Z</time>
      </trkpt>
      <trkpt lat="49.00966" lon="7.89226">
        <ele>233.6</ele>
        <time>2024-08-25T13:55:48Z</time>
      </trkpt>
      <trkpt lat="49.00968" lon="7.89222">
        <ele>233.8</ele>
        <time>2024-08-25T13:55:49Z</time>
      </trkpt>
      <trkpt lat="49.00968" lon="7.89219">
        <ele>234</ele>
        <time>2024-08-25T13:55:50Z</time>
      </trkpt>
      <trkpt lat="49.00969" lon="7.89214">
        <ele>234.4</ele>
        <time>2024-08-25T13:55:51Z</time>
      </trkpt>
      <trkpt lat="49.0097" lon="7.89211">
        <ele>234.4</ele>
        <time>2024-08-25T13:55:52Z</time>
      </trkpt>
      <trkpt lat="49.00972" lon="7.89208">
        <ele>234.6</ele>
        <time>2024-08-25T13:55:53Z</time>
      </trkpt>
      <trkpt lat="49.00973" lon="7.89205">
        <ele>234.6</ele>
        <time>2024-08-25T13:55:54Z</time>
      </trkpt>
      <trkpt lat="49.00974" lon="7.89201">
        <ele>235</ele>
        <time>2024-08-25T13:55:55Z</time>
      </trkpt>
      <trkpt lat="49.00974" lon="7.89198">
        <ele>235.2</ele>
        <time>2024-08-25T13:55:56Z</time>
      </trkpt>
      <trkpt lat="49.00975" lon="7.89194">
        <ele>235.4</ele>
        <time>2024-08-25T13:55:57Z</time>
      </trkpt>
      <trkpt lat="49.00976" lon="7.89191">
        <ele>235.6</ele>
        <time>2024-08-25T13:55:58Z</time>
      </trkpt>
      <trkpt lat="49.00977" lon="7.89188">
        <ele>236</ele>
        <time>2024-08-25T13:55:59Z</time>
      </trkpt>
      <trkpt lat="49.00978" lon="7.89184">
        <ele>236.2</ele>
        <time>2024-08-25T13:56:00Z</time>
      </trkpt>
      <trkpt lat="49.00979" lon="7.89181">
        <ele>236.2</ele>
        <time>2024-08-25T13:56:01Z</time>
      </trkpt>
      <trkpt lat="49.0098" lon="7.89178">
        <ele>236.2</ele>
        <time>2024-08-25T13:56:02Z</time>
      </trkpt>
      <trkpt lat="49.00981" lon="7.89175">
        <ele>236.4</ele>
        <time>2024-08-25T13:56:03Z</time>
      </trkpt>
      <trkpt lat="49.00982" lon="7.89172">
        <ele>236.6</ele>
        <time>2024-08-25T13:56:04Z</time>
      </trkpt>
      <trkpt lat="49.00984" lon="7.89169">
        <ele>236.8</ele>
        <time>2024-08-25T13:56:05Z</time>
      </trkpt>
      <trkpt lat="49.00985" lon="7.89166">
        <ele>237</ele>
        <time>2024-08-25T13:56:06Z</time>
      </trkpt>
      <trkpt lat="49.00986" lon="7.89163">
        <ele>237.2</ele>
        <time>2024-08-25T13:56:07Z</time>
      </trkpt>
      <trkpt lat="49.00987" lon="7.8916">
        <ele>237.4</ele>
        <time>2024-08-25T13:56:08Z</time>
      </trkpt>
      <trkpt lat="49.00987" lon="7.89157">
        <ele>237.6</ele>
        <time>2024-08-25T13:56:09Z</time>
      </trkpt>
      <trkpt lat="49.00988" lon="7.89154">
        <ele>237.8</ele>
        <time>2024-08-25T13:56:10Z</time>
      </trkpt>
      <trkpt lat="49.00989" lon="7.89151">
        <ele>238</ele>
        <time>2024-08-25T13:56:11Z</time>
      </trkpt>
      <trkpt lat="49.0099" lon="7.89149">
        <ele>238.2</ele>
        <time>2024-08-25T13:56:12Z</time>
      </trkpt>
      <trkpt lat="49.00991" lon="7.89145">
        <ele>238.4</ele>
        <time>2024-08-25T13:56:13Z</time>
      </trkpt>
      <trkpt lat="49.00992" lon="7.89143">
        <ele>238.6</ele>
        <time>2024-08-25T13:56:14Z</time>
      </trkpt>
      <trkpt lat="49.00993" lon="7.8914">
        <ele>239</ele>
        <time>2024-08-25T13:56:15Z</time>
      </trkpt>
      <trkpt lat="49.00993" lon="7.89137">
        <ele>239</ele>
        <time>2024-08-25T13:56:16Z</time>
      </trkpt>
      <trkpt lat="49.00994" lon="7.89134">
        <ele>239.2</ele>
        <time>2024-08-25T13:56:17Z</time>
      </trkpt>
      <trkpt lat="49.00995" lon="7.89131">
        <ele>239.4</ele>
        <time>2024-08-25T13:56:18Z</time>
      </trkpt>
      <trkpt lat="49.00996" lon="7.89128">
        <ele>239.6</ele>
        <time>2024-08-25T13:56:19Z</time>
      </trkpt>
      <trkpt lat="49.00997" lon="7.89125">
        <ele>239.8</ele>
        <time>2024-08-25T13:56:20Z</time>
      </trkpt>
      <trkpt lat="49.00997" lon="7.89122">
        <ele>240</ele>
        <time>2024-08-25T13:56:21Z</time>
      </trkpt>
      <trkpt lat="49.00998" lon="7.8912">
        <ele>240.4</ele>
        <time>2024-08-25T13:56:22Z</time>
      </trkpt>
      <trkpt lat="49.00999" lon="7.89118">
        <ele>240.4</ele>
        <time>2024-08-25T13:56:23Z</time>
      </trkpt>
      <trkpt lat="49.00998" lon="7.89116">
        <ele>240.6</ele>
        <time>2024-08-25T13:56:24Z</time>
      </trkpt>
      <trkpt lat="49.00998" lon="7.89117">
        <ele>240.8</ele>
        <time>2024-08-25T13:56:25Z</time>
      </trkpt>
      <trkpt lat="49.00998" lon="7.89116">
        <ele>240.8</ele>
        <time>2024-08-25T13:56:26Z</time>
      </trkpt>
      <trkpt lat="49.01001" lon="7.8911">
        <ele>241.4</ele>
        <time>2024-08-25T13:57:23Z</time>
      </trkpt>
      <trkpt lat="49.01003" lon="7.89107">
        <ele>241.6</ele>
        <time>2024-08-25T13:57:24Z</time>
      </trkpt>
      <trkpt lat="49.01003" lon="7.89104">
        <ele>241.6</ele>
        <time>2024-08-25T13:57:25Z</time>
      </trkpt>
      <trkpt lat="49.01004" lon="7.891">
        <ele>241.8</ele>
        <time>2024-08-25T13:57:26Z</time>
      </trkpt>
      <trkpt lat="49.01005" lon="7.89097">
        <ele>241.8</ele>
        <time>2024-08-25T13:57:27Z</time>
      </trkpt>
      <trkpt lat="49.01006" lon="7.89094">
        <ele>241.8</ele>
        <time>2024-08-25T13:57:28Z</time>
      </trkpt>
      <trkpt lat="49.01006" lon="7.8909">
        <ele>241.8</ele>
        <time>2024-08-25T13:57:29Z</time>
      </trkpt>
      <trkpt lat="49.01007" lon="7.89087">
        <ele>242</ele>
        <time>2024-08-25T13:57:30Z</time>
      </trkpt>
      <trkpt lat="49.01009" lon="7.89084">
        <ele>242</ele>
        <time>2024-08-25T13:57:31Z</time>
      </trkpt>
      <trkpt lat="49.0101" lon="7.89081">
        <ele>242.2</ele>
        <time>2024-08-25T13:57:32Z</time>
      </trkpt>
      <trkpt lat="49.01011" lon="7.89078">
        <ele>242.6</ele>
        <time>2024-08-25T13:57:33Z</time>
      </trkpt>
      <trkpt lat="49.01012" lon="7.89075">
        <ele>242.8</ele>
        <time>2024-08-25T13:57:34Z</time>
      </trkpt>
      <trkpt lat="49.01013" lon="7.89072">
        <ele>243</ele>
        <time>2024-08-25T13:57:35Z</time>
      </trkpt>
      <trkpt lat="49.01014" lon="7.89069">
        <ele>243</ele>
        <time>2024-08-25T13:57:36Z</time>
      </trkpt>
      <trkpt lat="49.01015" lon="7.89066">
        <ele>243.4</ele>
        <time>2024-08-25T13:57:37Z</time>
      </trkpt>
      <trkpt lat="49.01017" lon="7.89063">
        <ele>243.4</ele>
        <time>2024-08-25T13:57:38Z</time>
      </trkpt>
      <trkpt lat="49.01018" lon="7.8906">
        <ele>243.6</ele>
        <time>2024-08-25T13:57:39Z</time>
      </trkpt>
      <trkpt lat="49.01019" lon="7.89057">
        <ele>244</ele>
        <time>2024-08-25T13:57:40Z</time>
      </trkpt>
      <trkpt lat="49.0102" lon="7.89054">
        <ele>244.2</ele>
        <time>2024-08-25T13:57:41Z</time>
      </trkpt>
      <trkpt lat="49.01021" lon="7.89051">
        <ele>244.4</ele>
        <time>2024-08-25T13:57:42Z</time>
      </trkpt>
      <trkpt lat="49.01022" lon="7.89049">
        <ele>244.8</ele>
        <time>2024-08-25T13:57:43Z</time>
      </trkpt>
      <trkpt lat="49.01023" lon="7.89046">
        <ele>245.2</ele>
        <time>2024-08-25T13:57:44Z</time>
      </trkpt>
      <trkpt lat="49.01024" lon="7.89043">
        <ele>245.4</ele>
        <time>2024-08-25T13:57:45Z</time>
      </trkpt>
      <trkpt lat="49.01025" lon="7.8904">
        <ele>245.8</ele>
        <time>2024-08-25T13:57:46Z</time>
      </trkpt>
      <trkpt lat="49.01026" lon="7.89038">
        <ele>246</ele>
        <time>2024-08-25T13:57:47Z</time>
      </trkpt>
      <trkpt lat="49.01027" lon="7.89035">
        <ele>246.4</ele>
        <time>2024-08-25T13:57:48Z</time>
      </trkpt>
      <trkpt lat="49.01028" lon="7.89032">
        <ele>246.8</ele>
        <time>2024-08-25T13:57:49Z</time>
      </trkpt>
      <trkpt lat="49.01029" lon="7.8903">
        <ele>247</ele>
        <time>2024-08-25T13:57:50Z</time>
      </trkpt>
      <trkpt lat="49.0103" lon="7.89028">
        <ele>247.2</ele>
        <time>2024-08-25T13:57:51Z</time>
      </trkpt>
      <trkpt lat="49.01031" lon="7.89028">
        <ele>247.4</ele>
        <time>2024-08-25T13:57:52Z</time>
      </trkpt>
      <trkpt lat="49.01032" lon="7.89029">
        <ele>247.6</ele>
        <time>2024-08-25T13:57:53Z</time>
      </trkpt>
      <trkpt lat="49.01033" lon="7.89032">
        <ele>247.8</ele>
        <time>2024-08-25T13:57:54Z</time>
      </trkpt>
      <trkpt lat="49.01033" lon="7.89034">
        <ele>248</ele>
        <time>2024-08-25T13:57:55Z</time>
      </trkpt>
      <trkpt lat="49.01034" lon="7.89036">
        <ele>248.4</ele>
        <time>2024-08-25T13:57:56Z</time>
      </trkpt>
      <trkpt lat="49.01035" lon="7.89038">
        <ele>248.8</ele>
        <time>2024-08-25T13:57:57Z</time>
      </trkpt>
      <trkpt lat="49.01036" lon="7.8904">
        <ele>249</ele>
        <time>2024-08-25T13:57:58Z</time>
      </trkpt>
      <trkpt lat="49.01036" lon="7.89042">
        <ele>249.4</ele>
        <time>2024-08-25T13:57:59Z</time>
      </trkpt>
      <trkpt lat="49.01037" lon="7.89044">
        <ele>249.8</ele>
        <time>2024-08-25T13:58:00Z</time>
      </trkpt>
      <trkpt lat="49.01037" lon="7.89046">
        <ele>250</ele>
        <time>2024-08-25T13:58:01Z</time>
      </trkpt>
      <trkpt lat="49.01037" lon="7.89049">
        <ele>250.2</ele>
        <time>2024-08-25T13:58:02Z</time>
      </trkpt>
      <trkpt lat="49.01038" lon="7.89051">
        <ele>250.4</ele>
        <time>2024-08-25T13:58:03Z</time>
      </trkpt>
      <trkpt lat="49.01038" lon="7.89054">
        <ele>250.6</ele>
        <time>2024-08-25T13:58:04Z</time>
      </trkpt>
      <trkpt lat="49.01038" lon="7.89058">
        <ele>250.6</ele>
        <time>2024-08-25T13:58:05Z</time>
      </trkpt>
      <trkpt lat="49.01038" lon="7.89062">
        <ele>250.6</ele>
        <time>2024-08-25T13:58:06Z</time>
      </trkpt>
      <trkpt lat="49.01038" lon="7.89066">
        <ele>250.6</ele>
        <time>2024-08-25T13:58:07Z</time>
      </trkpt>
      <trkpt lat="49.01039" lon="7.8907">
        <ele>250.6</ele>
        <time>2024-08-25T13:58:08Z</time>
      </trkpt>
      <trkpt lat="49.01039" lon="7.89075">
        <ele>250.6</ele>
        <time>2024-08-25T13:58:09Z</time>
      </trkpt>
      <trkpt lat="49.0104" lon="7.89079">
        <ele>250.6</ele>
        <time>2024-08-25T13:58:10Z</time>
      </trkpt>
      <trkpt lat="49.01041" lon="7.89084">
        <ele>250.6</ele>
        <time>2024-08-25T13:58:11Z</time>
      </trkpt>
      <trkpt lat="49.01042" lon="7.89089">
        <ele>250.6</ele>
        <time>2024-08-25T13:58:12Z</time>
      </trkpt>
      <trkpt lat="49.01044" lon="7.89094">
        <ele>250.4</ele>
        <time>2024-08-25T13:58:13Z</time>
      </trkpt>
      <trkpt lat="49.01045" lon="7.891">
        <ele>250.4</ele>
        <time>2024-08-25T13:58:14Z</time>
      </trkpt>
      <trkpt lat="49.01047" lon="7.89104">
        <ele>250.2</ele>
        <time>2024-08-25T13:58:15Z</time>
      </trkpt>
      <trkpt lat="49.0105" lon="7.89108">
        <ele>250.2</ele>
        <time>2024-08-25T13:58:16Z</time>
      </trkpt>
      <trkpt lat="49.01051" lon="7.89112">
        <ele>250</ele>
        <time>2024-08-25T13:58:17Z</time>
      </trkpt>
      <trkpt lat="49.01053" lon="7.89115">
        <ele>250</ele>
        <time>2024-08-25T13:58:18Z</time>
      </trkpt>
      <trkpt lat="49.01054" lon="7.89119">
        <ele>250</ele>
        <time>2024-08-25T13:58:19Z</time>
      </trkpt>
      <trkpt lat="49.01055" lon="7.89123">
        <ele>250</ele>
        <time>2024-08-25T13:58:20Z</time>
      </trkpt>
      <trkpt lat="49.01058" lon="7.89128">
        <ele>250.4</ele>
        <time>2024-08-25T13:58:21Z</time>
      </trkpt>
      <trkpt lat="49.0106" lon="7.89132">
        <ele>250.4</ele>
        <time>2024-08-25T13:58:22Z</time>
      </trkpt>
      <trkpt lat="49.01062" lon="7.89135">
        <ele>250.4</ele>
        <time>2024-08-25T13:58:23Z</time>
      </trkpt>
      <trkpt lat="49.01064" lon="7.89139">
        <ele>250.4</ele>
        <time>2024-08-25T13:58:24Z</time>
      </trkpt>
      <trkpt lat="49.01067" lon="7.89141">
        <ele>250.4</ele>
        <time>2024-08-25T13:58:25Z</time>
      </trkpt>
      <trkpt lat="49.01069" lon="7.89145">
        <ele>250.4</ele>
        <time>2024-08-25T13:58:26Z</time>
      </trkpt>
      <trkpt lat="49.01071" lon="7.89148">
        <ele>250.4</ele>
        <time>2024-08-25T13:58:27Z</time>
      </trkpt>
      <trkpt lat="49.01074" lon="7.89152">
        <ele>250.4</ele>
        <time>2024-08-25T13:58:28Z</time>
      </trkpt>
      <trkpt lat="49.01076" lon="7.89156">
        <ele>250.6</ele>
        <time>2024-08-25T13:58:29Z</time>
      </trkpt>
      <trkpt lat="49.01079" lon="7.89159">
        <ele>250.6</ele>
        <time>2024-08-25T13:58:30Z</time>
      </trkpt>
      <trkpt lat="49.01082" lon="7.89163">
        <ele>250.6</ele>
        <time>2024-08-25T13:58:31Z</time>
      </trkpt>
      <trkpt lat="49.01084" lon="7.89168">
        <ele>250.6</ele>
        <time>2024-08-25T13:58:32Z</time>
      </trkpt>
      <trkpt lat="49.01085" lon="7.89172">
        <ele>250.8</ele>
        <time>2024-08-25T13:58:33Z</time>
      </trkpt>
      <trkpt lat="49.01086" lon="7.89176">
        <ele>250.8</ele>
        <time>2024-08-25T13:58:34Z</time>
      </trkpt>
      <trkpt lat="49.01087" lon="7.89182">
        <ele>250.8</ele>
        <time>2024-08-25T13:58:35Z</time>
      </trkpt>
      <trkpt lat="49.01088" lon="7.89188">
        <ele>250.8</ele>
        <time>2024-08-25T13:58:36Z</time>
      </trkpt>
      <trkpt lat="49.01088" lon="7.89194">
        <ele>250.8</ele>
        <time>2024-08-25T13:58:37Z</time>
      </trkpt>
      <trkpt lat="49.01088" lon="7.89201">
        <ele>250.8</ele>
        <time>2024-08-25T13:58:38Z</time>
      </trkpt>
      <trkpt lat="49.01089" lon="7.89206">
        <ele>250.8</ele>
        <time>2024-08-25T13:58:39Z</time>
      </trkpt>
      <trkpt lat="49.01091" lon="7.89212">
        <ele>250.6</ele>
        <time>2024-08-25T13:58:40Z</time>
      </trkpt>
      <trkpt lat="49.01093" lon="7.89217">
        <ele>250.6</ele>
        <time>2024-08-25T13:58:41Z</time>
      </trkpt>
      <trkpt lat="49.01094" lon="7.89221">
        <ele>250.6</ele>
        <time>2024-08-25T13:58:42Z</time>
      </trkpt>
      <trkpt lat="49.01096" lon="7.89225">
        <ele>250.6</ele>
        <time>2024-08-25T13:58:43Z</time>
      </trkpt>
      <trkpt lat="49.01098" lon="7.89229">
        <ele>250.6</ele>
        <time>2024-08-25T13:58:44Z</time>
      </trkpt>
      <trkpt lat="49.01099" lon="7.89233">
        <ele>250.8</ele>
        <time>2024-08-25T13:58:45Z</time>
      </trkpt>
      <trkpt lat="49.01101" lon="7.89237">
        <ele>251.2</ele>
        <time>2024-08-25T13:58:46Z</time>
      </trkpt>
      <trkpt lat="49.01102" lon="7.89241">
        <ele>251.4</ele>
        <time>2024-08-25T13:58:47Z</time>
      </trkpt>
      <trkpt lat="49.01104" lon="7.89244">
        <ele>251.6</ele>
        <time>2024-08-25T13:58:48Z</time>
      </trkpt>
      <trkpt lat="49.01105" lon="7.89248">
        <ele>252</ele>
        <time>2024-08-25T13:58:49Z</time>
      </trkpt>
      <trkpt lat="49.01107" lon="7.89252">
        <ele>252.2</ele>
        <time>2024-08-25T13:58:50Z</time>
      </trkpt>
      <trkpt lat="49.01109" lon="7.89256">
        <ele>252.6</ele>
        <time>2024-08-25T13:58:51Z</time>
      </trkpt>
      <trkpt lat="49.01111" lon="7.8926">
        <ele>253</ele>
        <time>2024-08-25T13:58:52Z</time>
      </trkpt>
      <trkpt lat="49.01113" lon="7.89263">
        <ele>253.4</ele>
        <time>2024-08-25T13:58:53Z</time>
      </trkpt>
      <trkpt lat="49.01115" lon="7.89266">
        <ele>253.4</ele>
        <time>2024-08-25T13:58:54Z</time>
      </trkpt>
      <trkpt lat="49.01117" lon="7.89269">
        <ele>253.6</ele>
        <time>2024-08-25T13:58:55Z</time>
      </trkpt>
      <trkpt lat="49.01119" lon="7.89273">
        <ele>254</ele>
        <time>2024-08-25T13:58:56Z</time>
      </trkpt>
      <trkpt lat="49.01121" lon="7.89275">
        <ele>254.2</ele>
        <time>2024-08-25T13:58:57Z</time>
      </trkpt>
      <trkpt lat="49.01123" lon="7.89278">
        <ele>254.8</ele>
        <time>2024-08-25T13:58:58Z</time>
      </trkpt>
      <trkpt lat="49.01125" lon="7.8928">
        <ele>255</ele>
        <time>2024-08-25T13:58:59Z</time>
      </trkpt>
      <trkpt lat="49.01127" lon="7.89282">
        <ele>255.2</ele>
        <time>2024-08-25T13:59:00Z</time>
      </trkpt>
      <trkpt lat="49.0113" lon="7.89284">
        <ele>255.6</ele>
        <time>2024-08-25T13:59:01Z</time>
      </trkpt>
      <trkpt lat="49.01132" lon="7.89286">
        <ele>255.8</ele>
        <time>2024-08-25T13:59:02Z</time>
      </trkpt>
      <trkpt lat="49.01135" lon="7.89288">
        <ele>256</ele>
        <time>2024-08-25T13:59:03Z</time>
      </trkpt>
      <trkpt lat="49.01138" lon="7.89289">
        <ele>256.2</ele>
        <time>2024-08-25T13:59:04Z</time>
      </trkpt>
      <trkpt lat="49.0114" lon="7.89289">
        <ele>256.4</ele>
        <time>2024-08-25T13:59:05Z</time>
      </trkpt>
      <trkpt lat="49.01143" lon="7.8929">
        <ele>256.8</ele>
        <time>2024-08-25T13:59:06Z</time>
      </trkpt>
      <trkpt lat="49.01146" lon="7.89289">
        <ele>257</ele>
        <time>2024-08-25T13:59:07Z</time>
      </trkpt>
      <trkpt lat="49.01148" lon="7.89286">
        <ele>257.2</ele>
        <time>2024-08-25T13:59:08Z</time>
      </trkpt>
      <trkpt lat="49.0115" lon="7.89285">
        <ele>257.4</ele>
        <time>2024-08-25T13:59:09Z</time>
      </trkpt>
      <trkpt lat="49.01153" lon="7.89286">
        <ele>257.8</ele>
        <time>2024-08-25T13:59:10Z</time>
      </trkpt>
      <trkpt lat="49.01155" lon="7.89291">
        <ele>258</ele>
        <time>2024-08-25T13:59:11Z</time>
      </trkpt>
      <trkpt lat="49.01157" lon="7.89295">
        <ele>258</ele>
        <time>2024-08-25T13:59:12Z</time>
      </trkpt>
      <trkpt lat="49.0116" lon="7.89299">
        <ele>258</ele>
        <time>2024-08-25T13:59:13Z</time>
      </trkpt>
      <trkpt lat="49.01163" lon="7.89302">
        <ele>258</ele>
        <time>2024-08-25T13:59:14Z</time>
      </trkpt>
      <trkpt lat="49.01165" lon="7.89306">
        <ele>258</ele>
        <time>2024-08-25T13:59:15Z</time>
      </trkpt>
      <trkpt lat="49.01168" lon="7.89311">
        <ele>257.8</ele>
        <time>2024-08-25T13:59:16Z</time>
      </trkpt>
      <trkpt lat="49.01171" lon="7.89315">
        <ele>257.8</ele>
        <time>2024-08-25T13:59:17Z</time>
      </trkpt>
      <trkpt lat="49.01173" lon="7.89319">
        <ele>257.6</ele>
        <time>2024-08-25T13:59:18Z</time>
      </trkpt>
      <trkpt lat="49.01176" lon="7.89322">
        <ele>257.6</ele>
        <time>2024-08-25T13:59:19Z</time>
      </trkpt>
      <trkpt lat="49.01177" lon="7.89326">
        <ele>257</ele>
        <time>2024-08-25T13:59:20Z</time>
      </trkpt>
      <trkpt lat="49.01176" lon="7.89328">
        <ele>256.8</ele>
        <time>2024-08-25T13:59:21Z</time>
      </trkpt>
      <trkpt lat="49.01174" lon="7.89329">
        <ele>256.6</ele>
        <time>2024-08-25T13:59:22Z</time>
      </trkpt>
      <trkpt lat="49.01173" lon="7.8933">
        <ele>256.6</ele>
        <time>2024-08-25T13:59:23Z</time>
      </trkpt>
      <trkpt lat="49.01171" lon="7.8933">
        <ele>256.6</ele>
        <time>2024-08-25T13:59:24Z</time>
      </trkpt>
      <trkpt lat="49.0117" lon="7.89331">
        <ele>256.6</ele>
        <time>2024-08-25T13:59:25Z</time>
      </trkpt>
      <trkpt lat="49.01169" lon="7.89332">
        <ele>256.6</ele>
        <time>2024-08-25T13:59:26Z</time>
      </trkpt>
      <trkpt lat="49.01169" lon="7.89334">
        <ele>256.6</ele>
        <time>2024-08-25T13:59:27Z</time>
      </trkpt>
      <trkpt lat="49.01169" lon="7.89336">
        <ele>256.6</ele>
        <time>2024-08-25T13:59:28Z</time>
      </trkpt>
      <trkpt lat="49.0117" lon="7.89336">
        <ele>256.6</ele>
        <time>2024-08-25T13:59:29Z</time>
      </trkpt>
      <trkpt lat="49.0117" lon="7.89335">
        <ele>256.6</ele>
        <time>2024-08-25T13:59:30Z</time>
      </trkpt>
      <trkpt lat="49.01171" lon="7.89335">
        <ele>256.6</ele>
        <time>2024-08-25T13:59:31Z</time>
      </trkpt>
      <trkpt lat="49.01172" lon="7.89334">
        <ele>256.6</ele>
        <time>2024-08-25T13:59:32Z</time>
      </trkpt>
      <trkpt lat="49.01172" lon="7.89332">
        <ele>256.6</ele>
        <time>2024-08-25T13:59:33Z</time>
      </trkpt>
      <trkpt lat="49.01174" lon="7.89331">
        <ele>256.6</ele>
        <time>2024-08-25T13:59:34Z</time>
      </trkpt>
      <trkpt lat="49.01176" lon="7.89331">
        <ele>256.4</ele>
        <time>2024-08-25T13:59:35Z</time>
      </trkpt>
      <trkpt lat="49.01178" lon="7.89333">
        <ele>256.4</ele>
        <time>2024-08-25T13:59:36Z</time>
      </trkpt>
      <trkpt lat="49.01179" lon="7.89335">
        <ele>256.4</ele>
        <time>2024-08-25T13:59:37Z</time>
      </trkpt>
      <trkpt lat="49.0118" lon="7.89338">
        <ele>256.4</ele>
        <time>2024-08-25T13:59:38Z</time>
      </trkpt>
      <trkpt lat="49.01182" lon="7.8934">
        <ele>256.4</ele>
        <time>2024-08-25T13:59:39Z</time>
      </trkpt>
      <trkpt lat="49.01182" lon="7.8934">
        <ele>256.4</ele>
        <time>2024-08-25T13:59:40Z</time>
      </trkpt>
      <trkpt lat="49.01182" lon="7.89341">
        <ele>256.4</ele>
        <time>2024-08-25T13:59:41Z</time>
      </trkpt>
      <trkpt lat="49.01182" lon="7.89341">
        <ele>256.4</ele>
        <time>2024-08-25T13:59:42Z</time>
      </trkpt>
      <trkpt lat="49.01184" lon="7.89344">
        <ele>255.4</ele>
        <time>2024-08-25T14:00:43Z</time>
      </trkpt>
      <trkpt lat="49.01183" lon="7.89341">
        <ele>255.4</ele>
        <time>2024-08-25T14:00:44Z</time>
      </trkpt>
      <trkpt lat="49.01183" lon="7.89338">
        <ele>255.4</ele>
        <time>2024-08-25T14:00:45Z</time>
      </trkpt>
      <trkpt lat="49.01182" lon="7.89334">
        <ele>255.4</ele>
        <time>2024-08-25T14:00:46Z</time>
      </trkpt>
      <trkpt lat="49.0118" lon="7.89331">
        <ele>255.4</ele>
        <time>2024-08-25T14:00:47Z</time>
      </trkpt>
      <trkpt lat="49.01177" lon="7.8933">
        <ele>255.4</ele>
        <time>2024-08-25T14:00:48Z</time>
      </trkpt>
      <trkpt lat="49.01175" lon="7.8933">
        <ele>255.4</ele>
        <time>2024-08-25T14:00:49Z</time>
      </trkpt>
      <trkpt lat="49.01173" lon="7.89331">
        <ele>255.4</ele>
        <time>2024-08-25T14:00:50Z</time>
      </trkpt>
      <trkpt lat="49.01171" lon="7.89333">
        <ele>255.2</ele>
        <time>2024-08-25T14:00:51Z</time>
      </trkpt>
      <trkpt lat="49.01169" lon="7.89336">
        <ele>255.2</ele>
        <time>2024-08-25T14:00:52Z</time>
      </trkpt>
      <trkpt lat="49.01167" lon="7.89339">
        <ele>255.2</ele>
        <time>2024-08-25T14:00:53Z</time>
      </trkpt>
      <trkpt lat="49.01165" lon="7.89342">
        <ele>255</ele>
        <time>2024-08-25T14:00:54Z</time>
      </trkpt>
      <trkpt lat="49.01163" lon="7.89345">
        <ele>255</ele>
        <time>2024-08-25T14:00:55Z</time>
      </trkpt>
      <trkpt lat="49.01161" lon="7.89348">
        <ele>255</ele>
        <time>2024-08-25T14:00:56Z</time>
      </trkpt>
      <trkpt lat="49.01159" lon="7.8935">
        <ele>255</ele>
        <time>2024-08-25T14:00:57Z</time>
      </trkpt>
      <trkpt lat="49.01158" lon="7.89352">
        <ele>255</ele>
        <time>2024-08-25T14:00:58Z</time>
      </trkpt>
      <trkpt lat="49.01157" lon="7.89352">
        <ele>255</ele>
        <time>2024-08-25T14:00:59Z</time>
      </trkpt>
      <trkpt lat="49.01157" lon="7.89353">
        <ele>255</ele>
        <time>2024-08-25T14:01:00Z</time>
      </trkpt>
      <trkpt lat="49.01157" lon="7.89353">
        <ele>255</ele>
        <time>2024-08-25T14:01:01Z</time>
      </trkpt>
      <trkpt lat="49.01154" lon="7.89356">
        <ele>255.4</ele>
        <time>2024-08-25T14:01:05Z</time>
      </trkpt>
      <trkpt lat="49.01153" lon="7.89357">
        <ele>255.4</ele>
        <time>2024-08-25T14:01:06Z</time>
      </trkpt>
      <trkpt lat="49.01152" lon="7.89357">
        <ele>255.4</ele>
        <time>2024-08-25T14:01:07Z</time>
      </trkpt>
      <trkpt lat="49.01152" lon="7.89358">
        <ele>255.4</ele>
        <time>2024-08-25T14:01:08Z</time>
      </trkpt>
      <trkpt lat="49.01151" lon="7.89357">
        <ele>255.4</ele>
        <time>2024-08-25T14:01:09Z</time>
      </trkpt>
      <trkpt lat="49.0115" lon="7.89357">
        <ele>255.4</ele>
        <time>2024-08-25T14:01:10Z</time>
      </trkpt>
      <trkpt lat="49.01149" lon="7.89356">
        <ele>255.4</ele>
        <time>2024-08-25T14:01:11Z</time>
      </trkpt>
      <trkpt lat="49.01148" lon="7.89355">
        <ele>255.4</ele>
        <time>2024-08-25T14:01:12Z</time>
      </trkpt>
      <trkpt lat="49.01147" lon="7.89355">
        <ele>255.4</ele>
        <time>2024-08-25T14:01:13Z</time>
      </trkpt>
      <trkpt lat="49.01147" lon="7.89354">
        <ele>255.4</ele>
        <time>2024-08-25T14:01:14Z</time>
      </trkpt>
      <trkpt lat="49.01146" lon="7.89354">
        <ele>255.4</ele>
        <time>2024-08-25T14:01:15Z</time>
      </trkpt>
      <trkpt lat="49.01146" lon="7.89355">
        <ele>255.4</ele>
        <time>2024-08-25T14:01:16Z</time>
      </trkpt>
      <trkpt lat="49.01173" lon="7.89329">
        <ele>257.6</ele>
        <time>2024-08-25T14:36:27Z</time>
      </trkpt>
      <trkpt lat="49.01174" lon="7.89327">
        <ele>257.6</ele>
        <time>2024-08-25T14:36:28Z</time>
      </trkpt>
      <trkpt lat="49.01175" lon="7.89324">
        <ele>257.6</ele>
        <time>2024-08-25T14:36:29Z</time>
      </trkpt>
      <trkpt lat="49.01176" lon="7.8932">
        <ele>257.6</ele>
        <time>2024-08-25T14:36:30Z</time>
      </trkpt>
      <trkpt lat="49.01174" lon="7.89317">
        <ele>257.6</ele>
        <time>2024-08-25T14:36:31Z</time>
      </trkpt>
      <trkpt lat="49.01173" lon="7.89315">
        <ele>257.4</ele>
        <time>2024-08-25T14:36:32Z</time>
      </trkpt>
      <trkpt lat="49.01171" lon="7.89312">
        <ele>257.4</ele>
        <time>2024-08-25T14:36:33Z</time>
      </trkpt>
      <trkpt lat="49.01169" lon="7.89309">
        <ele>257.4</ele>
        <time>2024-08-25T14:36:34Z</time>
      </trkpt>
      <trkpt lat="49.01168" lon="7.89305">
        <ele>257.4</ele>
        <time>2024-08-25T14:36:35Z</time>
      </trkpt>
      <trkpt lat="49.01167" lon="7.89302">
        <ele>257.4</ele>
        <time>2024-08-25T14:36:36Z</time>
      </trkpt>
      <trkpt lat="49.01165" lon="7.89299">
        <ele>257.4</ele>
        <time>2024-08-25T14:36:37Z</time>
      </trkpt>
      <trkpt lat="49.01163" lon="7.89296">
        <ele>257.4</ele>
        <time>2024-08-25T14:36:38Z</time>
      </trkpt>
      <trkpt lat="49.01161" lon="7.89293">
        <ele>257.4</ele>
        <time>2024-08-25T14:36:39Z</time>
      </trkpt>
      <trkpt lat="49.0116" lon="7.8929">
        <ele>257.6</ele>
        <time>2024-08-25T14:36:40Z</time>
      </trkpt>
      <trkpt lat="49.01158" lon="7.89287">
        <ele>257.6</ele>
        <time>2024-08-25T14:36:41Z</time>
      </trkpt>
      <trkpt lat="49.01156" lon="7.89285">
        <ele>257.8</ele>
        <time>2024-08-25T14:36:42Z</time>
      </trkpt>
      <trkpt lat="49.01155" lon="7.89281">
        <ele>257.8</ele>
        <time>2024-08-25T14:36:43Z</time>
      </trkpt>
      <trkpt lat="49.01154" lon="7.89277">
        <ele>258</ele>
        <time>2024-08-25T14:36:44Z</time>
      </trkpt>
      <trkpt lat="49.01155" lon="7.89273">
        <ele>258.2</ele>
        <time>2024-08-25T14:36:45Z</time>
      </trkpt>
      <trkpt lat="49.01156" lon="7.89269">
        <ele>258.2</ele>
        <time>2024-08-25T14:36:46Z</time>
      </trkpt>
      <trkpt lat="49.01158" lon="7.89265">
        <ele>258.4</ele>
        <time>2024-08-25T14:36:47Z</time>
      </trkpt>
      <trkpt lat="49.0116" lon="7.89261">
        <ele>258.8</ele>
        <time>2024-08-25T14:36:48Z</time>
      </trkpt>
      <trkpt lat="49.01162" lon="7.89258">
        <ele>259</ele>
        <time>2024-08-25T14:36:49Z</time>
      </trkpt>
      <trkpt lat="49.01164" lon="7.89255">
        <ele>259.2</ele>
        <time>2024-08-25T14:36:50Z</time>
      </trkpt>
      <trkpt lat="49.01166" lon="7.89252">
        <ele>259.4</ele>
        <time>2024-08-25T14:36:51Z</time>
      </trkpt>
      <trkpt lat="49.01168" lon="7.89248">
        <ele>259.4</ele>
        <time>2024-08-25T14:36:52Z</time>
      </trkpt>
      <trkpt lat="49.0117" lon="7.89244">
        <ele>259.6</ele>
        <time>2024-08-25T14:36:53Z</time>
      </trkpt>
      <trkpt lat="49.01171" lon="7.89242">
        <ele>259.8</ele>
        <time>2024-08-25T14:36:54Z</time>
      </trkpt>
      <trkpt lat="49.01173" lon="7.8924">
        <ele>259.8</ele>
        <time>2024-08-25T14:36:55Z</time>
      </trkpt>
      <trkpt lat="49.01173" lon="7.89238">
        <ele>260</ele>
        <time>2024-08-25T14:36:56Z</time>
      </trkpt>
      <trkpt lat="49.01174" lon="7.89237">
        <ele>260.2</ele>
        <time>2024-08-25T14:36:57Z</time>
      </trkpt>
      <trkpt lat="49.01176" lon="7.89235">
        <ele>260.4</ele>
        <time>2024-08-25T14:36:58Z</time>
      </trkpt>
      <trkpt lat="49.01177" lon="7.89233">
        <ele>260.8</ele>
        <time>2024-08-25T14:36:59Z</time>
      </trkpt>
      <trkpt lat="49.01178" lon="7.8923">
        <ele>261</ele>
        <time>2024-08-25T14:37:00Z</time>
      </trkpt>
      <trkpt lat="49.01179" lon="7.89228">
        <ele>261.2</ele>
        <time>2024-08-25T14:37:01Z</time>
      </trkpt>
      <trkpt lat="49.0118" lon="7.89226">
        <ele>261.6</ele>
        <time>2024-08-25T14:37:02Z</time>
      </trkpt>
      <trkpt lat="49.01182" lon="7.89223">
        <ele>261.8</ele>
        <time>2024-08-25T14:37:03Z</time>
      </trkpt>
      <trkpt lat="49.01183" lon="7.8922">
        <ele>262</ele>
        <time>2024-08-25T14:37:04Z</time>
      </trkpt>
      <trkpt lat="49.01184" lon="7.89218">
        <ele>262.2</ele>
        <time>2024-08-25T14:37:05Z</time>
      </trkpt>
      <trkpt lat="49.01186" lon="7.89216">
        <ele>262.4</ele>
        <time>2024-08-25T14:37:06Z</time>
      </trkpt>
      <trkpt lat="49.01186" lon="7.89214">
        <ele>262.8</ele>
        <time>2024-08-25T14:37:07Z</time>
      </trkpt>
      <trkpt lat="49.01187" lon="7.89212">
        <ele>263</ele>
        <time>2024-08-25T14:37:08Z</time>
      </trkpt>
      <trkpt lat="49.01188" lon="7.89211">
        <ele>263.2</ele>
        <time>2024-08-25T14:37:09Z</time>
      </trkpt>
      <trkpt lat="49.01189" lon="7.89208">
        <ele>263.4</ele>
        <time>2024-08-25T14:37:10Z</time>
      </trkpt>
      <trkpt lat="49.0119" lon="7.89207">
        <ele>263.6</ele>
        <time>2024-08-25T14:37:11Z</time>
      </trkpt>
      <trkpt lat="49.01191" lon="7.89205">
        <ele>263.8</ele>
        <time>2024-08-25T14:37:12Z</time>
      </trkpt>
      <trkpt lat="49.01192" lon="7.89203">
        <ele>264</ele>
        <time>2024-08-25T14:37:13Z</time>
      </trkpt>
      <trkpt lat="49.01193" lon="7.89201">
        <ele>264.2</ele>
        <time>2024-08-25T14:37:14Z</time>
      </trkpt>
      <trkpt lat="49.01194" lon="7.89199">
        <ele>264.4</ele>
        <time>2024-08-25T14:37:15Z</time>
      </trkpt>
      <trkpt lat="49.01195" lon="7.89196">
        <ele>264.6</ele>
        <time>2024-08-25T14:37:16Z</time>
      </trkpt>
      <trkpt lat="49.01196" lon="7.89193">
        <ele>264.8</ele>
        <time>2024-08-25T14:37:17Z</time>
      </trkpt>
      <trkpt lat="49.01197" lon="7.8919">
        <ele>265</ele>
        <time>2024-08-25T14:37:18Z</time>
      </trkpt>
      <trkpt lat="49.01198" lon="7.89188">
        <ele>265.2</ele>
        <time>2024-08-25T14:37:19Z</time>
      </trkpt>
      <trkpt lat="49.012" lon="7.89186">
        <ele>265.4</ele>
        <time>2024-08-25T14:37:20Z</time>
      </trkpt>
      <trkpt lat="49.01201" lon="7.89184">
        <ele>265.6</ele>
        <time>2024-08-25T14:37:21Z</time>
      </trkpt>
      <trkpt lat="49.01202" lon="7.89182">
        <ele>265.8</ele>
        <time>2024-08-25T14:37:22Z</time>
      </trkpt>
      <trkpt lat="49.01203" lon="7.89179">
        <ele>266</ele>
        <time>2024-08-25T14:37:23Z</time>
      </trkpt>
      <trkpt lat="49.01204" lon="7.89177">
        <ele>266.2</ele>
        <time>2024-08-25T14:37:24Z</time>
      </trkpt>
      <trkpt lat="49.01205" lon="7.89175">
        <ele>266.4</ele>
        <time>2024-08-25T14:37:25Z</time>
      </trkpt>
      <trkpt lat="49.01207" lon="7.89173">
        <ele>266.6</ele>
        <time>2024-08-25T14:37:26Z</time>
      </trkpt>
      <trkpt lat="49.01208" lon="7.8917">
        <ele>267</ele>
        <time>2024-08-25T14:37:27Z</time>
      </trkpt>
      <trkpt lat="49.01209" lon="7.89167">
        <ele>267.2</ele>
        <time>2024-08-25T14:37:28Z</time>
      </trkpt>
      <trkpt lat="49.0121" lon="7.89165">
        <ele>267.6</ele>
        <time>2024-08-25T14:37:29Z</time>
      </trkpt>
      <trkpt lat="49.0121" lon="7.89163">
        <ele>267.8</ele>
        <time>2024-08-25T14:37:30Z</time>
      </trkpt>
      <trkpt lat="49.01212" lon="7.8916">
        <ele>268</ele>
        <time>2024-08-25T14:37:31Z</time>
      </trkpt>
      <trkpt lat="49.01214" lon="7.89158">
        <ele>268.2</ele>
        <time>2024-08-25T14:37:32Z</time>
      </trkpt>
      <trkpt lat="49.01215" lon="7.89156">
        <ele>268.4</ele>
        <time>2024-08-25T14:37:33Z</time>
      </trkpt>
      <trkpt lat="49.01216" lon="7.89153">
        <ele>268.8</ele>
        <time>2024-08-25T14:37:34Z</time>
      </trkpt>
      <trkpt lat="49.01217" lon="7.89151">
        <ele>269</ele>
        <time>2024-08-25T14:37:35Z</time>
      </trkpt>
      <trkpt lat="49.01218" lon="7.8915">
        <ele>269.4</ele>
        <time>2024-08-25T14:37:36Z</time>
      </trkpt>
      <trkpt lat="49.01219" lon="7.89148">
        <ele>269.6</ele>
        <time>2024-08-25T14:37:37Z</time>
      </trkpt>
      <trkpt lat="49.01219" lon="7.89146">
        <ele>269.8</ele>
        <time>2024-08-25T14:37:38Z</time>
      </trkpt>
      <trkpt lat="49.0122" lon="7.89144">
        <ele>270</ele>
        <time>2024-08-25T14:37:39Z</time>
      </trkpt>
      <trkpt lat="49.01222" lon="7.89142">
        <ele>270.2</ele>
        <time>2024-08-25T14:37:40Z</time>
      </trkpt>
      <trkpt lat="49.01224" lon="7.8914">
        <ele>270.6</ele>
        <time>2024-08-25T14:37:41Z</time>
      </trkpt>
      <trkpt lat="49.01225" lon="7.89138">
        <ele>270.8</ele>
        <time>2024-08-25T14:37:42Z</time>
      </trkpt>
      <trkpt lat="49.01225" lon="7.89136">
        <ele>271</ele>
        <time>2024-08-25T14:37:43Z</time>
      </trkpt>
      <trkpt lat="49.01226" lon="7.89134">
        <ele>271.2</ele>
        <time>2024-08-25T14:37:44Z</time>
      </trkpt>
      <trkpt lat="49.01227" lon="7.89133">
        <ele>271.6</ele>
        <time>2024-08-25T14:37:45Z</time>
      </trkpt>
      <trkpt lat="49.01228" lon="7.89132">
        <ele>271.8</ele>
        <time>2024-08-25T14:37:46Z</time>
      </trkpt>
      <trkpt lat="49.01228" lon="7.89131">
        <ele>272</ele>
        <time>2024-08-25T14:37:47Z</time>
      </trkpt>
      <trkpt lat="49.01229" lon="7.89129">
        <ele>272.4</ele>
        <time>2024-08-25T14:37:48Z</time>
      </trkpt>
      <trkpt lat="49.0123" lon="7.89127">
        <ele>272.6</ele>
        <time>2024-08-25T14:37:49Z</time>
      </trkpt>
      <trkpt lat="49.01232" lon="7.89125">
        <ele>272.8</ele>
        <time>2024-08-25T14:37:50Z</time>
      </trkpt>
      <trkpt lat="49.01232" lon="7.89124">
        <ele>273</ele>
        <time>2024-08-25T14:37:51Z</time>
      </trkpt>
      <trkpt lat="49.01233" lon="7.89122">
        <ele>273.2</ele>
        <time>2024-08-25T14:37:52Z</time>
      </trkpt>
      <trkpt lat="49.01234" lon="7.8912">
        <ele>273.4</ele>
        <time>2024-08-25T14:37:53Z</time>
      </trkpt>
      <trkpt lat="49.01235" lon="7.89119">
        <ele>273.8</ele>
        <time>2024-08-25T14:37:54Z</time>
      </trkpt>
      <trkpt lat="49.01235" lon="7.89118">
        <ele>274</ele>
        <time>2024-08-25T14:37:55Z</time>
      </trkpt>
      <trkpt lat="49.01236" lon="7.89117">
        <ele>274.2</ele>
        <time>2024-08-25T14:37:56Z</time>
      </trkpt>
      <trkpt lat="49.01237" lon="7.89115">
        <ele>274.4</ele>
        <time>2024-08-25T14:37:57Z</time>
      </trkpt>
      <trkpt lat="49.01238" lon="7.89113">
        <ele>274.6</ele>
        <time>2024-08-25T14:37:58Z</time>
      </trkpt>
      <trkpt lat="49.01238" lon="7.89112">
        <ele>274.8</ele>
        <time>2024-08-25T14:37:59Z</time>
      </trkpt>
      <trkpt lat="49.01239" lon="7.8911">
        <ele>275</ele>
        <time>2024-08-25T14:38:00Z</time>
      </trkpt>
      <trkpt lat="49.0124" lon="7.89108">
        <ele>275.2</ele>
        <time>2024-08-25T14:38:01Z</time>
      </trkpt>
      <trkpt lat="49.01241" lon="7.89107">
        <ele>275.2</ele>
        <time>2024-08-25T14:38:02Z</time>
      </trkpt>
      <trkpt lat="49.01241" lon="7.89104">
        <ele>275.4</ele>
        <time>2024-08-25T14:38:03Z</time>
      </trkpt>
      <trkpt lat="49.01243" lon="7.89103">
        <ele>275.6</ele>
        <time>2024-08-25T14:38:04Z</time>
      </trkpt>
      <trkpt lat="49.01244" lon="7.89101">
        <ele>275.8</ele>
        <time>2024-08-25T14:38:05Z</time>
      </trkpt>
      <trkpt lat="49.01245" lon="7.89099">
        <ele>276</ele>
        <time>2024-08-25T14:38:06Z</time>
      </trkpt>
      <trkpt lat="49.01245" lon="7.89098">
        <ele>276.2</ele>
        <time>2024-08-25T14:38:07Z</time>
      </trkpt>
      <trkpt lat="49.01246" lon="7.89096">
        <ele>276.4</ele>
        <time>2024-08-25T14:38:08Z</time>
      </trkpt>
      <trkpt lat="49.01247" lon="7.89095">
        <ele>276.6</ele>
        <time>2024-08-25T14:38:09Z</time>
      </trkpt>
      <trkpt lat="49.01248" lon="7.89093">
        <ele>276.8</ele>
        <time>2024-08-25T14:38:10Z</time>
      </trkpt>
      <trkpt lat="49.01248" lon="7.89091">
        <ele>277</ele>
        <time>2024-08-25T14:38:11Z</time>
      </trkpt>
      <trkpt lat="49.01249" lon="7.89089">
        <ele>277.2</ele>
        <time>2024-08-25T14:38:12Z</time>
      </trkpt>
      <trkpt lat="49.0125" lon="7.89086">
        <ele>277.4</ele>
        <time>2024-08-25T14:38:13Z</time>
      </trkpt>
      <trkpt lat="49.01251" lon="7.89084">
        <ele>277.6</ele>
        <time>2024-08-25T14:38:14Z</time>
      </trkpt>
      <trkpt lat="49.01252" lon="7.89081">
        <ele>277.8</ele>
        <time>2024-08-25T14:38:15Z</time>
      </trkpt>
      <trkpt lat="49.01253" lon="7.8908">
        <ele>278</ele>
        <time>2024-08-25T14:38:16Z</time>
      </trkpt>
      <trkpt lat="49.01254" lon="7.89079">
        <ele>278</ele>
        <time>2024-08-25T14:38:17Z</time>
      </trkpt>
      <trkpt lat="49.01256" lon="7.89077">
        <ele>278.2</ele>
        <time>2024-08-25T14:38:18Z</time>
      </trkpt>
      <trkpt lat="49.01256" lon="7.89075">
        <ele>278.4</ele>
        <time>2024-08-25T14:38:19Z</time>
      </trkpt>
      <trkpt lat="49.01257" lon="7.89073">
        <ele>278.6</ele>
        <time>2024-08-25T14:38:20Z</time>
      </trkpt>
      <trkpt lat="49.01257" lon="7.89072">
        <ele>278.8</ele>
        <time>2024-08-25T14:38:21Z</time>
      </trkpt>
      <trkpt lat="49.01259" lon="7.8907">
        <ele>279</ele>
        <time>2024-08-25T14:38:22Z</time>
      </trkpt>
      <trkpt lat="49.0126" lon="7.89069">
        <ele>279.2</ele>
        <time>2024-08-25T14:38:23Z</time>
      </trkpt>
      <trkpt lat="49.0126" lon="7.89067">
        <ele>279.2</ele>
        <time>2024-08-25T14:38:24Z</time>
      </trkpt>
      <trkpt lat="49.01261" lon="7.89066">
        <ele>279.4</ele>
        <time>2024-08-25T14:38:25Z</time>
      </trkpt>
      <trkpt lat="49.01262" lon="7.89064">
        <ele>279.6</ele>
        <time>2024-08-25T14:38:26Z</time>
      </trkpt>
      <trkpt lat="49.01263" lon="7.89063">
        <ele>279.8</ele>
        <time>2024-08-25T14:38:27Z</time>
      </trkpt>
      <trkpt lat="49.01263" lon="7.89061">
        <ele>280</ele>
        <time>2024-08-25T14:38:28Z</time>
      </trkpt>
      <trkpt lat="49.01264" lon="7.8906">
        <ele>280.2</ele>
        <time>2024-08-25T14:38:29Z</time>
      </trkpt>
      <trkpt lat="49.01265" lon="7.89058">
        <ele>280.4</ele>
        <time>2024-08-25T14:38:30Z</time>
      </trkpt>
      <trkpt lat="49.01265" lon="7.89057">
        <ele>280.6</ele>
        <time>2024-08-25T14:38:31Z</time>
      </trkpt>
      <trkpt lat="49.01266" lon="7.89056">
        <ele>280.8</ele>
        <time>2024-08-25T14:38:32Z</time>
      </trkpt>
      <trkpt lat="49.01267" lon="7.89054">
        <ele>281</ele>
        <time>2024-08-25T14:38:33Z</time>
      </trkpt>
      <trkpt lat="49.01268" lon="7.89051">
        <ele>281.2</ele>
        <time>2024-08-25T14:38:34Z</time>
      </trkpt>
      <trkpt lat="49.01269" lon="7.89049">
        <ele>281.2</ele>
        <time>2024-08-25T14:38:35Z</time>
      </trkpt>
      <trkpt lat="49.0127" lon="7.89046">
        <ele>281.4</ele>
        <time>2024-08-25T14:38:36Z</time>
      </trkpt>
      <trkpt lat="49.01271" lon="7.89044">
        <ele>281.8</ele>
        <time>2024-08-25T14:38:37Z</time>
      </trkpt>
      <trkpt lat="49.01272" lon="7.89042">
        <ele>281.8</ele>
        <time>2024-08-25T14:38:38Z</time>
      </trkpt>
      <trkpt lat="49.01272" lon="7.8904">
        <ele>282</ele>
        <time>2024-08-25T14:38:39Z</time>
      </trkpt>
      <trkpt lat="49.01272" lon="7.89038">
        <ele>282.2</ele>
        <time>2024-08-25T14:38:40Z</time>
      </trkpt>
      <trkpt lat="49.01273" lon="7.89036">
        <ele>282.4</ele>
        <time>2024-08-25T14:38:41Z</time>
      </trkpt>
      <trkpt lat="49.01274" lon="7.89033">
        <ele>282.6</ele>
        <time>2024-08-25T14:38:42Z</time>
      </trkpt>
      <trkpt lat="49.01274" lon="7.89032">
        <ele>282.8</ele>
        <time>2024-08-25T14:38:43Z</time>
      </trkpt>
      <trkpt lat="49.01274" lon="7.8903">
        <ele>283</ele>
        <time>2024-08-25T14:38:44Z</time>
      </trkpt>
      <trkpt lat="49.01273" lon="7.89028">
        <ele>283.2</ele>
        <time>2024-08-25T14:38:45Z</time>
      </trkpt>
      <trkpt lat="49.01273" lon="7.89026">
        <ele>283.4</ele>
        <time>2024-08-25T14:38:46Z</time>
      </trkpt>
      <trkpt lat="49.01272" lon="7.89023">
        <ele>283.6</ele>
        <time>2024-08-25T14:38:47Z</time>
      </trkpt>
      <trkpt lat="49.01271" lon="7.89022">
        <ele>283.8</ele>
        <time>2024-08-25T14:38:48Z</time>
      </trkpt>
      <trkpt lat="49.0127" lon="7.89019">
        <ele>284.2</ele>
        <time>2024-08-25T14:38:49Z</time>
      </trkpt>
      <trkpt lat="49.01269" lon="7.89017">
        <ele>284.4</ele>
        <time>2024-08-25T14:38:50Z</time>
      </trkpt>
      <trkpt lat="49.01269" lon="7.89015">
        <ele>284.6</ele>
        <time>2024-08-25T14:38:51Z</time>
      </trkpt>
      <trkpt lat="49.01268" lon="7.89013">
        <ele>284.8</ele>
        <time>2024-08-25T14:38:52Z</time>
      </trkpt>
      <trkpt lat="49.01268" lon="7.89011">
        <ele>285</ele>
        <time>2024-08-25T14:38:53Z</time>
      </trkpt>
      <trkpt lat="49.01267" lon="7.89009">
        <ele>285</ele>
        <time>2024-08-25T14:38:54Z</time>
      </trkpt>
      <trkpt lat="49.01267" lon="7.89007">
        <ele>285.2</ele>
        <time>2024-08-25T14:38:55Z</time>
      </trkpt>
      <trkpt lat="49.01266" lon="7.89005">
        <ele>285.2</ele>
        <time>2024-08-25T14:38:56Z</time>
      </trkpt>
      <trkpt lat="49.01265" lon="7.89003">
        <ele>285.4</ele>
        <time>2024-08-25T14:38:57Z</time>
      </trkpt>
      <trkpt lat="49.01265" lon="7.89">
        <ele>285.6</ele>
        <time>2024-08-25T14:38:58Z</time>
      </trkpt>
      <trkpt lat="49.01264" lon="7.88998">
        <ele>285.8</ele>
        <time>2024-08-25T14:38:59Z</time>
      </trkpt>
      <trkpt lat="49.01263" lon="7.88997">
        <ele>285.8</ele>
        <time>2024-08-25T14:39:00Z</time>
      </trkpt>
      <trkpt lat="49.01262" lon="7.88995">
        <ele>286</ele>
        <time>2024-08-25T14:39:01Z</time>
      </trkpt>
      <trkpt lat="49.01262" lon="7.88992">
        <ele>286.2</ele>
        <time>2024-08-25T14:39:02Z</time>
      </trkpt>
      <trkpt lat="49.01261" lon="7.8899">
        <ele>286.2</ele>
        <time>2024-08-25T14:39:03Z</time>
      </trkpt>
      <trkpt lat="49.0126" lon="7.88987">
        <ele>286.4</ele>
        <time>2024-08-25T14:39:04Z</time>
      </trkpt>
      <trkpt lat="49.01259" lon="7.88985">
        <ele>286.6</ele>
        <time>2024-08-25T14:39:05Z</time>
      </trkpt>
      <trkpt lat="49.01259" lon="7.88983">
        <ele>286.8</ele>
        <time>2024-08-25T14:39:06Z</time>
      </trkpt>
      <trkpt lat="49.01258" lon="7.88981">
        <ele>287</ele>
        <time>2024-08-25T14:39:07Z</time>
      </trkpt>
      <trkpt lat="49.01257" lon="7.88979">
        <ele>287.2</ele>
        <time>2024-08-25T14:39:08Z</time>
      </trkpt>
      <trkpt lat="49.01257" lon="7.88977">
        <ele>287.4</ele>
        <time>2024-08-25T14:39:09Z</time>
      </trkpt>
      <trkpt lat="49.01256" lon="7.88975">
        <ele>287.6</ele>
        <time>2024-08-25T14:39:10Z</time>
      </trkpt>
      <trkpt lat="49.01255" lon="7.88974">
        <ele>287.8</ele>
        <time>2024-08-25T14:39:11Z</time>
      </trkpt>
      <trkpt lat="49.01253" lon="7.88972">
        <ele>288</ele>
        <time>2024-08-25T14:39:12Z</time>
      </trkpt>
      <trkpt lat="49.01252" lon="7.8897">
        <ele>288.2</ele>
        <time>2024-08-25T14:39:13Z</time>
      </trkpt>
      <trkpt lat="49.01251" lon="7.88967">
        <ele>288.4</ele>
        <time>2024-08-25T14:39:14Z</time>
      </trkpt>
      <trkpt lat="49.0125" lon="7.88964">
        <ele>288.6</ele>
        <time>2024-08-25T14:39:15Z</time>
      </trkpt>
      <trkpt lat="49.01249" lon="7.88961">
        <ele>288.8</ele>
        <time>2024-08-25T14:39:16Z</time>
      </trkpt>
      <trkpt lat="49.01249" lon="7.88959">
        <ele>289</ele>
        <time>2024-08-25T14:39:17Z</time>
      </trkpt>
      <trkpt lat="49.01248" lon="7.88956">
        <ele>289.2</ele>
        <time>2024-08-25T14:39:18Z</time>
      </trkpt>
      <trkpt lat="49.01247" lon="7.88954">
        <ele>289.4</ele>
        <time>2024-08-25T14:39:19Z</time>
      </trkpt>
      <trkpt lat="49.01246" lon="7.88952">
        <ele>289.6</ele>
        <time>2024-08-25T14:39:20Z</time>
      </trkpt>
      <trkpt lat="49.01245" lon="7.8895">
        <ele>289.8</ele>
        <time>2024-08-25T14:39:21Z</time>
      </trkpt>
      <trkpt lat="49.01244" lon="7.88949">
        <ele>290</ele>
        <time>2024-08-25T14:39:22Z</time>
      </trkpt>
      <trkpt lat="49.01244" lon="7.88947">
        <ele>290.2</ele>
        <time>2024-08-25T14:39:23Z</time>
      </trkpt>
      <trkpt lat="49.01243" lon="7.88945">
        <ele>290.4</ele>
        <time>2024-08-25T14:39:24Z</time>
      </trkpt>
      <trkpt lat="49.01242" lon="7.88943">
        <ele>290.6</ele>
        <time>2024-08-25T14:39:25Z</time>
      </trkpt>
      <trkpt lat="49.01241" lon="7.88941">
        <ele>290.8</ele>
        <time>2024-08-25T14:39:26Z</time>
      </trkpt>
      <trkpt lat="49.0124" lon="7.88939">
        <ele>291</ele>
        <time>2024-08-25T14:39:27Z</time>
      </trkpt>
      <trkpt lat="49.01239" lon="7.88937">
        <ele>291.2</ele>
        <time>2024-08-25T14:39:28Z</time>
      </trkpt>
      <trkpt lat="49.01239" lon="7.88935">
        <ele>291.4</ele>
        <time>2024-08-25T14:39:29Z</time>
      </trkpt>
      <trkpt lat="49.01238" lon="7.88933">
        <ele>291.4</ele>
        <time>2024-08-25T14:39:30Z</time>
      </trkpt>
      <trkpt lat="49.01236" lon="7.88931">
        <ele>291.6</ele>
        <time>2024-08-25T14:39:31Z</time>
      </trkpt>
      <trkpt lat="49.01235" lon="7.88929">
        <ele>291.8</ele>
        <time>2024-08-25T14:39:32Z</time>
      </trkpt>
      <trkpt lat="49.01234" lon="7.88927">
        <ele>291.8</ele>
        <time>2024-08-25T14:39:33Z</time>
      </trkpt>
      <trkpt lat="49.01233" lon="7.88924">
        <ele>292</ele>
        <time>2024-08-25T14:39:34Z</time>
      </trkpt>
      <trkpt lat="49.01232" lon="7.88921">
        <ele>292</ele>
        <time>2024-08-25T14:39:35Z</time>
      </trkpt>
      <trkpt lat="49.01231" lon="7.88919">
        <ele>292</ele>
        <time>2024-08-25T14:39:36Z</time>
      </trkpt>
      <trkpt lat="49.0123" lon="7.88916">
        <ele>292.2</ele>
        <time>2024-08-25T14:39:37Z</time>
      </trkpt>
      <trkpt lat="49.01229" lon="7.88913">
        <ele>292.2</ele>
        <time>2024-08-25T14:39:38Z</time>
      </trkpt>
      <trkpt lat="49.01228" lon="7.8891">
        <ele>292.4</ele>
        <time>2024-08-25T14:39:39Z</time>
      </trkpt>
      <trkpt lat="49.01227" lon="7.88907">
        <ele>292.4</ele>
        <time>2024-08-25T14:39:40Z</time>
      </trkpt>
      <trkpt lat="49.01227" lon="7.88905">
        <ele>292.6</ele>
        <time>2024-08-25T14:39:41Z</time>
      </trkpt>
      <trkpt lat="49.01226" lon="7.88902">
        <ele>292.8</ele>
        <time>2024-08-25T14:39:42Z</time>
      </trkpt>
      <trkpt lat="49.01225" lon="7.88899">
        <ele>292.8</ele>
        <time>2024-08-25T14:39:43Z</time>
      </trkpt>
      <trkpt lat="49.01224" lon="7.88896">
        <ele>292.8</ele>
        <time>2024-08-25T14:39:44Z</time>
      </trkpt>
      <trkpt lat="49.01223" lon="7.88894">
        <ele>293</ele>
        <time>2024-08-25T14:39:45Z</time>
      </trkpt>
      <trkpt lat="49.01222" lon="7.88891">
        <ele>293.2</ele>
        <time>2024-08-25T14:39:46Z</time>
      </trkpt>
      <trkpt lat="49.01221" lon="7.88888">
        <ele>293.2</ele>
        <time>2024-08-25T14:39:47Z</time>
      </trkpt>
      <trkpt lat="49.0122" lon="7.88885">
        <ele>293.4</ele>
        <time>2024-08-25T14:39:48Z</time>
      </trkpt>
      <trkpt lat="49.01219" lon="7.88882">
        <ele>293.6</ele>
        <time>2024-08-25T14:39:49Z</time>
      </trkpt>
      <trkpt lat="49.01218" lon="7.8888">
        <ele>293.8</ele>
        <time>2024-08-25T14:39:50Z</time>
      </trkpt>
      <trkpt lat="49.01217" lon="7.88877">
        <ele>293.8</ele>
        <time>2024-08-25T14:39:51Z</time>
      </trkpt>
      <trkpt lat="49.01215" lon="7.88875">
        <ele>294</ele>
        <time>2024-08-25T14:39:52Z</time>
      </trkpt>
      <trkpt lat="49.01214" lon="7.88873">
        <ele>294.2</ele>
        <time>2024-08-25T14:39:53Z</time>
      </trkpt>
      <trkpt lat="49.01212" lon="7.8887">
        <ele>294.4</ele>
        <time>2024-08-25T14:39:54Z</time>
      </trkpt>
      <trkpt lat="49.01211" lon="7.88868">
        <ele>294.4</ele>
        <time>2024-08-25T14:39:55Z</time>
      </trkpt>
      <trkpt lat="49.01211" lon="7.88866">
        <ele>294.6</ele>
        <time>2024-08-25T14:39:56Z</time>
      </trkpt>
      <trkpt lat="49.0121" lon="7.88863">
        <ele>294.6</ele>
        <time>2024-08-25T14:39:57Z</time>
      </trkpt>
      <trkpt lat="49.0121" lon="7.88861">
        <ele>294.8</ele>
        <time>2024-08-25T14:39:58Z</time>
      </trkpt>
      <trkpt lat="49.01209" lon="7.88858">
        <ele>295</ele>
        <time>2024-08-25T14:39:59Z</time>
      </trkpt>
      <trkpt lat="49.01209" lon="7.88857">
        <ele>295</ele>
        <time>2024-08-25T14:40:00Z</time>
      </trkpt>
      <trkpt lat="49.01208" lon="7.88853">
        <ele>295.2</ele>
        <time>2024-08-25T14:40:01Z</time>
      </trkpt>
      <trkpt lat="49.01207" lon="7.8885">
        <ele>295.2</ele>
        <time>2024-08-25T14:40:02Z</time>
      </trkpt>
      <trkpt lat="49.01207" lon="7.88847">
        <ele>295.4</ele>
        <time>2024-08-25T14:40:03Z</time>
      </trkpt>
      <trkpt lat="49.01206" lon="7.88844">
        <ele>295.6</ele>
        <time>2024-08-25T14:40:04Z</time>
      </trkpt>
      <trkpt lat="49.01206" lon="7.88841">
        <ele>295.8</ele>
        <time>2024-08-25T14:40:05Z</time>
      </trkpt>
      <trkpt lat="49.01207" lon="7.88838">
        <ele>296</ele>
        <time>2024-08-25T14:40:06Z</time>
      </trkpt>
      <trkpt lat="49.01207" lon="7.88835">
        <ele>296.2</ele>
        <time>2024-08-25T14:40:07Z</time>
      </trkpt>
      <trkpt lat="49.01208" lon="7.88832">
        <ele>296.4</ele>
        <time>2024-08-25T14:40:08Z</time>
      </trkpt>
      <trkpt lat="49.01209" lon="7.88829">
        <ele>296.6</ele>
        <time>2024-08-25T14:40:09Z</time>
      </trkpt>
      <trkpt lat="49.01209" lon="7.88826">
        <ele>296.8</ele>
        <time>2024-08-25T14:40:10Z</time>
      </trkpt>
      <trkpt lat="49.0121" lon="7.88824">
        <ele>297</ele>
        <time>2024-08-25T14:40:11Z</time>
      </trkpt>
      <trkpt lat="49.01212" lon="7.88821">
        <ele>297.2</ele>
        <time>2024-08-25T14:40:12Z</time>
      </trkpt>
      <trkpt lat="49.01213" lon="7.88819">
        <ele>297.2</ele>
        <time>2024-08-25T14:40:13Z</time>
      </trkpt>
      <trkpt lat="49.01214" lon="7.88816">
        <ele>297.6</ele>
        <time>2024-08-25T14:40:14Z</time>
      </trkpt>
      <trkpt lat="49.01215" lon="7.88814">
        <ele>297.6</ele>
        <time>2024-08-25T14:40:15Z</time>
      </trkpt>
      <trkpt lat="49.01216" lon="7.88812">
        <ele>298</ele>
        <time>2024-08-25T14:40:16Z</time>
      </trkpt>
      <trkpt lat="49.01217" lon="7.8881">
        <ele>298</ele>
        <time>2024-08-25T14:40:17Z</time>
      </trkpt>
      <trkpt lat="49.01218" lon="7.88808">
        <ele>298.2</ele>
        <time>2024-08-25T14:40:18Z</time>
      </trkpt>
      <trkpt lat="49.01219" lon="7.88807">
        <ele>298.4</ele>
        <time>2024-08-25T14:40:19Z</time>
      </trkpt>
      <trkpt lat="49.0122" lon="7.88805">
        <ele>298.6</ele>
        <time>2024-08-25T14:40:20Z</time>
      </trkpt>
      <trkpt lat="49.01222" lon="7.88803">
        <ele>298.6</ele>
        <time>2024-08-25T14:40:21Z</time>
      </trkpt>
      <trkpt lat="49.01223" lon="7.888">
        <ele>298.6</ele>
        <time>2024-08-25T14:40:22Z</time>
      </trkpt>
      <trkpt lat="49.01224" lon="7.88798">
        <ele>299</ele>
        <time>2024-08-25T14:40:23Z</time>
      </trkpt>
      <trkpt lat="49.01225" lon="7.88796">
        <ele>299.2</ele>
        <time>2024-08-25T14:40:24Z</time>
      </trkpt>
      <trkpt lat="49.01227" lon="7.88793">
        <ele>299.2</ele>
        <time>2024-08-25T14:40:25Z</time>
      </trkpt>
      <trkpt lat="49.01228" lon="7.88791">
        <ele>299.4</ele>
        <time>2024-08-25T14:40:26Z</time>
      </trkpt>
      <trkpt lat="49.01229" lon="7.88788">
        <ele>299.4</ele>
        <time>2024-08-25T14:40:27Z</time>
      </trkpt>
      <trkpt lat="49.0123" lon="7.88787">
        <ele>299.6</ele>
        <time>2024-08-25T14:40:28Z</time>
      </trkpt>
      <trkpt lat="49.01231" lon="7.88785">
        <ele>299.8</ele>
        <time>2024-08-25T14:40:29Z</time>
      </trkpt>
      <trkpt lat="49.01232" lon="7.88783">
        <ele>299.8</ele>
        <time>2024-08-25T14:40:30Z</time>
      </trkpt>
      <trkpt lat="49.01233" lon="7.88781">
        <ele>300.2</ele>
        <time>2024-08-25T14:40:31Z</time>
      </trkpt>
      <trkpt lat="49.01235" lon="7.88779">
        <ele>300.2</ele>
        <time>2024-08-25T14:40:32Z</time>
      </trkpt>
      <trkpt lat="49.01236" lon="7.88776">
        <ele>300.2</ele>
        <time>2024-08-25T14:40:33Z</time>
      </trkpt>
      <trkpt lat="49.01237" lon="7.88774">
        <ele>300.4</ele>
        <time>2024-08-25T14:40:34Z</time>
      </trkpt>
      <trkpt lat="49.01238" lon="7.88772">
        <ele>300.6</ele>
        <time>2024-08-25T14:40:35Z</time>
      </trkpt>
      <trkpt lat="49.01239" lon="7.8877">
        <ele>300.6</ele>
        <time>2024-08-25T14:40:36Z</time>
      </trkpt>
      <trkpt lat="49.0124" lon="7.88767">
        <ele>300.8</ele>
        <time>2024-08-25T14:40:37Z</time>
      </trkpt>
      <trkpt lat="49.0124" lon="7.88765">
        <ele>301</ele>
        <time>2024-08-25T14:40:38Z</time>
      </trkpt>
      <trkpt lat="49.01241" lon="7.88763">
        <ele>301</ele>
        <time>2024-08-25T14:40:39Z</time>
      </trkpt>
      <trkpt lat="49.01243" lon="7.88761">
        <ele>301.2</ele>
        <time>2024-08-25T14:40:40Z</time>
      </trkpt>
      <trkpt lat="49.01244" lon="7.88758">
        <ele>301.2</ele>
        <time>2024-08-25T14:40:41Z</time>
      </trkpt>
      <trkpt lat="49.01245" lon="7.88756">
        <ele>301.4</ele>
        <time>2024-08-25T14:40:42Z</time>
      </trkpt>
      <trkpt lat="49.01245" lon="7.88754">
        <ele>301.6</ele>
        <time>2024-08-25T14:40:43Z</time>
      </trkpt>
      <trkpt lat="49.01246" lon="7.88753">
        <ele>301.8</ele>
        <time>2024-08-25T14:40:44Z</time>
      </trkpt>
      <trkpt lat="49.01246" lon="7.88752">
        <ele>301.8</ele>
        <time>2024-08-25T14:40:45Z</time>
      </trkpt>
      <trkpt lat="49.01248" lon="7.88751">
        <ele>302</ele>
        <time>2024-08-25T14:40:46Z</time>
      </trkpt>
      <trkpt lat="49.01248" lon="7.8875">
        <ele>302</ele>
        <time>2024-08-25T14:40:47Z</time>
      </trkpt>
      <trkpt lat="49.01248" lon="7.88748">
        <ele>302.2</ele>
        <time>2024-08-25T14:40:48Z</time>
      </trkpt>
      <trkpt lat="49.01248" lon="7.88746">
        <ele>302.4</ele>
        <time>2024-08-25T14:40:49Z</time>
      </trkpt>
      <trkpt lat="49.01248" lon="7.88745">
        <ele>302.4</ele>
        <time>2024-08-25T14:40:50Z</time>
      </trkpt>
      <trkpt lat="49.01249" lon="7.88743">
        <ele>302.6</ele>
        <time>2024-08-25T14:40:51Z</time>
      </trkpt>
      <trkpt lat="49.0125" lon="7.88741">
        <ele>302.6</ele>
        <time>2024-08-25T14:40:52Z</time>
      </trkpt>
      <trkpt lat="49.01251" lon="7.8874">
        <ele>302.6</ele>
        <time>2024-08-25T14:40:53Z</time>
      </trkpt>
      <trkpt lat="49.01252" lon="7.88739">
        <ele>302.6</ele>
        <time>2024-08-25T14:40:54Z</time>
      </trkpt>
      <trkpt lat="49.01253" lon="7.88738">
        <ele>302.8</ele>
        <time>2024-08-25T14:40:55Z</time>
      </trkpt>
      <trkpt lat="49.01253" lon="7.88736">
        <ele>303</ele>
        <time>2024-08-25T14:40:56Z</time>
      </trkpt>
      <trkpt lat="49.01254" lon="7.88734">
        <ele>303</ele>
        <time>2024-08-25T14:40:57Z</time>
      </trkpt>
      <trkpt lat="49.01256" lon="7.88732">
        <ele>303.2</ele>
        <time>2024-08-25T14:40:58Z</time>
      </trkpt>
      <trkpt lat="49.01257" lon="7.8873">
        <ele>303.2</ele>
        <time>2024-08-25T14:40:59Z</time>
      </trkpt>
      <trkpt lat="49.01259" lon="7.88728">
        <ele>303.2</ele>
        <time>2024-08-25T14:41:00Z</time>
      </trkpt>
      <trkpt lat="49.0126" lon="7.88725">
        <ele>303.4</ele>
        <time>2024-08-25T14:41:01Z</time>
      </trkpt>
      <trkpt lat="49.01262" lon="7.88724">
        <ele>303.4</ele>
        <time>2024-08-25T14:41:02Z</time>
      </trkpt>
      <trkpt lat="49.01264" lon="7.88722">
        <ele>303.6</ele>
        <time>2024-08-25T14:41:03Z</time>
      </trkpt>
      <trkpt lat="49.01265" lon="7.8872">
        <ele>303.6</ele>
        <time>2024-08-25T14:41:04Z</time>
      </trkpt>
      <trkpt lat="49.01266" lon="7.88718">
        <ele>303.8</ele>
        <time>2024-08-25T14:41:05Z</time>
      </trkpt>
      <trkpt lat="49.01268" lon="7.88717">
        <ele>304</ele>
        <time>2024-08-25T14:41:06Z</time>
      </trkpt>
      <trkpt lat="49.01269" lon="7.88716">
        <ele>304</ele>
        <time>2024-08-25T14:41:07Z</time>
      </trkpt>
      <trkpt lat="49.01271" lon="7.88714">
        <ele>304</ele>
        <time>2024-08-25T14:41:08Z</time>
      </trkpt>
      <trkpt lat="49.01272" lon="7.88713">
        <ele>304.2</ele>
        <time>2024-08-25T14:41:09Z</time>
      </trkpt>
      <trkpt lat="49.01273" lon="7.88711">
        <ele>304.2</ele>
        <time>2024-08-25T14:41:10Z</time>
      </trkpt>
      <trkpt lat="49.01275" lon="7.88711">
        <ele>304.4</ele>
        <time>2024-08-25T14:41:11Z</time>
      </trkpt>
      <trkpt lat="49.01277" lon="7.88709">
        <ele>304.6</ele>
        <time>2024-08-25T14:41:12Z</time>
      </trkpt>
      <trkpt lat="49.01278" lon="7.88707">
        <ele>304.6</ele>
        <time>2024-08-25T14:41:13Z</time>
      </trkpt>
      <trkpt lat="49.0128" lon="7.88706">
        <ele>304.8</ele>
        <time>2024-08-25T14:41:14Z</time>
      </trkpt>
      <trkpt lat="49.01282" lon="7.88706">
        <ele>305</ele>
        <time>2024-08-25T14:41:15Z</time>
      </trkpt>
      <trkpt lat="49.01284" lon="7.88705">
        <ele>305</ele>
        <time>2024-08-25T14:41:16Z</time>
      </trkpt>
      <trkpt lat="49.01285" lon="7.88704">
        <ele>305</ele>
        <time>2024-08-25T14:41:17Z</time>
      </trkpt>
      <trkpt lat="49.01287" lon="7.88703">
        <ele>305.4</ele>
        <time>2024-08-25T14:41:18Z</time>
      </trkpt>
      <trkpt lat="49.01289" lon="7.88702">
        <ele>305.4</ele>
        <time>2024-08-25T14:41:19Z</time>
      </trkpt>
      <trkpt lat="49.01291" lon="7.88702">
        <ele>305.6</ele>
        <time>2024-08-25T14:41:20Z</time>
      </trkpt>
      <trkpt lat="49.01293" lon="7.88702">
        <ele>305.6</ele>
        <time>2024-08-25T14:41:21Z</time>
      </trkpt>
      <trkpt lat="49.01295" lon="7.88702">
        <ele>305.6</ele>
        <time>2024-08-25T14:41:22Z</time>
      </trkpt>
      <trkpt lat="49.01298" lon="7.88702">
        <ele>305.8</ele>
        <time>2024-08-25T14:41:23Z</time>
      </trkpt>
      <trkpt lat="49.013" lon="7.88702">
        <ele>305.8</ele>
        <time>2024-08-25T14:41:24Z</time>
      </trkpt>
      <trkpt lat="49.01302" lon="7.88701">
        <ele>306</ele>
        <time>2024-08-25T14:41:25Z</time>
      </trkpt>
      <trkpt lat="49.01304" lon="7.887">
        <ele>306.2</ele>
        <time>2024-08-25T14:41:26Z</time>
      </trkpt>
      <trkpt lat="49.01306" lon="7.887">
        <ele>306.2</ele>
        <time>2024-08-25T14:41:27Z</time>
      </trkpt>
      <trkpt lat="49.01307" lon="7.887">
        <ele>306.4</ele>
        <time>2024-08-25T14:41:28Z</time>
      </trkpt>
      <trkpt lat="49.01309" lon="7.887">
        <ele>306.6</ele>
        <time>2024-08-25T14:41:29Z</time>
      </trkpt>
      <trkpt lat="49.01311" lon="7.887">
        <ele>306.6</ele>
        <time>2024-08-25T14:41:30Z</time>
      </trkpt>
      <trkpt lat="49.01314" lon="7.88699">
        <ele>306.8</ele>
        <time>2024-08-25T14:41:31Z</time>
      </trkpt>
      <trkpt lat="49.01315" lon="7.88699">
        <ele>307</ele>
        <time>2024-08-25T14:41:32Z</time>
      </trkpt>
      <trkpt lat="49.01317" lon="7.88699">
        <ele>307.2</ele>
        <time>2024-08-25T14:41:33Z</time>
      </trkpt>
      <trkpt lat="49.01319" lon="7.88699">
        <ele>307.4</ele>
        <time>2024-08-25T14:41:34Z</time>
      </trkpt>
      <trkpt lat="49.01321" lon="7.887">
        <ele>307.6</ele>
        <time>2024-08-25T14:41:35Z</time>
      </trkpt>
      <trkpt lat="49.01323" lon="7.887">
        <ele>307.6</ele>
        <time>2024-08-25T14:41:36Z</time>
      </trkpt>
      <trkpt lat="49.01325" lon="7.887">
        <ele>307.8</ele>
        <time>2024-08-25T14:41:37Z</time>
      </trkpt>
      <trkpt lat="49.01327" lon="7.88701">
        <ele>308</ele>
        <time>2024-08-25T14:41:38Z</time>
      </trkpt>
      <trkpt lat="49.01329" lon="7.88701">
        <ele>308</ele>
        <time>2024-08-25T14:41:39Z</time>
      </trkpt>
      <trkpt lat="49.01331" lon="7.88702">
        <ele>308.2</ele>
        <time>2024-08-25T14:41:40Z</time>
      </trkpt>
      <trkpt lat="49.01333" lon="7.88703">
        <ele>308.2</ele>
        <time>2024-08-25T14:41:41Z</time>
      </trkpt>
      <trkpt lat="49.01335" lon="7.88703">
        <ele>308.4</ele>
        <time>2024-08-25T14:41:42Z</time>
      </trkpt>
      <trkpt lat="49.01337" lon="7.88704">
        <ele>308.6</ele>
        <time>2024-08-25T14:41:43Z</time>
      </trkpt>
      <trkpt lat="49.01339" lon="7.88705">
        <ele>308.8</ele>
        <time>2024-08-25T14:41:44Z</time>
      </trkpt>
      <trkpt lat="49.0134" lon="7.88706">
        <ele>308.8</ele>
        <time>2024-08-25T14:41:45Z</time>
      </trkpt>
      <trkpt lat="49.01342" lon="7.88708">
        <ele>309</ele>
        <time>2024-08-25T14:41:46Z</time>
      </trkpt>
      <trkpt lat="49.01344" lon="7.88709">
        <ele>309.2</ele>
        <time>2024-08-25T14:41:47Z</time>
      </trkpt>
      <trkpt lat="49.01346" lon="7.8871">
        <ele>309.4</ele>
        <time>2024-08-25T14:41:48Z</time>
      </trkpt>
      <trkpt lat="49.01348" lon="7.88711">
        <ele>309.4</ele>
        <time>2024-08-25T14:41:49Z</time>
      </trkpt>
      <trkpt lat="49.0135" lon="7.88712">
        <ele>309.6</ele>
        <time>2024-08-25T14:41:50Z</time>
      </trkpt>
      <trkpt lat="49.01352" lon="7.88713">
        <ele>309.8</ele>
        <time>2024-08-25T14:41:51Z</time>
      </trkpt>
      <trkpt lat="49.01355" lon="7.88712">
        <ele>309.8</ele>
        <time>2024-08-25T14:41:52Z</time>
      </trkpt>
      <trkpt lat="49.01357" lon="7.88711">
        <ele>310</ele>
        <time>2024-08-25T14:41:53Z</time>
      </trkpt>
      <trkpt lat="49.0136" lon="7.88709">
        <ele>310.2</ele>
        <time>2024-08-25T14:41:54Z</time>
      </trkpt>
      <trkpt lat="49.01361" lon="7.88708">
        <ele>310.4</ele>
        <time>2024-08-25T14:41:55Z</time>
      </trkpt>
      <trkpt lat="49.01363" lon="7.88706">
        <ele>310.4</ele>
        <time>2024-08-25T14:41:56Z</time>
      </trkpt>
      <trkpt lat="49.01364" lon="7.88704">
        <ele>310.6</ele>
        <time>2024-08-25T14:41:57Z</time>
      </trkpt>
      <trkpt lat="49.01365" lon="7.88701">
        <ele>310.8</ele>
        <time>2024-08-25T14:41:58Z</time>
      </trkpt>
      <trkpt lat="49.01367" lon="7.88698">
        <ele>310.8</ele>
        <time>2024-08-25T14:41:59Z</time>
      </trkpt>
      <trkpt lat="49.01368" lon="7.88696">
        <ele>311</ele>
        <time>2024-08-25T14:42:00Z</time>
      </trkpt>
      <trkpt lat="49.01368" lon="7.88693">
        <ele>311</ele>
        <time>2024-08-25T14:42:01Z</time>
      </trkpt>
      <trkpt lat="49.01369" lon="7.88689">
        <ele>311.2</ele>
        <time>2024-08-25T14:42:02Z</time>
      </trkpt>
      <trkpt lat="49.0137" lon="7.88685">
        <ele>311.2</ele>
        <time>2024-08-25T14:42:03Z</time>
      </trkpt>
      <trkpt lat="49.01371" lon="7.88682">
        <ele>311.4</ele>
        <time>2024-08-25T14:42:04Z</time>
      </trkpt>
      <trkpt lat="49.01372" lon="7.88679">
        <ele>311.6</ele>
        <time>2024-08-25T14:42:05Z</time>
      </trkpt>
      <trkpt lat="49.01373" lon="7.88676">
        <ele>311.8</ele>
        <time>2024-08-25T14:42:06Z</time>
      </trkpt>
      <trkpt lat="49.01374" lon="7.88673">
        <ele>312</ele>
        <time>2024-08-25T14:42:07Z</time>
      </trkpt>
      <trkpt lat="49.01375" lon="7.8867">
        <ele>312</ele>
        <time>2024-08-25T14:42:08Z</time>
      </trkpt>
      <trkpt lat="49.01376" lon="7.88666">
        <ele>312.2</ele>
        <time>2024-08-25T14:42:09Z</time>
      </trkpt>
      <trkpt lat="49.01376" lon="7.88663">
        <ele>312.2</ele>
        <time>2024-08-25T14:42:10Z</time>
      </trkpt>
      <trkpt lat="49.01377" lon="7.88659">
        <ele>312.4</ele>
        <time>2024-08-25T14:42:11Z</time>
      </trkpt>
      <trkpt lat="49.01378" lon="7.88655">
        <ele>312.6</ele>
        <time>2024-08-25T14:42:12Z</time>
      </trkpt>
      <trkpt lat="49.01379" lon="7.88651">
        <ele>312.6</ele>
        <time>2024-08-25T14:42:13Z</time>
      </trkpt>
      <trkpt lat="49.01379" lon="7.88647">
        <ele>312.8</ele>
        <time>2024-08-25T14:42:14Z</time>
      </trkpt>
      <trkpt lat="49.0138" lon="7.88644">
        <ele>313</ele>
        <time>2024-08-25T14:42:15Z</time>
      </trkpt>
      <trkpt lat="49.0138" lon="7.8864">
        <ele>313</ele>
        <time>2024-08-25T14:42:16Z</time>
      </trkpt>
      <trkpt lat="49.0138" lon="7.88636">
        <ele>313.2</ele>
        <time>2024-08-25T14:42:17Z</time>
      </trkpt>
      <trkpt lat="49.0138" lon="7.88632">
        <ele>313.2</ele>
        <time>2024-08-25T14:42:18Z</time>
      </trkpt>
      <trkpt lat="49.01379" lon="7.88628">
        <ele>313.4</ele>
        <time>2024-08-25T14:42:19Z</time>
      </trkpt>
      <trkpt lat="49.01379" lon="7.88624">
        <ele>313.4</ele>
        <time>2024-08-25T14:42:20Z</time>
      </trkpt>
      <trkpt lat="49.01378" lon="7.88621">
        <ele>313.6</ele>
        <time>2024-08-25T14:42:21Z</time>
      </trkpt>
      <trkpt lat="49.01378" lon="7.88618">
        <ele>313.6</ele>
        <time>2024-08-25T14:42:22Z</time>
      </trkpt>
      <trkpt lat="49.01377" lon="7.88614">
        <ele>313.8</ele>
        <time>2024-08-25T14:42:23Z</time>
      </trkpt>
      <trkpt lat="49.01376" lon="7.88611">
        <ele>313.8</ele>
        <time>2024-08-25T14:42:24Z</time>
      </trkpt>
      <trkpt lat="49.01376" lon="7.88607">
        <ele>314</ele>
        <time>2024-08-25T14:42:25Z</time>
      </trkpt>
      <trkpt lat="49.01375" lon="7.88603">
        <ele>314</ele>
        <time>2024-08-25T14:42:26Z</time>
      </trkpt>
      <trkpt lat="49.01375" lon="7.88599">
        <ele>314.4</ele>
        <time>2024-08-25T14:42:27Z</time>
      </trkpt>
      <trkpt lat="49.01375" lon="7.88595">
        <ele>314.4</ele>
        <time>2024-08-25T14:42:28Z</time>
      </trkpt>
      <trkpt lat="49.01375" lon="7.88591">
        <ele>314.6</ele>
        <time>2024-08-25T14:42:29Z</time>
      </trkpt>
      <trkpt lat="49.01375" lon="7.88587">
        <ele>314.8</ele>
        <time>2024-08-25T14:42:30Z</time>
      </trkpt>
      <trkpt lat="49.01376" lon="7.88583">
        <ele>315</ele>
        <time>2024-08-25T14:42:31Z</time>
      </trkpt>
      <trkpt lat="49.01377" lon="7.88579">
        <ele>315.2</ele>
        <time>2024-08-25T14:42:32Z</time>
      </trkpt>
      <trkpt lat="49.01377" lon="7.88575">
        <ele>315.4</ele>
        <time>2024-08-25T14:42:33Z</time>
      </trkpt>
      <trkpt lat="49.01377" lon="7.88571">
        <ele>315.4</ele>
        <time>2024-08-25T14:42:34Z</time>
      </trkpt>
      <trkpt lat="49.01378" lon="7.88567">
        <ele>315.4</ele>
        <time>2024-08-25T14:42:35Z</time>
      </trkpt>
      <trkpt lat="49.01379" lon="7.88564">
        <ele>315.6</ele>
        <time>2024-08-25T14:42:36Z</time>
      </trkpt>
      <trkpt lat="49.0138" lon="7.8856">
        <ele>315.8</ele>
        <time>2024-08-25T14:42:37Z</time>
      </trkpt>
      <trkpt lat="49.01381" lon="7.88556">
        <ele>316</ele>
        <time>2024-08-25T14:42:38Z</time>
      </trkpt>
      <trkpt lat="49.01382" lon="7.88553">
        <ele>316</ele>
        <time>2024-08-25T14:42:39Z</time>
      </trkpt>
      <trkpt lat="49.01383" lon="7.8855">
        <ele>316</ele>
        <time>2024-08-25T14:42:40Z</time>
      </trkpt>
      <trkpt lat="49.01385" lon="7.88546">
        <ele>316</ele>
        <time>2024-08-25T14:42:41Z</time>
      </trkpt>
      <trkpt lat="49.01386" lon="7.88543">
        <ele>316.2</ele>
        <time>2024-08-25T14:42:42Z</time>
      </trkpt>
      <trkpt lat="49.01387" lon="7.88539">
        <ele>316.4</ele>
        <time>2024-08-25T14:42:43Z</time>
      </trkpt>
      <trkpt lat="49.01388" lon="7.88536">
        <ele>316.4</ele>
        <time>2024-08-25T14:42:44Z</time>
      </trkpt>
      <trkpt lat="49.0139" lon="7.88533">
        <ele>316.4</ele>
        <time>2024-08-25T14:42:45Z</time>
      </trkpt>
      <trkpt lat="49.01391" lon="7.8853">
        <ele>316.6</ele>
        <time>2024-08-25T14:42:46Z</time>
      </trkpt>
      <trkpt lat="49.01392" lon="7.88526">
        <ele>316.6</ele>
        <time>2024-08-25T14:42:47Z</time>
      </trkpt>
      <trkpt lat="49.01393" lon="7.88523">
        <ele>316.8</ele>
        <time>2024-08-25T14:42:48Z</time>
      </trkpt>
      <trkpt lat="49.01395" lon="7.88519">
        <ele>317</ele>
        <time>2024-08-25T14:42:49Z</time>
      </trkpt>
      <trkpt lat="49.01396" lon="7.88516">
        <ele>317.2</ele>
        <time>2024-08-25T14:42:50Z</time>
      </trkpt>
      <trkpt lat="49.01397" lon="7.88513">
        <ele>317.2</ele>
        <time>2024-08-25T14:42:51Z</time>
      </trkpt>
      <trkpt lat="49.01398" lon="7.8851">
        <ele>317.2</ele>
        <time>2024-08-25T14:42:52Z</time>
      </trkpt>
      <trkpt lat="49.014" lon="7.88506">
        <ele>317.4</ele>
        <time>2024-08-25T14:42:53Z</time>
      </trkpt>
      <trkpt lat="49.01401" lon="7.88503">
        <ele>317.4</ele>
        <time>2024-08-25T14:42:54Z</time>
      </trkpt>
      <trkpt lat="49.01403" lon="7.885">
        <ele>317.6</ele>
        <time>2024-08-25T14:42:55Z</time>
      </trkpt>
      <trkpt lat="49.01404" lon="7.88497">
        <ele>317.6</ele>
        <time>2024-08-25T14:42:56Z</time>
      </trkpt>
      <trkpt lat="49.01405" lon="7.88494">
        <ele>317.8</ele>
        <time>2024-08-25T14:42:57Z</time>
      </trkpt>
      <trkpt lat="49.01406" lon="7.88491">
        <ele>317.8</ele>
        <time>2024-08-25T14:42:58Z</time>
      </trkpt>
      <trkpt lat="49.01408" lon="7.88488">
        <ele>318</ele>
        <time>2024-08-25T14:42:59Z</time>
      </trkpt>
      <trkpt lat="49.01409" lon="7.88485">
        <ele>318.2</ele>
        <time>2024-08-25T14:43:00Z</time>
      </trkpt>
      <trkpt lat="49.01411" lon="7.88481">
        <ele>318.2</ele>
        <time>2024-08-25T14:43:01Z</time>
      </trkpt>
      <trkpt lat="49.01412" lon="7.88478">
        <ele>318.2</ele>
        <time>2024-08-25T14:43:02Z</time>
      </trkpt>
      <trkpt lat="49.01414" lon="7.88476">
        <ele>318.4</ele>
        <time>2024-08-25T14:43:03Z</time>
      </trkpt>
      <trkpt lat="49.01415" lon="7.88473">
        <ele>318.6</ele>
        <time>2024-08-25T14:43:04Z</time>
      </trkpt>
      <trkpt lat="49.01417" lon="7.8847">
        <ele>318.6</ele>
        <time>2024-08-25T14:43:05Z</time>
      </trkpt>
      <trkpt lat="49.01418" lon="7.88467">
        <ele>318.8</ele>
        <time>2024-08-25T14:43:06Z</time>
      </trkpt>
      <trkpt lat="49.01419" lon="7.88464">
        <ele>319</ele>
        <time>2024-08-25T14:43:07Z</time>
      </trkpt>
      <trkpt lat="49.01421" lon="7.88461">
        <ele>319</ele>
        <time>2024-08-25T14:43:08Z</time>
      </trkpt>
      <trkpt lat="49.01422" lon="7.88458">
        <ele>319.2</ele>
        <time>2024-08-25T14:43:09Z</time>
      </trkpt>
      <trkpt lat="49.01424" lon="7.88455">
        <ele>319.4</ele>
        <time>2024-08-25T14:43:10Z</time>
      </trkpt>
      <trkpt lat="49.01426" lon="7.88452">
        <ele>319.4</ele>
        <time>2024-08-25T14:43:11Z</time>
      </trkpt>
      <trkpt lat="49.01427" lon="7.88449">
        <ele>319.4</ele>
        <time>2024-08-25T14:43:12Z</time>
      </trkpt>
      <trkpt lat="49.01429" lon="7.88446">
        <ele>319.6</ele>
        <time>2024-08-25T14:43:13Z</time>
      </trkpt>
      <trkpt lat="49.01431" lon="7.88442">
        <ele>319.8</ele>
        <time>2024-08-25T14:43:14Z</time>
      </trkpt>
      <trkpt lat="49.01432" lon="7.88439">
        <ele>319.8</ele>
        <time>2024-08-25T14:43:15Z</time>
      </trkpt>
      <trkpt lat="49.01434" lon="7.88436">
        <ele>319.8</ele>
        <time>2024-08-25T14:43:16Z</time>
      </trkpt>
      <trkpt lat="49.01436" lon="7.88433">
        <ele>320</ele>
        <time>2024-08-25T14:43:17Z</time>
      </trkpt>
      <trkpt lat="49.01437" lon="7.8843">
        <ele>320</ele>
        <time>2024-08-25T14:43:18Z</time>
      </trkpt>
      <trkpt lat="49.01439" lon="7.88427">
        <ele>320.2</ele>
        <time>2024-08-25T14:43:19Z</time>
      </trkpt>
      <trkpt lat="49.01441" lon="7.88424">
        <ele>320.4</ele>
        <time>2024-08-25T14:43:20Z</time>
      </trkpt>
      <trkpt lat="49.01443" lon="7.88421">
        <ele>320.4</ele>
        <time>2024-08-25T14:43:21Z</time>
      </trkpt>
      <trkpt lat="49.01445" lon="7.88418">
        <ele>320.6</ele>
        <time>2024-08-25T14:43:22Z</time>
      </trkpt>
      <trkpt lat="49.01447" lon="7.88415">
        <ele>320.6</ele>
        <time>2024-08-25T14:43:23Z</time>
      </trkpt>
      <trkpt lat="49.01449" lon="7.88412">
        <ele>320.8</ele>
        <time>2024-08-25T14:43:24Z</time>
      </trkpt>
      <trkpt lat="49.0145" lon="7.88408">
        <ele>321</ele>
        <time>2024-08-25T14:43:25Z</time>
      </trkpt>
      <trkpt lat="49.01452" lon="7.88404">
        <ele>321</ele>
        <time>2024-08-25T14:43:26Z</time>
      </trkpt>
      <trkpt lat="49.01454" lon="7.88401">
        <ele>321</ele>
        <time>2024-08-25T14:43:27Z</time>
      </trkpt>
      <trkpt lat="49.01455" lon="7.88398">
        <ele>321.2</ele>
        <time>2024-08-25T14:43:28Z</time>
      </trkpt>
      <trkpt lat="49.01457" lon="7.88394">
        <ele>321.2</ele>
        <time>2024-08-25T14:43:29Z</time>
      </trkpt>
      <trkpt lat="49.01459" lon="7.8839">
        <ele>321.4</ele>
        <time>2024-08-25T14:43:30Z</time>
      </trkpt>
      <trkpt lat="49.0146" lon="7.88387">
        <ele>321.6</ele>
        <time>2024-08-25T14:43:31Z</time>
      </trkpt>
      <trkpt lat="49.01462" lon="7.88384">
        <ele>321.6</ele>
        <time>2024-08-25T14:43:32Z</time>
      </trkpt>
      <trkpt lat="49.01463" lon="7.88381">
        <ele>321.8</ele>
        <time>2024-08-25T14:43:33Z</time>
      </trkpt>
      <trkpt lat="49.01464" lon="7.88378">
        <ele>321.8</ele>
        <time>2024-08-25T14:43:34Z</time>
      </trkpt>
      <trkpt lat="49.01465" lon="7.88374">
        <ele>322</ele>
        <time>2024-08-25T14:43:35Z</time>
      </trkpt>
      <trkpt lat="49.01467" lon="7.88371">
        <ele>322</ele>
        <time>2024-08-25T14:43:36Z</time>
      </trkpt>
      <trkpt lat="49.01468" lon="7.88366">
        <ele>322.2</ele>
        <time>2024-08-25T14:43:37Z</time>
      </trkpt>
      <trkpt lat="49.01469" lon="7.88363">
        <ele>322.6</ele>
        <time>2024-08-25T14:43:38Z</time>
      </trkpt>
      <trkpt lat="49.0147" lon="7.88359">
        <ele>322.8</ele>
        <time>2024-08-25T14:43:39Z</time>
      </trkpt>
      <trkpt lat="49.01471" lon="7.88355">
        <ele>322.8</ele>
        <time>2024-08-25T14:43:40Z</time>
      </trkpt>
      <trkpt lat="49.01473" lon="7.88351">
        <ele>323</ele>
        <time>2024-08-25T14:43:41Z</time>
      </trkpt>
      <trkpt lat="49.01474" lon="7.88347">
        <ele>323.2</ele>
        <time>2024-08-25T14:43:42Z</time>
      </trkpt>
      <trkpt lat="49.01476" lon="7.88344">
        <ele>323.4</ele>
        <time>2024-08-25T14:43:43Z</time>
      </trkpt>
      <trkpt lat="49.01477" lon="7.88341">
        <ele>323.4</ele>
        <time>2024-08-25T14:43:44Z</time>
      </trkpt>
      <trkpt lat="49.01478" lon="7.88337">
        <ele>323.6</ele>
        <time>2024-08-25T14:43:45Z</time>
      </trkpt>
      <trkpt lat="49.01479" lon="7.88333">
        <ele>323.8</ele>
        <time>2024-08-25T14:43:46Z</time>
      </trkpt>
      <trkpt lat="49.0148" lon="7.8833">
        <ele>324</ele>
        <time>2024-08-25T14:43:47Z</time>
      </trkpt>
      <trkpt lat="49.01481" lon="7.88326">
        <ele>324.2</ele>
        <time>2024-08-25T14:43:48Z</time>
      </trkpt>
      <trkpt lat="49.01482" lon="7.88323">
        <ele>324.2</ele>
        <time>2024-08-25T14:43:49Z</time>
      </trkpt>
      <trkpt lat="49.01483" lon="7.8832">
        <ele>324.4</ele>
        <time>2024-08-25T14:43:50Z</time>
      </trkpt>
      <trkpt lat="49.01484" lon="7.88317">
        <ele>324.6</ele>
        <time>2024-08-25T14:43:51Z</time>
      </trkpt>
      <trkpt lat="49.01485" lon="7.88314">
        <ele>324.8</ele>
        <time>2024-08-25T14:43:52Z</time>
      </trkpt>
      <trkpt lat="49.01486" lon="7.8831">
        <ele>325</ele>
        <time>2024-08-25T14:43:53Z</time>
      </trkpt>
      <trkpt lat="49.01487" lon="7.88306">
        <ele>325</ele>
        <time>2024-08-25T14:43:54Z</time>
      </trkpt>
      <trkpt lat="49.01488" lon="7.88303">
        <ele>325.4</ele>
        <time>2024-08-25T14:43:55Z</time>
      </trkpt>
      <trkpt lat="49.01489" lon="7.883">
        <ele>325.4</ele>
        <time>2024-08-25T14:43:56Z</time>
      </trkpt>
      <trkpt lat="49.0149" lon="7.88296">
        <ele>325.6</ele>
        <time>2024-08-25T14:43:57Z</time>
      </trkpt>
      <trkpt lat="49.01491" lon="7.88292">
        <ele>325.6</ele>
        <time>2024-08-25T14:43:58Z</time>
      </trkpt>
      <trkpt lat="49.01492" lon="7.88289">
        <ele>325.8</ele>
        <time>2024-08-25T14:43:59Z</time>
      </trkpt>
      <trkpt lat="49.01492" lon="7.88285">
        <ele>326</ele>
        <time>2024-08-25T14:44:00Z</time>
      </trkpt>
      <trkpt lat="49.01494" lon="7.8828">
        <ele>326</ele>
        <time>2024-08-25T14:44:01Z</time>
      </trkpt>
      <trkpt lat="49.01494" lon="7.88276">
        <ele>326</ele>
        <time>2024-08-25T14:44:02Z</time>
      </trkpt>
      <trkpt lat="49.01495" lon="7.88272">
        <ele>326</ele>
        <time>2024-08-25T14:44:03Z</time>
      </trkpt>
      <trkpt lat="49.01496" lon="7.88269">
        <ele>326.2</ele>
        <time>2024-08-25T14:44:04Z</time>
      </trkpt>
      <trkpt lat="49.01496" lon="7.88264">
        <ele>326.2</ele>
        <time>2024-08-25T14:44:05Z</time>
      </trkpt>
      <trkpt lat="49.01497" lon="7.8826">
        <ele>326.4</ele>
        <time>2024-08-25T14:44:06Z</time>
      </trkpt>
      <trkpt lat="49.01498" lon="7.88256">
        <ele>326.4</ele>
        <time>2024-08-25T14:44:07Z</time>
      </trkpt>
      <trkpt lat="49.01499" lon="7.88253">
        <ele>326.6</ele>
        <time>2024-08-25T14:44:08Z</time>
      </trkpt>
      <trkpt lat="49.01499" lon="7.88248">
        <ele>326.8</ele>
        <time>2024-08-25T14:44:09Z</time>
      </trkpt>
      <trkpt lat="49.01499" lon="7.88244">
        <ele>327</ele>
        <time>2024-08-25T14:44:10Z</time>
      </trkpt>
      <trkpt lat="49.015" lon="7.8824">
        <ele>327</ele>
        <time>2024-08-25T14:44:11Z</time>
      </trkpt>
      <trkpt lat="49.015" lon="7.88236">
        <ele>327.2</ele>
        <time>2024-08-25T14:44:12Z</time>
      </trkpt>
      <trkpt lat="49.01501" lon="7.88232">
        <ele>327.4</ele>
        <time>2024-08-25T14:44:13Z</time>
      </trkpt>
      <trkpt lat="49.01502" lon="7.88228">
        <ele>327.4</ele>
        <time>2024-08-25T14:44:14Z</time>
      </trkpt>
      <trkpt lat="49.01502" lon="7.88224">
        <ele>327.6</ele>
        <time>2024-08-25T14:44:15Z</time>
      </trkpt>
      <trkpt lat="49.01503" lon="7.8822">
        <ele>327.6</ele>
        <time>2024-08-25T14:44:16Z</time>
      </trkpt>
      <trkpt lat="49.01504" lon="7.88216">
        <ele>327.8</ele>
        <time>2024-08-25T14:44:17Z</time>
      </trkpt>
      <trkpt lat="49.01505" lon="7.88211">
        <ele>327.8</ele>
        <time>2024-08-25T14:44:18Z</time>
      </trkpt>
      <trkpt lat="49.01506" lon="7.88208">
        <ele>328</ele>
        <time>2024-08-25T14:44:19Z</time>
      </trkpt>
      <trkpt lat="49.01508" lon="7.88203">
        <ele>328</ele>
        <time>2024-08-25T14:44:20Z</time>
      </trkpt>
      <trkpt lat="49.01509" lon="7.882">
        <ele>328.2</ele>
        <time>2024-08-25T14:44:21Z</time>
      </trkpt>
      <trkpt lat="49.01511" lon="7.88196">
        <ele>328.4</ele>
        <time>2024-08-25T14:44:22Z</time>
      </trkpt>
      <trkpt lat="49.01512" lon="7.88192">
        <ele>328.6</ele>
        <time>2024-08-25T14:44:23Z</time>
      </trkpt>
      <trkpt lat="49.01514" lon="7.88189">
        <ele>328.6</ele>
        <time>2024-08-25T14:44:24Z</time>
      </trkpt>
      <trkpt lat="49.01516" lon="7.88186">
        <ele>328.6</ele>
        <time>2024-08-25T14:44:25Z</time>
      </trkpt>
      <trkpt lat="49.01518" lon="7.88183">
        <ele>328.6</ele>
        <time>2024-08-25T14:44:26Z</time>
      </trkpt>
      <trkpt lat="49.0152" lon="7.8818">
        <ele>328.8</ele>
        <time>2024-08-25T14:44:27Z</time>
      </trkpt>
      <trkpt lat="49.01521" lon="7.88178">
        <ele>328.8</ele>
        <time>2024-08-25T14:44:28Z</time>
      </trkpt>
      <trkpt lat="49.01523" lon="7.88175">
        <ele>329</ele>
        <time>2024-08-25T14:44:29Z</time>
      </trkpt>
      <trkpt lat="49.01525" lon="7.88173">
        <ele>329.2</ele>
        <time>2024-08-25T14:44:30Z</time>
      </trkpt>
      <trkpt lat="49.01527" lon="7.8817">
        <ele>329.4</ele>
        <time>2024-08-25T14:44:31Z</time>
      </trkpt>
      <trkpt lat="49.01529" lon="7.88168">
        <ele>329.6</ele>
        <time>2024-08-25T14:44:32Z</time>
      </trkpt>
      <trkpt lat="49.01532" lon="7.88165">
        <ele>329.6</ele>
        <time>2024-08-25T14:44:33Z</time>
      </trkpt>
      <trkpt lat="49.01534" lon="7.88162">
        <ele>329.6</ele>
        <time>2024-08-25T14:44:34Z</time>
      </trkpt>
      <trkpt lat="49.01536" lon="7.8816">
        <ele>329.8</ele>
        <time>2024-08-25T14:44:35Z</time>
      </trkpt>
      <trkpt lat="49.01539" lon="7.88157">
        <ele>329.8</ele>
        <time>2024-08-25T14:44:36Z</time>
      </trkpt>
      <trkpt lat="49.01541" lon="7.88155">
        <ele>330</ele>
        <time>2024-08-25T14:44:37Z</time>
      </trkpt>
      <trkpt lat="49.01543" lon="7.88153">
        <ele>330</ele>
        <time>2024-08-25T14:44:38Z</time>
      </trkpt>
      <trkpt lat="49.01546" lon="7.88151">
        <ele>330.2</ele>
        <time>2024-08-25T14:44:39Z</time>
      </trkpt>
      <trkpt lat="49.01548" lon="7.88149">
        <ele>330.2</ele>
        <time>2024-08-25T14:44:40Z</time>
      </trkpt>
      <trkpt lat="49.0155" lon="7.88147">
        <ele>330.4</ele>
        <time>2024-08-25T14:44:41Z</time>
      </trkpt>
      <trkpt lat="49.01552" lon="7.88145">
        <ele>330.6</ele>
        <time>2024-08-25T14:44:42Z</time>
      </trkpt>
      <trkpt lat="49.01554" lon="7.88143">
        <ele>330.6</ele>
        <time>2024-08-25T14:44:43Z</time>
      </trkpt>
      <trkpt lat="49.01557" lon="7.88141">
        <ele>330.8</ele>
        <time>2024-08-25T14:44:44Z</time>
      </trkpt>
      <trkpt lat="49.01559" lon="7.88139">
        <ele>331</ele>
        <time>2024-08-25T14:44:45Z</time>
      </trkpt>
      <trkpt lat="49.01561" lon="7.88138">
        <ele>331.2</ele>
        <time>2024-08-25T14:44:46Z</time>
      </trkpt>
      <trkpt lat="49.01563" lon="7.88136">
        <ele>331.4</ele>
        <time>2024-08-25T14:44:47Z</time>
      </trkpt>
      <trkpt lat="49.01565" lon="7.88134">
        <ele>331.6</ele>
        <time>2024-08-25T14:44:48Z</time>
      </trkpt>
      <trkpt lat="49.01568" lon="7.88133">
        <ele>331.8</ele>
        <time>2024-08-25T14:44:49Z</time>
      </trkpt>
      <trkpt lat="49.0157" lon="7.88131">
        <ele>331.8</ele>
        <time>2024-08-25T14:44:50Z</time>
      </trkpt>
      <trkpt lat="49.01572" lon="7.88129">
        <ele>332</ele>
        <time>2024-08-25T14:44:51Z</time>
      </trkpt>
      <trkpt lat="49.01573" lon="7.88127">
        <ele>332.2</ele>
        <time>2024-08-25T14:44:52Z</time>
      </trkpt>
      <trkpt lat="49.01575" lon="7.88125">
        <ele>332.4</ele>
        <time>2024-08-25T14:44:53Z</time>
      </trkpt>
      <trkpt lat="49.01578" lon="7.88124">
        <ele>332.6</ele>
        <time>2024-08-25T14:44:54Z</time>
      </trkpt>
      <trkpt lat="49.0158" lon="7.88122">
        <ele>332.6</ele>
        <time>2024-08-25T14:44:55Z</time>
      </trkpt>
      <trkpt lat="49.01583" lon="7.8812">
        <ele>332.8</ele>
        <time>2024-08-25T14:44:56Z</time>
      </trkpt>
      <trkpt lat="49.01585" lon="7.8812">
        <ele>333.2</ele>
        <time>2024-08-25T14:44:57Z</time>
      </trkpt>
      <trkpt lat="49.01587" lon="7.88118">
        <ele>333.2</ele>
        <time>2024-08-25T14:44:58Z</time>
      </trkpt>
      <trkpt lat="49.01589" lon="7.88117">
        <ele>333.4</ele>
        <time>2024-08-25T14:44:59Z</time>
      </trkpt>
      <trkpt lat="49.01591" lon="7.88115">
        <ele>333.6</ele>
        <time>2024-08-25T14:45:00Z</time>
      </trkpt>
      <trkpt lat="49.01594" lon="7.88113">
        <ele>333.8</ele>
        <time>2024-08-25T14:45:01Z</time>
      </trkpt>
      <trkpt lat="49.01596" lon="7.88112">
        <ele>334</ele>
        <time>2024-08-25T14:45:02Z</time>
      </trkpt>
      <trkpt lat="49.01598" lon="7.88109">
        <ele>334</ele>
        <time>2024-08-25T14:45:03Z</time>
      </trkpt>
      <trkpt lat="49.016" lon="7.88108">
        <ele>334.2</ele>
        <time>2024-08-25T14:45:04Z</time>
      </trkpt>
      <trkpt lat="49.01602" lon="7.88107">
        <ele>334.2</ele>
        <time>2024-08-25T14:45:05Z</time>
      </trkpt>
      <trkpt lat="49.01605" lon="7.88105">
        <ele>334.4</ele>
        <time>2024-08-25T14:45:06Z</time>
      </trkpt>
      <trkpt lat="49.01607" lon="7.88103">
        <ele>334.6</ele>
        <time>2024-08-25T14:45:07Z</time>
      </trkpt>
      <trkpt lat="49.01609" lon="7.881">
        <ele>334.6</ele>
        <time>2024-08-25T14:45:08Z</time>
      </trkpt>
      <trkpt lat="49.01612" lon="7.88099">
        <ele>334.8</ele>
        <time>2024-08-25T14:45:09Z</time>
      </trkpt>
      <trkpt lat="49.01614" lon="7.88097">
        <ele>335</ele>
        <time>2024-08-25T14:45:10Z</time>
      </trkpt>
      <trkpt lat="49.01616" lon="7.88096">
        <ele>335</ele>
        <time>2024-08-25T14:45:11Z</time>
      </trkpt>
      <trkpt lat="49.01618" lon="7.88093">
        <ele>335.2</ele>
        <time>2024-08-25T14:45:12Z</time>
      </trkpt>
      <trkpt lat="49.0162" lon="7.8809">
        <ele>335.2</ele>
        <time>2024-08-25T14:45:13Z</time>
      </trkpt>
      <trkpt lat="49.01622" lon="7.88087">
        <ele>335.4</ele>
        <time>2024-08-25T14:45:14Z</time>
      </trkpt>
      <trkpt lat="49.01623" lon="7.88085">
        <ele>335.6</ele>
        <time>2024-08-25T14:45:15Z</time>
      </trkpt>
      <trkpt lat="49.01625" lon="7.88082">
        <ele>335.8</ele>
        <time>2024-08-25T14:45:16Z</time>
      </trkpt>
      <trkpt lat="49.01626" lon="7.88081">
        <ele>335.8</ele>
        <time>2024-08-25T14:45:17Z</time>
      </trkpt>
      <trkpt lat="49.01627" lon="7.88078">
        <ele>336</ele>
        <time>2024-08-25T14:45:18Z</time>
      </trkpt>
      <trkpt lat="49.01629" lon="7.88075">
        <ele>336.2</ele>
        <time>2024-08-25T14:45:19Z</time>
      </trkpt>
      <trkpt lat="49.0163" lon="7.88073">
        <ele>336.4</ele>
        <time>2024-08-25T14:45:20Z</time>
      </trkpt>
      <trkpt lat="49.01631" lon="7.8807">
        <ele>336.6</ele>
        <time>2024-08-25T14:45:21Z</time>
      </trkpt>
      <trkpt lat="49.01633" lon="7.88068">
        <ele>336.8</ele>
        <time>2024-08-25T14:45:22Z</time>
      </trkpt>
      <trkpt lat="49.01635" lon="7.88065">
        <ele>337</ele>
        <time>2024-08-25T14:45:23Z</time>
      </trkpt>
      <trkpt lat="49.01637" lon="7.88062">
        <ele>337.2</ele>
        <time>2024-08-25T14:45:24Z</time>
      </trkpt>
      <trkpt lat="49.01639" lon="7.8806">
        <ele>337.2</ele>
        <time>2024-08-25T14:45:25Z</time>
      </trkpt>
      <trkpt lat="49.01641" lon="7.88058">
        <ele>337.2</ele>
        <time>2024-08-25T14:45:26Z</time>
      </trkpt>
      <trkpt lat="49.01643" lon="7.88056">
        <ele>337.4</ele>
        <time>2024-08-25T14:45:27Z</time>
      </trkpt>
      <trkpt lat="49.01645" lon="7.88054">
        <ele>337.6</ele>
        <time>2024-08-25T14:45:28Z</time>
      </trkpt>
      <trkpt lat="49.01647" lon="7.88052">
        <ele>337.8</ele>
        <time>2024-08-25T14:45:29Z</time>
      </trkpt>
      <trkpt lat="49.0165" lon="7.88051">
        <ele>338</ele>
        <time>2024-08-25T14:45:30Z</time>
      </trkpt>
      <trkpt lat="49.01652" lon="7.88049">
        <ele>338.2</ele>
        <time>2024-08-25T14:45:31Z</time>
      </trkpt>
      <trkpt lat="49.01654" lon="7.88048">
        <ele>338.4</ele>
        <time>2024-08-25T14:45:32Z</time>
      </trkpt>
      <trkpt lat="49.01656" lon="7.88047">
        <ele>338.4</ele>
        <time>2024-08-25T14:45:33Z</time>
      </trkpt>
      <trkpt lat="49.01658" lon="7.88045">
        <ele>338.6</ele>
        <time>2024-08-25T14:45:34Z</time>
      </trkpt>
      <trkpt lat="49.01661" lon="7.88045">
        <ele>338.8</ele>
        <time>2024-08-25T14:45:35Z</time>
      </trkpt>
      <trkpt lat="49.01663" lon="7.88043">
        <ele>338.8</ele>
        <time>2024-08-25T14:45:36Z</time>
      </trkpt>
      <trkpt lat="49.01666" lon="7.88041">
        <ele>339</ele>
        <time>2024-08-25T14:45:37Z</time>
      </trkpt>
      <trkpt lat="49.01668" lon="7.8804">
        <ele>339.2</ele>
        <time>2024-08-25T14:45:38Z</time>
      </trkpt>
      <trkpt lat="49.01671" lon="7.88039">
        <ele>339.4</ele>
        <time>2024-08-25T14:45:39Z</time>
      </trkpt>
      <trkpt lat="49.01673" lon="7.88037">
        <ele>339.6</ele>
        <time>2024-08-25T14:45:40Z</time>
      </trkpt>
      <trkpt lat="49.01676" lon="7.88036">
        <ele>339.6</ele>
        <time>2024-08-25T14:45:41Z</time>
      </trkpt>
      <trkpt lat="49.01679" lon="7.88034">
        <ele>339.6</ele>
        <time>2024-08-25T14:45:42Z</time>
      </trkpt>
      <trkpt lat="49.01682" lon="7.88033">
        <ele>339.8</ele>
        <time>2024-08-25T14:45:43Z</time>
      </trkpt>
      <trkpt lat="49.01684" lon="7.88032">
        <ele>340</ele>
        <time>2024-08-25T14:45:44Z</time>
      </trkpt>
      <trkpt lat="49.01687" lon="7.88032">
        <ele>340</ele>
        <time>2024-08-25T14:45:45Z</time>
      </trkpt>
      <trkpt lat="49.01689" lon="7.8803">
        <ele>340.2</ele>
        <time>2024-08-25T14:45:46Z</time>
      </trkpt>
      <trkpt lat="49.01692" lon="7.88029">
        <ele>340.4</ele>
        <time>2024-08-25T14:45:47Z</time>
      </trkpt>
      <trkpt lat="49.01695" lon="7.88028">
        <ele>340.4</ele>
        <time>2024-08-25T14:45:48Z</time>
      </trkpt>
      <trkpt lat="49.01697" lon="7.88026">
        <ele>340.6</ele>
        <time>2024-08-25T14:45:49Z</time>
      </trkpt>
      <trkpt lat="49.017" lon="7.88024">
        <ele>340.8</ele>
        <time>2024-08-25T14:45:50Z</time>
      </trkpt>
      <trkpt lat="49.01702" lon="7.88023">
        <ele>340.8</ele>
        <time>2024-08-25T14:45:51Z</time>
      </trkpt>
      <trkpt lat="49.01705" lon="7.88022">
        <ele>341</ele>
        <time>2024-08-25T14:45:52Z</time>
      </trkpt>
      <trkpt lat="49.01707" lon="7.88021">
        <ele>341</ele>
        <time>2024-08-25T14:45:53Z</time>
      </trkpt>
      <trkpt lat="49.0171" lon="7.8802">
        <ele>341.2</ele>
        <time>2024-08-25T14:45:54Z</time>
      </trkpt>
      <trkpt lat="49.01712" lon="7.88019">
        <ele>341.4</ele>
        <time>2024-08-25T14:45:55Z</time>
      </trkpt>
      <trkpt lat="49.01715" lon="7.88018">
        <ele>341.6</ele>
        <time>2024-08-25T14:45:56Z</time>
      </trkpt>
      <trkpt lat="49.01717" lon="7.88017">
        <ele>341.6</ele>
        <time>2024-08-25T14:45:57Z</time>
      </trkpt>
      <trkpt lat="49.01718" lon="7.88016">
        <ele>341.8</ele>
        <time>2024-08-25T14:45:58Z</time>
      </trkpt>
      <trkpt lat="49.01721" lon="7.88014">
        <ele>341.8</ele>
        <time>2024-08-25T14:45:59Z</time>
      </trkpt>
      <trkpt lat="49.01723" lon="7.88013">
        <ele>342</ele>
        <time>2024-08-25T14:46:00Z</time>
      </trkpt>
      <trkpt lat="49.01725" lon="7.88012">
        <ele>342.2</ele>
        <time>2024-08-25T14:46:01Z</time>
      </trkpt>
      <trkpt lat="49.01727" lon="7.8801">
        <ele>342.4</ele>
        <time>2024-08-25T14:46:02Z</time>
      </trkpt>
      <trkpt lat="49.01729" lon="7.88008">
        <ele>342.6</ele>
        <time>2024-08-25T14:46:03Z</time>
      </trkpt>
      <trkpt lat="49.01732" lon="7.88006">
        <ele>342.8</ele>
        <time>2024-08-25T14:46:04Z</time>
      </trkpt>
      <trkpt lat="49.01735" lon="7.88004">
        <ele>342.8</ele>
        <time>2024-08-25T14:46:05Z</time>
      </trkpt>
      <trkpt lat="49.01737" lon="7.88002">
        <ele>343</ele>
        <time>2024-08-25T14:46:06Z</time>
      </trkpt>
      <trkpt lat="49.01739" lon="7.88">
        <ele>343.2</ele>
        <time>2024-08-25T14:46:07Z</time>
      </trkpt>
      <trkpt lat="49.01741" lon="7.87999">
        <ele>343.4</ele>
        <time>2024-08-25T14:46:08Z</time>
      </trkpt>
      <trkpt lat="49.01743" lon="7.87997">
        <ele>343.6</ele>
        <time>2024-08-25T14:46:09Z</time>
      </trkpt>
      <trkpt lat="49.01745" lon="7.87996">
        <ele>343.8</ele>
        <time>2024-08-25T14:46:10Z</time>
      </trkpt>
      <trkpt lat="49.01747" lon="7.87994">
        <ele>344</ele>
        <time>2024-08-25T14:46:11Z</time>
      </trkpt>
      <trkpt lat="49.01749" lon="7.87992">
        <ele>344.2</ele>
        <time>2024-08-25T14:46:12Z</time>
      </trkpt>
      <trkpt lat="49.01751" lon="7.87991">
        <ele>344.6</ele>
        <time>2024-08-25T14:46:13Z</time>
      </trkpt>
      <trkpt lat="49.01753" lon="7.87989">
        <ele>344.8</ele>
        <time>2024-08-25T14:46:14Z</time>
      </trkpt>
      <trkpt lat="49.01755" lon="7.87988">
        <ele>345</ele>
        <time>2024-08-25T14:46:15Z</time>
      </trkpt>
      <trkpt lat="49.01757" lon="7.87987">
        <ele>345.2</ele>
        <time>2024-08-25T14:46:16Z</time>
      </trkpt>
      <trkpt lat="49.01759" lon="7.87985">
        <ele>345.4</ele>
        <time>2024-08-25T14:46:17Z</time>
      </trkpt>
      <trkpt lat="49.0176" lon="7.87983">
        <ele>345.6</ele>
        <time>2024-08-25T14:46:18Z</time>
      </trkpt>
      <trkpt lat="49.01762" lon="7.87982">
        <ele>345.8</ele>
        <time>2024-08-25T14:46:19Z</time>
      </trkpt>
      <trkpt lat="49.01764" lon="7.8798">
        <ele>346</ele>
        <time>2024-08-25T14:46:20Z</time>
      </trkpt>
      <trkpt lat="49.01765" lon="7.87979">
        <ele>346</ele>
        <time>2024-08-25T14:46:21Z</time>
      </trkpt>
      <trkpt lat="49.01767" lon="7.87977">
        <ele>346.2</ele>
        <time>2024-08-25T14:46:22Z</time>
      </trkpt>
      <trkpt lat="49.0177" lon="7.87974">
        <ele>346.4</ele>
        <time>2024-08-25T14:46:23Z</time>
      </trkpt>
      <trkpt lat="49.01772" lon="7.87971">
        <ele>346.6</ele>
        <time>2024-08-25T14:46:24Z</time>
      </trkpt>
      <trkpt lat="49.01774" lon="7.87969">
        <ele>347</ele>
        <time>2024-08-25T14:46:25Z</time>
      </trkpt>
      <trkpt lat="49.01777" lon="7.87969">
        <ele>347</ele>
        <time>2024-08-25T14:46:26Z</time>
      </trkpt>
      <trkpt lat="49.01778" lon="7.8797">
        <ele>347.2</ele>
        <time>2024-08-25T14:46:27Z</time>
      </trkpt>
      <trkpt lat="49.01779" lon="7.8797">
        <ele>347.4</ele>
        <time>2024-08-25T14:46:28Z</time>
      </trkpt>
      <trkpt lat="49.01779" lon="7.87973">
        <ele>347.6</ele>
        <time>2024-08-25T14:46:29Z</time>
      </trkpt>
      <trkpt lat="49.01778" lon="7.87974">
        <ele>347.6</ele>
        <time>2024-08-25T14:46:30Z</time>
      </trkpt>
      <trkpt lat="49.01777" lon="7.87976">
        <ele>347.8</ele>
        <time>2024-08-25T14:46:31Z</time>
      </trkpt>
      <trkpt lat="49.01775" lon="7.87978">
        <ele>348</ele>
        <time>2024-08-25T14:46:32Z</time>
      </trkpt>
      <trkpt lat="49.01773" lon="7.87979">
        <ele>348.2</ele>
        <time>2024-08-25T14:46:33Z</time>
      </trkpt>
      <trkpt lat="49.01771" lon="7.87981">
        <ele>348.6</ele>
        <time>2024-08-25T14:46:34Z</time>
      </trkpt>
      <trkpt lat="49.0177" lon="7.87983">
        <ele>348.8</ele>
        <time>2024-08-25T14:46:35Z</time>
      </trkpt>
      <trkpt lat="49.01768" lon="7.87985">
        <ele>348.8</ele>
        <time>2024-08-25T14:46:36Z</time>
      </trkpt>
      <trkpt lat="49.01766" lon="7.87988">
        <ele>349</ele>
        <time>2024-08-25T14:46:37Z</time>
      </trkpt>
      <trkpt lat="49.01764" lon="7.8799">
        <ele>349</ele>
        <time>2024-08-25T14:46:38Z</time>
      </trkpt>
      <trkpt lat="49.01762" lon="7.87992">
        <ele>349.2</ele>
        <time>2024-08-25T14:46:39Z</time>
      </trkpt>
      <trkpt lat="49.01761" lon="7.87993">
        <ele>349.2</ele>
        <time>2024-08-25T14:46:40Z</time>
      </trkpt>
      <trkpt lat="49.01759" lon="7.87995">
        <ele>349.4</ele>
        <time>2024-08-25T14:46:41Z</time>
      </trkpt>
      <trkpt lat="49.01757" lon="7.87998">
        <ele>349.4</ele>
        <time>2024-08-25T14:46:42Z</time>
      </trkpt>
      <trkpt lat="49.01755" lon="7.88001">
        <ele>349.4</ele>
        <time>2024-08-25T14:46:43Z</time>
      </trkpt>
      <trkpt lat="49.01752" lon="7.88004">
        <ele>349.4</ele>
        <time>2024-08-25T14:46:44Z</time>
      </trkpt>
      <trkpt lat="49.01751" lon="7.88006">
        <ele>349.4</ele>
        <time>2024-08-25T14:46:45Z</time>
      </trkpt>
      <trkpt lat="49.01749" lon="7.88009">
        <ele>349.4</ele>
        <time>2024-08-25T14:46:46Z</time>
      </trkpt>
      <trkpt lat="49.01747" lon="7.88012">
        <ele>349.4</ele>
        <time>2024-08-25T14:46:47Z</time>
      </trkpt>
      <trkpt lat="49.01745" lon="7.88016">
        <ele>349.4</ele>
        <time>2024-08-25T14:46:48Z</time>
      </trkpt>
      <trkpt lat="49.01741" lon="7.88021">
        <ele>349.4</ele>
        <time>2024-08-25T14:46:49Z</time>
      </trkpt>
      <trkpt lat="49.0174" lon="7.88024">
        <ele>349.4</ele>
        <time>2024-08-25T14:46:50Z</time>
      </trkpt>
      <trkpt lat="49.01737" lon="7.88028">
        <ele>349.6</ele>
        <time>2024-08-25T14:46:51Z</time>
      </trkpt>
      <trkpt lat="49.01735" lon="7.88032">
        <ele>349.6</ele>
        <time>2024-08-25T14:46:52Z</time>
      </trkpt>
      <trkpt lat="49.01733" lon="7.88036">
        <ele>349.8</ele>
        <time>2024-08-25T14:46:53Z</time>
      </trkpt>
      <trkpt lat="49.0173" lon="7.88039">
        <ele>349.8</ele>
        <time>2024-08-25T14:46:54Z</time>
      </trkpt>
      <trkpt lat="49.01729" lon="7.88042">
        <ele>349.8</ele>
        <time>2024-08-25T14:46:55Z</time>
      </trkpt>
      <trkpt lat="49.01727" lon="7.88044">
        <ele>350.2</ele>
        <time>2024-08-25T14:46:56Z</time>
      </trkpt>
      <trkpt lat="49.01725" lon="7.88046">
        <ele>350.4</ele>
        <time>2024-08-25T14:46:57Z</time>
      </trkpt>
      <trkpt lat="49.01724" lon="7.88049">
        <ele>350.6</ele>
        <time>2024-08-25T14:46:58Z</time>
      </trkpt>
      <trkpt lat="49.01722" lon="7.88052">
        <ele>350.6</ele>
        <time>2024-08-25T14:46:59Z</time>
      </trkpt>
      <trkpt lat="49.0172" lon="7.88054">
        <ele>350.8</ele>
        <time>2024-08-25T14:47:00Z</time>
      </trkpt>
      <trkpt lat="49.01719" lon="7.88057">
        <ele>351</ele>
        <time>2024-08-25T14:47:01Z</time>
      </trkpt>
      <trkpt lat="49.01717" lon="7.88059">
        <ele>351.2</ele>
        <time>2024-08-25T14:47:02Z</time>
      </trkpt>
      <trkpt lat="49.01716" lon="7.88061">
        <ele>351.6</ele>
        <time>2024-08-25T14:47:03Z</time>
      </trkpt>
      <trkpt lat="49.01714" lon="7.88063">
        <ele>351.8</ele>
        <time>2024-08-25T14:47:04Z</time>
      </trkpt>
      <trkpt lat="49.01712" lon="7.88065">
        <ele>352</ele>
        <time>2024-08-25T14:47:05Z</time>
      </trkpt>
      <trkpt lat="49.0171" lon="7.88067">
        <ele>352.2</ele>
        <time>2024-08-25T14:47:06Z</time>
      </trkpt>
      <trkpt lat="49.01707" lon="7.8807">
        <ele>352.4</ele>
        <time>2024-08-25T14:47:07Z</time>
      </trkpt>
      <trkpt lat="49.01706" lon="7.88073">
        <ele>352.6</ele>
        <time>2024-08-25T14:47:08Z</time>
      </trkpt>
      <trkpt lat="49.01704" lon="7.88076">
        <ele>353</ele>
        <time>2024-08-25T14:47:09Z</time>
      </trkpt>
      <trkpt lat="49.01703" lon="7.8808">
        <ele>353.2</ele>
        <time>2024-08-25T14:47:10Z</time>
      </trkpt>
      <trkpt lat="49.01702" lon="7.88082">
        <ele>353.6</ele>
        <time>2024-08-25T14:47:11Z</time>
      </trkpt>
      <trkpt lat="49.01701" lon="7.88084">
        <ele>353.8</ele>
        <time>2024-08-25T14:47:12Z</time>
      </trkpt>
      <trkpt lat="49.017" lon="7.88086">
        <ele>354</ele>
        <time>2024-08-25T14:47:13Z</time>
      </trkpt>
      <trkpt lat="49.01699" lon="7.88089">
        <ele>354.2</ele>
        <time>2024-08-25T14:47:14Z</time>
      </trkpt>
      <trkpt lat="49.01698" lon="7.88091">
        <ele>354.4</ele>
        <time>2024-08-25T14:47:15Z</time>
      </trkpt>
      <trkpt lat="49.01697" lon="7.88094">
        <ele>354.6</ele>
        <time>2024-08-25T14:47:16Z</time>
      </trkpt>
      <trkpt lat="49.01696" lon="7.88096">
        <ele>354.8</ele>
        <time>2024-08-25T14:47:17Z</time>
      </trkpt>
      <trkpt lat="49.01695" lon="7.88099">
        <ele>355.4</ele>
        <time>2024-08-25T14:47:18Z</time>
      </trkpt>
      <trkpt lat="49.01694" lon="7.88103">
        <ele>355.4</ele>
        <time>2024-08-25T14:47:19Z</time>
      </trkpt>
      <trkpt lat="49.01693" lon="7.88106">
        <ele>355.8</ele>
        <time>2024-08-25T14:47:20Z</time>
      </trkpt>
      <trkpt lat="49.01693" lon="7.88109">
        <ele>356.2</ele>
        <time>2024-08-25T14:47:21Z</time>
      </trkpt>
      <trkpt lat="49.01692" lon="7.88111">
        <ele>356.4</ele>
        <time>2024-08-25T14:47:22Z</time>
      </trkpt>
      <trkpt lat="49.01691" lon="7.88114">
        <ele>356.8</ele>
        <time>2024-08-25T14:47:23Z</time>
      </trkpt>
      <trkpt lat="49.01689" lon="7.88116">
        <ele>357.2</ele>
        <time>2024-08-25T14:47:24Z</time>
      </trkpt>
      <trkpt lat="49.01687" lon="7.88119">
        <ele>357.4</ele>
        <time>2024-08-25T14:47:25Z</time>
      </trkpt>
      <trkpt lat="49.01686" lon="7.88122">
        <ele>357.8</ele>
        <time>2024-08-25T14:47:26Z</time>
      </trkpt>
      <trkpt lat="49.01684" lon="7.88125">
        <ele>358</ele>
        <time>2024-08-25T14:47:27Z</time>
      </trkpt>
      <trkpt lat="49.01682" lon="7.88128">
        <ele>358.4</ele>
        <time>2024-08-25T14:47:28Z</time>
      </trkpt>
      <trkpt lat="49.0168" lon="7.88131">
        <ele>358.6</ele>
        <time>2024-08-25T14:47:29Z</time>
      </trkpt>
      <trkpt lat="49.01678" lon="7.88133">
        <ele>358.8</ele>
        <time>2024-08-25T14:47:30Z</time>
      </trkpt>
      <trkpt lat="49.01677" lon="7.88135">
        <ele>359.2</ele>
        <time>2024-08-25T14:47:31Z</time>
      </trkpt>
      <trkpt lat="49.01676" lon="7.88137">
        <ele>359.4</ele>
        <time>2024-08-25T14:47:32Z</time>
      </trkpt>
      <trkpt lat="49.01675" lon="7.88138">
        <ele>359.6</ele>
        <time>2024-08-25T14:47:33Z</time>
      </trkpt>
      <trkpt lat="49.01674" lon="7.8814">
        <ele>359.8</ele>
        <time>2024-08-25T14:47:34Z</time>
      </trkpt>
      <trkpt lat="49.01673" lon="7.88142">
        <ele>360</ele>
        <time>2024-08-25T14:47:35Z</time>
      </trkpt>
      <trkpt lat="49.01671" lon="7.88145">
        <ele>360.2</ele>
        <time>2024-08-25T14:47:36Z</time>
      </trkpt>
      <trkpt lat="49.0167" lon="7.88148">
        <ele>360.4</ele>
        <time>2024-08-25T14:47:37Z</time>
      </trkpt>
      <trkpt lat="49.01668" lon="7.8815">
        <ele>360.6</ele>
        <time>2024-08-25T14:47:38Z</time>
      </trkpt>
      <trkpt lat="49.01667" lon="7.88153">
        <ele>360.6</ele>
        <time>2024-08-25T14:47:39Z</time>
      </trkpt>
      <trkpt lat="49.01665" lon="7.88156">
        <ele>360.6</ele>
        <time>2024-08-25T14:47:40Z</time>
      </trkpt>
      <trkpt lat="49.01663" lon="7.88158">
        <ele>360.8</ele>
        <time>2024-08-25T14:47:41Z</time>
      </trkpt>
      <trkpt lat="49.01662" lon="7.88161">
        <ele>360.8</ele>
        <time>2024-08-25T14:47:42Z</time>
      </trkpt>
      <trkpt lat="49.0166" lon="7.88163">
        <ele>360.8</ele>
        <time>2024-08-25T14:47:43Z</time>
      </trkpt>
      <trkpt lat="49.01658" lon="7.88166">
        <ele>361</ele>
        <time>2024-08-25T14:47:44Z</time>
      </trkpt>
      <trkpt lat="49.01657" lon="7.88168">
        <ele>361.2</ele>
        <time>2024-08-25T14:47:45Z</time>
      </trkpt>
      <trkpt lat="49.01656" lon="7.88171">
        <ele>361.4</ele>
        <time>2024-08-25T14:47:46Z</time>
      </trkpt>
      <trkpt lat="49.01654" lon="7.88173">
        <ele>361.6</ele>
        <time>2024-08-25T14:47:47Z</time>
      </trkpt>
      <trkpt lat="49.01652" lon="7.88175">
        <ele>361.6</ele>
        <time>2024-08-25T14:47:48Z</time>
      </trkpt>
      <trkpt lat="49.01651" lon="7.88177">
        <ele>361.8</ele>
        <time>2024-08-25T14:47:49Z</time>
      </trkpt>
      <trkpt lat="49.0165" lon="7.88179">
        <ele>361.8</ele>
        <time>2024-08-25T14:47:50Z</time>
      </trkpt>
      <trkpt lat="49.01648" lon="7.88181">
        <ele>362</ele>
        <time>2024-08-25T14:47:51Z</time>
      </trkpt>
      <trkpt lat="49.01646" lon="7.88184">
        <ele>362</ele>
        <time>2024-08-25T14:47:52Z</time>
      </trkpt>
      <trkpt lat="49.01645" lon="7.88187">
        <ele>362.2</ele>
        <time>2024-08-25T14:47:53Z</time>
      </trkpt>
      <trkpt lat="49.01643" lon="7.88189">
        <ele>362.4</ele>
        <time>2024-08-25T14:47:54Z</time>
      </trkpt>
      <trkpt lat="49.01642" lon="7.88192">
        <ele>362.4</ele>
        <time>2024-08-25T14:47:55Z</time>
      </trkpt>
      <trkpt lat="49.01641" lon="7.88195">
        <ele>362.6</ele>
        <time>2024-08-25T14:47:56Z</time>
      </trkpt>
      <trkpt lat="49.0164" lon="7.88197">
        <ele>362.8</ele>
        <time>2024-08-25T14:47:57Z</time>
      </trkpt>
      <trkpt lat="49.01639" lon="7.88199">
        <ele>363</ele>
        <time>2024-08-25T14:47:58Z</time>
      </trkpt>
      <trkpt lat="49.01638" lon="7.88201">
        <ele>363.2</ele>
        <time>2024-08-25T14:47:59Z</time>
      </trkpt>
      <trkpt lat="49.01637" lon="7.88203">
        <ele>363.2</ele>
        <time>2024-08-25T14:48:00Z</time>
      </trkpt>
      <trkpt lat="49.01637" lon="7.88206">
        <ele>363.4</ele>
        <time>2024-08-25T14:48:01Z</time>
      </trkpt>
      <trkpt lat="49.01636" lon="7.88208">
        <ele>363.6</ele>
        <time>2024-08-25T14:48:02Z</time>
      </trkpt>
      <trkpt lat="49.01636" lon="7.88211">
        <ele>363.8</ele>
        <time>2024-08-25T14:48:03Z</time>
      </trkpt>
      <trkpt lat="49.01635" lon="7.88215">
        <ele>364</ele>
        <time>2024-08-25T14:48:04Z</time>
      </trkpt>
      <trkpt lat="49.01635" lon="7.88218">
        <ele>364.2</ele>
        <time>2024-08-25T14:48:05Z</time>
      </trkpt>
      <trkpt lat="49.01634" lon="7.8822">
        <ele>364.4</ele>
        <time>2024-08-25T14:48:06Z</time>
      </trkpt>
      <trkpt lat="49.01633" lon="7.88223">
        <ele>364.8</ele>
        <time>2024-08-25T14:48:07Z</time>
      </trkpt>
      <trkpt lat="49.01633" lon="7.88226">
        <ele>365</ele>
        <time>2024-08-25T14:48:08Z</time>
      </trkpt>
      <trkpt lat="49.01631" lon="7.88229">
        <ele>365.2</ele>
        <time>2024-08-25T14:48:09Z</time>
      </trkpt>
      <trkpt lat="49.0163" lon="7.88232">
        <ele>365.4</ele>
        <time>2024-08-25T14:48:10Z</time>
      </trkpt>
      <trkpt lat="49.01629" lon="7.88235">
        <ele>365.6</ele>
        <time>2024-08-25T14:48:11Z</time>
      </trkpt>
      <trkpt lat="49.01628" lon="7.88237">
        <ele>366</ele>
        <time>2024-08-25T14:48:12Z</time>
      </trkpt>
      <trkpt lat="49.01627" lon="7.88241">
        <ele>366.2</ele>
        <time>2024-08-25T14:48:13Z</time>
      </trkpt>
      <trkpt lat="49.01625" lon="7.88244">
        <ele>366.4</ele>
        <time>2024-08-25T14:48:14Z</time>
      </trkpt>
      <trkpt lat="49.01624" lon="7.88247">
        <ele>366.8</ele>
        <time>2024-08-25T14:48:15Z</time>
      </trkpt>
      <trkpt lat="49.01624" lon="7.88249">
        <ele>367</ele>
        <time>2024-08-25T14:48:16Z</time>
      </trkpt>
      <trkpt lat="49.01623" lon="7.88251">
        <ele>367.2</ele>
        <time>2024-08-25T14:48:17Z</time>
      </trkpt>
      <trkpt lat="49.01623" lon="7.88254">
        <ele>367.4</ele>
        <time>2024-08-25T14:48:18Z</time>
      </trkpt>
      <trkpt lat="49.01622" lon="7.88257">
        <ele>367.4</ele>
        <time>2024-08-25T14:48:19Z</time>
      </trkpt>
      <trkpt lat="49.01622" lon="7.8826">
        <ele>367.6</ele>
        <time>2024-08-25T14:48:20Z</time>
      </trkpt>
      <trkpt lat="49.01622" lon="7.88264">
        <ele>367.8</ele>
        <time>2024-08-25T14:48:21Z</time>
      </trkpt>
      <trkpt lat="49.01621" lon="7.88266">
        <ele>368</ele>
        <time>2024-08-25T14:48:22Z</time>
      </trkpt>
      <trkpt lat="49.01621" lon="7.88268">
        <ele>368.2</ele>
        <time>2024-08-25T14:48:23Z</time>
      </trkpt>
      <trkpt lat="49.01621" lon="7.88271">
        <ele>368.4</ele>
        <time>2024-08-25T14:48:24Z</time>
      </trkpt>
      <trkpt lat="49.01621" lon="7.88275">
        <ele>368.6</ele>
        <time>2024-08-25T14:48:25Z</time>
      </trkpt>
      <trkpt lat="49.0162" lon="7.88278">
        <ele>368.8</ele>
        <time>2024-08-25T14:48:26Z</time>
      </trkpt>
      <trkpt lat="49.01621" lon="7.88282">
        <ele>369</ele>
        <time>2024-08-25T14:48:27Z</time>
      </trkpt>
      <trkpt lat="49.01621" lon="7.88284">
        <ele>369.2</ele>
        <time>2024-08-25T14:48:28Z</time>
      </trkpt>
      <trkpt lat="49.01621" lon="7.88288">
        <ele>369.2</ele>
        <time>2024-08-25T14:48:29Z</time>
      </trkpt>
      <trkpt lat="49.01621" lon="7.88291">
        <ele>369.4</ele>
        <time>2024-08-25T14:48:30Z</time>
      </trkpt>
      <trkpt lat="49.01621" lon="7.88293">
        <ele>369.6</ele>
        <time>2024-08-25T14:48:31Z</time>
      </trkpt>
      <trkpt lat="49.01621" lon="7.88296">
        <ele>369.6</ele>
        <time>2024-08-25T14:48:32Z</time>
      </trkpt>
      <trkpt lat="49.01622" lon="7.88298">
        <ele>369.8</ele>
        <time>2024-08-25T14:48:33Z</time>
      </trkpt>
      <trkpt lat="49.01622" lon="7.88301">
        <ele>370</ele>
        <time>2024-08-25T14:48:34Z</time>
      </trkpt>
      <trkpt lat="49.01622" lon="7.88302">
        <ele>370</ele>
        <time>2024-08-25T14:48:35Z</time>
      </trkpt>
      <trkpt lat="49.01623" lon="7.88305">
        <ele>370.2</ele>
        <time>2024-08-25T14:48:36Z</time>
      </trkpt>
      <trkpt lat="49.01623" lon="7.88307">
        <ele>370.4</ele>
        <time>2024-08-25T14:48:37Z</time>
      </trkpt>
      <trkpt lat="49.01624" lon="7.8831">
        <ele>370.4</ele>
        <time>2024-08-25T14:48:38Z</time>
      </trkpt>
      <trkpt lat="49.01624" lon="7.88312">
        <ele>370.6</ele>
        <time>2024-08-25T14:48:39Z</time>
      </trkpt>
      <trkpt lat="49.01625" lon="7.88315">
        <ele>370.8</ele>
        <time>2024-08-25T14:48:40Z</time>
      </trkpt>
      <trkpt lat="49.01626" lon="7.88317">
        <ele>370.8</ele>
        <time>2024-08-25T14:48:41Z</time>
      </trkpt>
      <trkpt lat="49.01628" lon="7.88319">
        <ele>371</ele>
        <time>2024-08-25T14:48:42Z</time>
      </trkpt>
      <trkpt lat="49.01629" lon="7.88322">
        <ele>371</ele>
        <time>2024-08-25T14:48:43Z</time>
      </trkpt>
      <trkpt lat="49.0163" lon="7.88324">
        <ele>371.2</ele>
        <time>2024-08-25T14:48:44Z</time>
      </trkpt>
      <trkpt lat="49.01631" lon="7.88326">
        <ele>371.6</ele>
        <time>2024-08-25T14:48:45Z</time>
      </trkpt>
      <trkpt lat="49.01633" lon="7.88327">
        <ele>371.8</ele>
        <time>2024-08-25T14:48:46Z</time>
      </trkpt>
      <trkpt lat="49.01634" lon="7.88329">
        <ele>371.8</ele>
        <time>2024-08-25T14:48:47Z</time>
      </trkpt>
      <trkpt lat="49.01635" lon="7.88332">
        <ele>372</ele>
        <time>2024-08-25T14:48:48Z</time>
      </trkpt>
      <trkpt lat="49.01636" lon="7.88334">
        <ele>372.2</ele>
        <time>2024-08-25T14:48:49Z</time>
      </trkpt>
      <trkpt lat="49.01637" lon="7.88336">
        <ele>372.2</ele>
        <time>2024-08-25T14:48:50Z</time>
      </trkpt>
      <trkpt lat="49.01638" lon="7.88338">
        <ele>372.4</ele>
        <time>2024-08-25T14:48:51Z</time>
      </trkpt>
      <trkpt lat="49.0164" lon="7.8834">
        <ele>372.6</ele>
        <time>2024-08-25T14:48:52Z</time>
      </trkpt>
      <trkpt lat="49.01641" lon="7.88343">
        <ele>372.8</ele>
        <time>2024-08-25T14:48:53Z</time>
      </trkpt>
      <trkpt lat="49.01642" lon="7.88344">
        <ele>373</ele>
        <time>2024-08-25T14:48:54Z</time>
      </trkpt>
      <trkpt lat="49.01643" lon="7.88346">
        <ele>373.2</ele>
        <time>2024-08-25T14:48:55Z</time>
      </trkpt>
      <trkpt lat="49.01644" lon="7.88348">
        <ele>373.6</ele>
        <time>2024-08-25T14:48:56Z</time>
      </trkpt>
      <trkpt lat="49.01645" lon="7.8835">
        <ele>373.8</ele>
        <time>2024-08-25T14:48:57Z</time>
      </trkpt>
      <trkpt lat="49.01646" lon="7.88351">
        <ele>374</ele>
        <time>2024-08-25T14:48:58Z</time>
      </trkpt>
      <trkpt lat="49.01647" lon="7.88352">
        <ele>374.4</ele>
        <time>2024-08-25T14:48:59Z</time>
      </trkpt>
      <trkpt lat="49.01648" lon="7.88354">
        <ele>374.6</ele>
        <time>2024-08-25T14:49:00Z</time>
      </trkpt>
      <trkpt lat="49.01649" lon="7.88356">
        <ele>374.8</ele>
        <time>2024-08-25T14:49:01Z</time>
      </trkpt>
      <trkpt lat="49.0165" lon="7.88358">
        <ele>375</ele>
        <time>2024-08-25T14:49:02Z</time>
      </trkpt>
      <trkpt lat="49.01652" lon="7.88361">
        <ele>375.2</ele>
        <time>2024-08-25T14:49:03Z</time>
      </trkpt>
      <trkpt lat="49.01653" lon="7.88363">
        <ele>375.4</ele>
        <time>2024-08-25T14:49:04Z</time>
      </trkpt>
      <trkpt lat="49.01655" lon="7.88364">
        <ele>375.8</ele>
        <time>2024-08-25T14:49:05Z</time>
      </trkpt>
      <trkpt lat="49.01656" lon="7.88366">
        <ele>376</ele>
        <time>2024-08-25T14:49:06Z</time>
      </trkpt>
      <trkpt lat="49.01657" lon="7.88368">
        <ele>376.2</ele>
        <time>2024-08-25T14:49:07Z</time>
      </trkpt>
      <trkpt lat="49.01658" lon="7.88371">
        <ele>376.4</ele>
        <time>2024-08-25T14:49:08Z</time>
      </trkpt>
      <trkpt lat="49.0166" lon="7.88373">
        <ele>376.6</ele>
        <time>2024-08-25T14:49:09Z</time>
      </trkpt>
      <trkpt lat="49.01661" lon="7.88375">
        <ele>376.6</ele>
        <time>2024-08-25T14:49:10Z</time>
      </trkpt>
      <trkpt lat="49.01662" lon="7.88377">
        <ele>376.8</ele>
        <time>2024-08-25T14:49:11Z</time>
      </trkpt>
      <trkpt lat="49.01663" lon="7.88379">
        <ele>377</ele>
        <time>2024-08-25T14:49:12Z</time>
      </trkpt>
      <trkpt lat="49.01665" lon="7.88382">
        <ele>377.2</ele>
        <time>2024-08-25T14:49:13Z</time>
      </trkpt>
      <trkpt lat="49.01666" lon="7.88385">
        <ele>377.4</ele>
        <time>2024-08-25T14:49:14Z</time>
      </trkpt>
      <trkpt lat="49.01667" lon="7.88387">
        <ele>377.6</ele>
        <time>2024-08-25T14:49:15Z</time>
      </trkpt>
      <trkpt lat="49.01669" lon="7.8839">
        <ele>377.8</ele>
        <time>2024-08-25T14:49:16Z</time>
      </trkpt>
      <trkpt lat="49.0167" lon="7.88392">
        <ele>377.8</ele>
        <time>2024-08-25T14:49:17Z</time>
      </trkpt>
      <trkpt lat="49.01672" lon="7.88396">
        <ele>378</ele>
        <time>2024-08-25T14:49:18Z</time>
      </trkpt>
      <trkpt lat="49.01673" lon="7.88399">
        <ele>378.4</ele>
        <time>2024-08-25T14:49:19Z</time>
      </trkpt>
      <trkpt lat="49.01675" lon="7.88401">
        <ele>378.6</ele>
        <time>2024-08-25T14:49:20Z</time>
      </trkpt>
      <trkpt lat="49.01676" lon="7.88404">
        <ele>378.6</ele>
        <time>2024-08-25T14:49:21Z</time>
      </trkpt>
      <trkpt lat="49.01677" lon="7.88406">
        <ele>378.8</ele>
        <time>2024-08-25T14:49:22Z</time>
      </trkpt>
      <trkpt lat="49.01679" lon="7.88407">
        <ele>379</ele>
        <time>2024-08-25T14:49:23Z</time>
      </trkpt>
      <trkpt lat="49.0168" lon="7.88409">
        <ele>379.2</ele>
        <time>2024-08-25T14:49:24Z</time>
      </trkpt>
      <trkpt lat="49.01681" lon="7.88412">
        <ele>379.2</ele>
        <time>2024-08-25T14:49:25Z</time>
      </trkpt>
      <trkpt lat="49.01682" lon="7.88414">
        <ele>379.4</ele>
        <time>2024-08-25T14:49:26Z</time>
      </trkpt>
      <trkpt lat="49.01683" lon="7.88415">
        <ele>379.6</ele>
        <time>2024-08-25T14:49:27Z</time>
      </trkpt>
      <trkpt lat="49.01685" lon="7.88417">
        <ele>379.8</ele>
        <time>2024-08-25T14:49:28Z</time>
      </trkpt>
      <trkpt lat="49.01686" lon="7.88419">
        <ele>379.8</ele>
        <time>2024-08-25T14:49:29Z</time>
      </trkpt>
      <trkpt lat="49.01686" lon="7.88421">
        <ele>380</ele>
        <time>2024-08-25T14:49:30Z</time>
      </trkpt>
      <trkpt lat="49.01687" lon="7.88424">
        <ele>380</ele>
        <time>2024-08-25T14:49:31Z</time>
      </trkpt>
      <trkpt lat="49.01689" lon="7.88425">
        <ele>380.2</ele>
        <time>2024-08-25T14:49:32Z</time>
      </trkpt>
      <trkpt lat="49.0169" lon="7.88427">
        <ele>380.4</ele>
        <time>2024-08-25T14:49:33Z</time>
      </trkpt>
      <trkpt lat="49.01691" lon="7.88428">
        <ele>380.4</ele>
        <time>2024-08-25T14:49:34Z</time>
      </trkpt>
      <trkpt lat="49.01692" lon="7.88429">
        <ele>380.6</ele>
        <time>2024-08-25T14:49:35Z</time>
      </trkpt>
      <trkpt lat="49.01693" lon="7.88431">
        <ele>380.8</ele>
        <time>2024-08-25T14:49:36Z</time>
      </trkpt>
      <trkpt lat="49.01694" lon="7.88432">
        <ele>380.8</ele>
        <time>2024-08-25T14:49:37Z</time>
      </trkpt>
      <trkpt lat="49.01695" lon="7.88433">
        <ele>381</ele>
        <time>2024-08-25T14:49:38Z</time>
      </trkpt>
      <trkpt lat="49.01696" lon="7.88435">
        <ele>381</ele>
        <time>2024-08-25T14:49:39Z</time>
      </trkpt>
      <trkpt lat="49.01697" lon="7.88436">
        <ele>381.2</ele>
        <time>2024-08-25T14:49:40Z</time>
      </trkpt>
      <trkpt lat="49.01699" lon="7.88437">
        <ele>381.2</ele>
        <time>2024-08-25T14:49:41Z</time>
      </trkpt>
      <trkpt lat="49.017" lon="7.88438">
        <ele>381.2</ele>
        <time>2024-08-25T14:49:42Z</time>
      </trkpt>
      <trkpt lat="49.01701" lon="7.88438">
        <ele>381.2</ele>
        <time>2024-08-25T14:49:43Z</time>
      </trkpt>
      <trkpt lat="49.01701" lon="7.88438">
        <ele>381</ele>
        <time>2024-08-25T14:49:44Z</time>
      </trkpt>
      <trkpt lat="49.01706" lon="7.88447">
        <ele>381.4</ele>
        <time>2024-08-25T14:50:11Z</time>
      </trkpt>
      <trkpt lat="49.01708" lon="7.8845">
        <ele>381.4</ele>
        <time>2024-08-25T14:50:12Z</time>
      </trkpt>
      <trkpt lat="49.0171" lon="7.88453">
        <ele>381.4</ele>
        <time>2024-08-25T14:50:13Z</time>
      </trkpt>
      <trkpt lat="49.01711" lon="7.88455">
        <ele>381.4</ele>
        <time>2024-08-25T14:50:14Z</time>
      </trkpt>
      <trkpt lat="49.01712" lon="7.88458">
        <ele>381.4</ele>
        <time>2024-08-25T14:50:15Z</time>
      </trkpt>
      <trkpt lat="49.01714" lon="7.88461">
        <ele>381.4</ele>
        <time>2024-08-25T14:50:16Z</time>
      </trkpt>
      <trkpt lat="49.01715" lon="7.88465">
        <ele>381.4</ele>
        <time>2024-08-25T14:50:17Z</time>
      </trkpt>
      <trkpt lat="49.01716" lon="7.88467">
        <ele>381.4</ele>
        <time>2024-08-25T14:50:18Z</time>
      </trkpt>
      <trkpt lat="49.01717" lon="7.88469">
        <ele>381.4</ele>
        <time>2024-08-25T14:50:19Z</time>
      </trkpt>
      <trkpt lat="49.01719" lon="7.88472">
        <ele>381.4</ele>
        <time>2024-08-25T14:50:20Z</time>
      </trkpt>
      <trkpt lat="49.0172" lon="7.88475">
        <ele>381.4</ele>
        <time>2024-08-25T14:50:21Z</time>
      </trkpt>
      <trkpt lat="49.01722" lon="7.88479">
        <ele>381.6</ele>
        <time>2024-08-25T14:50:22Z</time>
      </trkpt>
      <trkpt lat="49.01723" lon="7.88482">
        <ele>381.6</ele>
        <time>2024-08-25T14:50:23Z</time>
      </trkpt>
      <trkpt lat="49.01726" lon="7.88484">
        <ele>381.6</ele>
        <time>2024-08-25T14:50:24Z</time>
      </trkpt>
      <trkpt lat="49.01727" lon="7.88487">
        <ele>381.6</ele>
        <time>2024-08-25T14:50:25Z</time>
      </trkpt>
      <trkpt lat="49.01729" lon="7.88491">
        <ele>381.6</ele>
        <time>2024-08-25T14:50:26Z</time>
      </trkpt>
      <trkpt lat="49.01731" lon="7.88495">
        <ele>381.4</ele>
        <time>2024-08-25T14:50:27Z</time>
      </trkpt>
      <trkpt lat="49.01734" lon="7.88499">
        <ele>381.4</ele>
        <time>2024-08-25T14:50:28Z</time>
      </trkpt>
      <trkpt lat="49.01737" lon="7.88504">
        <ele>381.4</ele>
        <time>2024-08-25T14:50:29Z</time>
      </trkpt>
      <trkpt lat="49.0174" lon="7.88508">
        <ele>381.2</ele>
        <time>2024-08-25T14:50:30Z</time>
      </trkpt>
      <trkpt lat="49.01742" lon="7.88513">
        <ele>381.2</ele>
        <time>2024-08-25T14:50:31Z</time>
      </trkpt>
      <trkpt lat="49.01746" lon="7.88519">
        <ele>381</ele>
        <time>2024-08-25T14:50:32Z</time>
      </trkpt>
      <trkpt lat="49.01749" lon="7.88524">
        <ele>380.8</ele>
        <time>2024-08-25T14:50:33Z</time>
      </trkpt>
      <trkpt lat="49.01752" lon="7.8853">
        <ele>380.8</ele>
        <time>2024-08-25T14:50:34Z</time>
      </trkpt>
      <trkpt lat="49.01755" lon="7.88535">
        <ele>380.6</ele>
        <time>2024-08-25T14:50:35Z</time>
      </trkpt>
      <trkpt lat="49.01759" lon="7.8854">
        <ele>380.4</ele>
        <time>2024-08-25T14:50:36Z</time>
      </trkpt>
      <trkpt lat="49.01763" lon="7.88546">
        <ele>380.2</ele>
        <time>2024-08-25T14:50:37Z</time>
      </trkpt>
      <trkpt lat="49.01766" lon="7.88551">
        <ele>379.8</ele>
        <time>2024-08-25T14:50:38Z</time>
      </trkpt>
      <trkpt lat="49.01769" lon="7.88556">
        <ele>379.8</ele>
        <time>2024-08-25T14:50:39Z</time>
      </trkpt>
      <trkpt lat="49.01772" lon="7.8856">
        <ele>379.6</ele>
        <time>2024-08-25T14:50:40Z</time>
      </trkpt>
      <trkpt lat="49.01775" lon="7.88565">
        <ele>379.4</ele>
        <time>2024-08-25T14:50:41Z</time>
      </trkpt>
      <trkpt lat="49.01778" lon="7.8857">
        <ele>379.4</ele>
        <time>2024-08-25T14:50:42Z</time>
      </trkpt>
      <trkpt lat="49.01782" lon="7.88574">
        <ele>379.2</ele>
        <time>2024-08-25T14:50:43Z</time>
      </trkpt>
      <trkpt lat="49.01785" lon="7.88579">
        <ele>378.8</ele>
        <time>2024-08-25T14:50:44Z</time>
      </trkpt>
      <trkpt lat="49.01788" lon="7.88583">
        <ele>378.6</ele>
        <time>2024-08-25T14:50:45Z</time>
      </trkpt>
      <trkpt lat="49.01792" lon="7.88586">
        <ele>378.2</ele>
        <time>2024-08-25T14:50:46Z</time>
      </trkpt>
      <trkpt lat="49.01795" lon="7.88589">
        <ele>377.8</ele>
        <time>2024-08-25T14:50:47Z</time>
      </trkpt>
      <trkpt lat="49.01799" lon="7.8859">
        <ele>377.2</ele>
        <time>2024-08-25T14:50:48Z</time>
      </trkpt>
      <trkpt lat="49.01803" lon="7.88589">
        <ele>376.8</ele>
        <time>2024-08-25T14:50:49Z</time>
      </trkpt>
      <trkpt lat="49.01806" lon="7.88588">
        <ele>376.2</ele>
        <time>2024-08-25T14:50:50Z</time>
      </trkpt>
      <trkpt lat="49.01808" lon="7.88588">
        <ele>376</ele>
        <time>2024-08-25T14:50:51Z</time>
      </trkpt>
      <trkpt lat="49.01811" lon="7.88587">
        <ele>376</ele>
        <time>2024-08-25T14:50:52Z</time>
      </trkpt>
      <trkpt lat="49.01813" lon="7.88586">
        <ele>376</ele>
        <time>2024-08-25T14:50:53Z</time>
      </trkpt>
      <trkpt lat="49.01815" lon="7.88585">
        <ele>376</ele>
        <time>2024-08-25T14:50:54Z</time>
      </trkpt>
      <trkpt lat="49.01817" lon="7.88584">
        <ele>376.2</ele>
        <time>2024-08-25T14:50:55Z</time>
      </trkpt>
      <trkpt lat="49.0182" lon="7.88583">
        <ele>376.4</ele>
        <time>2024-08-25T14:50:56Z</time>
      </trkpt>
      <trkpt lat="49.01822" lon="7.88582">
        <ele>376.6</ele>
        <time>2024-08-25T14:50:57Z</time>
      </trkpt>
      <trkpt lat="49.01824" lon="7.88581">
        <ele>376.6</ele>
        <time>2024-08-25T14:50:58Z</time>
      </trkpt>
      <trkpt lat="49.01826" lon="7.88581">
        <ele>376.8</ele>
        <time>2024-08-25T14:50:59Z</time>
      </trkpt>
      <trkpt lat="49.01828" lon="7.88579">
        <ele>377.2</ele>
        <time>2024-08-25T14:51:00Z</time>
      </trkpt>
      <trkpt lat="49.0183" lon="7.88579">
        <ele>377.4</ele>
        <time>2024-08-25T14:51:01Z</time>
      </trkpt>
      <trkpt lat="49.01832" lon="7.88578">
        <ele>377.6</ele>
        <time>2024-08-25T14:51:02Z</time>
      </trkpt>
      <trkpt lat="49.01834" lon="7.88578">
        <ele>377.8</ele>
        <time>2024-08-25T14:51:03Z</time>
      </trkpt>
      <trkpt lat="49.01837" lon="7.88576">
        <ele>378</ele>
        <time>2024-08-25T14:51:04Z</time>
      </trkpt>
      <trkpt lat="49.01839" lon="7.88575">
        <ele>378</ele>
        <time>2024-08-25T14:51:05Z</time>
      </trkpt>
      <trkpt lat="49.01842" lon="7.88575">
        <ele>378.2</ele>
        <time>2024-08-25T14:51:06Z</time>
      </trkpt>
      <trkpt lat="49.01844" lon="7.88574">
        <ele>378.4</ele>
        <time>2024-08-25T14:51:07Z</time>
      </trkpt>
      <trkpt lat="49.01846" lon="7.88573">
        <ele>378.6</ele>
        <time>2024-08-25T14:51:08Z</time>
      </trkpt>
      <trkpt lat="49.01848" lon="7.88571">
        <ele>378.6</ele>
        <time>2024-08-25T14:51:09Z</time>
      </trkpt>
      <trkpt lat="49.01851" lon="7.8857">
        <ele>378.8</ele>
        <time>2024-08-25T14:51:10Z</time>
      </trkpt>
      <trkpt lat="49.01853" lon="7.8857">
        <ele>378.8</ele>
        <time>2024-08-25T14:51:11Z</time>
      </trkpt>
      <trkpt lat="49.01855" lon="7.88571">
        <ele>378.8</ele>
        <time>2024-08-25T14:51:12Z</time>
      </trkpt>
      <trkpt lat="49.01858" lon="7.88571">
        <ele>378.8</ele>
        <time>2024-08-25T14:51:13Z</time>
      </trkpt>
      <trkpt lat="49.01861" lon="7.88571">
        <ele>378.8</ele>
        <time>2024-08-25T14:51:14Z</time>
      </trkpt>
      <trkpt lat="49.01864" lon="7.8857">
        <ele>378.8</ele>
        <time>2024-08-25T14:51:15Z</time>
      </trkpt>
      <trkpt lat="49.01866" lon="7.88569">
        <ele>378.8</ele>
        <time>2024-08-25T14:51:16Z</time>
      </trkpt>
      <trkpt lat="49.01868" lon="7.88568">
        <ele>378.8</ele>
        <time>2024-08-25T14:51:17Z</time>
      </trkpt>
      <trkpt lat="49.01869" lon="7.88568">
        <ele>378.8</ele>
        <time>2024-08-25T14:51:18Z</time>
      </trkpt>
      <trkpt lat="49.0187" lon="7.88568">
        <ele>378.8</ele>
        <time>2024-08-25T14:51:19Z</time>
      </trkpt>
      <trkpt lat="49.01876" lon="7.88563">
        <ele>379.8</ele>
        <time>2024-08-25T14:52:03Z</time>
      </trkpt>
      <trkpt lat="49.01879" lon="7.88562">
        <ele>379.8</ele>
        <time>2024-08-25T14:52:04Z</time>
      </trkpt>
      <trkpt lat="49.01881" lon="7.88562">
        <ele>379.8</ele>
        <time>2024-08-25T14:52:05Z</time>
      </trkpt>
      <trkpt lat="49.01884" lon="7.88562">
        <ele>379.8</ele>
        <time>2024-08-25T14:52:06Z</time>
      </trkpt>
      <trkpt lat="49.01886" lon="7.88561">
        <ele>379.8</ele>
        <time>2024-08-25T14:52:07Z</time>
      </trkpt>
      <trkpt lat="49.01888" lon="7.88561">
        <ele>380</ele>
        <time>2024-08-25T14:52:08Z</time>
      </trkpt>
      <trkpt lat="49.0189" lon="7.88561">
        <ele>380.2</ele>
        <time>2024-08-25T14:52:09Z</time>
      </trkpt>
      <trkpt lat="49.01892" lon="7.88561">
        <ele>380.2</ele>
        <time>2024-08-25T14:52:10Z</time>
      </trkpt>
      <trkpt lat="49.01894" lon="7.88561">
        <ele>380.4</ele>
        <time>2024-08-25T14:52:11Z</time>
      </trkpt>
      <trkpt lat="49.01895" lon="7.8856">
        <ele>380.6</ele>
        <time>2024-08-25T14:52:12Z</time>
      </trkpt>
      <trkpt lat="49.01896" lon="7.8856">
        <ele>380.6</ele>
        <time>2024-08-25T14:52:13Z</time>
      </trkpt>
      <trkpt lat="49.01897" lon="7.88559">
        <ele>380.8</ele>
        <time>2024-08-25T14:52:14Z</time>
      </trkpt>
      <trkpt lat="49.01898" lon="7.88559">
        <ele>381</ele>
        <time>2024-08-25T14:52:15Z</time>
      </trkpt>
      <trkpt lat="49.01899" lon="7.88557">
        <ele>381.2</ele>
        <time>2024-08-25T14:52:16Z</time>
      </trkpt>
      <trkpt lat="49.019" lon="7.88556">
        <ele>381.4</ele>
        <time>2024-08-25T14:52:17Z</time>
      </trkpt>
      <trkpt lat="49.01901" lon="7.88554">
        <ele>381.6</ele>
        <time>2024-08-25T14:52:18Z</time>
      </trkpt>
      <trkpt lat="49.01901" lon="7.88553">
        <ele>381.8</ele>
        <time>2024-08-25T14:52:19Z</time>
      </trkpt>
      <trkpt lat="49.01903" lon="7.88552">
        <ele>382</ele>
        <time>2024-08-25T14:52:20Z</time>
      </trkpt>
      <trkpt lat="49.01904" lon="7.88552">
        <ele>382.2</ele>
        <time>2024-08-25T14:52:21Z</time>
      </trkpt>
      <trkpt lat="49.01905" lon="7.8855">
        <ele>382.4</ele>
        <time>2024-08-25T14:52:22Z</time>
      </trkpt>
      <trkpt lat="49.01906" lon="7.88549">
        <ele>382.6</ele>
        <time>2024-08-25T14:52:23Z</time>
      </trkpt>
      <trkpt lat="49.01907" lon="7.88547">
        <ele>382.8</ele>
        <time>2024-08-25T14:52:24Z</time>
      </trkpt>
      <trkpt lat="49.01908" lon="7.88545">
        <ele>383.2</ele>
        <time>2024-08-25T14:52:25Z</time>
      </trkpt>
      <trkpt lat="49.01909" lon="7.88543">
        <ele>383.4</ele>
        <time>2024-08-25T14:52:26Z</time>
      </trkpt>
      <trkpt lat="49.0191" lon="7.88541">
        <ele>383.8</ele>
        <time>2024-08-25T14:52:27Z</time>
      </trkpt>
      <trkpt lat="49.01911" lon="7.8854">
        <ele>383.8</ele>
        <time>2024-08-25T14:52:28Z</time>
      </trkpt>
      <trkpt lat="49.01912" lon="7.88539">
        <ele>384</ele>
        <time>2024-08-25T14:52:29Z</time>
      </trkpt>
      <trkpt lat="49.01913" lon="7.88537">
        <ele>384.4</ele>
        <time>2024-08-25T14:52:30Z</time>
      </trkpt>
      <trkpt lat="49.01914" lon="7.88536">
        <ele>384.6</ele>
        <time>2024-08-25T14:52:31Z</time>
      </trkpt>
      <trkpt lat="49.01916" lon="7.88534">
        <ele>384.8</ele>
        <time>2024-08-25T14:52:32Z</time>
      </trkpt>
      <trkpt lat="49.01917" lon="7.88532">
        <ele>385.2</ele>
        <time>2024-08-25T14:52:33Z</time>
      </trkpt>
      <trkpt lat="49.01918" lon="7.88531">
        <ele>385.4</ele>
        <time>2024-08-25T14:52:34Z</time>
      </trkpt>
      <trkpt lat="49.0192" lon="7.88529">
        <ele>385.6</ele>
        <time>2024-08-25T14:52:35Z</time>
      </trkpt>
      <trkpt lat="49.01922" lon="7.88528">
        <ele>385.8</ele>
        <time>2024-08-25T14:52:36Z</time>
      </trkpt>
      <trkpt lat="49.01923" lon="7.88526">
        <ele>386</ele>
        <time>2024-08-25T14:52:37Z</time>
      </trkpt>
      <trkpt lat="49.01924" lon="7.88526">
        <ele>386.2</ele>
        <time>2024-08-25T14:52:38Z</time>
      </trkpt>
      <trkpt lat="49.01924" lon="7.88525">
        <ele>386.6</ele>
        <time>2024-08-25T14:52:39Z</time>
      </trkpt>
      <trkpt lat="49.01925" lon="7.88524">
        <ele>386.8</ele>
        <time>2024-08-25T14:52:40Z</time>
      </trkpt>
      <trkpt lat="49.01926" lon="7.88523">
        <ele>387</ele>
        <time>2024-08-25T14:52:41Z</time>
      </trkpt>
      <trkpt lat="49.01926" lon="7.88522">
        <ele>387.4</ele>
        <time>2024-08-25T14:52:42Z</time>
      </trkpt>
      <trkpt lat="49.01928" lon="7.8852">
        <ele>387.8</ele>
        <time>2024-08-25T14:52:43Z</time>
      </trkpt>
      <trkpt lat="49.01929" lon="7.88518">
        <ele>388</ele>
        <time>2024-08-25T14:52:44Z</time>
      </trkpt>
      <trkpt lat="49.0193" lon="7.88517">
        <ele>388.6</ele>
        <time>2024-08-25T14:52:45Z</time>
      </trkpt>
      <trkpt lat="49.01932" lon="7.88515">
        <ele>388.8</ele>
        <time>2024-08-25T14:52:46Z</time>
      </trkpt>
      <trkpt lat="49.01933" lon="7.88513">
        <ele>389.2</ele>
        <time>2024-08-25T14:52:47Z</time>
      </trkpt>
      <trkpt lat="49.01934" lon="7.88511">
        <ele>389.8</ele>
        <time>2024-08-25T14:52:48Z</time>
      </trkpt>
      <trkpt lat="49.01935" lon="7.8851">
        <ele>390.2</ele>
        <time>2024-08-25T14:52:49Z</time>
      </trkpt>
      <trkpt lat="49.01937" lon="7.88508">
        <ele>390.6</ele>
        <time>2024-08-25T14:52:50Z</time>
      </trkpt>
      <trkpt lat="49.01938" lon="7.88506">
        <ele>391</ele>
        <time>2024-08-25T14:52:51Z</time>
      </trkpt>
      <trkpt lat="49.01939" lon="7.88504">
        <ele>391.4</ele>
        <time>2024-08-25T14:52:52Z</time>
      </trkpt>
      <trkpt lat="49.01939" lon="7.88501">
        <ele>391.8</ele>
        <time>2024-08-25T14:52:53Z</time>
      </trkpt>
      <trkpt lat="49.01939" lon="7.88499">
        <ele>392.2</ele>
        <time>2024-08-25T14:52:54Z</time>
      </trkpt>
      <trkpt lat="49.01939" lon="7.88497">
        <ele>392.4</ele>
        <time>2024-08-25T14:52:55Z</time>
      </trkpt>
      <trkpt lat="49.01939" lon="7.88495">
        <ele>392.8</ele>
        <time>2024-08-25T14:52:56Z</time>
      </trkpt>
      <trkpt lat="49.01938" lon="7.88493">
        <ele>393.2</ele>
        <time>2024-08-25T14:52:57Z</time>
      </trkpt>
      <trkpt lat="49.01938" lon="7.88491">
        <ele>393.6</ele>
        <time>2024-08-25T14:52:58Z</time>
      </trkpt>
      <trkpt lat="49.01938" lon="7.88488">
        <ele>393.8</ele>
        <time>2024-08-25T14:52:59Z</time>
      </trkpt>
      <trkpt lat="49.01939" lon="7.88486">
        <ele>394.2</ele>
        <time>2024-08-25T14:53:00Z</time>
      </trkpt>
      <trkpt lat="49.01938" lon="7.88484">
        <ele>394.4</ele>
        <time>2024-08-25T14:53:01Z</time>
      </trkpt>
      <trkpt lat="49.01938" lon="7.88483">
        <ele>394.8</ele>
        <time>2024-08-25T14:53:02Z</time>
      </trkpt>
      <trkpt lat="49.01938" lon="7.8848">
        <ele>395.2</ele>
        <time>2024-08-25T14:53:03Z</time>
      </trkpt>
      <trkpt lat="49.01938" lon="7.88479">
        <ele>395.6</ele>
        <time>2024-08-25T14:53:04Z</time>
      </trkpt>
      <trkpt lat="49.01938" lon="7.88476">
        <ele>395.8</ele>
        <time>2024-08-25T14:53:05Z</time>
      </trkpt>
      <trkpt lat="49.01938" lon="7.88474">
        <ele>396.2</ele>
        <time>2024-08-25T14:53:06Z</time>
      </trkpt>
      <trkpt lat="49.01938" lon="7.88472">
        <ele>396.4</ele>
        <time>2024-08-25T14:53:07Z</time>
      </trkpt>
      <trkpt lat="49.01938" lon="7.8847">
        <ele>396.6</ele>
        <time>2024-08-25T14:53:08Z</time>
      </trkpt>
      <trkpt lat="49.01938" lon="7.88469">
        <ele>397</ele>
        <time>2024-08-25T14:53:09Z</time>
      </trkpt>
      <trkpt lat="49.01937" lon="7.88466">
        <ele>397.2</ele>
        <time>2024-08-25T14:53:10Z</time>
      </trkpt>
      <trkpt lat="49.01937" lon="7.88464">
        <ele>397.4</ele>
        <time>2024-08-25T14:53:11Z</time>
      </trkpt>
      <trkpt lat="49.01937" lon="7.88462">
        <ele>397.6</ele>
        <time>2024-08-25T14:53:12Z</time>
      </trkpt>
      <trkpt lat="49.01937" lon="7.8846">
        <ele>397.8</ele>
        <time>2024-08-25T14:53:13Z</time>
      </trkpt>
      <trkpt lat="49.01937" lon="7.88458">
        <ele>398</ele>
        <time>2024-08-25T14:53:14Z</time>
      </trkpt>
      <trkpt lat="49.01936" lon="7.88455">
        <ele>398.4</ele>
        <time>2024-08-25T14:53:15Z</time>
      </trkpt>
      <trkpt lat="49.01936" lon="7.88453">
        <ele>398.6</ele>
        <time>2024-08-25T14:53:16Z</time>
      </trkpt>
      <trkpt lat="49.01936" lon="7.88451">
        <ele>398.8</ele>
        <time>2024-08-25T14:53:17Z</time>
      </trkpt>
      <trkpt lat="49.01935" lon="7.88449">
        <ele>399</ele>
        <time>2024-08-25T14:53:18Z</time>
      </trkpt>
      <trkpt lat="49.01935" lon="7.88446">
        <ele>399.2</ele>
        <time>2024-08-25T14:53:19Z</time>
      </trkpt>
      <trkpt lat="49.01935" lon="7.88444">
        <ele>399.4</ele>
        <time>2024-08-25T14:53:20Z</time>
      </trkpt>
      <trkpt lat="49.01934" lon="7.88442">
        <ele>399.6</ele>
        <time>2024-08-25T14:53:21Z</time>
      </trkpt>
      <trkpt lat="49.01934" lon="7.8844">
        <ele>399.8</ele>
        <time>2024-08-25T14:53:22Z</time>
      </trkpt>
      <trkpt lat="49.01933" lon="7.88438">
        <ele>400</ele>
        <time>2024-08-25T14:53:23Z</time>
      </trkpt>
      <trkpt lat="49.01933" lon="7.88435">
        <ele>400</ele>
        <time>2024-08-25T14:53:24Z</time>
      </trkpt>
      <trkpt lat="49.01933" lon="7.88433">
        <ele>400.2</ele>
        <time>2024-08-25T14:53:25Z</time>
      </trkpt>
      <trkpt lat="49.01933" lon="7.88431">
        <ele>400.4</ele>
        <time>2024-08-25T14:53:26Z</time>
      </trkpt>
      <trkpt lat="49.01933" lon="7.88429">
        <ele>400.6</ele>
        <time>2024-08-25T14:53:27Z</time>
      </trkpt>
      <trkpt lat="49.01933" lon="7.88428">
        <ele>400.6</ele>
        <time>2024-08-25T14:53:28Z</time>
      </trkpt>
      <trkpt lat="49.01933" lon="7.88426">
        <ele>400.8</ele>
        <time>2024-08-25T14:53:29Z</time>
      </trkpt>
      <trkpt lat="49.01933" lon="7.88424">
        <ele>401</ele>
        <time>2024-08-25T14:53:30Z</time>
      </trkpt>
      <trkpt lat="49.01932" lon="7.88422">
        <ele>401</ele>
        <time>2024-08-25T14:53:31Z</time>
      </trkpt>
      <trkpt lat="49.01932" lon="7.8842">
        <ele>401.2</ele>
        <time>2024-08-25T14:53:32Z</time>
      </trkpt>
      <trkpt lat="49.01932" lon="7.88418">
        <ele>401.6</ele>
        <time>2024-08-25T14:53:33Z</time>
      </trkpt>
      <trkpt lat="49.01932" lon="7.88416">
        <ele>401.8</ele>
        <time>2024-08-25T14:53:34Z</time>
      </trkpt>
      <trkpt lat="49.01932" lon="7.88413">
        <ele>402</ele>
        <time>2024-08-25T14:53:35Z</time>
      </trkpt>
      <trkpt lat="49.01932" lon="7.88411">
        <ele>402.4</ele>
        <time>2024-08-25T14:53:36Z</time>
      </trkpt>
      <trkpt lat="49.01932" lon="7.88409">
        <ele>402.6</ele>
        <time>2024-08-25T14:53:37Z</time>
      </trkpt>
      <trkpt lat="49.01932" lon="7.88407">
        <ele>402.6</ele>
        <time>2024-08-25T14:53:38Z</time>
      </trkpt>
      <trkpt lat="49.01932" lon="7.88405">
        <ele>403</ele>
        <time>2024-08-25T14:53:39Z</time>
      </trkpt>
      <trkpt lat="49.01932" lon="7.88403">
        <ele>403.2</ele>
        <time>2024-08-25T14:53:40Z</time>
      </trkpt>
      <trkpt lat="49.01932" lon="7.88401">
        <ele>403.4</ele>
        <time>2024-08-25T14:53:41Z</time>
      </trkpt>
      <trkpt lat="49.01932" lon="7.88399">
        <ele>403.6</ele>
        <time>2024-08-25T14:53:42Z</time>
      </trkpt>
      <trkpt lat="49.01932" lon="7.88397">
        <ele>403.8</ele>
        <time>2024-08-25T14:53:43Z</time>
      </trkpt>
      <trkpt lat="49.01931" lon="7.88395">
        <ele>404</ele>
        <time>2024-08-25T14:53:44Z</time>
      </trkpt>
      <trkpt lat="49.01931" lon="7.88393">
        <ele>404.2</ele>
        <time>2024-08-25T14:53:45Z</time>
      </trkpt>
      <trkpt lat="49.01931" lon="7.88391">
        <ele>404.4</ele>
        <time>2024-08-25T14:53:46Z</time>
      </trkpt>
      <trkpt lat="49.0193" lon="7.88389">
        <ele>404.6</ele>
        <time>2024-08-25T14:53:47Z</time>
      </trkpt>
      <trkpt lat="49.0193" lon="7.88387">
        <ele>404.8</ele>
        <time>2024-08-25T14:53:48Z</time>
      </trkpt>
      <trkpt lat="49.0193" lon="7.88385">
        <ele>405.2</ele>
        <time>2024-08-25T14:53:49Z</time>
      </trkpt>
      <trkpt lat="49.0193" lon="7.88383">
        <ele>405.4</ele>
        <time>2024-08-25T14:53:50Z</time>
      </trkpt>
      <trkpt lat="49.0193" lon="7.88381">
        <ele>405.4</ele>
        <time>2024-08-25T14:53:51Z</time>
      </trkpt>
      <trkpt lat="49.01929" lon="7.88379">
        <ele>405.6</ele>
        <time>2024-08-25T14:53:52Z</time>
      </trkpt>
      <trkpt lat="49.01929" lon="7.88377">
        <ele>406</ele>
        <time>2024-08-25T14:53:53Z</time>
      </trkpt>
      <trkpt lat="49.01929" lon="7.88375">
        <ele>406.2</ele>
        <time>2024-08-25T14:53:54Z</time>
      </trkpt>
      <trkpt lat="49.01929" lon="7.88373">
        <ele>406.4</ele>
        <time>2024-08-25T14:53:55Z</time>
      </trkpt>
      <trkpt lat="49.01928" lon="7.88371">
        <ele>406.6</ele>
        <time>2024-08-25T14:53:56Z</time>
      </trkpt>
      <trkpt lat="49.01928" lon="7.88369">
        <ele>406.8</ele>
        <time>2024-08-25T14:53:57Z</time>
      </trkpt>
      <trkpt lat="49.01928" lon="7.88367">
        <ele>407.2</ele>
        <time>2024-08-25T14:53:58Z</time>
      </trkpt>
      <trkpt lat="49.01929" lon="7.88366">
        <ele>407.4</ele>
        <time>2024-08-25T14:53:59Z</time>
      </trkpt>
      <trkpt lat="49.0193" lon="7.88365">
        <ele>407.6</ele>
        <time>2024-08-25T14:54:00Z</time>
      </trkpt>
      <trkpt lat="49.01931" lon="7.88365">
        <ele>408</ele>
        <time>2024-08-25T14:54:01Z</time>
      </trkpt>
      <trkpt lat="49.01933" lon="7.88367">
        <ele>408.2</ele>
        <time>2024-08-25T14:54:02Z</time>
      </trkpt>
      <trkpt lat="49.01934" lon="7.88368">
        <ele>408.4</ele>
        <time>2024-08-25T14:54:03Z</time>
      </trkpt>
      <trkpt lat="49.01935" lon="7.8837">
        <ele>408.6</ele>
        <time>2024-08-25T14:54:04Z</time>
      </trkpt>
      <trkpt lat="49.01936" lon="7.88372">
        <ele>408.6</ele>
        <time>2024-08-25T14:54:05Z</time>
      </trkpt>
      <trkpt lat="49.01938" lon="7.88372">
        <ele>408.8</ele>
        <time>2024-08-25T14:54:06Z</time>
      </trkpt>
      <trkpt lat="49.01939" lon="7.88373">
        <ele>408.8</ele>
        <time>2024-08-25T14:54:07Z</time>
      </trkpt>
      <trkpt lat="49.01941" lon="7.88375">
        <ele>408.8</ele>
        <time>2024-08-25T14:54:08Z</time>
      </trkpt>
      <trkpt lat="49.01942" lon="7.88376">
        <ele>408.8</ele>
        <time>2024-08-25T14:54:09Z</time>
      </trkpt>
      <trkpt lat="49.01944" lon="7.88378">
        <ele>408.8</ele>
        <time>2024-08-25T14:54:10Z</time>
      </trkpt>
      <trkpt lat="49.01945" lon="7.88379">
        <ele>408.8</ele>
        <time>2024-08-25T14:54:11Z</time>
      </trkpt>
      <trkpt lat="49.01946" lon="7.88382">
        <ele>408.8</ele>
        <time>2024-08-25T14:54:12Z</time>
      </trkpt>
      <trkpt lat="49.01947" lon="7.88384">
        <ele>408.8</ele>
        <time>2024-08-25T14:54:13Z</time>
      </trkpt>
      <trkpt lat="49.01948" lon="7.88386">
        <ele>408.8</ele>
        <time>2024-08-25T14:54:14Z</time>
      </trkpt>
      <trkpt lat="49.01949" lon="7.88388">
        <ele>408.8</ele>
        <time>2024-08-25T14:54:15Z</time>
      </trkpt>
      <trkpt lat="49.01951" lon="7.8839">
        <ele>408.8</ele>
        <time>2024-08-25T14:54:16Z</time>
      </trkpt>
      <trkpt lat="49.01952" lon="7.88393">
        <ele>408.8</ele>
        <time>2024-08-25T14:54:17Z</time>
      </trkpt>
      <trkpt lat="49.01954" lon="7.88397">
        <ele>408.8</ele>
        <time>2024-08-25T14:54:18Z</time>
      </trkpt>
      <trkpt lat="49.01956" lon="7.88399">
        <ele>409</ele>
        <time>2024-08-25T14:54:19Z</time>
      </trkpt>
      <trkpt lat="49.01958" lon="7.88402">
        <ele>409</ele>
        <time>2024-08-25T14:54:20Z</time>
      </trkpt>
      <trkpt lat="49.0196" lon="7.88406">
        <ele>409</ele>
        <time>2024-08-25T14:54:21Z</time>
      </trkpt>
      <trkpt lat="49.01961" lon="7.88409">
        <ele>409</ele>
        <time>2024-08-25T14:54:22Z</time>
      </trkpt>
      <trkpt lat="49.01962" lon="7.88413">
        <ele>409</ele>
        <time>2024-08-25T14:54:23Z</time>
      </trkpt>
      <trkpt lat="49.01964" lon="7.88416">
        <ele>409</ele>
        <time>2024-08-25T14:54:24Z</time>
      </trkpt>
      <trkpt lat="49.01966" lon="7.88419">
        <ele>409</ele>
        <time>2024-08-25T14:54:25Z</time>
      </trkpt>
      <trkpt lat="49.01968" lon="7.88423">
        <ele>409</ele>
        <time>2024-08-25T14:54:26Z</time>
      </trkpt>
      <trkpt lat="49.01969" lon="7.88427">
        <ele>409</ele>
        <time>2024-08-25T14:54:27Z</time>
      </trkpt>
      <trkpt lat="49.01971" lon="7.88431">
        <ele>408.8</ele>
        <time>2024-08-25T14:54:28Z</time>
      </trkpt>
      <trkpt lat="49.01972" lon="7.88436">
        <ele>408.8</ele>
        <time>2024-08-25T14:54:29Z</time>
      </trkpt>
      <trkpt lat="49.01974" lon="7.8844">
        <ele>408.8</ele>
        <time>2024-08-25T14:54:30Z</time>
      </trkpt>
      <trkpt lat="49.01975" lon="7.88444">
        <ele>408.8</ele>
        <time>2024-08-25T14:54:31Z</time>
      </trkpt>
      <trkpt lat="49.01977" lon="7.88449">
        <ele>408.8</ele>
        <time>2024-08-25T14:54:32Z</time>
      </trkpt>
      <trkpt lat="49.01979" lon="7.88453">
        <ele>408.8</ele>
        <time>2024-08-25T14:54:33Z</time>
      </trkpt>
      <trkpt lat="49.0198" lon="7.88456">
        <ele>408.8</ele>
        <time>2024-08-25T14:54:34Z</time>
      </trkpt>
      <trkpt lat="49.01982" lon="7.88459">
        <ele>408.8</ele>
        <time>2024-08-25T14:54:35Z</time>
      </trkpt>
      <trkpt lat="49.01983" lon="7.88463">
        <ele>408.8</ele>
        <time>2024-08-25T14:54:36Z</time>
      </trkpt>
      <trkpt lat="49.01985" lon="7.88468">
        <ele>408.8</ele>
        <time>2024-08-25T14:54:37Z</time>
      </trkpt>
      <trkpt lat="49.01986" lon="7.88472">
        <ele>408.8</ele>
        <time>2024-08-25T14:54:38Z</time>
      </trkpt>
      <trkpt lat="49.01987" lon="7.88475">
        <ele>408.8</ele>
        <time>2024-08-25T14:54:39Z</time>
      </trkpt>
      <trkpt lat="49.01988" lon="7.88476">
        <ele>408.8</ele>
        <time>2024-08-25T14:54:40Z</time>
      </trkpt>
      <trkpt lat="49.01989" lon="7.88478">
        <ele>408.8</ele>
        <time>2024-08-25T14:54:41Z</time>
      </trkpt>
      <trkpt lat="49.01989" lon="7.88478">
        <ele>408.8</ele>
        <time>2024-08-25T14:54:42Z</time>
      </trkpt>
      <trkpt lat="49.01991" lon="7.88484">
        <ele>408.6</ele>
        <time>2024-08-25T14:55:00Z</time>
      </trkpt>
      <trkpt lat="49.01992" lon="7.88487">
        <ele>408.6</ele>
        <time>2024-08-25T14:55:01Z</time>
      </trkpt>
      <trkpt lat="49.01993" lon="7.8849">
        <ele>408.6</ele>
        <time>2024-08-25T14:55:02Z</time>
      </trkpt>
      <trkpt lat="49.01995" lon="7.88494">
        <ele>408.6</ele>
        <time>2024-08-25T14:55:03Z</time>
      </trkpt>
      <trkpt lat="49.01996" lon="7.88498">
        <ele>408.4</ele>
        <time>2024-08-25T14:55:04Z</time>
      </trkpt>
      <trkpt lat="49.01997" lon="7.88502">
        <ele>408.4</ele>
        <time>2024-08-25T14:55:05Z</time>
      </trkpt>
      <trkpt lat="49.01997" lon="7.88506">
        <ele>408.4</ele>
        <time>2024-08-25T14:55:06Z</time>
      </trkpt>
      <trkpt lat="49.01998" lon="7.88511">
        <ele>408.4</ele>
        <time>2024-08-25T14:55:07Z</time>
      </trkpt>
      <trkpt lat="49.01999" lon="7.88516">
        <ele>408.4</ele>
        <time>2024-08-25T14:55:08Z</time>
      </trkpt>
      <trkpt lat="49.02" lon="7.88521">
        <ele>408.4</ele>
        <time>2024-08-25T14:55:09Z</time>
      </trkpt>
      <trkpt lat="49.02001" lon="7.88525">
        <ele>408.4</ele>
        <time>2024-08-25T14:55:10Z</time>
      </trkpt>
      <trkpt lat="49.02003" lon="7.88531">
        <ele>408.4</ele>
        <time>2024-08-25T14:55:11Z</time>
      </trkpt>
      <trkpt lat="49.02004" lon="7.88536">
        <ele>408.4</ele>
        <time>2024-08-25T14:55:12Z</time>
      </trkpt>
      <trkpt lat="49.02005" lon="7.88541">
        <ele>408.4</ele>
        <time>2024-08-25T14:55:13Z</time>
      </trkpt>
      <trkpt lat="49.02006" lon="7.88546">
        <ele>408.4</ele>
        <time>2024-08-25T14:55:14Z</time>
      </trkpt>
      <trkpt lat="49.02008" lon="7.88551">
        <ele>408.4</ele>
        <time>2024-08-25T14:55:15Z</time>
      </trkpt>
      <trkpt lat="49.02009" lon="7.88556">
        <ele>408.4</ele>
        <time>2024-08-25T14:55:16Z</time>
      </trkpt>
      <trkpt lat="49.0201" lon="7.88561">
        <ele>408.4</ele>
        <time>2024-08-25T14:55:17Z</time>
      </trkpt>
      <trkpt lat="49.02012" lon="7.88564">
        <ele>408.4</ele>
        <time>2024-08-25T14:55:18Z</time>
      </trkpt>
      <trkpt lat="49.02014" lon="7.88567">
        <ele>408.4</ele>
        <time>2024-08-25T14:55:19Z</time>
      </trkpt>
      <trkpt lat="49.02016" lon="7.88571">
        <ele>408.6</ele>
        <time>2024-08-25T14:55:20Z</time>
      </trkpt>
      <trkpt lat="49.02017" lon="7.88573">
        <ele>408.8</ele>
        <time>2024-08-25T14:55:21Z</time>
      </trkpt>
      <trkpt lat="49.02019" lon="7.88575">
        <ele>408.8</ele>
        <time>2024-08-25T14:55:22Z</time>
      </trkpt>
      <trkpt lat="49.0202" lon="7.88577">
        <ele>409.4</ele>
        <time>2024-08-25T14:55:23Z</time>
      </trkpt>
      <trkpt lat="49.02022" lon="7.88578">
        <ele>409.4</ele>
        <time>2024-08-25T14:55:24Z</time>
      </trkpt>
      <trkpt lat="49.02023" lon="7.8858">
        <ele>410.2</ele>
        <time>2024-08-25T14:55:25Z</time>
      </trkpt>
      <trkpt lat="49.02025" lon="7.88582">
        <ele>410.4</ele>
        <time>2024-08-25T14:55:26Z</time>
      </trkpt>
      <trkpt lat="49.02027" lon="7.88583">
        <ele>410.8</ele>
        <time>2024-08-25T14:55:27Z</time>
      </trkpt>
      <trkpt lat="49.02029" lon="7.88584">
        <ele>411</ele>
        <time>2024-08-25T14:55:28Z</time>
      </trkpt>
      <trkpt lat="49.0203" lon="7.88586">
        <ele>411.6</ele>
        <time>2024-08-25T14:55:29Z</time>
      </trkpt>
      <trkpt lat="49.02032" lon="7.88587">
        <ele>411.8</ele>
        <time>2024-08-25T14:55:30Z</time>
      </trkpt>
      <trkpt lat="49.02033" lon="7.88589">
        <ele>412.4</ele>
        <time>2024-08-25T14:55:31Z</time>
      </trkpt>
      <trkpt lat="49.02034" lon="7.8859">
        <ele>412.8</ele>
        <time>2024-08-25T14:55:32Z</time>
      </trkpt>
      <trkpt lat="49.02036" lon="7.88592">
        <ele>413</ele>
        <time>2024-08-25T14:55:33Z</time>
      </trkpt>
      <trkpt lat="49.02038" lon="7.88594">
        <ele>413.2</ele>
        <time>2024-08-25T14:55:34Z</time>
      </trkpt>
      <trkpt lat="49.02039" lon="7.88595">
        <ele>413.6</ele>
        <time>2024-08-25T14:55:35Z</time>
      </trkpt>
      <trkpt lat="49.0204" lon="7.88597">
        <ele>413.8</ele>
        <time>2024-08-25T14:55:36Z</time>
      </trkpt>
      <trkpt lat="49.02041" lon="7.88598">
        <ele>414</ele>
        <time>2024-08-25T14:55:37Z</time>
      </trkpt>
      <trkpt lat="49.02043" lon="7.886">
        <ele>414.2</ele>
        <time>2024-08-25T14:55:38Z</time>
      </trkpt>
      <trkpt lat="49.02044" lon="7.88602">
        <ele>414.6</ele>
        <time>2024-08-25T14:55:39Z</time>
      </trkpt>
      <trkpt lat="49.02046" lon="7.88603">
        <ele>414.8</ele>
        <time>2024-08-25T14:55:40Z</time>
      </trkpt>
      <trkpt lat="49.02048" lon="7.88604">
        <ele>415</ele>
        <time>2024-08-25T14:55:41Z</time>
      </trkpt>
      <trkpt lat="49.02049" lon="7.88605">
        <ele>415.4</ele>
        <time>2024-08-25T14:55:42Z</time>
      </trkpt>
      <trkpt lat="49.02051" lon="7.88605">
        <ele>415.6</ele>
        <time>2024-08-25T14:55:43Z</time>
      </trkpt>
      <trkpt lat="49.02052" lon="7.88607">
        <ele>415.8</ele>
        <time>2024-08-25T14:55:44Z</time>
      </trkpt>
      <trkpt lat="49.02054" lon="7.88608">
        <ele>416.2</ele>
        <time>2024-08-25T14:55:45Z</time>
      </trkpt>
      <trkpt lat="49.02055" lon="7.88609">
        <ele>416.4</ele>
        <time>2024-08-25T14:55:46Z</time>
      </trkpt>
      <trkpt lat="49.02057" lon="7.8861">
        <ele>416.8</ele>
        <time>2024-08-25T14:55:47Z</time>
      </trkpt>
      <trkpt lat="49.02058" lon="7.88611">
        <ele>417</ele>
        <time>2024-08-25T14:55:48Z</time>
      </trkpt>
      <trkpt lat="49.02059" lon="7.88612">
        <ele>417.2</ele>
        <time>2024-08-25T14:55:49Z</time>
      </trkpt>
      <trkpt lat="49.02061" lon="7.88613">
        <ele>417.8</ele>
        <time>2024-08-25T14:55:50Z</time>
      </trkpt>
      <trkpt lat="49.02062" lon="7.88614">
        <ele>418.2</ele>
        <time>2024-08-25T14:55:51Z</time>
      </trkpt>
      <trkpt lat="49.02063" lon="7.88615">
        <ele>418.4</ele>
        <time>2024-08-25T14:55:52Z</time>
      </trkpt>
      <trkpt lat="49.02064" lon="7.88616">
        <ele>418.8</ele>
        <time>2024-08-25T14:55:53Z</time>
      </trkpt>
      <trkpt lat="49.02066" lon="7.88616">
        <ele>419</ele>
        <time>2024-08-25T14:55:54Z</time>
      </trkpt>
      <trkpt lat="49.02067" lon="7.88617">
        <ele>419.4</ele>
        <time>2024-08-25T14:55:55Z</time>
      </trkpt>
      <trkpt lat="49.02068" lon="7.88618">
        <ele>419.6</ele>
        <time>2024-08-25T14:55:56Z</time>
      </trkpt>
      <trkpt lat="49.0207" lon="7.88618">
        <ele>420</ele>
        <time>2024-08-25T14:55:57Z</time>
      </trkpt>
      <trkpt lat="49.02072" lon="7.88619">
        <ele>420.4</ele>
        <time>2024-08-25T14:55:58Z</time>
      </trkpt>
      <trkpt lat="49.02073" lon="7.88621">
        <ele>420.6</ele>
        <time>2024-08-25T14:55:59Z</time>
      </trkpt>
      <trkpt lat="49.02074" lon="7.88623">
        <ele>420.8</ele>
        <time>2024-08-25T14:56:00Z</time>
      </trkpt>
      <trkpt lat="49.02075" lon="7.88624">
        <ele>421.2</ele>
        <time>2024-08-25T14:56:01Z</time>
      </trkpt>
      <trkpt lat="49.02077" lon="7.88624">
        <ele>421.4</ele>
        <time>2024-08-25T14:56:02Z</time>
      </trkpt>
      <trkpt lat="49.02078" lon="7.88625">
        <ele>421.8</ele>
        <time>2024-08-25T14:56:03Z</time>
      </trkpt>
      <trkpt lat="49.02079" lon="7.88627">
        <ele>422</ele>
        <time>2024-08-25T14:56:04Z</time>
      </trkpt>
      <trkpt lat="49.02081" lon="7.88627">
        <ele>422.2</ele>
        <time>2024-08-25T14:56:05Z</time>
      </trkpt>
      <trkpt lat="49.02082" lon="7.88627">
        <ele>422.4</ele>
        <time>2024-08-25T14:56:06Z</time>
      </trkpt>
      <trkpt lat="49.02083" lon="7.88628">
        <ele>422.8</ele>
        <time>2024-08-25T14:56:07Z</time>
      </trkpt>
      <trkpt lat="49.02084" lon="7.88629">
        <ele>423</ele>
        <time>2024-08-25T14:56:08Z</time>
      </trkpt>
      <trkpt lat="49.02086" lon="7.8863">
        <ele>423.4</ele>
        <time>2024-08-25T14:56:09Z</time>
      </trkpt>
      <trkpt lat="49.02088" lon="7.88631">
        <ele>423.6</ele>
        <time>2024-08-25T14:56:10Z</time>
      </trkpt>
      <trkpt lat="49.02089" lon="7.88632">
        <ele>424</ele>
        <time>2024-08-25T14:56:11Z</time>
      </trkpt>
      <trkpt lat="49.02091" lon="7.88632">
        <ele>424</ele>
        <time>2024-08-25T14:56:12Z</time>
      </trkpt>
      <trkpt lat="49.02092" lon="7.88633">
        <ele>424.4</ele>
        <time>2024-08-25T14:56:13Z</time>
      </trkpt>
      <trkpt lat="49.02093" lon="7.88634">
        <ele>424.6</ele>
        <time>2024-08-25T14:56:14Z</time>
      </trkpt>
      <trkpt lat="49.02094" lon="7.88635">
        <ele>425</ele>
        <time>2024-08-25T14:56:15Z</time>
      </trkpt>
      <trkpt lat="49.02095" lon="7.88635">
        <ele>425.2</ele>
        <time>2024-08-25T14:56:16Z</time>
      </trkpt>
      <trkpt lat="49.02096" lon="7.88636">
        <ele>425.6</ele>
        <time>2024-08-25T14:56:17Z</time>
      </trkpt>
      <trkpt lat="49.02097" lon="7.88637">
        <ele>425.8</ele>
        <time>2024-08-25T14:56:18Z</time>
      </trkpt>
      <trkpt lat="49.02099" lon="7.88637">
        <ele>426</ele>
        <time>2024-08-25T14:56:19Z</time>
      </trkpt>
      <trkpt lat="49.021" lon="7.88638">
        <ele>426.4</ele>
        <time>2024-08-25T14:56:20Z</time>
      </trkpt>
      <trkpt lat="49.02101" lon="7.8864">
        <ele>426.4</ele>
        <time>2024-08-25T14:56:21Z</time>
      </trkpt>
      <trkpt lat="49.02103" lon="7.88641">
        <ele>426.8</ele>
        <time>2024-08-25T14:56:22Z</time>
      </trkpt>
      <trkpt lat="49.02104" lon="7.88643">
        <ele>427</ele>
        <time>2024-08-25T14:56:23Z</time>
      </trkpt>
      <trkpt lat="49.02106" lon="7.88644">
        <ele>427.6</ele>
        <time>2024-08-25T14:56:24Z</time>
      </trkpt>
      <trkpt lat="49.02107" lon="7.88645">
        <ele>427.6</ele>
        <time>2024-08-25T14:56:25Z</time>
      </trkpt>
      <trkpt lat="49.02108" lon="7.88646">
        <ele>428</ele>
        <time>2024-08-25T14:56:26Z</time>
      </trkpt>
      <trkpt lat="49.0211" lon="7.88646">
        <ele>428.4</ele>
        <time>2024-08-25T14:56:27Z</time>
      </trkpt>
      <trkpt lat="49.0211" lon="7.88647">
        <ele>428.4</ele>
        <time>2024-08-25T14:56:28Z</time>
      </trkpt>
      <trkpt lat="49.02111" lon="7.88647">
        <ele>428.8</ele>
        <time>2024-08-25T14:56:29Z</time>
      </trkpt>
      <trkpt lat="49.02112" lon="7.88648">
        <ele>429</ele>
        <time>2024-08-25T14:56:30Z</time>
      </trkpt>
      <trkpt lat="49.02114" lon="7.88648">
        <ele>429.4</ele>
        <time>2024-08-25T14:56:31Z</time>
      </trkpt>
      <trkpt lat="49.02115" lon="7.88649">
        <ele>429.6</ele>
        <time>2024-08-25T14:56:32Z</time>
      </trkpt>
      <trkpt lat="49.02116" lon="7.8865">
        <ele>429.8</ele>
        <time>2024-08-25T14:56:33Z</time>
      </trkpt>
      <trkpt lat="49.02117" lon="7.88651">
        <ele>430.2</ele>
        <time>2024-08-25T14:56:34Z</time>
      </trkpt>
      <trkpt lat="49.02118" lon="7.88652">
        <ele>430.4</ele>
        <time>2024-08-25T14:56:35Z</time>
      </trkpt>
      <trkpt lat="49.02119" lon="7.88653">
        <ele>430.6</ele>
        <time>2024-08-25T14:56:36Z</time>
      </trkpt>
      <trkpt lat="49.02121" lon="7.88653">
        <ele>430.8</ele>
        <time>2024-08-25T14:56:37Z</time>
      </trkpt>
      <trkpt lat="49.02122" lon="7.88654">
        <ele>431.2</ele>
        <time>2024-08-25T14:56:38Z</time>
      </trkpt>
      <trkpt lat="49.02124" lon="7.88655">
        <ele>431.4</ele>
        <time>2024-08-25T14:56:39Z</time>
      </trkpt>
      <trkpt lat="49.02125" lon="7.88656">
        <ele>431.6</ele>
        <time>2024-08-25T14:56:40Z</time>
      </trkpt>
      <trkpt lat="49.02126" lon="7.88657">
        <ele>431.8</ele>
        <time>2024-08-25T14:56:41Z</time>
      </trkpt>
      <trkpt lat="49.02128" lon="7.88658">
        <ele>432</ele>
        <time>2024-08-25T14:56:42Z</time>
      </trkpt>
      <trkpt lat="49.0213" lon="7.8866">
        <ele>432.2</ele>
        <time>2024-08-25T14:56:43Z</time>
      </trkpt>
      <trkpt lat="49.02131" lon="7.88661">
        <ele>432.4</ele>
        <time>2024-08-25T14:56:44Z</time>
      </trkpt>
      <trkpt lat="49.02132" lon="7.88663">
        <ele>432.6</ele>
        <time>2024-08-25T14:56:45Z</time>
      </trkpt>
      <trkpt lat="49.02133" lon="7.88663">
        <ele>432.8</ele>
        <time>2024-08-25T14:56:46Z</time>
      </trkpt>
      <trkpt lat="49.02134" lon="7.88664">
        <ele>433.2</ele>
        <time>2024-08-25T14:56:47Z</time>
      </trkpt>
      <trkpt lat="49.02135" lon="7.88665">
        <ele>433.2</ele>
        <time>2024-08-25T14:56:48Z</time>
      </trkpt>
      <trkpt lat="49.02137" lon="7.88665">
        <ele>433.6</ele>
        <time>2024-08-25T14:56:49Z</time>
      </trkpt>
      <trkpt lat="49.02139" lon="7.88666">
        <ele>433.8</ele>
        <time>2024-08-25T14:56:50Z</time>
      </trkpt>
      <trkpt lat="49.0214" lon="7.88667">
        <ele>434</ele>
        <time>2024-08-25T14:56:51Z</time>
      </trkpt>
      <trkpt lat="49.02141" lon="7.88669">
        <ele>434.2</ele>
        <time>2024-08-25T14:56:52Z</time>
      </trkpt>
      <trkpt lat="49.02142" lon="7.88669">
        <ele>434.4</ele>
        <time>2024-08-25T14:56:53Z</time>
      </trkpt>
      <trkpt lat="49.02142" lon="7.8867">
        <ele>434.6</ele>
        <time>2024-08-25T14:56:54Z</time>
      </trkpt>
      <trkpt lat="49.02144" lon="7.88671">
        <ele>434.8</ele>
        <time>2024-08-25T14:56:55Z</time>
      </trkpt>
      <trkpt lat="49.02146" lon="7.88672">
        <ele>435</ele>
        <time>2024-08-25T14:56:56Z</time>
      </trkpt>
      <trkpt lat="49.02147" lon="7.88674">
        <ele>435.2</ele>
        <time>2024-08-25T14:56:57Z</time>
      </trkpt>
      <trkpt lat="49.02148" lon="7.88676">
        <ele>435.2</ele>
        <time>2024-08-25T14:56:58Z</time>
      </trkpt>
      <trkpt lat="49.02149" lon="7.88677">
        <ele>435.4</ele>
        <time>2024-08-25T14:56:59Z</time>
      </trkpt>
      <trkpt lat="49.0215" lon="7.88678">
        <ele>435.8</ele>
        <time>2024-08-25T14:57:00Z</time>
      </trkpt>
      <trkpt lat="49.02151" lon="7.88678">
        <ele>435.8</ele>
        <time>2024-08-25T14:57:01Z</time>
      </trkpt>
      <trkpt lat="49.02152" lon="7.88679">
        <ele>436</ele>
        <time>2024-08-25T14:57:02Z</time>
      </trkpt>
      <trkpt lat="49.02153" lon="7.8868">
        <ele>436.2</ele>
        <time>2024-08-25T14:57:03Z</time>
      </trkpt>
      <trkpt lat="49.02154" lon="7.8868">
        <ele>436.2</ele>
        <time>2024-08-25T14:57:04Z</time>
      </trkpt>
      <trkpt lat="49.02156" lon="7.8868">
        <ele>436.4</ele>
        <time>2024-08-25T14:57:05Z</time>
      </trkpt>
      <trkpt lat="49.02157" lon="7.88681">
        <ele>436.6</ele>
        <time>2024-08-25T14:57:06Z</time>
      </trkpt>
      <trkpt lat="49.02159" lon="7.88681">
        <ele>436.8</ele>
        <time>2024-08-25T14:57:07Z</time>
      </trkpt>
      <trkpt lat="49.0216" lon="7.88682">
        <ele>437</ele>
        <time>2024-08-25T14:57:08Z</time>
      </trkpt>
      <trkpt lat="49.02161" lon="7.88683">
        <ele>437.2</ele>
        <time>2024-08-25T14:57:09Z</time>
      </trkpt>
      <trkpt lat="49.02162" lon="7.88683">
        <ele>437.4</ele>
        <time>2024-08-25T14:57:10Z</time>
      </trkpt>
      <trkpt lat="49.02164" lon="7.88684">
        <ele>437.6</ele>
        <time>2024-08-25T14:57:11Z</time>
      </trkpt>
      <trkpt lat="49.02165" lon="7.88683">
        <ele>437.8</ele>
        <time>2024-08-25T14:57:12Z</time>
      </trkpt>
      <trkpt lat="49.02166" lon="7.88684">
        <ele>438</ele>
        <time>2024-08-25T14:57:13Z</time>
      </trkpt>
      <trkpt lat="49.02168" lon="7.88685">
        <ele>438.4</ele>
        <time>2024-08-25T14:57:14Z</time>
      </trkpt>
      <trkpt lat="49.0217" lon="7.88684">
        <ele>438.6</ele>
        <time>2024-08-25T14:57:15Z</time>
      </trkpt>
      <trkpt lat="49.02171" lon="7.88685">
        <ele>438.8</ele>
        <time>2024-08-25T14:57:16Z</time>
      </trkpt>
      <trkpt lat="49.02173" lon="7.88687">
        <ele>439</ele>
        <time>2024-08-25T14:57:17Z</time>
      </trkpt>
      <trkpt lat="49.02174" lon="7.88688">
        <ele>439.2</ele>
        <time>2024-08-25T14:57:18Z</time>
      </trkpt>
      <trkpt lat="49.02176" lon="7.88688">
        <ele>439.4</ele>
        <time>2024-08-25T14:57:19Z</time>
      </trkpt>
      <trkpt lat="49.02177" lon="7.8869">
        <ele>439.6</ele>
        <time>2024-08-25T14:57:20Z</time>
      </trkpt>
      <trkpt lat="49.02178" lon="7.88691">
        <ele>439.8</ele>
        <time>2024-08-25T14:57:21Z</time>
      </trkpt>
      <trkpt lat="49.02179" lon="7.88692">
        <ele>440</ele>
        <time>2024-08-25T14:57:22Z</time>
      </trkpt>
      <trkpt lat="49.02181" lon="7.88693">
        <ele>440.2</ele>
        <time>2024-08-25T14:57:23Z</time>
      </trkpt>
      <trkpt lat="49.02182" lon="7.88694">
        <ele>440.2</ele>
        <time>2024-08-25T14:57:24Z</time>
      </trkpt>
      <trkpt lat="49.02183" lon="7.88695">
        <ele>440.4</ele>
        <time>2024-08-25T14:57:25Z</time>
      </trkpt>
      <trkpt lat="49.02184" lon="7.88696">
        <ele>440.4</ele>
        <time>2024-08-25T14:57:26Z</time>
      </trkpt>
      <trkpt lat="49.02185" lon="7.88697">
        <ele>440.4</ele>
        <time>2024-08-25T14:57:27Z</time>
      </trkpt>
      <trkpt lat="49.02186" lon="7.88698">
        <ele>440.4</ele>
        <time>2024-08-25T14:57:28Z</time>
      </trkpt>
      <trkpt lat="49.02187" lon="7.88698">
        <ele>440.6</ele>
        <time>2024-08-25T14:57:29Z</time>
      </trkpt>
      <trkpt lat="49.02188" lon="7.88699">
        <ele>440.6</ele>
        <time>2024-08-25T14:57:30Z</time>
      </trkpt>
      <trkpt lat="49.02189" lon="7.887">
        <ele>440.6</ele>
        <time>2024-08-25T14:57:31Z</time>
      </trkpt>
      <trkpt lat="49.0219" lon="7.88701">
        <ele>440.6</ele>
        <time>2024-08-25T14:57:32Z</time>
      </trkpt>
      <trkpt lat="49.02192" lon="7.88701">
        <ele>440.6</ele>
        <time>2024-08-25T14:57:33Z</time>
      </trkpt>
      <trkpt lat="49.02193" lon="7.88702">
        <ele>440.6</ele>
        <time>2024-08-25T14:57:34Z</time>
      </trkpt>
      <trkpt lat="49.02195" lon="7.88702">
        <ele>440.8</ele>
        <time>2024-08-25T14:57:35Z</time>
      </trkpt>
      <trkpt lat="49.02196" lon="7.88702">
        <ele>440.8</ele>
        <time>2024-08-25T14:57:36Z</time>
      </trkpt>
      <trkpt lat="49.02198" lon="7.88703">
        <ele>440.8</ele>
        <time>2024-08-25T14:57:37Z</time>
      </trkpt>
      <trkpt lat="49.02199" lon="7.88703">
        <ele>440.8</ele>
        <time>2024-08-25T14:57:38Z</time>
      </trkpt>
      <trkpt lat="49.02201" lon="7.88703">
        <ele>440.8</ele>
        <time>2024-08-25T14:57:39Z</time>
      </trkpt>
      <trkpt lat="49.02203" lon="7.88702">
        <ele>441</ele>
        <time>2024-08-25T14:57:40Z</time>
      </trkpt>
      <trkpt lat="49.02205" lon="7.88702">
        <ele>441</ele>
        <time>2024-08-25T14:57:41Z</time>
      </trkpt>
      <trkpt lat="49.02207" lon="7.88702">
        <ele>441</ele>
        <time>2024-08-25T14:57:42Z</time>
      </trkpt>
      <trkpt lat="49.02208" lon="7.88701">
        <ele>441</ele>
        <time>2024-08-25T14:57:43Z</time>
      </trkpt>
      <trkpt lat="49.0221" lon="7.88701">
        <ele>441</ele>
        <time>2024-08-25T14:57:44Z</time>
      </trkpt>
      <trkpt lat="49.02211" lon="7.887">
        <ele>441</ele>
        <time>2024-08-25T14:57:45Z</time>
      </trkpt>
      <trkpt lat="49.02212" lon="7.88699">
        <ele>441.2</ele>
        <time>2024-08-25T14:57:46Z</time>
      </trkpt>
      <trkpt lat="49.02213" lon="7.88698">
        <ele>441.2</ele>
        <time>2024-08-25T14:57:47Z</time>
      </trkpt>
      <trkpt lat="49.02215" lon="7.88696">
        <ele>441.4</ele>
        <time>2024-08-25T14:57:48Z</time>
      </trkpt>
      <trkpt lat="49.02216" lon="7.88694">
        <ele>441.4</ele>
        <time>2024-08-25T14:57:49Z</time>
      </trkpt>
      <trkpt lat="49.02218" lon="7.88693">
        <ele>441.4</ele>
        <time>2024-08-25T14:57:50Z</time>
      </trkpt>
      <trkpt lat="49.0222" lon="7.88691">
        <ele>441.4</ele>
        <time>2024-08-25T14:57:51Z</time>
      </trkpt>
      <trkpt lat="49.02222" lon="7.88689">
        <ele>441.4</ele>
        <time>2024-08-25T14:57:52Z</time>
      </trkpt>
      <trkpt lat="49.02223" lon="7.88687">
        <ele>441.4</ele>
        <time>2024-08-25T14:57:53Z</time>
      </trkpt>
      <trkpt lat="49.02225" lon="7.88684">
        <ele>441.4</ele>
        <time>2024-08-25T14:57:54Z</time>
      </trkpt>
      <trkpt lat="49.02226" lon="7.88682">
        <ele>441.4</ele>
        <time>2024-08-25T14:57:55Z</time>
      </trkpt>
      <trkpt lat="49.02228" lon="7.8868">
        <ele>441.4</ele>
        <time>2024-08-25T14:57:56Z</time>
      </trkpt>
      <trkpt lat="49.0223" lon="7.88678">
        <ele>441.4</ele>
        <time>2024-08-25T14:57:57Z</time>
      </trkpt>
      <trkpt lat="49.02232" lon="7.88675">
        <ele>441.4</ele>
        <time>2024-08-25T14:57:58Z</time>
      </trkpt>
      <trkpt lat="49.02234" lon="7.88673">
        <ele>441.4</ele>
        <time>2024-08-25T14:57:59Z</time>
      </trkpt>
      <trkpt lat="49.02236" lon="7.88671">
        <ele>441.4</ele>
        <time>2024-08-25T14:58:00Z</time>
      </trkpt>
      <trkpt lat="49.02239" lon="7.88668">
        <ele>441.4</ele>
        <time>2024-08-25T14:58:01Z</time>
      </trkpt>
      <trkpt lat="49.02241" lon="7.88665">
        <ele>441.4</ele>
        <time>2024-08-25T14:58:02Z</time>
      </trkpt>
      <trkpt lat="49.02244" lon="7.88663">
        <ele>441.4</ele>
        <time>2024-08-25T14:58:03Z</time>
      </trkpt>
      <trkpt lat="49.02247" lon="7.8866">
        <ele>441.4</ele>
        <time>2024-08-25T14:58:04Z</time>
      </trkpt>
      <trkpt lat="49.02249" lon="7.88659">
        <ele>441.6</ele>
        <time>2024-08-25T14:58:05Z</time>
      </trkpt>
      <trkpt lat="49.02252" lon="7.88658">
        <ele>441.6</ele>
        <time>2024-08-25T14:58:06Z</time>
      </trkpt>
      <trkpt lat="49.02255" lon="7.88656">
        <ele>441.6</ele>
        <time>2024-08-25T14:58:07Z</time>
      </trkpt>
      <trkpt lat="49.02258" lon="7.88655">
        <ele>441.8</ele>
        <time>2024-08-25T14:58:08Z</time>
      </trkpt>
      <trkpt lat="49.02261" lon="7.88653">
        <ele>441.8</ele>
        <time>2024-08-25T14:58:09Z</time>
      </trkpt>
      <trkpt lat="49.02263" lon="7.88652">
        <ele>441.8</ele>
        <time>2024-08-25T14:58:10Z</time>
      </trkpt>
      <trkpt lat="49.02267" lon="7.88649">
        <ele>442</ele>
        <time>2024-08-25T14:58:11Z</time>
      </trkpt>
      <trkpt lat="49.02269" lon="7.88648">
        <ele>442</ele>
        <time>2024-08-25T14:58:12Z</time>
      </trkpt>
      <trkpt lat="49.02271" lon="7.88646">
        <ele>442</ele>
        <time>2024-08-25T14:58:13Z</time>
      </trkpt>
      <trkpt lat="49.02274" lon="7.88644">
        <ele>442</ele>
        <time>2024-08-25T14:58:14Z</time>
      </trkpt>
      <trkpt lat="49.02277" lon="7.88643">
        <ele>442.2</ele>
        <time>2024-08-25T14:58:15Z</time>
      </trkpt>
      <trkpt lat="49.02279" lon="7.88641">
        <ele>442.2</ele>
        <time>2024-08-25T14:58:16Z</time>
      </trkpt>
      <trkpt lat="49.02282" lon="7.8864">
        <ele>442.2</ele>
        <time>2024-08-25T14:58:17Z</time>
      </trkpt>
      <trkpt lat="49.02285" lon="7.88639">
        <ele>442.2</ele>
        <time>2024-08-25T14:58:18Z</time>
      </trkpt>
      <trkpt lat="49.02287" lon="7.88637">
        <ele>442.4</ele>
        <time>2024-08-25T14:58:19Z</time>
      </trkpt>
      <trkpt lat="49.0229" lon="7.88637">
        <ele>442.4</ele>
        <time>2024-08-25T14:58:20Z</time>
      </trkpt>
      <trkpt lat="49.02292" lon="7.88634">
        <ele>442.4</ele>
        <time>2024-08-25T14:58:21Z</time>
      </trkpt>
      <trkpt lat="49.02295" lon="7.88632">
        <ele>442.4</ele>
        <time>2024-08-25T14:58:22Z</time>
      </trkpt>
      <trkpt lat="49.02298" lon="7.8863">
        <ele>442.4</ele>
        <time>2024-08-25T14:58:23Z</time>
      </trkpt>
      <trkpt lat="49.02302" lon="7.88628">
        <ele>442.4</ele>
        <time>2024-08-25T14:58:24Z</time>
      </trkpt>
      <trkpt lat="49.02306" lon="7.88626">
        <ele>442.4</ele>
        <time>2024-08-25T14:58:25Z</time>
      </trkpt>
      <trkpt lat="49.02309" lon="7.88624">
        <ele>442.4</ele>
        <time>2024-08-25T14:58:26Z</time>
      </trkpt>
      <trkpt lat="49.02312" lon="7.88622">
        <ele>442.4</ele>
        <time>2024-08-25T14:58:27Z</time>
      </trkpt>
      <trkpt lat="49.02316" lon="7.8862">
        <ele>442.4</ele>
        <time>2024-08-25T14:58:28Z</time>
      </trkpt>
      <trkpt lat="49.0232" lon="7.88618">
        <ele>442.4</ele>
        <time>2024-08-25T14:58:29Z</time>
      </trkpt>
      <trkpt lat="49.02324" lon="7.88616">
        <ele>442.4</ele>
        <time>2024-08-25T14:58:30Z</time>
      </trkpt>
      <trkpt lat="49.02328" lon="7.88615">
        <ele>442.4</ele>
        <time>2024-08-25T14:58:31Z</time>
      </trkpt>
      <trkpt lat="49.02332" lon="7.88613">
        <ele>442.4</ele>
        <time>2024-08-25T14:58:32Z</time>
      </trkpt>
      <trkpt lat="49.02336" lon="7.88612">
        <ele>442.2</ele>
        <time>2024-08-25T14:58:33Z</time>
      </trkpt>
      <trkpt lat="49.0234" lon="7.8861">
        <ele>442.2</ele>
        <time>2024-08-25T14:58:34Z</time>
      </trkpt>
      <trkpt lat="49.02343" lon="7.88608">
        <ele>442.2</ele>
        <time>2024-08-25T14:58:35Z</time>
      </trkpt>
      <trkpt lat="49.02347" lon="7.88607">
        <ele>442.2</ele>
        <time>2024-08-25T14:58:36Z</time>
      </trkpt>
      <trkpt lat="49.0235" lon="7.88606">
        <ele>442.2</ele>
        <time>2024-08-25T14:58:37Z</time>
      </trkpt>
      <trkpt lat="49.02353" lon="7.88604">
        <ele>442.2</ele>
        <time>2024-08-25T14:58:38Z</time>
      </trkpt>
      <trkpt lat="49.02357" lon="7.88603">
        <ele>442.2</ele>
        <time>2024-08-25T14:58:39Z</time>
      </trkpt>
      <trkpt lat="49.0236" lon="7.88602">
        <ele>442.2</ele>
        <time>2024-08-25T14:58:40Z</time>
      </trkpt>
      <trkpt lat="49.02364" lon="7.886">
        <ele>442.2</ele>
        <time>2024-08-25T14:58:41Z</time>
      </trkpt>
      <trkpt lat="49.02367" lon="7.88599">
        <ele>442.2</ele>
        <time>2024-08-25T14:58:42Z</time>
      </trkpt>
      <trkpt lat="49.02371" lon="7.88598">
        <ele>442.2</ele>
        <time>2024-08-25T14:58:43Z</time>
      </trkpt>
      <trkpt lat="49.02374" lon="7.88598">
        <ele>442.2</ele>
        <time>2024-08-25T14:58:44Z</time>
      </trkpt>
      <trkpt lat="49.02377" lon="7.88599">
        <ele>442.2</ele>
        <time>2024-08-25T14:58:45Z</time>
      </trkpt>
      <trkpt lat="49.02381" lon="7.88601">
        <ele>442.2</ele>
        <time>2024-08-25T14:58:46Z</time>
      </trkpt>
      <trkpt lat="49.02384" lon="7.88603">
        <ele>442.2</ele>
        <time>2024-08-25T14:58:47Z</time>
      </trkpt>
      <trkpt lat="49.02386" lon="7.88605">
        <ele>442.2</ele>
        <time>2024-08-25T14:58:48Z</time>
      </trkpt>
      <trkpt lat="49.02389" lon="7.88607">
        <ele>442.2</ele>
        <time>2024-08-25T14:58:49Z</time>
      </trkpt>
      <trkpt lat="49.02391" lon="7.8861">
        <ele>442.4</ele>
        <time>2024-08-25T14:58:50Z</time>
      </trkpt>
      <trkpt lat="49.02394" lon="7.88612">
        <ele>442.4</ele>
        <time>2024-08-25T14:58:51Z</time>
      </trkpt>
      <trkpt lat="49.02397" lon="7.88615">
        <ele>442.6</ele>
        <time>2024-08-25T14:58:52Z</time>
      </trkpt>
      <trkpt lat="49.024" lon="7.88617">
        <ele>442.6</ele>
        <time>2024-08-25T14:58:53Z</time>
      </trkpt>
      <trkpt lat="49.02403" lon="7.88618">
        <ele>442.8</ele>
        <time>2024-08-25T14:58:54Z</time>
      </trkpt>
      <trkpt lat="49.02406" lon="7.8862">
        <ele>442.8</ele>
        <time>2024-08-25T14:58:55Z</time>
      </trkpt>
      <trkpt lat="49.02409" lon="7.88619">
        <ele>442.8</ele>
        <time>2024-08-25T14:58:56Z</time>
      </trkpt>
      <trkpt lat="49.02412" lon="7.88618">
        <ele>442.8</ele>
        <time>2024-08-25T14:58:57Z</time>
      </trkpt>
      <trkpt lat="49.02415" lon="7.88616">
        <ele>442.8</ele>
        <time>2024-08-25T14:58:58Z</time>
      </trkpt>
      <trkpt lat="49.02418" lon="7.88613">
        <ele>442.8</ele>
        <time>2024-08-25T14:58:59Z</time>
      </trkpt>
      <trkpt lat="49.02419" lon="7.88609">
        <ele>442.8</ele>
        <time>2024-08-25T14:59:00Z</time>
      </trkpt>
      <trkpt lat="49.02419" lon="7.88606">
        <ele>443</ele>
        <time>2024-08-25T14:59:01Z</time>
      </trkpt>
      <trkpt lat="49.02418" lon="7.88604">
        <ele>443</ele>
        <time>2024-08-25T14:59:02Z</time>
      </trkpt>
      <trkpt lat="49.02416" lon="7.88602">
        <ele>443</ele>
        <time>2024-08-25T14:59:03Z</time>
      </trkpt>
      <trkpt lat="49.02414" lon="7.88601">
        <ele>443.4</ele>
        <time>2024-08-25T14:59:04Z</time>
      </trkpt>
      <trkpt lat="49.02412" lon="7.88599">
        <ele>443.4</ele>
        <time>2024-08-25T14:59:05Z</time>
      </trkpt>
      <trkpt lat="49.0241" lon="7.88597">
        <ele>443.6</ele>
        <time>2024-08-25T14:59:06Z</time>
      </trkpt>
      <trkpt lat="49.02409" lon="7.88595">
        <ele>443.8</ele>
        <time>2024-08-25T14:59:07Z</time>
      </trkpt>
      <trkpt lat="49.02407" lon="7.88593">
        <ele>444</ele>
        <time>2024-08-25T14:59:08Z</time>
      </trkpt>
      <trkpt lat="49.02405" lon="7.88591">
        <ele>444.2</ele>
        <time>2024-08-25T14:59:09Z</time>
      </trkpt>
      <trkpt lat="49.02405" lon="7.88589">
        <ele>444.4</ele>
        <time>2024-08-25T14:59:10Z</time>
      </trkpt>
      <trkpt lat="49.02404" lon="7.88587">
        <ele>444.6</ele>
        <time>2024-08-25T14:59:11Z</time>
      </trkpt>
      <trkpt lat="49.02403" lon="7.88585">
        <ele>445</ele>
        <time>2024-08-25T14:59:12Z</time>
      </trkpt>
      <trkpt lat="49.02401" lon="7.88583">
        <ele>445.2</ele>
        <time>2024-08-25T14:59:13Z</time>
      </trkpt>
      <trkpt lat="49.024" lon="7.88582">
        <ele>445.4</ele>
        <time>2024-08-25T14:59:14Z</time>
      </trkpt>
      <trkpt lat="49.02399" lon="7.8858">
        <ele>445.8</ele>
        <time>2024-08-25T14:59:15Z</time>
      </trkpt>
      <trkpt lat="49.02397" lon="7.88577">
        <ele>446</ele>
        <time>2024-08-25T14:59:16Z</time>
      </trkpt>
      <trkpt lat="49.02395" lon="7.88574">
        <ele>446.2</ele>
        <time>2024-08-25T14:59:17Z</time>
      </trkpt>
      <trkpt lat="49.02394" lon="7.88571">
        <ele>446.4</ele>
        <time>2024-08-25T14:59:18Z</time>
      </trkpt>
      <trkpt lat="49.02392" lon="7.88569">
        <ele>446.8</ele>
        <time>2024-08-25T14:59:19Z</time>
      </trkpt>
      <trkpt lat="49.02391" lon="7.88567">
        <ele>447</ele>
        <time>2024-08-25T14:59:20Z</time>
      </trkpt>
      <trkpt lat="49.0239" lon="7.88564">
        <ele>447.2</ele>
        <time>2024-08-25T14:59:21Z</time>
      </trkpt>
      <trkpt lat="49.02389" lon="7.88562">
        <ele>447.4</ele>
        <time>2024-08-25T14:59:22Z</time>
      </trkpt>
      <trkpt lat="49.02387" lon="7.88559">
        <ele>447.8</ele>
        <time>2024-08-25T14:59:23Z</time>
      </trkpt>
      <trkpt lat="49.02386" lon="7.88556">
        <ele>448</ele>
        <time>2024-08-25T14:59:24Z</time>
      </trkpt>
      <trkpt lat="49.02385" lon="7.88553">
        <ele>448.4</ele>
        <time>2024-08-25T14:59:25Z</time>
      </trkpt>
      <trkpt lat="49.02384" lon="7.88551">
        <ele>448.6</ele>
        <time>2024-08-25T14:59:26Z</time>
      </trkpt>
      <trkpt lat="49.02383" lon="7.88549">
        <ele>448.8</ele>
        <time>2024-08-25T14:59:27Z</time>
      </trkpt>
      <trkpt lat="49.02382" lon="7.88546">
        <ele>449.2</ele>
        <time>2024-08-25T14:59:28Z</time>
      </trkpt>
      <trkpt lat="49.02382" lon="7.88543">
        <ele>449.4</ele>
        <time>2024-08-25T14:59:29Z</time>
      </trkpt>
      <trkpt lat="49.02381" lon="7.8854">
        <ele>449.6</ele>
        <time>2024-08-25T14:59:30Z</time>
      </trkpt>
      <trkpt lat="49.02381" lon="7.88536">
        <ele>450</ele>
        <time>2024-08-25T14:59:31Z</time>
      </trkpt>
      <trkpt lat="49.0238" lon="7.88533">
        <ele>450.2</ele>
        <time>2024-08-25T14:59:32Z</time>
      </trkpt>
      <trkpt lat="49.0238" lon="7.8853">
        <ele>450.4</ele>
        <time>2024-08-25T14:59:33Z</time>
      </trkpt>
      <trkpt lat="49.02379" lon="7.88527">
        <ele>450.6</ele>
        <time>2024-08-25T14:59:34Z</time>
      </trkpt>
      <trkpt lat="49.02379" lon="7.88524">
        <ele>451</ele>
        <time>2024-08-25T14:59:35Z</time>
      </trkpt>
      <trkpt lat="49.02379" lon="7.88521">
        <ele>451</ele>
        <time>2024-08-25T14:59:36Z</time>
      </trkpt>
      <trkpt lat="49.02378" lon="7.88518">
        <ele>451.2</ele>
        <time>2024-08-25T14:59:37Z</time>
      </trkpt>
      <trkpt lat="49.02378" lon="7.88515">
        <ele>451.4</ele>
        <time>2024-08-25T14:59:38Z</time>
      </trkpt>
      <trkpt lat="49.02378" lon="7.88512">
        <ele>451.6</ele>
        <time>2024-08-25T14:59:39Z</time>
      </trkpt>
      <trkpt lat="49.02377" lon="7.88508">
        <ele>451.8</ele>
        <time>2024-08-25T14:59:40Z</time>
      </trkpt>
      <trkpt lat="49.02377" lon="7.88504">
        <ele>452</ele>
        <time>2024-08-25T14:59:41Z</time>
      </trkpt>
      <trkpt lat="49.02376" lon="7.88501">
        <ele>452.2</ele>
        <time>2024-08-25T14:59:42Z</time>
      </trkpt>
      <trkpt lat="49.02376" lon="7.88498">
        <ele>452.4</ele>
        <time>2024-08-25T14:59:43Z</time>
      </trkpt>
      <trkpt lat="49.02375" lon="7.88495">
        <ele>452.6</ele>
        <time>2024-08-25T14:59:44Z</time>
      </trkpt>
      <trkpt lat="49.02374" lon="7.88492">
        <ele>452.8</ele>
        <time>2024-08-25T14:59:45Z</time>
      </trkpt>
      <trkpt lat="49.02373" lon="7.88488">
        <ele>453</ele>
        <time>2024-08-25T14:59:46Z</time>
      </trkpt>
      <trkpt lat="49.02373" lon="7.88485">
        <ele>453.2</ele>
        <time>2024-08-25T14:59:47Z</time>
      </trkpt>
      <trkpt lat="49.02372" lon="7.88482">
        <ele>453.4</ele>
        <time>2024-08-25T14:59:48Z</time>
      </trkpt>
      <trkpt lat="49.0237" lon="7.88478">
        <ele>453.6</ele>
        <time>2024-08-25T14:59:49Z</time>
      </trkpt>
      <trkpt lat="49.02369" lon="7.88475">
        <ele>453.8</ele>
        <time>2024-08-25T14:59:50Z</time>
      </trkpt>
      <trkpt lat="49.02367" lon="7.88472">
        <ele>454</ele>
        <time>2024-08-25T14:59:51Z</time>
      </trkpt>
      <trkpt lat="49.02366" lon="7.88469">
        <ele>454.2</ele>
        <time>2024-08-25T14:59:52Z</time>
      </trkpt>
      <trkpt lat="49.02365" lon="7.88466">
        <ele>454.2</ele>
        <time>2024-08-25T14:59:53Z</time>
      </trkpt>
      <trkpt lat="49.02363" lon="7.88463">
        <ele>454.4</ele>
        <time>2024-08-25T14:59:54Z</time>
      </trkpt>
      <trkpt lat="49.02361" lon="7.8846">
        <ele>454.4</ele>
        <time>2024-08-25T14:59:55Z</time>
      </trkpt>
      <trkpt lat="49.0236" lon="7.88456">
        <ele>454.6</ele>
        <time>2024-08-25T14:59:56Z</time>
      </trkpt>
      <trkpt lat="49.02358" lon="7.88453">
        <ele>454.6</ele>
        <time>2024-08-25T14:59:57Z</time>
      </trkpt>
      <trkpt lat="49.02357" lon="7.8845">
        <ele>454.8</ele>
        <time>2024-08-25T14:59:58Z</time>
      </trkpt>
      <trkpt lat="49.02355" lon="7.88447">
        <ele>455</ele>
        <time>2024-08-25T14:59:59Z</time>
      </trkpt>
      <trkpt lat="49.02354" lon="7.88443">
        <ele>455</ele>
        <time>2024-08-25T15:00:00Z</time>
      </trkpt>
      <trkpt lat="49.02351" lon="7.88441">
        <ele>455.2</ele>
        <time>2024-08-25T15:00:01Z</time>
      </trkpt>
      <trkpt lat="49.0235" lon="7.88438">
        <ele>455.2</ele>
        <time>2024-08-25T15:00:02Z</time>
      </trkpt>
      <trkpt lat="49.02348" lon="7.88435">
        <ele>455.4</ele>
        <time>2024-08-25T15:00:03Z</time>
      </trkpt>
      <trkpt lat="49.02347" lon="7.88432">
        <ele>455.4</ele>
        <time>2024-08-25T15:00:04Z</time>
      </trkpt>
      <trkpt lat="49.02346" lon="7.88428">
        <ele>455.6</ele>
        <time>2024-08-25T15:00:05Z</time>
      </trkpt>
      <trkpt lat="49.02344" lon="7.88425">
        <ele>455.8</ele>
        <time>2024-08-25T15:00:06Z</time>
      </trkpt>
      <trkpt lat="49.02343" lon="7.88422">
        <ele>455.8</ele>
        <time>2024-08-25T15:00:07Z</time>
      </trkpt>
      <trkpt lat="49.02341" lon="7.88419">
        <ele>456.2</ele>
        <time>2024-08-25T15:00:08Z</time>
      </trkpt>
      <trkpt lat="49.0234" lon="7.88416">
        <ele>456.2</ele>
        <time>2024-08-25T15:00:09Z</time>
      </trkpt>
      <trkpt lat="49.02338" lon="7.88413">
        <ele>456.4</ele>
        <time>2024-08-25T15:00:10Z</time>
      </trkpt>
      <trkpt lat="49.02337" lon="7.88409">
        <ele>456.4</ele>
        <time>2024-08-25T15:00:11Z</time>
      </trkpt>
      <trkpt lat="49.02335" lon="7.88406">
        <ele>456.6</ele>
        <time>2024-08-25T15:00:12Z</time>
      </trkpt>
      <trkpt lat="49.02334" lon="7.88403">
        <ele>456.8</ele>
        <time>2024-08-25T15:00:13Z</time>
      </trkpt>
      <trkpt lat="49.02333" lon="7.88399">
        <ele>456.8</ele>
        <time>2024-08-25T15:00:14Z</time>
      </trkpt>
      <trkpt lat="49.02331" lon="7.88396">
        <ele>457</ele>
        <time>2024-08-25T15:00:15Z</time>
      </trkpt>
      <trkpt lat="49.02329" lon="7.88393">
        <ele>457.2</ele>
        <time>2024-08-25T15:00:16Z</time>
      </trkpt>
      <trkpt lat="49.02328" lon="7.8839">
        <ele>457.4</ele>
        <time>2024-08-25T15:00:17Z</time>
      </trkpt>
      <trkpt lat="49.02326" lon="7.88387">
        <ele>457.4</ele>
        <time>2024-08-25T15:00:18Z</time>
      </trkpt>
      <trkpt lat="49.02324" lon="7.88384">
        <ele>457.6</ele>
        <time>2024-08-25T15:00:19Z</time>
      </trkpt>
      <trkpt lat="49.02323" lon="7.8838">
        <ele>457.6</ele>
        <time>2024-08-25T15:00:20Z</time>
      </trkpt>
      <trkpt lat="49.02321" lon="7.88377">
        <ele>457.8</ele>
        <time>2024-08-25T15:00:21Z</time>
      </trkpt>
      <trkpt lat="49.0232" lon="7.88373">
        <ele>457.8</ele>
        <time>2024-08-25T15:00:22Z</time>
      </trkpt>
      <trkpt lat="49.02318" lon="7.8837">
        <ele>458</ele>
        <time>2024-08-25T15:00:23Z</time>
      </trkpt>
      <trkpt lat="49.02317" lon="7.88367">
        <ele>458.2</ele>
        <time>2024-08-25T15:00:24Z</time>
      </trkpt>
      <trkpt lat="49.02315" lon="7.88363">
        <ele>458.2</ele>
        <time>2024-08-25T15:00:25Z</time>
      </trkpt>
      <trkpt lat="49.02314" lon="7.8836">
        <ele>458.4</ele>
        <time>2024-08-25T15:00:26Z</time>
      </trkpt>
      <trkpt lat="49.02312" lon="7.88357">
        <ele>458.4</ele>
        <time>2024-08-25T15:00:27Z</time>
      </trkpt>
      <trkpt lat="49.02311" lon="7.88354">
        <ele>458.6</ele>
        <time>2024-08-25T15:00:28Z</time>
      </trkpt>
      <trkpt lat="49.02309" lon="7.8835">
        <ele>458.6</ele>
        <time>2024-08-25T15:00:29Z</time>
      </trkpt>
      <trkpt lat="49.02308" lon="7.88347">
        <ele>458.8</ele>
        <time>2024-08-25T15:00:30Z</time>
      </trkpt>
      <trkpt lat="49.02307" lon="7.88343">
        <ele>458.8</ele>
        <time>2024-08-25T15:00:31Z</time>
      </trkpt>
      <trkpt lat="49.02305" lon="7.88339">
        <ele>459</ele>
        <time>2024-08-25T15:00:32Z</time>
      </trkpt>
      <trkpt lat="49.02304" lon="7.88336">
        <ele>459</ele>
        <time>2024-08-25T15:00:33Z</time>
      </trkpt>
      <trkpt lat="49.02302" lon="7.88332">
        <ele>459.2</ele>
        <time>2024-08-25T15:00:34Z</time>
      </trkpt>
      <trkpt lat="49.02301" lon="7.88329">
        <ele>459.4</ele>
        <time>2024-08-25T15:00:35Z</time>
      </trkpt>
      <trkpt lat="49.02299" lon="7.88325">
        <ele>459.4</ele>
        <time>2024-08-25T15:00:36Z</time>
      </trkpt>
      <trkpt lat="49.02297" lon="7.88322">
        <ele>459.6</ele>
        <time>2024-08-25T15:00:37Z</time>
      </trkpt>
      <trkpt lat="49.02296" lon="7.88318">
        <ele>459.6</ele>
        <time>2024-08-25T15:00:38Z</time>
      </trkpt>
      <trkpt lat="49.02294" lon="7.88315">
        <ele>459.8</ele>
        <time>2024-08-25T15:00:39Z</time>
      </trkpt>
      <trkpt lat="49.02292" lon="7.88311">
        <ele>459.8</ele>
        <time>2024-08-25T15:00:40Z</time>
      </trkpt>
      <trkpt lat="49.0229" lon="7.88308">
        <ele>460</ele>
        <time>2024-08-25T15:00:41Z</time>
      </trkpt>
      <trkpt lat="49.02289" lon="7.88304">
        <ele>460</ele>
        <time>2024-08-25T15:00:42Z</time>
      </trkpt>
      <trkpt lat="49.02287" lon="7.883">
        <ele>460.2</ele>
        <time>2024-08-25T15:00:43Z</time>
      </trkpt>
      <trkpt lat="49.02286" lon="7.88297">
        <ele>460.4</ele>
        <time>2024-08-25T15:00:44Z</time>
      </trkpt>
      <trkpt lat="49.02285" lon="7.88293">
        <ele>460.4</ele>
        <time>2024-08-25T15:00:45Z</time>
      </trkpt>
      <trkpt lat="49.02283" lon="7.88289">
        <ele>460.6</ele>
        <time>2024-08-25T15:00:46Z</time>
      </trkpt>
      <trkpt lat="49.02281" lon="7.88286">
        <ele>460.6</ele>
        <time>2024-08-25T15:00:47Z</time>
      </trkpt>
      <trkpt lat="49.0228" lon="7.88281">
        <ele>460.8</ele>
        <time>2024-08-25T15:00:48Z</time>
      </trkpt>
      <trkpt lat="49.02279" lon="7.88277">
        <ele>461</ele>
        <time>2024-08-25T15:00:49Z</time>
      </trkpt>
      <trkpt lat="49.02277" lon="7.88273">
        <ele>461</ele>
        <time>2024-08-25T15:00:50Z</time>
      </trkpt>
      <trkpt lat="49.02276" lon="7.88269">
        <ele>461.2</ele>
        <time>2024-08-25T15:00:51Z</time>
      </trkpt>
      <trkpt lat="49.02274" lon="7.88266">
        <ele>461.2</ele>
        <time>2024-08-25T15:00:52Z</time>
      </trkpt>
      <trkpt lat="49.02273" lon="7.88263">
        <ele>461.4</ele>
        <time>2024-08-25T15:00:53Z</time>
      </trkpt>
      <trkpt lat="49.02271" lon="7.88258">
        <ele>461.4</ele>
        <time>2024-08-25T15:00:54Z</time>
      </trkpt>
      <trkpt lat="49.02269" lon="7.88255">
        <ele>461.6</ele>
        <time>2024-08-25T15:00:55Z</time>
      </trkpt>
      <trkpt lat="49.02268" lon="7.88251">
        <ele>461.6</ele>
        <time>2024-08-25T15:00:56Z</time>
      </trkpt>
      <trkpt lat="49.02266" lon="7.88248">
        <ele>461.8</ele>
        <time>2024-08-25T15:00:57Z</time>
      </trkpt>
      <trkpt lat="49.02265" lon="7.88244">
        <ele>462</ele>
        <time>2024-08-25T15:00:58Z</time>
      </trkpt>
      <trkpt lat="49.02263" lon="7.88241">
        <ele>462</ele>
        <time>2024-08-25T15:00:59Z</time>
      </trkpt>
      <trkpt lat="49.02262" lon="7.88237">
        <ele>462.2</ele>
        <time>2024-08-25T15:01:00Z</time>
      </trkpt>
      <trkpt lat="49.0226" lon="7.88234">
        <ele>462.2</ele>
        <time>2024-08-25T15:01:01Z</time>
      </trkpt>
      <trkpt lat="49.02259" lon="7.88231">
        <ele>462.4</ele>
        <time>2024-08-25T15:01:02Z</time>
      </trkpt>
      <trkpt lat="49.02258" lon="7.88227">
        <ele>462.6</ele>
        <time>2024-08-25T15:01:03Z</time>
      </trkpt>
      <trkpt lat="49.02256" lon="7.88222">
        <ele>462.8</ele>
        <time>2024-08-25T15:01:04Z</time>
      </trkpt>
      <trkpt lat="49.02255" lon="7.88218">
        <ele>462.8</ele>
        <time>2024-08-25T15:01:05Z</time>
      </trkpt>
      <trkpt lat="49.02254" lon="7.88213">
        <ele>463</ele>
        <time>2024-08-25T15:01:06Z</time>
      </trkpt>
      <trkpt lat="49.02253" lon="7.88208">
        <ele>463</ele>
        <time>2024-08-25T15:01:07Z</time>
      </trkpt>
      <trkpt lat="49.02251" lon="7.88204">
        <ele>463.2</ele>
        <time>2024-08-25T15:01:08Z</time>
      </trkpt>
      <trkpt lat="49.02249" lon="7.882">
        <ele>463.4</ele>
        <time>2024-08-25T15:01:09Z</time>
      </trkpt>
      <trkpt lat="49.02248" lon="7.88196">
        <ele>463.4</ele>
        <time>2024-08-25T15:01:10Z</time>
      </trkpt>
      <trkpt lat="49.02248" lon="7.88192">
        <ele>463.6</ele>
        <time>2024-08-25T15:01:11Z</time>
      </trkpt>
      <trkpt lat="49.02246" lon="7.88187">
        <ele>463.8</ele>
        <time>2024-08-25T15:01:12Z</time>
      </trkpt>
      <trkpt lat="49.02245" lon="7.88183">
        <ele>464</ele>
        <time>2024-08-25T15:01:13Z</time>
      </trkpt>
      <trkpt lat="49.02244" lon="7.88179">
        <ele>464</ele>
        <time>2024-08-25T15:01:14Z</time>
      </trkpt>
      <trkpt lat="49.02243" lon="7.88175">
        <ele>464.2</ele>
        <time>2024-08-25T15:01:15Z</time>
      </trkpt>
      <trkpt lat="49.02242" lon="7.88171">
        <ele>464.2</ele>
        <time>2024-08-25T15:01:16Z</time>
      </trkpt>
      <trkpt lat="49.0224" lon="7.88166">
        <ele>464.4</ele>
        <time>2024-08-25T15:01:17Z</time>
      </trkpt>
      <trkpt lat="49.02239" lon="7.88162">
        <ele>464.6</ele>
        <time>2024-08-25T15:01:18Z</time>
      </trkpt>
      <trkpt lat="49.02238" lon="7.88158">
        <ele>464.6</ele>
        <time>2024-08-25T15:01:19Z</time>
      </trkpt>
      <trkpt lat="49.02236" lon="7.88153">
        <ele>464.8</ele>
        <time>2024-08-25T15:01:20Z</time>
      </trkpt>
      <trkpt lat="49.02235" lon="7.88149">
        <ele>465</ele>
        <time>2024-08-25T15:01:21Z</time>
      </trkpt>
      <trkpt lat="49.02234" lon="7.88145">
        <ele>465.2</ele>
        <time>2024-08-25T15:01:22Z</time>
      </trkpt>
      <trkpt lat="49.02232" lon="7.88141">
        <ele>465.2</ele>
        <time>2024-08-25T15:01:23Z</time>
      </trkpt>
      <trkpt lat="49.02231" lon="7.88137">
        <ele>465.4</ele>
        <time>2024-08-25T15:01:24Z</time>
      </trkpt>
      <trkpt lat="49.0223" lon="7.88133">
        <ele>465.6</ele>
        <time>2024-08-25T15:01:25Z</time>
      </trkpt>
      <trkpt lat="49.02229" lon="7.88127">
        <ele>465.8</ele>
        <time>2024-08-25T15:01:26Z</time>
      </trkpt>
      <trkpt lat="49.02228" lon="7.88122">
        <ele>465.8</ele>
        <time>2024-08-25T15:01:27Z</time>
      </trkpt>
      <trkpt lat="49.02227" lon="7.88117">
        <ele>466</ele>
        <time>2024-08-25T15:01:28Z</time>
      </trkpt>
      <trkpt lat="49.02226" lon="7.88112">
        <ele>466.2</ele>
        <time>2024-08-25T15:01:29Z</time>
      </trkpt>
      <trkpt lat="49.02225" lon="7.88106">
        <ele>466.2</ele>
        <time>2024-08-25T15:01:30Z</time>
      </trkpt>
      <trkpt lat="49.02223" lon="7.88102">
        <ele>466.4</ele>
        <time>2024-08-25T15:01:31Z</time>
      </trkpt>
      <trkpt lat="49.02222" lon="7.88098">
        <ele>466.6</ele>
        <time>2024-08-25T15:01:32Z</time>
      </trkpt>
      <trkpt lat="49.0222" lon="7.88095">
        <ele>466.6</ele>
        <time>2024-08-25T15:01:33Z</time>
      </trkpt>
      <trkpt lat="49.02219" lon="7.88091">
        <ele>466.8</ele>
        <time>2024-08-25T15:01:34Z</time>
      </trkpt>
      <trkpt lat="49.02218" lon="7.88087">
        <ele>467</ele>
        <time>2024-08-25T15:01:35Z</time>
      </trkpt>
      <trkpt lat="49.02217" lon="7.88083">
        <ele>467.2</ele>
        <time>2024-08-25T15:01:36Z</time>
      </trkpt>
      <trkpt lat="49.02216" lon="7.88079">
        <ele>467.2</ele>
        <time>2024-08-25T15:01:37Z</time>
      </trkpt>
      <trkpt lat="49.02215" lon="7.88074">
        <ele>467.4</ele>
        <time>2024-08-25T15:01:38Z</time>
      </trkpt>
      <trkpt lat="49.02213" lon="7.88069">
        <ele>467.4</ele>
        <time>2024-08-25T15:01:39Z</time>
      </trkpt>
      <trkpt lat="49.02212" lon="7.88064">
        <ele>467.6</ele>
        <time>2024-08-25T15:01:40Z</time>
      </trkpt>
      <trkpt lat="49.02211" lon="7.8806">
        <ele>467.6</ele>
        <time>2024-08-25T15:01:41Z</time>
      </trkpt>
      <trkpt lat="49.0221" lon="7.88056">
        <ele>467.8</ele>
        <time>2024-08-25T15:01:42Z</time>
      </trkpt>
      <trkpt lat="49.02208" lon="7.88051">
        <ele>467.8</ele>
        <time>2024-08-25T15:01:43Z</time>
      </trkpt>
      <trkpt lat="49.02206" lon="7.88047">
        <ele>468</ele>
        <time>2024-08-25T15:01:44Z</time>
      </trkpt>
      <trkpt lat="49.02204" lon="7.88041">
        <ele>468</ele>
        <time>2024-08-25T15:01:45Z</time>
      </trkpt>
      <trkpt lat="49.02202" lon="7.88037">
        <ele>468</ele>
        <time>2024-08-25T15:01:46Z</time>
      </trkpt>
      <trkpt lat="49.022" lon="7.88032">
        <ele>468</ele>
        <time>2024-08-25T15:01:47Z</time>
      </trkpt>
      <trkpt lat="49.02198" lon="7.88027">
        <ele>468.2</ele>
        <time>2024-08-25T15:01:48Z</time>
      </trkpt>
      <trkpt lat="49.02196" lon="7.88023">
        <ele>468.2</ele>
        <time>2024-08-25T15:01:49Z</time>
      </trkpt>
      <trkpt lat="49.02194" lon="7.88019">
        <ele>468.2</ele>
        <time>2024-08-25T15:01:50Z</time>
      </trkpt>
      <trkpt lat="49.02192" lon="7.88014">
        <ele>468.2</ele>
        <time>2024-08-25T15:01:51Z</time>
      </trkpt>
      <trkpt lat="49.0219" lon="7.8801">
        <ele>468.2</ele>
        <time>2024-08-25T15:01:52Z</time>
      </trkpt>
      <trkpt lat="49.02189" lon="7.88005">
        <ele>468.2</ele>
        <time>2024-08-25T15:01:53Z</time>
      </trkpt>
      <trkpt lat="49.02188" lon="7.88001">
        <ele>468.2</ele>
        <time>2024-08-25T15:01:54Z</time>
      </trkpt>
      <trkpt lat="49.02186" lon="7.87996">
        <ele>468.4</ele>
        <time>2024-08-25T15:01:55Z</time>
      </trkpt>
      <trkpt lat="49.02184" lon="7.87989">
        <ele>468.4</ele>
        <time>2024-08-25T15:01:56Z</time>
      </trkpt>
      <trkpt lat="49.02183" lon="7.87983">
        <ele>468.4</ele>
        <time>2024-08-25T15:01:57Z</time>
      </trkpt>
      <trkpt lat="49.0218" lon="7.87978">
        <ele>468.4</ele>
        <time>2024-08-25T15:01:58Z</time>
      </trkpt>
      <trkpt lat="49.02177" lon="7.87973">
        <ele>468.2</ele>
        <time>2024-08-25T15:01:59Z</time>
      </trkpt>
      <trkpt lat="49.02174" lon="7.87967">
        <ele>468.2</ele>
        <time>2024-08-25T15:02:00Z</time>
      </trkpt>
      <trkpt lat="49.0217" lon="7.87961">
        <ele>467.8</ele>
        <time>2024-08-25T15:02:01Z</time>
      </trkpt>
      <trkpt lat="49.02167" lon="7.87956">
        <ele>467.4</ele>
        <time>2024-08-25T15:02:02Z</time>
      </trkpt>
      <trkpt lat="49.02163" lon="7.8795">
        <ele>467</ele>
        <time>2024-08-25T15:02:03Z</time>
      </trkpt>
      <trkpt lat="49.02159" lon="7.87945">
        <ele>466.8</ele>
        <time>2024-08-25T15:02:04Z</time>
      </trkpt>
      <trkpt lat="49.02154" lon="7.8794">
        <ele>466.6</ele>
        <time>2024-08-25T15:02:05Z</time>
      </trkpt>
      <trkpt lat="49.0215" lon="7.87935">
        <ele>466.2</ele>
        <time>2024-08-25T15:02:06Z</time>
      </trkpt>
      <trkpt lat="49.02145" lon="7.87931">
        <ele>466</ele>
        <time>2024-08-25T15:02:07Z</time>
      </trkpt>
      <trkpt lat="49.0214" lon="7.87927">
        <ele>465.8</ele>
        <time>2024-08-25T15:02:08Z</time>
      </trkpt>
      <trkpt lat="49.02136" lon="7.87922">
        <ele>465.2</ele>
        <time>2024-08-25T15:02:09Z</time>
      </trkpt>
      <trkpt lat="49.02131" lon="7.87919">
        <ele>464.8</ele>
        <time>2024-08-25T15:02:10Z</time>
      </trkpt>
      <trkpt lat="49.02127" lon="7.87914">
        <ele>464.6</ele>
        <time>2024-08-25T15:02:11Z</time>
      </trkpt>
      <trkpt lat="49.02122" lon="7.87909">
        <ele>464.4</ele>
        <time>2024-08-25T15:02:12Z</time>
      </trkpt>
      <trkpt lat="49.02118" lon="7.87904">
        <ele>464</ele>
        <time>2024-08-25T15:02:13Z</time>
      </trkpt>
      <trkpt lat="49.02114" lon="7.879">
        <ele>463.8</ele>
        <time>2024-08-25T15:02:14Z</time>
      </trkpt>
      <trkpt lat="49.0211" lon="7.87895">
        <ele>463.6</ele>
        <time>2024-08-25T15:02:15Z</time>
      </trkpt>
      <trkpt lat="49.02106" lon="7.8789">
        <ele>463.4</ele>
        <time>2024-08-25T15:02:16Z</time>
      </trkpt>
      <trkpt lat="49.02102" lon="7.87885">
        <ele>463.2</ele>
        <time>2024-08-25T15:02:17Z</time>
      </trkpt>
      <trkpt lat="49.02098" lon="7.87881">
        <ele>463</ele>
        <time>2024-08-25T15:02:18Z</time>
      </trkpt>
      <trkpt lat="49.02094" lon="7.87876">
        <ele>462.8</ele>
        <time>2024-08-25T15:02:19Z</time>
      </trkpt>
      <trkpt lat="49.0209" lon="7.87871">
        <ele>462.6</ele>
        <time>2024-08-25T15:02:20Z</time>
      </trkpt>
      <trkpt lat="49.02086" lon="7.87865">
        <ele>462.4</ele>
        <time>2024-08-25T15:02:21Z</time>
      </trkpt>
      <trkpt lat="49.02082" lon="7.8786">
        <ele>462.4</ele>
        <time>2024-08-25T15:02:22Z</time>
      </trkpt>
      <trkpt lat="49.02078" lon="7.87855">
        <ele>462.2</ele>
        <time>2024-08-25T15:02:23Z</time>
      </trkpt>
      <trkpt lat="49.02073" lon="7.87848">
        <ele>462</ele>
        <time>2024-08-25T15:02:24Z</time>
      </trkpt>
      <trkpt lat="49.02069" lon="7.87841">
        <ele>461.8</ele>
        <time>2024-08-25T15:02:25Z</time>
      </trkpt>
      <trkpt lat="49.02065" lon="7.87834">
        <ele>461.6</ele>
        <time>2024-08-25T15:02:26Z</time>
      </trkpt>
      <trkpt lat="49.02062" lon="7.87827">
        <ele>461.4</ele>
        <time>2024-08-25T15:02:27Z</time>
      </trkpt>
      <trkpt lat="49.02059" lon="7.87819">
        <ele>461.2</ele>
        <time>2024-08-25T15:02:28Z</time>
      </trkpt>
      <trkpt lat="49.02056" lon="7.87811">
        <ele>460.8</ele>
        <time>2024-08-25T15:02:29Z</time>
      </trkpt>
      <trkpt lat="49.02053" lon="7.87804">
        <ele>460.4</ele>
        <time>2024-08-25T15:02:30Z</time>
      </trkpt>
      <trkpt lat="49.02051" lon="7.87797">
        <ele>460.2</ele>
        <time>2024-08-25T15:02:31Z</time>
      </trkpt>
      <trkpt lat="49.02048" lon="7.8779">
        <ele>460</ele>
        <time>2024-08-25T15:02:32Z</time>
      </trkpt>
      <trkpt lat="49.02045" lon="7.87783">
        <ele>460</ele>
        <time>2024-08-25T15:02:33Z</time>
      </trkpt>
      <trkpt lat="49.02042" lon="7.87777">
        <ele>459.8</ele>
        <time>2024-08-25T15:02:34Z</time>
      </trkpt>
      <trkpt lat="49.02039" lon="7.87769">
        <ele>459.6</ele>
        <time>2024-08-25T15:02:35Z</time>
      </trkpt>
      <trkpt lat="49.02036" lon="7.87763">
        <ele>459.4</ele>
        <time>2024-08-25T15:02:36Z</time>
      </trkpt>
      <trkpt lat="49.02034" lon="7.87755">
        <ele>459.2</ele>
        <time>2024-08-25T15:02:37Z</time>
      </trkpt>
      <trkpt lat="49.02031" lon="7.87747">
        <ele>459.2</ele>
        <time>2024-08-25T15:02:38Z</time>
      </trkpt>
      <trkpt lat="49.02029" lon="7.87739">
        <ele>459.2</ele>
        <time>2024-08-25T15:02:39Z</time>
      </trkpt>
      <trkpt lat="49.02026" lon="7.87732">
        <ele>459</ele>
        <time>2024-08-25T15:02:40Z</time>
      </trkpt>
      <trkpt lat="49.02023" lon="7.87725">
        <ele>458.8</ele>
        <time>2024-08-25T15:02:41Z</time>
      </trkpt>
      <trkpt lat="49.0202" lon="7.87717">
        <ele>458.6</ele>
        <time>2024-08-25T15:02:42Z</time>
      </trkpt>
      <trkpt lat="49.02018" lon="7.87708">
        <ele>458.6</ele>
        <time>2024-08-25T15:02:43Z</time>
      </trkpt>
      <trkpt lat="49.02015" lon="7.87701">
        <ele>458.4</ele>
        <time>2024-08-25T15:02:44Z</time>
      </trkpt>
      <trkpt lat="49.02012" lon="7.87693">
        <ele>458.4</ele>
        <time>2024-08-25T15:02:45Z</time>
      </trkpt>
      <trkpt lat="49.0201" lon="7.87683">
        <ele>458.2</ele>
        <time>2024-08-25T15:02:46Z</time>
      </trkpt>
      <trkpt lat="49.02007" lon="7.87675">
        <ele>458.2</ele>
        <time>2024-08-25T15:02:47Z</time>
      </trkpt>
      <trkpt lat="49.02005" lon="7.87667">
        <ele>458</ele>
        <time>2024-08-25T15:02:48Z</time>
      </trkpt>
      <trkpt lat="49.02002" lon="7.8766">
        <ele>458</ele>
        <time>2024-08-25T15:02:49Z</time>
      </trkpt>
      <trkpt lat="49.01999" lon="7.87652">
        <ele>457.8</ele>
        <time>2024-08-25T15:02:50Z</time>
      </trkpt>
      <trkpt lat="49.01996" lon="7.87645">
        <ele>457.8</ele>
        <time>2024-08-25T15:02:51Z</time>
      </trkpt>
      <trkpt lat="49.01993" lon="7.87639">
        <ele>457.8</ele>
        <time>2024-08-25T15:02:52Z</time>
      </trkpt>
      <trkpt lat="49.0199" lon="7.87632">
        <ele>457.8</ele>
        <time>2024-08-25T15:02:53Z</time>
      </trkpt>
      <trkpt lat="49.01987" lon="7.87625">
        <ele>457.8</ele>
        <time>2024-08-25T15:02:54Z</time>
      </trkpt>
      <trkpt lat="49.01985" lon="7.87619">
        <ele>457.8</ele>
        <time>2024-08-25T15:02:55Z</time>
      </trkpt>
      <trkpt lat="49.01983" lon="7.87612">
        <ele>457.8</ele>
        <time>2024-08-25T15:02:56Z</time>
      </trkpt>
      <trkpt lat="49.01981" lon="7.87606">
        <ele>458</ele>
        <time>2024-08-25T15:02:57Z</time>
      </trkpt>
      <trkpt lat="49.0198" lon="7.876">
        <ele>458</ele>
        <time>2024-08-25T15:02:58Z</time>
      </trkpt>
      <trkpt lat="49.01979" lon="7.87594">
        <ele>458.2</ele>
        <time>2024-08-25T15:02:59Z</time>
      </trkpt>
      <trkpt lat="49.01979" lon="7.87588">
        <ele>458.6</ele>
        <time>2024-08-25T15:03:00Z</time>
      </trkpt>
      <trkpt lat="49.01979" lon="7.87583">
        <ele>459</ele>
        <time>2024-08-25T15:03:01Z</time>
      </trkpt>
      <trkpt lat="49.01978" lon="7.87577">
        <ele>459.2</ele>
        <time>2024-08-25T15:03:02Z</time>
      </trkpt>
      <trkpt lat="49.01978" lon="7.87571">
        <ele>459.4</ele>
        <time>2024-08-25T15:03:03Z</time>
      </trkpt>
      <trkpt lat="49.01977" lon="7.87566">
        <ele>459.6</ele>
        <time>2024-08-25T15:03:04Z</time>
      </trkpt>
      <trkpt lat="49.01977" lon="7.87561">
        <ele>460</ele>
        <time>2024-08-25T15:03:05Z</time>
      </trkpt>
      <trkpt lat="49.01976" lon="7.87556">
        <ele>460.2</ele>
        <time>2024-08-25T15:03:06Z</time>
      </trkpt>
      <trkpt lat="49.01976" lon="7.8755">
        <ele>460.4</ele>
        <time>2024-08-25T15:03:07Z</time>
      </trkpt>
      <trkpt lat="49.01976" lon="7.87545">
        <ele>460.6</ele>
        <time>2024-08-25T15:03:08Z</time>
      </trkpt>
      <trkpt lat="49.01975" lon="7.87541">
        <ele>460.8</ele>
        <time>2024-08-25T15:03:09Z</time>
      </trkpt>
      <trkpt lat="49.01975" lon="7.87535">
        <ele>460.8</ele>
        <time>2024-08-25T15:03:10Z</time>
      </trkpt>
      <trkpt lat="49.01974" lon="7.8753">
        <ele>461</ele>
        <time>2024-08-25T15:03:11Z</time>
      </trkpt>
      <trkpt lat="49.01972" lon="7.87525">
        <ele>461</ele>
        <time>2024-08-25T15:03:12Z</time>
      </trkpt>
      <trkpt lat="49.0197" lon="7.8752">
        <ele>461.2</ele>
        <time>2024-08-25T15:03:13Z</time>
      </trkpt>
      <trkpt lat="49.01969" lon="7.87514">
        <ele>461.4</ele>
        <time>2024-08-25T15:03:14Z</time>
      </trkpt>
      <trkpt lat="49.01967" lon="7.87508">
        <ele>461.6</ele>
        <time>2024-08-25T15:03:15Z</time>
      </trkpt>
      <trkpt lat="49.01966" lon="7.87502">
        <ele>461.8</ele>
        <time>2024-08-25T15:03:16Z</time>
      </trkpt>
      <trkpt lat="49.01965" lon="7.87495">
        <ele>462</ele>
        <time>2024-08-25T15:03:17Z</time>
      </trkpt>
      <trkpt lat="49.01965" lon="7.87489">
        <ele>462.2</ele>
        <time>2024-08-25T15:03:18Z</time>
      </trkpt>
      <trkpt lat="49.01964" lon="7.87483">
        <ele>462.4</ele>
        <time>2024-08-25T15:03:19Z</time>
      </trkpt>
      <trkpt lat="49.01964" lon="7.87476">
        <ele>462.4</ele>
        <time>2024-08-25T15:03:20Z</time>
      </trkpt>
      <trkpt lat="49.01964" lon="7.87469">
        <ele>462.6</ele>
        <time>2024-08-25T15:03:21Z</time>
      </trkpt>
      <trkpt lat="49.01964" lon="7.87463">
        <ele>462.6</ele>
        <time>2024-08-25T15:03:22Z</time>
      </trkpt>
      <trkpt lat="49.01966" lon="7.87456">
        <ele>462.8</ele>
        <time>2024-08-25T15:03:23Z</time>
      </trkpt>
      <trkpt lat="49.01966" lon="7.8745">
        <ele>462.8</ele>
        <time>2024-08-25T15:03:24Z</time>
      </trkpt>
      <trkpt lat="49.01966" lon="7.87443">
        <ele>462.8</ele>
        <time>2024-08-25T15:03:25Z</time>
      </trkpt>
      <trkpt lat="49.01967" lon="7.87437">
        <ele>462.8</ele>
        <time>2024-08-25T15:03:26Z</time>
      </trkpt>
      <trkpt lat="49.01968" lon="7.8743">
        <ele>463</ele>
        <time>2024-08-25T15:03:27Z</time>
      </trkpt>
      <trkpt lat="49.01968" lon="7.87424">
        <ele>463</ele>
        <time>2024-08-25T15:03:28Z</time>
      </trkpt>
      <trkpt lat="49.01968" lon="7.87418">
        <ele>463</ele>
        <time>2024-08-25T15:03:29Z</time>
      </trkpt>
      <trkpt lat="49.01969" lon="7.87411">
        <ele>463.2</ele>
        <time>2024-08-25T15:03:30Z</time>
      </trkpt>
      <trkpt lat="49.01969" lon="7.87405">
        <ele>463.2</ele>
        <time>2024-08-25T15:03:31Z</time>
      </trkpt>
      <trkpt lat="49.0197" lon="7.87398">
        <ele>463.4</ele>
        <time>2024-08-25T15:03:32Z</time>
      </trkpt>
      <trkpt lat="49.0197" lon="7.87391">
        <ele>463.4</ele>
        <time>2024-08-25T15:03:33Z</time>
      </trkpt>
      <trkpt lat="49.0197" lon="7.87385">
        <ele>463.6</ele>
        <time>2024-08-25T15:03:34Z</time>
      </trkpt>
      <trkpt lat="49.01971" lon="7.87379">
        <ele>463.6</ele>
        <time>2024-08-25T15:03:35Z</time>
      </trkpt>
      <trkpt lat="49.01971" lon="7.87373">
        <ele>463.8</ele>
        <time>2024-08-25T15:03:36Z</time>
      </trkpt>
      <trkpt lat="49.01972" lon="7.87367">
        <ele>464</ele>
        <time>2024-08-25T15:03:37Z</time>
      </trkpt>
      <trkpt lat="49.01971" lon="7.87362">
        <ele>464.2</ele>
        <time>2024-08-25T15:03:38Z</time>
      </trkpt>
      <trkpt lat="49.01972" lon="7.87355">
        <ele>464.2</ele>
        <time>2024-08-25T15:03:39Z</time>
      </trkpt>
      <trkpt lat="49.01972" lon="7.87349">
        <ele>464.4</ele>
        <time>2024-08-25T15:03:40Z</time>
      </trkpt>
      <trkpt lat="49.01972" lon="7.87343">
        <ele>464.6</ele>
        <time>2024-08-25T15:03:41Z</time>
      </trkpt>
      <trkpt lat="49.01972" lon="7.87337">
        <ele>464.6</ele>
        <time>2024-08-25T15:03:42Z</time>
      </trkpt>
      <trkpt lat="49.01972" lon="7.87331">
        <ele>464.6</ele>
        <time>2024-08-25T15:03:43Z</time>
      </trkpt>
      <trkpt lat="49.01972" lon="7.87325">
        <ele>464.8</ele>
        <time>2024-08-25T15:03:44Z</time>
      </trkpt>
      <trkpt lat="49.01973" lon="7.87319">
        <ele>465</ele>
        <time>2024-08-25T15:03:45Z</time>
      </trkpt>
      <trkpt lat="49.01974" lon="7.87313">
        <ele>465</ele>
        <time>2024-08-25T15:03:46Z</time>
      </trkpt>
      <trkpt lat="49.01973" lon="7.87307">
        <ele>465.2</ele>
        <time>2024-08-25T15:03:47Z</time>
      </trkpt>
      <trkpt lat="49.01973" lon="7.87301">
        <ele>465.4</ele>
        <time>2024-08-25T15:03:48Z</time>
      </trkpt>
      <trkpt lat="49.01973" lon="7.87296">
        <ele>465.4</ele>
        <time>2024-08-25T15:03:49Z</time>
      </trkpt>
      <trkpt lat="49.01972" lon="7.87291">
        <ele>465.6</ele>
        <time>2024-08-25T15:03:50Z</time>
      </trkpt>
      <trkpt lat="49.01972" lon="7.87286">
        <ele>465.8</ele>
        <time>2024-08-25T15:03:51Z</time>
      </trkpt>
      <trkpt lat="49.01971" lon="7.87281">
        <ele>466</ele>
        <time>2024-08-25T15:03:52Z</time>
      </trkpt>
      <trkpt lat="49.0197" lon="7.87276">
        <ele>466.2</ele>
        <time>2024-08-25T15:03:53Z</time>
      </trkpt>
      <trkpt lat="49.0197" lon="7.8727">
        <ele>466.2</ele>
        <time>2024-08-25T15:03:54Z</time>
      </trkpt>
      <trkpt lat="49.01968" lon="7.87264">
        <ele>466.4</ele>
        <time>2024-08-25T15:03:55Z</time>
      </trkpt>
      <trkpt lat="49.01967" lon="7.87258">
        <ele>466.4</ele>
        <time>2024-08-25T15:03:56Z</time>
      </trkpt>
      <trkpt lat="49.01966" lon="7.87252">
        <ele>466.4</ele>
        <time>2024-08-25T15:03:57Z</time>
      </trkpt>
      <trkpt lat="49.01964" lon="7.87247">
        <ele>466.6</ele>
        <time>2024-08-25T15:03:58Z</time>
      </trkpt>
      <trkpt lat="49.01963" lon="7.87241">
        <ele>466.6</ele>
        <time>2024-08-25T15:03:59Z</time>
      </trkpt>
      <trkpt lat="49.01961" lon="7.87235">
        <ele>466.6</ele>
        <time>2024-08-25T15:04:00Z</time>
      </trkpt>
      <trkpt lat="49.01959" lon="7.87229">
        <ele>466.8</ele>
        <time>2024-08-25T15:04:01Z</time>
      </trkpt>
      <trkpt lat="49.01958" lon="7.87224">
        <ele>466.8</ele>
        <time>2024-08-25T15:04:02Z</time>
      </trkpt>
      <trkpt lat="49.01956" lon="7.87219">
        <ele>466.8</ele>
        <time>2024-08-25T15:04:03Z</time>
      </trkpt>
      <trkpt lat="49.01954" lon="7.87214">
        <ele>467</ele>
        <time>2024-08-25T15:04:04Z</time>
      </trkpt>
      <trkpt lat="49.01952" lon="7.87209">
        <ele>467.2</ele>
        <time>2024-08-25T15:04:05Z</time>
      </trkpt>
      <trkpt lat="49.0195" lon="7.87204">
        <ele>467.4</ele>
        <time>2024-08-25T15:04:06Z</time>
      </trkpt>
      <trkpt lat="49.01948" lon="7.87199">
        <ele>467.6</ele>
        <time>2024-08-25T15:04:07Z</time>
      </trkpt>
      <trkpt lat="49.01946" lon="7.87194">
        <ele>467.6</ele>
        <time>2024-08-25T15:04:08Z</time>
      </trkpt>
      <trkpt lat="49.01944" lon="7.87189">
        <ele>467.8</ele>
        <time>2024-08-25T15:04:09Z</time>
      </trkpt>
      <trkpt lat="49.01942" lon="7.87183">
        <ele>467.8</ele>
        <time>2024-08-25T15:04:10Z</time>
      </trkpt>
      <trkpt lat="49.01939" lon="7.87179">
        <ele>467.8</ele>
        <time>2024-08-25T15:04:11Z</time>
      </trkpt>
      <trkpt lat="49.01937" lon="7.87174">
        <ele>467.8</ele>
        <time>2024-08-25T15:04:12Z</time>
      </trkpt>
      <trkpt lat="49.01935" lon="7.87169">
        <ele>468</ele>
        <time>2024-08-25T15:04:13Z</time>
      </trkpt>
      <trkpt lat="49.01933" lon="7.87164">
        <ele>468</ele>
        <time>2024-08-25T15:04:14Z</time>
      </trkpt>
      <trkpt lat="49.0193" lon="7.87158">
        <ele>468</ele>
        <time>2024-08-25T15:04:15Z</time>
      </trkpt>
      <trkpt lat="49.01927" lon="7.87154">
        <ele>467.8</ele>
        <time>2024-08-25T15:04:16Z</time>
      </trkpt>
      <trkpt lat="49.01924" lon="7.87148">
        <ele>467.8</ele>
        <time>2024-08-25T15:04:17Z</time>
      </trkpt>
      <trkpt lat="49.01922" lon="7.87143">
        <ele>467.8</ele>
        <time>2024-08-25T15:04:18Z</time>
      </trkpt>
      <trkpt lat="49.01919" lon="7.87138">
        <ele>467.6</ele>
        <time>2024-08-25T15:04:19Z</time>
      </trkpt>
      <trkpt lat="49.01916" lon="7.87133">
        <ele>467.6</ele>
        <time>2024-08-25T15:04:20Z</time>
      </trkpt>
      <trkpt lat="49.01913" lon="7.87127">
        <ele>467.6</ele>
        <time>2024-08-25T15:04:21Z</time>
      </trkpt>
      <trkpt lat="49.0191" lon="7.87123">
        <ele>467.6</ele>
        <time>2024-08-25T15:04:22Z</time>
      </trkpt>
      <trkpt lat="49.01907" lon="7.87118">
        <ele>467.6</ele>
        <time>2024-08-25T15:04:23Z</time>
      </trkpt>
      <trkpt lat="49.01905" lon="7.87113">
        <ele>467.6</ele>
        <time>2024-08-25T15:04:24Z</time>
      </trkpt>
      <trkpt lat="49.01902" lon="7.87108">
        <ele>467.6</ele>
        <time>2024-08-25T15:04:25Z</time>
      </trkpt>
      <trkpt lat="49.01899" lon="7.87104">
        <ele>467.6</ele>
        <time>2024-08-25T15:04:26Z</time>
      </trkpt>
      <trkpt lat="49.01896" lon="7.871">
        <ele>467.6</ele>
        <time>2024-08-25T15:04:27Z</time>
      </trkpt>
      <trkpt lat="49.01893" lon="7.87097">
        <ele>467.6</ele>
        <time>2024-08-25T15:04:28Z</time>
      </trkpt>
      <trkpt lat="49.0189" lon="7.87093">
        <ele>467.6</ele>
        <time>2024-08-25T15:04:29Z</time>
      </trkpt>
      <trkpt lat="49.01887" lon="7.87089">
        <ele>467.6</ele>
        <time>2024-08-25T15:04:30Z</time>
      </trkpt>
      <trkpt lat="49.01884" lon="7.87085">
        <ele>467.6</ele>
        <time>2024-08-25T15:04:31Z</time>
      </trkpt>
      <trkpt lat="49.01881" lon="7.87081">
        <ele>467.6</ele>
        <time>2024-08-25T15:04:32Z</time>
      </trkpt>
      <trkpt lat="49.01878" lon="7.87077">
        <ele>467.6</ele>
        <time>2024-08-25T15:04:33Z</time>
      </trkpt>
      <trkpt lat="49.01875" lon="7.87074">
        <ele>467.6</ele>
        <time>2024-08-25T15:04:34Z</time>
      </trkpt>
      <trkpt lat="49.01871" lon="7.87069">
        <ele>467.6</ele>
        <time>2024-08-25T15:04:35Z</time>
      </trkpt>
      <trkpt lat="49.01868" lon="7.87065">
        <ele>467.6</ele>
        <time>2024-08-25T15:04:36Z</time>
      </trkpt>
      <trkpt lat="49.01865" lon="7.87061">
        <ele>467.6</ele>
        <time>2024-08-25T15:04:37Z</time>
      </trkpt>
      <trkpt lat="49.01861" lon="7.87056">
        <ele>467.4</ele>
        <time>2024-08-25T15:04:38Z</time>
      </trkpt>
      <trkpt lat="49.01857" lon="7.87051">
        <ele>467.4</ele>
        <time>2024-08-25T15:04:39Z</time>
      </trkpt>
      <trkpt lat="49.01853" lon="7.87047">
        <ele>467.2</ele>
        <time>2024-08-25T15:04:40Z</time>
      </trkpt>
      <trkpt lat="49.0185" lon="7.87043">
        <ele>467.2</ele>
        <time>2024-08-25T15:04:41Z</time>
      </trkpt>
      <trkpt lat="49.01846" lon="7.87039">
        <ele>467</ele>
        <time>2024-08-25T15:04:42Z</time>
      </trkpt>
      <trkpt lat="49.01842" lon="7.87035">
        <ele>467</ele>
        <time>2024-08-25T15:04:43Z</time>
      </trkpt>
      <trkpt lat="49.01841" lon="7.87031">
        <ele>467</ele>
        <time>2024-08-25T15:04:44Z</time>
      </trkpt>
      <trkpt lat="49.0184" lon="7.87031">
        <ele>467</ele>
        <time>2024-08-25T15:04:45Z</time>
      </trkpt>
      <trkpt lat="49.01839" lon="7.8703">
        <ele>467</ele>
        <time>2024-08-25T15:04:46Z</time>
      </trkpt>
      <trkpt lat="49.01839" lon="7.8703">
        <ele>467</ele>
        <time>2024-08-25T15:04:47Z</time>
      </trkpt>
      <trkpt lat="49.01834" lon="7.87021">
        <ele>466.8</ele>
        <time>2024-08-25T15:05:01Z</time>
      </trkpt>
      <trkpt lat="49.01832" lon="7.87018">
        <ele>466.8</ele>
        <time>2024-08-25T15:05:02Z</time>
      </trkpt>
      <trkpt lat="49.0183" lon="7.87015">
        <ele>466.8</ele>
        <time>2024-08-25T15:05:03Z</time>
      </trkpt>
      <trkpt lat="49.01827" lon="7.87012">
        <ele>466.6</ele>
        <time>2024-08-25T15:05:04Z</time>
      </trkpt>
      <trkpt lat="49.01824" lon="7.87008">
        <ele>466.6</ele>
        <time>2024-08-25T15:05:05Z</time>
      </trkpt>
      <trkpt lat="49.01821" lon="7.87004">
        <ele>466.4</ele>
        <time>2024-08-25T15:05:06Z</time>
      </trkpt>
      <trkpt lat="49.01818" lon="7.87">
        <ele>466.4</ele>
        <time>2024-08-25T15:05:07Z</time>
      </trkpt>
      <trkpt lat="49.01815" lon="7.86995">
        <ele>466.2</ele>
        <time>2024-08-25T15:05:08Z</time>
      </trkpt>
      <trkpt lat="49.01812" lon="7.8699">
        <ele>466</ele>
        <time>2024-08-25T15:05:09Z</time>
      </trkpt>
      <trkpt lat="49.01809" lon="7.86986">
        <ele>466</ele>
        <time>2024-08-25T15:05:10Z</time>
      </trkpt>
      <trkpt lat="49.01806" lon="7.8698">
        <ele>466</ele>
        <time>2024-08-25T15:05:11Z</time>
      </trkpt>
      <trkpt lat="49.01803" lon="7.86974">
        <ele>465.8</ele>
        <time>2024-08-25T15:05:12Z</time>
      </trkpt>
      <trkpt lat="49.018" lon="7.86969">
        <ele>465.8</ele>
        <time>2024-08-25T15:05:13Z</time>
      </trkpt>
      <trkpt lat="49.01797" lon="7.86963">
        <ele>465.6</ele>
        <time>2024-08-25T15:05:14Z</time>
      </trkpt>
      <trkpt lat="49.01794" lon="7.86957">
        <ele>465.6</ele>
        <time>2024-08-25T15:05:15Z</time>
      </trkpt>
      <trkpt lat="49.01792" lon="7.86952">
        <ele>465.6</ele>
        <time>2024-08-25T15:05:16Z</time>
      </trkpt>
      <trkpt lat="49.01791" lon="7.86948">
        <ele>465.4</ele>
        <time>2024-08-25T15:05:17Z</time>
      </trkpt>
      <trkpt lat="49.0179" lon="7.86942">
        <ele>465.4</ele>
        <time>2024-08-25T15:05:18Z</time>
      </trkpt>
      <trkpt lat="49.01788" lon="7.86936">
        <ele>465.4</ele>
        <time>2024-08-25T15:05:19Z</time>
      </trkpt>
      <trkpt lat="49.01787" lon="7.8693">
        <ele>465.4</ele>
        <time>2024-08-25T15:05:20Z</time>
      </trkpt>
      <trkpt lat="49.01785" lon="7.86922">
        <ele>465.6</ele>
        <time>2024-08-25T15:05:21Z</time>
      </trkpt>
      <trkpt lat="49.01783" lon="7.86915">
        <ele>465.6</ele>
        <time>2024-08-25T15:05:22Z</time>
      </trkpt>
      <trkpt lat="49.01782" lon="7.86906">
        <ele>465.8</ele>
        <time>2024-08-25T15:05:23Z</time>
      </trkpt>
      <trkpt lat="49.0178" lon="7.86898">
        <ele>465.8</ele>
        <time>2024-08-25T15:05:24Z</time>
      </trkpt>
      <trkpt lat="49.01779" lon="7.8689">
        <ele>466</ele>
        <time>2024-08-25T15:05:25Z</time>
      </trkpt>
      <trkpt lat="49.01778" lon="7.86882">
        <ele>466</ele>
        <time>2024-08-25T15:05:26Z</time>
      </trkpt>
      <trkpt lat="49.01778" lon="7.86875">
        <ele>466</ele>
        <time>2024-08-25T15:05:27Z</time>
      </trkpt>
      <trkpt lat="49.01778" lon="7.86867">
        <ele>466</ele>
        <time>2024-08-25T15:05:28Z</time>
      </trkpt>
      <trkpt lat="49.01777" lon="7.86859">
        <ele>466</ele>
        <time>2024-08-25T15:05:29Z</time>
      </trkpt>
      <trkpt lat="49.01777" lon="7.86852">
        <ele>466</ele>
        <time>2024-08-25T15:05:30Z</time>
      </trkpt>
      <trkpt lat="49.01777" lon="7.86847">
        <ele>465.8</ele>
        <time>2024-08-25T15:05:31Z</time>
      </trkpt>
      <trkpt lat="49.01777" lon="7.86842">
        <ele>465.8</ele>
        <time>2024-08-25T15:05:32Z</time>
      </trkpt>
      <trkpt lat="49.01777" lon="7.8684">
        <ele>465.8</ele>
        <time>2024-08-25T15:05:33Z</time>
      </trkpt>
      <trkpt lat="49.01777" lon="7.8684">
        <ele>465.8</ele>
        <time>2024-08-25T15:05:34Z</time>
      </trkpt>
      <trkpt lat="49.01776" lon="7.86839">
        <ele>465.8</ele>
        <time>2024-08-25T15:05:35Z</time>
      </trkpt>
      <trkpt lat="49.0178" lon="7.86827">
        <ele>465.4</ele>
        <time>2024-08-25T15:05:47Z</time>
      </trkpt>
      <trkpt lat="49.01779" lon="7.86825">
        <ele>465.4</ele>
        <time>2024-08-25T15:05:48Z</time>
      </trkpt>
      <trkpt lat="49.0178" lon="7.86823">
        <ele>465.2</ele>
        <time>2024-08-25T15:05:49Z</time>
      </trkpt>
      <trkpt lat="49.0178" lon="7.86821">
        <ele>465.2</ele>
        <time>2024-08-25T15:05:50Z</time>
      </trkpt>
      <trkpt lat="49.0178" lon="7.86818">
        <ele>465.2</ele>
        <time>2024-08-25T15:05:51Z</time>
      </trkpt>
      <trkpt lat="49.0178" lon="7.86815">
        <ele>465.2</ele>
        <time>2024-08-25T15:05:52Z</time>
      </trkpt>
      <trkpt lat="49.0178" lon="7.86811">
        <ele>465.2</ele>
        <time>2024-08-25T15:05:53Z</time>
      </trkpt>
      <trkpt lat="49.0178" lon="7.86807">
        <ele>465</ele>
        <time>2024-08-25T15:05:54Z</time>
      </trkpt>
      <trkpt lat="49.0178" lon="7.86802">
        <ele>465</ele>
        <time>2024-08-25T15:05:55Z</time>
      </trkpt>
      <trkpt lat="49.01779" lon="7.86797">
        <ele>465</ele>
        <time>2024-08-25T15:05:56Z</time>
      </trkpt>
      <trkpt lat="49.01779" lon="7.86792">
        <ele>465</ele>
        <time>2024-08-25T15:05:57Z</time>
      </trkpt>
      <trkpt lat="49.01779" lon="7.86787">
        <ele>465</ele>
        <time>2024-08-25T15:05:58Z</time>
      </trkpt>
      <trkpt lat="49.0178" lon="7.86783">
        <ele>465</ele>
        <time>2024-08-25T15:05:59Z</time>
      </trkpt>
      <trkpt lat="49.01782" lon="7.86777">
        <ele>465</ele>
        <time>2024-08-25T15:06:00Z</time>
      </trkpt>
      <trkpt lat="49.01783" lon="7.86772">
        <ele>465</ele>
        <time>2024-08-25T15:06:01Z</time>
      </trkpt>
      <trkpt lat="49.01784" lon="7.86766">
        <ele>465.2</ele>
        <time>2024-08-25T15:06:02Z</time>
      </trkpt>
      <trkpt lat="49.01786" lon="7.86762">
        <ele>465.2</ele>
        <time>2024-08-25T15:06:03Z</time>
      </trkpt>
      <trkpt lat="49.01787" lon="7.86758">
        <ele>465.4</ele>
        <time>2024-08-25T15:06:04Z</time>
      </trkpt>
      <trkpt lat="49.01788" lon="7.86751">
        <ele>465.6</ele>
        <time>2024-08-25T15:06:05Z</time>
      </trkpt>
      <trkpt lat="49.0179" lon="7.86746">
        <ele>465.6</ele>
        <time>2024-08-25T15:06:06Z</time>
      </trkpt>
      <trkpt lat="49.01792" lon="7.86739">
        <ele>465.6</ele>
        <time>2024-08-25T15:06:07Z</time>
      </trkpt>
      <trkpt lat="49.01795" lon="7.86734">
        <ele>465.6</ele>
        <time>2024-08-25T15:06:08Z</time>
      </trkpt>
      <trkpt lat="49.01797" lon="7.86726">
        <ele>465.6</ele>
        <time>2024-08-25T15:06:09Z</time>
      </trkpt>
      <trkpt lat="49.01799" lon="7.8672">
        <ele>465.4</ele>
        <time>2024-08-25T15:06:10Z</time>
      </trkpt>
      <trkpt lat="49.01801" lon="7.86713">
        <ele>465.2</ele>
        <time>2024-08-25T15:06:11Z</time>
      </trkpt>
      <trkpt lat="49.01804" lon="7.86707">
        <ele>465.2</ele>
        <time>2024-08-25T15:06:12Z</time>
      </trkpt>
      <trkpt lat="49.01807" lon="7.86701">
        <ele>465</ele>
        <time>2024-08-25T15:06:13Z</time>
      </trkpt>
      <trkpt lat="49.0181" lon="7.86694">
        <ele>464.8</ele>
        <time>2024-08-25T15:06:14Z</time>
      </trkpt>
      <trkpt lat="49.01812" lon="7.86689">
        <ele>464.6</ele>
        <time>2024-08-25T15:06:15Z</time>
      </trkpt>
      <trkpt lat="49.01815" lon="7.86684">
        <ele>464.4</ele>
        <time>2024-08-25T15:06:16Z</time>
      </trkpt>
      <trkpt lat="49.01818" lon="7.86678">
        <ele>464.2</ele>
        <time>2024-08-25T15:06:17Z</time>
      </trkpt>
      <trkpt lat="49.01821" lon="7.86672">
        <ele>464</ele>
        <time>2024-08-25T15:06:18Z</time>
      </trkpt>
      <trkpt lat="49.01823" lon="7.86667">
        <ele>463.8</ele>
        <time>2024-08-25T15:06:19Z</time>
      </trkpt>
      <trkpt lat="49.01826" lon="7.86661">
        <ele>463.8</ele>
        <time>2024-08-25T15:06:20Z</time>
      </trkpt>
      <trkpt lat="49.01828" lon="7.86656">
        <ele>463.8</ele>
        <time>2024-08-25T15:06:21Z</time>
      </trkpt>
      <trkpt lat="49.01831" lon="7.8665">
        <ele>463.8</ele>
        <time>2024-08-25T15:06:22Z</time>
      </trkpt>
      <trkpt lat="49.01833" lon="7.86646">
        <ele>463.8</ele>
        <time>2024-08-25T15:06:23Z</time>
      </trkpt>
      <trkpt lat="49.01836" lon="7.86642">
        <ele>463.8</ele>
        <time>2024-08-25T15:06:24Z</time>
      </trkpt>
      <trkpt lat="49.01839" lon="7.86636">
        <ele>463.8</ele>
        <time>2024-08-25T15:06:25Z</time>
      </trkpt>
      <trkpt lat="49.01842" lon="7.86631">
        <ele>463.8</ele>
        <time>2024-08-25T15:06:26Z</time>
      </trkpt>
      <trkpt lat="49.01844" lon="7.86628">
        <ele>463.8</ele>
        <time>2024-08-25T15:06:27Z</time>
      </trkpt>
      <trkpt lat="49.01847" lon="7.86623">
        <ele>463.8</ele>
        <time>2024-08-25T15:06:28Z</time>
      </trkpt>
      <trkpt lat="49.0185" lon="7.86619">
        <ele>463.8</ele>
        <time>2024-08-25T15:06:29Z</time>
      </trkpt>
      <trkpt lat="49.01852" lon="7.86613">
        <ele>463.8</ele>
        <time>2024-08-25T15:06:30Z</time>
      </trkpt>
      <trkpt lat="49.01855" lon="7.86608">
        <ele>464</ele>
        <time>2024-08-25T15:06:31Z</time>
      </trkpt>
      <trkpt lat="49.01858" lon="7.86602">
        <ele>464.2</ele>
        <time>2024-08-25T15:06:32Z</time>
      </trkpt>
      <trkpt lat="49.01861" lon="7.86596">
        <ele>464.4</ele>
        <time>2024-08-25T15:06:33Z</time>
      </trkpt>
      <trkpt lat="49.01863" lon="7.86591">
        <ele>464.4</ele>
        <time>2024-08-25T15:06:34Z</time>
      </trkpt>
      <trkpt lat="49.01865" lon="7.86585">
        <ele>464.6</ele>
        <time>2024-08-25T15:06:35Z</time>
      </trkpt>
      <trkpt lat="49.01867" lon="7.86578">
        <ele>464.6</ele>
        <time>2024-08-25T15:06:36Z</time>
      </trkpt>
      <trkpt lat="49.01869" lon="7.86572">
        <ele>464.8</ele>
        <time>2024-08-25T15:06:37Z</time>
      </trkpt>
      <trkpt lat="49.0187" lon="7.86565">
        <ele>464.8</ele>
        <time>2024-08-25T15:06:38Z</time>
      </trkpt>
      <trkpt lat="49.0187" lon="7.86559">
        <ele>464.8</ele>
        <time>2024-08-25T15:06:39Z</time>
      </trkpt>
      <trkpt lat="49.0187" lon="7.86553">
        <ele>464.8</ele>
        <time>2024-08-25T15:06:40Z</time>
      </trkpt>
      <trkpt lat="49.01869" lon="7.86548">
        <ele>464.8</ele>
        <time>2024-08-25T15:06:41Z</time>
      </trkpt>
      <trkpt lat="49.01869" lon="7.86541">
        <ele>464.8</ele>
        <time>2024-08-25T15:06:42Z</time>
      </trkpt>
      <trkpt lat="49.01868" lon="7.86536">
        <ele>464.8</ele>
        <time>2024-08-25T15:06:43Z</time>
      </trkpt>
      <trkpt lat="49.01866" lon="7.8653">
        <ele>465</ele>
        <time>2024-08-25T15:06:44Z</time>
      </trkpt>
      <trkpt lat="49.01865" lon="7.86524">
        <ele>465</ele>
        <time>2024-08-25T15:06:45Z</time>
      </trkpt>
      <trkpt lat="49.01863" lon="7.86518">
        <ele>465</ele>
        <time>2024-08-25T15:06:46Z</time>
      </trkpt>
      <trkpt lat="49.01861" lon="7.86512">
        <ele>465.2</ele>
        <time>2024-08-25T15:06:47Z</time>
      </trkpt>
      <trkpt lat="49.01859" lon="7.86506">
        <ele>465.2</ele>
        <time>2024-08-25T15:06:48Z</time>
      </trkpt>
      <trkpt lat="49.01856" lon="7.865">
        <ele>465.2</ele>
        <time>2024-08-25T15:06:49Z</time>
      </trkpt>
      <trkpt lat="49.01854" lon="7.86495">
        <ele>465.2</ele>
        <time>2024-08-25T15:06:50Z</time>
      </trkpt>
      <trkpt lat="49.01851" lon="7.86491">
        <ele>465.2</ele>
        <time>2024-08-25T15:06:51Z</time>
      </trkpt>
      <trkpt lat="49.01847" lon="7.86487">
        <ele>465.2</ele>
        <time>2024-08-25T15:06:52Z</time>
      </trkpt>
      <trkpt lat="49.01844" lon="7.86482">
        <ele>465.2</ele>
        <time>2024-08-25T15:06:53Z</time>
      </trkpt>
      <trkpt lat="49.0184" lon="7.86478">
        <ele>465</ele>
        <time>2024-08-25T15:06:54Z</time>
      </trkpt>
      <trkpt lat="49.01837" lon="7.86475">
        <ele>465</ele>
        <time>2024-08-25T15:06:55Z</time>
      </trkpt>
      <trkpt lat="49.01833" lon="7.86472">
        <ele>465</ele>
        <time>2024-08-25T15:06:56Z</time>
      </trkpt>
      <trkpt lat="49.01829" lon="7.86468">
        <ele>465</ele>
        <time>2024-08-25T15:06:57Z</time>
      </trkpt>
      <trkpt lat="49.01825" lon="7.86465">
        <ele>465</ele>
        <time>2024-08-25T15:06:58Z</time>
      </trkpt>
      <trkpt lat="49.0182" lon="7.86462">
        <ele>465</ele>
        <time>2024-08-25T15:06:59Z</time>
      </trkpt>
      <trkpt lat="49.01816" lon="7.86461">
        <ele>464.8</ele>
        <time>2024-08-25T15:07:00Z</time>
      </trkpt>
      <trkpt lat="49.01811" lon="7.86459">
        <ele>464.6</ele>
        <time>2024-08-25T15:07:01Z</time>
      </trkpt>
      <trkpt lat="49.01807" lon="7.86459">
        <ele>464.6</ele>
        <time>2024-08-25T15:07:02Z</time>
      </trkpt>
      <trkpt lat="49.01802" lon="7.86458">
        <ele>464.4</ele>
        <time>2024-08-25T15:07:03Z</time>
      </trkpt>
      <trkpt lat="49.01798" lon="7.86459">
        <ele>464.4</ele>
        <time>2024-08-25T15:07:04Z</time>
      </trkpt>
      <trkpt lat="49.01794" lon="7.86459">
        <ele>464.4</ele>
        <time>2024-08-25T15:07:05Z</time>
      </trkpt>
      <trkpt lat="49.0179" lon="7.8646">
        <ele>464.4</ele>
        <time>2024-08-25T15:07:06Z</time>
      </trkpt>
      <trkpt lat="49.01786" lon="7.86461">
        <ele>464.4</ele>
        <time>2024-08-25T15:07:07Z</time>
      </trkpt>
      <trkpt lat="49.01781" lon="7.86463">
        <ele>464.4</ele>
        <time>2024-08-25T15:07:08Z</time>
      </trkpt>
      <trkpt lat="49.01777" lon="7.86465">
        <ele>464.6</ele>
        <time>2024-08-25T15:07:09Z</time>
      </trkpt>
      <trkpt lat="49.01774" lon="7.86467">
        <ele>464.6</ele>
        <time>2024-08-25T15:07:10Z</time>
      </trkpt>
      <trkpt lat="49.0177" lon="7.86469">
        <ele>464.6</ele>
        <time>2024-08-25T15:07:11Z</time>
      </trkpt>
      <trkpt lat="49.01766" lon="7.86471">
        <ele>464.6</ele>
        <time>2024-08-25T15:07:12Z</time>
      </trkpt>
      <trkpt lat="49.01763" lon="7.86474">
        <ele>464.8</ele>
        <time>2024-08-25T15:07:13Z</time>
      </trkpt>
      <trkpt lat="49.0176" lon="7.86478">
        <ele>464.8</ele>
        <time>2024-08-25T15:07:14Z</time>
      </trkpt>
      <trkpt lat="49.01756" lon="7.86483">
        <ele>465</ele>
        <time>2024-08-25T15:07:15Z</time>
      </trkpt>
      <trkpt lat="49.01753" lon="7.86487">
        <ele>465</ele>
        <time>2024-08-25T15:07:16Z</time>
      </trkpt>
      <trkpt lat="49.0175" lon="7.86491">
        <ele>465</ele>
        <time>2024-08-25T15:07:17Z</time>
      </trkpt>
      <trkpt lat="49.01746" lon="7.86496">
        <ele>465</ele>
        <time>2024-08-25T15:07:18Z</time>
      </trkpt>
      <trkpt lat="49.01744" lon="7.865">
        <ele>465</ele>
        <time>2024-08-25T15:07:19Z</time>
      </trkpt>
      <trkpt lat="49.01741" lon="7.86505">
        <ele>465.2</ele>
        <time>2024-08-25T15:07:20Z</time>
      </trkpt>
      <trkpt lat="49.01738" lon="7.86509">
        <ele>465.2</ele>
        <time>2024-08-25T15:07:21Z</time>
      </trkpt>
      <trkpt lat="49.01736" lon="7.86514">
        <ele>465.2</ele>
        <time>2024-08-25T15:07:22Z</time>
      </trkpt>
      <trkpt lat="49.01733" lon="7.86519">
        <ele>465.2</ele>
        <time>2024-08-25T15:07:23Z</time>
      </trkpt>
      <trkpt lat="49.0173" lon="7.86525">
        <ele>465.2</ele>
        <time>2024-08-25T15:07:24Z</time>
      </trkpt>
      <trkpt lat="49.01727" lon="7.8653">
        <ele>465.2</ele>
        <time>2024-08-25T15:07:25Z</time>
      </trkpt>
      <trkpt lat="49.01724" lon="7.86536">
        <ele>465.2</ele>
        <time>2024-08-25T15:07:26Z</time>
      </trkpt>
      <trkpt lat="49.01721" lon="7.86541">
        <ele>465.4</ele>
        <time>2024-08-25T15:07:27Z</time>
      </trkpt>
      <trkpt lat="49.01719" lon="7.86546">
        <ele>465.4</ele>
        <time>2024-08-25T15:07:28Z</time>
      </trkpt>
      <trkpt lat="49.01716" lon="7.86553">
        <ele>465.4</ele>
        <time>2024-08-25T15:07:29Z</time>
      </trkpt>
      <trkpt lat="49.01713" lon="7.86558">
        <ele>465.2</ele>
        <time>2024-08-25T15:07:30Z</time>
      </trkpt>
      <trkpt lat="49.0171" lon="7.86563">
        <ele>465.2</ele>
        <time>2024-08-25T15:07:31Z</time>
      </trkpt>
      <trkpt lat="49.01708" lon="7.86568">
        <ele>465.2</ele>
        <time>2024-08-25T15:07:32Z</time>
      </trkpt>
      <trkpt lat="49.01705" lon="7.86573">
        <ele>465.2</ele>
        <time>2024-08-25T15:07:33Z</time>
      </trkpt>
      <trkpt lat="49.01702" lon="7.86579">
        <ele>465</ele>
        <time>2024-08-25T15:07:34Z</time>
      </trkpt>
      <trkpt lat="49.01699" lon="7.86585">
        <ele>465</ele>
        <time>2024-08-25T15:07:35Z</time>
      </trkpt>
      <trkpt lat="49.01697" lon="7.8659">
        <ele>465</ele>
        <time>2024-08-25T15:07:36Z</time>
      </trkpt>
      <trkpt lat="49.01694" lon="7.86596">
        <ele>465</ele>
        <time>2024-08-25T15:07:37Z</time>
      </trkpt>
      <trkpt lat="49.01691" lon="7.86602">
        <ele>465</ele>
        <time>2024-08-25T15:07:38Z</time>
      </trkpt>
      <trkpt lat="49.01688" lon="7.86609">
        <ele>464.8</ele>
        <time>2024-08-25T15:07:39Z</time>
      </trkpt>
      <trkpt lat="49.01685" lon="7.86614">
        <ele>464.8</ele>
        <time>2024-08-25T15:07:40Z</time>
      </trkpt>
      <trkpt lat="49.01682" lon="7.86619">
        <ele>464.6</ele>
        <time>2024-08-25T15:07:41Z</time>
      </trkpt>
      <trkpt lat="49.01679" lon="7.86625">
        <ele>464.4</ele>
        <time>2024-08-25T15:07:42Z</time>
      </trkpt>
      <trkpt lat="49.01676" lon="7.86631">
        <ele>464.4</ele>
        <time>2024-08-25T15:07:43Z</time>
      </trkpt>
      <trkpt lat="49.01673" lon="7.86637">
        <ele>464.4</ele>
        <time>2024-08-25T15:07:44Z</time>
      </trkpt>
      <trkpt lat="49.0167" lon="7.86644">
        <ele>464.2</ele>
        <time>2024-08-25T15:07:45Z</time>
      </trkpt>
      <trkpt lat="49.01667" lon="7.8665">
        <ele>464</ele>
        <time>2024-08-25T15:07:46Z</time>
      </trkpt>
      <trkpt lat="49.01664" lon="7.86657">
        <ele>463.8</ele>
        <time>2024-08-25T15:07:47Z</time>
      </trkpt>
      <trkpt lat="49.01661" lon="7.86664">
        <ele>463.8</ele>
        <time>2024-08-25T15:07:48Z</time>
      </trkpt>
      <trkpt lat="49.01657" lon="7.86671">
        <ele>463.6</ele>
        <time>2024-08-25T15:07:49Z</time>
      </trkpt>
      <trkpt lat="49.01654" lon="7.86677">
        <ele>463.4</ele>
        <time>2024-08-25T15:07:50Z</time>
      </trkpt>
      <trkpt lat="49.0165" lon="7.86683">
        <ele>463.2</ele>
        <time>2024-08-25T15:07:51Z</time>
      </trkpt>
      <trkpt lat="49.01646" lon="7.86689">
        <ele>463</ele>
        <time>2024-08-25T15:07:52Z</time>
      </trkpt>
      <trkpt lat="49.01643" lon="7.86695">
        <ele>462.8</ele>
        <time>2024-08-25T15:07:53Z</time>
      </trkpt>
      <trkpt lat="49.01639" lon="7.86701">
        <ele>462.8</ele>
        <time>2024-08-25T15:07:54Z</time>
      </trkpt>
      <trkpt lat="49.01635" lon="7.86706">
        <ele>462.6</ele>
        <time>2024-08-25T15:07:55Z</time>
      </trkpt>
      <trkpt lat="49.01631" lon="7.86711">
        <ele>462.6</ele>
        <time>2024-08-25T15:07:56Z</time>
      </trkpt>
      <trkpt lat="49.01627" lon="7.86716">
        <ele>462.4</ele>
        <time>2024-08-25T15:07:57Z</time>
      </trkpt>
      <trkpt lat="49.01624" lon="7.8672">
        <ele>462.2</ele>
        <time>2024-08-25T15:07:58Z</time>
      </trkpt>
      <trkpt lat="49.0162" lon="7.86725">
        <ele>462.2</ele>
        <time>2024-08-25T15:07:59Z</time>
      </trkpt>
      <trkpt lat="49.01616" lon="7.86729">
        <ele>462</ele>
        <time>2024-08-25T15:08:00Z</time>
      </trkpt>
      <trkpt lat="49.01612" lon="7.86733">
        <ele>462</ele>
        <time>2024-08-25T15:08:01Z</time>
      </trkpt>
      <trkpt lat="49.01609" lon="7.86737">
        <ele>461.8</ele>
        <time>2024-08-25T15:08:02Z</time>
      </trkpt>
      <trkpt lat="49.01605" lon="7.86742">
        <ele>461.8</ele>
        <time>2024-08-25T15:08:03Z</time>
      </trkpt>
      <trkpt lat="49.016" lon="7.86745">
        <ele>461.8</ele>
        <time>2024-08-25T15:08:04Z</time>
      </trkpt>
      <trkpt lat="49.01595" lon="7.86748">
        <ele>461.8</ele>
        <time>2024-08-25T15:08:05Z</time>
      </trkpt>
      <trkpt lat="49.0159" lon="7.86752">
        <ele>461.4</ele>
        <time>2024-08-25T15:08:06Z</time>
      </trkpt>
      <trkpt lat="49.01585" lon="7.86754">
        <ele>461.4</ele>
        <time>2024-08-25T15:08:07Z</time>
      </trkpt>
      <trkpt lat="49.0158" lon="7.86756">
        <ele>461.2</ele>
        <time>2024-08-25T15:08:08Z</time>
      </trkpt>
      <trkpt lat="49.01574" lon="7.86758">
        <ele>461</ele>
        <time>2024-08-25T15:08:09Z</time>
      </trkpt>
      <trkpt lat="49.01568" lon="7.86758">
        <ele>460.8</ele>
        <time>2024-08-25T15:08:10Z</time>
      </trkpt>
      <trkpt lat="49.01563" lon="7.86758">
        <ele>460.6</ele>
        <time>2024-08-25T15:08:11Z</time>
      </trkpt>
      <trkpt lat="49.01557" lon="7.86756">
        <ele>460.4</ele>
        <time>2024-08-25T15:08:12Z</time>
      </trkpt>
      <trkpt lat="49.01552" lon="7.86752">
        <ele>460.4</ele>
        <time>2024-08-25T15:08:13Z</time>
      </trkpt>
      <trkpt lat="49.01548" lon="7.86749">
        <ele>460.2</ele>
        <time>2024-08-25T15:08:14Z</time>
      </trkpt>
      <trkpt lat="49.01544" lon="7.86743">
        <ele>460.2</ele>
        <time>2024-08-25T15:08:15Z</time>
      </trkpt>
      <trkpt lat="49.01542" lon="7.86738">
        <ele>460</ele>
        <time>2024-08-25T15:08:16Z</time>
      </trkpt>
      <trkpt lat="49.01541" lon="7.86731">
        <ele>460</ele>
        <time>2024-08-25T15:08:17Z</time>
      </trkpt>
      <trkpt lat="49.0154" lon="7.86723">
        <ele>459.8</ele>
        <time>2024-08-25T15:08:18Z</time>
      </trkpt>
      <trkpt lat="49.01539" lon="7.86714">
        <ele>459.6</ele>
        <time>2024-08-25T15:08:19Z</time>
      </trkpt>
      <trkpt lat="49.01538" lon="7.86706">
        <ele>459.4</ele>
        <time>2024-08-25T15:08:20Z</time>
      </trkpt>
      <trkpt lat="49.01538" lon="7.86698">
        <ele>459</ele>
        <time>2024-08-25T15:08:21Z</time>
      </trkpt>
      <trkpt lat="49.01538" lon="7.86691">
        <ele>458.4</ele>
        <time>2024-08-25T15:08:22Z</time>
      </trkpt>
      <trkpt lat="49.01537" lon="7.86684">
        <ele>457.8</ele>
        <time>2024-08-25T15:08:23Z</time>
      </trkpt>
      <trkpt lat="49.01536" lon="7.86677">
        <ele>457.4</ele>
        <time>2024-08-25T15:08:24Z</time>
      </trkpt>
      <trkpt lat="49.01535" lon="7.8667">
        <ele>457</ele>
        <time>2024-08-25T15:08:25Z</time>
      </trkpt>
      <trkpt lat="49.01534" lon="7.86664">
        <ele>456.6</ele>
        <time>2024-08-25T15:08:26Z</time>
      </trkpt>
      <trkpt lat="49.01533" lon="7.86658">
        <ele>456.2</ele>
        <time>2024-08-25T15:08:27Z</time>
      </trkpt>
      <trkpt lat="49.01533" lon="7.86653">
        <ele>455.6</ele>
        <time>2024-08-25T15:08:28Z</time>
      </trkpt>
      <trkpt lat="49.01533" lon="7.86647">
        <ele>455.2</ele>
        <time>2024-08-25T15:08:29Z</time>
      </trkpt>
      <trkpt lat="49.01532" lon="7.8664">
        <ele>454.8</ele>
        <time>2024-08-25T15:08:30Z</time>
      </trkpt>
      <trkpt lat="49.01532" lon="7.86634">
        <ele>454.6</ele>
        <time>2024-08-25T15:08:31Z</time>
      </trkpt>
      <trkpt lat="49.01532" lon="7.86628">
        <ele>454.2</ele>
        <time>2024-08-25T15:08:32Z</time>
      </trkpt>
      <trkpt lat="49.01532" lon="7.8662">
        <ele>453.8</ele>
        <time>2024-08-25T15:08:33Z</time>
      </trkpt>
      <trkpt lat="49.01533" lon="7.86613">
        <ele>453.6</ele>
        <time>2024-08-25T15:08:34Z</time>
      </trkpt>
      <trkpt lat="49.01532" lon="7.86606">
        <ele>453</ele>
        <time>2024-08-25T15:08:35Z</time>
      </trkpt>
      <trkpt lat="49.01531" lon="7.86597">
        <ele>452.4</ele>
        <time>2024-08-25T15:08:36Z</time>
      </trkpt>
      <trkpt lat="49.01532" lon="7.86589">
        <ele>452</ele>
        <time>2024-08-25T15:08:37Z</time>
      </trkpt>
      <trkpt lat="49.01532" lon="7.86581">
        <ele>451.6</ele>
        <time>2024-08-25T15:08:38Z</time>
      </trkpt>
      <trkpt lat="49.01532" lon="7.86574">
        <ele>451</ele>
        <time>2024-08-25T15:08:39Z</time>
      </trkpt>
      <trkpt lat="49.01531" lon="7.86568">
        <ele>450.6</ele>
        <time>2024-08-25T15:08:40Z</time>
      </trkpt>
      <trkpt lat="49.01531" lon="7.86562">
        <ele>450.2</ele>
        <time>2024-08-25T15:08:41Z</time>
      </trkpt>
      <trkpt lat="49.01531" lon="7.86555">
        <ele>449.8</ele>
        <time>2024-08-25T15:08:42Z</time>
      </trkpt>
      <trkpt lat="49.0153" lon="7.86547">
        <ele>449.4</ele>
        <time>2024-08-25T15:08:43Z</time>
      </trkpt>
      <trkpt lat="49.0153" lon="7.8654">
        <ele>448.8</ele>
        <time>2024-08-25T15:08:44Z</time>
      </trkpt>
      <trkpt lat="49.01529" lon="7.86532">
        <ele>448.4</ele>
        <time>2024-08-25T15:08:45Z</time>
      </trkpt>
      <trkpt lat="49.01529" lon="7.86523">
        <ele>448.2</ele>
        <time>2024-08-25T15:08:46Z</time>
      </trkpt>
      <trkpt lat="49.01529" lon="7.86515">
        <ele>447.8</ele>
        <time>2024-08-25T15:08:47Z</time>
      </trkpt>
      <trkpt lat="49.01528" lon="7.86506">
        <ele>447.2</ele>
        <time>2024-08-25T15:08:48Z</time>
      </trkpt>
      <trkpt lat="49.01528" lon="7.86498">
        <ele>446.8</ele>
        <time>2024-08-25T15:08:49Z</time>
      </trkpt>
      <trkpt lat="49.01528" lon="7.8649">
        <ele>446.2</ele>
        <time>2024-08-25T15:08:50Z</time>
      </trkpt>
      <trkpt lat="49.01527" lon="7.8648">
        <ele>445.8</ele>
        <time>2024-08-25T15:08:51Z</time>
      </trkpt>
      <trkpt lat="49.01526" lon="7.86471">
        <ele>445.6</ele>
        <time>2024-08-25T15:08:52Z</time>
      </trkpt>
      <trkpt lat="49.01525" lon="7.86463">
        <ele>445.2</ele>
        <time>2024-08-25T15:08:53Z</time>
      </trkpt>
      <trkpt lat="49.01524" lon="7.86454">
        <ele>445</ele>
        <time>2024-08-25T15:08:54Z</time>
      </trkpt>
      <trkpt lat="49.01523" lon="7.86446">
        <ele>444.6</ele>
        <time>2024-08-25T15:08:55Z</time>
      </trkpt>
      <trkpt lat="49.01523" lon="7.86437">
        <ele>444.4</ele>
        <time>2024-08-25T15:08:56Z</time>
      </trkpt>
      <trkpt lat="49.01522" lon="7.86429">
        <ele>444.2</ele>
        <time>2024-08-25T15:08:57Z</time>
      </trkpt>
      <trkpt lat="49.0152" lon="7.86421">
        <ele>444</ele>
        <time>2024-08-25T15:08:58Z</time>
      </trkpt>
      <trkpt lat="49.01519" lon="7.86412">
        <ele>443.8</ele>
        <time>2024-08-25T15:08:59Z</time>
      </trkpt>
      <trkpt lat="49.01518" lon="7.86404">
        <ele>443.8</ele>
        <time>2024-08-25T15:09:00Z</time>
      </trkpt>
      <trkpt lat="49.01517" lon="7.86396">
        <ele>443.6</ele>
        <time>2024-08-25T15:09:01Z</time>
      </trkpt>
      <trkpt lat="49.01516" lon="7.86388">
        <ele>443.6</ele>
        <time>2024-08-25T15:09:02Z</time>
      </trkpt>
      <trkpt lat="49.01514" lon="7.8638">
        <ele>443.4</ele>
        <time>2024-08-25T15:09:03Z</time>
      </trkpt>
      <trkpt lat="49.01513" lon="7.86372">
        <ele>443.4</ele>
        <time>2024-08-25T15:09:04Z</time>
      </trkpt>
      <trkpt lat="49.01512" lon="7.86364">
        <ele>443.4</ele>
        <time>2024-08-25T15:09:05Z</time>
      </trkpt>
      <trkpt lat="49.01511" lon="7.86357">
        <ele>443.2</ele>
        <time>2024-08-25T15:09:06Z</time>
      </trkpt>
      <trkpt lat="49.01509" lon="7.86349">
        <ele>443.2</ele>
        <time>2024-08-25T15:09:07Z</time>
      </trkpt>
      <trkpt lat="49.01508" lon="7.86341">
        <ele>443.2</ele>
        <time>2024-08-25T15:09:08Z</time>
      </trkpt>
      <trkpt lat="49.01507" lon="7.86335">
        <ele>443</ele>
        <time>2024-08-25T15:09:09Z</time>
      </trkpt>
      <trkpt lat="49.01508" lon="7.86329">
        <ele>443</ele>
        <time>2024-08-25T15:09:10Z</time>
      </trkpt>
      <trkpt lat="49.01507" lon="7.86323">
        <ele>443</ele>
        <time>2024-08-25T15:09:11Z</time>
      </trkpt>
      <trkpt lat="49.01507" lon="7.86317">
        <ele>442.8</ele>
        <time>2024-08-25T15:09:12Z</time>
      </trkpt>
      <trkpt lat="49.01505" lon="7.86311">
        <ele>442.8</ele>
        <time>2024-08-25T15:09:13Z</time>
      </trkpt>
      <trkpt lat="49.01505" lon="7.86304">
        <ele>442.6</ele>
        <time>2024-08-25T15:09:14Z</time>
      </trkpt>
      <trkpt lat="49.01504" lon="7.86298">
        <ele>442.6</ele>
        <time>2024-08-25T15:09:15Z</time>
      </trkpt>
      <trkpt lat="49.01503" lon="7.86291">
        <ele>442.6</ele>
        <time>2024-08-25T15:09:16Z</time>
      </trkpt>
      <trkpt lat="49.01502" lon="7.86283">
        <ele>442.4</ele>
        <time>2024-08-25T15:09:17Z</time>
      </trkpt>
      <trkpt lat="49.01502" lon="7.86276">
        <ele>442</ele>
        <time>2024-08-25T15:09:18Z</time>
      </trkpt>
      <trkpt lat="49.01501" lon="7.86268">
        <ele>441.8</ele>
        <time>2024-08-25T15:09:19Z</time>
      </trkpt>
      <trkpt lat="49.015" lon="7.8626">
        <ele>441.6</ele>
        <time>2024-08-25T15:09:20Z</time>
      </trkpt>
      <trkpt lat="49.015" lon="7.86253">
        <ele>441.4</ele>
        <time>2024-08-25T15:09:21Z</time>
      </trkpt>
      <trkpt lat="49.01499" lon="7.86247">
        <ele>441.4</ele>
        <time>2024-08-25T15:09:22Z</time>
      </trkpt>
      <trkpt lat="49.01498" lon="7.86239">
        <ele>441.2</ele>
        <time>2024-08-25T15:09:23Z</time>
      </trkpt>
      <trkpt lat="49.01497" lon="7.86232">
        <ele>441.2</ele>
        <time>2024-08-25T15:09:24Z</time>
      </trkpt>
      <trkpt lat="49.01496" lon="7.86226">
        <ele>440.8</ele>
        <time>2024-08-25T15:09:25Z</time>
      </trkpt>
      <trkpt lat="49.01495" lon="7.86221">
        <ele>440.8</ele>
        <time>2024-08-25T15:09:26Z</time>
      </trkpt>
      <trkpt lat="49.01494" lon="7.86216">
        <ele>440.8</ele>
        <time>2024-08-25T15:09:27Z</time>
      </trkpt>
      <trkpt lat="49.01493" lon="7.86211">
        <ele>440.8</ele>
        <time>2024-08-25T15:09:28Z</time>
      </trkpt>
      <trkpt lat="49.01493" lon="7.86206">
        <ele>440.8</ele>
        <time>2024-08-25T15:09:29Z</time>
      </trkpt>
      <trkpt lat="49.01492" lon="7.86201">
        <ele>440.8</ele>
        <time>2024-08-25T15:09:30Z</time>
      </trkpt>
      <trkpt lat="49.01492" lon="7.86197">
        <ele>441</ele>
        <time>2024-08-25T15:09:31Z</time>
      </trkpt>
      <trkpt lat="49.01491" lon="7.86192">
        <ele>441</ele>
        <time>2024-08-25T15:09:32Z</time>
      </trkpt>
      <trkpt lat="49.0149" lon="7.86187">
        <ele>441.2</ele>
        <time>2024-08-25T15:09:33Z</time>
      </trkpt>
      <trkpt lat="49.0149" lon="7.86183">
        <ele>441.4</ele>
        <time>2024-08-25T15:09:34Z</time>
      </trkpt>
      <trkpt lat="49.01489" lon="7.86179">
        <ele>441.6</ele>
        <time>2024-08-25T15:09:35Z</time>
      </trkpt>
      <trkpt lat="49.01488" lon="7.86175">
        <ele>441.8</ele>
        <time>2024-08-25T15:09:36Z</time>
      </trkpt>
      <trkpt lat="49.01486" lon="7.86171">
        <ele>442</ele>
        <time>2024-08-25T15:09:37Z</time>
      </trkpt>
      <trkpt lat="49.01485" lon="7.86165">
        <ele>442.4</ele>
        <time>2024-08-25T15:09:38Z</time>
      </trkpt>
      <trkpt lat="49.01483" lon="7.8616">
        <ele>442.6</ele>
        <time>2024-08-25T15:09:39Z</time>
      </trkpt>
      <trkpt lat="49.0148" lon="7.86155">
        <ele>442.6</ele>
        <time>2024-08-25T15:09:40Z</time>
      </trkpt>
      <trkpt lat="49.01477" lon="7.8615">
        <ele>442.8</ele>
        <time>2024-08-25T15:09:41Z</time>
      </trkpt>
      <trkpt lat="49.01475" lon="7.86145">
        <ele>443</ele>
        <time>2024-08-25T15:09:42Z</time>
      </trkpt>
      <trkpt lat="49.01473" lon="7.8614">
        <ele>443</ele>
        <time>2024-08-25T15:09:43Z</time>
      </trkpt>
      <trkpt lat="49.01471" lon="7.86135">
        <ele>443</ele>
        <time>2024-08-25T15:09:44Z</time>
      </trkpt>
      <trkpt lat="49.01469" lon="7.8613">
        <ele>443.2</ele>
        <time>2024-08-25T15:09:45Z</time>
      </trkpt>
      <trkpt lat="49.01467" lon="7.86124">
        <ele>443.2</ele>
        <time>2024-08-25T15:09:46Z</time>
      </trkpt>
      <trkpt lat="49.01464" lon="7.86119">
        <ele>443.2</ele>
        <time>2024-08-25T15:09:47Z</time>
      </trkpt>
      <trkpt lat="49.01462" lon="7.86115">
        <ele>443.4</ele>
        <time>2024-08-25T15:09:48Z</time>
      </trkpt>
      <trkpt lat="49.01459" lon="7.86111">
        <ele>443.4</ele>
        <time>2024-08-25T15:09:49Z</time>
      </trkpt>
      <trkpt lat="49.01457" lon="7.86106">
        <ele>443.4</ele>
        <time>2024-08-25T15:09:50Z</time>
      </trkpt>
      <trkpt lat="49.01454" lon="7.86102">
        <ele>443.6</ele>
        <time>2024-08-25T15:09:51Z</time>
      </trkpt>
      <trkpt lat="49.01451" lon="7.86097">
        <ele>443.6</ele>
        <time>2024-08-25T15:09:52Z</time>
      </trkpt>
      <trkpt lat="49.01449" lon="7.86093">
        <ele>443.6</ele>
        <time>2024-08-25T15:09:53Z</time>
      </trkpt>
      <trkpt lat="49.01446" lon="7.86089">
        <ele>443.6</ele>
        <time>2024-08-25T15:09:54Z</time>
      </trkpt>
      <trkpt lat="49.01443" lon="7.86086">
        <ele>443.6</ele>
        <time>2024-08-25T15:09:55Z</time>
      </trkpt>
      <trkpt lat="49.0144" lon="7.86083">
        <ele>443.6</ele>
        <time>2024-08-25T15:09:56Z</time>
      </trkpt>
      <trkpt lat="49.01437" lon="7.8608">
        <ele>443.6</ele>
        <time>2024-08-25T15:09:57Z</time>
      </trkpt>
      <trkpt lat="49.01434" lon="7.86077">
        <ele>443.6</ele>
        <time>2024-08-25T15:09:58Z</time>
      </trkpt>
      <trkpt lat="49.01431" lon="7.86074">
        <ele>443.6</ele>
        <time>2024-08-25T15:09:59Z</time>
      </trkpt>
      <trkpt lat="49.01427" lon="7.86071">
        <ele>443.4</ele>
        <time>2024-08-25T15:10:00Z</time>
      </trkpt>
      <trkpt lat="49.01423" lon="7.86068">
        <ele>443.4</ele>
        <time>2024-08-25T15:10:01Z</time>
      </trkpt>
      <trkpt lat="49.01419" lon="7.86065">
        <ele>443.4</ele>
        <time>2024-08-25T15:10:02Z</time>
      </trkpt>
      <trkpt lat="49.01415" lon="7.86062">
        <ele>443.4</ele>
        <time>2024-08-25T15:10:03Z</time>
      </trkpt>
      <trkpt lat="49.01412" lon="7.86059">
        <ele>443.4</ele>
        <time>2024-08-25T15:10:04Z</time>
      </trkpt>
      <trkpt lat="49.01408" lon="7.86057">
        <ele>443.4</ele>
        <time>2024-08-25T15:10:05Z</time>
      </trkpt>
      <trkpt lat="49.01405" lon="7.86055">
        <ele>443.4</ele>
        <time>2024-08-25T15:10:06Z</time>
      </trkpt>
      <trkpt lat="49.01401" lon="7.86053">
        <ele>443.6</ele>
        <time>2024-08-25T15:10:07Z</time>
      </trkpt>
      <trkpt lat="49.01398" lon="7.86051">
        <ele>443.6</ele>
        <time>2024-08-25T15:10:08Z</time>
      </trkpt>
      <trkpt lat="49.01394" lon="7.86051">
        <ele>443.6</ele>
        <time>2024-08-25T15:10:09Z</time>
      </trkpt>
      <trkpt lat="49.01391" lon="7.86051">
        <ele>443.8</ele>
        <time>2024-08-25T15:10:10Z</time>
      </trkpt>
      <trkpt lat="49.01387" lon="7.86051">
        <ele>444</ele>
        <time>2024-08-25T15:10:11Z</time>
      </trkpt>
      <trkpt lat="49.01384" lon="7.86052">
        <ele>444</ele>
        <time>2024-08-25T15:10:12Z</time>
      </trkpt>
      <trkpt lat="49.0138" lon="7.86052">
        <ele>444.2</ele>
        <time>2024-08-25T15:10:13Z</time>
      </trkpt>
      <trkpt lat="49.01376" lon="7.86052">
        <ele>444.4</ele>
        <time>2024-08-25T15:10:14Z</time>
      </trkpt>
      <trkpt lat="49.01372" lon="7.86053">
        <ele>444.4</ele>
        <time>2024-08-25T15:10:15Z</time>
      </trkpt>
      <trkpt lat="49.01369" lon="7.86054">
        <ele>444.6</ele>
        <time>2024-08-25T15:10:16Z</time>
      </trkpt>
      <trkpt lat="49.01365" lon="7.86055">
        <ele>444.8</ele>
        <time>2024-08-25T15:10:17Z</time>
      </trkpt>
      <trkpt lat="49.01361" lon="7.86056">
        <ele>444.8</ele>
        <time>2024-08-25T15:10:18Z</time>
      </trkpt>
      <trkpt lat="49.01357" lon="7.86057">
        <ele>445</ele>
        <time>2024-08-25T15:10:19Z</time>
      </trkpt>
      <trkpt lat="49.01352" lon="7.86059">
        <ele>445</ele>
        <time>2024-08-25T15:10:20Z</time>
      </trkpt>
      <trkpt lat="49.01348" lon="7.86061">
        <ele>445</ele>
        <time>2024-08-25T15:10:21Z</time>
      </trkpt>
      <trkpt lat="49.01345" lon="7.86063">
        <ele>445</ele>
        <time>2024-08-25T15:10:22Z</time>
      </trkpt>
      <trkpt lat="49.01341" lon="7.86066">
        <ele>445</ele>
        <time>2024-08-25T15:10:23Z</time>
      </trkpt>
      <trkpt lat="49.01338" lon="7.86069">
        <ele>445</ele>
        <time>2024-08-25T15:10:24Z</time>
      </trkpt>
      <trkpt lat="49.01334" lon="7.86072">
        <ele>445</ele>
        <time>2024-08-25T15:10:25Z</time>
      </trkpt>
      <trkpt lat="49.01331" lon="7.86075">
        <ele>445</ele>
        <time>2024-08-25T15:10:26Z</time>
      </trkpt>
      <trkpt lat="49.01328" lon="7.86079">
        <ele>445.2</ele>
        <time>2024-08-25T15:10:27Z</time>
      </trkpt>
      <trkpt lat="49.01326" lon="7.86083">
        <ele>445.2</ele>
        <time>2024-08-25T15:10:28Z</time>
      </trkpt>
      <trkpt lat="49.01323" lon="7.86087">
        <ele>445.2</ele>
        <time>2024-08-25T15:10:29Z</time>
      </trkpt>
      <trkpt lat="49.0132" lon="7.86091">
        <ele>445.4</ele>
        <time>2024-08-25T15:10:30Z</time>
      </trkpt>
      <trkpt lat="49.01318" lon="7.86095">
        <ele>445.4</ele>
        <time>2024-08-25T15:10:31Z</time>
      </trkpt>
      <trkpt lat="49.01315" lon="7.861">
        <ele>445.4</ele>
        <time>2024-08-25T15:10:32Z</time>
      </trkpt>
      <trkpt lat="49.01313" lon="7.86105">
        <ele>445.6</ele>
        <time>2024-08-25T15:10:33Z</time>
      </trkpt>
      <trkpt lat="49.01311" lon="7.8611">
        <ele>445.6</ele>
        <time>2024-08-25T15:10:34Z</time>
      </trkpt>
      <trkpt lat="49.01309" lon="7.86115">
        <ele>445.6</ele>
        <time>2024-08-25T15:10:35Z</time>
      </trkpt>
      <trkpt lat="49.01307" lon="7.8612">
        <ele>445.8</ele>
        <time>2024-08-25T15:10:36Z</time>
      </trkpt>
      <trkpt lat="49.01305" lon="7.86124">
        <ele>445.8</ele>
        <time>2024-08-25T15:10:37Z</time>
      </trkpt>
      <trkpt lat="49.01303" lon="7.86128">
        <ele>445.8</ele>
        <time>2024-08-25T15:10:38Z</time>
      </trkpt>
      <trkpt lat="49.01302" lon="7.86133">
        <ele>446</ele>
        <time>2024-08-25T15:10:39Z</time>
      </trkpt>
      <trkpt lat="49.013" lon="7.86137">
        <ele>446.4</ele>
        <time>2024-08-25T15:10:40Z</time>
      </trkpt>
      <trkpt lat="49.01299" lon="7.86141">
        <ele>446.4</ele>
        <time>2024-08-25T15:10:41Z</time>
      </trkpt>
      <trkpt lat="49.01297" lon="7.86146">
        <ele>446.4</ele>
        <time>2024-08-25T15:10:42Z</time>
      </trkpt>
      <trkpt lat="49.01296" lon="7.86151">
        <ele>446.6</ele>
        <time>2024-08-25T15:10:43Z</time>
      </trkpt>
      <trkpt lat="49.01294" lon="7.86156">
        <ele>446.6</ele>
        <time>2024-08-25T15:10:44Z</time>
      </trkpt>
      <trkpt lat="49.01292" lon="7.86161">
        <ele>446.8</ele>
        <time>2024-08-25T15:10:45Z</time>
      </trkpt>
      <trkpt lat="49.01291" lon="7.86166">
        <ele>446.8</ele>
        <time>2024-08-25T15:10:46Z</time>
      </trkpt>
      <trkpt lat="49.01289" lon="7.86171">
        <ele>447</ele>
        <time>2024-08-25T15:10:47Z</time>
      </trkpt>
      <trkpt lat="49.01288" lon="7.86176">
        <ele>447.2</ele>
        <time>2024-08-25T15:10:48Z</time>
      </trkpt>
      <trkpt lat="49.01287" lon="7.86181">
        <ele>447.4</ele>
        <time>2024-08-25T15:10:49Z</time>
      </trkpt>
      <trkpt lat="49.01286" lon="7.86186">
        <ele>447.4</ele>
        <time>2024-08-25T15:10:50Z</time>
      </trkpt>
      <trkpt lat="49.01285" lon="7.8619">
        <ele>447.6</ele>
        <time>2024-08-25T15:10:51Z</time>
      </trkpt>
      <trkpt lat="49.01283" lon="7.86195">
        <ele>447.8</ele>
        <time>2024-08-25T15:10:52Z</time>
      </trkpt>
      <trkpt lat="49.01282" lon="7.862">
        <ele>448</ele>
        <time>2024-08-25T15:10:53Z</time>
      </trkpt>
      <trkpt lat="49.01281" lon="7.86206">
        <ele>448</ele>
        <time>2024-08-25T15:10:54Z</time>
      </trkpt>
      <trkpt lat="49.01279" lon="7.86211">
        <ele>448.2</ele>
        <time>2024-08-25T15:10:55Z</time>
      </trkpt>
      <trkpt lat="49.01277" lon="7.86216">
        <ele>448.2</ele>
        <time>2024-08-25T15:10:56Z</time>
      </trkpt>
      <trkpt lat="49.01276" lon="7.86221">
        <ele>448.4</ele>
        <time>2024-08-25T15:10:57Z</time>
      </trkpt>
      <trkpt lat="49.01275" lon="7.86226">
        <ele>448.4</ele>
        <time>2024-08-25T15:10:58Z</time>
      </trkpt>
      <trkpt lat="49.01273" lon="7.86231">
        <ele>448.6</ele>
        <time>2024-08-25T15:10:59Z</time>
      </trkpt>
      <trkpt lat="49.01272" lon="7.86236">
        <ele>448.8</ele>
        <time>2024-08-25T15:11:00Z</time>
      </trkpt>
      <trkpt lat="49.0127" lon="7.86242">
        <ele>448.8</ele>
        <time>2024-08-25T15:11:01Z</time>
      </trkpt>
      <trkpt lat="49.01269" lon="7.86246">
        <ele>449</ele>
        <time>2024-08-25T15:11:02Z</time>
      </trkpt>
      <trkpt lat="49.01268" lon="7.86252">
        <ele>449</ele>
        <time>2024-08-25T15:11:03Z</time>
      </trkpt>
      <trkpt lat="49.01267" lon="7.86258">
        <ele>449</ele>
        <time>2024-08-25T15:11:04Z</time>
      </trkpt>
      <trkpt lat="49.01266" lon="7.86262">
        <ele>449.2</ele>
        <time>2024-08-25T15:11:05Z</time>
      </trkpt>
      <trkpt lat="49.01264" lon="7.86267">
        <ele>449.4</ele>
        <time>2024-08-25T15:11:06Z</time>
      </trkpt>
      <trkpt lat="49.01262" lon="7.86272">
        <ele>449.6</ele>
        <time>2024-08-25T15:11:07Z</time>
      </trkpt>
      <trkpt lat="49.01261" lon="7.86277">
        <ele>449.8</ele>
        <time>2024-08-25T15:11:08Z</time>
      </trkpt>
      <trkpt lat="49.0126" lon="7.86282">
        <ele>450</ele>
        <time>2024-08-25T15:11:09Z</time>
      </trkpt>
      <trkpt lat="49.01259" lon="7.86287">
        <ele>450.2</ele>
        <time>2024-08-25T15:11:10Z</time>
      </trkpt>
      <trkpt lat="49.01257" lon="7.86291">
        <ele>450.4</ele>
        <time>2024-08-25T15:11:11Z</time>
      </trkpt>
      <trkpt lat="49.01256" lon="7.86296">
        <ele>450.6</ele>
        <time>2024-08-25T15:11:12Z</time>
      </trkpt>
      <trkpt lat="49.01255" lon="7.863">
        <ele>450.8</ele>
        <time>2024-08-25T15:11:13Z</time>
      </trkpt>
      <trkpt lat="49.01254" lon="7.86304">
        <ele>450.8</ele>
        <time>2024-08-25T15:11:14Z</time>
      </trkpt>
      <trkpt lat="49.01253" lon="7.86309">
        <ele>451</ele>
        <time>2024-08-25T15:11:15Z</time>
      </trkpt>
      <trkpt lat="49.01251" lon="7.86312">
        <ele>451.2</ele>
        <time>2024-08-25T15:11:16Z</time>
      </trkpt>
      <trkpt lat="49.0125" lon="7.86316">
        <ele>451.4</ele>
        <time>2024-08-25T15:11:17Z</time>
      </trkpt>
      <trkpt lat="49.01249" lon="7.8632">
        <ele>451.6</ele>
        <time>2024-08-25T15:11:18Z</time>
      </trkpt>
      <trkpt lat="49.01248" lon="7.86323">
        <ele>451.8</ele>
        <time>2024-08-25T15:11:19Z</time>
      </trkpt>
      <trkpt lat="49.01246" lon="7.86327">
        <ele>451.8</ele>
        <time>2024-08-25T15:11:20Z</time>
      </trkpt>
      <trkpt lat="49.01245" lon="7.86331">
        <ele>452</ele>
        <time>2024-08-25T15:11:21Z</time>
      </trkpt>
      <trkpt lat="49.01244" lon="7.86335">
        <ele>452</ele>
        <time>2024-08-25T15:11:22Z</time>
      </trkpt>
      <trkpt lat="49.01243" lon="7.86339">
        <ele>452.2</ele>
        <time>2024-08-25T15:11:23Z</time>
      </trkpt>
      <trkpt lat="49.01242" lon="7.86344">
        <ele>452.6</ele>
        <time>2024-08-25T15:11:24Z</time>
      </trkpt>
      <trkpt lat="49.01241" lon="7.86348">
        <ele>452.6</ele>
        <time>2024-08-25T15:11:25Z</time>
      </trkpt>
      <trkpt lat="49.0124" lon="7.86351">
        <ele>452.8</ele>
        <time>2024-08-25T15:11:26Z</time>
      </trkpt>
      <trkpt lat="49.0124" lon="7.86356">
        <ele>453.2</ele>
        <time>2024-08-25T15:11:27Z</time>
      </trkpt>
      <trkpt lat="49.01238" lon="7.8636">
        <ele>453.2</ele>
        <time>2024-08-25T15:11:28Z</time>
      </trkpt>
      <trkpt lat="49.01237" lon="7.86363">
        <ele>453.4</ele>
        <time>2024-08-25T15:11:29Z</time>
      </trkpt>
      <trkpt lat="49.01237" lon="7.86367">
        <ele>453.6</ele>
        <time>2024-08-25T15:11:30Z</time>
      </trkpt>
      <trkpt lat="49.01235" lon="7.8637">
        <ele>453.8</ele>
        <time>2024-08-25T15:11:31Z</time>
      </trkpt>
      <trkpt lat="49.01234" lon="7.86373">
        <ele>454</ele>
        <time>2024-08-25T15:11:32Z</time>
      </trkpt>
      <trkpt lat="49.01232" lon="7.86376">
        <ele>454</ele>
        <time>2024-08-25T15:11:33Z</time>
      </trkpt>
      <trkpt lat="49.01231" lon="7.86379">
        <ele>454.2</ele>
        <time>2024-08-25T15:11:34Z</time>
      </trkpt>
      <trkpt lat="49.01229" lon="7.86382">
        <ele>454.4</ele>
        <time>2024-08-25T15:11:35Z</time>
      </trkpt>
      <trkpt lat="49.01228" lon="7.86385">
        <ele>454.6</ele>
        <time>2024-08-25T15:11:36Z</time>
      </trkpt>
      <trkpt lat="49.01225" lon="7.86388">
        <ele>454.8</ele>
        <time>2024-08-25T15:11:37Z</time>
      </trkpt>
      <trkpt lat="49.01223" lon="7.86391">
        <ele>455</ele>
        <time>2024-08-25T15:11:38Z</time>
      </trkpt>
      <trkpt lat="49.0122" lon="7.86394">
        <ele>455</ele>
        <time>2024-08-25T15:11:39Z</time>
      </trkpt>
      <trkpt lat="49.01218" lon="7.86396">
        <ele>455.2</ele>
        <time>2024-08-25T15:11:40Z</time>
      </trkpt>
      <trkpt lat="49.01216" lon="7.86399">
        <ele>455.4</ele>
        <time>2024-08-25T15:11:41Z</time>
      </trkpt>
      <trkpt lat="49.01214" lon="7.86402">
        <ele>455.4</ele>
        <time>2024-08-25T15:11:42Z</time>
      </trkpt>
      <trkpt lat="49.01211" lon="7.86405">
        <ele>455.4</ele>
        <time>2024-08-25T15:11:43Z</time>
      </trkpt>
      <trkpt lat="49.01208" lon="7.86407">
        <ele>455.6</ele>
        <time>2024-08-25T15:11:44Z</time>
      </trkpt>
      <trkpt lat="49.01205" lon="7.86408">
        <ele>455.8</ele>
        <time>2024-08-25T15:11:45Z</time>
      </trkpt>
      <trkpt lat="49.01202" lon="7.8641">
        <ele>456</ele>
        <time>2024-08-25T15:11:46Z</time>
      </trkpt>
      <trkpt lat="49.01199" lon="7.86411">
        <ele>456.2</ele>
        <time>2024-08-25T15:11:47Z</time>
      </trkpt>
      <trkpt lat="49.01196" lon="7.8641">
        <ele>456.4</ele>
        <time>2024-08-25T15:11:48Z</time>
      </trkpt>
      <trkpt lat="49.01193" lon="7.86409">
        <ele>456.4</ele>
        <time>2024-08-25T15:11:49Z</time>
      </trkpt>
      <trkpt lat="49.0119" lon="7.86408">
        <ele>456.4</ele>
        <time>2024-08-25T15:11:50Z</time>
      </trkpt>
      <trkpt lat="49.01188" lon="7.86405">
        <ele>456.6</ele>
        <time>2024-08-25T15:11:51Z</time>
      </trkpt>
      <trkpt lat="49.01184" lon="7.86401">
        <ele>456.6</ele>
        <time>2024-08-25T15:11:52Z</time>
      </trkpt>
      <trkpt lat="49.01181" lon="7.86399">
        <ele>456.6</ele>
        <time>2024-08-25T15:11:53Z</time>
      </trkpt>
      <trkpt lat="49.01178" lon="7.86397">
        <ele>456.6</ele>
        <time>2024-08-25T15:11:54Z</time>
      </trkpt>
      <trkpt lat="49.01175" lon="7.86393">
        <ele>456.6</ele>
        <time>2024-08-25T15:11:55Z</time>
      </trkpt>
      <trkpt lat="49.01173" lon="7.8639">
        <ele>456.6</ele>
        <time>2024-08-25T15:11:56Z</time>
      </trkpt>
      <trkpt lat="49.0117" lon="7.86386">
        <ele>456.6</ele>
        <time>2024-08-25T15:11:57Z</time>
      </trkpt>
      <trkpt lat="49.01169" lon="7.86381">
        <ele>456.6</ele>
        <time>2024-08-25T15:11:58Z</time>
      </trkpt>
      <trkpt lat="49.01167" lon="7.86376">
        <ele>456.6</ele>
        <time>2024-08-25T15:11:59Z</time>
      </trkpt>
      <trkpt lat="49.01165" lon="7.86371">
        <ele>456.6</ele>
        <time>2024-08-25T15:12:00Z</time>
      </trkpt>
      <trkpt lat="49.01163" lon="7.86366">
        <ele>456.6</ele>
        <time>2024-08-25T15:12:01Z</time>
      </trkpt>
      <trkpt lat="49.01161" lon="7.86361">
        <ele>456.6</ele>
        <time>2024-08-25T15:12:02Z</time>
      </trkpt>
      <trkpt lat="49.0116" lon="7.86356">
        <ele>456.6</ele>
        <time>2024-08-25T15:12:03Z</time>
      </trkpt>
      <trkpt lat="49.01159" lon="7.8635">
        <ele>456.4</ele>
        <time>2024-08-25T15:12:04Z</time>
      </trkpt>
      <trkpt lat="49.01157" lon="7.86345">
        <ele>456.4</ele>
        <time>2024-08-25T15:12:05Z</time>
      </trkpt>
      <trkpt lat="49.01156" lon="7.86339">
        <ele>456.2</ele>
        <time>2024-08-25T15:12:06Z</time>
      </trkpt>
      <trkpt lat="49.01154" lon="7.86334">
        <ele>456.2</ele>
        <time>2024-08-25T15:12:07Z</time>
      </trkpt>
      <trkpt lat="49.01153" lon="7.86328">
        <ele>456.2</ele>
        <time>2024-08-25T15:12:08Z</time>
      </trkpt>
      <trkpt lat="49.01151" lon="7.86322">
        <ele>456.2</ele>
        <time>2024-08-25T15:12:09Z</time>
      </trkpt>
      <trkpt lat="49.0115" lon="7.86316">
        <ele>456</ele>
        <time>2024-08-25T15:12:10Z</time>
      </trkpt>
      <trkpt lat="49.01148" lon="7.8631">
        <ele>455.8</ele>
        <time>2024-08-25T15:12:11Z</time>
      </trkpt>
      <trkpt lat="49.01147" lon="7.86304">
        <ele>455.6</ele>
        <time>2024-08-25T15:12:12Z</time>
      </trkpt>
      <trkpt lat="49.01146" lon="7.86299">
        <ele>455.6</ele>
        <time>2024-08-25T15:12:13Z</time>
      </trkpt>
      <trkpt lat="49.01144" lon="7.86292">
        <ele>455.4</ele>
        <time>2024-08-25T15:12:14Z</time>
      </trkpt>
      <trkpt lat="49.01144" lon="7.86286">
        <ele>455.2</ele>
        <time>2024-08-25T15:12:15Z</time>
      </trkpt>
      <trkpt lat="49.01142" lon="7.8628">
        <ele>455.2</ele>
        <time>2024-08-25T15:12:16Z</time>
      </trkpt>
      <trkpt lat="49.0114" lon="7.86274">
        <ele>455</ele>
        <time>2024-08-25T15:12:17Z</time>
      </trkpt>
      <trkpt lat="49.01139" lon="7.86269">
        <ele>455</ele>
        <time>2024-08-25T15:12:18Z</time>
      </trkpt>
      <trkpt lat="49.01138" lon="7.86263">
        <ele>455</ele>
        <time>2024-08-25T15:12:19Z</time>
      </trkpt>
      <trkpt lat="49.01136" lon="7.86257">
        <ele>454.8</ele>
        <time>2024-08-25T15:12:20Z</time>
      </trkpt>
      <trkpt lat="49.01135" lon="7.8625">
        <ele>454.8</ele>
        <time>2024-08-25T15:12:21Z</time>
      </trkpt>
      <trkpt lat="49.01134" lon="7.86244">
        <ele>454.8</ele>
        <time>2024-08-25T15:12:22Z</time>
      </trkpt>
      <trkpt lat="49.01132" lon="7.86238">
        <ele>454.6</ele>
        <time>2024-08-25T15:12:23Z</time>
      </trkpt>
      <trkpt lat="49.01131" lon="7.86232">
        <ele>454.6</ele>
        <time>2024-08-25T15:12:24Z</time>
      </trkpt>
      <trkpt lat="49.01129" lon="7.86225">
        <ele>454.6</ele>
        <time>2024-08-25T15:12:25Z</time>
      </trkpt>
      <trkpt lat="49.01127" lon="7.86218">
        <ele>454.4</ele>
        <time>2024-08-25T15:12:26Z</time>
      </trkpt>
      <trkpt lat="49.01125" lon="7.86211">
        <ele>454.4</ele>
        <time>2024-08-25T15:12:27Z</time>
      </trkpt>
      <trkpt lat="49.01122" lon="7.86204">
        <ele>454.4</ele>
        <time>2024-08-25T15:12:28Z</time>
      </trkpt>
      <trkpt lat="49.0112" lon="7.86198">
        <ele>454.2</ele>
        <time>2024-08-25T15:12:29Z</time>
      </trkpt>
      <trkpt lat="49.01119" lon="7.86191">
        <ele>454.2</ele>
        <time>2024-08-25T15:12:30Z</time>
      </trkpt>
      <trkpt lat="49.01116" lon="7.86185">
        <ele>454</ele>
        <time>2024-08-25T15:12:31Z</time>
      </trkpt>
      <trkpt lat="49.01114" lon="7.86178">
        <ele>453.8</ele>
        <time>2024-08-25T15:12:32Z</time>
      </trkpt>
      <trkpt lat="49.01111" lon="7.8617">
        <ele>453.8</ele>
        <time>2024-08-25T15:12:33Z</time>
      </trkpt>
      <trkpt lat="49.01109" lon="7.86163">
        <ele>453.6</ele>
        <time>2024-08-25T15:12:34Z</time>
      </trkpt>
      <trkpt lat="49.01106" lon="7.86156">
        <ele>453.4</ele>
        <time>2024-08-25T15:12:35Z</time>
      </trkpt>
      <trkpt lat="49.01103" lon="7.86149">
        <ele>453.2</ele>
        <time>2024-08-25T15:12:36Z</time>
      </trkpt>
      <trkpt lat="49.011" lon="7.86141">
        <ele>453</ele>
        <time>2024-08-25T15:12:37Z</time>
      </trkpt>
      <trkpt lat="49.01097" lon="7.86133">
        <ele>453</ele>
        <time>2024-08-25T15:12:38Z</time>
      </trkpt>
      <trkpt lat="49.01095" lon="7.86127">
        <ele>452.8</ele>
        <time>2024-08-25T15:12:39Z</time>
      </trkpt>
      <trkpt lat="49.01092" lon="7.86121">
        <ele>452.6</ele>
        <time>2024-08-25T15:12:40Z</time>
      </trkpt>
      <trkpt lat="49.01089" lon="7.86115">
        <ele>452.6</ele>
        <time>2024-08-25T15:12:41Z</time>
      </trkpt>
      <trkpt lat="49.01086" lon="7.86109">
        <ele>452.6</ele>
        <time>2024-08-25T15:12:42Z</time>
      </trkpt>
      <trkpt lat="49.01083" lon="7.86103">
        <ele>452.4</ele>
        <time>2024-08-25T15:12:43Z</time>
      </trkpt>
      <trkpt lat="49.0108" lon="7.86097">
        <ele>452.4</ele>
        <time>2024-08-25T15:12:44Z</time>
      </trkpt>
      <trkpt lat="49.01077" lon="7.86092">
        <ele>452.2</ele>
        <time>2024-08-25T15:12:45Z</time>
      </trkpt>
      <trkpt lat="49.01074" lon="7.86086">
        <ele>452.2</ele>
        <time>2024-08-25T15:12:46Z</time>
      </trkpt>
      <trkpt lat="49.01071" lon="7.86082">
        <ele>452.2</ele>
        <time>2024-08-25T15:12:47Z</time>
      </trkpt>
      <trkpt lat="49.01068" lon="7.86078">
        <ele>452.2</ele>
        <time>2024-08-25T15:12:48Z</time>
      </trkpt>
      <trkpt lat="49.01065" lon="7.86074">
        <ele>452.2</ele>
        <time>2024-08-25T15:12:49Z</time>
      </trkpt>
      <trkpt lat="49.01062" lon="7.8607">
        <ele>452.2</ele>
        <time>2024-08-25T15:12:50Z</time>
      </trkpt>
      <trkpt lat="49.01059" lon="7.86067">
        <ele>452.2</ele>
        <time>2024-08-25T15:12:51Z</time>
      </trkpt>
      <trkpt lat="49.01056" lon="7.86062">
        <ele>452.2</ele>
        <time>2024-08-25T15:12:52Z</time>
      </trkpt>
      <trkpt lat="49.01052" lon="7.86059">
        <ele>452.2</ele>
        <time>2024-08-25T15:12:53Z</time>
      </trkpt>
      <trkpt lat="49.01049" lon="7.86054">
        <ele>452.2</ele>
        <time>2024-08-25T15:12:54Z</time>
      </trkpt>
      <trkpt lat="49.01046" lon="7.8605">
        <ele>452.2</ele>
        <time>2024-08-25T15:12:55Z</time>
      </trkpt>
      <trkpt lat="49.01042" lon="7.86046">
        <ele>452.2</ele>
        <time>2024-08-25T15:12:56Z</time>
      </trkpt>
      <trkpt lat="49.0104" lon="7.86041">
        <ele>452.2</ele>
        <time>2024-08-25T15:12:57Z</time>
      </trkpt>
      <trkpt lat="49.01037" lon="7.86036">
        <ele>452.2</ele>
        <time>2024-08-25T15:12:58Z</time>
      </trkpt>
      <trkpt lat="49.01033" lon="7.86032">
        <ele>452.2</ele>
        <time>2024-08-25T15:12:59Z</time>
      </trkpt>
      <trkpt lat="49.0103" lon="7.86028">
        <ele>452.2</ele>
        <time>2024-08-25T15:13:00Z</time>
      </trkpt>
      <trkpt lat="49.01027" lon="7.86023">
        <ele>452.2</ele>
        <time>2024-08-25T15:13:01Z</time>
      </trkpt>
      <trkpt lat="49.01024" lon="7.8602">
        <ele>452.2</ele>
        <time>2024-08-25T15:13:02Z</time>
      </trkpt>
      <trkpt lat="49.01021" lon="7.86016">
        <ele>452.2</ele>
        <time>2024-08-25T15:13:03Z</time>
      </trkpt>
      <trkpt lat="49.01018" lon="7.86012">
        <ele>452.2</ele>
        <time>2024-08-25T15:13:04Z</time>
      </trkpt>
      <trkpt lat="49.01015" lon="7.86008">
        <ele>452.2</ele>
        <time>2024-08-25T15:13:05Z</time>
      </trkpt>
      <trkpt lat="49.01012" lon="7.86004">
        <ele>452.2</ele>
        <time>2024-08-25T15:13:06Z</time>
      </trkpt>
      <trkpt lat="49.01009" lon="7.86">
        <ele>452.2</ele>
        <time>2024-08-25T15:13:07Z</time>
      </trkpt>
      <trkpt lat="49.01006" lon="7.85996">
        <ele>452</ele>
        <time>2024-08-25T15:13:08Z</time>
      </trkpt>
      <trkpt lat="49.01003" lon="7.85992">
        <ele>451.8</ele>
        <time>2024-08-25T15:13:09Z</time>
      </trkpt>
      <trkpt lat="49.01" lon="7.85988">
        <ele>451.8</ele>
        <time>2024-08-25T15:13:10Z</time>
      </trkpt>
      <trkpt lat="49.00997" lon="7.85985">
        <ele>451.6</ele>
        <time>2024-08-25T15:13:11Z</time>
      </trkpt>
      <trkpt lat="49.00994" lon="7.85982">
        <ele>451.4</ele>
        <time>2024-08-25T15:13:12Z</time>
      </trkpt>
      <trkpt lat="49.00991" lon="7.85979">
        <ele>451.2</ele>
        <time>2024-08-25T15:13:13Z</time>
      </trkpt>
      <trkpt lat="49.00988" lon="7.85976">
        <ele>451.2</ele>
        <time>2024-08-25T15:13:14Z</time>
      </trkpt>
      <trkpt lat="49.00984" lon="7.85972">
        <ele>451</ele>
        <time>2024-08-25T15:13:15Z</time>
      </trkpt>
      <trkpt lat="49.0098" lon="7.85969">
        <ele>450.8</ele>
        <time>2024-08-25T15:13:16Z</time>
      </trkpt>
      <trkpt lat="49.00976" lon="7.85966">
        <ele>450.6</ele>
        <time>2024-08-25T15:13:17Z</time>
      </trkpt>
      <trkpt lat="49.00972" lon="7.85962">
        <ele>450.6</ele>
        <time>2024-08-25T15:13:18Z</time>
      </trkpt>
      <trkpt lat="49.00967" lon="7.85959">
        <ele>450.2</ele>
        <time>2024-08-25T15:13:19Z</time>
      </trkpt>
      <trkpt lat="49.00963" lon="7.85956">
        <ele>450</ele>
        <time>2024-08-25T15:13:20Z</time>
      </trkpt>
      <trkpt lat="49.00959" lon="7.85953">
        <ele>449.8</ele>
        <time>2024-08-25T15:13:21Z</time>
      </trkpt>
      <trkpt lat="49.00954" lon="7.8595">
        <ele>449.4</ele>
        <time>2024-08-25T15:13:22Z</time>
      </trkpt>
      <trkpt lat="49.00949" lon="7.85947">
        <ele>449.2</ele>
        <time>2024-08-25T15:13:23Z</time>
      </trkpt>
      <trkpt lat="49.00945" lon="7.85944">
        <ele>448.8</ele>
        <time>2024-08-25T15:13:24Z</time>
      </trkpt>
      <trkpt lat="49.00941" lon="7.85942">
        <ele>448.6</ele>
        <time>2024-08-25T15:13:25Z</time>
      </trkpt>
      <trkpt lat="49.00936" lon="7.85939">
        <ele>448.4</ele>
        <time>2024-08-25T15:13:26Z</time>
      </trkpt>
      <trkpt lat="49.00932" lon="7.85936">
        <ele>448.2</ele>
        <time>2024-08-25T15:13:27Z</time>
      </trkpt>
      <trkpt lat="49.00929" lon="7.85933">
        <ele>448</ele>
        <time>2024-08-25T15:13:28Z</time>
      </trkpt>
      <trkpt lat="49.00925" lon="7.8593">
        <ele>448</ele>
        <time>2024-08-25T15:13:29Z</time>
      </trkpt>
      <trkpt lat="49.00921" lon="7.85928">
        <ele>447.8</ele>
        <time>2024-08-25T15:13:30Z</time>
      </trkpt>
      <trkpt lat="49.00917" lon="7.85926">
        <ele>447.8</ele>
        <time>2024-08-25T15:13:31Z</time>
      </trkpt>
      <trkpt lat="49.00913" lon="7.85924">
        <ele>447.8</ele>
        <time>2024-08-25T15:13:32Z</time>
      </trkpt>
      <trkpt lat="49.00909" lon="7.85921">
        <ele>447.8</ele>
        <time>2024-08-25T15:13:33Z</time>
      </trkpt>
      <trkpt lat="49.00906" lon="7.85918">
        <ele>447.8</ele>
        <time>2024-08-25T15:13:34Z</time>
      </trkpt>
      <trkpt lat="49.00903" lon="7.85916">
        <ele>447.8</ele>
        <time>2024-08-25T15:13:35Z</time>
      </trkpt>
      <trkpt lat="49.00899" lon="7.85913">
        <ele>447.8</ele>
        <time>2024-08-25T15:13:36Z</time>
      </trkpt>
      <trkpt lat="49.00896" lon="7.85912">
        <ele>447.8</ele>
        <time>2024-08-25T15:13:37Z</time>
      </trkpt>
      <trkpt lat="49.00893" lon="7.85909">
        <ele>447.8</ele>
        <time>2024-08-25T15:13:38Z</time>
      </trkpt>
      <trkpt lat="49.00889" lon="7.85906">
        <ele>447.8</ele>
        <time>2024-08-25T15:13:39Z</time>
      </trkpt>
      <trkpt lat="49.00886" lon="7.85905">
        <ele>447.8</ele>
        <time>2024-08-25T15:13:40Z</time>
      </trkpt>
      <trkpt lat="49.00882" lon="7.85902">
        <ele>447.6</ele>
        <time>2024-08-25T15:13:41Z</time>
      </trkpt>
      <trkpt lat="49.00878" lon="7.859">
        <ele>447.6</ele>
        <time>2024-08-25T15:13:42Z</time>
      </trkpt>
      <trkpt lat="49.00874" lon="7.85897">
        <ele>447.6</ele>
        <time>2024-08-25T15:13:43Z</time>
      </trkpt>
      <trkpt lat="49.00871" lon="7.85897">
        <ele>447.6</ele>
        <time>2024-08-25T15:13:44Z</time>
      </trkpt>
      <trkpt lat="49.00867" lon="7.85896">
        <ele>447.4</ele>
        <time>2024-08-25T15:13:45Z</time>
      </trkpt>
      <trkpt lat="49.00863" lon="7.85895">
        <ele>447.2</ele>
        <time>2024-08-25T15:13:46Z</time>
      </trkpt>
      <trkpt lat="49.00859" lon="7.85894">
        <ele>447</ele>
        <time>2024-08-25T15:13:47Z</time>
      </trkpt>
      <trkpt lat="49.00855" lon="7.85894">
        <ele>446.8</ele>
        <time>2024-08-25T15:13:48Z</time>
      </trkpt>
      <trkpt lat="49.00852" lon="7.85892">
        <ele>446.6</ele>
        <time>2024-08-25T15:13:49Z</time>
      </trkpt>
      <trkpt lat="49.00849" lon="7.8589">
        <ele>446.4</ele>
        <time>2024-08-25T15:13:50Z</time>
      </trkpt>
      <trkpt lat="49.00846" lon="7.85887">
        <ele>446</ele>
        <time>2024-08-25T15:13:51Z</time>
      </trkpt>
      <trkpt lat="49.00845" lon="7.85883">
        <ele>445.8</ele>
        <time>2024-08-25T15:13:52Z</time>
      </trkpt>
      <trkpt lat="49.00844" lon="7.8588">
        <ele>445.6</ele>
        <time>2024-08-25T15:13:53Z</time>
      </trkpt>
      <trkpt lat="49.00845" lon="7.85875">
        <ele>445.4</ele>
        <time>2024-08-25T15:13:54Z</time>
      </trkpt>
      <trkpt lat="49.00846" lon="7.85871">
        <ele>445</ele>
        <time>2024-08-25T15:13:55Z</time>
      </trkpt>
      <trkpt lat="49.00847" lon="7.85867">
        <ele>444.8</ele>
        <time>2024-08-25T15:13:56Z</time>
      </trkpt>
      <trkpt lat="49.00849" lon="7.85863">
        <ele>444.6</ele>
        <time>2024-08-25T15:13:57Z</time>
      </trkpt>
      <trkpt lat="49.00851" lon="7.85859">
        <ele>444.4</ele>
        <time>2024-08-25T15:13:58Z</time>
      </trkpt>
      <trkpt lat="49.00853" lon="7.85856">
        <ele>444.2</ele>
        <time>2024-08-25T15:13:59Z</time>
      </trkpt>
      <trkpt lat="49.00855" lon="7.85853">
        <ele>444</ele>
        <time>2024-08-25T15:14:00Z</time>
      </trkpt>
      <trkpt lat="49.00858" lon="7.85851">
        <ele>443.8</ele>
        <time>2024-08-25T15:14:01Z</time>
      </trkpt>
      <trkpt lat="49.00861" lon="7.85849">
        <ele>443.6</ele>
        <time>2024-08-25T15:14:02Z</time>
      </trkpt>
      <trkpt lat="49.00865" lon="7.85846">
        <ele>443.2</ele>
        <time>2024-08-25T15:14:03Z</time>
      </trkpt>
      <trkpt lat="49.00868" lon="7.85844">
        <ele>443</ele>
        <time>2024-08-25T15:14:04Z</time>
      </trkpt>
      <trkpt lat="49.00871" lon="7.85842">
        <ele>442.8</ele>
        <time>2024-08-25T15:14:05Z</time>
      </trkpt>
      <trkpt lat="49.00874" lon="7.85841">
        <ele>442.4</ele>
        <time>2024-08-25T15:14:06Z</time>
      </trkpt>
      <trkpt lat="49.00878" lon="7.85841">
        <ele>442.2</ele>
        <time>2024-08-25T15:14:07Z</time>
      </trkpt>
      <trkpt lat="49.00882" lon="7.85841">
        <ele>441.8</ele>
        <time>2024-08-25T15:14:08Z</time>
      </trkpt>
      <trkpt lat="49.00886" lon="7.85839">
        <ele>441.6</ele>
        <time>2024-08-25T15:14:09Z</time>
      </trkpt>
      <trkpt lat="49.0089" lon="7.85839">
        <ele>441.4</ele>
        <time>2024-08-25T15:14:10Z</time>
      </trkpt>
      <trkpt lat="49.00894" lon="7.8584">
        <ele>441.2</ele>
        <time>2024-08-25T15:14:11Z</time>
      </trkpt>
      <trkpt lat="49.00897" lon="7.8584">
        <ele>441</ele>
        <time>2024-08-25T15:14:12Z</time>
      </trkpt>
      <trkpt lat="49.00901" lon="7.8584">
        <ele>440.8</ele>
        <time>2024-08-25T15:14:13Z</time>
      </trkpt>
      <trkpt lat="49.00905" lon="7.85839">
        <ele>440.6</ele>
        <time>2024-08-25T15:14:14Z</time>
      </trkpt>
      <trkpt lat="49.00909" lon="7.85838">
        <ele>440.4</ele>
        <time>2024-08-25T15:14:15Z</time>
      </trkpt>
      <trkpt lat="49.00913" lon="7.85838">
        <ele>440.2</ele>
        <time>2024-08-25T15:14:16Z</time>
      </trkpt>
      <trkpt lat="49.00917" lon="7.85839">
        <ele>440</ele>
        <time>2024-08-25T15:14:17Z</time>
      </trkpt>
      <trkpt lat="49.0092" lon="7.8584">
        <ele>439.8</ele>
        <time>2024-08-25T15:14:18Z</time>
      </trkpt>
      <trkpt lat="49.00924" lon="7.85841">
        <ele>439.4</ele>
        <time>2024-08-25T15:14:19Z</time>
      </trkpt>
      <trkpt lat="49.00928" lon="7.85841">
        <ele>439.2</ele>
        <time>2024-08-25T15:14:20Z</time>
      </trkpt>
      <trkpt lat="49.00932" lon="7.85842">
        <ele>439</ele>
        <time>2024-08-25T15:14:21Z</time>
      </trkpt>
      <trkpt lat="49.00935" lon="7.85843">
        <ele>438.6</ele>
        <time>2024-08-25T15:14:22Z</time>
      </trkpt>
      <trkpt lat="49.00938" lon="7.85845">
        <ele>438.4</ele>
        <time>2024-08-25T15:14:23Z</time>
      </trkpt>
      <trkpt lat="49.00942" lon="7.85846">
        <ele>438</ele>
        <time>2024-08-25T15:14:24Z</time>
      </trkpt>
      <trkpt lat="49.00946" lon="7.85848">
        <ele>437.6</ele>
        <time>2024-08-25T15:14:25Z</time>
      </trkpt>
      <trkpt lat="49.0095" lon="7.85849">
        <ele>437.4</ele>
        <time>2024-08-25T15:14:26Z</time>
      </trkpt>
      <trkpt lat="49.00953" lon="7.8585">
        <ele>437</ele>
        <time>2024-08-25T15:14:27Z</time>
      </trkpt>
      <trkpt lat="49.00957" lon="7.8585">
        <ele>436.8</ele>
        <time>2024-08-25T15:14:28Z</time>
      </trkpt>
      <trkpt lat="49.00961" lon="7.85851">
        <ele>436.4</ele>
        <time>2024-08-25T15:14:29Z</time>
      </trkpt>
      <trkpt lat="49.00964" lon="7.85852">
        <ele>436.2</ele>
        <time>2024-08-25T15:14:30Z</time>
      </trkpt>
      <trkpt lat="49.00968" lon="7.85852">
        <ele>435.8</ele>
        <time>2024-08-25T15:14:31Z</time>
      </trkpt>
      <trkpt lat="49.00971" lon="7.85852">
        <ele>435.6</ele>
        <time>2024-08-25T15:14:32Z</time>
      </trkpt>
      <trkpt lat="49.00975" lon="7.85852">
        <ele>435.4</ele>
        <time>2024-08-25T15:14:33Z</time>
      </trkpt>
      <trkpt lat="49.0098" lon="7.85853">
        <ele>435</ele>
        <time>2024-08-25T15:14:34Z</time>
      </trkpt>
      <trkpt lat="49.00984" lon="7.85854">
        <ele>434.6</ele>
        <time>2024-08-25T15:14:35Z</time>
      </trkpt>
      <trkpt lat="49.00989" lon="7.85855">
        <ele>434.4</ele>
        <time>2024-08-25T15:14:36Z</time>
      </trkpt>
      <trkpt lat="49.00993" lon="7.85855">
        <ele>434.2</ele>
        <time>2024-08-25T15:14:37Z</time>
      </trkpt>
      <trkpt lat="49.00997" lon="7.85855">
        <ele>433.8</ele>
        <time>2024-08-25T15:14:38Z</time>
      </trkpt>
      <trkpt lat="49.01001" lon="7.85857">
        <ele>433.4</ele>
        <time>2024-08-25T15:14:39Z</time>
      </trkpt>
      <trkpt lat="49.01006" lon="7.85857">
        <ele>433.2</ele>
        <time>2024-08-25T15:14:40Z</time>
      </trkpt>
      <trkpt lat="49.01011" lon="7.85858">
        <ele>433</ele>
        <time>2024-08-25T15:14:41Z</time>
      </trkpt>
      <trkpt lat="49.01015" lon="7.85859">
        <ele>432.8</ele>
        <time>2024-08-25T15:14:42Z</time>
      </trkpt>
      <trkpt lat="49.01019" lon="7.8586">
        <ele>432.6</ele>
        <time>2024-08-25T15:14:43Z</time>
      </trkpt>
      <trkpt lat="49.01022" lon="7.85861">
        <ele>432.2</ele>
        <time>2024-08-25T15:14:44Z</time>
      </trkpt>
      <trkpt lat="49.01027" lon="7.85862">
        <ele>432</ele>
        <time>2024-08-25T15:14:45Z</time>
      </trkpt>
      <trkpt lat="49.01031" lon="7.85863">
        <ele>431.8</ele>
        <time>2024-08-25T15:14:46Z</time>
      </trkpt>
      <trkpt lat="49.01035" lon="7.85865">
        <ele>431.6</ele>
        <time>2024-08-25T15:14:47Z</time>
      </trkpt>
      <trkpt lat="49.0104" lon="7.85869">
        <ele>431.2</ele>
        <time>2024-08-25T15:14:48Z</time>
      </trkpt>
      <trkpt lat="49.01044" lon="7.85872">
        <ele>431</ele>
        <time>2024-08-25T15:14:49Z</time>
      </trkpt>
      <trkpt lat="49.01047" lon="7.85875">
        <ele>430.8</ele>
        <time>2024-08-25T15:14:50Z</time>
      </trkpt>
      <trkpt lat="49.01051" lon="7.85877">
        <ele>430.4</ele>
        <time>2024-08-25T15:14:51Z</time>
      </trkpt>
      <trkpt lat="49.01055" lon="7.85881">
        <ele>430</ele>
        <time>2024-08-25T15:14:52Z</time>
      </trkpt>
      <trkpt lat="49.01059" lon="7.85884">
        <ele>429.8</ele>
        <time>2024-08-25T15:14:53Z</time>
      </trkpt>
      <trkpt lat="49.01063" lon="7.85888">
        <ele>429.6</ele>
        <time>2024-08-25T15:14:54Z</time>
      </trkpt>
      <trkpt lat="49.01067" lon="7.85892">
        <ele>429.4</ele>
        <time>2024-08-25T15:14:55Z</time>
      </trkpt>
      <trkpt lat="49.01071" lon="7.85896">
        <ele>429.2</ele>
        <time>2024-08-25T15:14:56Z</time>
      </trkpt>
      <trkpt lat="49.01075" lon="7.85901">
        <ele>429</ele>
        <time>2024-08-25T15:14:57Z</time>
      </trkpt>
      <trkpt lat="49.01079" lon="7.85906">
        <ele>428.6</ele>
        <time>2024-08-25T15:14:58Z</time>
      </trkpt>
      <trkpt lat="49.01083" lon="7.8591">
        <ele>428.4</ele>
        <time>2024-08-25T15:14:59Z</time>
      </trkpt>
      <trkpt lat="49.01087" lon="7.85916">
        <ele>428.2</ele>
        <time>2024-08-25T15:15:00Z</time>
      </trkpt>
      <trkpt lat="49.0109" lon="7.85921">
        <ele>427.8</ele>
        <time>2024-08-25T15:15:01Z</time>
      </trkpt>
      <trkpt lat="49.01094" lon="7.85926">
        <ele>427.6</ele>
        <time>2024-08-25T15:15:02Z</time>
      </trkpt>
      <trkpt lat="49.01098" lon="7.85931">
        <ele>427.4</ele>
        <time>2024-08-25T15:15:03Z</time>
      </trkpt>
      <trkpt lat="49.01102" lon="7.85935">
        <ele>427.4</ele>
        <time>2024-08-25T15:15:04Z</time>
      </trkpt>
      <trkpt lat="49.01106" lon="7.85939">
        <ele>427.2</ele>
        <time>2024-08-25T15:15:05Z</time>
      </trkpt>
      <trkpt lat="49.01109" lon="7.85943">
        <ele>426.8</ele>
        <time>2024-08-25T15:15:06Z</time>
      </trkpt>
      <trkpt lat="49.01113" lon="7.85948">
        <ele>426.6</ele>
        <time>2024-08-25T15:15:07Z</time>
      </trkpt>
      <trkpt lat="49.01117" lon="7.85952">
        <ele>426.4</ele>
        <time>2024-08-25T15:15:08Z</time>
      </trkpt>
      <trkpt lat="49.01121" lon="7.85957">
        <ele>426.2</ele>
        <time>2024-08-25T15:15:09Z</time>
      </trkpt>
      <trkpt lat="49.01125" lon="7.85962">
        <ele>426</ele>
        <time>2024-08-25T15:15:10Z</time>
      </trkpt>
      <trkpt lat="49.01128" lon="7.85967">
        <ele>425.8</ele>
        <time>2024-08-25T15:15:11Z</time>
      </trkpt>
      <trkpt lat="49.01132" lon="7.85972">
        <ele>425.6</ele>
        <time>2024-08-25T15:15:12Z</time>
      </trkpt>
      <trkpt lat="49.01136" lon="7.85979">
        <ele>425.2</ele>
        <time>2024-08-25T15:15:13Z</time>
      </trkpt>
      <trkpt lat="49.0114" lon="7.85985">
        <ele>425</ele>
        <time>2024-08-25T15:15:14Z</time>
      </trkpt>
      <trkpt lat="49.01144" lon="7.85991">
        <ele>424.8</ele>
        <time>2024-08-25T15:15:15Z</time>
      </trkpt>
      <trkpt lat="49.01147" lon="7.85996">
        <ele>424.6</ele>
        <time>2024-08-25T15:15:16Z</time>
      </trkpt>
      <trkpt lat="49.01149" lon="7.86002">
        <ele>424.2</ele>
        <time>2024-08-25T15:15:17Z</time>
      </trkpt>
      <trkpt lat="49.01152" lon="7.86007">
        <ele>424</ele>
        <time>2024-08-25T15:15:18Z</time>
      </trkpt>
      <trkpt lat="49.01154" lon="7.86014">
        <ele>423.8</ele>
        <time>2024-08-25T15:15:19Z</time>
      </trkpt>
      <trkpt lat="49.01158" lon="7.8602">
        <ele>423.6</ele>
        <time>2024-08-25T15:15:20Z</time>
      </trkpt>
      <trkpt lat="49.0116" lon="7.86027">
        <ele>423.6</ele>
        <time>2024-08-25T15:15:21Z</time>
      </trkpt>
      <trkpt lat="49.01163" lon="7.86033">
        <ele>423.4</ele>
        <time>2024-08-25T15:15:22Z</time>
      </trkpt>
      <trkpt lat="49.01165" lon="7.86039">
        <ele>423.2</ele>
        <time>2024-08-25T15:15:23Z</time>
      </trkpt>
      <trkpt lat="49.01167" lon="7.86044">
        <ele>423</ele>
        <time>2024-08-25T15:15:24Z</time>
      </trkpt>
      <trkpt lat="49.0117" lon="7.8605">
        <ele>422.8</ele>
        <time>2024-08-25T15:15:25Z</time>
      </trkpt>
      <trkpt lat="49.01172" lon="7.86056">
        <ele>422.6</ele>
        <time>2024-08-25T15:15:26Z</time>
      </trkpt>
      <trkpt lat="49.01175" lon="7.86062">
        <ele>422.6</ele>
        <time>2024-08-25T15:15:27Z</time>
      </trkpt>
      <trkpt lat="49.01179" lon="7.86068">
        <ele>422.2</ele>
        <time>2024-08-25T15:15:28Z</time>
      </trkpt>
      <trkpt lat="49.01182" lon="7.86074">
        <ele>421.8</ele>
        <time>2024-08-25T15:15:29Z</time>
      </trkpt>
      <trkpt lat="49.01185" lon="7.86079">
        <ele>421.4</ele>
        <time>2024-08-25T15:15:30Z</time>
      </trkpt>
      <trkpt lat="49.01188" lon="7.86084">
        <ele>421.4</ele>
        <time>2024-08-25T15:15:31Z</time>
      </trkpt>
      <trkpt lat="49.01192" lon="7.86088">
        <ele>421.2</ele>
        <time>2024-08-25T15:15:32Z</time>
      </trkpt>
      <trkpt lat="49.01197" lon="7.86091">
        <ele>421</ele>
        <time>2024-08-25T15:15:33Z</time>
      </trkpt>
      <trkpt lat="49.01201" lon="7.86092">
        <ele>420.8</ele>
        <time>2024-08-25T15:15:34Z</time>
      </trkpt>
      <trkpt lat="49.01205" lon="7.86091">
        <ele>420.8</ele>
        <time>2024-08-25T15:15:35Z</time>
      </trkpt>
      <trkpt lat="49.01209" lon="7.86089">
        <ele>420.6</ele>
        <time>2024-08-25T15:15:36Z</time>
      </trkpt>
      <trkpt lat="49.01212" lon="7.86087">
        <ele>420.4</ele>
        <time>2024-08-25T15:15:37Z</time>
      </trkpt>
      <trkpt lat="49.01215" lon="7.86083">
        <ele>420.2</ele>
        <time>2024-08-25T15:15:38Z</time>
      </trkpt>
      <trkpt lat="49.01217" lon="7.86079">
        <ele>420</ele>
        <time>2024-08-25T15:15:39Z</time>
      </trkpt>
      <trkpt lat="49.01219" lon="7.86074">
        <ele>419.8</ele>
        <time>2024-08-25T15:15:40Z</time>
      </trkpt>
      <trkpt lat="49.0122" lon="7.86069">
        <ele>419.6</ele>
        <time>2024-08-25T15:15:41Z</time>
      </trkpt>
      <trkpt lat="49.01221" lon="7.86064">
        <ele>419.4</ele>
        <time>2024-08-25T15:15:42Z</time>
      </trkpt>
      <trkpt lat="49.01223" lon="7.86058">
        <ele>419.2</ele>
        <time>2024-08-25T15:15:43Z</time>
      </trkpt>
      <trkpt lat="49.01224" lon="7.86052">
        <ele>419.2</ele>
        <time>2024-08-25T15:15:44Z</time>
      </trkpt>
      <trkpt lat="49.01226" lon="7.86045">
        <ele>418.8</ele>
        <time>2024-08-25T15:15:45Z</time>
      </trkpt>
      <trkpt lat="49.01229" lon="7.86038">
        <ele>418.4</ele>
        <time>2024-08-25T15:15:46Z</time>
      </trkpt>
      <trkpt lat="49.01231" lon="7.8603">
        <ele>418.2</ele>
        <time>2024-08-25T15:15:47Z</time>
      </trkpt>
      <trkpt lat="49.01233" lon="7.86023">
        <ele>417.8</ele>
        <time>2024-08-25T15:15:48Z</time>
      </trkpt>
      <trkpt lat="49.01235" lon="7.86017">
        <ele>417.6</ele>
        <time>2024-08-25T15:15:49Z</time>
      </trkpt>
      <trkpt lat="49.01237" lon="7.86011">
        <ele>417.4</ele>
        <time>2024-08-25T15:15:50Z</time>
      </trkpt>
      <trkpt lat="49.01239" lon="7.86006">
        <ele>417.2</ele>
        <time>2024-08-25T15:15:51Z</time>
      </trkpt>
      <trkpt lat="49.0124" lon="7.86">
        <ele>417.2</ele>
        <time>2024-08-25T15:15:52Z</time>
      </trkpt>
      <trkpt lat="49.01242" lon="7.85994">
        <ele>417</ele>
        <time>2024-08-25T15:15:53Z</time>
      </trkpt>
      <trkpt lat="49.01243" lon="7.85987">
        <ele>416.8</ele>
        <time>2024-08-25T15:15:54Z</time>
      </trkpt>
      <trkpt lat="49.01245" lon="7.85981">
        <ele>416.8</ele>
        <time>2024-08-25T15:15:55Z</time>
      </trkpt>
      <trkpt lat="49.01247" lon="7.85974">
        <ele>416.8</ele>
        <time>2024-08-25T15:15:56Z</time>
      </trkpt>
      <trkpt lat="49.01249" lon="7.85966">
        <ele>416.8</ele>
        <time>2024-08-25T15:15:57Z</time>
      </trkpt>
      <trkpt lat="49.0125" lon="7.85959">
        <ele>416.6</ele>
        <time>2024-08-25T15:15:58Z</time>
      </trkpt>
      <trkpt lat="49.01251" lon="7.85953">
        <ele>416.6</ele>
        <time>2024-08-25T15:15:59Z</time>
      </trkpt>
      <trkpt lat="49.01253" lon="7.85946">
        <ele>416.4</ele>
        <time>2024-08-25T15:16:00Z</time>
      </trkpt>
      <trkpt lat="49.01254" lon="7.85938">
        <ele>415.8</ele>
        <time>2024-08-25T15:16:01Z</time>
      </trkpt>
      <trkpt lat="49.01256" lon="7.85931">
        <ele>415.4</ele>
        <time>2024-08-25T15:16:02Z</time>
      </trkpt>
      <trkpt lat="49.01258" lon="7.85925">
        <ele>415.4</ele>
        <time>2024-08-25T15:16:03Z</time>
      </trkpt>
      <trkpt lat="49.01259" lon="7.85918">
        <ele>415.2</ele>
        <time>2024-08-25T15:16:04Z</time>
      </trkpt>
      <trkpt lat="49.01262" lon="7.8591">
        <ele>414.6</ele>
        <time>2024-08-25T15:16:05Z</time>
      </trkpt>
      <trkpt lat="49.01263" lon="7.85903">
        <ele>414.4</ele>
        <time>2024-08-25T15:16:06Z</time>
      </trkpt>
      <trkpt lat="49.01266" lon="7.85896">
        <ele>414</ele>
        <time>2024-08-25T15:16:07Z</time>
      </trkpt>
      <trkpt lat="49.01268" lon="7.8589">
        <ele>413.6</ele>
        <time>2024-08-25T15:16:08Z</time>
      </trkpt>
      <trkpt lat="49.01271" lon="7.85884">
        <ele>413.2</ele>
        <time>2024-08-25T15:16:09Z</time>
      </trkpt>
      <trkpt lat="49.01275" lon="7.85879">
        <ele>413</ele>
        <time>2024-08-25T15:16:10Z</time>
      </trkpt>
      <trkpt lat="49.01278" lon="7.85874">
        <ele>412.6</ele>
        <time>2024-08-25T15:16:11Z</time>
      </trkpt>
      <trkpt lat="49.01281" lon="7.8587">
        <ele>412.2</ele>
        <time>2024-08-25T15:16:12Z</time>
      </trkpt>
      <trkpt lat="49.01285" lon="7.85866">
        <ele>411.8</ele>
        <time>2024-08-25T15:16:13Z</time>
      </trkpt>
      <trkpt lat="49.01289" lon="7.85863">
        <ele>411.6</ele>
        <time>2024-08-25T15:16:14Z</time>
      </trkpt>
      <trkpt lat="49.01293" lon="7.8586">
        <ele>411.4</ele>
        <time>2024-08-25T15:16:15Z</time>
      </trkpt>
      <trkpt lat="49.01297" lon="7.85858">
        <ele>411.2</ele>
        <time>2024-08-25T15:16:16Z</time>
      </trkpt>
      <trkpt lat="49.01302" lon="7.85854">
        <ele>410.8</ele>
        <time>2024-08-25T15:16:17Z</time>
      </trkpt>
      <trkpt lat="49.01307" lon="7.85851">
        <ele>410.6</ele>
        <time>2024-08-25T15:16:18Z</time>
      </trkpt>
      <trkpt lat="49.01311" lon="7.85849">
        <ele>410.2</ele>
        <time>2024-08-25T15:16:19Z</time>
      </trkpt>
      <trkpt lat="49.01315" lon="7.85846">
        <ele>410</ele>
        <time>2024-08-25T15:16:20Z</time>
      </trkpt>
      <trkpt lat="49.0132" lon="7.85843">
        <ele>409.6</ele>
        <time>2024-08-25T15:16:21Z</time>
      </trkpt>
      <trkpt lat="49.01325" lon="7.8584">
        <ele>409</ele>
        <time>2024-08-25T15:16:22Z</time>
      </trkpt>
      <trkpt lat="49.01329" lon="7.85837">
        <ele>408.6</ele>
        <time>2024-08-25T15:16:23Z</time>
      </trkpt>
      <trkpt lat="49.01334" lon="7.85835">
        <ele>408.4</ele>
        <time>2024-08-25T15:16:24Z</time>
      </trkpt>
      <trkpt lat="49.01338" lon="7.85832">
        <ele>408</ele>
        <time>2024-08-25T15:16:25Z</time>
      </trkpt>
      <trkpt lat="49.01342" lon="7.85829">
        <ele>407.6</ele>
        <time>2024-08-25T15:16:26Z</time>
      </trkpt>
      <trkpt lat="49.01347" lon="7.85826">
        <ele>407.2</ele>
        <time>2024-08-25T15:16:27Z</time>
      </trkpt>
      <trkpt lat="49.01352" lon="7.85823">
        <ele>406.8</ele>
        <time>2024-08-25T15:16:28Z</time>
      </trkpt>
      <trkpt lat="49.01356" lon="7.8582">
        <ele>406.2</ele>
        <time>2024-08-25T15:16:29Z</time>
      </trkpt>
      <trkpt lat="49.01361" lon="7.85817">
        <ele>405.8</ele>
        <time>2024-08-25T15:16:30Z</time>
      </trkpt>
      <trkpt lat="49.01366" lon="7.85815">
        <ele>405.4</ele>
        <time>2024-08-25T15:16:31Z</time>
      </trkpt>
      <trkpt lat="49.01372" lon="7.85813">
        <ele>405</ele>
        <time>2024-08-25T15:16:32Z</time>
      </trkpt>
      <trkpt lat="49.01376" lon="7.85811">
        <ele>404.6</ele>
        <time>2024-08-25T15:16:33Z</time>
      </trkpt>
      <trkpt lat="49.01381" lon="7.85808">
        <ele>404.2</ele>
        <time>2024-08-25T15:16:34Z</time>
      </trkpt>
      <trkpt lat="49.01386" lon="7.85806">
        <ele>403.8</ele>
        <time>2024-08-25T15:16:35Z</time>
      </trkpt>
      <trkpt lat="49.01391" lon="7.85804">
        <ele>403.4</ele>
        <time>2024-08-25T15:16:36Z</time>
      </trkpt>
      <trkpt lat="49.01396" lon="7.85801">
        <ele>403</ele>
        <time>2024-08-25T15:16:37Z</time>
      </trkpt>
      <trkpt lat="49.01401" lon="7.85799">
        <ele>402.6</ele>
        <time>2024-08-25T15:16:38Z</time>
      </trkpt>
      <trkpt lat="49.01405" lon="7.85796">
        <ele>402.2</ele>
        <time>2024-08-25T15:16:39Z</time>
      </trkpt>
      <trkpt lat="49.0141" lon="7.85793">
        <ele>401.8</ele>
        <time>2024-08-25T15:16:40Z</time>
      </trkpt>
      <trkpt lat="49.01415" lon="7.8579">
        <ele>401.4</ele>
        <time>2024-08-25T15:16:41Z</time>
      </trkpt>
      <trkpt lat="49.0142" lon="7.85786">
        <ele>401.2</ele>
        <time>2024-08-25T15:16:42Z</time>
      </trkpt>
      <trkpt lat="49.01424" lon="7.85781">
        <ele>400.8</ele>
        <time>2024-08-25T15:16:43Z</time>
      </trkpt>
      <trkpt lat="49.01429" lon="7.85776">
        <ele>400.6</ele>
        <time>2024-08-25T15:16:44Z</time>
      </trkpt>
      <trkpt lat="49.01433" lon="7.85771">
        <ele>400.2</ele>
        <time>2024-08-25T15:16:45Z</time>
      </trkpt>
      <trkpt lat="49.01438" lon="7.85765">
        <ele>399.8</ele>
        <time>2024-08-25T15:16:46Z</time>
      </trkpt>
      <trkpt lat="49.01442" lon="7.85758">
        <ele>399.4</ele>
        <time>2024-08-25T15:16:47Z</time>
      </trkpt>
      <trkpt lat="49.01446" lon="7.85752">
        <ele>399</ele>
        <time>2024-08-25T15:16:48Z</time>
      </trkpt>
      <trkpt lat="49.01449" lon="7.85746">
        <ele>398.6</ele>
        <time>2024-08-25T15:16:49Z</time>
      </trkpt>
      <trkpt lat="49.01453" lon="7.85739">
        <ele>398.2</ele>
        <time>2024-08-25T15:16:50Z</time>
      </trkpt>
      <trkpt lat="49.01457" lon="7.85731">
        <ele>397.8</ele>
        <time>2024-08-25T15:16:51Z</time>
      </trkpt>
      <trkpt lat="49.01461" lon="7.85724">
        <ele>397.4</ele>
        <time>2024-08-25T15:16:52Z</time>
      </trkpt>
      <trkpt lat="49.01464" lon="7.85717">
        <ele>397</ele>
        <time>2024-08-25T15:16:53Z</time>
      </trkpt>
      <trkpt lat="49.01468" lon="7.85709">
        <ele>396.4</ele>
        <time>2024-08-25T15:16:54Z</time>
      </trkpt>
      <trkpt lat="49.01472" lon="7.85703">
        <ele>396</ele>
        <time>2024-08-25T15:16:55Z</time>
      </trkpt>
      <trkpt lat="49.01476" lon="7.85696">
        <ele>395.6</ele>
        <time>2024-08-25T15:16:56Z</time>
      </trkpt>
      <trkpt lat="49.01479" lon="7.85689">
        <ele>395.2</ele>
        <time>2024-08-25T15:16:57Z</time>
      </trkpt>
      <trkpt lat="49.01483" lon="7.85683">
        <ele>394.8</ele>
        <time>2024-08-25T15:16:58Z</time>
      </trkpt>
      <trkpt lat="49.01487" lon="7.85677">
        <ele>394.2</ele>
        <time>2024-08-25T15:16:59Z</time>
      </trkpt>
      <trkpt lat="49.01491" lon="7.85671">
        <ele>393.8</ele>
        <time>2024-08-25T15:17:00Z</time>
      </trkpt>
      <trkpt lat="49.01496" lon="7.85664">
        <ele>393.6</ele>
        <time>2024-08-25T15:17:01Z</time>
      </trkpt>
      <trkpt lat="49.015" lon="7.85657">
        <ele>393.2</ele>
        <time>2024-08-25T15:17:02Z</time>
      </trkpt>
      <trkpt lat="49.01503" lon="7.85651">
        <ele>392.8</ele>
        <time>2024-08-25T15:17:03Z</time>
      </trkpt>
      <trkpt lat="49.01507" lon="7.85644">
        <ele>392.2</ele>
        <time>2024-08-25T15:17:04Z</time>
      </trkpt>
      <trkpt lat="49.01511" lon="7.85637">
        <ele>391.8</ele>
        <time>2024-08-25T15:17:05Z</time>
      </trkpt>
      <trkpt lat="49.01515" lon="7.8563">
        <ele>391.6</ele>
        <time>2024-08-25T15:17:06Z</time>
      </trkpt>
      <trkpt lat="49.0152" lon="7.85623">
        <ele>391.2</ele>
        <time>2024-08-25T15:17:07Z</time>
      </trkpt>
      <trkpt lat="49.01524" lon="7.85616">
        <ele>391</ele>
        <time>2024-08-25T15:17:08Z</time>
      </trkpt>
      <trkpt lat="49.01528" lon="7.85609">
        <ele>390.6</ele>
        <time>2024-08-25T15:17:09Z</time>
      </trkpt>
      <trkpt lat="49.01531" lon="7.85601">
        <ele>390.2</ele>
        <time>2024-08-25T15:17:10Z</time>
      </trkpt>
      <trkpt lat="49.01534" lon="7.85593">
        <ele>389.8</ele>
        <time>2024-08-25T15:17:11Z</time>
      </trkpt>
      <trkpt lat="49.01538" lon="7.85585">
        <ele>389.4</ele>
        <time>2024-08-25T15:17:12Z</time>
      </trkpt>
      <trkpt lat="49.01542" lon="7.85577">
        <ele>389.2</ele>
        <time>2024-08-25T15:17:13Z</time>
      </trkpt>
      <trkpt lat="49.01545" lon="7.85569">
        <ele>389</ele>
        <time>2024-08-25T15:17:14Z</time>
      </trkpt>
      <trkpt lat="49.01548" lon="7.8556">
        <ele>388.6</ele>
        <time>2024-08-25T15:17:15Z</time>
      </trkpt>
      <trkpt lat="49.01551" lon="7.85552">
        <ele>388.4</ele>
        <time>2024-08-25T15:17:16Z</time>
      </trkpt>
      <trkpt lat="49.01554" lon="7.85545">
        <ele>388</ele>
        <time>2024-08-25T15:17:17Z</time>
      </trkpt>
      <trkpt lat="49.01556" lon="7.85537">
        <ele>387.8</ele>
        <time>2024-08-25T15:17:18Z</time>
      </trkpt>
      <trkpt lat="49.01558" lon="7.85529">
        <ele>387.6</ele>
        <time>2024-08-25T15:17:19Z</time>
      </trkpt>
      <trkpt lat="49.01561" lon="7.85522">
        <ele>387.4</ele>
        <time>2024-08-25T15:17:20Z</time>
      </trkpt>
      <trkpt lat="49.01563" lon="7.85516">
        <ele>387.4</ele>
        <time>2024-08-25T15:17:21Z</time>
      </trkpt>
      <trkpt lat="49.01565" lon="7.85509">
        <ele>387.2</ele>
        <time>2024-08-25T15:17:22Z</time>
      </trkpt>
      <trkpt lat="49.01567" lon="7.85502">
        <ele>387</ele>
        <time>2024-08-25T15:17:23Z</time>
      </trkpt>
      <trkpt lat="49.0157" lon="7.85494">
        <ele>386.8</ele>
        <time>2024-08-25T15:17:24Z</time>
      </trkpt>
      <trkpt lat="49.01572" lon="7.85486">
        <ele>386.8</ele>
        <time>2024-08-25T15:17:25Z</time>
      </trkpt>
      <trkpt lat="49.01575" lon="7.85479">
        <ele>386.6</ele>
        <time>2024-08-25T15:17:26Z</time>
      </trkpt>
      <trkpt lat="49.01578" lon="7.85472">
        <ele>386.4</ele>
        <time>2024-08-25T15:17:27Z</time>
      </trkpt>
      <trkpt lat="49.01582" lon="7.85465">
        <ele>386.2</ele>
        <time>2024-08-25T15:17:28Z</time>
      </trkpt>
      <trkpt lat="49.01586" lon="7.85459">
        <ele>386</ele>
        <time>2024-08-25T15:17:29Z</time>
      </trkpt>
      <trkpt lat="49.0159" lon="7.85453">
        <ele>385.6</ele>
        <time>2024-08-25T15:17:30Z</time>
      </trkpt>
      <trkpt lat="49.01595" lon="7.85448">
        <ele>385.2</ele>
        <time>2024-08-25T15:17:31Z</time>
      </trkpt>
      <trkpt lat="49.01601" lon="7.85444">
        <ele>384.8</ele>
        <time>2024-08-25T15:17:32Z</time>
      </trkpt>
      <trkpt lat="49.01607" lon="7.85441">
        <ele>384.6</ele>
        <time>2024-08-25T15:17:33Z</time>
      </trkpt>
      <trkpt lat="49.01612" lon="7.85439">
        <ele>384.2</ele>
        <time>2024-08-25T15:17:34Z</time>
      </trkpt>
      <trkpt lat="49.01618" lon="7.85437">
        <ele>383.8</ele>
        <time>2024-08-25T15:17:35Z</time>
      </trkpt>
      <trkpt lat="49.01624" lon="7.85436">
        <ele>383.4</ele>
        <time>2024-08-25T15:17:36Z</time>
      </trkpt>
      <trkpt lat="49.01629" lon="7.85436">
        <ele>383</ele>
        <time>2024-08-25T15:17:37Z</time>
      </trkpt>
      <trkpt lat="49.01635" lon="7.85436">
        <ele>382.4</ele>
        <time>2024-08-25T15:17:38Z</time>
      </trkpt>
      <trkpt lat="49.01639" lon="7.85436">
        <ele>382</ele>
        <time>2024-08-25T15:17:39Z</time>
      </trkpt>
      <trkpt lat="49.01644" lon="7.85436">
        <ele>381.6</ele>
        <time>2024-08-25T15:17:40Z</time>
      </trkpt>
      <trkpt lat="49.01648" lon="7.85436">
        <ele>381.2</ele>
        <time>2024-08-25T15:17:41Z</time>
      </trkpt>
      <trkpt lat="49.01652" lon="7.85437">
        <ele>381</ele>
        <time>2024-08-25T15:17:42Z</time>
      </trkpt>
      <trkpt lat="49.01655" lon="7.85438">
        <ele>380.8</ele>
        <time>2024-08-25T15:17:43Z</time>
      </trkpt>
      <trkpt lat="49.01658" lon="7.85438">
        <ele>380.6</ele>
        <time>2024-08-25T15:17:44Z</time>
      </trkpt>
      <trkpt lat="49.0166" lon="7.85439">
        <ele>380.4</ele>
        <time>2024-08-25T15:17:45Z</time>
      </trkpt>
      <trkpt lat="49.01663" lon="7.85439">
        <ele>380.4</ele>
        <time>2024-08-25T15:17:46Z</time>
      </trkpt>
      <trkpt lat="49.01665" lon="7.85438">
        <ele>380.2</ele>
        <time>2024-08-25T15:17:47Z</time>
      </trkpt>
      <trkpt lat="49.01668" lon="7.85437">
        <ele>380</ele>
        <time>2024-08-25T15:17:48Z</time>
      </trkpt>
      <trkpt lat="49.01672" lon="7.85435">
        <ele>380</ele>
        <time>2024-08-25T15:17:49Z</time>
      </trkpt>
      <trkpt lat="49.01676" lon="7.85433">
        <ele>379.8</ele>
        <time>2024-08-25T15:17:50Z</time>
      </trkpt>
      <trkpt lat="49.01679" lon="7.85432">
        <ele>379.8</ele>
        <time>2024-08-25T15:17:51Z</time>
      </trkpt>
      <trkpt lat="49.01682" lon="7.85431">
        <ele>379.4</ele>
        <time>2024-08-25T15:17:52Z</time>
      </trkpt>
      <trkpt lat="49.01685" lon="7.8543">
        <ele>379.2</ele>
        <time>2024-08-25T15:17:53Z</time>
      </trkpt>
      <trkpt lat="49.01689" lon="7.85427">
        <ele>379</ele>
        <time>2024-08-25T15:17:54Z</time>
      </trkpt>
      <trkpt lat="49.01692" lon="7.85424">
        <ele>378.8</ele>
        <time>2024-08-25T15:17:55Z</time>
      </trkpt>
      <trkpt lat="49.01695" lon="7.85419">
        <ele>378.6</ele>
        <time>2024-08-25T15:17:56Z</time>
      </trkpt>
      <trkpt lat="49.01699" lon="7.85414">
        <ele>378.4</ele>
        <time>2024-08-25T15:17:57Z</time>
      </trkpt>
      <trkpt lat="49.01702" lon="7.85407">
        <ele>378</ele>
        <time>2024-08-25T15:17:58Z</time>
      </trkpt>
      <trkpt lat="49.01703" lon="7.854">
        <ele>377.8</ele>
        <time>2024-08-25T15:17:59Z</time>
      </trkpt>
      <trkpt lat="49.01704" lon="7.85392">
        <ele>377</ele>
        <time>2024-08-25T15:18:00Z</time>
      </trkpt>
      <trkpt lat="49.01704" lon="7.85384">
        <ele>376.6</ele>
        <time>2024-08-25T15:18:01Z</time>
      </trkpt>
      <trkpt lat="49.01703" lon="7.85377">
        <ele>376.4</ele>
        <time>2024-08-25T15:18:02Z</time>
      </trkpt>
      <trkpt lat="49.01701" lon="7.85369">
        <ele>376</ele>
        <time>2024-08-25T15:18:03Z</time>
      </trkpt>
      <trkpt lat="49.017" lon="7.8536">
        <ele>375.6</ele>
        <time>2024-08-25T15:18:04Z</time>
      </trkpt>
      <trkpt lat="49.01697" lon="7.85352">
        <ele>375.2</ele>
        <time>2024-08-25T15:18:05Z</time>
      </trkpt>
      <trkpt lat="49.01694" lon="7.85345">
        <ele>374.8</ele>
        <time>2024-08-25T15:18:06Z</time>
      </trkpt>
      <trkpt lat="49.0169" lon="7.85338">
        <ele>374.4</ele>
        <time>2024-08-25T15:18:07Z</time>
      </trkpt>
      <trkpt lat="49.01687" lon="7.8533">
        <ele>374.2</ele>
        <time>2024-08-25T15:18:08Z</time>
      </trkpt>
      <trkpt lat="49.01684" lon="7.85322">
        <ele>373.8</ele>
        <time>2024-08-25T15:18:09Z</time>
      </trkpt>
      <trkpt lat="49.0168" lon="7.85315">
        <ele>373.6</ele>
        <time>2024-08-25T15:18:10Z</time>
      </trkpt>
      <trkpt lat="49.01676" lon="7.85308">
        <ele>373.4</ele>
        <time>2024-08-25T15:18:11Z</time>
      </trkpt>
      <trkpt lat="49.01672" lon="7.85301">
        <ele>373</ele>
        <time>2024-08-25T15:18:12Z</time>
      </trkpt>
      <trkpt lat="49.01668" lon="7.85294">
        <ele>372.8</ele>
        <time>2024-08-25T15:18:13Z</time>
      </trkpt>
      <trkpt lat="49.01665" lon="7.85287">
        <ele>372.4</ele>
        <time>2024-08-25T15:18:14Z</time>
      </trkpt>
      <trkpt lat="49.01661" lon="7.8528">
        <ele>372.2</ele>
        <time>2024-08-25T15:18:15Z</time>
      </trkpt>
      <trkpt lat="49.01658" lon="7.85273">
        <ele>372</ele>
        <time>2024-08-25T15:18:16Z</time>
      </trkpt>
      <trkpt lat="49.01654" lon="7.85267">
        <ele>371.8</ele>
        <time>2024-08-25T15:18:17Z</time>
      </trkpt>
      <trkpt lat="49.01651" lon="7.8526">
        <ele>371.4</ele>
        <time>2024-08-25T15:18:18Z</time>
      </trkpt>
      <trkpt lat="49.01648" lon="7.85254">
        <ele>371</ele>
        <time>2024-08-25T15:18:19Z</time>
      </trkpt>
      <trkpt lat="49.01644" lon="7.85248">
        <ele>370.8</ele>
        <time>2024-08-25T15:18:20Z</time>
      </trkpt>
      <trkpt lat="49.01641" lon="7.85243">
        <ele>370.6</ele>
        <time>2024-08-25T15:18:21Z</time>
      </trkpt>
      <trkpt lat="49.01638" lon="7.85238">
        <ele>370.2</ele>
        <time>2024-08-25T15:18:22Z</time>
      </trkpt>
      <trkpt lat="49.01635" lon="7.85233">
        <ele>370</ele>
        <time>2024-08-25T15:18:23Z</time>
      </trkpt>
      <trkpt lat="49.01632" lon="7.85229">
        <ele>369.6</ele>
        <time>2024-08-25T15:18:24Z</time>
      </trkpt>
      <trkpt lat="49.01631" lon="7.85225">
        <ele>369.4</ele>
        <time>2024-08-25T15:18:25Z</time>
      </trkpt>
      <trkpt lat="49.0163" lon="7.85222">
        <ele>369.2</ele>
        <time>2024-08-25T15:18:26Z</time>
      </trkpt>
      <trkpt lat="49.01632" lon="7.85217">
        <ele>369</ele>
        <time>2024-08-25T15:18:27Z</time>
      </trkpt>
      <trkpt lat="49.01635" lon="7.85214">
        <ele>368.8</ele>
        <time>2024-08-25T15:18:28Z</time>
      </trkpt>
      <trkpt lat="49.01639" lon="7.85213">
        <ele>368.6</ele>
        <time>2024-08-25T15:18:29Z</time>
      </trkpt>
      <trkpt lat="49.01644" lon="7.85211">
        <ele>368.4</ele>
        <time>2024-08-25T15:18:30Z</time>
      </trkpt>
      <trkpt lat="49.01649" lon="7.8521">
        <ele>368</ele>
        <time>2024-08-25T15:18:31Z</time>
      </trkpt>
      <trkpt lat="49.01653" lon="7.85209">
        <ele>368</ele>
        <time>2024-08-25T15:18:32Z</time>
      </trkpt>
      <trkpt lat="49.01658" lon="7.85208">
        <ele>367.8</ele>
        <time>2024-08-25T15:18:33Z</time>
      </trkpt>
      <trkpt lat="49.01662" lon="7.85207">
        <ele>367.6</ele>
        <time>2024-08-25T15:18:34Z</time>
      </trkpt>
      <trkpt lat="49.01667" lon="7.85205">
        <ele>367.4</ele>
        <time>2024-08-25T15:18:35Z</time>
      </trkpt>
      <trkpt lat="49.01672" lon="7.85204">
        <ele>367.4</ele>
        <time>2024-08-25T15:18:36Z</time>
      </trkpt>
      <trkpt lat="49.01677" lon="7.85202">
        <ele>367.2</ele>
        <time>2024-08-25T15:18:37Z</time>
      </trkpt>
      <trkpt lat="49.01683" lon="7.85201">
        <ele>367</ele>
        <time>2024-08-25T15:18:38Z</time>
      </trkpt>
      <trkpt lat="49.01688" lon="7.85198">
        <ele>366.8</ele>
        <time>2024-08-25T15:18:39Z</time>
      </trkpt>
      <trkpt lat="49.01694" lon="7.85196">
        <ele>366.8</ele>
        <time>2024-08-25T15:18:40Z</time>
      </trkpt>
      <trkpt lat="49.01699" lon="7.85194">
        <ele>366.6</ele>
        <time>2024-08-25T15:18:41Z</time>
      </trkpt>
      <trkpt lat="49.01705" lon="7.85192">
        <ele>366.4</ele>
        <time>2024-08-25T15:18:42Z</time>
      </trkpt>
      <trkpt lat="49.0171" lon="7.8519">
        <ele>366.2</ele>
        <time>2024-08-25T15:18:43Z</time>
      </trkpt>
      <trkpt lat="49.01716" lon="7.85188">
        <ele>366</ele>
        <time>2024-08-25T15:18:44Z</time>
      </trkpt>
      <trkpt lat="49.01722" lon="7.85186">
        <ele>366</ele>
        <time>2024-08-25T15:18:45Z</time>
      </trkpt>
      <trkpt lat="49.01727" lon="7.85184">
        <ele>365.8</ele>
        <time>2024-08-25T15:18:46Z</time>
      </trkpt>
      <trkpt lat="49.01733" lon="7.85182">
        <ele>365.6</ele>
        <time>2024-08-25T15:18:47Z</time>
      </trkpt>
      <trkpt lat="49.01739" lon="7.8518">
        <ele>365.4</ele>
        <time>2024-08-25T15:18:48Z</time>
      </trkpt>
      <trkpt lat="49.01744" lon="7.85177">
        <ele>365.2</ele>
        <time>2024-08-25T15:18:49Z</time>
      </trkpt>
      <trkpt lat="49.0175" lon="7.85175">
        <ele>365.2</ele>
        <time>2024-08-25T15:18:50Z</time>
      </trkpt>
      <trkpt lat="49.01755" lon="7.85173">
        <ele>365.2</ele>
        <time>2024-08-25T15:18:51Z</time>
      </trkpt>
      <trkpt lat="49.01761" lon="7.8517">
        <ele>365</ele>
        <time>2024-08-25T15:18:52Z</time>
      </trkpt>
      <trkpt lat="49.01766" lon="7.85168">
        <ele>365</ele>
        <time>2024-08-25T15:18:53Z</time>
      </trkpt>
      <trkpt lat="49.01772" lon="7.85165">
        <ele>365</ele>
        <time>2024-08-25T15:18:54Z</time>
      </trkpt>
      <trkpt lat="49.01777" lon="7.85162">
        <ele>365</ele>
        <time>2024-08-25T15:18:55Z</time>
      </trkpt>
      <trkpt lat="49.01782" lon="7.85158">
        <ele>364.8</ele>
        <time>2024-08-25T15:18:56Z</time>
      </trkpt>
      <trkpt lat="49.01787" lon="7.85156">
        <ele>364.8</ele>
        <time>2024-08-25T15:18:57Z</time>
      </trkpt>
      <trkpt lat="49.01792" lon="7.85153">
        <ele>364.8</ele>
        <time>2024-08-25T15:18:58Z</time>
      </trkpt>
      <trkpt lat="49.01798" lon="7.85151">
        <ele>364.8</ele>
        <time>2024-08-25T15:18:59Z</time>
      </trkpt>
      <trkpt lat="49.01803" lon="7.85148">
        <ele>364.8</ele>
        <time>2024-08-25T15:19:00Z</time>
      </trkpt>
      <trkpt lat="49.01807" lon="7.85145">
        <ele>364.8</ele>
        <time>2024-08-25T15:19:01Z</time>
      </trkpt>
      <trkpt lat="49.01812" lon="7.85142">
        <ele>364.8</ele>
        <time>2024-08-25T15:19:02Z</time>
      </trkpt>
      <trkpt lat="49.01816" lon="7.8514">
        <ele>364.8</ele>
        <time>2024-08-25T15:19:03Z</time>
      </trkpt>
      <trkpt lat="49.01821" lon="7.85138">
        <ele>364.8</ele>
        <time>2024-08-25T15:19:04Z</time>
      </trkpt>
      <trkpt lat="49.01826" lon="7.85136">
        <ele>364.8</ele>
        <time>2024-08-25T15:19:05Z</time>
      </trkpt>
      <trkpt lat="49.01829" lon="7.85134">
        <ele>364.8</ele>
        <time>2024-08-25T15:19:06Z</time>
      </trkpt>
      <trkpt lat="49.01833" lon="7.85132">
        <ele>364.8</ele>
        <time>2024-08-25T15:19:07Z</time>
      </trkpt>
      <trkpt lat="49.01835" lon="7.8513">
        <ele>364.8</ele>
        <time>2024-08-25T15:19:08Z</time>
      </trkpt>
      <trkpt lat="49.01837" lon="7.85129">
        <ele>364.8</ele>
        <time>2024-08-25T15:19:09Z</time>
      </trkpt>
      <trkpt lat="49.0184" lon="7.8513">
        <ele>365</ele>
        <time>2024-08-25T15:19:10Z</time>
      </trkpt>
      <trkpt lat="49.01843" lon="7.85128">
        <ele>365.2</ele>
        <time>2024-08-25T15:19:11Z</time>
      </trkpt>
      <trkpt lat="49.01846" lon="7.85125">
        <ele>365.4</ele>
        <time>2024-08-25T15:19:12Z</time>
      </trkpt>
      <trkpt lat="49.01849" lon="7.85121">
        <ele>365.6</ele>
        <time>2024-08-25T15:19:13Z</time>
      </trkpt>
      <trkpt lat="49.01853" lon="7.85119">
        <ele>365.8</ele>
        <time>2024-08-25T15:19:14Z</time>
      </trkpt>
      <trkpt lat="49.01858" lon="7.85118">
        <ele>365.8</ele>
        <time>2024-08-25T15:19:15Z</time>
      </trkpt>
      <trkpt lat="49.01862" lon="7.85118">
        <ele>365.8</ele>
        <time>2024-08-25T15:19:16Z</time>
      </trkpt>
      <trkpt lat="49.01866" lon="7.85117">
        <ele>365.8</ele>
        <time>2024-08-25T15:19:17Z</time>
      </trkpt>
      <trkpt lat="49.0187" lon="7.85117">
        <ele>365.8</ele>
        <time>2024-08-25T15:19:18Z</time>
      </trkpt>
      <trkpt lat="49.01875" lon="7.85117">
        <ele>365.8</ele>
        <time>2024-08-25T15:19:19Z</time>
      </trkpt>
      <trkpt lat="49.01879" lon="7.85117">
        <ele>365.8</ele>
        <time>2024-08-25T15:19:20Z</time>
      </trkpt>
      <trkpt lat="49.01883" lon="7.85119">
        <ele>366</ele>
        <time>2024-08-25T15:19:21Z</time>
      </trkpt>
      <trkpt lat="49.01887" lon="7.8512">
        <ele>366.2</ele>
        <time>2024-08-25T15:19:22Z</time>
      </trkpt>
      <trkpt lat="49.01891" lon="7.85122">
        <ele>366.2</ele>
        <time>2024-08-25T15:19:23Z</time>
      </trkpt>
      <trkpt lat="49.01895" lon="7.85123">
        <ele>366.4</ele>
        <time>2024-08-25T15:19:24Z</time>
      </trkpt>
      <trkpt lat="49.01899" lon="7.85124">
        <ele>366.6</ele>
        <time>2024-08-25T15:19:25Z</time>
      </trkpt>
      <trkpt lat="49.01903" lon="7.85125">
        <ele>366.6</ele>
        <time>2024-08-25T15:19:26Z</time>
      </trkpt>
      <trkpt lat="49.01907" lon="7.85127">
        <ele>366.8</ele>
        <time>2024-08-25T15:19:27Z</time>
      </trkpt>
      <trkpt lat="49.01911" lon="7.85129">
        <ele>367</ele>
        <time>2024-08-25T15:19:28Z</time>
      </trkpt>
      <trkpt lat="49.01915" lon="7.85131">
        <ele>367</ele>
        <time>2024-08-25T15:19:29Z</time>
      </trkpt>
      <trkpt lat="49.01918" lon="7.85129">
        <ele>367</ele>
        <time>2024-08-25T15:19:30Z</time>
      </trkpt>
      <trkpt lat="49.01921" lon="7.85126">
        <ele>367.2</ele>
        <time>2024-08-25T15:19:31Z</time>
      </trkpt>
      <trkpt lat="49.01923" lon="7.85123">
        <ele>367.2</ele>
        <time>2024-08-25T15:19:32Z</time>
      </trkpt>
      <trkpt lat="49.01924" lon="7.8512">
        <ele>367.4</ele>
        <time>2024-08-25T15:19:33Z</time>
      </trkpt>
      <trkpt lat="49.01925" lon="7.85117">
        <ele>367.4</ele>
        <time>2024-08-25T15:19:34Z</time>
      </trkpt>
      <trkpt lat="49.01926" lon="7.85115">
        <ele>367.6</ele>
        <time>2024-08-25T15:19:35Z</time>
      </trkpt>
      <trkpt lat="49.01927" lon="7.85113">
        <ele>368</ele>
        <time>2024-08-25T15:19:36Z</time>
      </trkpt>
      <trkpt lat="49.01929" lon="7.85111">
        <ele>368.2</ele>
        <time>2024-08-25T15:19:37Z</time>
      </trkpt>
      <trkpt lat="49.0193" lon="7.85108">
        <ele>368.4</ele>
        <time>2024-08-25T15:19:38Z</time>
      </trkpt>
      <trkpt lat="49.01932" lon="7.85105">
        <ele>368.6</ele>
        <time>2024-08-25T15:19:39Z</time>
      </trkpt>
      <trkpt lat="49.01933" lon="7.85102">
        <ele>368.8</ele>
        <time>2024-08-25T15:19:40Z</time>
      </trkpt>
      <trkpt lat="49.01934" lon="7.85099">
        <ele>368.8</ele>
        <time>2024-08-25T15:19:41Z</time>
      </trkpt>
      <trkpt lat="49.01935" lon="7.85097">
        <ele>369</ele>
        <time>2024-08-25T15:19:42Z</time>
      </trkpt>
      <trkpt lat="49.01936" lon="7.85094">
        <ele>369.2</ele>
        <time>2024-08-25T15:19:43Z</time>
      </trkpt>
      <trkpt lat="49.01938" lon="7.85091">
        <ele>369.4</ele>
        <time>2024-08-25T15:19:44Z</time>
      </trkpt>
      <trkpt lat="49.01939" lon="7.85088">
        <ele>369.6</ele>
        <time>2024-08-25T15:19:45Z</time>
      </trkpt>
      <trkpt lat="49.0194" lon="7.85085">
        <ele>369.6</ele>
        <time>2024-08-25T15:19:46Z</time>
      </trkpt>
      <trkpt lat="49.01941" lon="7.85082">
        <ele>369.8</ele>
        <time>2024-08-25T15:19:47Z</time>
      </trkpt>
      <trkpt lat="49.01942" lon="7.85079">
        <ele>370</ele>
        <time>2024-08-25T15:19:48Z</time>
      </trkpt>
      <trkpt lat="49.01944" lon="7.85076">
        <ele>370.2</ele>
        <time>2024-08-25T15:19:49Z</time>
      </trkpt>
      <trkpt lat="49.01945" lon="7.85073">
        <ele>370.2</ele>
        <time>2024-08-25T15:19:50Z</time>
      </trkpt>
      <trkpt lat="49.01946" lon="7.85071">
        <ele>370.6</ele>
        <time>2024-08-25T15:19:51Z</time>
      </trkpt>
      <trkpt lat="49.01947" lon="7.85067">
        <ele>370.8</ele>
        <time>2024-08-25T15:19:52Z</time>
      </trkpt>
      <trkpt lat="49.01948" lon="7.85065">
        <ele>371</ele>
        <time>2024-08-25T15:19:53Z</time>
      </trkpt>
      <trkpt lat="49.0195" lon="7.85062">
        <ele>371.2</ele>
        <time>2024-08-25T15:19:54Z</time>
      </trkpt>
      <trkpt lat="49.01951" lon="7.85059">
        <ele>371.4</ele>
        <time>2024-08-25T15:19:55Z</time>
      </trkpt>
      <trkpt lat="49.01952" lon="7.85056">
        <ele>371.6</ele>
        <time>2024-08-25T15:19:56Z</time>
      </trkpt>
      <trkpt lat="49.01953" lon="7.85054">
        <ele>371.8</ele>
        <time>2024-08-25T15:19:57Z</time>
      </trkpt>
      <trkpt lat="49.01954" lon="7.85051">
        <ele>372</ele>
        <time>2024-08-25T15:19:58Z</time>
      </trkpt>
      <trkpt lat="49.01955" lon="7.85049">
        <ele>372.4</ele>
        <time>2024-08-25T15:19:59Z</time>
      </trkpt>
      <trkpt lat="49.01957" lon="7.85046">
        <ele>372.6</ele>
        <time>2024-08-25T15:20:00Z</time>
      </trkpt>
      <trkpt lat="49.01958" lon="7.85043">
        <ele>372.8</ele>
        <time>2024-08-25T15:20:01Z</time>
      </trkpt>
      <trkpt lat="49.01959" lon="7.85041">
        <ele>373</ele>
        <time>2024-08-25T15:20:02Z</time>
      </trkpt>
      <trkpt lat="49.01961" lon="7.85038">
        <ele>373.2</ele>
        <time>2024-08-25T15:20:03Z</time>
      </trkpt>
      <trkpt lat="49.01962" lon="7.85035">
        <ele>373.4</ele>
        <time>2024-08-25T15:20:04Z</time>
      </trkpt>
      <trkpt lat="49.01964" lon="7.85032">
        <ele>373.4</ele>
        <time>2024-08-25T15:20:05Z</time>
      </trkpt>
      <trkpt lat="49.01964" lon="7.85028">
        <ele>373.6</ele>
        <time>2024-08-25T15:20:06Z</time>
      </trkpt>
      <trkpt lat="49.01965" lon="7.85025">
        <ele>373.8</ele>
        <time>2024-08-25T15:20:07Z</time>
      </trkpt>
      <trkpt lat="49.01966" lon="7.85021">
        <ele>374</ele>
        <time>2024-08-25T15:20:08Z</time>
      </trkpt>
      <trkpt lat="49.01968" lon="7.85017">
        <ele>374.2</ele>
        <time>2024-08-25T15:20:09Z</time>
      </trkpt>
      <trkpt lat="49.01969" lon="7.85014">
        <ele>374.4</ele>
        <time>2024-08-25T15:20:10Z</time>
      </trkpt>
      <trkpt lat="49.0197" lon="7.85011">
        <ele>374.8</ele>
        <time>2024-08-25T15:20:11Z</time>
      </trkpt>
      <trkpt lat="49.01971" lon="7.85008">
        <ele>375</ele>
        <time>2024-08-25T15:20:12Z</time>
      </trkpt>
      <trkpt lat="49.01972" lon="7.85004">
        <ele>375.4</ele>
        <time>2024-08-25T15:20:13Z</time>
      </trkpt>
      <trkpt lat="49.01973" lon="7.85001">
        <ele>375.6</ele>
        <time>2024-08-25T15:20:14Z</time>
      </trkpt>
      <trkpt lat="49.01974" lon="7.84998">
        <ele>376</ele>
        <time>2024-08-25T15:20:15Z</time>
      </trkpt>
      <trkpt lat="49.01975" lon="7.84994">
        <ele>376.2</ele>
        <time>2024-08-25T15:20:16Z</time>
      </trkpt>
      <trkpt lat="49.01976" lon="7.8499">
        <ele>376.4</ele>
        <time>2024-08-25T15:20:17Z</time>
      </trkpt>
      <trkpt lat="49.01977" lon="7.84987">
        <ele>376.8</ele>
        <time>2024-08-25T15:20:18Z</time>
      </trkpt>
      <trkpt lat="49.01978" lon="7.84984">
        <ele>377</ele>
        <time>2024-08-25T15:20:19Z</time>
      </trkpt>
      <trkpt lat="49.01979" lon="7.8498">
        <ele>377.2</ele>
        <time>2024-08-25T15:20:20Z</time>
      </trkpt>
      <trkpt lat="49.01981" lon="7.84975">
        <ele>377.4</ele>
        <time>2024-08-25T15:20:21Z</time>
      </trkpt>
      <trkpt lat="49.01983" lon="7.84971">
        <ele>377.6</ele>
        <time>2024-08-25T15:20:22Z</time>
      </trkpt>
      <trkpt lat="49.01984" lon="7.84967">
        <ele>377.8</ele>
        <time>2024-08-25T15:20:23Z</time>
      </trkpt>
      <trkpt lat="49.01984" lon="7.84963">
        <ele>378</ele>
        <time>2024-08-25T15:20:24Z</time>
      </trkpt>
      <trkpt lat="49.01984" lon="7.84958">
        <ele>378</ele>
        <time>2024-08-25T15:20:25Z</time>
      </trkpt>
      <trkpt lat="49.01982" lon="7.84954">
        <ele>378.2</ele>
        <time>2024-08-25T15:20:26Z</time>
      </trkpt>
      <trkpt lat="49.01981" lon="7.8495">
        <ele>378.4</ele>
        <time>2024-08-25T15:20:27Z</time>
      </trkpt>
      <trkpt lat="49.01979" lon="7.84947">
        <ele>378.6</ele>
        <time>2024-08-25T15:20:28Z</time>
      </trkpt>
      <trkpt lat="49.01977" lon="7.84944">
        <ele>378.6</ele>
        <time>2024-08-25T15:20:29Z</time>
      </trkpt>
      <trkpt lat="49.01974" lon="7.8494">
        <ele>378.8</ele>
        <time>2024-08-25T15:20:30Z</time>
      </trkpt>
      <trkpt lat="49.01972" lon="7.84937">
        <ele>378.8</ele>
        <time>2024-08-25T15:20:31Z</time>
      </trkpt>
      <trkpt lat="49.0197" lon="7.84933">
        <ele>378.8</ele>
        <time>2024-08-25T15:20:32Z</time>
      </trkpt>
      <trkpt lat="49.01968" lon="7.84929">
        <ele>379</ele>
        <time>2024-08-25T15:20:33Z</time>
      </trkpt>
      <trkpt lat="49.01966" lon="7.84925">
        <ele>378.8</ele>
        <time>2024-08-25T15:20:34Z</time>
      </trkpt>
      <trkpt lat="49.01964" lon="7.8492">
        <ele>378.8</ele>
        <time>2024-08-25T15:20:35Z</time>
      </trkpt>
      <trkpt lat="49.01961" lon="7.84916">
        <ele>378.8</ele>
        <time>2024-08-25T15:20:36Z</time>
      </trkpt>
      <trkpt lat="49.01959" lon="7.84911">
        <ele>378.8</ele>
        <time>2024-08-25T15:20:37Z</time>
      </trkpt>
      <trkpt lat="49.01956" lon="7.84907">
        <ele>378.6</ele>
        <time>2024-08-25T15:20:38Z</time>
      </trkpt>
      <trkpt lat="49.01953" lon="7.84903">
        <ele>378.4</ele>
        <time>2024-08-25T15:20:39Z</time>
      </trkpt>
      <trkpt lat="49.01951" lon="7.84898">
        <ele>378.2</ele>
        <time>2024-08-25T15:20:40Z</time>
      </trkpt>
      <trkpt lat="49.0195" lon="7.84893">
        <ele>377.8</ele>
        <time>2024-08-25T15:20:41Z</time>
      </trkpt>
      <trkpt lat="49.01949" lon="7.84887">
        <ele>377.4</ele>
        <time>2024-08-25T15:20:42Z</time>
      </trkpt>
      <trkpt lat="49.01948" lon="7.84882">
        <ele>377</ele>
        <time>2024-08-25T15:20:43Z</time>
      </trkpt>
      <trkpt lat="49.01946" lon="7.84876">
        <ele>376.8</ele>
        <time>2024-08-25T15:20:44Z</time>
      </trkpt>
      <trkpt lat="49.01945" lon="7.8487">
        <ele>376.2</ele>
        <time>2024-08-25T15:20:45Z</time>
      </trkpt>
      <trkpt lat="49.01945" lon="7.84864">
        <ele>375.8</ele>
        <time>2024-08-25T15:20:46Z</time>
      </trkpt>
      <trkpt lat="49.01946" lon="7.8486">
        <ele>375.6</ele>
        <time>2024-08-25T15:20:47Z</time>
      </trkpt>
      <trkpt lat="49.01948" lon="7.84856">
        <ele>375.2</ele>
        <time>2024-08-25T15:20:48Z</time>
      </trkpt>
      <trkpt lat="49.0195" lon="7.8485">
        <ele>374.8</ele>
        <time>2024-08-25T15:20:49Z</time>
      </trkpt>
      <trkpt lat="49.01952" lon="7.84846">
        <ele>374.6</ele>
        <time>2024-08-25T15:20:50Z</time>
      </trkpt>
      <trkpt lat="49.01953" lon="7.84841">
        <ele>374.4</ele>
        <time>2024-08-25T15:20:51Z</time>
      </trkpt>
      <trkpt lat="49.01955" lon="7.84836">
        <ele>374.2</ele>
        <time>2024-08-25T15:20:52Z</time>
      </trkpt>
      <trkpt lat="49.01957" lon="7.84832">
        <ele>374</ele>
        <time>2024-08-25T15:20:53Z</time>
      </trkpt>
      <trkpt lat="49.01959" lon="7.84827">
        <ele>373.8</ele>
        <time>2024-08-25T15:20:54Z</time>
      </trkpt>
      <trkpt lat="49.0196" lon="7.84823">
        <ele>373.6</ele>
        <time>2024-08-25T15:20:55Z</time>
      </trkpt>
      <trkpt lat="49.01962" lon="7.84818">
        <ele>373.4</ele>
        <time>2024-08-25T15:20:56Z</time>
      </trkpt>
      <trkpt lat="49.01964" lon="7.84814">
        <ele>373.4</ele>
        <time>2024-08-25T15:20:57Z</time>
      </trkpt>
      <trkpt lat="49.01966" lon="7.8481">
        <ele>373.2</ele>
        <time>2024-08-25T15:20:58Z</time>
      </trkpt>
      <trkpt lat="49.01968" lon="7.84805">
        <ele>373</ele>
        <time>2024-08-25T15:20:59Z</time>
      </trkpt>
      <trkpt lat="49.0197" lon="7.84801">
        <ele>372.8</ele>
        <time>2024-08-25T15:21:00Z</time>
      </trkpt>
      <trkpt lat="49.01972" lon="7.84798">
        <ele>372.4</ele>
        <time>2024-08-25T15:21:01Z</time>
      </trkpt>
      <trkpt lat="49.01974" lon="7.84794">
        <ele>372.4</ele>
        <time>2024-08-25T15:21:02Z</time>
      </trkpt>
      <trkpt lat="49.01975" lon="7.84791">
        <ele>372.2</ele>
        <time>2024-08-25T15:21:03Z</time>
      </trkpt>
      <trkpt lat="49.01977" lon="7.84788">
        <ele>372.2</ele>
        <time>2024-08-25T15:21:04Z</time>
      </trkpt>
      <trkpt lat="49.01978" lon="7.84785">
        <ele>372</ele>
        <time>2024-08-25T15:21:05Z</time>
      </trkpt>
      <trkpt lat="49.0198" lon="7.84783">
        <ele>372</ele>
        <time>2024-08-25T15:21:06Z</time>
      </trkpt>
      <trkpt lat="49.01982" lon="7.8478">
        <ele>371.8</ele>
        <time>2024-08-25T15:21:07Z</time>
      </trkpt>
      <trkpt lat="49.01984" lon="7.84778">
        <ele>371.8</ele>
        <time>2024-08-25T15:21:08Z</time>
      </trkpt>
      <trkpt lat="49.01985" lon="7.84775">
        <ele>371.6</ele>
        <time>2024-08-25T15:21:09Z</time>
      </trkpt>
      <trkpt lat="49.01987" lon="7.84773">
        <ele>371.6</ele>
        <time>2024-08-25T15:21:10Z</time>
      </trkpt>
      <trkpt lat="49.0199" lon="7.8477">
        <ele>371.4</ele>
        <time>2024-08-25T15:21:11Z</time>
      </trkpt>
      <trkpt lat="49.01991" lon="7.84768">
        <ele>371.2</ele>
        <time>2024-08-25T15:21:12Z</time>
      </trkpt>
      <trkpt lat="49.01994" lon="7.84766">
        <ele>371.2</ele>
        <time>2024-08-25T15:21:13Z</time>
      </trkpt>
      <trkpt lat="49.01996" lon="7.84764">
        <ele>371</ele>
        <time>2024-08-25T15:21:14Z</time>
      </trkpt>
      <trkpt lat="49.01998" lon="7.84761">
        <ele>370.8</ele>
        <time>2024-08-25T15:21:15Z</time>
      </trkpt>
      <trkpt lat="49.02" lon="7.84758">
        <ele>370.8</ele>
        <time>2024-08-25T15:21:16Z</time>
      </trkpt>
      <trkpt lat="49.02002" lon="7.84755">
        <ele>370.6</ele>
        <time>2024-08-25T15:21:17Z</time>
      </trkpt>
      <trkpt lat="49.02004" lon="7.84753">
        <ele>370.4</ele>
        <time>2024-08-25T15:21:18Z</time>
      </trkpt>
      <trkpt lat="49.02005" lon="7.84751">
        <ele>370.4</ele>
        <time>2024-08-25T15:21:19Z</time>
      </trkpt>
      <trkpt lat="49.02007" lon="7.84749">
        <ele>370.2</ele>
        <time>2024-08-25T15:21:20Z</time>
      </trkpt>
      <trkpt lat="49.02009" lon="7.84747">
        <ele>370.2</ele>
        <time>2024-08-25T15:21:21Z</time>
      </trkpt>
      <trkpt lat="49.02011" lon="7.84745">
        <ele>370</ele>
        <time>2024-08-25T15:21:22Z</time>
      </trkpt>
      <trkpt lat="49.02013" lon="7.84742">
        <ele>370</ele>
        <time>2024-08-25T15:21:23Z</time>
      </trkpt>
      <trkpt lat="49.02016" lon="7.84741">
        <ele>369.8</ele>
        <time>2024-08-25T15:21:24Z</time>
      </trkpt>
      <trkpt lat="49.02018" lon="7.84739">
        <ele>369.8</ele>
        <time>2024-08-25T15:21:25Z</time>
      </trkpt>
      <trkpt lat="49.0202" lon="7.84737">
        <ele>369.6</ele>
        <time>2024-08-25T15:21:26Z</time>
      </trkpt>
      <trkpt lat="49.02023" lon="7.84734">
        <ele>369.4</ele>
        <time>2024-08-25T15:21:27Z</time>
      </trkpt>
      <trkpt lat="49.02026" lon="7.84732">
        <ele>369.4</ele>
        <time>2024-08-25T15:21:28Z</time>
      </trkpt>
      <trkpt lat="49.02029" lon="7.84729">
        <ele>369.2</ele>
        <time>2024-08-25T15:21:29Z</time>
      </trkpt>
      <trkpt lat="49.02032" lon="7.84725">
        <ele>369</ele>
        <time>2024-08-25T15:21:30Z</time>
      </trkpt>
      <trkpt lat="49.02035" lon="7.84722">
        <ele>368.6</ele>
        <time>2024-08-25T15:21:31Z</time>
      </trkpt>
      <trkpt lat="49.02039" lon="7.84719">
        <ele>368.4</ele>
        <time>2024-08-25T15:21:32Z</time>
      </trkpt>
      <trkpt lat="49.02043" lon="7.84715">
        <ele>368</ele>
        <time>2024-08-25T15:21:33Z</time>
      </trkpt>
      <trkpt lat="49.02046" lon="7.84711">
        <ele>367.6</ele>
        <time>2024-08-25T15:21:34Z</time>
      </trkpt>
      <trkpt lat="49.02049" lon="7.84707">
        <ele>367.4</ele>
        <time>2024-08-25T15:21:35Z</time>
      </trkpt>
      <trkpt lat="49.02053" lon="7.84703">
        <ele>367</ele>
        <time>2024-08-25T15:21:36Z</time>
      </trkpt>
      <trkpt lat="49.02057" lon="7.84698">
        <ele>366.6</ele>
        <time>2024-08-25T15:21:37Z</time>
      </trkpt>
      <trkpt lat="49.0206" lon="7.84693">
        <ele>366.4</ele>
        <time>2024-08-25T15:21:38Z</time>
      </trkpt>
      <trkpt lat="49.02063" lon="7.84688">
        <ele>366.2</ele>
        <time>2024-08-25T15:21:39Z</time>
      </trkpt>
      <trkpt lat="49.02066" lon="7.84684">
        <ele>366</ele>
        <time>2024-08-25T15:21:40Z</time>
      </trkpt>
      <trkpt lat="49.02069" lon="7.8468">
        <ele>366</ele>
        <time>2024-08-25T15:21:41Z</time>
      </trkpt>
      <trkpt lat="49.02072" lon="7.84675">
        <ele>366</ele>
        <time>2024-08-25T15:21:42Z</time>
      </trkpt>
      <trkpt lat="49.02075" lon="7.84671">
        <ele>365.8</ele>
        <time>2024-08-25T15:21:43Z</time>
      </trkpt>
      <trkpt lat="49.02077" lon="7.84667">
        <ele>365.8</ele>
        <time>2024-08-25T15:21:44Z</time>
      </trkpt>
      <trkpt lat="49.0208" lon="7.84664">
        <ele>365.8</ele>
        <time>2024-08-25T15:21:45Z</time>
      </trkpt>
      <trkpt lat="49.02082" lon="7.84659">
        <ele>365.8</ele>
        <time>2024-08-25T15:21:46Z</time>
      </trkpt>
      <trkpt lat="49.02084" lon="7.84655">
        <ele>365.8</ele>
        <time>2024-08-25T15:21:47Z</time>
      </trkpt>
      <trkpt lat="49.02086" lon="7.84651">
        <ele>365.8</ele>
        <time>2024-08-25T15:21:48Z</time>
      </trkpt>
      <trkpt lat="49.02089" lon="7.84647">
        <ele>365.6</ele>
        <time>2024-08-25T15:21:49Z</time>
      </trkpt>
      <trkpt lat="49.02091" lon="7.84643">
        <ele>365.6</ele>
        <time>2024-08-25T15:21:50Z</time>
      </trkpt>
      <trkpt lat="49.02093" lon="7.8464">
        <ele>365.4</ele>
        <time>2024-08-25T15:21:51Z</time>
      </trkpt>
      <trkpt lat="49.02096" lon="7.84636">
        <ele>365.4</ele>
        <time>2024-08-25T15:21:52Z</time>
      </trkpt>
      <trkpt lat="49.02098" lon="7.84632">
        <ele>365.4</ele>
        <time>2024-08-25T15:21:53Z</time>
      </trkpt>
      <trkpt lat="49.02101" lon="7.84629">
        <ele>365.4</ele>
        <time>2024-08-25T15:21:54Z</time>
      </trkpt>
      <trkpt lat="49.02104" lon="7.84624">
        <ele>365.2</ele>
        <time>2024-08-25T15:21:55Z</time>
      </trkpt>
      <trkpt lat="49.02107" lon="7.8462">
        <ele>365.2</ele>
        <time>2024-08-25T15:21:56Z</time>
      </trkpt>
      <trkpt lat="49.02109" lon="7.84615">
        <ele>365.2</ele>
        <time>2024-08-25T15:21:57Z</time>
      </trkpt>
      <trkpt lat="49.02112" lon="7.84611">
        <ele>365.2</ele>
        <time>2024-08-25T15:21:58Z</time>
      </trkpt>
      <trkpt lat="49.02115" lon="7.84608">
        <ele>365</ele>
        <time>2024-08-25T15:21:59Z</time>
      </trkpt>
      <trkpt lat="49.02119" lon="7.84603">
        <ele>364.6</ele>
        <time>2024-08-25T15:22:00Z</time>
      </trkpt>
      <trkpt lat="49.02122" lon="7.846">
        <ele>364.4</ele>
        <time>2024-08-25T15:22:01Z</time>
      </trkpt>
      <trkpt lat="49.02125" lon="7.84597">
        <ele>364.4</ele>
        <time>2024-08-25T15:22:02Z</time>
      </trkpt>
      <trkpt lat="49.02128" lon="7.84595">
        <ele>363.8</ele>
        <time>2024-08-25T15:22:03Z</time>
      </trkpt>
      <trkpt lat="49.02129" lon="7.84594">
        <ele>363.6</ele>
        <time>2024-08-25T15:22:04Z</time>
      </trkpt>
      <trkpt lat="49.0213" lon="7.84592">
        <ele>363.6</ele>
        <time>2024-08-25T15:22:05Z</time>
      </trkpt>
      <trkpt lat="49.0213" lon="7.84589">
        <ele>363.4</ele>
        <time>2024-08-25T15:22:06Z</time>
      </trkpt>
      <trkpt lat="49.0213" lon="7.84587">
        <ele>363.2</ele>
        <time>2024-08-25T15:22:07Z</time>
      </trkpt>
      <trkpt lat="49.0213" lon="7.84584">
        <ele>363.2</ele>
        <time>2024-08-25T15:22:08Z</time>
      </trkpt>
      <trkpt lat="49.02129" lon="7.84583">
        <ele>363.2</ele>
        <time>2024-08-25T15:22:09Z</time>
      </trkpt>
      <trkpt lat="49.02128" lon="7.84583">
        <ele>363</ele>
        <time>2024-08-25T15:22:10Z</time>
      </trkpt>
      <trkpt lat="49.02127" lon="7.84582">
        <ele>362.8</ele>
        <time>2024-08-25T15:22:11Z</time>
      </trkpt>
      <trkpt lat="49.02125" lon="7.84581">
        <ele>362.6</ele>
        <time>2024-08-25T15:22:12Z</time>
      </trkpt>
      <trkpt lat="49.02124" lon="7.84579">
        <ele>362.6</ele>
        <time>2024-08-25T15:22:13Z</time>
      </trkpt>
      <trkpt lat="49.02124" lon="7.84576">
        <ele>362.4</ele>
        <time>2024-08-25T15:22:14Z</time>
      </trkpt>
      <trkpt lat="49.02123" lon="7.84573">
        <ele>362.2</ele>
        <time>2024-08-25T15:22:15Z</time>
      </trkpt>
      <trkpt lat="49.02122" lon="7.8457">
        <ele>362</ele>
        <time>2024-08-25T15:22:16Z</time>
      </trkpt>
      <trkpt lat="49.02121" lon="7.84568">
        <ele>361.8</ele>
        <time>2024-08-25T15:22:17Z</time>
      </trkpt>
      <trkpt lat="49.02119" lon="7.84566">
        <ele>361.8</ele>
        <time>2024-08-25T15:22:18Z</time>
      </trkpt>
      <trkpt lat="49.02118" lon="7.84563">
        <ele>361.4</ele>
        <time>2024-08-25T15:22:19Z</time>
      </trkpt>
      <trkpt lat="49.02117" lon="7.84559">
        <ele>361.2</ele>
        <time>2024-08-25T15:22:20Z</time>
      </trkpt>
      <trkpt lat="49.02115" lon="7.84556">
        <ele>361</ele>
        <time>2024-08-25T15:22:21Z</time>
      </trkpt>
      <trkpt lat="49.02113" lon="7.84552">
        <ele>360.8</ele>
        <time>2024-08-25T15:22:22Z</time>
      </trkpt>
      <trkpt lat="49.0211" lon="7.84549">
        <ele>360.6</ele>
        <time>2024-08-25T15:22:23Z</time>
      </trkpt>
      <trkpt lat="49.02108" lon="7.84545">
        <ele>360.4</ele>
        <time>2024-08-25T15:22:24Z</time>
      </trkpt>
      <trkpt lat="49.02106" lon="7.84542">
        <ele>360</ele>
        <time>2024-08-25T15:22:25Z</time>
      </trkpt>
      <trkpt lat="49.02104" lon="7.84538">
        <ele>359.6</ele>
        <time>2024-08-25T15:22:26Z</time>
      </trkpt>
      <trkpt lat="49.02102" lon="7.84535">
        <ele>359.4</ele>
        <time>2024-08-25T15:22:27Z</time>
      </trkpt>
      <trkpt lat="49.02099" lon="7.84532">
        <ele>359.2</ele>
        <time>2024-08-25T15:22:28Z</time>
      </trkpt>
      <trkpt lat="49.02096" lon="7.84529">
        <ele>359</ele>
        <time>2024-08-25T15:22:29Z</time>
      </trkpt>
      <trkpt lat="49.02093" lon="7.84528">
        <ele>358.6</ele>
        <time>2024-08-25T15:22:30Z</time>
      </trkpt>
      <trkpt lat="49.02089" lon="7.84527">
        <ele>358.4</ele>
        <time>2024-08-25T15:22:31Z</time>
      </trkpt>
      <trkpt lat="49.02086" lon="7.84527">
        <ele>358.2</ele>
        <time>2024-08-25T15:22:32Z</time>
      </trkpt>
      <trkpt lat="49.02083" lon="7.84528">
        <ele>358</ele>
        <time>2024-08-25T15:22:33Z</time>
      </trkpt>
      <trkpt lat="49.02079" lon="7.84531">
        <ele>357.8</ele>
        <time>2024-08-25T15:22:34Z</time>
      </trkpt>
      <trkpt lat="49.02077" lon="7.84535">
        <ele>357.8</ele>
        <time>2024-08-25T15:22:35Z</time>
      </trkpt>
      <trkpt lat="49.02074" lon="7.84539">
        <ele>357.6</ele>
        <time>2024-08-25T15:22:36Z</time>
      </trkpt>
      <trkpt lat="49.02072" lon="7.84543">
        <ele>357.4</ele>
        <time>2024-08-25T15:22:37Z</time>
      </trkpt>
      <trkpt lat="49.0207" lon="7.84548">
        <ele>357.4</ele>
        <time>2024-08-25T15:22:38Z</time>
      </trkpt>
      <trkpt lat="49.02067" lon="7.84551">
        <ele>357.2</ele>
        <time>2024-08-25T15:22:39Z</time>
      </trkpt>
      <trkpt lat="49.02064" lon="7.84555">
        <ele>357</ele>
        <time>2024-08-25T15:22:40Z</time>
      </trkpt>
      <trkpt lat="49.0206" lon="7.84558">
        <ele>356.8</ele>
        <time>2024-08-25T15:22:41Z</time>
      </trkpt>
      <trkpt lat="49.02056" lon="7.8456">
        <ele>356.6</ele>
        <time>2024-08-25T15:22:42Z</time>
      </trkpt>
      <trkpt lat="49.02052" lon="7.84563">
        <ele>356.4</ele>
        <time>2024-08-25T15:22:43Z</time>
      </trkpt>
      <trkpt lat="49.02048" lon="7.84565">
        <ele>356.4</ele>
        <time>2024-08-25T15:22:44Z</time>
      </trkpt>
      <trkpt lat="49.02047" lon="7.84568">
        <ele>356.2</ele>
        <time>2024-08-25T15:22:45Z</time>
      </trkpt>
      <trkpt lat="49.02046" lon="7.84571">
        <ele>356</ele>
        <time>2024-08-25T15:22:46Z</time>
      </trkpt>
      <trkpt lat="49.02046" lon="7.84574">
        <ele>356</ele>
        <time>2024-08-25T15:22:47Z</time>
      </trkpt>
      <trkpt lat="49.02046" lon="7.84577">
        <ele>356</ele>
        <time>2024-08-25T15:22:48Z</time>
      </trkpt>
      <trkpt lat="49.02048" lon="7.84578">
        <ele>355.8</ele>
        <time>2024-08-25T15:22:49Z</time>
      </trkpt>
      <trkpt lat="49.02048" lon="7.84578">
        <ele>355.8</ele>
        <time>2024-08-25T15:22:50Z</time>
      </trkpt>
      <trkpt lat="49.02049" lon="7.84578">
        <ele>355.8</ele>
        <time>2024-08-25T15:22:51Z</time>
      </trkpt>
    </trkseg>
  </trk>
</gpx>